<?xml version="1.0" encoding="UTF-8" standalone="no" ?>
<gpx xmlns="http://www.topografix.com/GPX/1/1" xmlns:xsi="http://www.w3.org/2001/XMLSchema-instance" xsi:schemaLocation="http://www.topografix.com/GPX/1/1 http://www.topografix.com/GPX/1/1/gpx.xsd" version="1.1" creator="VisuGPX - https://www.visugpx.com">
  <metadata>
    <name>suuntoapp-Cycling-2021-07-25T06-33-33Z</name>
  </metadata>
  <trk>
    <name><![CDATA[suuntoapp-Cycling-2021-07-25T06-33-33Z]]></name>
    <trkseg>
      <trkpt lat="44.82964" lon="5.60573">
        <ele>847</ele>
        <time>2021-07-25T06:33:34Z</time>
      </trkpt>
      <trkpt lat="44.82966" lon="5.60578">
        <ele>847</ele>
        <time>2021-07-25T06:33:34Z</time>
      </trkpt>
      <trkpt lat="44.8297" lon="5.60594">
        <ele>847</ele>
        <time>2021-07-25T06:33:36Z</time>
      </trkpt>
      <trkpt lat="44.82973" lon="5.60607">
        <ele>847</ele>
        <time>2021-07-25T06:33:38Z</time>
      </trkpt>
      <trkpt lat="44.82978" lon="5.6062">
        <ele>846</ele>
        <time>2021-07-25T06:33:40Z</time>
      </trkpt>
      <trkpt lat="44.82983" lon="5.60634">
        <ele>846</ele>
        <time>2021-07-25T06:33:42Z</time>
      </trkpt>
      <trkpt lat="44.82988" lon="5.60649">
        <ele>846</ele>
        <time>2021-07-25T06:33:44Z</time>
      </trkpt>
      <trkpt lat="44.82993" lon="5.60665">
        <ele>846</ele>
        <time>2021-07-25T06:33:46Z</time>
      </trkpt>
      <trkpt lat="44.82999" lon="5.60681">
        <ele>846</ele>
        <time>2021-07-25T06:33:48Z</time>
      </trkpt>
      <trkpt lat="44.83003" lon="5.60694">
        <ele>844</ele>
        <time>2021-07-25T06:33:50Z</time>
      </trkpt>
      <trkpt lat="44.83005" lon="5.60706">
        <ele>844</ele>
        <time>2021-07-25T06:33:52Z</time>
      </trkpt>
      <trkpt lat="44.83012" lon="5.60714">
        <ele>844</ele>
        <time>2021-07-25T06:33:55Z</time>
      </trkpt>
      <trkpt lat="44.83007" lon="5.60698">
        <ele>842</ele>
        <time>2021-07-25T06:34:01Z</time>
      </trkpt>
      <trkpt lat="44.83" lon="5.60683">
        <ele>842</ele>
        <time>2021-07-25T06:34:04Z</time>
      </trkpt>
      <trkpt lat="44.82998" lon="5.60671">
        <ele>842</ele>
        <time>2021-07-25T06:34:06Z</time>
      </trkpt>
      <trkpt lat="44.82995" lon="5.6066">
        <ele>842</ele>
        <time>2021-07-25T06:34:08Z</time>
      </trkpt>
      <trkpt lat="44.82991" lon="5.60649">
        <ele>843</ele>
        <time>2021-07-25T06:34:10Z</time>
      </trkpt>
      <trkpt lat="44.82988" lon="5.60638">
        <ele>843</ele>
        <time>2021-07-25T06:34:12Z</time>
      </trkpt>
      <trkpt lat="44.82982" lon="5.60622">
        <ele>843</ele>
        <time>2021-07-25T06:34:15Z</time>
      </trkpt>
      <trkpt lat="44.82977" lon="5.60606">
        <ele>843</ele>
        <time>2021-07-25T06:34:18Z</time>
      </trkpt>
      <trkpt lat="44.82972" lon="5.6059">
        <ele>845</ele>
        <time>2021-07-25T06:34:21Z</time>
      </trkpt>
      <trkpt lat="44.82968" lon="5.60579">
        <ele>845</ele>
        <time>2021-07-25T06:34:23Z</time>
      </trkpt>
      <trkpt lat="44.82965" lon="5.60568">
        <ele>845</ele>
        <time>2021-07-25T06:34:25Z</time>
      </trkpt>
      <trkpt lat="44.82961" lon="5.60557">
        <ele>845</ele>
        <time>2021-07-25T06:34:27Z</time>
      </trkpt>
      <trkpt lat="44.82957" lon="5.60545">
        <ele>845</ele>
        <time>2021-07-25T06:34:29Z</time>
      </trkpt>
      <trkpt lat="44.82954" lon="5.60534">
        <ele>847</ele>
        <time>2021-07-25T06:34:31Z</time>
      </trkpt>
      <trkpt lat="44.8295" lon="5.60523">
        <ele>847</ele>
        <time>2021-07-25T06:34:33Z</time>
      </trkpt>
      <trkpt lat="44.82946" lon="5.60512">
        <ele>847</ele>
        <time>2021-07-25T06:34:35Z</time>
      </trkpt>
      <trkpt lat="44.82943" lon="5.60501">
        <ele>847</ele>
        <time>2021-07-25T06:34:37Z</time>
      </trkpt>
      <trkpt lat="44.82939" lon="5.6049">
        <ele>847</ele>
        <time>2021-07-25T06:34:39Z</time>
      </trkpt>
      <trkpt lat="44.82937" lon="5.60478">
        <ele>847</ele>
        <time>2021-07-25T06:34:41Z</time>
      </trkpt>
      <trkpt lat="44.82934" lon="5.60467">
        <ele>847</ele>
        <time>2021-07-25T06:34:43Z</time>
      </trkpt>
      <trkpt lat="44.82931" lon="5.60456">
        <ele>847</ele>
        <time>2021-07-25T06:34:45Z</time>
      </trkpt>
      <trkpt lat="44.82927" lon="5.60446">
        <ele>847</ele>
        <time>2021-07-25T06:34:47Z</time>
      </trkpt>
      <trkpt lat="44.82922" lon="5.6043">
        <ele>849</ele>
        <time>2021-07-25T06:34:50Z</time>
      </trkpt>
      <trkpt lat="44.82919" lon="5.6042">
        <ele>849</ele>
        <time>2021-07-25T06:34:52Z</time>
      </trkpt>
      <trkpt lat="44.82916" lon="5.6041">
        <ele>849</ele>
        <time>2021-07-25T06:34:54Z</time>
      </trkpt>
      <trkpt lat="44.82911" lon="5.60395">
        <ele>849</ele>
        <time>2021-07-25T06:34:57Z</time>
      </trkpt>
      <trkpt lat="44.82908" lon="5.60386">
        <ele>849</ele>
        <time>2021-07-25T06:34:59Z</time>
      </trkpt>
      <trkpt lat="44.82903" lon="5.60371">
        <ele>852</ele>
        <time>2021-07-25T06:35:02Z</time>
      </trkpt>
      <trkpt lat="44.82901" lon="5.60362">
        <ele>852</ele>
        <time>2021-07-25T06:35:04Z</time>
      </trkpt>
      <trkpt lat="44.82897" lon="5.60352">
        <ele>853</ele>
        <time>2021-07-25T06:35:06Z</time>
      </trkpt>
      <trkpt lat="44.82894" lon="5.60343">
        <ele>853</ele>
        <time>2021-07-25T06:35:08Z</time>
      </trkpt>
      <trkpt lat="44.82891" lon="5.60333">
        <ele>853</ele>
        <time>2021-07-25T06:35:10Z</time>
      </trkpt>
      <trkpt lat="44.82888" lon="5.60323">
        <ele>853</ele>
        <time>2021-07-25T06:35:12Z</time>
      </trkpt>
      <trkpt lat="44.82885" lon="5.60314">
        <ele>853</ele>
        <time>2021-07-25T06:35:14Z</time>
      </trkpt>
      <trkpt lat="44.82882" lon="5.60304">
        <ele>853</ele>
        <time>2021-07-25T06:35:16Z</time>
      </trkpt>
      <trkpt lat="44.82879" lon="5.60294">
        <ele>853</ele>
        <time>2021-07-25T06:35:18Z</time>
      </trkpt>
      <trkpt lat="44.82876" lon="5.60285">
        <ele>856</ele>
        <time>2021-07-25T06:35:20Z</time>
      </trkpt>
      <trkpt lat="44.82873" lon="5.60275">
        <ele>856</ele>
        <time>2021-07-25T06:35:22Z</time>
      </trkpt>
      <trkpt lat="44.82869" lon="5.60261">
        <ele>857</ele>
        <time>2021-07-25T06:35:25Z</time>
      </trkpt>
      <trkpt lat="44.82866" lon="5.60251">
        <ele>857</ele>
        <time>2021-07-25T06:35:27Z</time>
      </trkpt>
      <trkpt lat="44.82863" lon="5.60241">
        <ele>857</ele>
        <time>2021-07-25T06:35:29Z</time>
      </trkpt>
      <trkpt lat="44.8286" lon="5.60231">
        <ele>859</ele>
        <time>2021-07-25T06:35:31Z</time>
      </trkpt>
      <trkpt lat="44.82858" lon="5.60221">
        <ele>859</ele>
        <time>2021-07-25T06:35:33Z</time>
      </trkpt>
      <trkpt lat="44.82856" lon="5.60211">
        <ele>859</ele>
        <time>2021-07-25T06:35:35Z</time>
      </trkpt>
      <trkpt lat="44.82854" lon="5.60201">
        <ele>859</ele>
        <time>2021-07-25T06:35:37Z</time>
      </trkpt>
      <trkpt lat="44.82854" lon="5.60186">
        <ele>860</ele>
        <time>2021-07-25T06:35:40Z</time>
      </trkpt>
      <trkpt lat="44.82853" lon="5.60171">
        <ele>860</ele>
        <time>2021-07-25T06:35:43Z</time>
      </trkpt>
      <trkpt lat="44.82854" lon="5.6016">
        <ele>860</ele>
        <time>2021-07-25T06:35:45Z</time>
      </trkpt>
      <trkpt lat="44.82857" lon="5.60145">
        <ele>860</ele>
        <time>2021-07-25T06:35:48Z</time>
      </trkpt>
      <trkpt lat="44.82861" lon="5.6013">
        <ele>863</ele>
        <time>2021-07-25T06:35:51Z</time>
      </trkpt>
      <trkpt lat="44.82864" lon="5.60115">
        <ele>863</ele>
        <time>2021-07-25T06:35:54Z</time>
      </trkpt>
      <trkpt lat="44.82867" lon="5.60105">
        <ele>864</ele>
        <time>2021-07-25T06:35:56Z</time>
      </trkpt>
      <trkpt lat="44.82871" lon="5.60091">
        <ele>864</ele>
        <time>2021-07-25T06:35:59Z</time>
      </trkpt>
      <trkpt lat="44.82873" lon="5.60081">
        <ele>865</ele>
        <time>2021-07-25T06:36:01Z</time>
      </trkpt>
      <trkpt lat="44.82874" lon="5.60071">
        <ele>865</ele>
        <time>2021-07-25T06:36:03Z</time>
      </trkpt>
      <trkpt lat="44.82875" lon="5.60061">
        <ele>867</ele>
        <time>2021-07-25T06:36:05Z</time>
      </trkpt>
      <trkpt lat="44.82877" lon="5.60046">
        <ele>867</ele>
        <time>2021-07-25T06:36:08Z</time>
      </trkpt>
      <trkpt lat="44.82878" lon="5.6003">
        <ele>868</ele>
        <time>2021-07-25T06:36:11Z</time>
      </trkpt>
      <trkpt lat="44.82878" lon="5.60014">
        <ele>868</ele>
        <time>2021-07-25T06:36:14Z</time>
      </trkpt>
      <trkpt lat="44.82878" lon="5.60004">
        <ele>869</ele>
        <time>2021-07-25T06:36:16Z</time>
      </trkpt>
      <trkpt lat="44.82878" lon="5.59993">
        <ele>869</ele>
        <time>2021-07-25T06:36:18Z</time>
      </trkpt>
      <trkpt lat="44.82878" lon="5.59982">
        <ele>870</ele>
        <time>2021-07-25T06:36:20Z</time>
      </trkpt>
      <trkpt lat="44.82877" lon="5.59972">
        <ele>870</ele>
        <time>2021-07-25T06:36:22Z</time>
      </trkpt>
      <trkpt lat="44.82876" lon="5.59962">
        <ele>870</ele>
        <time>2021-07-25T06:36:24Z</time>
      </trkpt>
      <trkpt lat="44.82875" lon="5.59951">
        <ele>870</ele>
        <time>2021-07-25T06:36:26Z</time>
      </trkpt>
      <trkpt lat="44.82873" lon="5.59941">
        <ele>870</ele>
        <time>2021-07-25T06:36:28Z</time>
      </trkpt>
      <trkpt lat="44.82871" lon="5.59931">
        <ele>871</ele>
        <time>2021-07-25T06:36:30Z</time>
      </trkpt>
      <trkpt lat="44.82869" lon="5.5992">
        <ele>871</ele>
        <time>2021-07-25T06:36:32Z</time>
      </trkpt>
      <trkpt lat="44.82866" lon="5.5991">
        <ele>871</ele>
        <time>2021-07-25T06:36:34Z</time>
      </trkpt>
      <trkpt lat="44.82863" lon="5.599">
        <ele>871</ele>
        <time>2021-07-25T06:36:36Z</time>
      </trkpt>
      <trkpt lat="44.82859" lon="5.59891">
        <ele>871</ele>
        <time>2021-07-25T06:36:38Z</time>
      </trkpt>
      <trkpt lat="44.82856" lon="5.59881">
        <ele>874</ele>
        <time>2021-07-25T06:36:40Z</time>
      </trkpt>
      <trkpt lat="44.8285" lon="5.59869">
        <ele>874</ele>
        <time>2021-07-25T06:36:43Z</time>
      </trkpt>
      <trkpt lat="44.82846" lon="5.59859">
        <ele>875</ele>
        <time>2021-07-25T06:36:45Z</time>
      </trkpt>
      <trkpt lat="44.82843" lon="5.5985">
        <ele>875</ele>
        <time>2021-07-25T06:36:47Z</time>
      </trkpt>
      <trkpt lat="44.82839" lon="5.5984">
        <ele>875</ele>
        <time>2021-07-25T06:36:49Z</time>
      </trkpt>
      <trkpt lat="44.82835" lon="5.59832">
        <ele>877</ele>
        <time>2021-07-25T06:36:51Z</time>
      </trkpt>
      <trkpt lat="44.82831" lon="5.59823">
        <ele>877</ele>
        <time>2021-07-25T06:36:53Z</time>
      </trkpt>
      <trkpt lat="44.82827" lon="5.59814">
        <ele>877</ele>
        <time>2021-07-25T06:36:55Z</time>
      </trkpt>
      <trkpt lat="44.82823" lon="5.59805">
        <ele>877</ele>
        <time>2021-07-25T06:36:57Z</time>
      </trkpt>
      <trkpt lat="44.82818" lon="5.59796">
        <ele>877</ele>
        <time>2021-07-25T06:36:59Z</time>
      </trkpt>
      <trkpt lat="44.8281" lon="5.59783">
        <ele>878</ele>
        <time>2021-07-25T06:37:02Z</time>
      </trkpt>
      <trkpt lat="44.82805" lon="5.59769">
        <ele>878</ele>
        <time>2021-07-25T06:37:05Z</time>
      </trkpt>
      <trkpt lat="44.82799" lon="5.59755">
        <ele>878</ele>
        <time>2021-07-25T06:37:08Z</time>
      </trkpt>
      <trkpt lat="44.82793" lon="5.59742">
        <ele>880</ele>
        <time>2021-07-25T06:37:11Z</time>
      </trkpt>
      <trkpt lat="44.82786" lon="5.59729">
        <ele>880</ele>
        <time>2021-07-25T06:37:14Z</time>
      </trkpt>
      <trkpt lat="44.8278" lon="5.59716">
        <ele>880</ele>
        <time>2021-07-25T06:37:17Z</time>
      </trkpt>
      <trkpt lat="44.82773" lon="5.59702">
        <ele>882</ele>
        <time>2021-07-25T06:37:20Z</time>
      </trkpt>
      <trkpt lat="44.82766" lon="5.59688">
        <ele>882</ele>
        <time>2021-07-25T06:37:23Z</time>
      </trkpt>
      <trkpt lat="44.82762" lon="5.59679">
        <ele>882</ele>
        <time>2021-07-25T06:37:25Z</time>
      </trkpt>
      <trkpt lat="44.82755" lon="5.59665">
        <ele>882</ele>
        <time>2021-07-25T06:37:28Z</time>
      </trkpt>
      <trkpt lat="44.82748" lon="5.59652">
        <ele>884</ele>
        <time>2021-07-25T06:37:31Z</time>
      </trkpt>
      <trkpt lat="44.82742" lon="5.59639">
        <ele>884</ele>
        <time>2021-07-25T06:37:34Z</time>
      </trkpt>
      <trkpt lat="44.82738" lon="5.5963">
        <ele>886</ele>
        <time>2021-07-25T06:37:36Z</time>
      </trkpt>
      <trkpt lat="44.82734" lon="5.59621">
        <ele>886</ele>
        <time>2021-07-25T06:37:38Z</time>
      </trkpt>
      <trkpt lat="44.82727" lon="5.59608">
        <ele>887</ele>
        <time>2021-07-25T06:37:41Z</time>
      </trkpt>
      <trkpt lat="44.82723" lon="5.59598">
        <ele>887</ele>
        <time>2021-07-25T06:37:43Z</time>
      </trkpt>
      <trkpt lat="44.82719" lon="5.59589">
        <ele>888</ele>
        <time>2021-07-25T06:37:45Z</time>
      </trkpt>
      <trkpt lat="44.82715" lon="5.5958">
        <ele>888</ele>
        <time>2021-07-25T06:37:47Z</time>
      </trkpt>
      <trkpt lat="44.82712" lon="5.5957">
        <ele>888</ele>
        <time>2021-07-25T06:37:49Z</time>
      </trkpt>
      <trkpt lat="44.82709" lon="5.5956">
        <ele>890</ele>
        <time>2021-07-25T06:37:51Z</time>
      </trkpt>
      <trkpt lat="44.82706" lon="5.59548">
        <ele>890</ele>
        <time>2021-07-25T06:37:53Z</time>
      </trkpt>
      <trkpt lat="44.82704" lon="5.59537">
        <ele>890</ele>
        <time>2021-07-25T06:37:55Z</time>
      </trkpt>
      <trkpt lat="44.82702" lon="5.59525">
        <ele>890</ele>
        <time>2021-07-25T06:37:57Z</time>
      </trkpt>
      <trkpt lat="44.82701" lon="5.59514">
        <ele>890</ele>
        <time>2021-07-25T06:37:59Z</time>
      </trkpt>
      <trkpt lat="44.827" lon="5.59502">
        <ele>891</ele>
        <time>2021-07-25T06:38:01Z</time>
      </trkpt>
      <trkpt lat="44.82699" lon="5.59489">
        <ele>891</ele>
        <time>2021-07-25T06:38:03Z</time>
      </trkpt>
      <trkpt lat="44.82697" lon="5.59477">
        <ele>891</ele>
        <time>2021-07-25T06:38:05Z</time>
      </trkpt>
      <trkpt lat="44.82696" lon="5.59465">
        <ele>891</ele>
        <time>2021-07-25T06:38:07Z</time>
      </trkpt>
      <trkpt lat="44.82694" lon="5.59453">
        <ele>891</ele>
        <time>2021-07-25T06:38:09Z</time>
      </trkpt>
      <trkpt lat="44.82692" lon="5.59436">
        <ele>893</ele>
        <time>2021-07-25T06:38:12Z</time>
      </trkpt>
      <trkpt lat="44.8269" lon="5.5942">
        <ele>893</ele>
        <time>2021-07-25T06:38:15Z</time>
      </trkpt>
      <trkpt lat="44.8269" lon="5.59402">
        <ele>893</ele>
        <time>2021-07-25T06:38:18Z</time>
      </trkpt>
      <trkpt lat="44.82687" lon="5.59384">
        <ele>896</ele>
        <time>2021-07-25T06:38:21Z</time>
      </trkpt>
      <trkpt lat="44.82684" lon="5.59362">
        <ele>896</ele>
        <time>2021-07-25T06:38:24Z</time>
      </trkpt>
      <trkpt lat="44.82682" lon="5.59343">
        <ele>896</ele>
        <time>2021-07-25T06:38:27Z</time>
      </trkpt>
      <trkpt lat="44.82681" lon="5.59325">
        <ele>896</ele>
        <time>2021-07-25T06:38:30Z</time>
      </trkpt>
      <trkpt lat="44.82678" lon="5.59311">
        <ele>896</ele>
        <time>2021-07-25T06:38:32Z</time>
      </trkpt>
      <trkpt lat="44.82676" lon="5.59296">
        <ele>896</ele>
        <time>2021-07-25T06:38:34Z</time>
      </trkpt>
      <trkpt lat="44.82675" lon="5.5928">
        <ele>896</ele>
        <time>2021-07-25T06:38:36Z</time>
      </trkpt>
      <trkpt lat="44.82673" lon="5.59264">
        <ele>896</ele>
        <time>2021-07-25T06:38:38Z</time>
      </trkpt>
      <trkpt lat="44.82671" lon="5.59249">
        <ele>897</ele>
        <time>2021-07-25T06:38:40Z</time>
      </trkpt>
      <trkpt lat="44.82669" lon="5.59233">
        <ele>897</ele>
        <time>2021-07-25T06:38:42Z</time>
      </trkpt>
      <trkpt lat="44.82666" lon="5.59215">
        <ele>897</ele>
        <time>2021-07-25T06:38:44Z</time>
      </trkpt>
      <trkpt lat="44.82664" lon="5.59198">
        <ele>897</ele>
        <time>2021-07-25T06:38:46Z</time>
      </trkpt>
      <trkpt lat="44.82661" lon="5.59179">
        <ele>897</ele>
        <time>2021-07-25T06:38:48Z</time>
      </trkpt>
      <trkpt lat="44.82658" lon="5.59161">
        <ele>898</ele>
        <time>2021-07-25T06:38:50Z</time>
      </trkpt>
      <trkpt lat="44.82654" lon="5.59145">
        <ele>898</ele>
        <time>2021-07-25T06:38:52Z</time>
      </trkpt>
      <trkpt lat="44.8265" lon="5.59127">
        <ele>898</ele>
        <time>2021-07-25T06:38:54Z</time>
      </trkpt>
      <trkpt lat="44.82646" lon="5.59112">
        <ele>898</ele>
        <time>2021-07-25T06:38:56Z</time>
      </trkpt>
      <trkpt lat="44.82642" lon="5.59097">
        <ele>898</ele>
        <time>2021-07-25T06:38:58Z</time>
      </trkpt>
      <trkpt lat="44.82638" lon="5.59084">
        <ele>899</ele>
        <time>2021-07-25T06:39:00Z</time>
      </trkpt>
      <trkpt lat="44.82634" lon="5.59069">
        <ele>899</ele>
        <time>2021-07-25T06:39:02Z</time>
      </trkpt>
      <trkpt lat="44.8263" lon="5.59055">
        <ele>899</ele>
        <time>2021-07-25T06:39:04Z</time>
      </trkpt>
      <trkpt lat="44.82625" lon="5.59042">
        <ele>899</ele>
        <time>2021-07-25T06:39:06Z</time>
      </trkpt>
      <trkpt lat="44.82619" lon="5.5903">
        <ele>899</ele>
        <time>2021-07-25T06:39:08Z</time>
      </trkpt>
      <trkpt lat="44.82613" lon="5.59018">
        <ele>901</ele>
        <time>2021-07-25T06:39:10Z</time>
      </trkpt>
      <trkpt lat="44.82607" lon="5.59006">
        <ele>901</ele>
        <time>2021-07-25T06:39:12Z</time>
      </trkpt>
      <trkpt lat="44.826" lon="5.58995">
        <ele>901</ele>
        <time>2021-07-25T06:39:14Z</time>
      </trkpt>
      <trkpt lat="44.82593" lon="5.58983">
        <ele>901</ele>
        <time>2021-07-25T06:39:16Z</time>
      </trkpt>
      <trkpt lat="44.82586" lon="5.58972">
        <ele>901</ele>
        <time>2021-07-25T06:39:18Z</time>
      </trkpt>
      <trkpt lat="44.8258" lon="5.58961">
        <ele>902</ele>
        <time>2021-07-25T06:39:20Z</time>
      </trkpt>
      <trkpt lat="44.82574" lon="5.5895">
        <ele>902</ele>
        <time>2021-07-25T06:39:22Z</time>
      </trkpt>
      <trkpt lat="44.82568" lon="5.58939">
        <ele>902</ele>
        <time>2021-07-25T06:39:24Z</time>
      </trkpt>
      <trkpt lat="44.82562" lon="5.58928">
        <ele>902</ele>
        <time>2021-07-25T06:39:26Z</time>
      </trkpt>
      <trkpt lat="44.82556" lon="5.58918">
        <ele>902</ele>
        <time>2021-07-25T06:39:28Z</time>
      </trkpt>
      <trkpt lat="44.8255" lon="5.58907">
        <ele>903</ele>
        <time>2021-07-25T06:39:30Z</time>
      </trkpt>
      <trkpt lat="44.82544" lon="5.58896">
        <ele>903</ele>
        <time>2021-07-25T06:39:32Z</time>
      </trkpt>
      <trkpt lat="44.82538" lon="5.58884">
        <ele>903</ele>
        <time>2021-07-25T06:39:34Z</time>
      </trkpt>
      <trkpt lat="44.82533" lon="5.58873">
        <ele>903</ele>
        <time>2021-07-25T06:39:36Z</time>
      </trkpt>
      <trkpt lat="44.82527" lon="5.58862">
        <ele>903</ele>
        <time>2021-07-25T06:39:38Z</time>
      </trkpt>
      <trkpt lat="44.8252" lon="5.58852">
        <ele>905</ele>
        <time>2021-07-25T06:39:40Z</time>
      </trkpt>
      <trkpt lat="44.82513" lon="5.58842">
        <ele>905</ele>
        <time>2021-07-25T06:39:42Z</time>
      </trkpt>
      <trkpt lat="44.82506" lon="5.58832">
        <ele>905</ele>
        <time>2021-07-25T06:39:44Z</time>
      </trkpt>
      <trkpt lat="44.82499" lon="5.58823">
        <ele>905</ele>
        <time>2021-07-25T06:39:46Z</time>
      </trkpt>
      <trkpt lat="44.82491" lon="5.58814">
        <ele>905</ele>
        <time>2021-07-25T06:39:48Z</time>
      </trkpt>
      <trkpt lat="44.82484" lon="5.58805">
        <ele>906</ele>
        <time>2021-07-25T06:39:50Z</time>
      </trkpt>
      <trkpt lat="44.82473" lon="5.58793">
        <ele>906</ele>
        <time>2021-07-25T06:39:53Z</time>
      </trkpt>
      <trkpt lat="44.8246" lon="5.58784">
        <ele>906</ele>
        <time>2021-07-25T06:39:56Z</time>
      </trkpt>
      <trkpt lat="44.82448" lon="5.58773">
        <ele>906</ele>
        <time>2021-07-25T06:39:59Z</time>
      </trkpt>
      <trkpt lat="44.82443" lon="5.58762">
        <ele>908</ele>
        <time>2021-07-25T06:40:01Z</time>
      </trkpt>
      <trkpt lat="44.82438" lon="5.58743">
        <ele>908</ele>
        <time>2021-07-25T06:40:04Z</time>
      </trkpt>
      <trkpt lat="44.82434" lon="5.58725">
        <ele>909</ele>
        <time>2021-07-25T06:40:07Z</time>
      </trkpt>
      <trkpt lat="44.82431" lon="5.58711">
        <ele>909</ele>
        <time>2021-07-25T06:40:09Z</time>
      </trkpt>
      <trkpt lat="44.82428" lon="5.58691">
        <ele>910</ele>
        <time>2021-07-25T06:40:12Z</time>
      </trkpt>
      <trkpt lat="44.82425" lon="5.58678">
        <ele>910</ele>
        <time>2021-07-25T06:40:14Z</time>
      </trkpt>
      <trkpt lat="44.82422" lon="5.58659">
        <ele>910</ele>
        <time>2021-07-25T06:40:17Z</time>
      </trkpt>
      <trkpt lat="44.82417" lon="5.5864">
        <ele>912</ele>
        <time>2021-07-25T06:40:20Z</time>
      </trkpt>
      <trkpt lat="44.82413" lon="5.58626">
        <ele>912</ele>
        <time>2021-07-25T06:40:22Z</time>
      </trkpt>
      <trkpt lat="44.82409" lon="5.58614">
        <ele>912</ele>
        <time>2021-07-25T06:40:24Z</time>
      </trkpt>
      <trkpt lat="44.82405" lon="5.58601">
        <ele>912</ele>
        <time>2021-07-25T06:40:26Z</time>
      </trkpt>
      <trkpt lat="44.82401" lon="5.58588">
        <ele>912</ele>
        <time>2021-07-25T06:40:28Z</time>
      </trkpt>
      <trkpt lat="44.82397" lon="5.58576">
        <ele>914</ele>
        <time>2021-07-25T06:40:30Z</time>
      </trkpt>
      <trkpt lat="44.82393" lon="5.58562">
        <ele>914</ele>
        <time>2021-07-25T06:40:32Z</time>
      </trkpt>
      <trkpt lat="44.82389" lon="5.58549">
        <ele>914</ele>
        <time>2021-07-25T06:40:34Z</time>
      </trkpt>
      <trkpt lat="44.82385" lon="5.58535">
        <ele>914</ele>
        <time>2021-07-25T06:40:36Z</time>
      </trkpt>
      <trkpt lat="44.82381" lon="5.5852">
        <ele>914</ele>
        <time>2021-07-25T06:40:38Z</time>
      </trkpt>
      <trkpt lat="44.82378" lon="5.58506">
        <ele>915</ele>
        <time>2021-07-25T06:40:40Z</time>
      </trkpt>
      <trkpt lat="44.82373" lon="5.58493">
        <ele>915</ele>
        <time>2021-07-25T06:40:42Z</time>
      </trkpt>
      <trkpt lat="44.82367" lon="5.58481">
        <ele>915</ele>
        <time>2021-07-25T06:40:44Z</time>
      </trkpt>
      <trkpt lat="44.82363" lon="5.58465">
        <ele>915</ele>
        <time>2021-07-25T06:40:46Z</time>
      </trkpt>
      <trkpt lat="44.82358" lon="5.58451">
        <ele>915</ele>
        <time>2021-07-25T06:40:48Z</time>
      </trkpt>
      <trkpt lat="44.82353" lon="5.58436">
        <ele>916</ele>
        <time>2021-07-25T06:40:50Z</time>
      </trkpt>
      <trkpt lat="44.82346" lon="5.58422">
        <ele>916</ele>
        <time>2021-07-25T06:40:52Z</time>
      </trkpt>
      <trkpt lat="44.8234" lon="5.58408">
        <ele>916</ele>
        <time>2021-07-25T06:40:54Z</time>
      </trkpt>
      <trkpt lat="44.82334" lon="5.58394">
        <ele>916</ele>
        <time>2021-07-25T06:40:56Z</time>
      </trkpt>
      <trkpt lat="44.82327" lon="5.58381">
        <ele>916</ele>
        <time>2021-07-25T06:40:58Z</time>
      </trkpt>
      <trkpt lat="44.82321" lon="5.58368">
        <ele>917</ele>
        <time>2021-07-25T06:41:00Z</time>
      </trkpt>
      <trkpt lat="44.82314" lon="5.58356">
        <ele>917</ele>
        <time>2021-07-25T06:41:02Z</time>
      </trkpt>
      <trkpt lat="44.82306" lon="5.58344">
        <ele>917</ele>
        <time>2021-07-25T06:41:04Z</time>
      </trkpt>
      <trkpt lat="44.82297" lon="5.58335">
        <ele>917</ele>
        <time>2021-07-25T06:41:06Z</time>
      </trkpt>
      <trkpt lat="44.82287" lon="5.58328">
        <ele>917</ele>
        <time>2021-07-25T06:41:08Z</time>
      </trkpt>
      <trkpt lat="44.82276" lon="5.58322">
        <ele>917</ele>
        <time>2021-07-25T06:41:10Z</time>
      </trkpt>
      <trkpt lat="44.82267" lon="5.58315">
        <ele>917</ele>
        <time>2021-07-25T06:41:12Z</time>
      </trkpt>
      <trkpt lat="44.82256" lon="5.58308">
        <ele>917</ele>
        <time>2021-07-25T06:41:14Z</time>
      </trkpt>
      <trkpt lat="44.82246" lon="5.583">
        <ele>917</ele>
        <time>2021-07-25T06:41:16Z</time>
      </trkpt>
      <trkpt lat="44.8224" lon="5.58296">
        <ele>917</ele>
        <time>2021-07-25T06:41:17Z</time>
      </trkpt>
      <trkpt lat="44.82235" lon="5.58291">
        <ele>917</ele>
        <time>2021-07-25T06:41:18Z</time>
      </trkpt>
      <trkpt lat="44.82227" lon="5.5828">
        <ele>919</ele>
        <time>2021-07-25T06:41:20Z</time>
      </trkpt>
      <trkpt lat="44.8222" lon="5.58269">
        <ele>919</ele>
        <time>2021-07-25T06:41:22Z</time>
      </trkpt>
      <trkpt lat="44.82214" lon="5.58258">
        <ele>919</ele>
        <time>2021-07-25T06:41:24Z</time>
      </trkpt>
      <trkpt lat="44.82204" lon="5.58242">
        <ele>919</ele>
        <time>2021-07-25T06:41:27Z</time>
      </trkpt>
      <trkpt lat="44.82196" lon="5.58235">
        <ele>919</ele>
        <time>2021-07-25T06:41:29Z</time>
      </trkpt>
      <trkpt lat="44.82188" lon="5.58229">
        <ele>920</ele>
        <time>2021-07-25T06:41:31Z</time>
      </trkpt>
      <trkpt lat="44.8218" lon="5.58224">
        <ele>920</ele>
        <time>2021-07-25T06:41:33Z</time>
      </trkpt>
      <trkpt lat="44.82167" lon="5.58217">
        <ele>920</ele>
        <time>2021-07-25T06:41:36Z</time>
      </trkpt>
      <trkpt lat="44.82159" lon="5.58213">
        <ele>920</ele>
        <time>2021-07-25T06:41:38Z</time>
      </trkpt>
      <trkpt lat="44.82151" lon="5.5821">
        <ele>921</ele>
        <time>2021-07-25T06:41:40Z</time>
      </trkpt>
      <trkpt lat="44.82143" lon="5.58206">
        <ele>921</ele>
        <time>2021-07-25T06:41:42Z</time>
      </trkpt>
      <trkpt lat="44.82134" lon="5.58202">
        <ele>921</ele>
        <time>2021-07-25T06:41:44Z</time>
      </trkpt>
      <trkpt lat="44.82126" lon="5.58198">
        <ele>921</ele>
        <time>2021-07-25T06:41:46Z</time>
      </trkpt>
      <trkpt lat="44.82117" lon="5.58194">
        <ele>921</ele>
        <time>2021-07-25T06:41:48Z</time>
      </trkpt>
      <trkpt lat="44.82109" lon="5.5819">
        <ele>924</ele>
        <time>2021-07-25T06:41:50Z</time>
      </trkpt>
      <trkpt lat="44.821" lon="5.58186">
        <ele>924</ele>
        <time>2021-07-25T06:41:52Z</time>
      </trkpt>
      <trkpt lat="44.82092" lon="5.58182">
        <ele>924</ele>
        <time>2021-07-25T06:41:54Z</time>
      </trkpt>
      <trkpt lat="44.82083" lon="5.58178">
        <ele>925</ele>
        <time>2021-07-25T06:41:56Z</time>
      </trkpt>
      <trkpt lat="44.82075" lon="5.58174">
        <ele>925</ele>
        <time>2021-07-25T06:41:58Z</time>
      </trkpt>
      <trkpt lat="44.82067" lon="5.58171">
        <ele>926</ele>
        <time>2021-07-25T06:42:00Z</time>
      </trkpt>
      <trkpt lat="44.82059" lon="5.58169">
        <ele>926</ele>
        <time>2021-07-25T06:42:02Z</time>
      </trkpt>
      <trkpt lat="44.82051" lon="5.58172">
        <ele>926</ele>
        <time>2021-07-25T06:42:04Z</time>
      </trkpt>
      <trkpt lat="44.82043" lon="5.58177">
        <ele>926</ele>
        <time>2021-07-25T06:42:06Z</time>
      </trkpt>
      <trkpt lat="44.82036" lon="5.58185">
        <ele>926</ele>
        <time>2021-07-25T06:42:08Z</time>
      </trkpt>
      <trkpt lat="44.82029" lon="5.58201">
        <ele>927</ele>
        <time>2021-07-25T06:42:11Z</time>
      </trkpt>
      <trkpt lat="44.82022" lon="5.58218">
        <ele>927</ele>
        <time>2021-07-25T06:42:14Z</time>
      </trkpt>
      <trkpt lat="44.82017" lon="5.58236">
        <ele>927</ele>
        <time>2021-07-25T06:42:17Z</time>
      </trkpt>
      <trkpt lat="44.82012" lon="5.58254">
        <ele>930</ele>
        <time>2021-07-25T06:42:20Z</time>
      </trkpt>
      <trkpt lat="44.82005" lon="5.58271">
        <ele>930</ele>
        <time>2021-07-25T06:42:23Z</time>
      </trkpt>
      <trkpt lat="44.81997" lon="5.58285">
        <ele>932</ele>
        <time>2021-07-25T06:42:26Z</time>
      </trkpt>
      <trkpt lat="44.8199" lon="5.58293">
        <ele>932</ele>
        <time>2021-07-25T06:42:28Z</time>
      </trkpt>
      <trkpt lat="44.81982" lon="5.58297">
        <ele>933</ele>
        <time>2021-07-25T06:42:30Z</time>
      </trkpt>
      <trkpt lat="44.81973" lon="5.58298">
        <ele>933</ele>
        <time>2021-07-25T06:42:32Z</time>
      </trkpt>
      <trkpt lat="44.81965" lon="5.58297">
        <ele>933</ele>
        <time>2021-07-25T06:42:34Z</time>
      </trkpt>
      <trkpt lat="44.81956" lon="5.58295">
        <ele>933</ele>
        <time>2021-07-25T06:42:36Z</time>
      </trkpt>
      <trkpt lat="44.81947" lon="5.58293">
        <ele>933</ele>
        <time>2021-07-25T06:42:38Z</time>
      </trkpt>
      <trkpt lat="44.81938" lon="5.58291">
        <ele>933</ele>
        <time>2021-07-25T06:42:40Z</time>
      </trkpt>
      <trkpt lat="44.81929" lon="5.5829">
        <ele>933</ele>
        <time>2021-07-25T06:42:42Z</time>
      </trkpt>
      <trkpt lat="44.8192" lon="5.58288">
        <ele>933</ele>
        <time>2021-07-25T06:42:44Z</time>
      </trkpt>
      <trkpt lat="44.81911" lon="5.58286">
        <ele>933</ele>
        <time>2021-07-25T06:42:46Z</time>
      </trkpt>
      <trkpt lat="44.81898" lon="5.58282">
        <ele>933</ele>
        <time>2021-07-25T06:42:49Z</time>
      </trkpt>
      <trkpt lat="44.81888" lon="5.5828">
        <ele>935</ele>
        <time>2021-07-25T06:42:51Z</time>
      </trkpt>
      <trkpt lat="44.81879" lon="5.58278">
        <ele>935</ele>
        <time>2021-07-25T06:42:53Z</time>
      </trkpt>
      <trkpt lat="44.81871" lon="5.58275">
        <ele>935</ele>
        <time>2021-07-25T06:42:55Z</time>
      </trkpt>
      <trkpt lat="44.81866" lon="5.58274">
        <ele>935</ele>
        <time>2021-07-25T06:42:56Z</time>
      </trkpt>
      <trkpt lat="44.81861" lon="5.58273">
        <ele>935</ele>
        <time>2021-07-25T06:42:57Z</time>
      </trkpt>
      <trkpt lat="44.81856" lon="5.58273">
        <ele>935</ele>
        <time>2021-07-25T06:42:58Z</time>
      </trkpt>
      <trkpt lat="44.81852" lon="5.58272">
        <ele>935</ele>
        <time>2021-07-25T06:42:59Z</time>
      </trkpt>
      <trkpt lat="44.81837" lon="5.5827">
        <ele>938</ele>
        <time>2021-07-25T06:43:02Z</time>
      </trkpt>
      <trkpt lat="44.81823" lon="5.58269">
        <ele>938</ele>
        <time>2021-07-25T06:43:05Z</time>
      </trkpt>
      <trkpt lat="44.81812" lon="5.58268">
        <ele>938</ele>
        <time>2021-07-25T06:43:07Z</time>
      </trkpt>
      <trkpt lat="44.81801" lon="5.58267">
        <ele>938</ele>
        <time>2021-07-25T06:43:09Z</time>
      </trkpt>
      <trkpt lat="44.81791" lon="5.58266">
        <ele>939</ele>
        <time>2021-07-25T06:43:11Z</time>
      </trkpt>
      <trkpt lat="44.8178" lon="5.58264">
        <ele>939</ele>
        <time>2021-07-25T06:43:13Z</time>
      </trkpt>
      <trkpt lat="44.8177" lon="5.58262">
        <ele>939</ele>
        <time>2021-07-25T06:43:15Z</time>
      </trkpt>
      <trkpt lat="44.8176" lon="5.58258">
        <ele>939</ele>
        <time>2021-07-25T06:43:17Z</time>
      </trkpt>
      <trkpt lat="44.81751" lon="5.58253">
        <ele>939</ele>
        <time>2021-07-25T06:43:19Z</time>
      </trkpt>
      <trkpt lat="44.81742" lon="5.58247">
        <ele>940</ele>
        <time>2021-07-25T06:43:21Z</time>
      </trkpt>
      <trkpt lat="44.81733" lon="5.5824">
        <ele>940</ele>
        <time>2021-07-25T06:43:23Z</time>
      </trkpt>
      <trkpt lat="44.81725" lon="5.58234">
        <ele>940</ele>
        <time>2021-07-25T06:43:25Z</time>
      </trkpt>
      <trkpt lat="44.81716" lon="5.58228">
        <ele>940</ele>
        <time>2021-07-25T06:43:27Z</time>
      </trkpt>
      <trkpt lat="44.81707" lon="5.58222">
        <ele>940</ele>
        <time>2021-07-25T06:43:29Z</time>
      </trkpt>
      <trkpt lat="44.81698" lon="5.58216">
        <ele>941</ele>
        <time>2021-07-25T06:43:31Z</time>
      </trkpt>
      <trkpt lat="44.81689" lon="5.5821">
        <ele>941</ele>
        <time>2021-07-25T06:43:33Z</time>
      </trkpt>
      <trkpt lat="44.81681" lon="5.58204">
        <ele>941</ele>
        <time>2021-07-25T06:43:35Z</time>
      </trkpt>
      <trkpt lat="44.81672" lon="5.58198">
        <ele>941</ele>
        <time>2021-07-25T06:43:37Z</time>
      </trkpt>
      <trkpt lat="44.81664" lon="5.58191">
        <ele>941</ele>
        <time>2021-07-25T06:43:39Z</time>
      </trkpt>
      <trkpt lat="44.81655" lon="5.58185">
        <ele>943</ele>
        <time>2021-07-25T06:43:41Z</time>
      </trkpt>
      <trkpt lat="44.81647" lon="5.58179">
        <ele>943</ele>
        <time>2021-07-25T06:43:43Z</time>
      </trkpt>
      <trkpt lat="44.81638" lon="5.58173">
        <ele>943</ele>
        <time>2021-07-25T06:43:45Z</time>
      </trkpt>
      <trkpt lat="44.81629" lon="5.58168">
        <ele>943</ele>
        <time>2021-07-25T06:43:47Z</time>
      </trkpt>
      <trkpt lat="44.8162" lon="5.58163">
        <ele>943</ele>
        <time>2021-07-25T06:43:49Z</time>
      </trkpt>
      <trkpt lat="44.81611" lon="5.58159">
        <ele>945</ele>
        <time>2021-07-25T06:43:51Z</time>
      </trkpt>
      <trkpt lat="44.81602" lon="5.58157">
        <ele>945</ele>
        <time>2021-07-25T06:43:53Z</time>
      </trkpt>
      <trkpt lat="44.81589" lon="5.58155">
        <ele>946</ele>
        <time>2021-07-25T06:43:56Z</time>
      </trkpt>
      <trkpt lat="44.81579" lon="5.58154">
        <ele>946</ele>
        <time>2021-07-25T06:43:58Z</time>
      </trkpt>
      <trkpt lat="44.81569" lon="5.58153">
        <ele>947</ele>
        <time>2021-07-25T06:44:00Z</time>
      </trkpt>
      <trkpt lat="44.8156" lon="5.58153">
        <ele>947</ele>
        <time>2021-07-25T06:44:02Z</time>
      </trkpt>
      <trkpt lat="44.81551" lon="5.58152">
        <ele>947</ele>
        <time>2021-07-25T06:44:04Z</time>
      </trkpt>
      <trkpt lat="44.81541" lon="5.58152">
        <ele>947</ele>
        <time>2021-07-25T06:44:06Z</time>
      </trkpt>
      <trkpt lat="44.81527" lon="5.5815">
        <ele>947</ele>
        <time>2021-07-25T06:44:09Z</time>
      </trkpt>
      <trkpt lat="44.81518" lon="5.58148">
        <ele>949</ele>
        <time>2021-07-25T06:44:11Z</time>
      </trkpt>
      <trkpt lat="44.81509" lon="5.58145">
        <ele>949</ele>
        <time>2021-07-25T06:44:13Z</time>
      </trkpt>
      <trkpt lat="44.815" lon="5.58141">
        <ele>949</ele>
        <time>2021-07-25T06:44:15Z</time>
      </trkpt>
      <trkpt lat="44.81487" lon="5.58134">
        <ele>949</ele>
        <time>2021-07-25T06:44:18Z</time>
      </trkpt>
      <trkpt lat="44.81473" lon="5.58133">
        <ele>951</ele>
        <time>2021-07-25T06:44:21Z</time>
      </trkpt>
      <trkpt lat="44.81464" lon="5.58137">
        <ele>951</ele>
        <time>2021-07-25T06:44:23Z</time>
      </trkpt>
      <trkpt lat="44.81455" lon="5.58145">
        <ele>952</ele>
        <time>2021-07-25T06:44:25Z</time>
      </trkpt>
      <trkpt lat="44.81447" lon="5.58155">
        <ele>952</ele>
        <time>2021-07-25T06:44:27Z</time>
      </trkpt>
      <trkpt lat="44.81437" lon="5.58163">
        <ele>952</ele>
        <time>2021-07-25T06:44:29Z</time>
      </trkpt>
      <trkpt lat="44.81427" lon="5.58171">
        <ele>952</ele>
        <time>2021-07-25T06:44:31Z</time>
      </trkpt>
      <trkpt lat="44.81417" lon="5.58177">
        <ele>952</ele>
        <time>2021-07-25T06:44:33Z</time>
      </trkpt>
      <trkpt lat="44.81407" lon="5.58183">
        <ele>952</ele>
        <time>2021-07-25T06:44:35Z</time>
      </trkpt>
      <trkpt lat="44.81396" lon="5.58187">
        <ele>952</ele>
        <time>2021-07-25T06:44:37Z</time>
      </trkpt>
      <trkpt lat="44.81386" lon="5.58192">
        <ele>952</ele>
        <time>2021-07-25T06:44:39Z</time>
      </trkpt>
      <trkpt lat="44.81376" lon="5.58196">
        <ele>954</ele>
        <time>2021-07-25T06:44:41Z</time>
      </trkpt>
      <trkpt lat="44.81366" lon="5.582">
        <ele>954</ele>
        <time>2021-07-25T06:44:43Z</time>
      </trkpt>
      <trkpt lat="44.81357" lon="5.58203">
        <ele>954</ele>
        <time>2021-07-25T06:44:45Z</time>
      </trkpt>
      <trkpt lat="44.81347" lon="5.58207">
        <ele>954</ele>
        <time>2021-07-25T06:44:47Z</time>
      </trkpt>
      <trkpt lat="44.81338" lon="5.58211">
        <ele>954</ele>
        <time>2021-07-25T06:44:49Z</time>
      </trkpt>
      <trkpt lat="44.81328" lon="5.58215">
        <ele>955</ele>
        <time>2021-07-25T06:44:51Z</time>
      </trkpt>
      <trkpt lat="44.81318" lon="5.58219">
        <ele>955</ele>
        <time>2021-07-25T06:44:53Z</time>
      </trkpt>
      <trkpt lat="44.81308" lon="5.58223">
        <ele>955</ele>
        <time>2021-07-25T06:44:55Z</time>
      </trkpt>
      <trkpt lat="44.81299" lon="5.58226">
        <ele>955</ele>
        <time>2021-07-25T06:44:57Z</time>
      </trkpt>
      <trkpt lat="44.81289" lon="5.58228">
        <ele>955</ele>
        <time>2021-07-25T06:44:59Z</time>
      </trkpt>
      <trkpt lat="44.81279" lon="5.58231">
        <ele>957</ele>
        <time>2021-07-25T06:45:01Z</time>
      </trkpt>
      <trkpt lat="44.8127" lon="5.58233">
        <ele>957</ele>
        <time>2021-07-25T06:45:03Z</time>
      </trkpt>
      <trkpt lat="44.8126" lon="5.58235">
        <ele>958</ele>
        <time>2021-07-25T06:45:05Z</time>
      </trkpt>
      <trkpt lat="44.8125" lon="5.58237">
        <ele>958</ele>
        <time>2021-07-25T06:45:07Z</time>
      </trkpt>
      <trkpt lat="44.81241" lon="5.58239">
        <ele>958</ele>
        <time>2021-07-25T06:45:09Z</time>
      </trkpt>
      <trkpt lat="44.81231" lon="5.58241">
        <ele>959</ele>
        <time>2021-07-25T06:45:11Z</time>
      </trkpt>
      <trkpt lat="44.81221" lon="5.58243">
        <ele>959</ele>
        <time>2021-07-25T06:45:13Z</time>
      </trkpt>
      <trkpt lat="44.81211" lon="5.58245">
        <ele>959</ele>
        <time>2021-07-25T06:45:15Z</time>
      </trkpt>
      <trkpt lat="44.81202" lon="5.58247">
        <ele>959</ele>
        <time>2021-07-25T06:45:17Z</time>
      </trkpt>
      <trkpt lat="44.81192" lon="5.58249">
        <ele>959</ele>
        <time>2021-07-25T06:45:19Z</time>
      </trkpt>
      <trkpt lat="44.81182" lon="5.58252">
        <ele>961</ele>
        <time>2021-07-25T06:45:21Z</time>
      </trkpt>
      <trkpt lat="44.81172" lon="5.58254">
        <ele>961</ele>
        <time>2021-07-25T06:45:23Z</time>
      </trkpt>
      <trkpt lat="44.81162" lon="5.58256">
        <ele>961</ele>
        <time>2021-07-25T06:45:25Z</time>
      </trkpt>
      <trkpt lat="44.81153" lon="5.58257">
        <ele>961</ele>
        <time>2021-07-25T06:45:27Z</time>
      </trkpt>
      <trkpt lat="44.81143" lon="5.58259">
        <ele>961</ele>
        <time>2021-07-25T06:45:29Z</time>
      </trkpt>
      <trkpt lat="44.81133" lon="5.5826">
        <ele>963</ele>
        <time>2021-07-25T06:45:31Z</time>
      </trkpt>
      <trkpt lat="44.81124" lon="5.58263">
        <ele>963</ele>
        <time>2021-07-25T06:45:33Z</time>
      </trkpt>
      <trkpt lat="44.81115" lon="5.58268">
        <ele>963</ele>
        <time>2021-07-25T06:45:35Z</time>
      </trkpt>
      <trkpt lat="44.81106" lon="5.58273">
        <ele>963</ele>
        <time>2021-07-25T06:45:37Z</time>
      </trkpt>
      <trkpt lat="44.81097" lon="5.58281">
        <ele>963</ele>
        <time>2021-07-25T06:45:39Z</time>
      </trkpt>
      <trkpt lat="44.81088" lon="5.5829">
        <ele>965</ele>
        <time>2021-07-25T06:45:41Z</time>
      </trkpt>
      <trkpt lat="44.8108" lon="5.58299">
        <ele>965</ele>
        <time>2021-07-25T06:45:43Z</time>
      </trkpt>
      <trkpt lat="44.81073" lon="5.58309">
        <ele>965</ele>
        <time>2021-07-25T06:45:45Z</time>
      </trkpt>
      <trkpt lat="44.81065" lon="5.58319">
        <ele>965</ele>
        <time>2021-07-25T06:45:47Z</time>
      </trkpt>
      <trkpt lat="44.81058" lon="5.5833">
        <ele>965</ele>
        <time>2021-07-25T06:45:49Z</time>
      </trkpt>
      <trkpt lat="44.8105" lon="5.58341">
        <ele>966</ele>
        <time>2021-07-25T06:45:51Z</time>
      </trkpt>
      <trkpt lat="44.81043" lon="5.58352">
        <ele>966</ele>
        <time>2021-07-25T06:45:53Z</time>
      </trkpt>
      <trkpt lat="44.81036" lon="5.58363">
        <ele>966</ele>
        <time>2021-07-25T06:45:55Z</time>
      </trkpt>
      <trkpt lat="44.81029" lon="5.58374">
        <ele>966</ele>
        <time>2021-07-25T06:45:57Z</time>
      </trkpt>
      <trkpt lat="44.81022" lon="5.58384">
        <ele>966</ele>
        <time>2021-07-25T06:45:59Z</time>
      </trkpt>
      <trkpt lat="44.81016" lon="5.58395">
        <ele>968</ele>
        <time>2021-07-25T06:46:01Z</time>
      </trkpt>
      <trkpt lat="44.8101" lon="5.58405">
        <ele>968</ele>
        <time>2021-07-25T06:46:03Z</time>
      </trkpt>
      <trkpt lat="44.81001" lon="5.58418">
        <ele>968</ele>
        <time>2021-07-25T06:46:06Z</time>
      </trkpt>
      <trkpt lat="44.80996" lon="5.58427">
        <ele>968</ele>
        <time>2021-07-25T06:46:08Z</time>
      </trkpt>
      <trkpt lat="44.80991" lon="5.58434">
        <ele>969</ele>
        <time>2021-07-25T06:46:10Z</time>
      </trkpt>
      <trkpt lat="44.80984" lon="5.58446">
        <ele>969</ele>
        <time>2021-07-25T06:46:13Z</time>
      </trkpt>
      <trkpt lat="44.80977" lon="5.58456">
        <ele>969</ele>
        <time>2021-07-25T06:46:16Z</time>
      </trkpt>
      <trkpt lat="44.8097" lon="5.58466">
        <ele>969</ele>
        <time>2021-07-25T06:46:19Z</time>
      </trkpt>
      <trkpt lat="44.80963" lon="5.58477">
        <ele>972</ele>
        <time>2021-07-25T06:46:22Z</time>
      </trkpt>
      <trkpt lat="44.80956" lon="5.58486">
        <ele>974</ele>
        <time>2021-07-25T06:46:25Z</time>
      </trkpt>
      <trkpt lat="44.80947" lon="5.58495">
        <ele>974</ele>
        <time>2021-07-25T06:46:28Z</time>
      </trkpt>
      <trkpt lat="44.80938" lon="5.58503">
        <ele>976</ele>
        <time>2021-07-25T06:46:31Z</time>
      </trkpt>
      <trkpt lat="44.80929" lon="5.58509">
        <ele>976</ele>
        <time>2021-07-25T06:46:34Z</time>
      </trkpt>
      <trkpt lat="44.80918" lon="5.58515">
        <ele>976</ele>
        <time>2021-07-25T06:46:38Z</time>
      </trkpt>
      <trkpt lat="44.80907" lon="5.58522">
        <ele>978</ele>
        <time>2021-07-25T06:46:42Z</time>
      </trkpt>
      <trkpt lat="44.80897" lon="5.58529">
        <ele>980</ele>
        <time>2021-07-25T06:46:46Z</time>
      </trkpt>
      <trkpt lat="44.80889" lon="5.58536">
        <ele>980</ele>
        <time>2021-07-25T06:46:49Z</time>
      </trkpt>
      <trkpt lat="44.8088" lon="5.58544">
        <ele>980</ele>
        <time>2021-07-25T06:46:52Z</time>
      </trkpt>
      <trkpt lat="44.80872" lon="5.58552">
        <ele>980</ele>
        <time>2021-07-25T06:46:55Z</time>
      </trkpt>
      <trkpt lat="44.80863" lon="5.58559">
        <ele>980</ele>
        <time>2021-07-25T06:46:58Z</time>
      </trkpt>
      <trkpt lat="44.80854" lon="5.58567">
        <ele>982</ele>
        <time>2021-07-25T06:47:01Z</time>
      </trkpt>
      <trkpt lat="44.80846" lon="5.58574">
        <ele>982</ele>
        <time>2021-07-25T06:47:04Z</time>
      </trkpt>
      <trkpt lat="44.80837" lon="5.58581">
        <ele>984</ele>
        <time>2021-07-25T06:47:07Z</time>
      </trkpt>
      <trkpt lat="44.80829" lon="5.58588">
        <ele>985</ele>
        <time>2021-07-25T06:47:10Z</time>
      </trkpt>
      <trkpt lat="44.80821" lon="5.58594">
        <ele>985</ele>
        <time>2021-07-25T06:47:13Z</time>
      </trkpt>
      <trkpt lat="44.80813" lon="5.586">
        <ele>986</ele>
        <time>2021-07-25T06:47:16Z</time>
      </trkpt>
      <trkpt lat="44.80802" lon="5.58609">
        <ele>988</ele>
        <time>2021-07-25T06:47:20Z</time>
      </trkpt>
      <trkpt lat="44.80792" lon="5.5862">
        <ele>988</ele>
        <time>2021-07-25T06:47:24Z</time>
      </trkpt>
      <trkpt lat="44.80783" lon="5.58628">
        <ele>988</ele>
        <time>2021-07-25T06:47:27Z</time>
      </trkpt>
      <trkpt lat="44.80775" lon="5.58636">
        <ele>989</ele>
        <time>2021-07-25T06:47:30Z</time>
      </trkpt>
      <trkpt lat="44.80766" lon="5.58644">
        <ele>989</ele>
        <time>2021-07-25T06:47:33Z</time>
      </trkpt>
      <trkpt lat="44.80755" lon="5.58653">
        <ele>989</ele>
        <time>2021-07-25T06:47:37Z</time>
      </trkpt>
      <trkpt lat="44.80746" lon="5.58659">
        <ele>991</ele>
        <time>2021-07-25T06:47:40Z</time>
      </trkpt>
      <trkpt lat="44.80737" lon="5.58667">
        <ele>991</ele>
        <time>2021-07-25T06:47:43Z</time>
      </trkpt>
      <trkpt lat="44.80727" lon="5.58674">
        <ele>991</ele>
        <time>2021-07-25T06:47:46Z</time>
      </trkpt>
      <trkpt lat="44.80718" lon="5.5868">
        <ele>991</ele>
        <time>2021-07-25T06:47:49Z</time>
      </trkpt>
      <trkpt lat="44.80708" lon="5.58684">
        <ele>993</ele>
        <time>2021-07-25T06:47:52Z</time>
      </trkpt>
      <trkpt lat="44.80696" lon="5.58689">
        <ele>993</ele>
        <time>2021-07-25T06:47:56Z</time>
      </trkpt>
      <trkpt lat="44.80687" lon="5.58693">
        <ele>993</ele>
        <time>2021-07-25T06:47:59Z</time>
      </trkpt>
      <trkpt lat="44.80674" lon="5.58699">
        <ele>996</ele>
        <time>2021-07-25T06:48:03Z</time>
      </trkpt>
      <trkpt lat="44.80662" lon="5.58703">
        <ele>997</ele>
        <time>2021-07-25T06:48:07Z</time>
      </trkpt>
      <trkpt lat="44.80649" lon="5.58707">
        <ele>999</ele>
        <time>2021-07-25T06:48:11Z</time>
      </trkpt>
      <trkpt lat="44.80639" lon="5.5871">
        <ele>999</ele>
        <time>2021-07-25T06:48:14Z</time>
      </trkpt>
      <trkpt lat="44.80628" lon="5.58714">
        <ele>1000</ele>
        <time>2021-07-25T06:48:17Z</time>
      </trkpt>
      <trkpt lat="44.80619" lon="5.58716">
        <ele>1001</ele>
        <time>2021-07-25T06:48:20Z</time>
      </trkpt>
      <trkpt lat="44.80609" lon="5.58718">
        <ele>1001</ele>
        <time>2021-07-25T06:48:23Z</time>
      </trkpt>
      <trkpt lat="44.80599" lon="5.58719">
        <ele>1001</ele>
        <time>2021-07-25T06:48:26Z</time>
      </trkpt>
      <trkpt lat="44.8059" lon="5.58721">
        <ele>1001</ele>
        <time>2021-07-25T06:48:29Z</time>
      </trkpt>
      <trkpt lat="44.8058" lon="5.58722">
        <ele>1003</ele>
        <time>2021-07-25T06:48:32Z</time>
      </trkpt>
      <trkpt lat="44.8057" lon="5.58723">
        <ele>1003</ele>
        <time>2021-07-25T06:48:35Z</time>
      </trkpt>
      <trkpt lat="44.8056" lon="5.58724">
        <ele>1003</ele>
        <time>2021-07-25T06:48:38Z</time>
      </trkpt>
      <trkpt lat="44.80551" lon="5.58725">
        <ele>1005</ele>
        <time>2021-07-25T06:48:41Z</time>
      </trkpt>
      <trkpt lat="44.80541" lon="5.58727">
        <ele>1005</ele>
        <time>2021-07-25T06:48:44Z</time>
      </trkpt>
      <trkpt lat="44.80531" lon="5.58729">
        <ele>1007</ele>
        <time>2021-07-25T06:48:47Z</time>
      </trkpt>
      <trkpt lat="44.80521" lon="5.5873">
        <ele>1008</ele>
        <time>2021-07-25T06:48:50Z</time>
      </trkpt>
      <trkpt lat="44.80511" lon="5.58733">
        <ele>1008</ele>
        <time>2021-07-25T06:48:53Z</time>
      </trkpt>
      <trkpt lat="44.80501" lon="5.58738">
        <ele>1010</ele>
        <time>2021-07-25T06:48:56Z</time>
      </trkpt>
      <trkpt lat="44.80492" lon="5.58743">
        <ele>1010</ele>
        <time>2021-07-25T06:48:59Z</time>
      </trkpt>
      <trkpt lat="44.80482" lon="5.58747">
        <ele>1010</ele>
        <time>2021-07-25T06:49:02Z</time>
      </trkpt>
      <trkpt lat="44.80473" lon="5.58752">
        <ele>1010</ele>
        <time>2021-07-25T06:49:05Z</time>
      </trkpt>
      <trkpt lat="44.80464" lon="5.58758">
        <ele>1010</ele>
        <time>2021-07-25T06:49:08Z</time>
      </trkpt>
      <trkpt lat="44.80455" lon="5.58765">
        <ele>1012</ele>
        <time>2021-07-25T06:49:11Z</time>
      </trkpt>
      <trkpt lat="44.80447" lon="5.58773">
        <ele>1012</ele>
        <time>2021-07-25T06:49:14Z</time>
      </trkpt>
      <trkpt lat="44.80441" lon="5.58784">
        <ele>1012</ele>
        <time>2021-07-25T06:49:17Z</time>
      </trkpt>
      <trkpt lat="44.80434" lon="5.58794">
        <ele>1015</ele>
        <time>2021-07-25T06:49:20Z</time>
      </trkpt>
      <trkpt lat="44.80428" lon="5.58806">
        <ele>1015</ele>
        <time>2021-07-25T06:49:23Z</time>
      </trkpt>
      <trkpt lat="44.80423" lon="5.58819">
        <ele>1017</ele>
        <time>2021-07-25T06:49:26Z</time>
      </trkpt>
      <trkpt lat="44.80417" lon="5.58831">
        <ele>1017</ele>
        <time>2021-07-25T06:49:29Z</time>
      </trkpt>
      <trkpt lat="44.80412" lon="5.58844">
        <ele>1017</ele>
        <time>2021-07-25T06:49:32Z</time>
      </trkpt>
      <trkpt lat="44.80407" lon="5.58851">
        <ele>1017</ele>
        <time>2021-07-25T06:49:34Z</time>
      </trkpt>
      <trkpt lat="44.80401" lon="5.58857">
        <ele>1017</ele>
        <time>2021-07-25T06:49:36Z</time>
      </trkpt>
      <trkpt lat="44.80396" lon="5.58862">
        <ele>1017</ele>
        <time>2021-07-25T06:49:38Z</time>
      </trkpt>
      <trkpt lat="44.8039" lon="5.58867">
        <ele>1020</ele>
        <time>2021-07-25T06:49:40Z</time>
      </trkpt>
      <trkpt lat="44.80384" lon="5.58871">
        <ele>1020</ele>
        <time>2021-07-25T06:49:42Z</time>
      </trkpt>
      <trkpt lat="44.80378" lon="5.58875">
        <ele>1020</ele>
        <time>2021-07-25T06:49:44Z</time>
      </trkpt>
      <trkpt lat="44.80369" lon="5.58881">
        <ele>1022</ele>
        <time>2021-07-25T06:49:47Z</time>
      </trkpt>
      <trkpt lat="44.8036" lon="5.58886">
        <ele>1023</ele>
        <time>2021-07-25T06:49:50Z</time>
      </trkpt>
      <trkpt lat="44.80351" lon="5.58891">
        <ele>1023</ele>
        <time>2021-07-25T06:49:53Z</time>
      </trkpt>
      <trkpt lat="44.80342" lon="5.58897">
        <ele>1023</ele>
        <time>2021-07-25T06:49:56Z</time>
      </trkpt>
      <trkpt lat="44.80331" lon="5.58905">
        <ele>1025</ele>
        <time>2021-07-25T06:50:00Z</time>
      </trkpt>
      <trkpt lat="44.80319" lon="5.58912">
        <ele>1025</ele>
        <time>2021-07-25T06:50:04Z</time>
      </trkpt>
      <trkpt lat="44.8031" lon="5.58917">
        <ele>1025</ele>
        <time>2021-07-25T06:50:07Z</time>
      </trkpt>
      <trkpt lat="44.803" lon="5.58923">
        <ele>1027</ele>
        <time>2021-07-25T06:50:10Z</time>
      </trkpt>
      <trkpt lat="44.8029" lon="5.58929">
        <ele>1027</ele>
        <time>2021-07-25T06:50:13Z</time>
      </trkpt>
      <trkpt lat="44.80281" lon="5.58935">
        <ele>1027</ele>
        <time>2021-07-25T06:50:16Z</time>
      </trkpt>
      <trkpt lat="44.80271" lon="5.58941">
        <ele>1027</ele>
        <time>2021-07-25T06:50:19Z</time>
      </trkpt>
      <trkpt lat="44.80262" lon="5.58948">
        <ele>1030</ele>
        <time>2021-07-25T06:50:22Z</time>
      </trkpt>
      <trkpt lat="44.80253" lon="5.58954">
        <ele>1031</ele>
        <time>2021-07-25T06:50:25Z</time>
      </trkpt>
      <trkpt lat="44.80246" lon="5.58962">
        <ele>1031</ele>
        <time>2021-07-25T06:50:28Z</time>
      </trkpt>
      <trkpt lat="44.80238" lon="5.58972">
        <ele>1032</ele>
        <time>2021-07-25T06:50:31Z</time>
      </trkpt>
      <trkpt lat="44.8023" lon="5.5898">
        <ele>1032</ele>
        <time>2021-07-25T06:50:34Z</time>
      </trkpt>
      <trkpt lat="44.80223" lon="5.58989">
        <ele>1033</ele>
        <time>2021-07-25T06:50:37Z</time>
      </trkpt>
      <trkpt lat="44.80215" lon="5.58998">
        <ele>1034</ele>
        <time>2021-07-25T06:50:40Z</time>
      </trkpt>
      <trkpt lat="44.80209" lon="5.59004">
        <ele>1034</ele>
        <time>2021-07-25T06:50:42Z</time>
      </trkpt>
      <trkpt lat="44.80203" lon="5.59009">
        <ele>1034</ele>
        <time>2021-07-25T06:50:44Z</time>
      </trkpt>
      <trkpt lat="44.80198" lon="5.59014">
        <ele>1034</ele>
        <time>2021-07-25T06:50:46Z</time>
      </trkpt>
      <trkpt lat="44.80192" lon="5.59019">
        <ele>1034</ele>
        <time>2021-07-25T06:50:48Z</time>
      </trkpt>
      <trkpt lat="44.80186" lon="5.59023">
        <ele>1036</ele>
        <time>2021-07-25T06:50:50Z</time>
      </trkpt>
      <trkpt lat="44.8018" lon="5.59028">
        <ele>1036</ele>
        <time>2021-07-25T06:50:52Z</time>
      </trkpt>
      <trkpt lat="44.8017" lon="5.59035">
        <ele>1036</ele>
        <time>2021-07-25T06:50:55Z</time>
      </trkpt>
      <trkpt lat="44.80162" lon="5.5904">
        <ele>1036</ele>
        <time>2021-07-25T06:50:58Z</time>
      </trkpt>
      <trkpt lat="44.80153" lon="5.59046">
        <ele>1039</ele>
        <time>2021-07-25T06:51:01Z</time>
      </trkpt>
      <trkpt lat="44.80144" lon="5.59052">
        <ele>1039</ele>
        <time>2021-07-25T06:51:04Z</time>
      </trkpt>
      <trkpt lat="44.80135" lon="5.59058">
        <ele>1040</ele>
        <time>2021-07-25T06:51:07Z</time>
      </trkpt>
      <trkpt lat="44.80124" lon="5.59067">
        <ele>1041</ele>
        <time>2021-07-25T06:51:11Z</time>
      </trkpt>
      <trkpt lat="44.80116" lon="5.59076">
        <ele>1041</ele>
        <time>2021-07-25T06:51:14Z</time>
      </trkpt>
      <trkpt lat="44.80106" lon="5.59088">
        <ele>1042</ele>
        <time>2021-07-25T06:51:18Z</time>
      </trkpt>
      <trkpt lat="44.80095" lon="5.59097">
        <ele>1044</ele>
        <time>2021-07-25T06:51:22Z</time>
      </trkpt>
      <trkpt lat="44.80082" lon="5.59102">
        <ele>1045</ele>
        <time>2021-07-25T06:51:26Z</time>
      </trkpt>
      <trkpt lat="44.80069" lon="5.59103">
        <ele>1047</ele>
        <time>2021-07-25T06:51:30Z</time>
      </trkpt>
      <trkpt lat="44.80059" lon="5.59104">
        <ele>1047</ele>
        <time>2021-07-25T06:51:33Z</time>
      </trkpt>
      <trkpt lat="44.80049" lon="5.59104">
        <ele>1048</ele>
        <time>2021-07-25T06:51:36Z</time>
      </trkpt>
      <trkpt lat="44.80039" lon="5.59102">
        <ele>1048</ele>
        <time>2021-07-25T06:51:39Z</time>
      </trkpt>
      <trkpt lat="44.80029" lon="5.59098">
        <ele>1049</ele>
        <time>2021-07-25T06:51:42Z</time>
      </trkpt>
      <trkpt lat="44.8002" lon="5.5909">
        <ele>1050</ele>
        <time>2021-07-25T06:51:45Z</time>
      </trkpt>
      <trkpt lat="44.80014" lon="5.59075">
        <ele>1050</ele>
        <time>2021-07-25T06:51:49Z</time>
      </trkpt>
      <trkpt lat="44.8001" lon="5.59062">
        <ele>1051</ele>
        <time>2021-07-25T06:51:52Z</time>
      </trkpt>
      <trkpt lat="44.80004" lon="5.5905">
        <ele>1051</ele>
        <time>2021-07-25T06:51:55Z</time>
      </trkpt>
      <trkpt lat="44.79998" lon="5.59039">
        <ele>1051</ele>
        <time>2021-07-25T06:51:58Z</time>
      </trkpt>
      <trkpt lat="44.79991" lon="5.59028">
        <ele>1054</ele>
        <time>2021-07-25T06:52:01Z</time>
      </trkpt>
      <trkpt lat="44.79984" lon="5.59018">
        <ele>1054</ele>
        <time>2021-07-25T06:52:04Z</time>
      </trkpt>
      <trkpt lat="44.79977" lon="5.59007">
        <ele>1055</ele>
        <time>2021-07-25T06:52:07Z</time>
      </trkpt>
      <trkpt lat="44.79971" lon="5.58995">
        <ele>1057</ele>
        <time>2021-07-25T06:52:10Z</time>
      </trkpt>
      <trkpt lat="44.79967" lon="5.58988">
        <ele>1057</ele>
        <time>2021-07-25T06:52:12Z</time>
      </trkpt>
      <trkpt lat="44.79963" lon="5.58979">
        <ele>1057</ele>
        <time>2021-07-25T06:52:14Z</time>
      </trkpt>
      <trkpt lat="44.7996" lon="5.58971">
        <ele>1057</ele>
        <time>2021-07-25T06:52:16Z</time>
      </trkpt>
      <trkpt lat="44.79957" lon="5.58963">
        <ele>1057</ele>
        <time>2021-07-25T06:52:18Z</time>
      </trkpt>
      <trkpt lat="44.79952" lon="5.58951">
        <ele>1058</ele>
        <time>2021-07-25T06:52:21Z</time>
      </trkpt>
      <trkpt lat="44.79947" lon="5.58937">
        <ele>1058</ele>
        <time>2021-07-25T06:52:24Z</time>
      </trkpt>
      <trkpt lat="44.7994" lon="5.58926">
        <ele>1058</ele>
        <time>2021-07-25T06:52:27Z</time>
      </trkpt>
      <trkpt lat="44.79933" lon="5.58915">
        <ele>1060</ele>
        <time>2021-07-25T06:52:30Z</time>
      </trkpt>
      <trkpt lat="44.79927" lon="5.5891">
        <ele>1060</ele>
        <time>2021-07-25T06:52:32Z</time>
      </trkpt>
      <trkpt lat="44.79918" lon="5.58906">
        <ele>1060</ele>
        <time>2021-07-25T06:52:35Z</time>
      </trkpt>
      <trkpt lat="44.79905" lon="5.58905">
        <ele>1060</ele>
        <time>2021-07-25T06:52:39Z</time>
      </trkpt>
      <trkpt lat="44.79893" lon="5.58909">
        <ele>1062</ele>
        <time>2021-07-25T06:52:43Z</time>
      </trkpt>
      <trkpt lat="44.79882" lon="5.58915">
        <ele>1062</ele>
        <time>2021-07-25T06:52:47Z</time>
      </trkpt>
      <trkpt lat="44.79872" lon="5.58921">
        <ele>1065</ele>
        <time>2021-07-25T06:52:50Z</time>
      </trkpt>
      <trkpt lat="44.79862" lon="5.58928">
        <ele>1065</ele>
        <time>2021-07-25T06:52:53Z</time>
      </trkpt>
      <trkpt lat="44.79853" lon="5.58935">
        <ele>1066</ele>
        <time>2021-07-25T06:52:56Z</time>
      </trkpt>
      <trkpt lat="44.79844" lon="5.58944">
        <ele>1066</ele>
        <time>2021-07-25T06:52:59Z</time>
      </trkpt>
      <trkpt lat="44.79835" lon="5.58952">
        <ele>1066</ele>
        <time>2021-07-25T06:53:02Z</time>
      </trkpt>
      <trkpt lat="44.79827" lon="5.5896">
        <ele>1066</ele>
        <time>2021-07-25T06:53:05Z</time>
      </trkpt>
      <trkpt lat="44.79819" lon="5.58968">
        <ele>1066</ele>
        <time>2021-07-25T06:53:08Z</time>
      </trkpt>
      <trkpt lat="44.79808" lon="5.58979">
        <ele>1069</ele>
        <time>2021-07-25T06:53:12Z</time>
      </trkpt>
      <trkpt lat="44.798" lon="5.58987">
        <ele>1071</ele>
        <time>2021-07-25T06:53:15Z</time>
      </trkpt>
      <trkpt lat="44.79788" lon="5.58995">
        <ele>1071</ele>
        <time>2021-07-25T06:53:19Z</time>
      </trkpt>
      <trkpt lat="44.79778" lon="5.59001">
        <ele>1072</ele>
        <time>2021-07-25T06:53:22Z</time>
      </trkpt>
      <trkpt lat="44.79769" lon="5.59008">
        <ele>1073</ele>
        <time>2021-07-25T06:53:25Z</time>
      </trkpt>
      <trkpt lat="44.7976" lon="5.59013">
        <ele>1073</ele>
        <time>2021-07-25T06:53:28Z</time>
      </trkpt>
      <trkpt lat="44.79751" lon="5.59022">
        <ele>1074</ele>
        <time>2021-07-25T06:53:31Z</time>
      </trkpt>
      <trkpt lat="44.79742" lon="5.59028">
        <ele>1074</ele>
        <time>2021-07-25T06:53:34Z</time>
      </trkpt>
      <trkpt lat="44.79733" lon="5.59036">
        <ele>1074</ele>
        <time>2021-07-25T06:53:37Z</time>
      </trkpt>
      <trkpt lat="44.79725" lon="5.59045">
        <ele>1076</ele>
        <time>2021-07-25T06:53:40Z</time>
      </trkpt>
      <trkpt lat="44.79715" lon="5.59058">
        <ele>1076</ele>
        <time>2021-07-25T06:53:44Z</time>
      </trkpt>
      <trkpt lat="44.79708" lon="5.59068">
        <ele>1078</ele>
        <time>2021-07-25T06:53:47Z</time>
      </trkpt>
      <trkpt lat="44.79701" lon="5.59078">
        <ele>1079</ele>
        <time>2021-07-25T06:53:50Z</time>
      </trkpt>
      <trkpt lat="44.79691" lon="5.59089">
        <ele>1079</ele>
        <time>2021-07-25T06:53:54Z</time>
      </trkpt>
      <trkpt lat="44.7968" lon="5.59097">
        <ele>1081</ele>
        <time>2021-07-25T06:53:58Z</time>
      </trkpt>
      <trkpt lat="44.7967" lon="5.59104">
        <ele>1083</ele>
        <time>2021-07-25T06:54:01Z</time>
      </trkpt>
      <trkpt lat="44.79661" lon="5.59111">
        <ele>1083</ele>
        <time>2021-07-25T06:54:04Z</time>
      </trkpt>
      <trkpt lat="44.79651" lon="5.59118">
        <ele>1084</ele>
        <time>2021-07-25T06:54:07Z</time>
      </trkpt>
      <trkpt lat="44.79642" lon="5.59124">
        <ele>1084</ele>
        <time>2021-07-25T06:54:10Z</time>
      </trkpt>
      <trkpt lat="44.7963" lon="5.59133">
        <ele>1084</ele>
        <time>2021-07-25T06:54:14Z</time>
      </trkpt>
      <trkpt lat="44.79619" lon="5.59142">
        <ele>1084</ele>
        <time>2021-07-25T06:54:18Z</time>
      </trkpt>
      <trkpt lat="44.79611" lon="5.5915">
        <ele>1086</ele>
        <time>2021-07-25T06:54:21Z</time>
      </trkpt>
      <trkpt lat="44.79599" lon="5.59158">
        <ele>1086</ele>
        <time>2021-07-25T06:54:25Z</time>
      </trkpt>
      <trkpt lat="44.7959" lon="5.59165">
        <ele>1086</ele>
        <time>2021-07-25T06:54:28Z</time>
      </trkpt>
      <trkpt lat="44.79581" lon="5.59172">
        <ele>1089</ele>
        <time>2021-07-25T06:54:31Z</time>
      </trkpt>
      <trkpt lat="44.79572" lon="5.59178">
        <ele>1089</ele>
        <time>2021-07-25T06:54:34Z</time>
      </trkpt>
      <trkpt lat="44.79562" lon="5.59188">
        <ele>1091</ele>
        <time>2021-07-25T06:54:38Z</time>
      </trkpt>
      <trkpt lat="44.79553" lon="5.59196">
        <ele>1093</ele>
        <time>2021-07-25T06:54:41Z</time>
      </trkpt>
      <trkpt lat="44.79544" lon="5.59207">
        <ele>1093</ele>
        <time>2021-07-25T06:54:45Z</time>
      </trkpt>
      <trkpt lat="44.79535" lon="5.59216">
        <ele>1093</ele>
        <time>2021-07-25T06:54:48Z</time>
      </trkpt>
      <trkpt lat="44.79527" lon="5.59224">
        <ele>1094</ele>
        <time>2021-07-25T06:54:51Z</time>
      </trkpt>
      <trkpt lat="44.79519" lon="5.59234">
        <ele>1094</ele>
        <time>2021-07-25T06:54:54Z</time>
      </trkpt>
      <trkpt lat="44.79514" lon="5.59246">
        <ele>1094</ele>
        <time>2021-07-25T06:54:57Z</time>
      </trkpt>
      <trkpt lat="44.79509" lon="5.59259">
        <ele>1096</ele>
        <time>2021-07-25T06:55:00Z</time>
      </trkpt>
      <trkpt lat="44.79505" lon="5.59272">
        <ele>1096</ele>
        <time>2021-07-25T06:55:03Z</time>
      </trkpt>
      <trkpt lat="44.79502" lon="5.59285">
        <ele>1096</ele>
        <time>2021-07-25T06:55:06Z</time>
      </trkpt>
      <trkpt lat="44.79498" lon="5.59298">
        <ele>1096</ele>
        <time>2021-07-25T06:55:09Z</time>
      </trkpt>
      <trkpt lat="44.79492" lon="5.5931">
        <ele>1098</ele>
        <time>2021-07-25T06:55:12Z</time>
      </trkpt>
      <trkpt lat="44.79485" lon="5.59319">
        <ele>1098</ele>
        <time>2021-07-25T06:55:15Z</time>
      </trkpt>
      <trkpt lat="44.79477" lon="5.59329">
        <ele>1098</ele>
        <time>2021-07-25T06:55:18Z</time>
      </trkpt>
      <trkpt lat="44.79469" lon="5.59338">
        <ele>1101</ele>
        <time>2021-07-25T06:55:21Z</time>
      </trkpt>
      <trkpt lat="44.79461" lon="5.59346">
        <ele>1101</ele>
        <time>2021-07-25T06:55:24Z</time>
      </trkpt>
      <trkpt lat="44.79452" lon="5.59354">
        <ele>1102</ele>
        <time>2021-07-25T06:55:27Z</time>
      </trkpt>
      <trkpt lat="44.79443" lon="5.59359">
        <ele>1102</ele>
        <time>2021-07-25T06:55:30Z</time>
      </trkpt>
      <trkpt lat="44.79433" lon="5.59363">
        <ele>1102</ele>
        <time>2021-07-25T06:55:33Z</time>
      </trkpt>
      <trkpt lat="44.79426" lon="5.59364">
        <ele>1102</ele>
        <time>2021-07-25T06:55:35Z</time>
      </trkpt>
      <trkpt lat="44.79419" lon="5.59364">
        <ele>1102</ele>
        <time>2021-07-25T06:55:37Z</time>
      </trkpt>
      <trkpt lat="44.79412" lon="5.59362">
        <ele>1102</ele>
        <time>2021-07-25T06:55:39Z</time>
      </trkpt>
      <trkpt lat="44.79408" lon="5.59361">
        <ele>1105</ele>
        <time>2021-07-25T06:55:40Z</time>
      </trkpt>
      <trkpt lat="44.79405" lon="5.59359">
        <ele>1105</ele>
        <time>2021-07-25T06:55:41Z</time>
      </trkpt>
      <trkpt lat="44.79402" lon="5.59356">
        <ele>1105</ele>
        <time>2021-07-25T06:55:42Z</time>
      </trkpt>
      <trkpt lat="44.79394" lon="5.59348">
        <ele>1107</ele>
        <time>2021-07-25T06:55:45Z</time>
      </trkpt>
      <trkpt lat="44.79391" lon="5.59345">
        <ele>1107</ele>
        <time>2021-07-25T06:55:46Z</time>
      </trkpt>
      <trkpt lat="44.79383" lon="5.59336">
        <ele>1107</ele>
        <time>2021-07-25T06:55:49Z</time>
      </trkpt>
      <trkpt lat="44.79375" lon="5.59328">
        <ele>1108</ele>
        <time>2021-07-25T06:55:52Z</time>
      </trkpt>
      <trkpt lat="44.79368" lon="5.59326">
        <ele>1108</ele>
        <time>2021-07-25T06:55:54Z</time>
      </trkpt>
      <trkpt lat="44.79361" lon="5.59326">
        <ele>1109</ele>
        <time>2021-07-25T06:55:56Z</time>
      </trkpt>
      <trkpt lat="44.79354" lon="5.59326">
        <ele>1109</ele>
        <time>2021-07-25T06:55:58Z</time>
      </trkpt>
      <trkpt lat="44.79344" lon="5.59328">
        <ele>1111</ele>
        <time>2021-07-25T06:56:01Z</time>
      </trkpt>
      <trkpt lat="44.79333" lon="5.5933">
        <ele>1111</ele>
        <time>2021-07-25T06:56:04Z</time>
      </trkpt>
      <trkpt lat="44.79322" lon="5.59337">
        <ele>1111</ele>
        <time>2021-07-25T06:56:08Z</time>
      </trkpt>
      <trkpt lat="44.79312" lon="5.59342">
        <ele>1112</ele>
        <time>2021-07-25T06:56:11Z</time>
      </trkpt>
      <trkpt lat="44.79301" lon="5.59346">
        <ele>1112</ele>
        <time>2021-07-25T06:56:14Z</time>
      </trkpt>
      <trkpt lat="44.79291" lon="5.59351">
        <ele>1112</ele>
        <time>2021-07-25T06:56:17Z</time>
      </trkpt>
      <trkpt lat="44.79282" lon="5.59356">
        <ele>1114</ele>
        <time>2021-07-25T06:56:20Z</time>
      </trkpt>
      <trkpt lat="44.79274" lon="5.5936">
        <ele>1114</ele>
        <time>2021-07-25T06:56:23Z</time>
      </trkpt>
      <trkpt lat="44.79264" lon="5.59366">
        <ele>1114</ele>
        <time>2021-07-25T06:56:26Z</time>
      </trkpt>
      <trkpt lat="44.79255" lon="5.59373">
        <ele>1114</ele>
        <time>2021-07-25T06:56:29Z</time>
      </trkpt>
      <trkpt lat="44.79246" lon="5.59379">
        <ele>1117</ele>
        <time>2021-07-25T06:56:32Z</time>
      </trkpt>
      <trkpt lat="44.79237" lon="5.59384">
        <ele>1119</ele>
        <time>2021-07-25T06:56:35Z</time>
      </trkpt>
      <trkpt lat="44.79228" lon="5.5939">
        <ele>1119</ele>
        <time>2021-07-25T06:56:38Z</time>
      </trkpt>
      <trkpt lat="44.79219" lon="5.59397">
        <ele>1120</ele>
        <time>2021-07-25T06:56:41Z</time>
      </trkpt>
      <trkpt lat="44.79209" lon="5.59404">
        <ele>1120</ele>
        <time>2021-07-25T06:56:44Z</time>
      </trkpt>
      <trkpt lat="44.792" lon="5.5941">
        <ele>1120</ele>
        <time>2021-07-25T06:56:47Z</time>
      </trkpt>
      <trkpt lat="44.79191" lon="5.59417">
        <ele>1122</ele>
        <time>2021-07-25T06:56:50Z</time>
      </trkpt>
      <trkpt lat="44.79182" lon="5.59423">
        <ele>1122</ele>
        <time>2021-07-25T06:56:53Z</time>
      </trkpt>
      <trkpt lat="44.79173" lon="5.59431">
        <ele>1122</ele>
        <time>2021-07-25T06:56:56Z</time>
      </trkpt>
      <trkpt lat="44.79165" lon="5.59438">
        <ele>1122</ele>
        <time>2021-07-25T06:56:59Z</time>
      </trkpt>
      <trkpt lat="44.79155" lon="5.59444">
        <ele>1125</ele>
        <time>2021-07-25T06:57:02Z</time>
      </trkpt>
      <trkpt lat="44.79146" lon="5.59451">
        <ele>1126</ele>
        <time>2021-07-25T06:57:05Z</time>
      </trkpt>
      <trkpt lat="44.79138" lon="5.59457">
        <ele>1126</ele>
        <time>2021-07-25T06:57:08Z</time>
      </trkpt>
      <trkpt lat="44.79129" lon="5.59465">
        <ele>1127</ele>
        <time>2021-07-25T06:57:11Z</time>
      </trkpt>
      <trkpt lat="44.79119" lon="5.59472">
        <ele>1127</ele>
        <time>2021-07-25T06:57:14Z</time>
      </trkpt>
      <trkpt lat="44.79111" lon="5.59479">
        <ele>1127</ele>
        <time>2021-07-25T06:57:17Z</time>
      </trkpt>
      <trkpt lat="44.79102" lon="5.59485">
        <ele>1129</ele>
        <time>2021-07-25T06:57:20Z</time>
      </trkpt>
      <trkpt lat="44.79093" lon="5.59493">
        <ele>1129</ele>
        <time>2021-07-25T06:57:23Z</time>
      </trkpt>
      <trkpt lat="44.79083" lon="5.59499">
        <ele>1129</ele>
        <time>2021-07-25T06:57:26Z</time>
      </trkpt>
      <trkpt lat="44.79074" lon="5.59505">
        <ele>1129</ele>
        <time>2021-07-25T06:57:29Z</time>
      </trkpt>
      <trkpt lat="44.79064" lon="5.5951">
        <ele>1131</ele>
        <time>2021-07-25T06:57:32Z</time>
      </trkpt>
      <trkpt lat="44.79053" lon="5.5951">
        <ele>1133</ele>
        <time>2021-07-25T06:57:35Z</time>
      </trkpt>
      <trkpt lat="44.79041" lon="5.59509">
        <ele>1133</ele>
        <time>2021-07-25T06:57:39Z</time>
      </trkpt>
      <trkpt lat="44.7903" lon="5.59505">
        <ele>1134</ele>
        <time>2021-07-25T06:57:42Z</time>
      </trkpt>
      <trkpt lat="44.7902" lon="5.59502">
        <ele>1136</ele>
        <time>2021-07-25T06:57:45Z</time>
      </trkpt>
      <trkpt lat="44.7901" lon="5.59503">
        <ele>1136</ele>
        <time>2021-07-25T06:57:48Z</time>
      </trkpt>
      <trkpt lat="44.79" lon="5.59508">
        <ele>1136</ele>
        <time>2021-07-25T06:57:51Z</time>
      </trkpt>
      <trkpt lat="44.78991" lon="5.59516">
        <ele>1136</ele>
        <time>2021-07-25T06:57:54Z</time>
      </trkpt>
      <trkpt lat="44.78983" lon="5.59525">
        <ele>1136</ele>
        <time>2021-07-25T06:57:57Z</time>
      </trkpt>
      <trkpt lat="44.78974" lon="5.59534">
        <ele>1138</ele>
        <time>2021-07-25T06:58:00Z</time>
      </trkpt>
      <trkpt lat="44.78966" lon="5.59545">
        <ele>1138</ele>
        <time>2021-07-25T06:58:03Z</time>
      </trkpt>
      <trkpt lat="44.78957" lon="5.59553">
        <ele>1139</ele>
        <time>2021-07-25T06:58:06Z</time>
      </trkpt>
      <trkpt lat="44.78945" lon="5.5956">
        <ele>1140</ele>
        <time>2021-07-25T06:58:10Z</time>
      </trkpt>
      <trkpt lat="44.78936" lon="5.59566">
        <ele>1140</ele>
        <time>2021-07-25T06:58:13Z</time>
      </trkpt>
      <trkpt lat="44.78927" lon="5.59572">
        <ele>1140</ele>
        <time>2021-07-25T06:58:16Z</time>
      </trkpt>
      <trkpt lat="44.78919" lon="5.5958">
        <ele>1140</ele>
        <time>2021-07-25T06:58:19Z</time>
      </trkpt>
      <trkpt lat="44.7891" lon="5.59588">
        <ele>1142</ele>
        <time>2021-07-25T06:58:22Z</time>
      </trkpt>
      <trkpt lat="44.789" lon="5.59599">
        <ele>1142</ele>
        <time>2021-07-25T06:58:26Z</time>
      </trkpt>
      <trkpt lat="44.78892" lon="5.59613">
        <ele>1146</ele>
        <time>2021-07-25T06:58:30Z</time>
      </trkpt>
      <trkpt lat="44.78886" lon="5.59624">
        <ele>1146</ele>
        <time>2021-07-25T06:58:33Z</time>
      </trkpt>
      <trkpt lat="44.78877" lon="5.59639">
        <ele>1147</ele>
        <time>2021-07-25T06:58:37Z</time>
      </trkpt>
      <trkpt lat="44.78871" lon="5.5965">
        <ele>1148</ele>
        <time>2021-07-25T06:58:40Z</time>
      </trkpt>
      <trkpt lat="44.78864" lon="5.5966">
        <ele>1148</ele>
        <time>2021-07-25T06:58:43Z</time>
      </trkpt>
      <trkpt lat="44.78855" lon="5.59673">
        <ele>1149</ele>
        <time>2021-07-25T06:58:47Z</time>
      </trkpt>
      <trkpt lat="44.78847" lon="5.59685">
        <ele>1151</ele>
        <time>2021-07-25T06:58:51Z</time>
      </trkpt>
      <trkpt lat="44.78839" lon="5.59699">
        <ele>1152</ele>
        <time>2021-07-25T06:58:55Z</time>
      </trkpt>
      <trkpt lat="44.78832" lon="5.59714">
        <ele>1152</ele>
        <time>2021-07-25T06:58:59Z</time>
      </trkpt>
      <trkpt lat="44.78822" lon="5.59724">
        <ele>1154</ele>
        <time>2021-07-25T06:59:03Z</time>
      </trkpt>
      <trkpt lat="44.78813" lon="5.59734">
        <ele>1155</ele>
        <time>2021-07-25T06:59:07Z</time>
      </trkpt>
      <trkpt lat="44.78806" lon="5.59743">
        <ele>1156</ele>
        <time>2021-07-25T06:59:10Z</time>
      </trkpt>
      <trkpt lat="44.78796" lon="5.59754">
        <ele>1156</ele>
        <time>2021-07-25T06:59:14Z</time>
      </trkpt>
      <trkpt lat="44.78789" lon="5.59764">
        <ele>1156</ele>
        <time>2021-07-25T06:59:17Z</time>
      </trkpt>
      <trkpt lat="44.78782" lon="5.59774">
        <ele>1157</ele>
        <time>2021-07-25T06:59:20Z</time>
      </trkpt>
      <trkpt lat="44.78775" lon="5.59789">
        <ele>1157</ele>
        <time>2021-07-25T06:59:24Z</time>
      </trkpt>
      <trkpt lat="44.78768" lon="5.59804">
        <ele>1157</ele>
        <time>2021-07-25T06:59:28Z</time>
      </trkpt>
      <trkpt lat="44.7876" lon="5.59818">
        <ele>1160</ele>
        <time>2021-07-25T06:59:32Z</time>
      </trkpt>
      <trkpt lat="44.78749" lon="5.59828">
        <ele>1162</ele>
        <time>2021-07-25T06:59:36Z</time>
      </trkpt>
      <trkpt lat="44.78739" lon="5.59833">
        <ele>1162</ele>
        <time>2021-07-25T06:59:39Z</time>
      </trkpt>
      <trkpt lat="44.78731" lon="5.5984">
        <ele>1164</ele>
        <time>2021-07-25T06:59:42Z</time>
      </trkpt>
      <trkpt lat="44.78722" lon="5.59848">
        <ele>1165</ele>
        <time>2021-07-25T06:59:45Z</time>
      </trkpt>
      <trkpt lat="44.78714" lon="5.59855">
        <ele>1165</ele>
        <time>2021-07-25T06:59:48Z</time>
      </trkpt>
      <trkpt lat="44.78704" lon="5.5986">
        <ele>1166</ele>
        <time>2021-07-25T06:59:51Z</time>
      </trkpt>
      <trkpt lat="44.78694" lon="5.59865">
        <ele>1166</ele>
        <time>2021-07-25T06:59:54Z</time>
      </trkpt>
      <trkpt lat="44.78684" lon="5.59868">
        <ele>1167</ele>
        <time>2021-07-25T06:59:57Z</time>
      </trkpt>
      <trkpt lat="44.78673" lon="5.5987">
        <ele>1167</ele>
        <time>2021-07-25T07:00:00Z</time>
      </trkpt>
      <trkpt lat="44.78662" lon="5.59872">
        <ele>1167</ele>
        <time>2021-07-25T07:00:03Z</time>
      </trkpt>
      <trkpt lat="44.78651" lon="5.59873">
        <ele>1167</ele>
        <time>2021-07-25T07:00:06Z</time>
      </trkpt>
      <trkpt lat="44.78642" lon="5.59874">
        <ele>1167</ele>
        <time>2021-07-25T07:00:09Z</time>
      </trkpt>
      <trkpt lat="44.78632" lon="5.59875">
        <ele>1169</ele>
        <time>2021-07-25T07:00:12Z</time>
      </trkpt>
      <trkpt lat="44.78621" lon="5.59875">
        <ele>1169</ele>
        <time>2021-07-25T07:00:15Z</time>
      </trkpt>
      <trkpt lat="44.78611" lon="5.59873">
        <ele>1169</ele>
        <time>2021-07-25T07:00:18Z</time>
      </trkpt>
      <trkpt lat="44.78601" lon="5.59872">
        <ele>1172</ele>
        <time>2021-07-25T07:00:21Z</time>
      </trkpt>
      <trkpt lat="44.78591" lon="5.59872">
        <ele>1172</ele>
        <time>2021-07-25T07:00:24Z</time>
      </trkpt>
      <trkpt lat="44.78581" lon="5.59873">
        <ele>1174</ele>
        <time>2021-07-25T07:00:27Z</time>
      </trkpt>
      <trkpt lat="44.78571" lon="5.59874">
        <ele>1176</ele>
        <time>2021-07-25T07:00:30Z</time>
      </trkpt>
      <trkpt lat="44.78558" lon="5.59874">
        <ele>1176</ele>
        <time>2021-07-25T07:00:34Z</time>
      </trkpt>
      <trkpt lat="44.78548" lon="5.59874">
        <ele>1177</ele>
        <time>2021-07-25T07:00:37Z</time>
      </trkpt>
      <trkpt lat="44.78537" lon="5.59873">
        <ele>1178</ele>
        <time>2021-07-25T07:00:40Z</time>
      </trkpt>
      <trkpt lat="44.78527" lon="5.59874">
        <ele>1178</ele>
        <time>2021-07-25T07:00:43Z</time>
      </trkpt>
      <trkpt lat="44.78518" lon="5.59872">
        <ele>1178</ele>
        <time>2021-07-25T07:00:46Z</time>
      </trkpt>
      <trkpt lat="44.78509" lon="5.59866">
        <ele>1178</ele>
        <time>2021-07-25T07:00:49Z</time>
      </trkpt>
      <trkpt lat="44.785" lon="5.59857">
        <ele>1180</ele>
        <time>2021-07-25T07:00:52Z</time>
      </trkpt>
      <trkpt lat="44.78492" lon="5.59842">
        <ele>1180</ele>
        <time>2021-07-25T07:00:55Z</time>
      </trkpt>
      <trkpt lat="44.78483" lon="5.59826">
        <ele>1180</ele>
        <time>2021-07-25T07:00:58Z</time>
      </trkpt>
      <trkpt lat="44.78477" lon="5.59816">
        <ele>1181</ele>
        <time>2021-07-25T07:01:00Z</time>
      </trkpt>
      <trkpt lat="44.7847" lon="5.59805">
        <ele>1181</ele>
        <time>2021-07-25T07:01:02Z</time>
      </trkpt>
      <trkpt lat="44.78463" lon="5.59796">
        <ele>1181</ele>
        <time>2021-07-25T07:01:04Z</time>
      </trkpt>
      <trkpt lat="44.78456" lon="5.59788">
        <ele>1181</ele>
        <time>2021-07-25T07:01:06Z</time>
      </trkpt>
      <trkpt lat="44.78444" lon="5.59777">
        <ele>1181</ele>
        <time>2021-07-25T07:01:09Z</time>
      </trkpt>
      <trkpt lat="44.78435" lon="5.5977">
        <ele>1183</ele>
        <time>2021-07-25T07:01:11Z</time>
      </trkpt>
      <trkpt lat="44.78426" lon="5.59765">
        <ele>1183</ele>
        <time>2021-07-25T07:01:13Z</time>
      </trkpt>
      <trkpt lat="44.78417" lon="5.59759">
        <ele>1183</ele>
        <time>2021-07-25T07:01:15Z</time>
      </trkpt>
      <trkpt lat="44.78408" lon="5.59753">
        <ele>1183</ele>
        <time>2021-07-25T07:01:17Z</time>
      </trkpt>
      <trkpt lat="44.78398" lon="5.59747">
        <ele>1183</ele>
        <time>2021-07-25T07:01:19Z</time>
      </trkpt>
      <trkpt lat="44.78389" lon="5.59741">
        <ele>1184</ele>
        <time>2021-07-25T07:01:21Z</time>
      </trkpt>
      <trkpt lat="44.7838" lon="5.59735">
        <ele>1184</ele>
        <time>2021-07-25T07:01:23Z</time>
      </trkpt>
      <trkpt lat="44.78371" lon="5.59728">
        <ele>1184</ele>
        <time>2021-07-25T07:01:25Z</time>
      </trkpt>
      <trkpt lat="44.78363" lon="5.59719">
        <ele>1184</ele>
        <time>2021-07-25T07:01:27Z</time>
      </trkpt>
      <trkpt lat="44.78356" lon="5.59708">
        <ele>1184</ele>
        <time>2021-07-25T07:01:29Z</time>
      </trkpt>
      <trkpt lat="44.78351" lon="5.59696">
        <ele>1186</ele>
        <time>2021-07-25T07:01:31Z</time>
      </trkpt>
      <trkpt lat="44.78346" lon="5.59684">
        <ele>1186</ele>
        <time>2021-07-25T07:01:33Z</time>
      </trkpt>
      <trkpt lat="44.78343" lon="5.5967">
        <ele>1186</ele>
        <time>2021-07-25T07:01:35Z</time>
      </trkpt>
      <trkpt lat="44.78339" lon="5.59656">
        <ele>1186</ele>
        <time>2021-07-25T07:01:37Z</time>
      </trkpt>
      <trkpt lat="44.78335" lon="5.59642">
        <ele>1186</ele>
        <time>2021-07-25T07:01:39Z</time>
      </trkpt>
      <trkpt lat="44.78332" lon="5.59628">
        <ele>1188</ele>
        <time>2021-07-25T07:01:41Z</time>
      </trkpt>
      <trkpt lat="44.78328" lon="5.59613">
        <ele>1188</ele>
        <time>2021-07-25T07:01:43Z</time>
      </trkpt>
      <trkpt lat="44.78325" lon="5.596">
        <ele>1188</ele>
        <time>2021-07-25T07:01:45Z</time>
      </trkpt>
      <trkpt lat="44.78324" lon="5.59586">
        <ele>1188</ele>
        <time>2021-07-25T07:01:47Z</time>
      </trkpt>
      <trkpt lat="44.78325" lon="5.59572">
        <ele>1188</ele>
        <time>2021-07-25T07:01:49Z</time>
      </trkpt>
      <trkpt lat="44.78325" lon="5.59556">
        <ele>1189</ele>
        <time>2021-07-25T07:01:51Z</time>
      </trkpt>
      <trkpt lat="44.78326" lon="5.59541">
        <ele>1189</ele>
        <time>2021-07-25T07:01:53Z</time>
      </trkpt>
      <trkpt lat="44.78327" lon="5.59526">
        <ele>1189</ele>
        <time>2021-07-25T07:01:55Z</time>
      </trkpt>
      <trkpt lat="44.78327" lon="5.59511">
        <ele>1189</ele>
        <time>2021-07-25T07:01:57Z</time>
      </trkpt>
      <trkpt lat="44.78327" lon="5.59495">
        <ele>1189</ele>
        <time>2021-07-25T07:01:59Z</time>
      </trkpt>
      <trkpt lat="44.78325" lon="5.59479">
        <ele>1191</ele>
        <time>2021-07-25T07:02:02Z</time>
      </trkpt>
      <trkpt lat="44.7832" lon="5.59463">
        <ele>1191</ele>
        <time>2021-07-25T07:02:05Z</time>
      </trkpt>
      <trkpt lat="44.78306" lon="5.59461">
        <ele>1191</ele>
        <time>2021-07-25T07:02:08Z</time>
      </trkpt>
      <trkpt lat="44.78298" lon="5.59469">
        <ele>1192</ele>
        <time>2021-07-25T07:02:10Z</time>
      </trkpt>
      <trkpt lat="44.78289" lon="5.59478">
        <ele>1192</ele>
        <time>2021-07-25T07:02:12Z</time>
      </trkpt>
      <trkpt lat="44.78281" lon="5.59488">
        <ele>1192</ele>
        <time>2021-07-25T07:02:14Z</time>
      </trkpt>
      <trkpt lat="44.78273" lon="5.59499">
        <ele>1192</ele>
        <time>2021-07-25T07:02:16Z</time>
      </trkpt>
      <trkpt lat="44.78266" lon="5.5951">
        <ele>1192</ele>
        <time>2021-07-25T07:02:18Z</time>
      </trkpt>
      <trkpt lat="44.78258" lon="5.59519">
        <ele>1194</ele>
        <time>2021-07-25T07:02:20Z</time>
      </trkpt>
      <trkpt lat="44.78246" lon="5.59531">
        <ele>1194</ele>
        <time>2021-07-25T07:02:23Z</time>
      </trkpt>
      <trkpt lat="44.78234" lon="5.59542">
        <ele>1194</ele>
        <time>2021-07-25T07:02:26Z</time>
      </trkpt>
      <trkpt lat="44.78226" lon="5.59551">
        <ele>1194</ele>
        <time>2021-07-25T07:02:28Z</time>
      </trkpt>
      <trkpt lat="44.78217" lon="5.59558">
        <ele>1195</ele>
        <time>2021-07-25T07:02:30Z</time>
      </trkpt>
      <trkpt lat="44.78209" lon="5.59565">
        <ele>1195</ele>
        <time>2021-07-25T07:02:32Z</time>
      </trkpt>
      <trkpt lat="44.782" lon="5.59573">
        <ele>1195</ele>
        <time>2021-07-25T07:02:34Z</time>
      </trkpt>
      <trkpt lat="44.78188" lon="5.59585">
        <ele>1195</ele>
        <time>2021-07-25T07:02:37Z</time>
      </trkpt>
      <trkpt lat="44.7818" lon="5.59594">
        <ele>1195</ele>
        <time>2021-07-25T07:02:39Z</time>
      </trkpt>
      <trkpt lat="44.78167" lon="5.59599">
        <ele>1197</ele>
        <time>2021-07-25T07:02:42Z</time>
      </trkpt>
      <trkpt lat="44.78157" lon="5.596">
        <ele>1197</ele>
        <time>2021-07-25T07:02:44Z</time>
      </trkpt>
      <trkpt lat="44.78146" lon="5.59595">
        <ele>1197</ele>
        <time>2021-07-25T07:02:46Z</time>
      </trkpt>
      <trkpt lat="44.78137" lon="5.59585">
        <ele>1197</ele>
        <time>2021-07-25T07:02:48Z</time>
      </trkpt>
      <trkpt lat="44.7813" lon="5.59572">
        <ele>1199</ele>
        <time>2021-07-25T07:02:50Z</time>
      </trkpt>
      <trkpt lat="44.78127" lon="5.59557">
        <ele>1199</ele>
        <time>2021-07-25T07:02:52Z</time>
      </trkpt>
      <trkpt lat="44.78127" lon="5.59542">
        <ele>1199</ele>
        <time>2021-07-25T07:02:54Z</time>
      </trkpt>
      <trkpt lat="44.78127" lon="5.59526">
        <ele>1199</ele>
        <time>2021-07-25T07:02:56Z</time>
      </trkpt>
      <trkpt lat="44.78125" lon="5.59509">
        <ele>1199</ele>
        <time>2021-07-25T07:02:58Z</time>
      </trkpt>
      <trkpt lat="44.78123" lon="5.59494">
        <ele>1201</ele>
        <time>2021-07-25T07:03:00Z</time>
      </trkpt>
      <trkpt lat="44.7812" lon="5.59474">
        <ele>1201</ele>
        <time>2021-07-25T07:03:03Z</time>
      </trkpt>
      <trkpt lat="44.78116" lon="5.59456">
        <ele>1202</ele>
        <time>2021-07-25T07:03:06Z</time>
      </trkpt>
      <trkpt lat="44.78112" lon="5.59442">
        <ele>1202</ele>
        <time>2021-07-25T07:03:08Z</time>
      </trkpt>
      <trkpt lat="44.78108" lon="5.59429">
        <ele>1202</ele>
        <time>2021-07-25T07:03:10Z</time>
      </trkpt>
      <trkpt lat="44.78104" lon="5.59416">
        <ele>1202</ele>
        <time>2021-07-25T07:03:12Z</time>
      </trkpt>
      <trkpt lat="44.78101" lon="5.59402">
        <ele>1202</ele>
        <time>2021-07-25T07:03:14Z</time>
      </trkpt>
      <trkpt lat="44.78097" lon="5.59387">
        <ele>1202</ele>
        <time>2021-07-25T07:03:16Z</time>
      </trkpt>
      <trkpt lat="44.78094" lon="5.59374">
        <ele>1202</ele>
        <time>2021-07-25T07:03:18Z</time>
      </trkpt>
      <trkpt lat="44.7809" lon="5.5936">
        <ele>1204</ele>
        <time>2021-07-25T07:03:20Z</time>
      </trkpt>
      <trkpt lat="44.78082" lon="5.5935">
        <ele>1204</ele>
        <time>2021-07-25T07:03:22Z</time>
      </trkpt>
      <trkpt lat="44.78072" lon="5.59352">
        <ele>1204</ele>
        <time>2021-07-25T07:03:24Z</time>
      </trkpt>
      <trkpt lat="44.78064" lon="5.5937">
        <ele>1204</ele>
        <time>2021-07-25T07:03:27Z</time>
      </trkpt>
      <trkpt lat="44.78063" lon="5.59386">
        <ele>1204</ele>
        <time>2021-07-25T07:03:29Z</time>
      </trkpt>
      <trkpt lat="44.78062" lon="5.59403">
        <ele>1205</ele>
        <time>2021-07-25T07:03:31Z</time>
      </trkpt>
      <trkpt lat="44.78057" lon="5.59417">
        <ele>1205</ele>
        <time>2021-07-25T07:03:33Z</time>
      </trkpt>
      <trkpt lat="44.78052" lon="5.59431">
        <ele>1205</ele>
        <time>2021-07-25T07:03:35Z</time>
      </trkpt>
      <trkpt lat="44.78047" lon="5.59443">
        <ele>1205</ele>
        <time>2021-07-25T07:03:37Z</time>
      </trkpt>
      <trkpt lat="44.7804" lon="5.59454">
        <ele>1205</ele>
        <time>2021-07-25T07:03:39Z</time>
      </trkpt>
      <trkpt lat="44.78033" lon="5.59465">
        <ele>1207</ele>
        <time>2021-07-25T07:03:41Z</time>
      </trkpt>
      <trkpt lat="44.78025" lon="5.5948">
        <ele>1207</ele>
        <time>2021-07-25T07:03:44Z</time>
      </trkpt>
      <trkpt lat="44.7802" lon="5.59493">
        <ele>1207</ele>
        <time>2021-07-25T07:03:46Z</time>
      </trkpt>
      <trkpt lat="44.78016" lon="5.59506">
        <ele>1207</ele>
        <time>2021-07-25T07:03:48Z</time>
      </trkpt>
      <trkpt lat="44.78012" lon="5.5952">
        <ele>1210</ele>
        <time>2021-07-25T07:03:50Z</time>
      </trkpt>
      <trkpt lat="44.78007" lon="5.59536">
        <ele>1210</ele>
        <time>2021-07-25T07:03:52Z</time>
      </trkpt>
      <trkpt lat="44.78004" lon="5.59551">
        <ele>1210</ele>
        <time>2021-07-25T07:03:54Z</time>
      </trkpt>
      <trkpt lat="44.78001" lon="5.59566">
        <ele>1210</ele>
        <time>2021-07-25T07:03:56Z</time>
      </trkpt>
      <trkpt lat="44.77997" lon="5.59581">
        <ele>1210</ele>
        <time>2021-07-25T07:03:58Z</time>
      </trkpt>
      <trkpt lat="44.77995" lon="5.59595">
        <ele>1211</ele>
        <time>2021-07-25T07:04:00Z</time>
      </trkpt>
      <trkpt lat="44.77991" lon="5.59609">
        <ele>1211</ele>
        <time>2021-07-25T07:04:02Z</time>
      </trkpt>
      <trkpt lat="44.77987" lon="5.59623">
        <ele>1211</ele>
        <time>2021-07-25T07:04:04Z</time>
      </trkpt>
      <trkpt lat="44.77983" lon="5.59636">
        <ele>1211</ele>
        <time>2021-07-25T07:04:06Z</time>
      </trkpt>
      <trkpt lat="44.77974" lon="5.59652">
        <ele>1211</ele>
        <time>2021-07-25T07:04:09Z</time>
      </trkpt>
      <trkpt lat="44.77964" lon="5.59653">
        <ele>1212</ele>
        <time>2021-07-25T07:04:11Z</time>
      </trkpt>
      <trkpt lat="44.77955" lon="5.59642">
        <ele>1212</ele>
        <time>2021-07-25T07:04:13Z</time>
      </trkpt>
      <trkpt lat="44.77951" lon="5.59627">
        <ele>1212</ele>
        <time>2021-07-25T07:04:15Z</time>
      </trkpt>
      <trkpt lat="44.77947" lon="5.59612">
        <ele>1212</ele>
        <time>2021-07-25T07:04:17Z</time>
      </trkpt>
      <trkpt lat="44.77945" lon="5.59598">
        <ele>1212</ele>
        <time>2021-07-25T07:04:19Z</time>
      </trkpt>
      <trkpt lat="44.77942" lon="5.59584">
        <ele>1214</ele>
        <time>2021-07-25T07:04:21Z</time>
      </trkpt>
      <trkpt lat="44.7794" lon="5.59569">
        <ele>1214</ele>
        <time>2021-07-25T07:04:23Z</time>
      </trkpt>
      <trkpt lat="44.77937" lon="5.59553">
        <ele>1214</ele>
        <time>2021-07-25T07:04:25Z</time>
      </trkpt>
      <trkpt lat="44.77934" lon="5.59538">
        <ele>1214</ele>
        <time>2021-07-25T07:04:27Z</time>
      </trkpt>
      <trkpt lat="44.77932" lon="5.59522">
        <ele>1214</ele>
        <time>2021-07-25T07:04:29Z</time>
      </trkpt>
      <trkpt lat="44.77929" lon="5.59507">
        <ele>1216</ele>
        <time>2021-07-25T07:04:31Z</time>
      </trkpt>
      <trkpt lat="44.77927" lon="5.59491">
        <ele>1216</ele>
        <time>2021-07-25T07:04:33Z</time>
      </trkpt>
      <trkpt lat="44.77923" lon="5.59477">
        <ele>1216</ele>
        <time>2021-07-25T07:04:35Z</time>
      </trkpt>
      <trkpt lat="44.77919" lon="5.59457">
        <ele>1216</ele>
        <time>2021-07-25T07:04:38Z</time>
      </trkpt>
      <trkpt lat="44.77916" lon="5.59442">
        <ele>1217</ele>
        <time>2021-07-25T07:04:40Z</time>
      </trkpt>
      <trkpt lat="44.77915" lon="5.59427">
        <ele>1217</ele>
        <time>2021-07-25T07:04:42Z</time>
      </trkpt>
      <trkpt lat="44.77915" lon="5.59411">
        <ele>1217</ele>
        <time>2021-07-25T07:04:44Z</time>
      </trkpt>
      <trkpt lat="44.77915" lon="5.59394">
        <ele>1217</ele>
        <time>2021-07-25T07:04:46Z</time>
      </trkpt>
      <trkpt lat="44.77916" lon="5.59378">
        <ele>1217</ele>
        <time>2021-07-25T07:04:48Z</time>
      </trkpt>
      <trkpt lat="44.77917" lon="5.59361">
        <ele>1219</ele>
        <time>2021-07-25T07:04:50Z</time>
      </trkpt>
      <trkpt lat="44.77915" lon="5.59347">
        <ele>1219</ele>
        <time>2021-07-25T07:04:52Z</time>
      </trkpt>
      <trkpt lat="44.77911" lon="5.59334">
        <ele>1219</ele>
        <time>2021-07-25T07:04:54Z</time>
      </trkpt>
      <trkpt lat="44.77906" lon="5.59322">
        <ele>1219</ele>
        <time>2021-07-25T07:04:56Z</time>
      </trkpt>
      <trkpt lat="44.77899" lon="5.59311">
        <ele>1219</ele>
        <time>2021-07-25T07:04:58Z</time>
      </trkpt>
      <trkpt lat="44.77894" lon="5.59297">
        <ele>1221</ele>
        <time>2021-07-25T07:05:00Z</time>
      </trkpt>
      <trkpt lat="44.77894" lon="5.59282">
        <ele>1221</ele>
        <time>2021-07-25T07:05:02Z</time>
      </trkpt>
      <trkpt lat="44.77896" lon="5.59267">
        <ele>1221</ele>
        <time>2021-07-25T07:05:04Z</time>
      </trkpt>
      <trkpt lat="44.779" lon="5.59253">
        <ele>1222</ele>
        <time>2021-07-25T07:05:06Z</time>
      </trkpt>
      <trkpt lat="44.77902" lon="5.59237">
        <ele>1222</ele>
        <time>2021-07-25T07:05:08Z</time>
      </trkpt>
      <trkpt lat="44.77904" lon="5.59223">
        <ele>1223</ele>
        <time>2021-07-25T07:05:10Z</time>
      </trkpt>
      <trkpt lat="44.77905" lon="5.59207">
        <ele>1223</ele>
        <time>2021-07-25T07:05:12Z</time>
      </trkpt>
      <trkpt lat="44.77903" lon="5.59192">
        <ele>1223</ele>
        <time>2021-07-25T07:05:14Z</time>
      </trkpt>
      <trkpt lat="44.779" lon="5.59178">
        <ele>1223</ele>
        <time>2021-07-25T07:05:16Z</time>
      </trkpt>
      <trkpt lat="44.77898" lon="5.59162">
        <ele>1223</ele>
        <time>2021-07-25T07:05:18Z</time>
      </trkpt>
      <trkpt lat="44.77894" lon="5.59146">
        <ele>1224</ele>
        <time>2021-07-25T07:05:20Z</time>
      </trkpt>
      <trkpt lat="44.77888" lon="5.59136">
        <ele>1224</ele>
        <time>2021-07-25T07:05:22Z</time>
      </trkpt>
      <trkpt lat="44.77877" lon="5.59125">
        <ele>1224</ele>
        <time>2021-07-25T07:05:25Z</time>
      </trkpt>
      <trkpt lat="44.77864" lon="5.59126">
        <ele>1224</ele>
        <time>2021-07-25T07:05:28Z</time>
      </trkpt>
      <trkpt lat="44.77855" lon="5.59142">
        <ele>1226</ele>
        <time>2021-07-25T07:05:31Z</time>
      </trkpt>
      <trkpt lat="44.77846" lon="5.59154">
        <ele>1226</ele>
        <time>2021-07-25T07:05:33Z</time>
      </trkpt>
      <trkpt lat="44.77837" lon="5.5916">
        <ele>1226</ele>
        <time>2021-07-25T07:05:35Z</time>
      </trkpt>
      <trkpt lat="44.77826" lon="5.59165">
        <ele>1226</ele>
        <time>2021-07-25T07:05:37Z</time>
      </trkpt>
      <trkpt lat="44.77816" lon="5.59171">
        <ele>1226</ele>
        <time>2021-07-25T07:05:39Z</time>
      </trkpt>
      <trkpt lat="44.77805" lon="5.59176">
        <ele>1228</ele>
        <time>2021-07-25T07:05:42Z</time>
      </trkpt>
      <trkpt lat="44.77792" lon="5.59175">
        <ele>1228</ele>
        <time>2021-07-25T07:05:45Z</time>
      </trkpt>
      <trkpt lat="44.77781" lon="5.5916">
        <ele>1228</ele>
        <time>2021-07-25T07:05:48Z</time>
      </trkpt>
      <trkpt lat="44.77775" lon="5.59149">
        <ele>1229</ele>
        <time>2021-07-25T07:05:50Z</time>
      </trkpt>
      <trkpt lat="44.77769" lon="5.59138">
        <ele>1229</ele>
        <time>2021-07-25T07:05:52Z</time>
      </trkpt>
      <trkpt lat="44.77762" lon="5.59126">
        <ele>1229</ele>
        <time>2021-07-25T07:05:54Z</time>
      </trkpt>
      <trkpt lat="44.77756" lon="5.59114">
        <ele>1229</ele>
        <time>2021-07-25T07:05:56Z</time>
      </trkpt>
      <trkpt lat="44.77747" lon="5.59105">
        <ele>1229</ele>
        <time>2021-07-25T07:05:58Z</time>
      </trkpt>
      <trkpt lat="44.77739" lon="5.59097">
        <ele>1231</ele>
        <time>2021-07-25T07:06:00Z</time>
      </trkpt>
      <trkpt lat="44.77731" lon="5.5909">
        <ele>1231</ele>
        <time>2021-07-25T07:06:02Z</time>
      </trkpt>
      <trkpt lat="44.77722" lon="5.59083">
        <ele>1231</ele>
        <time>2021-07-25T07:06:04Z</time>
      </trkpt>
      <trkpt lat="44.77708" lon="5.59076">
        <ele>1231</ele>
        <time>2021-07-25T07:06:07Z</time>
      </trkpt>
      <trkpt lat="44.77698" lon="5.59069">
        <ele>1231</ele>
        <time>2021-07-25T07:06:09Z</time>
      </trkpt>
      <trkpt lat="44.77686" lon="5.59062">
        <ele>1232</ele>
        <time>2021-07-25T07:06:11Z</time>
      </trkpt>
      <trkpt lat="44.77675" lon="5.59062">
        <ele>1232</ele>
        <time>2021-07-25T07:06:13Z</time>
      </trkpt>
      <trkpt lat="44.77664" lon="5.59071">
        <ele>1232</ele>
        <time>2021-07-25T07:06:15Z</time>
      </trkpt>
      <trkpt lat="44.7766" lon="5.59086">
        <ele>1232</ele>
        <time>2021-07-25T07:06:17Z</time>
      </trkpt>
      <trkpt lat="44.77661" lon="5.59103">
        <ele>1232</ele>
        <time>2021-07-25T07:06:19Z</time>
      </trkpt>
      <trkpt lat="44.77661" lon="5.59119">
        <ele>1234</ele>
        <time>2021-07-25T07:06:21Z</time>
      </trkpt>
      <trkpt lat="44.77661" lon="5.59135">
        <ele>1234</ele>
        <time>2021-07-25T07:06:23Z</time>
      </trkpt>
      <trkpt lat="44.77654" lon="5.59149">
        <ele>1234</ele>
        <time>2021-07-25T07:06:25Z</time>
      </trkpt>
      <trkpt lat="44.77641" lon="5.59152">
        <ele>1234</ele>
        <time>2021-07-25T07:06:28Z</time>
      </trkpt>
      <trkpt lat="44.77631" lon="5.59145">
        <ele>1236</ele>
        <time>2021-07-25T07:06:30Z</time>
      </trkpt>
      <trkpt lat="44.77617" lon="5.59136">
        <ele>1236</ele>
        <time>2021-07-25T07:06:33Z</time>
      </trkpt>
      <trkpt lat="44.77606" lon="5.59143">
        <ele>1236</ele>
        <time>2021-07-25T07:06:35Z</time>
      </trkpt>
      <trkpt lat="44.77601" lon="5.59161">
        <ele>1236</ele>
        <time>2021-07-25T07:06:38Z</time>
      </trkpt>
      <trkpt lat="44.77604" lon="5.59176">
        <ele>1237</ele>
        <time>2021-07-25T07:06:40Z</time>
      </trkpt>
      <trkpt lat="44.77606" lon="5.59191">
        <ele>1237</ele>
        <time>2021-07-25T07:06:42Z</time>
      </trkpt>
      <trkpt lat="44.77607" lon="5.59206">
        <ele>1237</ele>
        <time>2021-07-25T07:06:44Z</time>
      </trkpt>
      <trkpt lat="44.77612" lon="5.59221">
        <ele>1237</ele>
        <time>2021-07-25T07:06:46Z</time>
      </trkpt>
      <trkpt lat="44.77616" lon="5.59235">
        <ele>1237</ele>
        <time>2021-07-25T07:06:48Z</time>
      </trkpt>
      <trkpt lat="44.77621" lon="5.59248">
        <ele>1239</ele>
        <time>2021-07-25T07:06:50Z</time>
      </trkpt>
      <trkpt lat="44.77628" lon="5.59267">
        <ele>1239</ele>
        <time>2021-07-25T07:06:53Z</time>
      </trkpt>
      <trkpt lat="44.7763" lon="5.59281">
        <ele>1239</ele>
        <time>2021-07-25T07:06:55Z</time>
      </trkpt>
      <trkpt lat="44.77629" lon="5.59296">
        <ele>1239</ele>
        <time>2021-07-25T07:06:57Z</time>
      </trkpt>
      <trkpt lat="44.77622" lon="5.59309">
        <ele>1239</ele>
        <time>2021-07-25T07:06:59Z</time>
      </trkpt>
      <trkpt lat="44.77613" lon="5.59317">
        <ele>1242</ele>
        <time>2021-07-25T07:07:01Z</time>
      </trkpt>
      <trkpt lat="44.77603" lon="5.59322">
        <ele>1242</ele>
        <time>2021-07-25T07:07:03Z</time>
      </trkpt>
      <trkpt lat="44.77593" lon="5.59331">
        <ele>1242</ele>
        <time>2021-07-25T07:07:05Z</time>
      </trkpt>
      <trkpt lat="44.77587" lon="5.59342">
        <ele>1242</ele>
        <time>2021-07-25T07:07:07Z</time>
      </trkpt>
      <trkpt lat="44.77583" lon="5.59356">
        <ele>1242</ele>
        <time>2021-07-25T07:07:09Z</time>
      </trkpt>
      <trkpt lat="44.77579" lon="5.5937">
        <ele>1243</ele>
        <time>2021-07-25T07:07:11Z</time>
      </trkpt>
      <trkpt lat="44.77576" lon="5.59384">
        <ele>1243</ele>
        <time>2021-07-25T07:07:13Z</time>
      </trkpt>
      <trkpt lat="44.77571" lon="5.59397">
        <ele>1243</ele>
        <time>2021-07-25T07:07:15Z</time>
      </trkpt>
      <trkpt lat="44.77562" lon="5.59404">
        <ele>1243</ele>
        <time>2021-07-25T07:07:17Z</time>
      </trkpt>
      <trkpt lat="44.77552" lon="5.59397">
        <ele>1243</ele>
        <time>2021-07-25T07:07:19Z</time>
      </trkpt>
      <trkpt lat="44.77546" lon="5.59382">
        <ele>1245</ele>
        <time>2021-07-25T07:07:21Z</time>
      </trkpt>
      <trkpt lat="44.77543" lon="5.59367">
        <ele>1245</ele>
        <time>2021-07-25T07:07:23Z</time>
      </trkpt>
      <trkpt lat="44.7754" lon="5.5935">
        <ele>1245</ele>
        <time>2021-07-25T07:07:25Z</time>
      </trkpt>
      <trkpt lat="44.77537" lon="5.59336">
        <ele>1245</ele>
        <time>2021-07-25T07:07:27Z</time>
      </trkpt>
      <trkpt lat="44.77531" lon="5.59323">
        <ele>1245</ele>
        <time>2021-07-25T07:07:29Z</time>
      </trkpt>
      <trkpt lat="44.77525" lon="5.59312">
        <ele>1246</ele>
        <time>2021-07-25T07:07:31Z</time>
      </trkpt>
      <trkpt lat="44.77517" lon="5.59302">
        <ele>1246</ele>
        <time>2021-07-25T07:07:33Z</time>
      </trkpt>
      <trkpt lat="44.77509" lon="5.59292">
        <ele>1246</ele>
        <time>2021-07-25T07:07:35Z</time>
      </trkpt>
      <trkpt lat="44.77502" lon="5.59282">
        <ele>1246</ele>
        <time>2021-07-25T07:07:37Z</time>
      </trkpt>
      <trkpt lat="44.77494" lon="5.59272">
        <ele>1246</ele>
        <time>2021-07-25T07:07:39Z</time>
      </trkpt>
      <trkpt lat="44.77489" lon="5.59259">
        <ele>1247</ele>
        <time>2021-07-25T07:07:41Z</time>
      </trkpt>
      <trkpt lat="44.77487" lon="5.59245">
        <ele>1247</ele>
        <time>2021-07-25T07:07:43Z</time>
      </trkpt>
      <trkpt lat="44.77483" lon="5.59231">
        <ele>1247</ele>
        <time>2021-07-25T07:07:45Z</time>
      </trkpt>
      <trkpt lat="44.77477" lon="5.59219">
        <ele>1247</ele>
        <time>2021-07-25T07:07:47Z</time>
      </trkpt>
      <trkpt lat="44.7747" lon="5.59207">
        <ele>1247</ele>
        <time>2021-07-25T07:07:49Z</time>
      </trkpt>
      <trkpt lat="44.77462" lon="5.59194">
        <ele>1250</ele>
        <time>2021-07-25T07:07:51Z</time>
      </trkpt>
      <trkpt lat="44.77455" lon="5.59182">
        <ele>1250</ele>
        <time>2021-07-25T07:07:53Z</time>
      </trkpt>
      <trkpt lat="44.77449" lon="5.59169">
        <ele>1251</ele>
        <time>2021-07-25T07:07:55Z</time>
      </trkpt>
      <trkpt lat="44.77446" lon="5.59154">
        <ele>1251</ele>
        <time>2021-07-25T07:07:57Z</time>
      </trkpt>
      <trkpt lat="44.77443" lon="5.59139">
        <ele>1251</ele>
        <time>2021-07-25T07:07:59Z</time>
      </trkpt>
      <trkpt lat="44.77438" lon="5.59125">
        <ele>1252</ele>
        <time>2021-07-25T07:08:01Z</time>
      </trkpt>
      <trkpt lat="44.77432" lon="5.59114">
        <ele>1252</ele>
        <time>2021-07-25T07:08:03Z</time>
      </trkpt>
      <trkpt lat="44.7742" lon="5.59101">
        <ele>1252</ele>
        <time>2021-07-25T07:08:06Z</time>
      </trkpt>
      <trkpt lat="44.77409" lon="5.59091">
        <ele>1252</ele>
        <time>2021-07-25T07:08:09Z</time>
      </trkpt>
      <trkpt lat="44.77399" lon="5.59086">
        <ele>1254</ele>
        <time>2021-07-25T07:08:11Z</time>
      </trkpt>
      <trkpt lat="44.77386" lon="5.5908">
        <ele>1254</ele>
        <time>2021-07-25T07:08:14Z</time>
      </trkpt>
      <trkpt lat="44.77372" lon="5.59071">
        <ele>1254</ele>
        <time>2021-07-25T07:08:17Z</time>
      </trkpt>
      <trkpt lat="44.77365" lon="5.59061">
        <ele>1254</ele>
        <time>2021-07-25T07:08:19Z</time>
      </trkpt>
      <trkpt lat="44.77359" lon="5.59049">
        <ele>1255</ele>
        <time>2021-07-25T07:08:21Z</time>
      </trkpt>
      <trkpt lat="44.77355" lon="5.59036">
        <ele>1255</ele>
        <time>2021-07-25T07:08:23Z</time>
      </trkpt>
      <trkpt lat="44.77353" lon="5.59022">
        <ele>1255</ele>
        <time>2021-07-25T07:08:25Z</time>
      </trkpt>
      <trkpt lat="44.7735" lon="5.59007">
        <ele>1255</ele>
        <time>2021-07-25T07:08:27Z</time>
      </trkpt>
      <trkpt lat="44.77349" lon="5.58993">
        <ele>1255</ele>
        <time>2021-07-25T07:08:29Z</time>
      </trkpt>
      <trkpt lat="44.77351" lon="5.58979">
        <ele>1257</ele>
        <time>2021-07-25T07:08:31Z</time>
      </trkpt>
      <trkpt lat="44.77355" lon="5.58966">
        <ele>1257</ele>
        <time>2021-07-25T07:08:33Z</time>
      </trkpt>
      <trkpt lat="44.77357" lon="5.58952">
        <ele>1257</ele>
        <time>2021-07-25T07:08:35Z</time>
      </trkpt>
      <trkpt lat="44.77356" lon="5.58938">
        <ele>1257</ele>
        <time>2021-07-25T07:08:37Z</time>
      </trkpt>
      <trkpt lat="44.77354" lon="5.58924">
        <ele>1257</ele>
        <time>2021-07-25T07:08:39Z</time>
      </trkpt>
      <trkpt lat="44.77353" lon="5.58909">
        <ele>1259</ele>
        <time>2021-07-25T07:08:41Z</time>
      </trkpt>
      <trkpt lat="44.77352" lon="5.58894">
        <ele>1259</ele>
        <time>2021-07-25T07:08:43Z</time>
      </trkpt>
      <trkpt lat="44.7735" lon="5.5888">
        <ele>1259</ele>
        <time>2021-07-25T07:08:45Z</time>
      </trkpt>
      <trkpt lat="44.77349" lon="5.58874">
        <ele>1259</ele>
        <time>2021-07-25T07:08:46Z</time>
      </trkpt>
      <trkpt lat="44.77348" lon="5.58868">
        <ele>1259</ele>
        <time>2021-07-25T07:08:47Z</time>
      </trkpt>
      <trkpt lat="44.77347" lon="5.58861">
        <ele>1259</ele>
        <time>2021-07-25T07:08:48Z</time>
      </trkpt>
      <trkpt lat="44.77346" lon="5.58854">
        <ele>1259</ele>
        <time>2021-07-25T07:08:49Z</time>
      </trkpt>
      <trkpt lat="44.77345" lon="5.58847">
        <ele>1262</ele>
        <time>2021-07-25T07:08:50Z</time>
      </trkpt>
      <trkpt lat="44.77344" lon="5.5884">
        <ele>1262</ele>
        <time>2021-07-25T07:08:51Z</time>
      </trkpt>
      <trkpt lat="44.77343" lon="5.58834">
        <ele>1262</ele>
        <time>2021-07-25T07:08:52Z</time>
      </trkpt>
      <trkpt lat="44.77341" lon="5.58827">
        <ele>1262</ele>
        <time>2021-07-25T07:08:53Z</time>
      </trkpt>
      <trkpt lat="44.77339" lon="5.58821">
        <ele>1262</ele>
        <time>2021-07-25T07:08:54Z</time>
      </trkpt>
      <trkpt lat="44.77337" lon="5.58814">
        <ele>1263</ele>
        <time>2021-07-25T07:08:55Z</time>
      </trkpt>
      <trkpt lat="44.77334" lon="5.58808">
        <ele>1263</ele>
        <time>2021-07-25T07:08:56Z</time>
      </trkpt>
      <trkpt lat="44.77332" lon="5.58801">
        <ele>1263</ele>
        <time>2021-07-25T07:08:57Z</time>
      </trkpt>
      <trkpt lat="44.7733" lon="5.58795">
        <ele>1263</ele>
        <time>2021-07-25T07:08:58Z</time>
      </trkpt>
      <trkpt lat="44.77327" lon="5.58789">
        <ele>1263</ele>
        <time>2021-07-25T07:08:59Z</time>
      </trkpt>
      <trkpt lat="44.77325" lon="5.58783">
        <ele>1264</ele>
        <time>2021-07-25T07:09:00Z</time>
      </trkpt>
      <trkpt lat="44.77321" lon="5.58778">
        <ele>1264</ele>
        <time>2021-07-25T07:09:01Z</time>
      </trkpt>
      <trkpt lat="44.77317" lon="5.58775">
        <ele>1264</ele>
        <time>2021-07-25T07:09:02Z</time>
      </trkpt>
      <trkpt lat="44.77312" lon="5.58774">
        <ele>1264</ele>
        <time>2021-07-25T07:09:03Z</time>
      </trkpt>
      <trkpt lat="44.77302" lon="5.58778">
        <ele>1264</ele>
        <time>2021-07-25T07:09:05Z</time>
      </trkpt>
      <trkpt lat="44.77298" lon="5.58783">
        <ele>1264</ele>
        <time>2021-07-25T07:09:06Z</time>
      </trkpt>
      <trkpt lat="44.77296" lon="5.58797">
        <ele>1264</ele>
        <time>2021-07-25T07:09:08Z</time>
      </trkpt>
      <trkpt lat="44.77296" lon="5.58813">
        <ele>1265</ele>
        <time>2021-07-25T07:09:10Z</time>
      </trkpt>
      <trkpt lat="44.77296" lon="5.58828">
        <ele>1265</ele>
        <time>2021-07-25T07:09:12Z</time>
      </trkpt>
      <trkpt lat="44.77295" lon="5.58842">
        <ele>1265</ele>
        <time>2021-07-25T07:09:14Z</time>
      </trkpt>
      <trkpt lat="44.77291" lon="5.58855">
        <ele>1265</ele>
        <time>2021-07-25T07:09:16Z</time>
      </trkpt>
      <trkpt lat="44.77289" lon="5.58861">
        <ele>1265</ele>
        <time>2021-07-25T07:09:17Z</time>
      </trkpt>
      <trkpt lat="44.77287" lon="5.58868">
        <ele>1265</ele>
        <time>2021-07-25T07:09:18Z</time>
      </trkpt>
      <trkpt lat="44.77285" lon="5.58874">
        <ele>1265</ele>
        <time>2021-07-25T07:09:19Z</time>
      </trkpt>
      <trkpt lat="44.77284" lon="5.58881">
        <ele>1268</ele>
        <time>2021-07-25T07:09:20Z</time>
      </trkpt>
      <trkpt lat="44.77283" lon="5.58888">
        <ele>1268</ele>
        <time>2021-07-25T07:09:21Z</time>
      </trkpt>
      <trkpt lat="44.77282" lon="5.58896">
        <ele>1268</ele>
        <time>2021-07-25T07:09:22Z</time>
      </trkpt>
      <trkpt lat="44.77282" lon="5.58902">
        <ele>1268</ele>
        <time>2021-07-25T07:09:23Z</time>
      </trkpt>
      <trkpt lat="44.77281" lon="5.58909">
        <ele>1268</ele>
        <time>2021-07-25T07:09:24Z</time>
      </trkpt>
      <trkpt lat="44.77279" lon="5.58922">
        <ele>1270</ele>
        <time>2021-07-25T07:09:26Z</time>
      </trkpt>
      <trkpt lat="44.77273" lon="5.58941">
        <ele>1270</ele>
        <time>2021-07-25T07:09:29Z</time>
      </trkpt>
      <trkpt lat="44.77262" lon="5.58943">
        <ele>1271</ele>
        <time>2021-07-25T07:09:31Z</time>
      </trkpt>
      <trkpt lat="44.77257" lon="5.58941">
        <ele>1271</ele>
        <time>2021-07-25T07:09:32Z</time>
      </trkpt>
      <trkpt lat="44.77249" lon="5.58933">
        <ele>1271</ele>
        <time>2021-07-25T07:09:34Z</time>
      </trkpt>
      <trkpt lat="44.7724" lon="5.5893">
        <ele>1272</ele>
        <time>2021-07-25T07:09:36Z</time>
      </trkpt>
      <trkpt lat="44.7723" lon="5.58939">
        <ele>1272</ele>
        <time>2021-07-25T07:09:39Z</time>
      </trkpt>
      <trkpt lat="44.77226" lon="5.58957">
        <ele>1273</ele>
        <time>2021-07-25T07:09:42Z</time>
      </trkpt>
      <trkpt lat="44.77218" lon="5.58973">
        <ele>1275</ele>
        <time>2021-07-25T07:09:45Z</time>
      </trkpt>
      <trkpt lat="44.77213" lon="5.58985">
        <ele>1275</ele>
        <time>2021-07-25T07:09:47Z</time>
      </trkpt>
      <trkpt lat="44.7721" lon="5.58998">
        <ele>1275</ele>
        <time>2021-07-25T07:09:49Z</time>
      </trkpt>
      <trkpt lat="44.77208" lon="5.59018">
        <ele>1275</ele>
        <time>2021-07-25T07:09:52Z</time>
      </trkpt>
      <trkpt lat="44.77208" lon="5.59032">
        <ele>1275</ele>
        <time>2021-07-25T07:09:54Z</time>
      </trkpt>
      <trkpt lat="44.77208" lon="5.59046">
        <ele>1275</ele>
        <time>2021-07-25T07:09:56Z</time>
      </trkpt>
      <trkpt lat="44.77206" lon="5.59065">
        <ele>1275</ele>
        <time>2021-07-25T07:09:59Z</time>
      </trkpt>
      <trkpt lat="44.77203" lon="5.59084">
        <ele>1278</ele>
        <time>2021-07-25T07:10:02Z</time>
      </trkpt>
      <trkpt lat="44.77199" lon="5.59097">
        <ele>1278</ele>
        <time>2021-07-25T07:10:04Z</time>
      </trkpt>
      <trkpt lat="44.77196" lon="5.59108">
        <ele>1279</ele>
        <time>2021-07-25T07:10:06Z</time>
      </trkpt>
      <trkpt lat="44.77189" lon="5.59118">
        <ele>1279</ele>
        <time>2021-07-25T07:10:08Z</time>
      </trkpt>
      <trkpt lat="44.77179" lon="5.59118">
        <ele>1280</ele>
        <time>2021-07-25T07:10:10Z</time>
      </trkpt>
      <trkpt lat="44.77172" lon="5.5911">
        <ele>1280</ele>
        <time>2021-07-25T07:10:12Z</time>
      </trkpt>
      <trkpt lat="44.77167" lon="5.59099">
        <ele>1280</ele>
        <time>2021-07-25T07:10:14Z</time>
      </trkpt>
      <trkpt lat="44.77163" lon="5.59087">
        <ele>1280</ele>
        <time>2021-07-25T07:10:16Z</time>
      </trkpt>
      <trkpt lat="44.77158" lon="5.59076">
        <ele>1280</ele>
        <time>2021-07-25T07:10:18Z</time>
      </trkpt>
      <trkpt lat="44.77151" lon="5.59068">
        <ele>1282</ele>
        <time>2021-07-25T07:10:20Z</time>
      </trkpt>
      <trkpt lat="44.77143" lon="5.5906">
        <ele>1282</ele>
        <time>2021-07-25T07:10:22Z</time>
      </trkpt>
      <trkpt lat="44.77133" lon="5.59048">
        <ele>1282</ele>
        <time>2021-07-25T07:10:25Z</time>
      </trkpt>
      <trkpt lat="44.77126" lon="5.59038">
        <ele>1282</ele>
        <time>2021-07-25T07:10:27Z</time>
      </trkpt>
      <trkpt lat="44.77118" lon="5.5903">
        <ele>1282</ele>
        <time>2021-07-25T07:10:29Z</time>
      </trkpt>
      <trkpt lat="44.7711" lon="5.59024">
        <ele>1284</ele>
        <time>2021-07-25T07:10:31Z</time>
      </trkpt>
      <trkpt lat="44.77101" lon="5.5902">
        <ele>1284</ele>
        <time>2021-07-25T07:10:33Z</time>
      </trkpt>
      <trkpt lat="44.77089" lon="5.59014">
        <ele>1284</ele>
        <time>2021-07-25T07:10:36Z</time>
      </trkpt>
      <trkpt lat="44.7708" lon="5.59005">
        <ele>1284</ele>
        <time>2021-07-25T07:10:38Z</time>
      </trkpt>
      <trkpt lat="44.77071" lon="5.58992">
        <ele>1286</ele>
        <time>2021-07-25T07:10:41Z</time>
      </trkpt>
      <trkpt lat="44.77062" lon="5.58981">
        <ele>1286</ele>
        <time>2021-07-25T07:10:44Z</time>
      </trkpt>
      <trkpt lat="44.77049" lon="5.58984">
        <ele>1286</ele>
        <time>2021-07-25T07:10:47Z</time>
      </trkpt>
      <trkpt lat="44.77041" lon="5.58992">
        <ele>1286</ele>
        <time>2021-07-25T07:10:49Z</time>
      </trkpt>
      <trkpt lat="44.77032" lon="5.59007">
        <ele>1288</ele>
        <time>2021-07-25T07:10:52Z</time>
      </trkpt>
      <trkpt lat="44.77022" lon="5.59016">
        <ele>1288</ele>
        <time>2021-07-25T07:10:55Z</time>
      </trkpt>
      <trkpt lat="44.77009" lon="5.59016">
        <ele>1288</ele>
        <time>2021-07-25T07:10:59Z</time>
      </trkpt>
      <trkpt lat="44.76999" lon="5.59019">
        <ele>1290</ele>
        <time>2021-07-25T07:11:01Z</time>
      </trkpt>
      <trkpt lat="44.76989" lon="5.59025">
        <ele>1290</ele>
        <time>2021-07-25T07:11:03Z</time>
      </trkpt>
      <trkpt lat="44.7698" lon="5.59032">
        <ele>1291</ele>
        <time>2021-07-25T07:11:05Z</time>
      </trkpt>
      <trkpt lat="44.76969" lon="5.59042">
        <ele>1291</ele>
        <time>2021-07-25T07:11:08Z</time>
      </trkpt>
      <trkpt lat="44.76959" lon="5.59047">
        <ele>1293</ele>
        <time>2021-07-25T07:11:10Z</time>
      </trkpt>
      <trkpt lat="44.76947" lon="5.5905">
        <ele>1293</ele>
        <time>2021-07-25T07:11:13Z</time>
      </trkpt>
      <trkpt lat="44.76935" lon="5.59062">
        <ele>1293</ele>
        <time>2021-07-25T07:11:16Z</time>
      </trkpt>
      <trkpt lat="44.76927" lon="5.59069">
        <ele>1293</ele>
        <time>2021-07-25T07:11:18Z</time>
      </trkpt>
      <trkpt lat="44.76919" lon="5.59077">
        <ele>1295</ele>
        <time>2021-07-25T07:11:20Z</time>
      </trkpt>
      <trkpt lat="44.76909" lon="5.59078">
        <ele>1295</ele>
        <time>2021-07-25T07:11:22Z</time>
      </trkpt>
      <trkpt lat="44.769" lon="5.59075">
        <ele>1295</ele>
        <time>2021-07-25T07:11:24Z</time>
      </trkpt>
      <trkpt lat="44.76888" lon="5.5907">
        <ele>1295</ele>
        <time>2021-07-25T07:11:27Z</time>
      </trkpt>
      <trkpt lat="44.76876" lon="5.59068">
        <ele>1297</ele>
        <time>2021-07-25T07:11:30Z</time>
      </trkpt>
      <trkpt lat="44.76865" lon="5.5908">
        <ele>1297</ele>
        <time>2021-07-25T07:11:33Z</time>
      </trkpt>
      <trkpt lat="44.76862" lon="5.59094">
        <ele>1297</ele>
        <time>2021-07-25T07:11:35Z</time>
      </trkpt>
      <trkpt lat="44.76859" lon="5.59114">
        <ele>1297</ele>
        <time>2021-07-25T07:11:38Z</time>
      </trkpt>
      <trkpt lat="44.7685" lon="5.59129">
        <ele>1298</ele>
        <time>2021-07-25T07:11:41Z</time>
      </trkpt>
      <trkpt lat="44.76838" lon="5.59141">
        <ele>1298</ele>
        <time>2021-07-25T07:11:44Z</time>
      </trkpt>
      <trkpt lat="44.76829" lon="5.5915">
        <ele>1298</ele>
        <time>2021-07-25T07:11:46Z</time>
      </trkpt>
      <trkpt lat="44.76822" lon="5.5916">
        <ele>1298</ele>
        <time>2021-07-25T07:11:48Z</time>
      </trkpt>
      <trkpt lat="44.76812" lon="5.59174">
        <ele>1300</ele>
        <time>2021-07-25T07:11:51Z</time>
      </trkpt>
      <trkpt lat="44.76806" lon="5.59184">
        <ele>1300</ele>
        <time>2021-07-25T07:11:53Z</time>
      </trkpt>
      <trkpt lat="44.76801" lon="5.59194">
        <ele>1300</ele>
        <time>2021-07-25T07:11:55Z</time>
      </trkpt>
      <trkpt lat="44.76793" lon="5.59208">
        <ele>1300</ele>
        <time>2021-07-25T07:11:58Z</time>
      </trkpt>
      <trkpt lat="44.76784" lon="5.59223">
        <ele>1302</ele>
        <time>2021-07-25T07:12:01Z</time>
      </trkpt>
      <trkpt lat="44.76777" lon="5.59232">
        <ele>1302</ele>
        <time>2021-07-25T07:12:03Z</time>
      </trkpt>
      <trkpt lat="44.76766" lon="5.59243">
        <ele>1302</ele>
        <time>2021-07-25T07:12:06Z</time>
      </trkpt>
      <trkpt lat="44.76754" lon="5.59249">
        <ele>1302</ele>
        <time>2021-07-25T07:12:09Z</time>
      </trkpt>
      <trkpt lat="44.76741" lon="5.59244">
        <ele>1304</ele>
        <time>2021-07-25T07:12:12Z</time>
      </trkpt>
      <trkpt lat="44.76728" lon="5.59238">
        <ele>1304</ele>
        <time>2021-07-25T07:12:15Z</time>
      </trkpt>
      <trkpt lat="44.76719" lon="5.59228">
        <ele>1304</ele>
        <time>2021-07-25T07:12:17Z</time>
      </trkpt>
      <trkpt lat="44.76711" lon="5.59218">
        <ele>1304</ele>
        <time>2021-07-25T07:12:19Z</time>
      </trkpt>
      <trkpt lat="44.76703" lon="5.59207">
        <ele>1307</ele>
        <time>2021-07-25T07:12:21Z</time>
      </trkpt>
      <trkpt lat="44.76694" lon="5.59199">
        <ele>1307</ele>
        <time>2021-07-25T07:12:23Z</time>
      </trkpt>
      <trkpt lat="44.76686" lon="5.59189">
        <ele>1308</ele>
        <time>2021-07-25T07:12:25Z</time>
      </trkpt>
      <trkpt lat="44.76677" lon="5.59173">
        <ele>1308</ele>
        <time>2021-07-25T07:12:28Z</time>
      </trkpt>
      <trkpt lat="44.76668" lon="5.59157">
        <ele>1308</ele>
        <time>2021-07-25T07:12:31Z</time>
      </trkpt>
      <trkpt lat="44.7666" lon="5.59141">
        <ele>1308</ele>
        <time>2021-07-25T07:12:34Z</time>
      </trkpt>
      <trkpt lat="44.76651" lon="5.59124">
        <ele>1308</ele>
        <time>2021-07-25T07:12:37Z</time>
      </trkpt>
      <trkpt lat="44.76644" lon="5.59107">
        <ele>1310</ele>
        <time>2021-07-25T07:12:40Z</time>
      </trkpt>
      <trkpt lat="44.76638" lon="5.59089">
        <ele>1310</ele>
        <time>2021-07-25T07:12:43Z</time>
      </trkpt>
      <trkpt lat="44.76632" lon="5.59076">
        <ele>1310</ele>
        <time>2021-07-25T07:12:45Z</time>
      </trkpt>
      <trkpt lat="44.76627" lon="5.59064">
        <ele>1310</ele>
        <time>2021-07-25T07:12:47Z</time>
      </trkpt>
      <trkpt lat="44.76622" lon="5.59051">
        <ele>1310</ele>
        <time>2021-07-25T07:12:49Z</time>
      </trkpt>
      <trkpt lat="44.76616" lon="5.59042">
        <ele>1312</ele>
        <time>2021-07-25T07:12:51Z</time>
      </trkpt>
      <trkpt lat="44.76607" lon="5.59038">
        <ele>1312</ele>
        <time>2021-07-25T07:12:53Z</time>
      </trkpt>
      <trkpt lat="44.76598" lon="5.59041">
        <ele>1312</ele>
        <time>2021-07-25T07:12:55Z</time>
      </trkpt>
      <trkpt lat="44.7659" lon="5.59048">
        <ele>1312</ele>
        <time>2021-07-25T07:12:57Z</time>
      </trkpt>
      <trkpt lat="44.76582" lon="5.59056">
        <ele>1312</ele>
        <time>2021-07-25T07:12:59Z</time>
      </trkpt>
      <trkpt lat="44.76575" lon="5.59067">
        <ele>1315</ele>
        <time>2021-07-25T07:13:01Z</time>
      </trkpt>
      <trkpt lat="44.76569" lon="5.59079">
        <ele>1315</ele>
        <time>2021-07-25T07:13:03Z</time>
      </trkpt>
      <trkpt lat="44.76565" lon="5.59092">
        <ele>1316</ele>
        <time>2021-07-25T07:13:05Z</time>
      </trkpt>
      <trkpt lat="44.76562" lon="5.59106">
        <ele>1316</ele>
        <time>2021-07-25T07:13:07Z</time>
      </trkpt>
      <trkpt lat="44.76558" lon="5.5912">
        <ele>1316</ele>
        <time>2021-07-25T07:13:09Z</time>
      </trkpt>
      <trkpt lat="44.76554" lon="5.59132">
        <ele>1317</ele>
        <time>2021-07-25T07:13:11Z</time>
      </trkpt>
      <trkpt lat="44.76552" lon="5.59146">
        <ele>1317</ele>
        <time>2021-07-25T07:13:13Z</time>
      </trkpt>
      <trkpt lat="44.76553" lon="5.5916">
        <ele>1317</ele>
        <time>2021-07-25T07:13:15Z</time>
      </trkpt>
      <trkpt lat="44.76554" lon="5.59174">
        <ele>1317</ele>
        <time>2021-07-25T07:13:17Z</time>
      </trkpt>
      <trkpt lat="44.76554" lon="5.59187">
        <ele>1317</ele>
        <time>2021-07-25T07:13:19Z</time>
      </trkpt>
      <trkpt lat="44.76551" lon="5.592">
        <ele>1317</ele>
        <time>2021-07-25T07:13:21Z</time>
      </trkpt>
      <trkpt lat="44.76548" lon="5.59212">
        <ele>1317</ele>
        <time>2021-07-25T07:13:23Z</time>
      </trkpt>
      <trkpt lat="44.76544" lon="5.59224">
        <ele>1317</ele>
        <time>2021-07-25T07:13:25Z</time>
      </trkpt>
      <trkpt lat="44.76541" lon="5.59237">
        <ele>1317</ele>
        <time>2021-07-25T07:13:27Z</time>
      </trkpt>
      <trkpt lat="44.76538" lon="5.59249">
        <ele>1317</ele>
        <time>2021-07-25T07:13:29Z</time>
      </trkpt>
      <trkpt lat="44.76536" lon="5.59262">
        <ele>1319</ele>
        <time>2021-07-25T07:13:31Z</time>
      </trkpt>
      <trkpt lat="44.76534" lon="5.59276">
        <ele>1319</ele>
        <time>2021-07-25T07:13:33Z</time>
      </trkpt>
      <trkpt lat="44.76532" lon="5.59289">
        <ele>1319</ele>
        <time>2021-07-25T07:13:35Z</time>
      </trkpt>
      <trkpt lat="44.7653" lon="5.59309">
        <ele>1319</ele>
        <time>2021-07-25T07:13:38Z</time>
      </trkpt>
      <trkpt lat="44.76526" lon="5.59328">
        <ele>1321</ele>
        <time>2021-07-25T07:13:41Z</time>
      </trkpt>
      <trkpt lat="44.76523" lon="5.59346">
        <ele>1321</ele>
        <time>2021-07-25T07:13:44Z</time>
      </trkpt>
      <trkpt lat="44.76518" lon="5.59365">
        <ele>1321</ele>
        <time>2021-07-25T07:13:47Z</time>
      </trkpt>
      <trkpt lat="44.76514" lon="5.59377">
        <ele>1321</ele>
        <time>2021-07-25T07:13:49Z</time>
      </trkpt>
      <trkpt lat="44.76509" lon="5.59388">
        <ele>1323</ele>
        <time>2021-07-25T07:13:51Z</time>
      </trkpt>
      <trkpt lat="44.76505" lon="5.594">
        <ele>1323</ele>
        <time>2021-07-25T07:13:53Z</time>
      </trkpt>
      <trkpt lat="44.76502" lon="5.59412">
        <ele>1323</ele>
        <time>2021-07-25T07:13:55Z</time>
      </trkpt>
      <trkpt lat="44.76497" lon="5.5943">
        <ele>1323</ele>
        <time>2021-07-25T07:13:58Z</time>
      </trkpt>
      <trkpt lat="44.76493" lon="5.59442">
        <ele>1326</ele>
        <time>2021-07-25T07:14:00Z</time>
      </trkpt>
      <trkpt lat="44.76487" lon="5.59453">
        <ele>1326</ele>
        <time>2021-07-25T07:14:02Z</time>
      </trkpt>
      <trkpt lat="44.76478" lon="5.59459">
        <ele>1326</ele>
        <time>2021-07-25T07:14:04Z</time>
      </trkpt>
      <trkpt lat="44.76469" lon="5.59462">
        <ele>1327</ele>
        <time>2021-07-25T07:14:06Z</time>
      </trkpt>
      <trkpt lat="44.76459" lon="5.59463">
        <ele>1327</ele>
        <time>2021-07-25T07:14:08Z</time>
      </trkpt>
      <trkpt lat="44.76449" lon="5.59466">
        <ele>1328</ele>
        <time>2021-07-25T07:14:10Z</time>
      </trkpt>
      <trkpt lat="44.7644" lon="5.59471">
        <ele>1328</ele>
        <time>2021-07-25T07:14:12Z</time>
      </trkpt>
      <trkpt lat="44.76431" lon="5.59477">
        <ele>1328</ele>
        <time>2021-07-25T07:14:14Z</time>
      </trkpt>
      <trkpt lat="44.76421" lon="5.59482">
        <ele>1328</ele>
        <time>2021-07-25T07:14:16Z</time>
      </trkpt>
      <trkpt lat="44.76412" lon="5.59487">
        <ele>1328</ele>
        <time>2021-07-25T07:14:18Z</time>
      </trkpt>
      <trkpt lat="44.76404" lon="5.59495">
        <ele>1330</ele>
        <time>2021-07-25T07:14:20Z</time>
      </trkpt>
      <trkpt lat="44.76394" lon="5.59509">
        <ele>1330</ele>
        <time>2021-07-25T07:14:23Z</time>
      </trkpt>
      <trkpt lat="44.7639" lon="5.59523">
        <ele>1330</ele>
        <time>2021-07-25T07:14:25Z</time>
      </trkpt>
      <trkpt lat="44.76387" lon="5.59539">
        <ele>1330</ele>
        <time>2021-07-25T07:14:27Z</time>
      </trkpt>
      <trkpt lat="44.76386" lon="5.59553">
        <ele>1330</ele>
        <time>2021-07-25T07:14:29Z</time>
      </trkpt>
      <trkpt lat="44.76386" lon="5.59568">
        <ele>1332</ele>
        <time>2021-07-25T07:14:31Z</time>
      </trkpt>
      <trkpt lat="44.76389" lon="5.59581">
        <ele>1332</ele>
        <time>2021-07-25T07:14:33Z</time>
      </trkpt>
      <trkpt lat="44.76395" lon="5.59601">
        <ele>1332</ele>
        <time>2021-07-25T07:14:36Z</time>
      </trkpt>
      <trkpt lat="44.764" lon="5.59614">
        <ele>1332</ele>
        <time>2021-07-25T07:14:38Z</time>
      </trkpt>
      <trkpt lat="44.76401" lon="5.59629">
        <ele>1334</ele>
        <time>2021-07-25T07:14:40Z</time>
      </trkpt>
      <trkpt lat="44.76397" lon="5.59642">
        <ele>1334</ele>
        <time>2021-07-25T07:14:42Z</time>
      </trkpt>
      <trkpt lat="44.76391" lon="5.59654">
        <ele>1334</ele>
        <time>2021-07-25T07:14:44Z</time>
      </trkpt>
      <trkpt lat="44.76384" lon="5.59665">
        <ele>1334</ele>
        <time>2021-07-25T07:14:46Z</time>
      </trkpt>
      <trkpt lat="44.76377" lon="5.59675">
        <ele>1334</ele>
        <time>2021-07-25T07:14:48Z</time>
      </trkpt>
      <trkpt lat="44.7637" lon="5.59686">
        <ele>1335</ele>
        <time>2021-07-25T07:14:50Z</time>
      </trkpt>
      <trkpt lat="44.76364" lon="5.59697">
        <ele>1335</ele>
        <time>2021-07-25T07:14:52Z</time>
      </trkpt>
      <trkpt lat="44.76358" lon="5.59709">
        <ele>1335</ele>
        <time>2021-07-25T07:14:54Z</time>
      </trkpt>
      <trkpt lat="44.76352" lon="5.5972">
        <ele>1335</ele>
        <time>2021-07-25T07:14:56Z</time>
      </trkpt>
      <trkpt lat="44.76346" lon="5.59732">
        <ele>1335</ele>
        <time>2021-07-25T07:14:58Z</time>
      </trkpt>
      <trkpt lat="44.7634" lon="5.59743">
        <ele>1337</ele>
        <time>2021-07-25T07:15:00Z</time>
      </trkpt>
      <trkpt lat="44.76334" lon="5.59755">
        <ele>1337</ele>
        <time>2021-07-25T07:15:02Z</time>
      </trkpt>
      <trkpt lat="44.76327" lon="5.59765">
        <ele>1337</ele>
        <time>2021-07-25T07:15:04Z</time>
      </trkpt>
      <trkpt lat="44.7632" lon="5.59776">
        <ele>1337</ele>
        <time>2021-07-25T07:15:06Z</time>
      </trkpt>
      <trkpt lat="44.76315" lon="5.59788">
        <ele>1337</ele>
        <time>2021-07-25T07:15:08Z</time>
      </trkpt>
      <trkpt lat="44.76309" lon="5.59799">
        <ele>1339</ele>
        <time>2021-07-25T07:15:10Z</time>
      </trkpt>
      <trkpt lat="44.76302" lon="5.5981">
        <ele>1339</ele>
        <time>2021-07-25T07:15:12Z</time>
      </trkpt>
      <trkpt lat="44.76296" lon="5.59821">
        <ele>1339</ele>
        <time>2021-07-25T07:15:14Z</time>
      </trkpt>
      <trkpt lat="44.76289" lon="5.59832">
        <ele>1339</ele>
        <time>2021-07-25T07:15:16Z</time>
      </trkpt>
      <trkpt lat="44.76284" lon="5.59843">
        <ele>1339</ele>
        <time>2021-07-25T07:15:18Z</time>
      </trkpt>
      <trkpt lat="44.76278" lon="5.59854">
        <ele>1341</ele>
        <time>2021-07-25T07:15:20Z</time>
      </trkpt>
      <trkpt lat="44.76272" lon="5.59866">
        <ele>1341</ele>
        <time>2021-07-25T07:15:22Z</time>
      </trkpt>
      <trkpt lat="44.76265" lon="5.59876">
        <ele>1341</ele>
        <time>2021-07-25T07:15:24Z</time>
      </trkpt>
      <trkpt lat="44.76252" lon="5.59882">
        <ele>1342</ele>
        <time>2021-07-25T07:15:27Z</time>
      </trkpt>
      <trkpt lat="44.76241" lon="5.59895">
        <ele>1343</ele>
        <time>2021-07-25T07:15:30Z</time>
      </trkpt>
      <trkpt lat="44.76236" lon="5.59909">
        <ele>1343</ele>
        <time>2021-07-25T07:15:32Z</time>
      </trkpt>
      <trkpt lat="44.76235" lon="5.59925">
        <ele>1343</ele>
        <time>2021-07-25T07:15:34Z</time>
      </trkpt>
      <trkpt lat="44.76238" lon="5.5994">
        <ele>1343</ele>
        <time>2021-07-25T07:15:36Z</time>
      </trkpt>
      <trkpt lat="44.7624" lon="5.59954">
        <ele>1343</ele>
        <time>2021-07-25T07:15:38Z</time>
      </trkpt>
      <trkpt lat="44.7624" lon="5.59974">
        <ele>1345</ele>
        <time>2021-07-25T07:15:41Z</time>
      </trkpt>
      <trkpt lat="44.76235" lon="5.59991">
        <ele>1345</ele>
        <time>2021-07-25T07:15:44Z</time>
      </trkpt>
      <trkpt lat="44.76225" lon="5.60001">
        <ele>1345</ele>
        <time>2021-07-25T07:15:47Z</time>
      </trkpt>
      <trkpt lat="44.76214" lon="5.60009">
        <ele>1347</ele>
        <time>2021-07-25T07:15:50Z</time>
      </trkpt>
      <trkpt lat="44.76205" lon="5.60018">
        <ele>1347</ele>
        <time>2021-07-25T07:15:52Z</time>
      </trkpt>
      <trkpt lat="44.76197" lon="5.60029">
        <ele>1347</ele>
        <time>2021-07-25T07:15:54Z</time>
      </trkpt>
      <trkpt lat="44.76191" lon="5.60041">
        <ele>1347</ele>
        <time>2021-07-25T07:15:56Z</time>
      </trkpt>
      <trkpt lat="44.76183" lon="5.60058">
        <ele>1347</ele>
        <time>2021-07-25T07:15:59Z</time>
      </trkpt>
      <trkpt lat="44.76175" lon="5.60075">
        <ele>1350</ele>
        <time>2021-07-25T07:16:02Z</time>
      </trkpt>
      <trkpt lat="44.76164" lon="5.60085">
        <ele>1350</ele>
        <time>2021-07-25T07:16:05Z</time>
      </trkpt>
      <trkpt lat="44.76154" lon="5.60095">
        <ele>1350</ele>
        <time>2021-07-25T07:16:08Z</time>
      </trkpt>
      <trkpt lat="44.76146" lon="5.60107">
        <ele>1351</ele>
        <time>2021-07-25T07:16:10Z</time>
      </trkpt>
      <trkpt lat="44.7614" lon="5.60121">
        <ele>1351</ele>
        <time>2021-07-25T07:16:12Z</time>
      </trkpt>
      <trkpt lat="44.76132" lon="5.60139">
        <ele>1351</ele>
        <time>2021-07-25T07:16:15Z</time>
      </trkpt>
      <trkpt lat="44.76129" lon="5.60159">
        <ele>1351</ele>
        <time>2021-07-25T07:16:18Z</time>
      </trkpt>
      <trkpt lat="44.76134" lon="5.60177">
        <ele>1352</ele>
        <time>2021-07-25T07:16:21Z</time>
      </trkpt>
      <trkpt lat="44.76143" lon="5.60193">
        <ele>1352</ele>
        <time>2021-07-25T07:16:24Z</time>
      </trkpt>
      <trkpt lat="44.76148" lon="5.60206">
        <ele>1352</ele>
        <time>2021-07-25T07:16:26Z</time>
      </trkpt>
      <trkpt lat="44.76151" lon="5.60225">
        <ele>1352</ele>
        <time>2021-07-25T07:16:29Z</time>
      </trkpt>
      <trkpt lat="44.76149" lon="5.6024">
        <ele>1355</ele>
        <time>2021-07-25T07:16:31Z</time>
      </trkpt>
      <trkpt lat="44.76143" lon="5.60251">
        <ele>1355</ele>
        <time>2021-07-25T07:16:33Z</time>
      </trkpt>
      <trkpt lat="44.76136" lon="5.60269">
        <ele>1356</ele>
        <time>2021-07-25T07:16:36Z</time>
      </trkpt>
      <trkpt lat="44.76132" lon="5.60289">
        <ele>1356</ele>
        <time>2021-07-25T07:16:39Z</time>
      </trkpt>
      <trkpt lat="44.76129" lon="5.60303">
        <ele>1358</ele>
        <time>2021-07-25T07:16:41Z</time>
      </trkpt>
      <trkpt lat="44.76126" lon="5.60316">
        <ele>1358</ele>
        <time>2021-07-25T07:16:43Z</time>
      </trkpt>
      <trkpt lat="44.76124" lon="5.6033">
        <ele>1358</ele>
        <time>2021-07-25T07:16:45Z</time>
      </trkpt>
      <trkpt lat="44.76122" lon="5.60344">
        <ele>1358</ele>
        <time>2021-07-25T07:16:47Z</time>
      </trkpt>
      <trkpt lat="44.7612" lon="5.60357">
        <ele>1358</ele>
        <time>2021-07-25T07:16:49Z</time>
      </trkpt>
      <trkpt lat="44.76118" lon="5.60377">
        <ele>1359</ele>
        <time>2021-07-25T07:16:52Z</time>
      </trkpt>
      <trkpt lat="44.76116" lon="5.60398">
        <ele>1359</ele>
        <time>2021-07-25T07:16:55Z</time>
      </trkpt>
      <trkpt lat="44.76114" lon="5.60412">
        <ele>1359</ele>
        <time>2021-07-25T07:16:57Z</time>
      </trkpt>
      <trkpt lat="44.7611" lon="5.60425">
        <ele>1359</ele>
        <time>2021-07-25T07:16:59Z</time>
      </trkpt>
      <trkpt lat="44.76104" lon="5.60437">
        <ele>1360</ele>
        <time>2021-07-25T07:17:01Z</time>
      </trkpt>
      <trkpt lat="44.76098" lon="5.60449">
        <ele>1360</ele>
        <time>2021-07-25T07:17:03Z</time>
      </trkpt>
      <trkpt lat="44.76091" lon="5.60459">
        <ele>1360</ele>
        <time>2021-07-25T07:17:05Z</time>
      </trkpt>
      <trkpt lat="44.7608" lon="5.60471">
        <ele>1360</ele>
        <time>2021-07-25T07:17:08Z</time>
      </trkpt>
      <trkpt lat="44.76066" lon="5.60473">
        <ele>1364</ele>
        <time>2021-07-25T07:17:11Z</time>
      </trkpt>
      <trkpt lat="44.76059" lon="5.60455">
        <ele>1364</ele>
        <time>2021-07-25T07:17:14Z</time>
      </trkpt>
      <trkpt lat="44.76058" lon="5.60438">
        <ele>1365</ele>
        <time>2021-07-25T07:17:16Z</time>
      </trkpt>
      <trkpt lat="44.76058" lon="5.60423">
        <ele>1365</ele>
        <time>2021-07-25T07:17:18Z</time>
      </trkpt>
      <trkpt lat="44.76055" lon="5.60409">
        <ele>1364</ele>
        <time>2021-07-25T07:17:20Z</time>
      </trkpt>
      <trkpt lat="44.76049" lon="5.60397">
        <ele>1364</ele>
        <time>2021-07-25T07:17:22Z</time>
      </trkpt>
      <trkpt lat="44.76037" lon="5.60391">
        <ele>1364</ele>
        <time>2021-07-25T07:17:25Z</time>
      </trkpt>
      <trkpt lat="44.76027" lon="5.60395">
        <ele>1364</ele>
        <time>2021-07-25T07:17:27Z</time>
      </trkpt>
      <trkpt lat="44.76018" lon="5.60401">
        <ele>1364</ele>
        <time>2021-07-25T07:17:29Z</time>
      </trkpt>
      <trkpt lat="44.76005" lon="5.60408">
        <ele>1366</ele>
        <time>2021-07-25T07:17:32Z</time>
      </trkpt>
      <trkpt lat="44.75992" lon="5.60419">
        <ele>1366</ele>
        <time>2021-07-25T07:17:35Z</time>
      </trkpt>
      <trkpt lat="44.75981" lon="5.60426">
        <ele>1366</ele>
        <time>2021-07-25T07:17:37Z</time>
      </trkpt>
      <trkpt lat="44.7597" lon="5.60433">
        <ele>1366</ele>
        <time>2021-07-25T07:17:39Z</time>
      </trkpt>
      <trkpt lat="44.75959" lon="5.6044">
        <ele>1367</ele>
        <time>2021-07-25T07:17:41Z</time>
      </trkpt>
      <trkpt lat="44.75949" lon="5.60447">
        <ele>1367</ele>
        <time>2021-07-25T07:17:43Z</time>
      </trkpt>
      <trkpt lat="44.75938" lon="5.60459">
        <ele>1367</ele>
        <time>2021-07-25T07:17:45Z</time>
      </trkpt>
      <trkpt lat="44.75926" lon="5.6047">
        <ele>1367</ele>
        <time>2021-07-25T07:17:47Z</time>
      </trkpt>
      <trkpt lat="44.75915" lon="5.60481">
        <ele>1367</ele>
        <time>2021-07-25T07:17:49Z</time>
      </trkpt>
      <trkpt lat="44.75901" lon="5.60486">
        <ele>1369</ele>
        <time>2021-07-25T07:17:51Z</time>
      </trkpt>
      <trkpt lat="44.75713" lon="5.60212">
        <ele>1367</ele>
        <time>2021-07-25T07:18:29Z</time>
      </trkpt>
      <trkpt lat="44.7571" lon="5.60192">
        <ele>1366</ele>
        <time>2021-07-25T07:18:31Z</time>
      </trkpt>
      <trkpt lat="44.75706" lon="5.60172">
        <ele>1366</ele>
        <time>2021-07-25T07:18:33Z</time>
      </trkpt>
      <trkpt lat="44.75703" lon="5.60148">
        <ele>1366</ele>
        <time>2021-07-25T07:18:35Z</time>
      </trkpt>
      <trkpt lat="44.75701" lon="5.60125">
        <ele>1366</ele>
        <time>2021-07-25T07:18:37Z</time>
      </trkpt>
      <trkpt lat="44.75698" lon="5.60102">
        <ele>1366</ele>
        <time>2021-07-25T07:18:39Z</time>
      </trkpt>
      <trkpt lat="44.75694" lon="5.6008">
        <ele>1362</ele>
        <time>2021-07-25T07:18:41Z</time>
      </trkpt>
      <trkpt lat="44.75691" lon="5.60059">
        <ele>1362</ele>
        <time>2021-07-25T07:18:43Z</time>
      </trkpt>
      <trkpt lat="44.75689" lon="5.60035">
        <ele>1359</ele>
        <time>2021-07-25T07:18:45Z</time>
      </trkpt>
      <trkpt lat="44.75687" lon="5.60024">
        <ele>1359</ele>
        <time>2021-07-25T07:18:46Z</time>
      </trkpt>
      <trkpt lat="44.75683" lon="5.60013">
        <ele>1359</ele>
        <time>2021-07-25T07:18:47Z</time>
      </trkpt>
      <trkpt lat="44.75678" lon="5.60003">
        <ele>1359</ele>
        <time>2021-07-25T07:18:48Z</time>
      </trkpt>
      <trkpt lat="44.75623" lon="5.59889">
        <ele>1350</ele>
        <time>2021-07-25T07:18:49Z</time>
      </trkpt>
      <trkpt lat="44.75672" lon="5.59995">
        <ele>1359</ele>
        <time>2021-07-25T07:18:49Z</time>
      </trkpt>
      <trkpt lat="44.7562" lon="5.59883">
        <ele>1350</ele>
        <time>2021-07-25T07:18:50Z</time>
      </trkpt>
      <trkpt lat="44.75665" lon="5.59987">
        <ele>1356</ele>
        <time>2021-07-25T07:18:50Z</time>
      </trkpt>
      <trkpt lat="44.75658" lon="5.5998">
        <ele>1355</ele>
        <time>2021-07-25T07:18:51Z</time>
      </trkpt>
      <trkpt lat="44.75615" lon="5.59868">
        <ele>1350</ele>
        <time>2021-07-25T07:18:52Z</time>
      </trkpt>
      <trkpt lat="44.75651" lon="5.59972">
        <ele>1354</ele>
        <time>2021-07-25T07:18:52Z</time>
      </trkpt>
      <trkpt lat="44.75646" lon="5.59964">
        <ele>1354</ele>
        <time>2021-07-25T07:18:53Z</time>
      </trkpt>
      <trkpt lat="44.75606" lon="5.59854">
        <ele>1350</ele>
        <time>2021-07-25T07:18:54Z</time>
      </trkpt>
      <trkpt lat="44.75642" lon="5.59954">
        <ele>1353</ele>
        <time>2021-07-25T07:18:54Z</time>
      </trkpt>
      <trkpt lat="44.75601" lon="5.59846">
        <ele>1348</ele>
        <time>2021-07-25T07:18:55Z</time>
      </trkpt>
      <trkpt lat="44.75595" lon="5.59839">
        <ele>1348</ele>
        <time>2021-07-25T07:18:56Z</time>
      </trkpt>
      <trkpt lat="44.75638" lon="5.59937">
        <ele>1351</ele>
        <time>2021-07-25T07:18:56Z</time>
      </trkpt>
      <trkpt lat="44.75638" lon="5.59937">
        <ele>1351</ele>
        <time>2021-07-25T07:18:57Z</time>
      </trkpt>
      <trkpt lat="44.75581" lon="5.59823">
        <ele>1348</ele>
        <time>2021-07-25T07:18:58Z</time>
      </trkpt>
      <trkpt lat="44.75572" lon="5.59801">
        <ele>1348</ele>
        <time>2021-07-25T07:19:00Z</time>
      </trkpt>
      <trkpt lat="44.75571" lon="5.59787">
        <ele>1348</ele>
        <time>2021-07-25T07:19:01Z</time>
      </trkpt>
      <trkpt lat="44.75572" lon="5.59773">
        <ele>1348</ele>
        <time>2021-07-25T07:19:02Z</time>
      </trkpt>
      <trkpt lat="44.75575" lon="5.59759">
        <ele>1348</ele>
        <time>2021-07-25T07:19:03Z</time>
      </trkpt>
      <trkpt lat="44.75578" lon="5.59746">
        <ele>1348</ele>
        <time>2021-07-25T07:19:04Z</time>
      </trkpt>
      <trkpt lat="44.75581" lon="5.59732">
        <ele>1344</ele>
        <time>2021-07-25T07:19:05Z</time>
      </trkpt>
      <trkpt lat="44.75584" lon="5.59718">
        <ele>1344</ele>
        <time>2021-07-25T07:19:06Z</time>
      </trkpt>
      <trkpt lat="44.75587" lon="5.59704">
        <ele>1344</ele>
        <time>2021-07-25T07:19:07Z</time>
      </trkpt>
      <trkpt lat="44.75589" lon="5.5969">
        <ele>1344</ele>
        <time>2021-07-25T07:19:08Z</time>
      </trkpt>
      <trkpt lat="44.75591" lon="5.59676">
        <ele>1344</ele>
        <time>2021-07-25T07:19:09Z</time>
      </trkpt>
      <trkpt lat="44.75593" lon="5.59661">
        <ele>1340</ele>
        <time>2021-07-25T07:19:10Z</time>
      </trkpt>
      <trkpt lat="44.75594" lon="5.59645">
        <ele>1340</ele>
        <time>2021-07-25T07:19:11Z</time>
      </trkpt>
      <trkpt lat="44.75593" lon="5.5963">
        <ele>1340</ele>
        <time>2021-07-25T07:19:12Z</time>
      </trkpt>
      <trkpt lat="44.75592" lon="5.59615">
        <ele>1340</ele>
        <time>2021-07-25T07:19:13Z</time>
      </trkpt>
      <trkpt lat="44.75589" lon="5.596">
        <ele>1340</ele>
        <time>2021-07-25T07:19:14Z</time>
      </trkpt>
      <trkpt lat="44.75585" lon="5.59586">
        <ele>1337</ele>
        <time>2021-07-25T07:19:15Z</time>
      </trkpt>
      <trkpt lat="44.7558" lon="5.59571">
        <ele>1336</ele>
        <time>2021-07-25T07:19:16Z</time>
      </trkpt>
      <trkpt lat="44.75575" lon="5.59557">
        <ele>1336</ele>
        <time>2021-07-25T07:19:17Z</time>
      </trkpt>
      <trkpt lat="44.7557" lon="5.59543">
        <ele>1336</ele>
        <time>2021-07-25T07:19:18Z</time>
      </trkpt>
      <trkpt lat="44.75565" lon="5.59529">
        <ele>1336</ele>
        <time>2021-07-25T07:19:19Z</time>
      </trkpt>
      <trkpt lat="44.75559" lon="5.59516">
        <ele>1333</ele>
        <time>2021-07-25T07:19:20Z</time>
      </trkpt>
      <trkpt lat="44.75553" lon="5.59502">
        <ele>1332</ele>
        <time>2021-07-25T07:19:21Z</time>
      </trkpt>
      <trkpt lat="44.75547" lon="5.5949">
        <ele>1333</ele>
        <time>2021-07-25T07:19:22Z</time>
      </trkpt>
      <trkpt lat="44.75539" lon="5.59479">
        <ele>1333</ele>
        <time>2021-07-25T07:19:23Z</time>
      </trkpt>
      <trkpt lat="44.7553" lon="5.59469">
        <ele>1332</ele>
        <time>2021-07-25T07:19:24Z</time>
      </trkpt>
      <trkpt lat="44.7552" lon="5.5946">
        <ele>1332</ele>
        <time>2021-07-25T07:19:25Z</time>
      </trkpt>
      <trkpt lat="44.7551" lon="5.59452">
        <ele>1332</ele>
        <time>2021-07-25T07:19:26Z</time>
      </trkpt>
      <trkpt lat="44.75502" lon="5.59442">
        <ele>1331</ele>
        <time>2021-07-25T07:19:27Z</time>
      </trkpt>
      <trkpt lat="44.75494" lon="5.59431">
        <ele>1330</ele>
        <time>2021-07-25T07:19:28Z</time>
      </trkpt>
      <trkpt lat="44.75487" lon="5.59418">
        <ele>1329</ele>
        <time>2021-07-25T07:19:29Z</time>
      </trkpt>
      <trkpt lat="44.75482" lon="5.59404">
        <ele>1328</ele>
        <time>2021-07-25T07:19:30Z</time>
      </trkpt>
      <trkpt lat="44.75477" lon="5.5939">
        <ele>1328</ele>
        <time>2021-07-25T07:19:31Z</time>
      </trkpt>
      <trkpt lat="44.75474" lon="5.59375">
        <ele>1328</ele>
        <time>2021-07-25T07:19:32Z</time>
      </trkpt>
      <trkpt lat="44.75472" lon="5.5936">
        <ele>1327</ele>
        <time>2021-07-25T07:19:33Z</time>
      </trkpt>
      <trkpt lat="44.75473" lon="5.59344">
        <ele>1327</ele>
        <time>2021-07-25T07:19:34Z</time>
      </trkpt>
      <trkpt lat="44.75476" lon="5.59328">
        <ele>1327</ele>
        <time>2021-07-25T07:19:35Z</time>
      </trkpt>
      <trkpt lat="44.75481" lon="5.59314">
        <ele>1326</ele>
        <time>2021-07-25T07:19:36Z</time>
      </trkpt>
      <trkpt lat="44.75488" lon="5.59302">
        <ele>1326</ele>
        <time>2021-07-25T07:19:37Z</time>
      </trkpt>
      <trkpt lat="44.75496" lon="5.5929">
        <ele>1324</ele>
        <time>2021-07-25T07:19:38Z</time>
      </trkpt>
      <trkpt lat="44.75501" lon="5.59275">
        <ele>1322</ele>
        <time>2021-07-25T07:19:39Z</time>
      </trkpt>
      <trkpt lat="44.75503" lon="5.5926">
        <ele>1323</ele>
        <time>2021-07-25T07:19:40Z</time>
      </trkpt>
      <trkpt lat="44.75503" lon="5.59244">
        <ele>1323</ele>
        <time>2021-07-25T07:19:41Z</time>
      </trkpt>
      <trkpt lat="44.75499" lon="5.59228">
        <ele>1322</ele>
        <time>2021-07-25T07:19:42Z</time>
      </trkpt>
      <trkpt lat="44.75494" lon="5.59213">
        <ele>1322</ele>
        <time>2021-07-25T07:19:43Z</time>
      </trkpt>
      <trkpt lat="44.75488" lon="5.592">
        <ele>1321</ele>
        <time>2021-07-25T07:19:43Z</time>
      </trkpt>
      <trkpt lat="44.75481" lon="5.59187">
        <ele>1320</ele>
        <time>2021-07-25T07:19:45Z</time>
      </trkpt>
      <trkpt lat="44.75473" lon="5.59176">
        <ele>1319</ele>
        <time>2021-07-25T07:19:46Z</time>
      </trkpt>
      <trkpt lat="44.75466" lon="5.59164">
        <ele>1320</ele>
        <time>2021-07-25T07:19:47Z</time>
      </trkpt>
      <trkpt lat="44.75461" lon="5.5915">
        <ele>1320</ele>
        <time>2021-07-25T07:19:48Z</time>
      </trkpt>
      <trkpt lat="44.75458" lon="5.59136">
        <ele>1318</ele>
        <time>2021-07-25T07:19:49Z</time>
      </trkpt>
      <trkpt lat="44.75456" lon="5.5912">
        <ele>1317</ele>
        <time>2021-07-25T07:19:50Z</time>
      </trkpt>
      <trkpt lat="44.75457" lon="5.59105">
        <ele>1317</ele>
        <time>2021-07-25T07:19:51Z</time>
      </trkpt>
      <trkpt lat="44.75457" lon="5.59089">
        <ele>1316</ele>
        <time>2021-07-25T07:19:52Z</time>
      </trkpt>
      <trkpt lat="44.75458" lon="5.59074">
        <ele>1316</ele>
        <time>2021-07-25T07:19:53Z</time>
      </trkpt>
      <trkpt lat="44.75458" lon="5.59058">
        <ele>1315</ele>
        <time>2021-07-25T07:19:54Z</time>
      </trkpt>
      <trkpt lat="44.75457" lon="5.59042">
        <ele>1314</ele>
        <time>2021-07-25T07:19:55Z</time>
      </trkpt>
      <trkpt lat="44.75456" lon="5.59026">
        <ele>1314</ele>
        <time>2021-07-25T07:19:56Z</time>
      </trkpt>
      <trkpt lat="44.75454" lon="5.5901">
        <ele>1314</ele>
        <time>2021-07-25T07:19:57Z</time>
      </trkpt>
      <trkpt lat="44.75454" lon="5.58994">
        <ele>1314</ele>
        <time>2021-07-25T07:19:58Z</time>
      </trkpt>
      <trkpt lat="44.75455" lon="5.58977">
        <ele>1313</ele>
        <time>2021-07-25T07:19:59Z</time>
      </trkpt>
      <trkpt lat="44.75458" lon="5.58961">
        <ele>1313</ele>
        <time>2021-07-25T07:20:00Z</time>
      </trkpt>
      <trkpt lat="44.75462" lon="5.58945">
        <ele>1312</ele>
        <time>2021-07-25T07:20:01Z</time>
      </trkpt>
      <trkpt lat="44.75466" lon="5.5893">
        <ele>1311</ele>
        <time>2021-07-25T07:20:02Z</time>
      </trkpt>
      <trkpt lat="44.7547" lon="5.58914">
        <ele>1310</ele>
        <time>2021-07-25T07:20:03Z</time>
      </trkpt>
      <trkpt lat="44.75474" lon="5.58899">
        <ele>1310</ele>
        <time>2021-07-25T07:20:04Z</time>
      </trkpt>
      <trkpt lat="44.75478" lon="5.58873">
        <ele>1308</ele>
        <time>2021-07-25T07:20:06Z</time>
      </trkpt>
      <trkpt lat="44.7547" lon="5.58853">
        <ele>1307</ele>
        <time>2021-07-25T07:20:08Z</time>
      </trkpt>
      <trkpt lat="44.75453" lon="5.58852">
        <ele>1306</ele>
        <time>2021-07-25T07:20:10Z</time>
      </trkpt>
      <trkpt lat="44.75442" lon="5.58855">
        <ele>1306</ele>
        <time>2021-07-25T07:20:11Z</time>
      </trkpt>
      <trkpt lat="44.75431" lon="5.58863">
        <ele>1305</ele>
        <time>2021-07-25T07:20:12Z</time>
      </trkpt>
      <trkpt lat="44.75421" lon="5.58873">
        <ele>1304</ele>
        <time>2021-07-25T07:20:13Z</time>
      </trkpt>
      <trkpt lat="44.75412" lon="5.58884">
        <ele>1304</ele>
        <time>2021-07-25T07:20:14Z</time>
      </trkpt>
      <trkpt lat="44.75402" lon="5.58892">
        <ele>1303</ele>
        <time>2021-07-25T07:20:15Z</time>
      </trkpt>
      <trkpt lat="44.75392" lon="5.58898">
        <ele>1303</ele>
        <time>2021-07-25T07:20:16Z</time>
      </trkpt>
      <trkpt lat="44.75382" lon="5.58906">
        <ele>1302</ele>
        <time>2021-07-25T07:20:17Z</time>
      </trkpt>
      <trkpt lat="44.75372" lon="5.58915">
        <ele>1302</ele>
        <time>2021-07-25T07:20:18Z</time>
      </trkpt>
      <trkpt lat="44.75363" lon="5.58925">
        <ele>1302</ele>
        <time>2021-07-25T07:20:19Z</time>
      </trkpt>
      <trkpt lat="44.75353" lon="5.58935">
        <ele>1300</ele>
        <time>2021-07-25T07:20:20Z</time>
      </trkpt>
      <trkpt lat="44.75344" lon="5.58945">
        <ele>1299</ele>
        <time>2021-07-25T07:20:21Z</time>
      </trkpt>
      <trkpt lat="44.75335" lon="5.58955">
        <ele>1299</ele>
        <time>2021-07-25T07:20:22Z</time>
      </trkpt>
      <trkpt lat="44.75326" lon="5.58966">
        <ele>1298</ele>
        <time>2021-07-25T07:20:23Z</time>
      </trkpt>
      <trkpt lat="44.75317" lon="5.58976">
        <ele>1298</ele>
        <time>2021-07-25T07:20:24Z</time>
      </trkpt>
      <trkpt lat="44.75307" lon="5.58985">
        <ele>1298</ele>
        <time>2021-07-25T07:20:25Z</time>
      </trkpt>
      <trkpt lat="44.75298" lon="5.58993">
        <ele>1297</ele>
        <time>2021-07-25T07:20:26Z</time>
      </trkpt>
      <trkpt lat="44.75287" lon="5.58997">
        <ele>1296</ele>
        <time>2021-07-25T07:20:27Z</time>
      </trkpt>
      <trkpt lat="44.75276" lon="5.58995">
        <ele>1295</ele>
        <time>2021-07-25T07:20:28Z</time>
      </trkpt>
      <trkpt lat="44.75264" lon="5.58987">
        <ele>1294</ele>
        <time>2021-07-25T07:20:29Z</time>
      </trkpt>
      <trkpt lat="44.75255" lon="5.58975">
        <ele>1293</ele>
        <time>2021-07-25T07:20:30Z</time>
      </trkpt>
      <trkpt lat="44.75249" lon="5.58961">
        <ele>1293</ele>
        <time>2021-07-25T07:20:31Z</time>
      </trkpt>
      <trkpt lat="44.75243" lon="5.58945">
        <ele>1292</ele>
        <time>2021-07-25T07:20:32Z</time>
      </trkpt>
      <trkpt lat="44.75238" lon="5.5893">
        <ele>1292</ele>
        <time>2021-07-25T07:20:33Z</time>
      </trkpt>
      <trkpt lat="44.75233" lon="5.58916">
        <ele>1290</ele>
        <time>2021-07-25T07:20:34Z</time>
      </trkpt>
      <trkpt lat="44.75227" lon="5.58902">
        <ele>1290</ele>
        <time>2021-07-25T07:20:35Z</time>
      </trkpt>
      <trkpt lat="44.75221" lon="5.58889">
        <ele>1290</ele>
        <time>2021-07-25T07:20:36Z</time>
      </trkpt>
      <trkpt lat="44.75214" lon="5.58876">
        <ele>1289</ele>
        <time>2021-07-25T07:20:37Z</time>
      </trkpt>
      <trkpt lat="44.75207" lon="5.58863">
        <ele>1289</ele>
        <time>2021-07-25T07:20:38Z</time>
      </trkpt>
      <trkpt lat="44.75201" lon="5.58849">
        <ele>1289</ele>
        <time>2021-07-25T07:20:39Z</time>
      </trkpt>
      <trkpt lat="44.75194" lon="5.58836">
        <ele>1288</ele>
        <time>2021-07-25T07:20:40Z</time>
      </trkpt>
      <trkpt lat="44.75188" lon="5.58823">
        <ele>1287</ele>
        <time>2021-07-25T07:20:41Z</time>
      </trkpt>
      <trkpt lat="44.7518" lon="5.5881">
        <ele>1286</ele>
        <time>2021-07-25T07:20:42Z</time>
      </trkpt>
      <trkpt lat="44.75173" lon="5.58798">
        <ele>1286</ele>
        <time>2021-07-25T07:20:43Z</time>
      </trkpt>
      <trkpt lat="44.75165" lon="5.58785">
        <ele>1285</ele>
        <time>2021-07-25T07:20:44Z</time>
      </trkpt>
      <trkpt lat="44.75157" lon="5.58773">
        <ele>1284</ele>
        <time>2021-07-25T07:20:45Z</time>
      </trkpt>
      <trkpt lat="44.75149" lon="5.58761">
        <ele>1284</ele>
        <time>2021-07-25T07:20:46Z</time>
      </trkpt>
      <trkpt lat="44.75141" lon="5.58749">
        <ele>1283</ele>
        <time>2021-07-25T07:20:47Z</time>
      </trkpt>
      <trkpt lat="44.75132" lon="5.58738">
        <ele>1282</ele>
        <time>2021-07-25T07:20:48Z</time>
      </trkpt>
      <trkpt lat="44.75123" lon="5.58728">
        <ele>1281</ele>
        <time>2021-07-25T07:20:49Z</time>
      </trkpt>
      <trkpt lat="44.75113" lon="5.58718">
        <ele>1280</ele>
        <time>2021-07-25T07:20:50Z</time>
      </trkpt>
      <trkpt lat="44.75103" lon="5.58709">
        <ele>1280</ele>
        <time>2021-07-25T07:20:51Z</time>
      </trkpt>
      <trkpt lat="44.75093" lon="5.587">
        <ele>1280</ele>
        <time>2021-07-25T07:20:52Z</time>
      </trkpt>
      <trkpt lat="44.75083" lon="5.58691">
        <ele>1279</ele>
        <time>2021-07-25T07:20:53Z</time>
      </trkpt>
      <trkpt lat="44.75073" lon="5.5868">
        <ele>1279</ele>
        <time>2021-07-25T07:20:54Z</time>
      </trkpt>
      <trkpt lat="44.75065" lon="5.58668">
        <ele>1278</ele>
        <time>2021-07-25T07:20:55Z</time>
      </trkpt>
      <trkpt lat="44.75058" lon="5.58655">
        <ele>1277</ele>
        <time>2021-07-25T07:20:56Z</time>
      </trkpt>
      <trkpt lat="44.75052" lon="5.58642">
        <ele>1275</ele>
        <time>2021-07-25T07:20:57Z</time>
      </trkpt>
      <trkpt lat="44.75046" lon="5.58619">
        <ele>1274</ele>
        <time>2021-07-25T07:20:59Z</time>
      </trkpt>
      <trkpt lat="44.75039" lon="5.58605">
        <ele>1273</ele>
        <time>2021-07-25T07:21:01Z</time>
      </trkpt>
      <trkpt lat="44.75028" lon="5.5862">
        <ele>1272</ele>
        <time>2021-07-25T07:22:09Z</time>
      </trkpt>
      <trkpt lat="44.75035" lon="5.58643">
        <ele>1272</ele>
        <time>2021-07-25T07:22:11Z</time>
      </trkpt>
      <trkpt lat="44.75044" lon="5.58662">
        <ele>1272</ele>
        <time>2021-07-25T07:22:13Z</time>
      </trkpt>
      <trkpt lat="44.75053" lon="5.58684">
        <ele>1272</ele>
        <time>2021-07-25T07:22:15Z</time>
      </trkpt>
      <trkpt lat="44.75063" lon="5.58707">
        <ele>1271</ele>
        <time>2021-07-25T07:22:17Z</time>
      </trkpt>
      <trkpt lat="44.75068" lon="5.58719">
        <ele>1271</ele>
        <time>2021-07-25T07:22:18Z</time>
      </trkpt>
      <trkpt lat="44.75075" lon="5.5873">
        <ele>1270</ele>
        <time>2021-07-25T07:22:19Z</time>
      </trkpt>
      <trkpt lat="44.75082" lon="5.5874">
        <ele>1269</ele>
        <time>2021-07-25T07:22:20Z</time>
      </trkpt>
      <trkpt lat="44.7509" lon="5.58751">
        <ele>1269</ele>
        <time>2021-07-25T07:22:21Z</time>
      </trkpt>
      <trkpt lat="44.75097" lon="5.58761">
        <ele>1269</ele>
        <time>2021-07-25T07:22:22Z</time>
      </trkpt>
      <trkpt lat="44.75105" lon="5.58773">
        <ele>1269</ele>
        <time>2021-07-25T07:22:23Z</time>
      </trkpt>
      <trkpt lat="44.75112" lon="5.58785">
        <ele>1269</ele>
        <time>2021-07-25T07:22:24Z</time>
      </trkpt>
      <trkpt lat="44.7512" lon="5.58797">
        <ele>1267</ele>
        <time>2021-07-25T07:22:25Z</time>
      </trkpt>
      <trkpt lat="44.75127" lon="5.5881">
        <ele>1267</ele>
        <time>2021-07-25T07:22:26Z</time>
      </trkpt>
      <trkpt lat="44.75134" lon="5.58824">
        <ele>1267</ele>
        <time>2021-07-25T07:22:27Z</time>
      </trkpt>
      <trkpt lat="44.75141" lon="5.58838">
        <ele>1267</ele>
        <time>2021-07-25T07:22:28Z</time>
      </trkpt>
      <trkpt lat="44.75148" lon="5.58853">
        <ele>1267</ele>
        <time>2021-07-25T07:22:29Z</time>
      </trkpt>
      <trkpt lat="44.75154" lon="5.58868">
        <ele>1263</ele>
        <time>2021-07-25T07:22:30Z</time>
      </trkpt>
      <trkpt lat="44.75161" lon="5.58883">
        <ele>1262</ele>
        <time>2021-07-25T07:22:31Z</time>
      </trkpt>
      <trkpt lat="44.75167" lon="5.58898">
        <ele>1261</ele>
        <time>2021-07-25T07:22:32Z</time>
      </trkpt>
      <trkpt lat="44.75173" lon="5.58913">
        <ele>1261</ele>
        <time>2021-07-25T07:22:33Z</time>
      </trkpt>
      <trkpt lat="44.75178" lon="5.58928">
        <ele>1261</ele>
        <time>2021-07-25T07:22:34Z</time>
      </trkpt>
      <trkpt lat="44.75183" lon="5.58944">
        <ele>1261</ele>
        <time>2021-07-25T07:22:35Z</time>
      </trkpt>
      <trkpt lat="44.75187" lon="5.58961">
        <ele>1259</ele>
        <time>2021-07-25T07:22:36Z</time>
      </trkpt>
      <trkpt lat="44.75192" lon="5.58977">
        <ele>1258</ele>
        <time>2021-07-25T07:22:37Z</time>
      </trkpt>
      <trkpt lat="44.75197" lon="5.58994">
        <ele>1257</ele>
        <time>2021-07-25T07:22:38Z</time>
      </trkpt>
      <trkpt lat="44.75201" lon="5.5901">
        <ele>1256</ele>
        <time>2021-07-25T07:22:39Z</time>
      </trkpt>
      <trkpt lat="44.75206" lon="5.59027">
        <ele>1257</ele>
        <time>2021-07-25T07:22:40Z</time>
      </trkpt>
      <trkpt lat="44.7521" lon="5.59044">
        <ele>1256</ele>
        <time>2021-07-25T07:22:41Z</time>
      </trkpt>
      <trkpt lat="44.75214" lon="5.59059">
        <ele>1255</ele>
        <time>2021-07-25T07:22:42Z</time>
      </trkpt>
      <trkpt lat="44.75218" lon="5.59074">
        <ele>1254</ele>
        <time>2021-07-25T07:22:43Z</time>
      </trkpt>
      <trkpt lat="44.75222" lon="5.59087">
        <ele>1253</ele>
        <time>2021-07-25T07:22:44Z</time>
      </trkpt>
      <trkpt lat="44.75234" lon="5.59107">
        <ele>1252</ele>
        <time>2021-07-25T07:22:46Z</time>
      </trkpt>
      <trkpt lat="44.75251" lon="5.59113">
        <ele>1250</ele>
        <time>2021-07-25T07:22:48Z</time>
      </trkpt>
      <trkpt lat="44.75264" lon="5.59107">
        <ele>1249</ele>
        <time>2021-07-25T07:22:49Z</time>
      </trkpt>
      <trkpt lat="44.75276" lon="5.59101">
        <ele>1249</ele>
        <time>2021-07-25T07:22:50Z</time>
      </trkpt>
      <trkpt lat="44.75287" lon="5.59096">
        <ele>1249</ele>
        <time>2021-07-25T07:22:51Z</time>
      </trkpt>
      <trkpt lat="44.75298" lon="5.59092">
        <ele>1249</ele>
        <time>2021-07-25T07:22:52Z</time>
      </trkpt>
      <trkpt lat="44.75308" lon="5.5909">
        <ele>1248</ele>
        <time>2021-07-25T07:22:53Z</time>
      </trkpt>
      <trkpt lat="44.75319" lon="5.59087">
        <ele>1248</ele>
        <time>2021-07-25T07:22:54Z</time>
      </trkpt>
      <trkpt lat="44.75336" lon="5.59084">
        <ele>1245</ele>
        <time>2021-07-25T07:22:56Z</time>
      </trkpt>
      <trkpt lat="44.7535" lon="5.59089">
        <ele>1244</ele>
        <time>2021-07-25T07:22:58Z</time>
      </trkpt>
      <trkpt lat="44.75341" lon="5.59102">
        <ele>1244</ele>
        <time>2021-07-25T07:23:01Z</time>
      </trkpt>
      <trkpt lat="44.75324" lon="5.59102">
        <ele>1243</ele>
        <time>2021-07-25T07:23:03Z</time>
      </trkpt>
      <trkpt lat="44.75307" lon="5.591">
        <ele>1243</ele>
        <time>2021-07-25T07:23:05Z</time>
      </trkpt>
      <trkpt lat="44.75289" lon="5.59106">
        <ele>1242</ele>
        <time>2021-07-25T07:23:07Z</time>
      </trkpt>
      <trkpt lat="44.75271" lon="5.59118">
        <ele>1240</ele>
        <time>2021-07-25T07:23:09Z</time>
      </trkpt>
      <trkpt lat="44.75254" lon="5.5913">
        <ele>1240</ele>
        <time>2021-07-25T07:23:11Z</time>
      </trkpt>
      <trkpt lat="44.75243" lon="5.59132">
        <ele>1240</ele>
        <time>2021-07-25T07:23:12Z</time>
      </trkpt>
      <trkpt lat="44.75233" lon="5.59131">
        <ele>1240</ele>
        <time>2021-07-25T07:23:13Z</time>
      </trkpt>
      <trkpt lat="44.75222" lon="5.59126">
        <ele>1240</ele>
        <time>2021-07-25T07:23:14Z</time>
      </trkpt>
      <trkpt lat="44.75211" lon="5.59119">
        <ele>1238</ele>
        <time>2021-07-25T07:23:15Z</time>
      </trkpt>
      <trkpt lat="44.75203" lon="5.5911">
        <ele>1238</ele>
        <time>2021-07-25T07:23:16Z</time>
      </trkpt>
      <trkpt lat="44.75195" lon="5.59099">
        <ele>1238</ele>
        <time>2021-07-25T07:23:17Z</time>
      </trkpt>
      <trkpt lat="44.75189" lon="5.59084">
        <ele>1238</ele>
        <time>2021-07-25T07:23:18Z</time>
      </trkpt>
      <trkpt lat="44.7518" lon="5.59072">
        <ele>1238</ele>
        <time>2021-07-25T07:23:19Z</time>
      </trkpt>
      <trkpt lat="44.75171" lon="5.59061">
        <ele>1235</ele>
        <time>2021-07-25T07:23:20Z</time>
      </trkpt>
      <trkpt lat="44.75163" lon="5.59051">
        <ele>1235</ele>
        <time>2021-07-25T07:23:21Z</time>
      </trkpt>
      <trkpt lat="44.75155" lon="5.5904">
        <ele>1235</ele>
        <time>2021-07-25T07:23:22Z</time>
      </trkpt>
      <trkpt lat="44.75148" lon="5.59027">
        <ele>1235</ele>
        <time>2021-07-25T07:23:23Z</time>
      </trkpt>
      <trkpt lat="44.75142" lon="5.59013">
        <ele>1235</ele>
        <time>2021-07-25T07:23:24Z</time>
      </trkpt>
      <trkpt lat="44.75136" lon="5.58999">
        <ele>1233</ele>
        <time>2021-07-25T07:23:25Z</time>
      </trkpt>
      <trkpt lat="44.75129" lon="5.58986">
        <ele>1233</ele>
        <time>2021-07-25T07:23:26Z</time>
      </trkpt>
      <trkpt lat="44.75122" lon="5.58974">
        <ele>1233</ele>
        <time>2021-07-25T07:23:27Z</time>
      </trkpt>
      <trkpt lat="44.75113" lon="5.58963">
        <ele>1233</ele>
        <time>2021-07-25T07:23:28Z</time>
      </trkpt>
      <trkpt lat="44.75104" lon="5.58954">
        <ele>1233</ele>
        <time>2021-07-25T07:23:29Z</time>
      </trkpt>
      <trkpt lat="44.75095" lon="5.58948">
        <ele>1230</ele>
        <time>2021-07-25T07:23:30Z</time>
      </trkpt>
      <trkpt lat="44.75079" lon="5.58947">
        <ele>1227</ele>
        <time>2021-07-25T07:23:32Z</time>
      </trkpt>
      <trkpt lat="44.75073" lon="5.58966">
        <ele>1226</ele>
        <time>2021-07-25T07:23:34Z</time>
      </trkpt>
      <trkpt lat="44.75061" lon="5.58981">
        <ele>1226</ele>
        <time>2021-07-25T07:23:36Z</time>
      </trkpt>
      <trkpt lat="44.75041" lon="5.58979">
        <ele>1225</ele>
        <time>2021-07-25T07:23:38Z</time>
      </trkpt>
      <trkpt lat="44.75031" lon="5.58972">
        <ele>1224</ele>
        <time>2021-07-25T07:23:39Z</time>
      </trkpt>
      <trkpt lat="44.75022" lon="5.58964">
        <ele>1223</ele>
        <time>2021-07-25T07:23:40Z</time>
      </trkpt>
      <trkpt lat="44.75013" lon="5.58955">
        <ele>1223</ele>
        <time>2021-07-25T07:23:41Z</time>
      </trkpt>
      <trkpt lat="44.75006" lon="5.58944">
        <ele>1223</ele>
        <time>2021-07-25T07:23:42Z</time>
      </trkpt>
      <trkpt lat="44.74998" lon="5.58935">
        <ele>1223</ele>
        <time>2021-07-25T07:23:43Z</time>
      </trkpt>
      <trkpt lat="44.7499" lon="5.58924">
        <ele>1222</ele>
        <time>2021-07-25T07:23:44Z</time>
      </trkpt>
      <trkpt lat="44.74982" lon="5.58914">
        <ele>1221</ele>
        <time>2021-07-25T07:23:45Z</time>
      </trkpt>
      <trkpt lat="44.74973" lon="5.58904">
        <ele>1221</ele>
        <time>2021-07-25T07:23:46Z</time>
      </trkpt>
      <trkpt lat="44.74964" lon="5.58894">
        <ele>1220</ele>
        <time>2021-07-25T07:23:47Z</time>
      </trkpt>
      <trkpt lat="44.74956" lon="5.58883">
        <ele>1219</ele>
        <time>2021-07-25T07:23:48Z</time>
      </trkpt>
      <trkpt lat="44.74948" lon="5.58872">
        <ele>1218</ele>
        <time>2021-07-25T07:23:49Z</time>
      </trkpt>
      <trkpt lat="44.74942" lon="5.58859">
        <ele>1218</ele>
        <time>2021-07-25T07:23:50Z</time>
      </trkpt>
      <trkpt lat="44.74936" lon="5.58847">
        <ele>1218</ele>
        <time>2021-07-25T07:23:51Z</time>
      </trkpt>
      <trkpt lat="44.74931" lon="5.58834">
        <ele>1218</ele>
        <time>2021-07-25T07:23:52Z</time>
      </trkpt>
      <trkpt lat="44.74929" lon="5.5882">
        <ele>1218</ele>
        <time>2021-07-25T07:23:53Z</time>
      </trkpt>
      <trkpt lat="44.74929" lon="5.58804">
        <ele>1218</ele>
        <time>2021-07-25T07:23:54Z</time>
      </trkpt>
      <trkpt lat="44.74931" lon="5.58789">
        <ele>1217</ele>
        <time>2021-07-25T07:23:55Z</time>
      </trkpt>
      <trkpt lat="44.74933" lon="5.58774">
        <ele>1217</ele>
        <time>2021-07-25T07:23:56Z</time>
      </trkpt>
      <trkpt lat="44.74933" lon="5.58759">
        <ele>1217</ele>
        <time>2021-07-25T07:23:57Z</time>
      </trkpt>
      <trkpt lat="44.74932" lon="5.58745">
        <ele>1217</ele>
        <time>2021-07-25T07:23:58Z</time>
      </trkpt>
      <trkpt lat="44.74931" lon="5.5873">
        <ele>1217</ele>
        <time>2021-07-25T07:23:59Z</time>
      </trkpt>
      <trkpt lat="44.74928" lon="5.58714">
        <ele>1211</ele>
        <time>2021-07-25T07:24:00Z</time>
      </trkpt>
      <trkpt lat="44.74925" lon="5.58699">
        <ele>1211</ele>
        <time>2021-07-25T07:24:01Z</time>
      </trkpt>
      <trkpt lat="44.74922" lon="5.58683">
        <ele>1211</ele>
        <time>2021-07-25T07:24:02Z</time>
      </trkpt>
      <trkpt lat="44.7492" lon="5.58667">
        <ele>1210</ele>
        <time>2021-07-25T07:24:03Z</time>
      </trkpt>
      <trkpt lat="44.74918" lon="5.58652">
        <ele>1210</ele>
        <time>2021-07-25T07:24:04Z</time>
      </trkpt>
      <trkpt lat="44.74916" lon="5.58636">
        <ele>1209</ele>
        <time>2021-07-25T07:24:05Z</time>
      </trkpt>
      <trkpt lat="44.74914" lon="5.5862">
        <ele>1208</ele>
        <time>2021-07-25T07:24:06Z</time>
      </trkpt>
      <trkpt lat="44.74912" lon="5.58603">
        <ele>1208</ele>
        <time>2021-07-25T07:24:07Z</time>
      </trkpt>
      <trkpt lat="44.74909" lon="5.58588">
        <ele>1208</ele>
        <time>2021-07-25T07:24:08Z</time>
      </trkpt>
      <trkpt lat="44.74907" lon="5.58572">
        <ele>1207</ele>
        <time>2021-07-25T07:24:09Z</time>
      </trkpt>
      <trkpt lat="44.74904" lon="5.58556">
        <ele>1206</ele>
        <time>2021-07-25T07:24:10Z</time>
      </trkpt>
      <trkpt lat="44.74903" lon="5.5854">
        <ele>1206</ele>
        <time>2021-07-25T07:24:11Z</time>
      </trkpt>
      <trkpt lat="44.74901" lon="5.58523">
        <ele>1205</ele>
        <time>2021-07-25T07:24:12Z</time>
      </trkpt>
      <trkpt lat="44.74901" lon="5.58506">
        <ele>1204</ele>
        <time>2021-07-25T07:24:13Z</time>
      </trkpt>
      <trkpt lat="44.74901" lon="5.5849">
        <ele>1203</ele>
        <time>2021-07-25T07:24:14Z</time>
      </trkpt>
      <trkpt lat="44.74902" lon="5.58473">
        <ele>1203</ele>
        <time>2021-07-25T07:24:15Z</time>
      </trkpt>
      <trkpt lat="44.74903" lon="5.58456">
        <ele>1202</ele>
        <time>2021-07-25T07:24:16Z</time>
      </trkpt>
      <trkpt lat="44.74905" lon="5.5844">
        <ele>1201</ele>
        <time>2021-07-25T07:24:17Z</time>
      </trkpt>
      <trkpt lat="44.74907" lon="5.58423">
        <ele>1200</ele>
        <time>2021-07-25T07:24:18Z</time>
      </trkpt>
      <trkpt lat="44.74907" lon="5.58406">
        <ele>1199</ele>
        <time>2021-07-25T07:24:19Z</time>
      </trkpt>
      <trkpt lat="44.74906" lon="5.5839">
        <ele>1199</ele>
        <time>2021-07-25T07:24:20Z</time>
      </trkpt>
      <trkpt lat="44.74905" lon="5.58373">
        <ele>1199</ele>
        <time>2021-07-25T07:24:21Z</time>
      </trkpt>
      <trkpt lat="44.74903" lon="5.58357">
        <ele>1199</ele>
        <time>2021-07-25T07:24:22Z</time>
      </trkpt>
      <trkpt lat="44.749" lon="5.5834">
        <ele>1198</ele>
        <time>2021-07-25T07:24:23Z</time>
      </trkpt>
      <trkpt lat="44.74898" lon="5.58325">
        <ele>1197</ele>
        <time>2021-07-25T07:24:24Z</time>
      </trkpt>
      <trkpt lat="44.74896" lon="5.5831">
        <ele>1197</ele>
        <time>2021-07-25T07:24:25Z</time>
      </trkpt>
      <trkpt lat="44.74897" lon="5.58295">
        <ele>1195</ele>
        <time>2021-07-25T07:24:26Z</time>
      </trkpt>
      <trkpt lat="44.74898" lon="5.58281">
        <ele>1194</ele>
        <time>2021-07-25T07:24:27Z</time>
      </trkpt>
      <trkpt lat="44.749" lon="5.58268">
        <ele>1194</ele>
        <time>2021-07-25T07:24:28Z</time>
      </trkpt>
      <trkpt lat="44.749" lon="5.58257">
        <ele>1193</ele>
        <time>2021-07-25T07:24:29Z</time>
      </trkpt>
      <trkpt lat="44.74893" lon="5.58236">
        <ele>1192</ele>
        <time>2021-07-25T07:24:31Z</time>
      </trkpt>
      <trkpt lat="44.74886" lon="5.58226">
        <ele>1192</ele>
        <time>2021-07-25T07:24:32Z</time>
      </trkpt>
      <trkpt lat="44.7488" lon="5.58215">
        <ele>1192</ele>
        <time>2021-07-25T07:24:33Z</time>
      </trkpt>
      <trkpt lat="44.74875" lon="5.58202">
        <ele>1191</ele>
        <time>2021-07-25T07:24:34Z</time>
      </trkpt>
      <trkpt lat="44.74872" lon="5.58188">
        <ele>1191</ele>
        <time>2021-07-25T07:24:35Z</time>
      </trkpt>
      <trkpt lat="44.74869" lon="5.58174">
        <ele>1190</ele>
        <time>2021-07-25T07:24:36Z</time>
      </trkpt>
      <trkpt lat="44.74867" lon="5.58159">
        <ele>1190</ele>
        <time>2021-07-25T07:24:37Z</time>
      </trkpt>
      <trkpt lat="44.74865" lon="5.58144">
        <ele>1189</ele>
        <time>2021-07-25T07:24:38Z</time>
      </trkpt>
      <trkpt lat="44.74862" lon="5.58129">
        <ele>1189</ele>
        <time>2021-07-25T07:24:39Z</time>
      </trkpt>
      <trkpt lat="44.74859" lon="5.58115">
        <ele>1187</ele>
        <time>2021-07-25T07:24:40Z</time>
      </trkpt>
      <trkpt lat="44.74848" lon="5.58094">
        <ele>1186</ele>
        <time>2021-07-25T07:24:42Z</time>
      </trkpt>
      <trkpt lat="44.74831" lon="5.58086">
        <ele>1184</ele>
        <time>2021-07-25T07:24:44Z</time>
      </trkpt>
      <trkpt lat="44.74813" lon="5.58096">
        <ele>1183</ele>
        <time>2021-07-25T07:24:46Z</time>
      </trkpt>
      <trkpt lat="44.74804" lon="5.58104">
        <ele>1183</ele>
        <time>2021-07-25T07:24:47Z</time>
      </trkpt>
      <trkpt lat="44.74788" lon="5.58113">
        <ele>1182</ele>
        <time>2021-07-25T07:24:49Z</time>
      </trkpt>
      <trkpt lat="44.7477" lon="5.58113">
        <ele>1181</ele>
        <time>2021-07-25T07:24:51Z</time>
      </trkpt>
      <trkpt lat="44.7476" lon="5.58094">
        <ele>1180</ele>
        <time>2021-07-25T07:24:53Z</time>
      </trkpt>
      <trkpt lat="44.74757" lon="5.5808">
        <ele>1179</ele>
        <time>2021-07-25T07:24:54Z</time>
      </trkpt>
      <trkpt lat="44.74755" lon="5.58066">
        <ele>1178</ele>
        <time>2021-07-25T07:24:55Z</time>
      </trkpt>
      <trkpt lat="44.74751" lon="5.58053">
        <ele>1177</ele>
        <time>2021-07-25T07:24:56Z</time>
      </trkpt>
      <trkpt lat="44.74747" lon="5.58039">
        <ele>1177</ele>
        <time>2021-07-25T07:24:57Z</time>
      </trkpt>
      <trkpt lat="44.74741" lon="5.58027">
        <ele>1176</ele>
        <time>2021-07-25T07:24:58Z</time>
      </trkpt>
      <trkpt lat="44.74734" lon="5.58015">
        <ele>1175</ele>
        <time>2021-07-25T07:24:59Z</time>
      </trkpt>
      <trkpt lat="44.74727" lon="5.58004">
        <ele>1175</ele>
        <time>2021-07-25T07:25:00Z</time>
      </trkpt>
      <trkpt lat="44.74719" lon="5.57993">
        <ele>1175</ele>
        <time>2021-07-25T07:25:01Z</time>
      </trkpt>
      <trkpt lat="44.74711" lon="5.57983">
        <ele>1174</ele>
        <time>2021-07-25T07:25:02Z</time>
      </trkpt>
      <trkpt lat="44.74702" lon="5.57972">
        <ele>1172</ele>
        <time>2021-07-25T07:25:03Z</time>
      </trkpt>
      <trkpt lat="44.74694" lon="5.5796">
        <ele>1172</ele>
        <time>2021-07-25T07:25:04Z</time>
      </trkpt>
      <trkpt lat="44.74686" lon="5.57949">
        <ele>1172</ele>
        <time>2021-07-25T07:25:05Z</time>
      </trkpt>
      <trkpt lat="44.74678" lon="5.57938">
        <ele>1172</ele>
        <time>2021-07-25T07:25:06Z</time>
      </trkpt>
      <trkpt lat="44.74669" lon="5.57929">
        <ele>1171</ele>
        <time>2021-07-25T07:25:07Z</time>
      </trkpt>
      <trkpt lat="44.74658" lon="5.57922">
        <ele>1170</ele>
        <time>2021-07-25T07:25:08Z</time>
      </trkpt>
      <trkpt lat="44.74647" lon="5.57917">
        <ele>1170</ele>
        <time>2021-07-25T07:25:09Z</time>
      </trkpt>
      <trkpt lat="44.74635" lon="5.57912">
        <ele>1169</ele>
        <time>2021-07-25T07:25:10Z</time>
      </trkpt>
      <trkpt lat="44.74624" lon="5.57908">
        <ele>1168</ele>
        <time>2021-07-25T07:25:11Z</time>
      </trkpt>
      <trkpt lat="44.74612" lon="5.57905">
        <ele>1167</ele>
        <time>2021-07-25T07:25:12Z</time>
      </trkpt>
      <trkpt lat="44.74601" lon="5.579">
        <ele>1167</ele>
        <time>2021-07-25T07:25:13Z</time>
      </trkpt>
      <trkpt lat="44.74591" lon="5.57894">
        <ele>1166</ele>
        <time>2021-07-25T07:25:14Z</time>
      </trkpt>
      <trkpt lat="44.74581" lon="5.57887">
        <ele>1165</ele>
        <time>2021-07-25T07:25:15Z</time>
      </trkpt>
      <trkpt lat="44.74571" lon="5.5788">
        <ele>1163</ele>
        <time>2021-07-25T07:25:16Z</time>
      </trkpt>
      <trkpt lat="44.74561" lon="5.57873">
        <ele>1163</ele>
        <time>2021-07-25T07:25:17Z</time>
      </trkpt>
      <trkpt lat="44.74551" lon="5.57865">
        <ele>1163</ele>
        <time>2021-07-25T07:25:18Z</time>
      </trkpt>
      <trkpt lat="44.74542" lon="5.57856">
        <ele>1162</ele>
        <time>2021-07-25T07:25:19Z</time>
      </trkpt>
      <trkpt lat="44.74535" lon="5.57847">
        <ele>1161</ele>
        <time>2021-07-25T07:25:20Z</time>
      </trkpt>
      <trkpt lat="44.74528" lon="5.57824">
        <ele>1160</ele>
        <time>2021-07-25T07:25:22Z</time>
      </trkpt>
      <trkpt lat="44.74534" lon="5.57799">
        <ele>1158</ele>
        <time>2021-07-25T07:25:24Z</time>
      </trkpt>
      <trkpt lat="44.7455" lon="5.57784">
        <ele>1157</ele>
        <time>2021-07-25T07:25:26Z</time>
      </trkpt>
      <trkpt lat="44.74561" lon="5.57783">
        <ele>1156</ele>
        <time>2021-07-25T07:25:27Z</time>
      </trkpt>
      <trkpt lat="44.74573" lon="5.57773">
        <ele>1154</ele>
        <time>2021-07-25T07:25:29Z</time>
      </trkpt>
      <trkpt lat="44.7457" lon="5.57758">
        <ele>1154</ele>
        <time>2021-07-25T07:25:31Z</time>
      </trkpt>
      <trkpt lat="44.74554" lon="5.5775">
        <ele>1153</ele>
        <time>2021-07-25T07:25:33Z</time>
      </trkpt>
      <trkpt lat="44.74537" lon="5.57751">
        <ele>1152</ele>
        <time>2021-07-25T07:25:35Z</time>
      </trkpt>
      <trkpt lat="44.74519" lon="5.5776">
        <ele>1151</ele>
        <time>2021-07-25T07:25:37Z</time>
      </trkpt>
      <trkpt lat="44.7451" lon="5.57766">
        <ele>1151</ele>
        <time>2021-07-25T07:25:38Z</time>
      </trkpt>
      <trkpt lat="44.74501" lon="5.57772">
        <ele>1150</ele>
        <time>2021-07-25T07:25:39Z</time>
      </trkpt>
      <trkpt lat="44.74492" lon="5.57778">
        <ele>1149</ele>
        <time>2021-07-25T07:25:40Z</time>
      </trkpt>
      <trkpt lat="44.74474" lon="5.57785">
        <ele>1149</ele>
        <time>2021-07-25T07:25:42Z</time>
      </trkpt>
      <trkpt lat="44.74453" lon="5.57776">
        <ele>1149</ele>
        <time>2021-07-25T07:25:44Z</time>
      </trkpt>
      <trkpt lat="44.74445" lon="5.57766">
        <ele>1147</ele>
        <time>2021-07-25T07:25:45Z</time>
      </trkpt>
      <trkpt lat="44.74438" lon="5.57754">
        <ele>1147</ele>
        <time>2021-07-25T07:25:46Z</time>
      </trkpt>
      <trkpt lat="44.74432" lon="5.57741">
        <ele>1147</ele>
        <time>2021-07-25T07:25:47Z</time>
      </trkpt>
      <trkpt lat="44.74425" lon="5.57728">
        <ele>1147</ele>
        <time>2021-07-25T07:25:48Z</time>
      </trkpt>
      <trkpt lat="44.7442" lon="5.57714">
        <ele>1147</ele>
        <time>2021-07-25T07:25:49Z</time>
      </trkpt>
      <trkpt lat="44.74419" lon="5.577">
        <ele>1144</ele>
        <time>2021-07-25T07:25:50Z</time>
      </trkpt>
      <trkpt lat="44.7442" lon="5.57685">
        <ele>1142</ele>
        <time>2021-07-25T07:25:51Z</time>
      </trkpt>
      <trkpt lat="44.74425" lon="5.57669">
        <ele>1141</ele>
        <time>2021-07-25T07:25:52Z</time>
      </trkpt>
      <trkpt lat="44.7443" lon="5.57654">
        <ele>1140</ele>
        <time>2021-07-25T07:25:53Z</time>
      </trkpt>
      <trkpt lat="44.74436" lon="5.5764">
        <ele>1140</ele>
        <time>2021-07-25T07:25:54Z</time>
      </trkpt>
      <trkpt lat="44.74442" lon="5.57627">
        <ele>1138</ele>
        <time>2021-07-25T07:25:55Z</time>
      </trkpt>
      <trkpt lat="44.74449" lon="5.57614">
        <ele>1137</ele>
        <time>2021-07-25T07:25:56Z</time>
      </trkpt>
      <trkpt lat="44.74456" lon="5.57602">
        <ele>1137</ele>
        <time>2021-07-25T07:25:57Z</time>
      </trkpt>
      <trkpt lat="44.74464" lon="5.5759">
        <ele>1136</ele>
        <time>2021-07-25T07:25:58Z</time>
      </trkpt>
      <trkpt lat="44.74472" lon="5.57579">
        <ele>1136</ele>
        <time>2021-07-25T07:25:59Z</time>
      </trkpt>
      <trkpt lat="44.74481" lon="5.57568">
        <ele>1137</ele>
        <time>2021-07-25T07:26:00Z</time>
      </trkpt>
      <trkpt lat="44.74489" lon="5.57557">
        <ele>1136</ele>
        <time>2021-07-25T07:26:01Z</time>
      </trkpt>
      <trkpt lat="44.74498" lon="5.57546">
        <ele>1135</ele>
        <time>2021-07-25T07:26:02Z</time>
      </trkpt>
      <trkpt lat="44.74507" lon="5.57536">
        <ele>1133</ele>
        <time>2021-07-25T07:26:03Z</time>
      </trkpt>
      <trkpt lat="44.74517" lon="5.57527">
        <ele>1132</ele>
        <time>2021-07-25T07:26:04Z</time>
      </trkpt>
      <trkpt lat="44.74527" lon="5.57517">
        <ele>1132</ele>
        <time>2021-07-25T07:26:05Z</time>
      </trkpt>
      <trkpt lat="44.74538" lon="5.57509">
        <ele>1130</ele>
        <time>2021-07-25T07:26:06Z</time>
      </trkpt>
      <trkpt lat="44.74549" lon="5.57503">
        <ele>1129</ele>
        <time>2021-07-25T07:26:07Z</time>
      </trkpt>
      <trkpt lat="44.74561" lon="5.57502">
        <ele>1129</ele>
        <time>2021-07-25T07:26:08Z</time>
      </trkpt>
      <trkpt lat="44.74574" lon="5.57505">
        <ele>1128</ele>
        <time>2021-07-25T07:26:09Z</time>
      </trkpt>
      <trkpt lat="44.74585" lon="5.57506">
        <ele>1127</ele>
        <time>2021-07-25T07:26:10Z</time>
      </trkpt>
      <trkpt lat="44.74596" lon="5.57507">
        <ele>1127</ele>
        <time>2021-07-25T07:26:11Z</time>
      </trkpt>
      <trkpt lat="44.74607" lon="5.57507">
        <ele>1124</ele>
        <time>2021-07-25T07:26:12Z</time>
      </trkpt>
      <trkpt lat="44.74618" lon="5.57507">
        <ele>1125</ele>
        <time>2021-07-25T07:26:13Z</time>
      </trkpt>
      <trkpt lat="44.74628" lon="5.57506">
        <ele>1124</ele>
        <time>2021-07-25T07:26:14Z</time>
      </trkpt>
      <trkpt lat="44.7464" lon="5.57504">
        <ele>1124</ele>
        <time>2021-07-25T07:26:15Z</time>
      </trkpt>
      <trkpt lat="44.74651" lon="5.57502">
        <ele>1125</ele>
        <time>2021-07-25T07:26:16Z</time>
      </trkpt>
      <trkpt lat="44.74661" lon="5.57499">
        <ele>1124</ele>
        <time>2021-07-25T07:26:17Z</time>
      </trkpt>
      <trkpt lat="44.7467" lon="5.57495">
        <ele>1124</ele>
        <time>2021-07-25T07:26:18Z</time>
      </trkpt>
      <trkpt lat="44.74679" lon="5.57487">
        <ele>1124</ele>
        <time>2021-07-25T07:26:19Z</time>
      </trkpt>
      <trkpt lat="44.7469" lon="5.57467">
        <ele>1123</ele>
        <time>2021-07-25T07:26:21Z</time>
      </trkpt>
      <trkpt lat="44.74687" lon="5.57452">
        <ele>1123</ele>
        <time>2021-07-25T07:26:22Z</time>
      </trkpt>
      <trkpt lat="44.74683" lon="5.57438">
        <ele>1123</ele>
        <time>2021-07-25T07:26:23Z</time>
      </trkpt>
      <trkpt lat="44.74677" lon="5.57426">
        <ele>1123</ele>
        <time>2021-07-25T07:26:24Z</time>
      </trkpt>
      <trkpt lat="44.74669" lon="5.57412">
        <ele>1123</ele>
        <time>2021-07-25T07:26:25Z</time>
      </trkpt>
      <trkpt lat="44.74662" lon="5.57398">
        <ele>1123</ele>
        <time>2021-07-25T07:26:26Z</time>
      </trkpt>
      <trkpt lat="44.74656" lon="5.57385">
        <ele>1123</ele>
        <time>2021-07-25T07:26:27Z</time>
      </trkpt>
      <trkpt lat="44.74649" lon="5.57372">
        <ele>1123</ele>
        <time>2021-07-25T07:26:28Z</time>
      </trkpt>
      <trkpt lat="44.74643" lon="5.57359">
        <ele>1123</ele>
        <time>2021-07-25T07:26:29Z</time>
      </trkpt>
      <trkpt lat="44.74637" lon="5.57346">
        <ele>1123</ele>
        <time>2021-07-25T07:26:30Z</time>
      </trkpt>
      <trkpt lat="44.74631" lon="5.57332">
        <ele>1123</ele>
        <time>2021-07-25T07:26:31Z</time>
      </trkpt>
      <trkpt lat="44.74625" lon="5.57319">
        <ele>1123</ele>
        <time>2021-07-25T07:26:32Z</time>
      </trkpt>
      <trkpt lat="44.74619" lon="5.57306">
        <ele>1123</ele>
        <time>2021-07-25T07:26:33Z</time>
      </trkpt>
      <trkpt lat="44.74613" lon="5.57293">
        <ele>1123</ele>
        <time>2021-07-25T07:26:34Z</time>
      </trkpt>
      <trkpt lat="44.74607" lon="5.5728">
        <ele>1123</ele>
        <time>2021-07-25T07:26:35Z</time>
      </trkpt>
      <trkpt lat="44.74601" lon="5.57267">
        <ele>1123</ele>
        <time>2021-07-25T07:26:36Z</time>
      </trkpt>
      <trkpt lat="44.74594" lon="5.57254">
        <ele>1123</ele>
        <time>2021-07-25T07:26:37Z</time>
      </trkpt>
      <trkpt lat="44.74588" lon="5.57241">
        <ele>1123</ele>
        <time>2021-07-25T07:26:38Z</time>
      </trkpt>
      <trkpt lat="44.74581" lon="5.57228">
        <ele>1123</ele>
        <time>2021-07-25T07:26:39Z</time>
      </trkpt>
      <trkpt lat="44.74574" lon="5.57216">
        <ele>1118</ele>
        <time>2021-07-25T07:26:40Z</time>
      </trkpt>
      <trkpt lat="44.74567" lon="5.57203">
        <ele>1118</ele>
        <time>2021-07-25T07:26:41Z</time>
      </trkpt>
      <trkpt lat="44.7456" lon="5.57191">
        <ele>1118</ele>
        <time>2021-07-25T07:26:42Z</time>
      </trkpt>
      <trkpt lat="44.74553" lon="5.57178">
        <ele>1118</ele>
        <time>2021-07-25T07:26:43Z</time>
      </trkpt>
      <trkpt lat="44.74546" lon="5.57166">
        <ele>1118</ele>
        <time>2021-07-25T07:26:44Z</time>
      </trkpt>
      <trkpt lat="44.74539" lon="5.57154">
        <ele>1115</ele>
        <time>2021-07-25T07:26:45Z</time>
      </trkpt>
      <trkpt lat="44.74532" lon="5.57141">
        <ele>1115</ele>
        <time>2021-07-25T07:26:46Z</time>
      </trkpt>
      <trkpt lat="44.74525" lon="5.57128">
        <ele>1115</ele>
        <time>2021-07-25T07:26:47Z</time>
      </trkpt>
      <trkpt lat="44.74518" lon="5.57116">
        <ele>1115</ele>
        <time>2021-07-25T07:26:48Z</time>
      </trkpt>
      <trkpt lat="44.74511" lon="5.57103">
        <ele>1115</ele>
        <time>2021-07-25T07:26:49Z</time>
      </trkpt>
      <trkpt lat="44.74504" lon="5.57091">
        <ele>1112</ele>
        <time>2021-07-25T07:26:50Z</time>
      </trkpt>
      <trkpt lat="44.74497" lon="5.57078">
        <ele>1111</ele>
        <time>2021-07-25T07:26:51Z</time>
      </trkpt>
      <trkpt lat="44.7449" lon="5.57066">
        <ele>1110</ele>
        <time>2021-07-25T07:26:52Z</time>
      </trkpt>
      <trkpt lat="44.74482" lon="5.57054">
        <ele>1108</ele>
        <time>2021-07-25T07:26:53Z</time>
      </trkpt>
      <trkpt lat="44.74474" lon="5.57042">
        <ele>1109</ele>
        <time>2021-07-25T07:26:54Z</time>
      </trkpt>
      <trkpt lat="44.74466" lon="5.57031">
        <ele>1109</ele>
        <time>2021-07-25T07:26:55Z</time>
      </trkpt>
      <trkpt lat="44.74458" lon="5.5702">
        <ele>1108</ele>
        <time>2021-07-25T07:26:56Z</time>
      </trkpt>
      <trkpt lat="44.74449" lon="5.57009">
        <ele>1107</ele>
        <time>2021-07-25T07:26:57Z</time>
      </trkpt>
      <trkpt lat="44.74441" lon="5.56998">
        <ele>1108</ele>
        <time>2021-07-25T07:26:58Z</time>
      </trkpt>
      <trkpt lat="44.74432" lon="5.56987">
        <ele>1106</ele>
        <time>2021-07-25T07:26:59Z</time>
      </trkpt>
      <trkpt lat="44.74423" lon="5.56977">
        <ele>1106</ele>
        <time>2021-07-25T07:27:00Z</time>
      </trkpt>
      <trkpt lat="44.74415" lon="5.56966">
        <ele>1106</ele>
        <time>2021-07-25T07:27:01Z</time>
      </trkpt>
      <trkpt lat="44.74407" lon="5.56956">
        <ele>1106</ele>
        <time>2021-07-25T07:27:02Z</time>
      </trkpt>
      <trkpt lat="44.74399" lon="5.56945">
        <ele>1103</ele>
        <time>2021-07-25T07:27:03Z</time>
      </trkpt>
      <trkpt lat="44.74391" lon="5.56934">
        <ele>1104</ele>
        <time>2021-07-25T07:27:04Z</time>
      </trkpt>
      <trkpt lat="44.74385" lon="5.56923">
        <ele>1100</ele>
        <time>2021-07-25T07:27:05Z</time>
      </trkpt>
      <trkpt lat="44.74379" lon="5.56909">
        <ele>1097</ele>
        <time>2021-07-25T07:27:06Z</time>
      </trkpt>
      <trkpt lat="44.74376" lon="5.56894">
        <ele>1096</ele>
        <time>2021-07-25T07:27:07Z</time>
      </trkpt>
      <trkpt lat="44.74374" lon="5.56878">
        <ele>1095</ele>
        <time>2021-07-25T07:27:08Z</time>
      </trkpt>
      <trkpt lat="44.74374" lon="5.56862">
        <ele>1095</ele>
        <time>2021-07-25T07:27:09Z</time>
      </trkpt>
      <trkpt lat="44.74375" lon="5.56847">
        <ele>1094</ele>
        <time>2021-07-25T07:27:10Z</time>
      </trkpt>
      <trkpt lat="44.74379" lon="5.56831">
        <ele>1093</ele>
        <time>2021-07-25T07:27:11Z</time>
      </trkpt>
      <trkpt lat="44.74385" lon="5.56819">
        <ele>1092</ele>
        <time>2021-07-25T07:27:12Z</time>
      </trkpt>
      <trkpt lat="44.74394" lon="5.56809">
        <ele>1091</ele>
        <time>2021-07-25T07:27:13Z</time>
      </trkpt>
      <trkpt lat="44.74403" lon="5.56801">
        <ele>1091</ele>
        <time>2021-07-25T07:27:14Z</time>
      </trkpt>
      <trkpt lat="44.74412" lon="5.56795">
        <ele>1091</ele>
        <time>2021-07-25T07:27:15Z</time>
      </trkpt>
      <trkpt lat="44.74422" lon="5.5679">
        <ele>1090</ele>
        <time>2021-07-25T07:27:16Z</time>
      </trkpt>
      <trkpt lat="44.74433" lon="5.56784">
        <ele>1089</ele>
        <time>2021-07-25T07:27:17Z</time>
      </trkpt>
      <trkpt lat="44.74444" lon="5.56779">
        <ele>1089</ele>
        <time>2021-07-25T07:27:18Z</time>
      </trkpt>
      <trkpt lat="44.74454" lon="5.56775">
        <ele>1088</ele>
        <time>2021-07-25T07:27:19Z</time>
      </trkpt>
      <trkpt lat="44.74464" lon="5.56772">
        <ele>1089</ele>
        <time>2021-07-25T07:27:20Z</time>
      </trkpt>
      <trkpt lat="44.74482" lon="5.56763">
        <ele>1086</ele>
        <time>2021-07-25T07:27:22Z</time>
      </trkpt>
      <trkpt lat="44.74493" lon="5.56745">
        <ele>1085</ele>
        <time>2021-07-25T07:27:24Z</time>
      </trkpt>
      <trkpt lat="44.74487" lon="5.56731">
        <ele>1085</ele>
        <time>2021-07-25T07:27:25Z</time>
      </trkpt>
      <trkpt lat="44.74482" lon="5.56719">
        <ele>1084</ele>
        <time>2021-07-25T07:27:26Z</time>
      </trkpt>
      <trkpt lat="44.74476" lon="5.56707">
        <ele>1084</ele>
        <time>2021-07-25T07:27:27Z</time>
      </trkpt>
      <trkpt lat="44.74469" lon="5.56685">
        <ele>1085</ele>
        <time>2021-07-25T07:27:29Z</time>
      </trkpt>
      <trkpt lat="44.74466" lon="5.56672">
        <ele>1084</ele>
        <time>2021-07-25T07:27:30Z</time>
      </trkpt>
      <trkpt lat="44.74462" lon="5.56645">
        <ele>1084</ele>
        <time>2021-07-25T07:27:32Z</time>
      </trkpt>
      <trkpt lat="44.74459" lon="5.56631">
        <ele>1084</ele>
        <time>2021-07-25T07:27:33Z</time>
      </trkpt>
      <trkpt lat="44.74457" lon="5.56617">
        <ele>1084</ele>
        <time>2021-07-25T07:27:34Z</time>
      </trkpt>
      <trkpt lat="44.74454" lon="5.56603">
        <ele>1082</ele>
        <time>2021-07-25T07:27:35Z</time>
      </trkpt>
      <trkpt lat="44.74452" lon="5.56589">
        <ele>1082</ele>
        <time>2021-07-25T07:27:36Z</time>
      </trkpt>
      <trkpt lat="44.7445" lon="5.56575">
        <ele>1082</ele>
        <time>2021-07-25T07:27:37Z</time>
      </trkpt>
      <trkpt lat="44.74449" lon="5.5656">
        <ele>1082</ele>
        <time>2021-07-25T07:27:38Z</time>
      </trkpt>
      <trkpt lat="44.74448" lon="5.56545">
        <ele>1082</ele>
        <time>2021-07-25T07:27:39Z</time>
      </trkpt>
      <trkpt lat="44.74449" lon="5.56531">
        <ele>1082</ele>
        <time>2021-07-25T07:27:40Z</time>
      </trkpt>
      <trkpt lat="44.74452" lon="5.56517">
        <ele>1082</ele>
        <time>2021-07-25T07:27:41Z</time>
      </trkpt>
      <trkpt lat="44.74455" lon="5.56504">
        <ele>1082</ele>
        <time>2021-07-25T07:27:42Z</time>
      </trkpt>
      <trkpt lat="44.74459" lon="5.5649">
        <ele>1082</ele>
        <time>2021-07-25T07:27:43Z</time>
      </trkpt>
      <trkpt lat="44.74463" lon="5.56477">
        <ele>1082</ele>
        <time>2021-07-25T07:27:44Z</time>
      </trkpt>
      <trkpt lat="44.74467" lon="5.56464">
        <ele>1080</ele>
        <time>2021-07-25T07:27:45Z</time>
      </trkpt>
      <trkpt lat="44.74471" lon="5.5645">
        <ele>1080</ele>
        <time>2021-07-25T07:27:46Z</time>
      </trkpt>
      <trkpt lat="44.74475" lon="5.56437">
        <ele>1080</ele>
        <time>2021-07-25T07:27:47Z</time>
      </trkpt>
      <trkpt lat="44.74479" lon="5.56423">
        <ele>1080</ele>
        <time>2021-07-25T07:27:48Z</time>
      </trkpt>
      <trkpt lat="44.74482" lon="5.56409">
        <ele>1080</ele>
        <time>2021-07-25T07:27:49Z</time>
      </trkpt>
      <trkpt lat="44.74485" lon="5.56394">
        <ele>1077</ele>
        <time>2021-07-25T07:27:50Z</time>
      </trkpt>
      <trkpt lat="44.74488" lon="5.5638">
        <ele>1077</ele>
        <time>2021-07-25T07:27:51Z</time>
      </trkpt>
      <trkpt lat="44.7449" lon="5.56365">
        <ele>1077</ele>
        <time>2021-07-25T07:27:52Z</time>
      </trkpt>
      <trkpt lat="44.74492" lon="5.5635">
        <ele>1077</ele>
        <time>2021-07-25T07:27:53Z</time>
      </trkpt>
      <trkpt lat="44.74496" lon="5.56336">
        <ele>1077</ele>
        <time>2021-07-25T07:27:54Z</time>
      </trkpt>
      <trkpt lat="44.745" lon="5.56321">
        <ele>1075</ele>
        <time>2021-07-25T07:27:55Z</time>
      </trkpt>
      <trkpt lat="44.74504" lon="5.56307">
        <ele>1075</ele>
        <time>2021-07-25T07:27:56Z</time>
      </trkpt>
      <trkpt lat="44.74507" lon="5.56293">
        <ele>1075</ele>
        <time>2021-07-25T07:27:57Z</time>
      </trkpt>
      <trkpt lat="44.74511" lon="5.56278">
        <ele>1075</ele>
        <time>2021-07-25T07:27:58Z</time>
      </trkpt>
      <trkpt lat="44.74514" lon="5.56264">
        <ele>1075</ele>
        <time>2021-07-25T07:27:59Z</time>
      </trkpt>
      <trkpt lat="44.74516" lon="5.56249">
        <ele>1070</ele>
        <time>2021-07-25T07:28:00Z</time>
      </trkpt>
      <trkpt lat="44.74516" lon="5.56233">
        <ele>1071</ele>
        <time>2021-07-25T07:28:01Z</time>
      </trkpt>
      <trkpt lat="44.74516" lon="5.56218">
        <ele>1071</ele>
        <time>2021-07-25T07:28:02Z</time>
      </trkpt>
      <trkpt lat="44.74514" lon="5.56203">
        <ele>1069</ele>
        <time>2021-07-25T07:28:03Z</time>
      </trkpt>
      <trkpt lat="44.7451" lon="5.56188">
        <ele>1068</ele>
        <time>2021-07-25T07:28:04Z</time>
      </trkpt>
      <trkpt lat="44.74505" lon="5.56174">
        <ele>1068</ele>
        <time>2021-07-25T07:28:05Z</time>
      </trkpt>
      <trkpt lat="44.745" lon="5.5616">
        <ele>1067</ele>
        <time>2021-07-25T07:28:06Z</time>
      </trkpt>
      <trkpt lat="44.74495" lon="5.56146">
        <ele>1066</ele>
        <time>2021-07-25T07:28:07Z</time>
      </trkpt>
      <trkpt lat="44.7449" lon="5.56132">
        <ele>1065</ele>
        <time>2021-07-25T07:28:08Z</time>
      </trkpt>
      <trkpt lat="44.74484" lon="5.56118">
        <ele>1065</ele>
        <time>2021-07-25T07:28:09Z</time>
      </trkpt>
      <trkpt lat="44.74479" lon="5.56104">
        <ele>1064</ele>
        <time>2021-07-25T07:28:10Z</time>
      </trkpt>
      <trkpt lat="44.74473" lon="5.56091">
        <ele>1064</ele>
        <time>2021-07-25T07:28:11Z</time>
      </trkpt>
      <trkpt lat="44.74467" lon="5.56078">
        <ele>1064</ele>
        <time>2021-07-25T07:28:12Z</time>
      </trkpt>
      <trkpt lat="44.74461" lon="5.56065">
        <ele>1064</ele>
        <time>2021-07-25T07:28:13Z</time>
      </trkpt>
      <trkpt lat="44.74454" lon="5.56052">
        <ele>1063</ele>
        <time>2021-07-25T07:28:14Z</time>
      </trkpt>
      <trkpt lat="44.74448" lon="5.56039">
        <ele>1063</ele>
        <time>2021-07-25T07:28:15Z</time>
      </trkpt>
      <trkpt lat="44.74442" lon="5.56026">
        <ele>1063</ele>
        <time>2021-07-25T07:28:16Z</time>
      </trkpt>
      <trkpt lat="44.74437" lon="5.56012">
        <ele>1062</ele>
        <time>2021-07-25T07:28:17Z</time>
      </trkpt>
      <trkpt lat="44.74433" lon="5.55997">
        <ele>1061</ele>
        <time>2021-07-25T07:28:18Z</time>
      </trkpt>
      <trkpt lat="44.74432" lon="5.55982">
        <ele>1060</ele>
        <time>2021-07-25T07:28:19Z</time>
      </trkpt>
      <trkpt lat="44.74431" lon="5.55966">
        <ele>1059</ele>
        <time>2021-07-25T07:28:20Z</time>
      </trkpt>
      <trkpt lat="44.74431" lon="5.55951">
        <ele>1058</ele>
        <time>2021-07-25T07:28:21Z</time>
      </trkpt>
      <trkpt lat="44.74428" lon="5.55936">
        <ele>1057</ele>
        <time>2021-07-25T07:28:22Z</time>
      </trkpt>
      <trkpt lat="44.74424" lon="5.55923">
        <ele>1057</ele>
        <time>2021-07-25T07:28:23Z</time>
      </trkpt>
      <trkpt lat="44.74416" lon="5.55912">
        <ele>1056</ele>
        <time>2021-07-25T07:28:24Z</time>
      </trkpt>
      <trkpt lat="44.74406" lon="5.55906">
        <ele>1055</ele>
        <time>2021-07-25T07:28:25Z</time>
      </trkpt>
      <trkpt lat="44.74396" lon="5.55901">
        <ele>1055</ele>
        <time>2021-07-25T07:28:26Z</time>
      </trkpt>
      <trkpt lat="44.74386" lon="5.55897">
        <ele>1055</ele>
        <time>2021-07-25T07:28:27Z</time>
      </trkpt>
      <trkpt lat="44.74375" lon="5.55892">
        <ele>1055</ele>
        <time>2021-07-25T07:28:28Z</time>
      </trkpt>
      <trkpt lat="44.74366" lon="5.55884">
        <ele>1054</ele>
        <time>2021-07-25T07:28:29Z</time>
      </trkpt>
      <trkpt lat="44.74357" lon="5.55875">
        <ele>1054</ele>
        <time>2021-07-25T07:28:30Z</time>
      </trkpt>
      <trkpt lat="44.74348" lon="5.55864">
        <ele>1053</ele>
        <time>2021-07-25T07:28:31Z</time>
      </trkpt>
      <trkpt lat="44.74341" lon="5.55852">
        <ele>1053</ele>
        <time>2021-07-25T07:28:32Z</time>
      </trkpt>
      <trkpt lat="44.74334" lon="5.5584">
        <ele>1052</ele>
        <time>2021-07-25T07:28:33Z</time>
      </trkpt>
      <trkpt lat="44.74328" lon="5.55826">
        <ele>1051</ele>
        <time>2021-07-25T07:28:34Z</time>
      </trkpt>
      <trkpt lat="44.74323" lon="5.55811">
        <ele>1050</ele>
        <time>2021-07-25T07:28:35Z</time>
      </trkpt>
      <trkpt lat="44.74315" lon="5.55781">
        <ele>1050</ele>
        <time>2021-07-25T07:28:37Z</time>
      </trkpt>
      <trkpt lat="44.74311" lon="5.55766">
        <ele>1049</ele>
        <time>2021-07-25T07:28:38Z</time>
      </trkpt>
      <trkpt lat="44.74307" lon="5.55751">
        <ele>1048</ele>
        <time>2021-07-25T07:28:39Z</time>
      </trkpt>
      <trkpt lat="44.74303" lon="5.55737">
        <ele>1048</ele>
        <time>2021-07-25T07:28:40Z</time>
      </trkpt>
      <trkpt lat="44.74299" lon="5.55722">
        <ele>1047</ele>
        <time>2021-07-25T07:28:41Z</time>
      </trkpt>
      <trkpt lat="44.74294" lon="5.55708">
        <ele>1046</ele>
        <time>2021-07-25T07:28:42Z</time>
      </trkpt>
      <trkpt lat="44.74289" lon="5.55694">
        <ele>1046</ele>
        <time>2021-07-25T07:28:43Z</time>
      </trkpt>
      <trkpt lat="44.74283" lon="5.55681">
        <ele>1046</ele>
        <time>2021-07-25T07:28:44Z</time>
      </trkpt>
      <trkpt lat="44.74277" lon="5.55667">
        <ele>1046</ele>
        <time>2021-07-25T07:28:45Z</time>
      </trkpt>
      <trkpt lat="44.74271" lon="5.55653">
        <ele>1046</ele>
        <time>2021-07-25T07:28:46Z</time>
      </trkpt>
      <trkpt lat="44.74267" lon="5.55639">
        <ele>1045</ele>
        <time>2021-07-25T07:28:47Z</time>
      </trkpt>
      <trkpt lat="44.74263" lon="5.55624">
        <ele>1045</ele>
        <time>2021-07-25T07:28:48Z</time>
      </trkpt>
      <trkpt lat="44.7426" lon="5.55609">
        <ele>1044</ele>
        <time>2021-07-25T07:28:49Z</time>
      </trkpt>
      <trkpt lat="44.74256" lon="5.55594">
        <ele>1043</ele>
        <time>2021-07-25T07:28:50Z</time>
      </trkpt>
      <trkpt lat="44.74253" lon="5.55579">
        <ele>1043</ele>
        <time>2021-07-25T07:28:51Z</time>
      </trkpt>
      <trkpt lat="44.74251" lon="5.55563">
        <ele>1042</ele>
        <time>2021-07-25T07:28:52Z</time>
      </trkpt>
      <trkpt lat="44.74249" lon="5.55548">
        <ele>1041</ele>
        <time>2021-07-25T07:28:53Z</time>
      </trkpt>
      <trkpt lat="44.74247" lon="5.55532">
        <ele>1041</ele>
        <time>2021-07-25T07:28:54Z</time>
      </trkpt>
      <trkpt lat="44.74246" lon="5.55517">
        <ele>1040</ele>
        <time>2021-07-25T07:28:55Z</time>
      </trkpt>
      <trkpt lat="44.74244" lon="5.55501">
        <ele>1040</ele>
        <time>2021-07-25T07:28:56Z</time>
      </trkpt>
      <trkpt lat="44.74244" lon="5.55485">
        <ele>1040</ele>
        <time>2021-07-25T07:28:57Z</time>
      </trkpt>
      <trkpt lat="44.74244" lon="5.5547">
        <ele>1038</ele>
        <time>2021-07-25T07:28:58Z</time>
      </trkpt>
      <trkpt lat="44.74245" lon="5.55454">
        <ele>1037</ele>
        <time>2021-07-25T07:28:59Z</time>
      </trkpt>
      <trkpt lat="44.74247" lon="5.55438">
        <ele>1036</ele>
        <time>2021-07-25T07:29:00Z</time>
      </trkpt>
      <trkpt lat="44.74249" lon="5.55422">
        <ele>1036</ele>
        <time>2021-07-25T07:29:01Z</time>
      </trkpt>
      <trkpt lat="44.74251" lon="5.55406">
        <ele>1036</ele>
        <time>2021-07-25T07:29:02Z</time>
      </trkpt>
      <trkpt lat="44.74254" lon="5.5539">
        <ele>1036</ele>
        <time>2021-07-25T07:29:03Z</time>
      </trkpt>
      <trkpt lat="44.74256" lon="5.55375">
        <ele>1035</ele>
        <time>2021-07-25T07:29:04Z</time>
      </trkpt>
      <trkpt lat="44.7426" lon="5.55359">
        <ele>1034</ele>
        <time>2021-07-25T07:29:05Z</time>
      </trkpt>
      <trkpt lat="44.74264" lon="5.55343">
        <ele>1033</ele>
        <time>2021-07-25T07:29:06Z</time>
      </trkpt>
      <trkpt lat="44.74268" lon="5.55328">
        <ele>1032</ele>
        <time>2021-07-25T07:29:07Z</time>
      </trkpt>
      <trkpt lat="44.74272" lon="5.55312">
        <ele>1032</ele>
        <time>2021-07-25T07:29:08Z</time>
      </trkpt>
      <trkpt lat="44.74276" lon="5.55296">
        <ele>1031</ele>
        <time>2021-07-25T07:29:09Z</time>
      </trkpt>
      <trkpt lat="44.7428" lon="5.5528">
        <ele>1030</ele>
        <time>2021-07-25T07:29:10Z</time>
      </trkpt>
      <trkpt lat="44.74284" lon="5.55264">
        <ele>1029</ele>
        <time>2021-07-25T07:29:11Z</time>
      </trkpt>
      <trkpt lat="44.74288" lon="5.55248">
        <ele>1028</ele>
        <time>2021-07-25T07:29:12Z</time>
      </trkpt>
      <trkpt lat="44.7429" lon="5.55231">
        <ele>1028</ele>
        <time>2021-07-25T07:29:13Z</time>
      </trkpt>
      <trkpt lat="44.74291" lon="5.55214">
        <ele>1028</ele>
        <time>2021-07-25T07:29:14Z</time>
      </trkpt>
      <trkpt lat="44.74292" lon="5.55197">
        <ele>1027</ele>
        <time>2021-07-25T07:29:15Z</time>
      </trkpt>
      <trkpt lat="44.74292" lon="5.5518">
        <ele>1026</ele>
        <time>2021-07-25T07:29:16Z</time>
      </trkpt>
      <trkpt lat="44.7429" lon="5.55163">
        <ele>1025</ele>
        <time>2021-07-25T07:29:17Z</time>
      </trkpt>
      <trkpt lat="44.74287" lon="5.55147">
        <ele>1025</ele>
        <time>2021-07-25T07:29:18Z</time>
      </trkpt>
      <trkpt lat="44.74282" lon="5.55131">
        <ele>1023</ele>
        <time>2021-07-25T07:29:19Z</time>
      </trkpt>
      <trkpt lat="44.74278" lon="5.55116">
        <ele>1023</ele>
        <time>2021-07-25T07:29:20Z</time>
      </trkpt>
      <trkpt lat="44.74274" lon="5.55102">
        <ele>1022</ele>
        <time>2021-07-25T07:29:21Z</time>
      </trkpt>
      <trkpt lat="44.74273" lon="5.55087">
        <ele>1021</ele>
        <time>2021-07-25T07:29:22Z</time>
      </trkpt>
      <trkpt lat="44.74273" lon="5.55072">
        <ele>1020</ele>
        <time>2021-07-25T07:29:23Z</time>
      </trkpt>
      <trkpt lat="44.74275" lon="5.55056">
        <ele>1019</ele>
        <time>2021-07-25T07:29:24Z</time>
      </trkpt>
      <trkpt lat="44.74279" lon="5.55041">
        <ele>1019</ele>
        <time>2021-07-25T07:29:25Z</time>
      </trkpt>
      <trkpt lat="44.74284" lon="5.55026">
        <ele>1019</ele>
        <time>2021-07-25T07:29:26Z</time>
      </trkpt>
      <trkpt lat="44.74289" lon="5.55011">
        <ele>1019</ele>
        <time>2021-07-25T07:29:27Z</time>
      </trkpt>
      <trkpt lat="44.74295" lon="5.54997">
        <ele>1017</ele>
        <time>2021-07-25T07:29:28Z</time>
      </trkpt>
      <trkpt lat="44.74303" lon="5.54986">
        <ele>1016</ele>
        <time>2021-07-25T07:29:29Z</time>
      </trkpt>
      <trkpt lat="44.74314" lon="5.54978">
        <ele>1016</ele>
        <time>2021-07-25T07:29:30Z</time>
      </trkpt>
      <trkpt lat="44.74325" lon="5.5497">
        <ele>1015</ele>
        <time>2021-07-25T07:29:31Z</time>
      </trkpt>
      <trkpt lat="44.74335" lon="5.54961">
        <ele>1014</ele>
        <time>2021-07-25T07:29:32Z</time>
      </trkpt>
      <trkpt lat="44.74344" lon="5.5495">
        <ele>1013</ele>
        <time>2021-07-25T07:29:33Z</time>
      </trkpt>
      <trkpt lat="44.74353" lon="5.54939">
        <ele>1012</ele>
        <time>2021-07-25T07:29:34Z</time>
      </trkpt>
      <trkpt lat="44.74361" lon="5.54926">
        <ele>1011</ele>
        <time>2021-07-25T07:29:35Z</time>
      </trkpt>
      <trkpt lat="44.74369" lon="5.54913">
        <ele>1010</ele>
        <time>2021-07-25T07:29:36Z</time>
      </trkpt>
      <trkpt lat="44.74377" lon="5.54899">
        <ele>1007</ele>
        <time>2021-07-25T07:29:37Z</time>
      </trkpt>
      <trkpt lat="44.74383" lon="5.54885">
        <ele>1006</ele>
        <time>2021-07-25T07:29:38Z</time>
      </trkpt>
      <trkpt lat="44.74391" lon="5.54871">
        <ele>1008</ele>
        <time>2021-07-25T07:29:39Z</time>
      </trkpt>
      <trkpt lat="44.744" lon="5.54859">
        <ele>1008</ele>
        <time>2021-07-25T07:29:40Z</time>
      </trkpt>
      <trkpt lat="44.74409" lon="5.54848">
        <ele>1008</ele>
        <time>2021-07-25T07:29:41Z</time>
      </trkpt>
      <trkpt lat="44.7442" lon="5.54839">
        <ele>1006</ele>
        <time>2021-07-25T07:29:42Z</time>
      </trkpt>
      <trkpt lat="44.7443" lon="5.54828">
        <ele>1005</ele>
        <time>2021-07-25T07:29:43Z</time>
      </trkpt>
      <trkpt lat="44.74441" lon="5.54818">
        <ele>1005</ele>
        <time>2021-07-25T07:29:44Z</time>
      </trkpt>
      <trkpt lat="44.74451" lon="5.54807">
        <ele>1004</ele>
        <time>2021-07-25T07:29:45Z</time>
      </trkpt>
      <trkpt lat="44.7446" lon="5.54795">
        <ele>1003</ele>
        <time>2021-07-25T07:29:46Z</time>
      </trkpt>
      <trkpt lat="44.7447" lon="5.54783">
        <ele>1002</ele>
        <time>2021-07-25T07:29:47Z</time>
      </trkpt>
      <trkpt lat="44.7448" lon="5.54772">
        <ele>1001</ele>
        <time>2021-07-25T07:29:48Z</time>
      </trkpt>
      <trkpt lat="44.74492" lon="5.54764">
        <ele>1001</ele>
        <time>2021-07-25T07:29:49Z</time>
      </trkpt>
      <trkpt lat="44.74503" lon="5.54754">
        <ele>1000</ele>
        <time>2021-07-25T07:29:50Z</time>
      </trkpt>
      <trkpt lat="44.74513" lon="5.54743">
        <ele>999</ele>
        <time>2021-07-25T07:29:51Z</time>
      </trkpt>
      <trkpt lat="44.74521" lon="5.54729">
        <ele>998</ele>
        <time>2021-07-25T07:29:52Z</time>
      </trkpt>
      <trkpt lat="44.7453" lon="5.54716">
        <ele>997</ele>
        <time>2021-07-25T07:29:53Z</time>
      </trkpt>
      <trkpt lat="44.74538" lon="5.54702">
        <ele>997</ele>
        <time>2021-07-25T07:29:54Z</time>
      </trkpt>
      <trkpt lat="44.74547" lon="5.54689">
        <ele>996</ele>
        <time>2021-07-25T07:29:55Z</time>
      </trkpt>
      <trkpt lat="44.74555" lon="5.54675">
        <ele>996</ele>
        <time>2021-07-25T07:29:56Z</time>
      </trkpt>
      <trkpt lat="44.74563" lon="5.54662">
        <ele>995</ele>
        <time>2021-07-25T07:29:57Z</time>
      </trkpt>
      <trkpt lat="44.74571" lon="5.54648">
        <ele>995</ele>
        <time>2021-07-25T07:29:58Z</time>
      </trkpt>
      <trkpt lat="44.74579" lon="5.54634">
        <ele>994</ele>
        <time>2021-07-25T07:29:59Z</time>
      </trkpt>
      <trkpt lat="44.74587" lon="5.54621">
        <ele>992</ele>
        <time>2021-07-25T07:30:00Z</time>
      </trkpt>
      <trkpt lat="44.74596" lon="5.54607">
        <ele>992</ele>
        <time>2021-07-25T07:30:01Z</time>
      </trkpt>
      <trkpt lat="44.74605" lon="5.54594">
        <ele>992</ele>
        <time>2021-07-25T07:30:02Z</time>
      </trkpt>
      <trkpt lat="44.74614" lon="5.54583">
        <ele>991</ele>
        <time>2021-07-25T07:30:03Z</time>
      </trkpt>
      <trkpt lat="44.74625" lon="5.54572">
        <ele>990</ele>
        <time>2021-07-25T07:30:04Z</time>
      </trkpt>
      <trkpt lat="44.74635" lon="5.54561">
        <ele>989</ele>
        <time>2021-07-25T07:30:05Z</time>
      </trkpt>
      <trkpt lat="44.74645" lon="5.54549">
        <ele>988</ele>
        <time>2021-07-25T07:30:06Z</time>
      </trkpt>
      <trkpt lat="44.74654" lon="5.54536">
        <ele>988</ele>
        <time>2021-07-25T07:30:07Z</time>
      </trkpt>
      <trkpt lat="44.74662" lon="5.54522">
        <ele>986</ele>
        <time>2021-07-25T07:30:08Z</time>
      </trkpt>
      <trkpt lat="44.74669" lon="5.54508">
        <ele>985</ele>
        <time>2021-07-25T07:30:09Z</time>
      </trkpt>
      <trkpt lat="44.74674" lon="5.54494">
        <ele>984</ele>
        <time>2021-07-25T07:30:10Z</time>
      </trkpt>
      <trkpt lat="44.74676" lon="5.54479">
        <ele>983</ele>
        <time>2021-07-25T07:30:11Z</time>
      </trkpt>
      <trkpt lat="44.74676" lon="5.54465">
        <ele>982</ele>
        <time>2021-07-25T07:30:12Z</time>
      </trkpt>
      <trkpt lat="44.74672" lon="5.54451">
        <ele>982</ele>
        <time>2021-07-25T07:30:13Z</time>
      </trkpt>
      <trkpt lat="44.74666" lon="5.54439">
        <ele>982</ele>
        <time>2021-07-25T07:30:14Z</time>
      </trkpt>
      <trkpt lat="44.7466" lon="5.54428">
        <ele>981</ele>
        <time>2021-07-25T07:30:15Z</time>
      </trkpt>
      <trkpt lat="44.74652" lon="5.54418">
        <ele>981</ele>
        <time>2021-07-25T07:30:16Z</time>
      </trkpt>
      <trkpt lat="44.74644" lon="5.54409">
        <ele>981</ele>
        <time>2021-07-25T07:30:17Z</time>
      </trkpt>
      <trkpt lat="44.74634" lon="5.54403">
        <ele>980</ele>
        <time>2021-07-25T07:30:18Z</time>
      </trkpt>
      <trkpt lat="44.74624" lon="5.544">
        <ele>980</ele>
        <time>2021-07-25T07:30:19Z</time>
      </trkpt>
      <trkpt lat="44.74614" lon="5.54398">
        <ele>980</ele>
        <time>2021-07-25T07:30:20Z</time>
      </trkpt>
      <trkpt lat="44.74604" lon="5.54393">
        <ele>980</ele>
        <time>2021-07-25T07:30:21Z</time>
      </trkpt>
      <trkpt lat="44.74594" lon="5.54386">
        <ele>980</ele>
        <time>2021-07-25T07:30:22Z</time>
      </trkpt>
      <trkpt lat="44.74585" lon="5.5438">
        <ele>980</ele>
        <time>2021-07-25T07:30:23Z</time>
      </trkpt>
      <trkpt lat="44.74575" lon="5.54375">
        <ele>980</ele>
        <time>2021-07-25T07:30:24Z</time>
      </trkpt>
      <trkpt lat="44.74565" lon="5.54372">
        <ele>979</ele>
        <time>2021-07-25T07:30:25Z</time>
      </trkpt>
      <trkpt lat="44.74554" lon="5.54371">
        <ele>979</ele>
        <time>2021-07-25T07:30:26Z</time>
      </trkpt>
      <trkpt lat="44.74532" lon="5.54375">
        <ele>979</ele>
        <time>2021-07-25T07:30:28Z</time>
      </trkpt>
      <trkpt lat="44.74521" lon="5.54378">
        <ele>979</ele>
        <time>2021-07-25T07:30:29Z</time>
      </trkpt>
      <trkpt lat="44.7451" lon="5.54382">
        <ele>976</ele>
        <time>2021-07-25T07:30:30Z</time>
      </trkpt>
      <trkpt lat="44.74499" lon="5.54387">
        <ele>976</ele>
        <time>2021-07-25T07:30:31Z</time>
      </trkpt>
      <trkpt lat="44.74489" lon="5.54395">
        <ele>976</ele>
        <time>2021-07-25T07:30:32Z</time>
      </trkpt>
      <trkpt lat="44.74479" lon="5.54405">
        <ele>976</ele>
        <time>2021-07-25T07:30:33Z</time>
      </trkpt>
      <trkpt lat="44.74469" lon="5.54415">
        <ele>976</ele>
        <time>2021-07-25T07:30:34Z</time>
      </trkpt>
      <trkpt lat="44.74459" lon="5.54423">
        <ele>973</ele>
        <time>2021-07-25T07:30:35Z</time>
      </trkpt>
      <trkpt lat="44.74448" lon="5.54429">
        <ele>973</ele>
        <time>2021-07-25T07:30:36Z</time>
      </trkpt>
      <trkpt lat="44.74436" lon="5.54432">
        <ele>973</ele>
        <time>2021-07-25T07:30:37Z</time>
      </trkpt>
      <trkpt lat="44.74423" lon="5.54432">
        <ele>973</ele>
        <time>2021-07-25T07:30:38Z</time>
      </trkpt>
      <trkpt lat="44.74411" lon="5.54428">
        <ele>973</ele>
        <time>2021-07-25T07:30:39Z</time>
      </trkpt>
      <trkpt lat="44.744" lon="5.54422">
        <ele>970</ele>
        <time>2021-07-25T07:30:40Z</time>
      </trkpt>
      <trkpt lat="44.74388" lon="5.54416">
        <ele>968</ele>
        <time>2021-07-25T07:30:41Z</time>
      </trkpt>
      <trkpt lat="44.74377" lon="5.54411">
        <ele>967</ele>
        <time>2021-07-25T07:30:42Z</time>
      </trkpt>
      <trkpt lat="44.74365" lon="5.54409">
        <ele>967</ele>
        <time>2021-07-25T07:30:43Z</time>
      </trkpt>
      <trkpt lat="44.74353" lon="5.5441">
        <ele>966</ele>
        <time>2021-07-25T07:30:44Z</time>
      </trkpt>
      <trkpt lat="44.74341" lon="5.54412">
        <ele>965</ele>
        <time>2021-07-25T07:30:45Z</time>
      </trkpt>
      <trkpt lat="44.7433" lon="5.54415">
        <ele>964</ele>
        <time>2021-07-25T07:30:46Z</time>
      </trkpt>
      <trkpt lat="44.74318" lon="5.54419">
        <ele>963</ele>
        <time>2021-07-25T07:30:47Z</time>
      </trkpt>
      <trkpt lat="44.74306" lon="5.54422">
        <ele>963</ele>
        <time>2021-07-25T07:30:48Z</time>
      </trkpt>
      <trkpt lat="44.74295" lon="5.54425">
        <ele>962</ele>
        <time>2021-07-25T07:30:49Z</time>
      </trkpt>
      <trkpt lat="44.74283" lon="5.54426">
        <ele>962</ele>
        <time>2021-07-25T07:30:50Z</time>
      </trkpt>
      <trkpt lat="44.74271" lon="5.54426">
        <ele>962</ele>
        <time>2021-07-25T07:30:51Z</time>
      </trkpt>
      <trkpt lat="44.74259" lon="5.54424">
        <ele>961</ele>
        <time>2021-07-25T07:30:52Z</time>
      </trkpt>
      <trkpt lat="44.74247" lon="5.54423">
        <ele>960</ele>
        <time>2021-07-25T07:30:53Z</time>
      </trkpt>
      <trkpt lat="44.74236" lon="5.54424">
        <ele>959</ele>
        <time>2021-07-25T07:30:54Z</time>
      </trkpt>
      <trkpt lat="44.74224" lon="5.54427">
        <ele>959</ele>
        <time>2021-07-25T07:30:55Z</time>
      </trkpt>
      <trkpt lat="44.74214" lon="5.54433">
        <ele>958</ele>
        <time>2021-07-25T07:30:56Z</time>
      </trkpt>
      <trkpt lat="44.74204" lon="5.5444">
        <ele>957</ele>
        <time>2021-07-25T07:30:57Z</time>
      </trkpt>
      <trkpt lat="44.74195" lon="5.54448">
        <ele>957</ele>
        <time>2021-07-25T07:30:58Z</time>
      </trkpt>
      <trkpt lat="44.74177" lon="5.54455">
        <ele>955</ele>
        <time>2021-07-25T07:31:00Z</time>
      </trkpt>
      <trkpt lat="44.74165" lon="5.5445">
        <ele>955</ele>
        <time>2021-07-25T07:31:01Z</time>
      </trkpt>
      <trkpt lat="44.74155" lon="5.54444">
        <ele>954</ele>
        <time>2021-07-25T07:31:02Z</time>
      </trkpt>
      <trkpt lat="44.74145" lon="5.54438">
        <ele>953</ele>
        <time>2021-07-25T07:31:03Z</time>
      </trkpt>
      <trkpt lat="44.74135" lon="5.54435">
        <ele>953</ele>
        <time>2021-07-25T07:31:04Z</time>
      </trkpt>
      <trkpt lat="44.74125" lon="5.54433">
        <ele>953</ele>
        <time>2021-07-25T07:31:05Z</time>
      </trkpt>
      <trkpt lat="44.74114" lon="5.54434">
        <ele>953</ele>
        <time>2021-07-25T07:31:06Z</time>
      </trkpt>
      <trkpt lat="44.74103" lon="5.54438">
        <ele>953</ele>
        <time>2021-07-25T07:31:07Z</time>
      </trkpt>
      <trkpt lat="44.74093" lon="5.54444">
        <ele>951</ele>
        <time>2021-07-25T07:31:08Z</time>
      </trkpt>
      <trkpt lat="44.74082" lon="5.54451">
        <ele>951</ele>
        <time>2021-07-25T07:31:09Z</time>
      </trkpt>
      <trkpt lat="44.74072" lon="5.54458">
        <ele>950</ele>
        <time>2021-07-25T07:31:10Z</time>
      </trkpt>
      <trkpt lat="44.74062" lon="5.54466">
        <ele>949</ele>
        <time>2021-07-25T07:31:11Z</time>
      </trkpt>
      <trkpt lat="44.74052" lon="5.54473">
        <ele>949</ele>
        <time>2021-07-25T07:31:12Z</time>
      </trkpt>
      <trkpt lat="44.74042" lon="5.5448">
        <ele>948</ele>
        <time>2021-07-25T07:31:13Z</time>
      </trkpt>
      <trkpt lat="44.74031" lon="5.54485">
        <ele>947</ele>
        <time>2021-07-25T07:31:14Z</time>
      </trkpt>
      <trkpt lat="44.74021" lon="5.54491">
        <ele>946</ele>
        <time>2021-07-25T07:31:15Z</time>
      </trkpt>
      <trkpt lat="44.7401" lon="5.54496">
        <ele>946</ele>
        <time>2021-07-25T07:31:16Z</time>
      </trkpt>
      <trkpt lat="44.73999" lon="5.54499">
        <ele>945</ele>
        <time>2021-07-25T07:31:17Z</time>
      </trkpt>
      <trkpt lat="44.73989" lon="5.54501">
        <ele>945</ele>
        <time>2021-07-25T07:31:18Z</time>
      </trkpt>
      <trkpt lat="44.73971" lon="5.545">
        <ele>944</ele>
        <time>2021-07-25T07:31:20Z</time>
      </trkpt>
      <trkpt lat="44.73957" lon="5.54502">
        <ele>944</ele>
        <time>2021-07-25T07:31:22Z</time>
      </trkpt>
      <trkpt lat="44.7395" lon="5.54512">
        <ele>943</ele>
        <time>2021-07-25T07:31:24Z</time>
      </trkpt>
      <trkpt lat="44.73958" lon="5.54521">
        <ele>942</ele>
        <time>2021-07-25T07:31:26Z</time>
      </trkpt>
      <trkpt lat="44.73973" lon="5.54519">
        <ele>941</ele>
        <time>2021-07-25T07:31:28Z</time>
      </trkpt>
      <trkpt lat="44.7399" lon="5.54513">
        <ele>943</ele>
        <time>2021-07-25T07:31:30Z</time>
      </trkpt>
      <trkpt lat="44.74" lon="5.54511">
        <ele>943</ele>
        <time>2021-07-25T07:31:31Z</time>
      </trkpt>
      <trkpt lat="44.74011" lon="5.5451">
        <ele>943</ele>
        <time>2021-07-25T07:31:32Z</time>
      </trkpt>
      <trkpt lat="44.74021" lon="5.54507">
        <ele>943</ele>
        <time>2021-07-25T07:31:33Z</time>
      </trkpt>
      <trkpt lat="44.74039" lon="5.545">
        <ele>943</ele>
        <time>2021-07-25T07:31:35Z</time>
      </trkpt>
      <trkpt lat="44.74049" lon="5.54498">
        <ele>943</ele>
        <time>2021-07-25T07:31:36Z</time>
      </trkpt>
      <trkpt lat="44.74059" lon="5.54495">
        <ele>943</ele>
        <time>2021-07-25T07:31:37Z</time>
      </trkpt>
      <trkpt lat="44.74069" lon="5.54491">
        <ele>943</ele>
        <time>2021-07-25T07:31:38Z</time>
      </trkpt>
      <trkpt lat="44.7408" lon="5.54487">
        <ele>943</ele>
        <time>2021-07-25T07:31:39Z</time>
      </trkpt>
      <trkpt lat="44.7409" lon="5.54483">
        <ele>940</ele>
        <time>2021-07-25T07:31:40Z</time>
      </trkpt>
      <trkpt lat="44.741" lon="5.5448">
        <ele>940</ele>
        <time>2021-07-25T07:31:41Z</time>
      </trkpt>
      <trkpt lat="44.7411" lon="5.54478">
        <ele>940</ele>
        <time>2021-07-25T07:31:42Z</time>
      </trkpt>
      <trkpt lat="44.74121" lon="5.54477">
        <ele>940</ele>
        <time>2021-07-25T07:31:43Z</time>
      </trkpt>
      <trkpt lat="44.74132" lon="5.54478">
        <ele>940</ele>
        <time>2021-07-25T07:31:44Z</time>
      </trkpt>
      <trkpt lat="44.74142" lon="5.54482">
        <ele>936</ele>
        <time>2021-07-25T07:31:45Z</time>
      </trkpt>
      <trkpt lat="44.7416" lon="5.54496">
        <ele>936</ele>
        <time>2021-07-25T07:31:47Z</time>
      </trkpt>
      <trkpt lat="44.74169" lon="5.54503">
        <ele>936</ele>
        <time>2021-07-25T07:31:48Z</time>
      </trkpt>
      <trkpt lat="44.74179" lon="5.5451">
        <ele>936</ele>
        <time>2021-07-25T07:31:49Z</time>
      </trkpt>
      <trkpt lat="44.74189" lon="5.54516">
        <ele>933</ele>
        <time>2021-07-25T07:31:50Z</time>
      </trkpt>
      <trkpt lat="44.74199" lon="5.5452">
        <ele>932</ele>
        <time>2021-07-25T07:31:51Z</time>
      </trkpt>
      <trkpt lat="44.7421" lon="5.54522">
        <ele>931</ele>
        <time>2021-07-25T07:31:52Z</time>
      </trkpt>
      <trkpt lat="44.74221" lon="5.54523">
        <ele>930</ele>
        <time>2021-07-25T07:31:53Z</time>
      </trkpt>
      <trkpt lat="44.74233" lon="5.54523">
        <ele>929</ele>
        <time>2021-07-25T07:31:54Z</time>
      </trkpt>
      <trkpt lat="44.74244" lon="5.54521">
        <ele>928</ele>
        <time>2021-07-25T07:31:55Z</time>
      </trkpt>
      <trkpt lat="44.74255" lon="5.54517">
        <ele>928</ele>
        <time>2021-07-25T07:31:56Z</time>
      </trkpt>
      <trkpt lat="44.74265" lon="5.54514">
        <ele>928</ele>
        <time>2021-07-25T07:31:57Z</time>
      </trkpt>
      <trkpt lat="44.74275" lon="5.54511">
        <ele>927</ele>
        <time>2021-07-25T07:31:58Z</time>
      </trkpt>
      <trkpt lat="44.74285" lon="5.54509">
        <ele>927</ele>
        <time>2021-07-25T07:31:59Z</time>
      </trkpt>
      <trkpt lat="44.74295" lon="5.54507">
        <ele>926</ele>
        <time>2021-07-25T07:32:00Z</time>
      </trkpt>
      <trkpt lat="44.74313" lon="5.54511">
        <ele>924</ele>
        <time>2021-07-25T07:32:02Z</time>
      </trkpt>
      <trkpt lat="44.74324" lon="5.5453">
        <ele>924</ele>
        <time>2021-07-25T07:32:04Z</time>
      </trkpt>
      <trkpt lat="44.74326" lon="5.54557">
        <ele>923</ele>
        <time>2021-07-25T07:32:06Z</time>
      </trkpt>
      <trkpt lat="44.74326" lon="5.54571">
        <ele>923</ele>
        <time>2021-07-25T07:32:07Z</time>
      </trkpt>
      <trkpt lat="44.74327" lon="5.54585">
        <ele>923</ele>
        <time>2021-07-25T07:32:08Z</time>
      </trkpt>
      <trkpt lat="44.74328" lon="5.54599">
        <ele>922</ele>
        <time>2021-07-25T07:32:09Z</time>
      </trkpt>
      <trkpt lat="44.7433" lon="5.54613">
        <ele>922</ele>
        <time>2021-07-25T07:32:10Z</time>
      </trkpt>
      <trkpt lat="44.74331" lon="5.54627">
        <ele>922</ele>
        <time>2021-07-25T07:32:11Z</time>
      </trkpt>
      <trkpt lat="44.74332" lon="5.54642">
        <ele>922</ele>
        <time>2021-07-25T07:32:12Z</time>
      </trkpt>
      <trkpt lat="44.74331" lon="5.54657">
        <ele>922</ele>
        <time>2021-07-25T07:32:13Z</time>
      </trkpt>
      <trkpt lat="44.74328" lon="5.54671">
        <ele>922</ele>
        <time>2021-07-25T07:32:14Z</time>
      </trkpt>
      <trkpt lat="44.74325" lon="5.54685">
        <ele>920</ele>
        <time>2021-07-25T07:32:15Z</time>
      </trkpt>
      <trkpt lat="44.7432" lon="5.54699">
        <ele>920</ele>
        <time>2021-07-25T07:32:16Z</time>
      </trkpt>
      <trkpt lat="44.74315" lon="5.54713">
        <ele>920</ele>
        <time>2021-07-25T07:32:17Z</time>
      </trkpt>
      <trkpt lat="44.74308" lon="5.54724">
        <ele>920</ele>
        <time>2021-07-25T07:32:18Z</time>
      </trkpt>
      <trkpt lat="44.74299" lon="5.54733">
        <ele>920</ele>
        <time>2021-07-25T07:32:19Z</time>
      </trkpt>
      <trkpt lat="44.74289" lon="5.54738">
        <ele>917</ele>
        <time>2021-07-25T07:32:20Z</time>
      </trkpt>
      <trkpt lat="44.74278" lon="5.54744">
        <ele>916</ele>
        <time>2021-07-25T07:32:21Z</time>
      </trkpt>
      <trkpt lat="44.74268" lon="5.54751">
        <ele>915</ele>
        <time>2021-07-25T07:32:22Z</time>
      </trkpt>
      <trkpt lat="44.74259" lon="5.5476">
        <ele>914</ele>
        <time>2021-07-25T07:32:23Z</time>
      </trkpt>
      <trkpt lat="44.7425" lon="5.5477">
        <ele>914</ele>
        <time>2021-07-25T07:32:24Z</time>
      </trkpt>
      <trkpt lat="44.74242" lon="5.5478">
        <ele>914</ele>
        <time>2021-07-25T07:32:25Z</time>
      </trkpt>
      <trkpt lat="44.74233" lon="5.5479">
        <ele>914</ele>
        <time>2021-07-25T07:32:26Z</time>
      </trkpt>
      <trkpt lat="44.74225" lon="5.54799">
        <ele>913</ele>
        <time>2021-07-25T07:32:27Z</time>
      </trkpt>
      <trkpt lat="44.74216" lon="5.54808">
        <ele>913</ele>
        <time>2021-07-25T07:32:28Z</time>
      </trkpt>
      <trkpt lat="44.74207" lon="5.54817">
        <ele>912</ele>
        <time>2021-07-25T07:32:29Z</time>
      </trkpt>
      <trkpt lat="44.74189" lon="5.54834">
        <ele>912</ele>
        <time>2021-07-25T07:32:31Z</time>
      </trkpt>
      <trkpt lat="44.74181" lon="5.54843">
        <ele>911</ele>
        <time>2021-07-25T07:32:32Z</time>
      </trkpt>
      <trkpt lat="44.74173" lon="5.54854">
        <ele>910</ele>
        <time>2021-07-25T07:32:33Z</time>
      </trkpt>
      <trkpt lat="44.74166" lon="5.54865">
        <ele>909</ele>
        <time>2021-07-25T07:32:34Z</time>
      </trkpt>
      <trkpt lat="44.74159" lon="5.54876">
        <ele>909</ele>
        <time>2021-07-25T07:32:35Z</time>
      </trkpt>
      <trkpt lat="44.74151" lon="5.54888">
        <ele>909</ele>
        <time>2021-07-25T07:32:36Z</time>
      </trkpt>
      <trkpt lat="44.74144" lon="5.54899">
        <ele>909</ele>
        <time>2021-07-25T07:32:37Z</time>
      </trkpt>
      <trkpt lat="44.74137" lon="5.54911">
        <ele>908</ele>
        <time>2021-07-25T07:32:38Z</time>
      </trkpt>
      <trkpt lat="44.74131" lon="5.54924">
        <ele>908</ele>
        <time>2021-07-25T07:32:39Z</time>
      </trkpt>
      <trkpt lat="44.74125" lon="5.54936">
        <ele>907</ele>
        <time>2021-07-25T07:32:40Z</time>
      </trkpt>
      <trkpt lat="44.74118" lon="5.54948">
        <ele>907</ele>
        <time>2021-07-25T07:32:41Z</time>
      </trkpt>
      <trkpt lat="44.7411" lon="5.54959">
        <ele>906</ele>
        <time>2021-07-25T07:32:42Z</time>
      </trkpt>
      <trkpt lat="44.74102" lon="5.5497">
        <ele>905</ele>
        <time>2021-07-25T07:32:43Z</time>
      </trkpt>
      <trkpt lat="44.74094" lon="5.5498">
        <ele>905</ele>
        <time>2021-07-25T07:32:44Z</time>
      </trkpt>
      <trkpt lat="44.74087" lon="5.54992">
        <ele>905</ele>
        <time>2021-07-25T07:32:45Z</time>
      </trkpt>
      <trkpt lat="44.7408" lon="5.55004">
        <ele>904</ele>
        <time>2021-07-25T07:32:46Z</time>
      </trkpt>
      <trkpt lat="44.74074" lon="5.55017">
        <ele>903</ele>
        <time>2021-07-25T07:32:47Z</time>
      </trkpt>
      <trkpt lat="44.74067" lon="5.55028">
        <ele>902</ele>
        <time>2021-07-25T07:32:48Z</time>
      </trkpt>
      <trkpt lat="44.74058" lon="5.55039">
        <ele>902</ele>
        <time>2021-07-25T07:32:49Z</time>
      </trkpt>
      <trkpt lat="44.74049" lon="5.55048">
        <ele>902</ele>
        <time>2021-07-25T07:32:50Z</time>
      </trkpt>
      <trkpt lat="44.7404" lon="5.55057">
        <ele>902</ele>
        <time>2021-07-25T07:32:51Z</time>
      </trkpt>
      <trkpt lat="44.7403" lon="5.55065">
        <ele>902</ele>
        <time>2021-07-25T07:32:52Z</time>
      </trkpt>
      <trkpt lat="44.7402" lon="5.55072">
        <ele>902</ele>
        <time>2021-07-25T07:32:53Z</time>
      </trkpt>
      <trkpt lat="44.74009" lon="5.55077">
        <ele>902</ele>
        <time>2021-07-25T07:32:54Z</time>
      </trkpt>
      <trkpt lat="44.73999" lon="5.55083">
        <ele>900</ele>
        <time>2021-07-25T07:32:55Z</time>
      </trkpt>
      <trkpt lat="44.73988" lon="5.55089">
        <ele>900</ele>
        <time>2021-07-25T07:32:56Z</time>
      </trkpt>
      <trkpt lat="44.73978" lon="5.55095">
        <ele>900</ele>
        <time>2021-07-25T07:32:57Z</time>
      </trkpt>
      <trkpt lat="44.73969" lon="5.55103">
        <ele>900</ele>
        <time>2021-07-25T07:32:58Z</time>
      </trkpt>
      <trkpt lat="44.7396" lon="5.55112">
        <ele>900</ele>
        <time>2021-07-25T07:32:59Z</time>
      </trkpt>
      <trkpt lat="44.73951" lon="5.55121">
        <ele>896</ele>
        <time>2021-07-25T07:33:00Z</time>
      </trkpt>
      <trkpt lat="44.73942" lon="5.55131">
        <ele>896</ele>
        <time>2021-07-25T07:33:01Z</time>
      </trkpt>
      <trkpt lat="44.73933" lon="5.55141">
        <ele>895</ele>
        <time>2021-07-25T07:33:02Z</time>
      </trkpt>
      <trkpt lat="44.73924" lon="5.5515">
        <ele>895</ele>
        <time>2021-07-25T07:33:03Z</time>
      </trkpt>
      <trkpt lat="44.73914" lon="5.55159">
        <ele>895</ele>
        <time>2021-07-25T07:33:04Z</time>
      </trkpt>
      <trkpt lat="44.73904" lon="5.55166">
        <ele>894</ele>
        <time>2021-07-25T07:33:05Z</time>
      </trkpt>
      <trkpt lat="44.73894" lon="5.55172">
        <ele>894</ele>
        <time>2021-07-25T07:33:06Z</time>
      </trkpt>
      <trkpt lat="44.73884" lon="5.55178">
        <ele>893</ele>
        <time>2021-07-25T07:33:07Z</time>
      </trkpt>
      <trkpt lat="44.73873" lon="5.55184">
        <ele>892</ele>
        <time>2021-07-25T07:33:08Z</time>
      </trkpt>
      <trkpt lat="44.73863" lon="5.5519">
        <ele>891</ele>
        <time>2021-07-25T07:33:09Z</time>
      </trkpt>
      <trkpt lat="44.73852" lon="5.55194">
        <ele>891</ele>
        <time>2021-07-25T07:33:10Z</time>
      </trkpt>
      <trkpt lat="44.73842" lon="5.55198">
        <ele>891</ele>
        <time>2021-07-25T07:33:11Z</time>
      </trkpt>
      <trkpt lat="44.73831" lon="5.552">
        <ele>891</ele>
        <time>2021-07-25T07:33:12Z</time>
      </trkpt>
      <trkpt lat="44.7382" lon="5.55202">
        <ele>891</ele>
        <time>2021-07-25T07:33:13Z</time>
      </trkpt>
      <trkpt lat="44.73809" lon="5.55203">
        <ele>891</ele>
        <time>2021-07-25T07:33:14Z</time>
      </trkpt>
      <trkpt lat="44.73798" lon="5.55205">
        <ele>890</ele>
        <time>2021-07-25T07:33:15Z</time>
      </trkpt>
      <trkpt lat="44.73787" lon="5.5521">
        <ele>890</ele>
        <time>2021-07-25T07:33:16Z</time>
      </trkpt>
      <trkpt lat="44.73777" lon="5.55217">
        <ele>890</ele>
        <time>2021-07-25T07:33:17Z</time>
      </trkpt>
      <trkpt lat="44.73768" lon="5.55226">
        <ele>890</ele>
        <time>2021-07-25T07:33:18Z</time>
      </trkpt>
      <trkpt lat="44.73755" lon="5.55245">
        <ele>886</ele>
        <time>2021-07-25T07:33:20Z</time>
      </trkpt>
      <trkpt lat="44.73756" lon="5.55275">
        <ele>884</ele>
        <time>2021-07-25T07:33:22Z</time>
      </trkpt>
      <trkpt lat="44.73759" lon="5.55289">
        <ele>884</ele>
        <time>2021-07-25T07:33:23Z</time>
      </trkpt>
      <trkpt lat="44.73761" lon="5.55303">
        <ele>884</ele>
        <time>2021-07-25T07:33:24Z</time>
      </trkpt>
      <trkpt lat="44.73764" lon="5.55317">
        <ele>883</ele>
        <time>2021-07-25T07:33:25Z</time>
      </trkpt>
      <trkpt lat="44.73766" lon="5.55332">
        <ele>883</ele>
        <time>2021-07-25T07:33:26Z</time>
      </trkpt>
      <trkpt lat="44.73768" lon="5.55346">
        <ele>883</ele>
        <time>2021-07-25T07:33:27Z</time>
      </trkpt>
      <trkpt lat="44.73772" lon="5.5536">
        <ele>882</ele>
        <time>2021-07-25T07:33:28Z</time>
      </trkpt>
      <trkpt lat="44.73774" lon="5.55375">
        <ele>881</ele>
        <time>2021-07-25T07:33:29Z</time>
      </trkpt>
      <trkpt lat="44.73776" lon="5.55388">
        <ele>881</ele>
        <time>2021-07-25T07:33:30Z</time>
      </trkpt>
      <trkpt lat="44.73779" lon="5.55402">
        <ele>881</ele>
        <time>2021-07-25T07:33:31Z</time>
      </trkpt>
      <trkpt lat="44.73784" lon="5.55416">
        <ele>880</ele>
        <time>2021-07-25T07:33:32Z</time>
      </trkpt>
      <trkpt lat="44.73789" lon="5.55428">
        <ele>880</ele>
        <time>2021-07-25T07:33:33Z</time>
      </trkpt>
      <trkpt lat="44.73796" lon="5.55439">
        <ele>879</ele>
        <time>2021-07-25T07:33:34Z</time>
      </trkpt>
      <trkpt lat="44.73807" lon="5.55459">
        <ele>878</ele>
        <time>2021-07-25T07:33:36Z</time>
      </trkpt>
      <trkpt lat="44.73814" lon="5.55474">
        <ele>877</ele>
        <time>2021-07-25T07:33:38Z</time>
      </trkpt>
      <trkpt lat="44.73816" lon="5.55491">
        <ele>876</ele>
        <time>2021-07-25T07:33:40Z</time>
      </trkpt>
      <trkpt lat="44.73805" lon="5.55504">
        <ele>875</ele>
        <time>2021-07-25T07:33:42Z</time>
      </trkpt>
      <trkpt lat="44.73792" lon="5.55516">
        <ele>874</ele>
        <time>2021-07-25T07:33:44Z</time>
      </trkpt>
      <trkpt lat="44.73777" lon="5.55525">
        <ele>873</ele>
        <time>2021-07-25T07:33:46Z</time>
      </trkpt>
      <trkpt lat="44.73768" lon="5.55526">
        <ele>873</ele>
        <time>2021-07-25T07:33:47Z</time>
      </trkpt>
      <trkpt lat="44.73751" lon="5.55523">
        <ele>872</ele>
        <time>2021-07-25T07:33:49Z</time>
      </trkpt>
      <trkpt lat="44.73735" lon="5.55511">
        <ele>872</ele>
        <time>2021-07-25T07:33:51Z</time>
      </trkpt>
      <trkpt lat="44.73722" lon="5.55494">
        <ele>872</ele>
        <time>2021-07-25T07:33:53Z</time>
      </trkpt>
      <trkpt lat="44.73715" lon="5.55485">
        <ele>872</ele>
        <time>2021-07-25T07:33:54Z</time>
      </trkpt>
      <trkpt lat="44.73709" lon="5.55476">
        <ele>871</ele>
        <time>2021-07-25T07:33:55Z</time>
      </trkpt>
      <trkpt lat="44.73703" lon="5.55466">
        <ele>871</ele>
        <time>2021-07-25T07:33:56Z</time>
      </trkpt>
      <trkpt lat="44.73696" lon="5.55456">
        <ele>871</ele>
        <time>2021-07-25T07:33:57Z</time>
      </trkpt>
      <trkpt lat="44.73686" lon="5.55434">
        <ele>871</ele>
        <time>2021-07-25T07:33:59Z</time>
      </trkpt>
      <trkpt lat="44.73681" lon="5.55424">
        <ele>868</ele>
        <time>2021-07-25T07:34:00Z</time>
      </trkpt>
      <trkpt lat="44.73676" lon="5.55413">
        <ele>868</ele>
        <time>2021-07-25T07:34:01Z</time>
      </trkpt>
      <trkpt lat="44.7367" lon="5.55402">
        <ele>868</ele>
        <time>2021-07-25T07:34:02Z</time>
      </trkpt>
      <trkpt lat="44.73664" lon="5.55392">
        <ele>868</ele>
        <time>2021-07-25T07:34:03Z</time>
      </trkpt>
      <trkpt lat="44.7366" lon="5.55379">
        <ele>868</ele>
        <time>2021-07-25T07:34:04Z</time>
      </trkpt>
      <trkpt lat="44.73655" lon="5.55368">
        <ele>867</ele>
        <time>2021-07-25T07:34:05Z</time>
      </trkpt>
      <trkpt lat="44.73651" lon="5.55355">
        <ele>867</ele>
        <time>2021-07-25T07:34:06Z</time>
      </trkpt>
      <trkpt lat="44.73646" lon="5.55342">
        <ele>867</ele>
        <time>2021-07-25T07:34:07Z</time>
      </trkpt>
      <trkpt lat="44.73642" lon="5.55329">
        <ele>867</ele>
        <time>2021-07-25T07:34:08Z</time>
      </trkpt>
      <trkpt lat="44.73639" lon="5.55315">
        <ele>867</ele>
        <time>2021-07-25T07:34:09Z</time>
      </trkpt>
      <trkpt lat="44.73636" lon="5.55301">
        <ele>865</ele>
        <time>2021-07-25T07:34:10Z</time>
      </trkpt>
      <trkpt lat="44.73634" lon="5.55287">
        <ele>865</ele>
        <time>2021-07-25T07:34:11Z</time>
      </trkpt>
      <trkpt lat="44.73633" lon="5.55272">
        <ele>865</ele>
        <time>2021-07-25T07:34:12Z</time>
      </trkpt>
      <trkpt lat="44.73633" lon="5.55257">
        <ele>865</ele>
        <time>2021-07-25T07:34:13Z</time>
      </trkpt>
      <trkpt lat="44.73632" lon="5.55242">
        <ele>865</ele>
        <time>2021-07-25T07:34:14Z</time>
      </trkpt>
      <trkpt lat="44.73632" lon="5.55227">
        <ele>862</ele>
        <time>2021-07-25T07:34:15Z</time>
      </trkpt>
      <trkpt lat="44.73634" lon="5.55213">
        <ele>862</ele>
        <time>2021-07-25T07:34:16Z</time>
      </trkpt>
      <trkpt lat="44.73638" lon="5.552">
        <ele>862</ele>
        <time>2021-07-25T07:34:17Z</time>
      </trkpt>
      <trkpt lat="44.73646" lon="5.55191">
        <ele>862</ele>
        <time>2021-07-25T07:34:18Z</time>
      </trkpt>
      <trkpt lat="44.73657" lon="5.55186">
        <ele>862</ele>
        <time>2021-07-25T07:34:19Z</time>
      </trkpt>
      <trkpt lat="44.73668" lon="5.55186">
        <ele>859</ele>
        <time>2021-07-25T07:34:20Z</time>
      </trkpt>
      <trkpt lat="44.7368" lon="5.55187">
        <ele>857</ele>
        <time>2021-07-25T07:34:21Z</time>
      </trkpt>
      <trkpt lat="44.7369" lon="5.55187">
        <ele>856</ele>
        <time>2021-07-25T07:34:22Z</time>
      </trkpt>
      <trkpt lat="44.73701" lon="5.55186">
        <ele>856</ele>
        <time>2021-07-25T07:34:23Z</time>
      </trkpt>
      <trkpt lat="44.73712" lon="5.55182">
        <ele>855</ele>
        <time>2021-07-25T07:34:24Z</time>
      </trkpt>
      <trkpt lat="44.73722" lon="5.55175">
        <ele>856</ele>
        <time>2021-07-25T07:34:25Z</time>
      </trkpt>
      <trkpt lat="44.73731" lon="5.55166">
        <ele>855</ele>
        <time>2021-07-25T07:34:26Z</time>
      </trkpt>
      <trkpt lat="44.7374" lon="5.55157">
        <ele>854</ele>
        <time>2021-07-25T07:34:27Z</time>
      </trkpt>
      <trkpt lat="44.73749" lon="5.55147">
        <ele>853</ele>
        <time>2021-07-25T07:34:28Z</time>
      </trkpt>
      <trkpt lat="44.73757" lon="5.55136">
        <ele>853</ele>
        <time>2021-07-25T07:34:29Z</time>
      </trkpt>
      <trkpt lat="44.73765" lon="5.55125">
        <ele>852</ele>
        <time>2021-07-25T07:34:30Z</time>
      </trkpt>
      <trkpt lat="44.73773" lon="5.55114">
        <ele>851</ele>
        <time>2021-07-25T07:34:31Z</time>
      </trkpt>
      <trkpt lat="44.73781" lon="5.55104">
        <ele>851</ele>
        <time>2021-07-25T07:34:32Z</time>
      </trkpt>
      <trkpt lat="44.7379" lon="5.55094">
        <ele>850</ele>
        <time>2021-07-25T07:34:33Z</time>
      </trkpt>
      <trkpt lat="44.73799" lon="5.55084">
        <ele>850</ele>
        <time>2021-07-25T07:34:34Z</time>
      </trkpt>
      <trkpt lat="44.73808" lon="5.55074">
        <ele>849</ele>
        <time>2021-07-25T07:34:35Z</time>
      </trkpt>
      <trkpt lat="44.73816" lon="5.55063">
        <ele>849</ele>
        <time>2021-07-25T07:34:36Z</time>
      </trkpt>
      <trkpt lat="44.73825" lon="5.55052">
        <ele>849</ele>
        <time>2021-07-25T07:34:37Z</time>
      </trkpt>
      <trkpt lat="44.73832" lon="5.5504">
        <ele>848</ele>
        <time>2021-07-25T07:34:38Z</time>
      </trkpt>
      <trkpt lat="44.73839" lon="5.55027">
        <ele>847</ele>
        <time>2021-07-25T07:34:39Z</time>
      </trkpt>
      <trkpt lat="44.73845" lon="5.55014">
        <ele>847</ele>
        <time>2021-07-25T07:34:40Z</time>
      </trkpt>
      <trkpt lat="44.73851" lon="5.55">
        <ele>847</ele>
        <time>2021-07-25T07:34:41Z</time>
      </trkpt>
      <trkpt lat="44.73857" lon="5.54986">
        <ele>846</ele>
        <time>2021-07-25T07:34:42Z</time>
      </trkpt>
      <trkpt lat="44.73863" lon="5.54972">
        <ele>845</ele>
        <time>2021-07-25T07:34:43Z</time>
      </trkpt>
      <trkpt lat="44.73868" lon="5.54958">
        <ele>845</ele>
        <time>2021-07-25T07:34:44Z</time>
      </trkpt>
      <trkpt lat="44.73874" lon="5.54943">
        <ele>844</ele>
        <time>2021-07-25T07:34:45Z</time>
      </trkpt>
      <trkpt lat="44.7388" lon="5.5493">
        <ele>843</ele>
        <time>2021-07-25T07:34:46Z</time>
      </trkpt>
      <trkpt lat="44.73887" lon="5.54918">
        <ele>843</ele>
        <time>2021-07-25T07:34:47Z</time>
      </trkpt>
      <trkpt lat="44.73895" lon="5.54906">
        <ele>846</ele>
        <time>2021-07-25T07:34:48Z</time>
      </trkpt>
      <trkpt lat="44.73903" lon="5.54895">
        <ele>846</ele>
        <time>2021-07-25T07:34:49Z</time>
      </trkpt>
      <trkpt lat="44.73911" lon="5.54886">
        <ele>842</ele>
        <time>2021-07-25T07:34:50Z</time>
      </trkpt>
      <trkpt lat="44.73919" lon="5.54877">
        <ele>842</ele>
        <time>2021-07-25T07:34:51Z</time>
      </trkpt>
      <trkpt lat="44.73928" lon="5.54859">
        <ele>842</ele>
        <time>2021-07-25T07:34:53Z</time>
      </trkpt>
      <trkpt lat="44.73923" lon="5.54838">
        <ele>839</ele>
        <time>2021-07-25T07:34:55Z</time>
      </trkpt>
      <trkpt lat="44.73909" lon="5.54824">
        <ele>839</ele>
        <time>2021-07-25T07:34:57Z</time>
      </trkpt>
      <trkpt lat="44.739" lon="5.54821">
        <ele>839</ele>
        <time>2021-07-25T07:34:58Z</time>
      </trkpt>
      <trkpt lat="44.7389" lon="5.54819">
        <ele>839</ele>
        <time>2021-07-25T07:34:59Z</time>
      </trkpt>
      <trkpt lat="44.73881" lon="5.54817">
        <ele>838</ele>
        <time>2021-07-25T07:35:00Z</time>
      </trkpt>
      <trkpt lat="44.73871" lon="5.54814">
        <ele>838</ele>
        <time>2021-07-25T07:35:01Z</time>
      </trkpt>
      <trkpt lat="44.7386" lon="5.54812">
        <ele>838</ele>
        <time>2021-07-25T07:35:02Z</time>
      </trkpt>
      <trkpt lat="44.7385" lon="5.54813">
        <ele>838</ele>
        <time>2021-07-25T07:35:03Z</time>
      </trkpt>
      <trkpt lat="44.73839" lon="5.54816">
        <ele>838</ele>
        <time>2021-07-25T07:35:04Z</time>
      </trkpt>
      <trkpt lat="44.7383" lon="5.5482">
        <ele>836</ele>
        <time>2021-07-25T07:35:05Z</time>
      </trkpt>
      <trkpt lat="44.7382" lon="5.54825">
        <ele>836</ele>
        <time>2021-07-25T07:35:06Z</time>
      </trkpt>
      <trkpt lat="44.7381" lon="5.5483">
        <ele>836</ele>
        <time>2021-07-25T07:35:07Z</time>
      </trkpt>
      <trkpt lat="44.738" lon="5.54835">
        <ele>836</ele>
        <time>2021-07-25T07:35:08Z</time>
      </trkpt>
      <trkpt lat="44.7379" lon="5.5484">
        <ele>836</ele>
        <time>2021-07-25T07:35:09Z</time>
      </trkpt>
      <trkpt lat="44.7378" lon="5.54846">
        <ele>834</ele>
        <time>2021-07-25T07:35:10Z</time>
      </trkpt>
      <trkpt lat="44.73768" lon="5.54849">
        <ele>834</ele>
        <time>2021-07-25T07:35:11Z</time>
      </trkpt>
      <trkpt lat="44.73757" lon="5.5485">
        <ele>834</ele>
        <time>2021-07-25T07:35:12Z</time>
      </trkpt>
      <trkpt lat="44.73745" lon="5.5485">
        <ele>834</ele>
        <time>2021-07-25T07:35:13Z</time>
      </trkpt>
      <trkpt lat="44.73734" lon="5.54849">
        <ele>834</ele>
        <time>2021-07-25T07:35:14Z</time>
      </trkpt>
      <trkpt lat="44.73722" lon="5.54847">
        <ele>830</ele>
        <time>2021-07-25T07:35:15Z</time>
      </trkpt>
      <trkpt lat="44.7371" lon="5.54846">
        <ele>830</ele>
        <time>2021-07-25T07:35:16Z</time>
      </trkpt>
      <trkpt lat="44.73698" lon="5.54846">
        <ele>830</ele>
        <time>2021-07-25T07:35:17Z</time>
      </trkpt>
      <trkpt lat="44.73686" lon="5.54848">
        <ele>830</ele>
        <time>2021-07-25T07:35:18Z</time>
      </trkpt>
      <trkpt lat="44.73675" lon="5.5485">
        <ele>830</ele>
        <time>2021-07-25T07:35:19Z</time>
      </trkpt>
      <trkpt lat="44.73663" lon="5.54854">
        <ele>827</ele>
        <time>2021-07-25T07:35:20Z</time>
      </trkpt>
      <trkpt lat="44.73653" lon="5.54856">
        <ele>826</ele>
        <time>2021-07-25T07:35:21Z</time>
      </trkpt>
      <trkpt lat="44.73641" lon="5.54856">
        <ele>825</ele>
        <time>2021-07-25T07:35:22Z</time>
      </trkpt>
      <trkpt lat="44.73629" lon="5.54854">
        <ele>823</ele>
        <time>2021-07-25T07:35:23Z</time>
      </trkpt>
      <trkpt lat="44.73617" lon="5.54849">
        <ele>823</ele>
        <time>2021-07-25T07:35:24Z</time>
      </trkpt>
      <trkpt lat="44.73606" lon="5.54842">
        <ele>822</ele>
        <time>2021-07-25T07:35:25Z</time>
      </trkpt>
      <trkpt lat="44.73594" lon="5.54834">
        <ele>822</ele>
        <time>2021-07-25T07:35:26Z</time>
      </trkpt>
      <trkpt lat="44.73583" lon="5.54826">
        <ele>822</ele>
        <time>2021-07-25T07:35:27Z</time>
      </trkpt>
      <trkpt lat="44.73571" lon="5.5482">
        <ele>821</ele>
        <time>2021-07-25T07:35:28Z</time>
      </trkpt>
      <trkpt lat="44.7356" lon="5.54813">
        <ele>820</ele>
        <time>2021-07-25T07:35:29Z</time>
      </trkpt>
      <trkpt lat="44.73549" lon="5.54805">
        <ele>820</ele>
        <time>2021-07-25T07:35:30Z</time>
      </trkpt>
      <trkpt lat="44.73538" lon="5.54797">
        <ele>819</ele>
        <time>2021-07-25T07:35:31Z</time>
      </trkpt>
      <trkpt lat="44.73528" lon="5.54788">
        <ele>818</ele>
        <time>2021-07-25T07:35:32Z</time>
      </trkpt>
      <trkpt lat="44.73517" lon="5.54781">
        <ele>818</ele>
        <time>2021-07-25T07:35:33Z</time>
      </trkpt>
      <trkpt lat="44.73505" lon="5.54774">
        <ele>817</ele>
        <time>2021-07-25T07:35:34Z</time>
      </trkpt>
      <trkpt lat="44.73494" lon="5.54769">
        <ele>816</ele>
        <time>2021-07-25T07:35:35Z</time>
      </trkpt>
      <trkpt lat="44.73482" lon="5.54765">
        <ele>816</ele>
        <time>2021-07-25T07:35:36Z</time>
      </trkpt>
      <trkpt lat="44.7347" lon="5.54761">
        <ele>815</ele>
        <time>2021-07-25T07:35:37Z</time>
      </trkpt>
      <trkpt lat="44.73458" lon="5.54757">
        <ele>815</ele>
        <time>2021-07-25T07:35:38Z</time>
      </trkpt>
      <trkpt lat="44.73446" lon="5.54755">
        <ele>814</ele>
        <time>2021-07-25T07:35:39Z</time>
      </trkpt>
      <trkpt lat="44.73434" lon="5.54753">
        <ele>814</ele>
        <time>2021-07-25T07:35:40Z</time>
      </trkpt>
      <trkpt lat="44.73422" lon="5.54752">
        <ele>813</ele>
        <time>2021-07-25T07:35:41Z</time>
      </trkpt>
      <trkpt lat="44.7341" lon="5.54751">
        <ele>812</ele>
        <time>2021-07-25T07:35:42Z</time>
      </trkpt>
      <trkpt lat="44.73398" lon="5.5475">
        <ele>812</ele>
        <time>2021-07-25T07:35:43Z</time>
      </trkpt>
      <trkpt lat="44.73385" lon="5.54748">
        <ele>811</ele>
        <time>2021-07-25T07:35:44Z</time>
      </trkpt>
      <trkpt lat="44.73373" lon="5.54748">
        <ele>810</ele>
        <time>2021-07-25T07:35:45Z</time>
      </trkpt>
      <trkpt lat="44.73361" lon="5.54749">
        <ele>809</ele>
        <time>2021-07-25T07:35:46Z</time>
      </trkpt>
      <trkpt lat="44.73349" lon="5.54753">
        <ele>808</ele>
        <time>2021-07-25T07:35:47Z</time>
      </trkpt>
      <trkpt lat="44.73337" lon="5.54758">
        <ele>807</ele>
        <time>2021-07-25T07:35:48Z</time>
      </trkpt>
      <trkpt lat="44.73326" lon="5.54765">
        <ele>807</ele>
        <time>2021-07-25T07:35:49Z</time>
      </trkpt>
      <trkpt lat="44.73315" lon="5.54774">
        <ele>806</ele>
        <time>2021-07-25T07:35:50Z</time>
      </trkpt>
      <trkpt lat="44.73305" lon="5.54783">
        <ele>805</ele>
        <time>2021-07-25T07:35:51Z</time>
      </trkpt>
      <trkpt lat="44.73295" lon="5.54791">
        <ele>805</ele>
        <time>2021-07-25T07:35:52Z</time>
      </trkpt>
      <trkpt lat="44.73284" lon="5.54798">
        <ele>804</ele>
        <time>2021-07-25T07:35:53Z</time>
      </trkpt>
      <trkpt lat="44.73272" lon="5.54804">
        <ele>804</ele>
        <time>2021-07-25T07:35:54Z</time>
      </trkpt>
      <trkpt lat="44.73261" lon="5.54812">
        <ele>803</ele>
        <time>2021-07-25T07:35:55Z</time>
      </trkpt>
      <trkpt lat="44.73251" lon="5.54821">
        <ele>802</ele>
        <time>2021-07-25T07:35:56Z</time>
      </trkpt>
      <trkpt lat="44.73242" lon="5.54832">
        <ele>802</ele>
        <time>2021-07-25T07:35:57Z</time>
      </trkpt>
      <trkpt lat="44.73234" lon="5.54841">
        <ele>801</ele>
        <time>2021-07-25T07:35:58Z</time>
      </trkpt>
      <trkpt lat="44.73226" lon="5.5485">
        <ele>801</ele>
        <time>2021-07-25T07:35:59Z</time>
      </trkpt>
      <trkpt lat="44.73208" lon="5.54859">
        <ele>799</ele>
        <time>2021-07-25T07:36:01Z</time>
      </trkpt>
      <trkpt lat="44.73196" lon="5.54856">
        <ele>798</ele>
        <time>2021-07-25T07:36:02Z</time>
      </trkpt>
      <trkpt lat="44.73186" lon="5.54849">
        <ele>798</ele>
        <time>2021-07-25T07:36:03Z</time>
      </trkpt>
      <trkpt lat="44.73176" lon="5.5484">
        <ele>798</ele>
        <time>2021-07-25T07:36:04Z</time>
      </trkpt>
      <trkpt lat="44.73166" lon="5.54832">
        <ele>797</ele>
        <time>2021-07-25T07:36:05Z</time>
      </trkpt>
      <trkpt lat="44.73157" lon="5.54823">
        <ele>796</ele>
        <time>2021-07-25T07:36:06Z</time>
      </trkpt>
      <trkpt lat="44.73147" lon="5.54814">
        <ele>795</ele>
        <time>2021-07-25T07:36:07Z</time>
      </trkpt>
      <trkpt lat="44.73138" lon="5.54806">
        <ele>794</ele>
        <time>2021-07-25T07:36:08Z</time>
      </trkpt>
      <trkpt lat="44.73128" lon="5.54797">
        <ele>793</ele>
        <time>2021-07-25T07:36:09Z</time>
      </trkpt>
      <trkpt lat="44.73118" lon="5.54789">
        <ele>793</ele>
        <time>2021-07-25T07:36:10Z</time>
      </trkpt>
      <trkpt lat="44.73108" lon="5.54781">
        <ele>792</ele>
        <time>2021-07-25T07:36:11Z</time>
      </trkpt>
      <trkpt lat="44.73098" lon="5.54775">
        <ele>791</ele>
        <time>2021-07-25T07:36:12Z</time>
      </trkpt>
      <trkpt lat="44.73087" lon="5.5477">
        <ele>791</ele>
        <time>2021-07-25T07:36:13Z</time>
      </trkpt>
      <trkpt lat="44.73076" lon="5.54769">
        <ele>791</ele>
        <time>2021-07-25T07:36:14Z</time>
      </trkpt>
      <trkpt lat="44.73065" lon="5.54769">
        <ele>790</ele>
        <time>2021-07-25T07:36:15Z</time>
      </trkpt>
      <trkpt lat="44.73054" lon="5.54771">
        <ele>790</ele>
        <time>2021-07-25T07:36:16Z</time>
      </trkpt>
      <trkpt lat="44.73043" lon="5.54774">
        <ele>790</ele>
        <time>2021-07-25T07:36:17Z</time>
      </trkpt>
      <trkpt lat="44.73031" lon="5.54777">
        <ele>789</ele>
        <time>2021-07-25T07:36:18Z</time>
      </trkpt>
      <trkpt lat="44.7302" lon="5.54781">
        <ele>788</ele>
        <time>2021-07-25T07:36:19Z</time>
      </trkpt>
      <trkpt lat="44.73009" lon="5.54784">
        <ele>787</ele>
        <time>2021-07-25T07:36:20Z</time>
      </trkpt>
      <trkpt lat="44.72998" lon="5.54788">
        <ele>786</ele>
        <time>2021-07-25T07:36:21Z</time>
      </trkpt>
      <trkpt lat="44.72987" lon="5.54792">
        <ele>786</ele>
        <time>2021-07-25T07:36:22Z</time>
      </trkpt>
      <trkpt lat="44.72976" lon="5.54796">
        <ele>785</ele>
        <time>2021-07-25T07:36:23Z</time>
      </trkpt>
      <trkpt lat="44.72965" lon="5.54802">
        <ele>784</ele>
        <time>2021-07-25T07:36:24Z</time>
      </trkpt>
      <trkpt lat="44.72955" lon="5.54807">
        <ele>783</ele>
        <time>2021-07-25T07:36:25Z</time>
      </trkpt>
      <trkpt lat="44.72943" lon="5.54809">
        <ele>783</ele>
        <time>2021-07-25T07:36:26Z</time>
      </trkpt>
      <trkpt lat="44.72931" lon="5.54808">
        <ele>782</ele>
        <time>2021-07-25T07:36:27Z</time>
      </trkpt>
      <trkpt lat="44.72918" lon="5.54806">
        <ele>781</ele>
        <time>2021-07-25T07:36:28Z</time>
      </trkpt>
      <trkpt lat="44.72906" lon="5.54803">
        <ele>780</ele>
        <time>2021-07-25T07:36:29Z</time>
      </trkpt>
      <trkpt lat="44.72894" lon="5.548">
        <ele>779</ele>
        <time>2021-07-25T07:36:30Z</time>
      </trkpt>
      <trkpt lat="44.72881" lon="5.54797">
        <ele>779</ele>
        <time>2021-07-25T07:36:31Z</time>
      </trkpt>
      <trkpt lat="44.72869" lon="5.54794">
        <ele>779</ele>
        <time>2021-07-25T07:36:32Z</time>
      </trkpt>
      <trkpt lat="44.72857" lon="5.54791">
        <ele>778</ele>
        <time>2021-07-25T07:36:33Z</time>
      </trkpt>
      <trkpt lat="44.72845" lon="5.5479">
        <ele>778</ele>
        <time>2021-07-25T07:36:34Z</time>
      </trkpt>
      <trkpt lat="44.72834" lon="5.54789">
        <ele>777</ele>
        <time>2021-07-25T07:36:35Z</time>
      </trkpt>
      <trkpt lat="44.72822" lon="5.54787">
        <ele>776</ele>
        <time>2021-07-25T07:36:36Z</time>
      </trkpt>
      <trkpt lat="44.72811" lon="5.54784">
        <ele>775</ele>
        <time>2021-07-25T07:36:37Z</time>
      </trkpt>
      <trkpt lat="44.72799" lon="5.5478">
        <ele>774</ele>
        <time>2021-07-25T07:36:38Z</time>
      </trkpt>
      <trkpt lat="44.72788" lon="5.54774">
        <ele>774</ele>
        <time>2021-07-25T07:36:39Z</time>
      </trkpt>
      <trkpt lat="44.72778" lon="5.54767">
        <ele>774</ele>
        <time>2021-07-25T07:36:40Z</time>
      </trkpt>
      <trkpt lat="44.72768" lon="5.54759">
        <ele>774</ele>
        <time>2021-07-25T07:36:41Z</time>
      </trkpt>
      <trkpt lat="44.72759" lon="5.54751">
        <ele>774</ele>
        <time>2021-07-25T07:36:42Z</time>
      </trkpt>
      <trkpt lat="44.72749" lon="5.54744">
        <ele>773</ele>
        <time>2021-07-25T07:36:43Z</time>
      </trkpt>
      <trkpt lat="44.72739" lon="5.54738">
        <ele>773</ele>
        <time>2021-07-25T07:36:44Z</time>
      </trkpt>
      <trkpt lat="44.7273" lon="5.54733">
        <ele>772</ele>
        <time>2021-07-25T07:36:45Z</time>
      </trkpt>
      <trkpt lat="44.7272" lon="5.54728">
        <ele>773</ele>
        <time>2021-07-25T07:36:46Z</time>
      </trkpt>
      <trkpt lat="44.7271" lon="5.54723">
        <ele>773</ele>
        <time>2021-07-25T07:36:47Z</time>
      </trkpt>
      <trkpt lat="44.727" lon="5.54719">
        <ele>773</ele>
        <time>2021-07-25T07:36:48Z</time>
      </trkpt>
      <trkpt lat="44.7269" lon="5.54715">
        <ele>773</ele>
        <time>2021-07-25T07:36:49Z</time>
      </trkpt>
      <trkpt lat="44.7268" lon="5.54712">
        <ele>773</ele>
        <time>2021-07-25T07:36:50Z</time>
      </trkpt>
      <trkpt lat="44.7267" lon="5.54709">
        <ele>773</ele>
        <time>2021-07-25T07:36:51Z</time>
      </trkpt>
      <trkpt lat="44.7266" lon="5.54707">
        <ele>773</ele>
        <time>2021-07-25T07:36:52Z</time>
      </trkpt>
      <trkpt lat="44.7265" lon="5.54707">
        <ele>773</ele>
        <time>2021-07-25T07:36:53Z</time>
      </trkpt>
      <trkpt lat="44.7264" lon="5.54709">
        <ele>773</ele>
        <time>2021-07-25T07:36:54Z</time>
      </trkpt>
      <trkpt lat="44.7263" lon="5.54711">
        <ele>773</ele>
        <time>2021-07-25T07:36:55Z</time>
      </trkpt>
      <trkpt lat="44.72619" lon="5.5471">
        <ele>773</ele>
        <time>2021-07-25T07:36:56Z</time>
      </trkpt>
      <trkpt lat="44.72609" lon="5.54708">
        <ele>773</ele>
        <time>2021-07-25T07:36:57Z</time>
      </trkpt>
      <trkpt lat="44.72598" lon="5.54705">
        <ele>773</ele>
        <time>2021-07-25T07:36:58Z</time>
      </trkpt>
      <trkpt lat="44.72588" lon="5.54702">
        <ele>773</ele>
        <time>2021-07-25T07:36:59Z</time>
      </trkpt>
      <trkpt lat="44.72577" lon="5.54698">
        <ele>767</ele>
        <time>2021-07-25T07:37:00Z</time>
      </trkpt>
      <trkpt lat="44.72566" lon="5.54692">
        <ele>767</ele>
        <time>2021-07-25T07:37:01Z</time>
      </trkpt>
      <trkpt lat="44.72556" lon="5.54683">
        <ele>767</ele>
        <time>2021-07-25T07:37:02Z</time>
      </trkpt>
      <trkpt lat="44.72547" lon="5.54674">
        <ele>767</ele>
        <time>2021-07-25T07:37:03Z</time>
      </trkpt>
      <trkpt lat="44.72537" lon="5.54664">
        <ele>766</ele>
        <time>2021-07-25T07:37:04Z</time>
      </trkpt>
      <trkpt lat="44.72528" lon="5.54654">
        <ele>765</ele>
        <time>2021-07-25T07:37:05Z</time>
      </trkpt>
      <trkpt lat="44.72519" lon="5.54645">
        <ele>765</ele>
        <time>2021-07-25T07:37:06Z</time>
      </trkpt>
      <trkpt lat="44.72509" lon="5.54635">
        <ele>764</ele>
        <time>2021-07-25T07:37:07Z</time>
      </trkpt>
      <trkpt lat="44.725" lon="5.54627">
        <ele>764</ele>
        <time>2021-07-25T07:37:08Z</time>
      </trkpt>
      <trkpt lat="44.7249" lon="5.54618">
        <ele>763</ele>
        <time>2021-07-25T07:37:09Z</time>
      </trkpt>
      <trkpt lat="44.72481" lon="5.54607">
        <ele>762</ele>
        <time>2021-07-25T07:37:10Z</time>
      </trkpt>
      <trkpt lat="44.72473" lon="5.54596">
        <ele>761</ele>
        <time>2021-07-25T07:37:11Z</time>
      </trkpt>
      <trkpt lat="44.72467" lon="5.54583">
        <ele>761</ele>
        <time>2021-07-25T07:37:12Z</time>
      </trkpt>
      <trkpt lat="44.72463" lon="5.54568">
        <ele>761</ele>
        <time>2021-07-25T07:37:13Z</time>
      </trkpt>
      <trkpt lat="44.72461" lon="5.54553">
        <ele>760</ele>
        <time>2021-07-25T07:37:14Z</time>
      </trkpt>
      <trkpt lat="44.7246" lon="5.54536">
        <ele>759</ele>
        <time>2021-07-25T07:37:15Z</time>
      </trkpt>
      <trkpt lat="44.7246" lon="5.5452">
        <ele>758</ele>
        <time>2021-07-25T07:37:16Z</time>
      </trkpt>
      <trkpt lat="44.72459" lon="5.54504">
        <ele>759</ele>
        <time>2021-07-25T07:37:17Z</time>
      </trkpt>
      <trkpt lat="44.72459" lon="5.54488">
        <ele>758</ele>
        <time>2021-07-25T07:37:18Z</time>
      </trkpt>
      <trkpt lat="44.72458" lon="5.54471">
        <ele>757</ele>
        <time>2021-07-25T07:37:19Z</time>
      </trkpt>
      <trkpt lat="44.72458" lon="5.54456">
        <ele>756</ele>
        <time>2021-07-25T07:37:20Z</time>
      </trkpt>
      <trkpt lat="44.72457" lon="5.54439">
        <ele>755</ele>
        <time>2021-07-25T07:37:21Z</time>
      </trkpt>
      <trkpt lat="44.72456" lon="5.54423">
        <ele>755</ele>
        <time>2021-07-25T07:37:22Z</time>
      </trkpt>
      <trkpt lat="44.72455" lon="5.54408">
        <ele>754</ele>
        <time>2021-07-25T07:37:23Z</time>
      </trkpt>
      <trkpt lat="44.72452" lon="5.54393">
        <ele>753</ele>
        <time>2021-07-25T07:37:24Z</time>
      </trkpt>
      <trkpt lat="44.72447" lon="5.54379">
        <ele>753</ele>
        <time>2021-07-25T07:37:25Z</time>
      </trkpt>
      <trkpt lat="44.72441" lon="5.54365">
        <ele>753</ele>
        <time>2021-07-25T07:37:26Z</time>
      </trkpt>
      <trkpt lat="44.72436" lon="5.5435">
        <ele>752</ele>
        <time>2021-07-25T07:37:27Z</time>
      </trkpt>
      <trkpt lat="44.72432" lon="5.54335">
        <ele>752</ele>
        <time>2021-07-25T07:37:28Z</time>
      </trkpt>
      <trkpt lat="44.72428" lon="5.54319">
        <ele>752</ele>
        <time>2021-07-25T07:37:29Z</time>
      </trkpt>
      <trkpt lat="44.72423" lon="5.54304">
        <ele>751</ele>
        <time>2021-07-25T07:37:30Z</time>
      </trkpt>
      <trkpt lat="44.72416" lon="5.54291">
        <ele>750</ele>
        <time>2021-07-25T07:37:31Z</time>
      </trkpt>
      <trkpt lat="44.72407" lon="5.5428">
        <ele>749</ele>
        <time>2021-07-25T07:37:32Z</time>
      </trkpt>
      <trkpt lat="44.72398" lon="5.54268">
        <ele>749</ele>
        <time>2021-07-25T07:37:33Z</time>
      </trkpt>
      <trkpt lat="44.7239" lon="5.54256">
        <ele>749</ele>
        <time>2021-07-25T07:37:34Z</time>
      </trkpt>
      <trkpt lat="44.72383" lon="5.54242">
        <ele>748</ele>
        <time>2021-07-25T07:37:35Z</time>
      </trkpt>
      <trkpt lat="44.72377" lon="5.54228">
        <ele>747</ele>
        <time>2021-07-25T07:37:36Z</time>
      </trkpt>
      <trkpt lat="44.72372" lon="5.54213">
        <ele>746</ele>
        <time>2021-07-25T07:37:37Z</time>
      </trkpt>
      <trkpt lat="44.72368" lon="5.54197">
        <ele>745</ele>
        <time>2021-07-25T07:37:38Z</time>
      </trkpt>
      <trkpt lat="44.72363" lon="5.54183">
        <ele>745</ele>
        <time>2021-07-25T07:37:39Z</time>
      </trkpt>
      <trkpt lat="44.72356" lon="5.5417">
        <ele>744</ele>
        <time>2021-07-25T07:37:40Z</time>
      </trkpt>
      <trkpt lat="44.72347" lon="5.54157">
        <ele>743</ele>
        <time>2021-07-25T07:37:41Z</time>
      </trkpt>
      <trkpt lat="44.72339" lon="5.54145">
        <ele>742</ele>
        <time>2021-07-25T07:37:42Z</time>
      </trkpt>
      <trkpt lat="44.72332" lon="5.54133">
        <ele>742</ele>
        <time>2021-07-25T07:37:43Z</time>
      </trkpt>
      <trkpt lat="44.72325" lon="5.5412">
        <ele>741</ele>
        <time>2021-07-25T07:37:44Z</time>
      </trkpt>
      <trkpt lat="44.72319" lon="5.54109">
        <ele>740</ele>
        <time>2021-07-25T07:37:45Z</time>
      </trkpt>
      <trkpt lat="44.72311" lon="5.54092">
        <ele>739</ele>
        <time>2021-07-25T07:37:47Z</time>
      </trkpt>
      <trkpt lat="44.72299" lon="5.54091">
        <ele>736</ele>
        <time>2021-07-25T07:37:49Z</time>
      </trkpt>
      <trkpt lat="44.72297" lon="5.54108">
        <ele>737</ele>
        <time>2021-07-25T07:37:51Z</time>
      </trkpt>
      <trkpt lat="44.72304" lon="5.54124">
        <ele>736</ele>
        <time>2021-07-25T07:37:53Z</time>
      </trkpt>
      <trkpt lat="44.72313" lon="5.54144">
        <ele>736</ele>
        <time>2021-07-25T07:37:55Z</time>
      </trkpt>
      <trkpt lat="44.72319" lon="5.54155">
        <ele>735</ele>
        <time>2021-07-25T07:37:56Z</time>
      </trkpt>
      <trkpt lat="44.72328" lon="5.54171">
        <ele>735</ele>
        <time>2021-07-25T07:37:57Z</time>
      </trkpt>
      <trkpt lat="44.72334" lon="5.54185">
        <ele>735</ele>
        <time>2021-07-25T07:37:58Z</time>
      </trkpt>
      <trkpt lat="44.72339" lon="5.54199">
        <ele>735</ele>
        <time>2021-07-25T07:37:59Z</time>
      </trkpt>
      <trkpt lat="44.72343" lon="5.54215">
        <ele>734</ele>
        <time>2021-07-25T07:38:00Z</time>
      </trkpt>
      <trkpt lat="44.7235" lon="5.54229">
        <ele>734</ele>
        <time>2021-07-25T07:38:01Z</time>
      </trkpt>
      <trkpt lat="44.72355" lon="5.54244">
        <ele>734</ele>
        <time>2021-07-25T07:38:02Z</time>
      </trkpt>
      <trkpt lat="44.72361" lon="5.54259">
        <ele>734</ele>
        <time>2021-07-25T07:38:03Z</time>
      </trkpt>
      <trkpt lat="44.72366" lon="5.54273">
        <ele>734</ele>
        <time>2021-07-25T07:38:04Z</time>
      </trkpt>
      <trkpt lat="44.72372" lon="5.54288">
        <ele>731</ele>
        <time>2021-07-25T07:38:05Z</time>
      </trkpt>
      <trkpt lat="44.72378" lon="5.54302">
        <ele>731</ele>
        <time>2021-07-25T07:38:06Z</time>
      </trkpt>
      <trkpt lat="44.72384" lon="5.54318">
        <ele>731</ele>
        <time>2021-07-25T07:38:07Z</time>
      </trkpt>
      <trkpt lat="44.72387" lon="5.54335">
        <ele>731</ele>
        <time>2021-07-25T07:38:08Z</time>
      </trkpt>
      <trkpt lat="44.72388" lon="5.54352">
        <ele>731</ele>
        <time>2021-07-25T07:38:09Z</time>
      </trkpt>
      <trkpt lat="44.72389" lon="5.54369">
        <ele>728</ele>
        <time>2021-07-25T07:38:10Z</time>
      </trkpt>
      <trkpt lat="44.72391" lon="5.54386">
        <ele>726</ele>
        <time>2021-07-25T07:38:11Z</time>
      </trkpt>
      <trkpt lat="44.72393" lon="5.54403">
        <ele>726</ele>
        <time>2021-07-25T07:38:12Z</time>
      </trkpt>
      <trkpt lat="44.72396" lon="5.54418">
        <ele>725</ele>
        <time>2021-07-25T07:38:13Z</time>
      </trkpt>
      <trkpt lat="44.72402" lon="5.54432">
        <ele>724</ele>
        <time>2021-07-25T07:38:14Z</time>
      </trkpt>
      <trkpt lat="44.72407" lon="5.54444">
        <ele>723</ele>
        <time>2021-07-25T07:38:15Z</time>
      </trkpt>
      <trkpt lat="44.72412" lon="5.54464">
        <ele>721</ele>
        <time>2021-07-25T07:38:17Z</time>
      </trkpt>
      <trkpt lat="44.72399" lon="5.54467">
        <ele>721</ele>
        <time>2021-07-25T07:38:18Z</time>
      </trkpt>
      <trkpt lat="44.72386" lon="5.54457">
        <ele>720</ele>
        <time>2021-07-25T07:38:20Z</time>
      </trkpt>
      <trkpt lat="44.72378" lon="5.54435">
        <ele>719</ele>
        <time>2021-07-25T07:38:22Z</time>
      </trkpt>
      <trkpt lat="44.72372" lon="5.5441">
        <ele>719</ele>
        <time>2021-07-25T07:38:24Z</time>
      </trkpt>
      <trkpt lat="44.72365" lon="5.54383">
        <ele>717</ele>
        <time>2021-07-25T07:38:26Z</time>
      </trkpt>
      <trkpt lat="44.72361" lon="5.5437">
        <ele>716</ele>
        <time>2021-07-25T07:38:27Z</time>
      </trkpt>
      <trkpt lat="44.72357" lon="5.54356">
        <ele>716</ele>
        <time>2021-07-25T07:38:28Z</time>
      </trkpt>
      <trkpt lat="44.72352" lon="5.54343">
        <ele>717</ele>
        <time>2021-07-25T07:38:29Z</time>
      </trkpt>
      <trkpt lat="44.72348" lon="5.54329">
        <ele>716</ele>
        <time>2021-07-25T07:38:30Z</time>
      </trkpt>
      <trkpt lat="44.72343" lon="5.54316">
        <ele>716</ele>
        <time>2021-07-25T07:38:31Z</time>
      </trkpt>
      <trkpt lat="44.72339" lon="5.54302">
        <ele>716</ele>
        <time>2021-07-25T07:38:32Z</time>
      </trkpt>
      <trkpt lat="44.72334" lon="5.54289">
        <ele>716</ele>
        <time>2021-07-25T07:38:33Z</time>
      </trkpt>
      <trkpt lat="44.72328" lon="5.54276">
        <ele>716</ele>
        <time>2021-07-25T07:38:34Z</time>
      </trkpt>
      <trkpt lat="44.72321" lon="5.54264">
        <ele>714</ele>
        <time>2021-07-25T07:38:35Z</time>
      </trkpt>
      <trkpt lat="44.72314" lon="5.54253">
        <ele>714</ele>
        <time>2021-07-25T07:38:36Z</time>
      </trkpt>
      <trkpt lat="44.72306" lon="5.54242">
        <ele>714</ele>
        <time>2021-07-25T07:38:37Z</time>
      </trkpt>
      <trkpt lat="44.723" lon="5.5423">
        <ele>714</ele>
        <time>2021-07-25T07:38:38Z</time>
      </trkpt>
      <trkpt lat="44.72293" lon="5.54218">
        <ele>714</ele>
        <time>2021-07-25T07:38:39Z</time>
      </trkpt>
      <trkpt lat="44.72288" lon="5.54205">
        <ele>712</ele>
        <time>2021-07-25T07:38:40Z</time>
      </trkpt>
      <trkpt lat="44.72283" lon="5.54192">
        <ele>712</ele>
        <time>2021-07-25T07:38:41Z</time>
      </trkpt>
      <trkpt lat="44.72277" lon="5.54179">
        <ele>712</ele>
        <time>2021-07-25T07:38:42Z</time>
      </trkpt>
      <trkpt lat="44.72271" lon="5.54168">
        <ele>712</ele>
        <time>2021-07-25T07:38:43Z</time>
      </trkpt>
      <trkpt lat="44.72264" lon="5.54157">
        <ele>712</ele>
        <time>2021-07-25T07:38:44Z</time>
      </trkpt>
      <trkpt lat="44.72257" lon="5.54146">
        <ele>708</ele>
        <time>2021-07-25T07:38:45Z</time>
      </trkpt>
      <trkpt lat="44.72249" lon="5.54135">
        <ele>708</ele>
        <time>2021-07-25T07:38:46Z</time>
      </trkpt>
      <trkpt lat="44.72241" lon="5.54124">
        <ele>708</ele>
        <time>2021-07-25T07:38:47Z</time>
      </trkpt>
      <trkpt lat="44.72233" lon="5.54114">
        <ele>708</ele>
        <time>2021-07-25T07:38:48Z</time>
      </trkpt>
      <trkpt lat="44.72224" lon="5.54105">
        <ele>708</ele>
        <time>2021-07-25T07:38:49Z</time>
      </trkpt>
      <trkpt lat="44.72215" lon="5.54097">
        <ele>707</ele>
        <time>2021-07-25T07:38:50Z</time>
      </trkpt>
      <trkpt lat="44.72207" lon="5.54088">
        <ele>707</ele>
        <time>2021-07-25T07:38:51Z</time>
      </trkpt>
      <trkpt lat="44.72199" lon="5.54078">
        <ele>707</ele>
        <time>2021-07-25T07:38:52Z</time>
      </trkpt>
      <trkpt lat="44.72192" lon="5.54066">
        <ele>707</ele>
        <time>2021-07-25T07:38:53Z</time>
      </trkpt>
      <trkpt lat="44.72186" lon="5.54054">
        <ele>707</ele>
        <time>2021-07-25T07:38:54Z</time>
      </trkpt>
      <trkpt lat="44.72179" lon="5.54043">
        <ele>705</ele>
        <time>2021-07-25T07:38:55Z</time>
      </trkpt>
      <trkpt lat="44.72171" lon="5.54032">
        <ele>705</ele>
        <time>2021-07-25T07:38:56Z</time>
      </trkpt>
      <trkpt lat="44.72164" lon="5.54022">
        <ele>705</ele>
        <time>2021-07-25T07:38:57Z</time>
      </trkpt>
      <trkpt lat="44.72156" lon="5.54012">
        <ele>705</ele>
        <time>2021-07-25T07:38:58Z</time>
      </trkpt>
      <trkpt lat="44.72149" lon="5.54001">
        <ele>705</ele>
        <time>2021-07-25T07:38:59Z</time>
      </trkpt>
      <trkpt lat="44.72143" lon="5.53988">
        <ele>701</ele>
        <time>2021-07-25T07:39:00Z</time>
      </trkpt>
      <trkpt lat="44.72138" lon="5.53976">
        <ele>701</ele>
        <time>2021-07-25T07:39:01Z</time>
      </trkpt>
      <trkpt lat="44.72134" lon="5.53962">
        <ele>701</ele>
        <time>2021-07-25T07:39:02Z</time>
      </trkpt>
      <trkpt lat="44.72131" lon="5.53948">
        <ele>700</ele>
        <time>2021-07-25T07:39:03Z</time>
      </trkpt>
      <trkpt lat="44.72128" lon="5.53934">
        <ele>699</ele>
        <time>2021-07-25T07:39:04Z</time>
      </trkpt>
      <trkpt lat="44.72127" lon="5.53921">
        <ele>699</ele>
        <time>2021-07-25T07:39:05Z</time>
      </trkpt>
      <trkpt lat="44.72126" lon="5.53906">
        <ele>699</ele>
        <time>2021-07-25T07:39:06Z</time>
      </trkpt>
      <trkpt lat="44.72125" lon="5.53892">
        <ele>698</ele>
        <time>2021-07-25T07:39:07Z</time>
      </trkpt>
      <trkpt lat="44.72123" lon="5.53878">
        <ele>698</ele>
        <time>2021-07-25T07:39:08Z</time>
      </trkpt>
      <trkpt lat="44.72123" lon="5.53864">
        <ele>698</ele>
        <time>2021-07-25T07:39:09Z</time>
      </trkpt>
      <trkpt lat="44.72123" lon="5.5385">
        <ele>698</ele>
        <time>2021-07-25T07:39:10Z</time>
      </trkpt>
      <trkpt lat="44.72126" lon="5.53822">
        <ele>698</ele>
        <time>2021-07-25T07:39:12Z</time>
      </trkpt>
      <trkpt lat="44.72129" lon="5.53809">
        <ele>698</ele>
        <time>2021-07-25T07:39:13Z</time>
      </trkpt>
      <trkpt lat="44.72131" lon="5.53796">
        <ele>698</ele>
        <time>2021-07-25T07:39:14Z</time>
      </trkpt>
      <trkpt lat="44.72134" lon="5.53783">
        <ele>696</ele>
        <time>2021-07-25T07:39:15Z</time>
      </trkpt>
      <trkpt lat="44.72135" lon="5.5377">
        <ele>696</ele>
        <time>2021-07-25T07:39:16Z</time>
      </trkpt>
      <trkpt lat="44.72133" lon="5.53744">
        <ele>696</ele>
        <time>2021-07-25T07:39:18Z</time>
      </trkpt>
      <trkpt lat="44.72125" lon="5.53719">
        <ele>695</ele>
        <time>2021-07-25T07:39:20Z</time>
      </trkpt>
      <trkpt lat="44.72115" lon="5.53695">
        <ele>695</ele>
        <time>2021-07-25T07:39:22Z</time>
      </trkpt>
      <trkpt lat="44.72103" lon="5.53676">
        <ele>695</ele>
        <time>2021-07-25T07:39:24Z</time>
      </trkpt>
      <trkpt lat="44.72091" lon="5.53658">
        <ele>693</ele>
        <time>2021-07-25T07:39:26Z</time>
      </trkpt>
      <trkpt lat="44.72078" lon="5.53638">
        <ele>693</ele>
        <time>2021-07-25T07:39:28Z</time>
      </trkpt>
      <trkpt lat="44.72065" lon="5.5362">
        <ele>693</ele>
        <time>2021-07-25T07:39:30Z</time>
      </trkpt>
      <trkpt lat="44.72049" lon="5.53608">
        <ele>693</ele>
        <time>2021-07-25T07:39:32Z</time>
      </trkpt>
      <trkpt lat="44.72032" lon="5.53601">
        <ele>693</ele>
        <time>2021-07-25T07:39:34Z</time>
      </trkpt>
      <trkpt lat="44.72013" lon="5.53594">
        <ele>692</ele>
        <time>2021-07-25T07:39:36Z</time>
      </trkpt>
      <trkpt lat="44.71996" lon="5.53583">
        <ele>692</ele>
        <time>2021-07-25T07:39:38Z</time>
      </trkpt>
      <trkpt lat="44.71983" lon="5.53564">
        <ele>690</ele>
        <time>2021-07-25T07:39:40Z</time>
      </trkpt>
      <trkpt lat="44.71972" lon="5.53543">
        <ele>690</ele>
        <time>2021-07-25T07:39:42Z</time>
      </trkpt>
      <trkpt lat="44.7196" lon="5.53523">
        <ele>690</ele>
        <time>2021-07-25T07:39:44Z</time>
      </trkpt>
      <trkpt lat="44.71945" lon="5.53505">
        <ele>687</ele>
        <time>2021-07-25T07:39:46Z</time>
      </trkpt>
      <trkpt lat="44.71927" lon="5.53493">
        <ele>687</ele>
        <time>2021-07-25T07:39:48Z</time>
      </trkpt>
      <trkpt lat="44.71909" lon="5.53481">
        <ele>687</ele>
        <time>2021-07-25T07:39:50Z</time>
      </trkpt>
      <trkpt lat="44.719" lon="5.53476">
        <ele>687</ele>
        <time>2021-07-25T07:39:51Z</time>
      </trkpt>
      <trkpt lat="44.7189" lon="5.53472">
        <ele>687</ele>
        <time>2021-07-25T07:39:52Z</time>
      </trkpt>
      <trkpt lat="44.7188" lon="5.53469">
        <ele>687</ele>
        <time>2021-07-25T07:39:53Z</time>
      </trkpt>
      <trkpt lat="44.7187" lon="5.53466">
        <ele>687</ele>
        <time>2021-07-25T07:39:54Z</time>
      </trkpt>
      <trkpt lat="44.7186" lon="5.53464">
        <ele>685</ele>
        <time>2021-07-25T07:39:55Z</time>
      </trkpt>
      <trkpt lat="44.7185" lon="5.53462">
        <ele>685</ele>
        <time>2021-07-25T07:39:56Z</time>
      </trkpt>
      <trkpt lat="44.7184" lon="5.53459">
        <ele>685</ele>
        <time>2021-07-25T07:39:57Z</time>
      </trkpt>
      <trkpt lat="44.71821" lon="5.53452">
        <ele>685</ele>
        <time>2021-07-25T07:39:59Z</time>
      </trkpt>
      <trkpt lat="44.71804" lon="5.53441">
        <ele>683</ele>
        <time>2021-07-25T07:40:01Z</time>
      </trkpt>
      <trkpt lat="44.71791" lon="5.53424">
        <ele>683</ele>
        <time>2021-07-25T07:40:03Z</time>
      </trkpt>
      <trkpt lat="44.71781" lon="5.53405">
        <ele>683</ele>
        <time>2021-07-25T07:40:05Z</time>
      </trkpt>
      <trkpt lat="44.71771" lon="5.53387">
        <ele>683</ele>
        <time>2021-07-25T07:40:07Z</time>
      </trkpt>
      <trkpt lat="44.71761" lon="5.53369">
        <ele>683</ele>
        <time>2021-07-25T07:40:09Z</time>
      </trkpt>
      <trkpt lat="44.71751" lon="5.53351">
        <ele>683</ele>
        <time>2021-07-25T07:40:11Z</time>
      </trkpt>
      <trkpt lat="44.71741" lon="5.53332">
        <ele>683</ele>
        <time>2021-07-25T07:40:13Z</time>
      </trkpt>
      <trkpt lat="44.7173" lon="5.53314">
        <ele>683</ele>
        <time>2021-07-25T07:40:15Z</time>
      </trkpt>
      <trkpt lat="44.71716" lon="5.53297">
        <ele>683</ele>
        <time>2021-07-25T07:40:17Z</time>
      </trkpt>
      <trkpt lat="44.717" lon="5.53279">
        <ele>683</ele>
        <time>2021-07-25T07:40:19Z</time>
      </trkpt>
      <trkpt lat="44.71692" lon="5.53271">
        <ele>681</ele>
        <time>2021-07-25T07:40:20Z</time>
      </trkpt>
      <trkpt lat="44.71685" lon="5.53261">
        <ele>681</ele>
        <time>2021-07-25T07:40:21Z</time>
      </trkpt>
      <trkpt lat="44.71677" lon="5.53251">
        <ele>681</ele>
        <time>2021-07-25T07:40:22Z</time>
      </trkpt>
      <trkpt lat="44.7167" lon="5.53241">
        <ele>681</ele>
        <time>2021-07-25T07:40:23Z</time>
      </trkpt>
      <trkpt lat="44.71662" lon="5.5323">
        <ele>681</ele>
        <time>2021-07-25T07:40:24Z</time>
      </trkpt>
      <trkpt lat="44.71655" lon="5.53221">
        <ele>678</ele>
        <time>2021-07-25T07:40:25Z</time>
      </trkpt>
      <trkpt lat="44.71646" lon="5.53212">
        <ele>678</ele>
        <time>2021-07-25T07:40:26Z</time>
      </trkpt>
      <trkpt lat="44.71637" lon="5.53204">
        <ele>678</ele>
        <time>2021-07-25T07:40:27Z</time>
      </trkpt>
      <trkpt lat="44.71627" lon="5.53197">
        <ele>678</ele>
        <time>2021-07-25T07:40:28Z</time>
      </trkpt>
      <trkpt lat="44.71617" lon="5.5319">
        <ele>678</ele>
        <time>2021-07-25T07:40:29Z</time>
      </trkpt>
      <trkpt lat="44.71608" lon="5.53182">
        <ele>675</ele>
        <time>2021-07-25T07:40:30Z</time>
      </trkpt>
      <trkpt lat="44.716" lon="5.53172">
        <ele>675</ele>
        <time>2021-07-25T07:40:31Z</time>
      </trkpt>
      <trkpt lat="44.71594" lon="5.5316">
        <ele>674</ele>
        <time>2021-07-25T07:40:32Z</time>
      </trkpt>
      <trkpt lat="44.7159" lon="5.53146">
        <ele>673</ele>
        <time>2021-07-25T07:40:33Z</time>
      </trkpt>
      <trkpt lat="44.71587" lon="5.53132">
        <ele>672</ele>
        <time>2021-07-25T07:40:34Z</time>
      </trkpt>
      <trkpt lat="44.71584" lon="5.53117">
        <ele>671</ele>
        <time>2021-07-25T07:40:35Z</time>
      </trkpt>
      <trkpt lat="44.7158" lon="5.53103">
        <ele>670</ele>
        <time>2021-07-25T07:40:36Z</time>
      </trkpt>
      <trkpt lat="44.71578" lon="5.53089">
        <ele>670</ele>
        <time>2021-07-25T07:40:37Z</time>
      </trkpt>
      <trkpt lat="44.71575" lon="5.53074">
        <ele>669</ele>
        <time>2021-07-25T07:40:38Z</time>
      </trkpt>
      <trkpt lat="44.71572" lon="5.53061">
        <ele>669</ele>
        <time>2021-07-25T07:40:39Z</time>
      </trkpt>
      <trkpt lat="44.71568" lon="5.53048">
        <ele>669</ele>
        <time>2021-07-25T07:40:40Z</time>
      </trkpt>
      <trkpt lat="44.71561" lon="5.53024">
        <ele>668</ele>
        <time>2021-07-25T07:40:42Z</time>
      </trkpt>
      <trkpt lat="44.71558" lon="5.53012">
        <ele>668</ele>
        <time>2021-07-25T07:40:43Z</time>
      </trkpt>
      <trkpt lat="44.71553" lon="5.52986">
        <ele>667</ele>
        <time>2021-07-25T07:40:45Z</time>
      </trkpt>
      <trkpt lat="44.71548" lon="5.5296">
        <ele>667</ele>
        <time>2021-07-25T07:40:47Z</time>
      </trkpt>
      <trkpt lat="44.71543" lon="5.52934">
        <ele>666</ele>
        <time>2021-07-25T07:40:49Z</time>
      </trkpt>
      <trkpt lat="44.71538" lon="5.5291">
        <ele>665</ele>
        <time>2021-07-25T07:40:51Z</time>
      </trkpt>
      <trkpt lat="44.71535" lon="5.52898">
        <ele>665</ele>
        <time>2021-07-25T07:40:52Z</time>
      </trkpt>
      <trkpt lat="44.71532" lon="5.52887">
        <ele>665</ele>
        <time>2021-07-25T07:40:53Z</time>
      </trkpt>
      <trkpt lat="44.71525" lon="5.52864">
        <ele>663</ele>
        <time>2021-07-25T07:40:55Z</time>
      </trkpt>
      <trkpt lat="44.71517" lon="5.52842">
        <ele>663</ele>
        <time>2021-07-25T07:40:57Z</time>
      </trkpt>
      <trkpt lat="44.71509" lon="5.52826">
        <ele>663</ele>
        <time>2021-07-25T07:40:59Z</time>
      </trkpt>
      <trkpt lat="44.71499" lon="5.52823">
        <ele>662</ele>
        <time>2021-07-25T07:41:01Z</time>
      </trkpt>
      <trkpt lat="44.71487" lon="5.52824">
        <ele>662</ele>
        <time>2021-07-25T07:41:03Z</time>
      </trkpt>
      <trkpt lat="44.71475" lon="5.52823">
        <ele>664</ele>
        <time>2021-07-25T07:41:05Z</time>
      </trkpt>
      <trkpt lat="44.71462" lon="5.52821">
        <ele>664</ele>
        <time>2021-07-25T07:41:07Z</time>
      </trkpt>
      <trkpt lat="44.7145" lon="5.52818">
        <ele>664</ele>
        <time>2021-07-25T07:41:09Z</time>
      </trkpt>
      <trkpt lat="44.71437" lon="5.52816">
        <ele>665</ele>
        <time>2021-07-25T07:41:11Z</time>
      </trkpt>
      <trkpt lat="44.71425" lon="5.52814">
        <ele>665</ele>
        <time>2021-07-25T07:41:13Z</time>
      </trkpt>
      <trkpt lat="44.71414" lon="5.52813">
        <ele>666</ele>
        <time>2021-07-25T07:41:15Z</time>
      </trkpt>
      <trkpt lat="44.71401" lon="5.52813">
        <ele>666</ele>
        <time>2021-07-25T07:41:17Z</time>
      </trkpt>
      <trkpt lat="44.71388" lon="5.52814">
        <ele>666</ele>
        <time>2021-07-25T07:41:19Z</time>
      </trkpt>
      <trkpt lat="44.71376" lon="5.52815">
        <ele>666</ele>
        <time>2021-07-25T07:41:21Z</time>
      </trkpt>
      <trkpt lat="44.71363" lon="5.52817">
        <ele>666</ele>
        <time>2021-07-25T07:41:23Z</time>
      </trkpt>
      <trkpt lat="44.7135" lon="5.52818">
        <ele>666</ele>
        <time>2021-07-25T07:41:25Z</time>
      </trkpt>
      <trkpt lat="44.71343" lon="5.52819">
        <ele>666</ele>
        <time>2021-07-25T07:41:26Z</time>
      </trkpt>
      <trkpt lat="44.71337" lon="5.5282">
        <ele>666</ele>
        <time>2021-07-25T07:41:27Z</time>
      </trkpt>
      <trkpt lat="44.71324" lon="5.52822">
        <ele>666</ele>
        <time>2021-07-25T07:41:29Z</time>
      </trkpt>
      <trkpt lat="44.7131" lon="5.52826">
        <ele>667</ele>
        <time>2021-07-25T07:41:31Z</time>
      </trkpt>
      <trkpt lat="44.71304" lon="5.52828">
        <ele>667</ele>
        <time>2021-07-25T07:41:32Z</time>
      </trkpt>
      <trkpt lat="44.71297" lon="5.5283">
        <ele>667</ele>
        <time>2021-07-25T07:41:33Z</time>
      </trkpt>
      <trkpt lat="44.7129" lon="5.52833">
        <ele>667</ele>
        <time>2021-07-25T07:41:34Z</time>
      </trkpt>
      <trkpt lat="44.71277" lon="5.52838">
        <ele>667</ele>
        <time>2021-07-25T07:41:36Z</time>
      </trkpt>
      <trkpt lat="44.71262" lon="5.52842">
        <ele>667</ele>
        <time>2021-07-25T07:41:38Z</time>
      </trkpt>
      <trkpt lat="44.71247" lon="5.52842">
        <ele>668</ele>
        <time>2021-07-25T07:41:40Z</time>
      </trkpt>
      <trkpt lat="44.71233" lon="5.52843">
        <ele>668</ele>
        <time>2021-07-25T07:41:42Z</time>
      </trkpt>
      <trkpt lat="44.71219" lon="5.52846">
        <ele>668</ele>
        <time>2021-07-25T07:41:44Z</time>
      </trkpt>
      <trkpt lat="44.71205" lon="5.52849">
        <ele>668</ele>
        <time>2021-07-25T07:41:46Z</time>
      </trkpt>
      <trkpt lat="44.71191" lon="5.5285">
        <ele>668</ele>
        <time>2021-07-25T07:41:48Z</time>
      </trkpt>
      <trkpt lat="44.71177" lon="5.5285">
        <ele>668</ele>
        <time>2021-07-25T07:41:50Z</time>
      </trkpt>
      <trkpt lat="44.71164" lon="5.52848">
        <ele>668</ele>
        <time>2021-07-25T07:41:52Z</time>
      </trkpt>
      <trkpt lat="44.7115" lon="5.52847">
        <ele>668</ele>
        <time>2021-07-25T07:41:54Z</time>
      </trkpt>
      <trkpt lat="44.71136" lon="5.52847">
        <ele>668</ele>
        <time>2021-07-25T07:41:56Z</time>
      </trkpt>
      <trkpt lat="44.71121" lon="5.52847">
        <ele>668</ele>
        <time>2021-07-25T07:41:58Z</time>
      </trkpt>
      <trkpt lat="44.71105" lon="5.52848">
        <ele>668</ele>
        <time>2021-07-25T07:42:00Z</time>
      </trkpt>
      <trkpt lat="44.7109" lon="5.52846">
        <ele>668</ele>
        <time>2021-07-25T07:42:02Z</time>
      </trkpt>
      <trkpt lat="44.71075" lon="5.52842">
        <ele>668</ele>
        <time>2021-07-25T07:42:04Z</time>
      </trkpt>
      <trkpt lat="44.71062" lon="5.52837">
        <ele>668</ele>
        <time>2021-07-25T07:42:06Z</time>
      </trkpt>
      <trkpt lat="44.71048" lon="5.5283">
        <ele>668</ele>
        <time>2021-07-25T07:42:08Z</time>
      </trkpt>
      <trkpt lat="44.71035" lon="5.52824">
        <ele>668</ele>
        <time>2021-07-25T07:42:10Z</time>
      </trkpt>
      <trkpt lat="44.71022" lon="5.5282">
        <ele>668</ele>
        <time>2021-07-25T07:42:12Z</time>
      </trkpt>
      <trkpt lat="44.7101" lon="5.52818">
        <ele>668</ele>
        <time>2021-07-25T07:42:14Z</time>
      </trkpt>
      <trkpt lat="44.70995" lon="5.52817">
        <ele>668</ele>
        <time>2021-07-25T07:42:16Z</time>
      </trkpt>
      <trkpt lat="44.7098" lon="5.52815">
        <ele>668</ele>
        <time>2021-07-25T07:42:18Z</time>
      </trkpt>
      <trkpt lat="44.70966" lon="5.52811">
        <ele>668</ele>
        <time>2021-07-25T07:42:20Z</time>
      </trkpt>
      <trkpt lat="44.70952" lon="5.52802">
        <ele>668</ele>
        <time>2021-07-25T07:42:22Z</time>
      </trkpt>
      <trkpt lat="44.70939" lon="5.5279">
        <ele>668</ele>
        <time>2021-07-25T07:42:24Z</time>
      </trkpt>
      <trkpt lat="44.70926" lon="5.52777">
        <ele>668</ele>
        <time>2021-07-25T07:42:26Z</time>
      </trkpt>
      <trkpt lat="44.70913" lon="5.52764">
        <ele>668</ele>
        <time>2021-07-25T07:42:28Z</time>
      </trkpt>
      <trkpt lat="44.70898" lon="5.52753">
        <ele>665</ele>
        <time>2021-07-25T07:42:30Z</time>
      </trkpt>
      <trkpt lat="44.70882" lon="5.52748">
        <ele>665</ele>
        <time>2021-07-25T07:42:32Z</time>
      </trkpt>
      <trkpt lat="44.70866" lon="5.52748">
        <ele>665</ele>
        <time>2021-07-25T07:42:34Z</time>
      </trkpt>
      <trkpt lat="44.7085" lon="5.5275">
        <ele>663</ele>
        <time>2021-07-25T07:42:36Z</time>
      </trkpt>
      <trkpt lat="44.70835" lon="5.52752">
        <ele>663</ele>
        <time>2021-07-25T07:42:38Z</time>
      </trkpt>
      <trkpt lat="44.70819" lon="5.52754">
        <ele>663</ele>
        <time>2021-07-25T07:42:40Z</time>
      </trkpt>
      <trkpt lat="44.70801" lon="5.52751">
        <ele>663</ele>
        <time>2021-07-25T07:42:42Z</time>
      </trkpt>
      <trkpt lat="44.70785" lon="5.52746">
        <ele>663</ele>
        <time>2021-07-25T07:42:44Z</time>
      </trkpt>
      <trkpt lat="44.70769" lon="5.52742">
        <ele>663</ele>
        <time>2021-07-25T07:42:46Z</time>
      </trkpt>
      <trkpt lat="44.70753" lon="5.52738">
        <ele>663</ele>
        <time>2021-07-25T07:42:48Z</time>
      </trkpt>
      <trkpt lat="44.70737" lon="5.52734">
        <ele>662</ele>
        <time>2021-07-25T07:42:50Z</time>
      </trkpt>
      <trkpt lat="44.70722" lon="5.5273">
        <ele>662</ele>
        <time>2021-07-25T07:42:52Z</time>
      </trkpt>
      <trkpt lat="44.70708" lon="5.52726">
        <ele>662</ele>
        <time>2021-07-25T07:42:54Z</time>
      </trkpt>
      <trkpt lat="44.70693" lon="5.52722">
        <ele>662</ele>
        <time>2021-07-25T07:42:56Z</time>
      </trkpt>
      <trkpt lat="44.70679" lon="5.52719">
        <ele>662</ele>
        <time>2021-07-25T07:42:58Z</time>
      </trkpt>
      <trkpt lat="44.70663" lon="5.52718">
        <ele>662</ele>
        <time>2021-07-25T07:43:00Z</time>
      </trkpt>
      <trkpt lat="44.70646" lon="5.52718">
        <ele>662</ele>
        <time>2021-07-25T07:43:02Z</time>
      </trkpt>
      <trkpt lat="44.70629" lon="5.52722">
        <ele>662</ele>
        <time>2021-07-25T07:43:04Z</time>
      </trkpt>
      <trkpt lat="44.70613" lon="5.52731">
        <ele>662</ele>
        <time>2021-07-25T07:43:06Z</time>
      </trkpt>
      <trkpt lat="44.70598" lon="5.52742">
        <ele>662</ele>
        <time>2021-07-25T07:43:08Z</time>
      </trkpt>
      <trkpt lat="44.7058" lon="5.52753">
        <ele>659</ele>
        <time>2021-07-25T07:43:10Z</time>
      </trkpt>
      <trkpt lat="44.70571" lon="5.52758">
        <ele>659</ele>
        <time>2021-07-25T07:43:11Z</time>
      </trkpt>
      <trkpt lat="44.70562" lon="5.52763">
        <ele>659</ele>
        <time>2021-07-25T07:43:12Z</time>
      </trkpt>
      <trkpt lat="44.70549" lon="5.52767">
        <ele>659</ele>
        <time>2021-07-25T07:43:13Z</time>
      </trkpt>
      <trkpt lat="44.70533" lon="5.52769">
        <ele>659</ele>
        <time>2021-07-25T07:43:14Z</time>
      </trkpt>
      <trkpt lat="44.70523" lon="5.52769">
        <ele>656</ele>
        <time>2021-07-25T07:43:15Z</time>
      </trkpt>
      <trkpt lat="44.70512" lon="5.52766">
        <ele>656</ele>
        <time>2021-07-25T07:43:16Z</time>
      </trkpt>
      <trkpt lat="44.70502" lon="5.52762">
        <ele>656</ele>
        <time>2021-07-25T07:43:17Z</time>
      </trkpt>
      <trkpt lat="44.70493" lon="5.52755">
        <ele>656</ele>
        <time>2021-07-25T07:43:18Z</time>
      </trkpt>
      <trkpt lat="44.70475" lon="5.52746">
        <ele>655</ele>
        <time>2021-07-25T07:43:20Z</time>
      </trkpt>
      <trkpt lat="44.70457" lon="5.52743">
        <ele>655</ele>
        <time>2021-07-25T07:43:22Z</time>
      </trkpt>
      <trkpt lat="44.7044" lon="5.5274">
        <ele>655</ele>
        <time>2021-07-25T07:43:24Z</time>
      </trkpt>
      <trkpt lat="44.70424" lon="5.52737">
        <ele>653</ele>
        <time>2021-07-25T07:43:26Z</time>
      </trkpt>
      <trkpt lat="44.70409" lon="5.52734">
        <ele>653</ele>
        <time>2021-07-25T07:43:28Z</time>
      </trkpt>
      <trkpt lat="44.70394" lon="5.52731">
        <ele>653</ele>
        <time>2021-07-25T07:43:30Z</time>
      </trkpt>
      <trkpt lat="44.70379" lon="5.52727">
        <ele>653</ele>
        <time>2021-07-25T07:43:32Z</time>
      </trkpt>
      <trkpt lat="44.70364" lon="5.52723">
        <ele>653</ele>
        <time>2021-07-25T07:43:34Z</time>
      </trkpt>
      <trkpt lat="44.7035" lon="5.52715">
        <ele>653</ele>
        <time>2021-07-25T07:43:36Z</time>
      </trkpt>
      <trkpt lat="44.70336" lon="5.52702">
        <ele>653</ele>
        <time>2021-07-25T07:43:38Z</time>
      </trkpt>
      <trkpt lat="44.70324" lon="5.52688">
        <ele>653</ele>
        <time>2021-07-25T07:43:40Z</time>
      </trkpt>
      <trkpt lat="44.7031" lon="5.52674">
        <ele>653</ele>
        <time>2021-07-25T07:43:42Z</time>
      </trkpt>
      <trkpt lat="44.70296" lon="5.52663">
        <ele>653</ele>
        <time>2021-07-25T07:43:44Z</time>
      </trkpt>
      <trkpt lat="44.7028" lon="5.52658">
        <ele>653</ele>
        <time>2021-07-25T07:43:46Z</time>
      </trkpt>
      <trkpt lat="44.70263" lon="5.52655">
        <ele>653</ele>
        <time>2021-07-25T07:43:48Z</time>
      </trkpt>
      <trkpt lat="44.70248" lon="5.5265">
        <ele>650</ele>
        <time>2021-07-25T07:43:50Z</time>
      </trkpt>
      <trkpt lat="44.70234" lon="5.52644">
        <ele>650</ele>
        <time>2021-07-25T07:43:52Z</time>
      </trkpt>
      <trkpt lat="44.7022" lon="5.52636">
        <ele>650</ele>
        <time>2021-07-25T07:43:54Z</time>
      </trkpt>
      <trkpt lat="44.70207" lon="5.52629">
        <ele>651</ele>
        <time>2021-07-25T07:43:56Z</time>
      </trkpt>
      <trkpt lat="44.70195" lon="5.52621">
        <ele>651</ele>
        <time>2021-07-25T07:43:58Z</time>
      </trkpt>
      <trkpt lat="44.70182" lon="5.52614">
        <ele>651</ele>
        <time>2021-07-25T07:44:00Z</time>
      </trkpt>
      <trkpt lat="44.70169" lon="5.52606">
        <ele>651</ele>
        <time>2021-07-25T07:44:02Z</time>
      </trkpt>
      <trkpt lat="44.70156" lon="5.526">
        <ele>651</ele>
        <time>2021-07-25T07:44:04Z</time>
      </trkpt>
      <trkpt lat="44.70143" lon="5.52592">
        <ele>651</ele>
        <time>2021-07-25T07:44:06Z</time>
      </trkpt>
      <trkpt lat="44.70131" lon="5.52583">
        <ele>651</ele>
        <time>2021-07-25T07:44:08Z</time>
      </trkpt>
      <trkpt lat="44.70121" lon="5.52573">
        <ele>652</ele>
        <time>2021-07-25T07:44:10Z</time>
      </trkpt>
      <trkpt lat="44.70109" lon="5.52563">
        <ele>652</ele>
        <time>2021-07-25T07:44:12Z</time>
      </trkpt>
      <trkpt lat="44.70097" lon="5.52553">
        <ele>652</ele>
        <time>2021-07-25T07:44:14Z</time>
      </trkpt>
      <trkpt lat="44.70086" lon="5.52541">
        <ele>652</ele>
        <time>2021-07-25T07:44:16Z</time>
      </trkpt>
      <trkpt lat="44.70074" lon="5.52529">
        <ele>652</ele>
        <time>2021-07-25T07:44:18Z</time>
      </trkpt>
      <trkpt lat="44.70061" lon="5.52517">
        <ele>652</ele>
        <time>2021-07-25T07:44:20Z</time>
      </trkpt>
      <trkpt lat="44.70048" lon="5.52504">
        <ele>652</ele>
        <time>2021-07-25T07:44:22Z</time>
      </trkpt>
      <trkpt lat="44.70034" lon="5.5249">
        <ele>652</ele>
        <time>2021-07-25T07:44:24Z</time>
      </trkpt>
      <trkpt lat="44.7002" lon="5.52476">
        <ele>652</ele>
        <time>2021-07-25T07:44:26Z</time>
      </trkpt>
      <trkpt lat="44.70005" lon="5.52462">
        <ele>652</ele>
        <time>2021-07-25T07:44:28Z</time>
      </trkpt>
      <trkpt lat="44.6999" lon="5.52448">
        <ele>650</ele>
        <time>2021-07-25T07:44:30Z</time>
      </trkpt>
      <trkpt lat="44.69974" lon="5.52435">
        <ele>650</ele>
        <time>2021-07-25T07:44:32Z</time>
      </trkpt>
      <trkpt lat="44.69958" lon="5.52423">
        <ele>650</ele>
        <time>2021-07-25T07:44:34Z</time>
      </trkpt>
      <trkpt lat="44.69939" lon="5.52413">
        <ele>648</ele>
        <time>2021-07-25T07:44:36Z</time>
      </trkpt>
      <trkpt lat="44.69921" lon="5.52404">
        <ele>648</ele>
        <time>2021-07-25T07:44:38Z</time>
      </trkpt>
      <trkpt lat="44.69912" lon="5.52398">
        <ele>648</ele>
        <time>2021-07-25T07:44:39Z</time>
      </trkpt>
      <trkpt lat="44.69895" lon="5.52383">
        <ele>645</ele>
        <time>2021-07-25T07:44:41Z</time>
      </trkpt>
      <trkpt lat="44.69882" lon="5.52364">
        <ele>645</ele>
        <time>2021-07-25T07:44:43Z</time>
      </trkpt>
      <trkpt lat="44.69874" lon="5.52354">
        <ele>645</ele>
        <time>2021-07-25T07:44:44Z</time>
      </trkpt>
      <trkpt lat="44.69865" lon="5.52346">
        <ele>644</ele>
        <time>2021-07-25T07:44:45Z</time>
      </trkpt>
      <trkpt lat="44.69856" lon="5.52339">
        <ele>644</ele>
        <time>2021-07-25T07:44:46Z</time>
      </trkpt>
      <trkpt lat="44.69847" lon="5.52333">
        <ele>644</ele>
        <time>2021-07-25T07:44:47Z</time>
      </trkpt>
      <trkpt lat="44.69829" lon="5.52325">
        <ele>644</ele>
        <time>2021-07-25T07:44:49Z</time>
      </trkpt>
      <trkpt lat="44.69819" lon="5.52321">
        <ele>641</ele>
        <time>2021-07-25T07:44:50Z</time>
      </trkpt>
      <trkpt lat="44.69801" lon="5.52313">
        <ele>641</ele>
        <time>2021-07-25T07:44:52Z</time>
      </trkpt>
      <trkpt lat="44.69784" lon="5.52304">
        <ele>641</ele>
        <time>2021-07-25T07:44:54Z</time>
      </trkpt>
      <trkpt lat="44.69766" lon="5.52296">
        <ele>640</ele>
        <time>2021-07-25T07:44:56Z</time>
      </trkpt>
      <trkpt lat="44.6975" lon="5.52292">
        <ele>640</ele>
        <time>2021-07-25T07:44:58Z</time>
      </trkpt>
      <trkpt lat="44.69736" lon="5.5229">
        <ele>639</ele>
        <time>2021-07-25T07:45:00Z</time>
      </trkpt>
      <trkpt lat="44.69724" lon="5.52294">
        <ele>639</ele>
        <time>2021-07-25T07:45:05Z</time>
      </trkpt>
      <trkpt lat="44.69706" lon="5.52298">
        <ele>639</ele>
        <time>2021-07-25T07:45:07Z</time>
      </trkpt>
      <trkpt lat="44.69696" lon="5.52298">
        <ele>639</ele>
        <time>2021-07-25T07:45:08Z</time>
      </trkpt>
      <trkpt lat="44.69681" lon="5.52296">
        <ele>639</ele>
        <time>2021-07-25T07:45:09Z</time>
      </trkpt>
      <trkpt lat="44.69668" lon="5.52293">
        <ele>639</ele>
        <time>2021-07-25T07:45:10Z</time>
      </trkpt>
      <trkpt lat="44.69655" lon="5.52289">
        <ele>639</ele>
        <time>2021-07-25T07:45:11Z</time>
      </trkpt>
      <trkpt lat="44.69643" lon="5.52285">
        <ele>639</ele>
        <time>2021-07-25T07:45:12Z</time>
      </trkpt>
      <trkpt lat="44.69633" lon="5.52283">
        <ele>639</ele>
        <time>2021-07-25T07:45:13Z</time>
      </trkpt>
      <trkpt lat="44.69615" lon="5.52281">
        <ele>639</ele>
        <time>2021-07-25T07:45:15Z</time>
      </trkpt>
      <trkpt lat="44.69597" lon="5.52282">
        <ele>639</ele>
        <time>2021-07-25T07:45:17Z</time>
      </trkpt>
      <trkpt lat="44.69578" lon="5.52287">
        <ele>639</ele>
        <time>2021-07-25T07:45:19Z</time>
      </trkpt>
      <trkpt lat="44.6956" lon="5.52288">
        <ele>638</ele>
        <time>2021-07-25T07:45:21Z</time>
      </trkpt>
      <trkpt lat="44.69543" lon="5.52282">
        <ele>638</ele>
        <time>2021-07-25T07:45:23Z</time>
      </trkpt>
      <trkpt lat="44.69527" lon="5.52273">
        <ele>638</ele>
        <time>2021-07-25T07:45:25Z</time>
      </trkpt>
      <trkpt lat="44.69513" lon="5.52261">
        <ele>638</ele>
        <time>2021-07-25T07:45:27Z</time>
      </trkpt>
      <trkpt lat="44.69499" lon="5.5225">
        <ele>638</ele>
        <time>2021-07-25T07:45:29Z</time>
      </trkpt>
      <trkpt lat="44.69484" lon="5.52238">
        <ele>636</ele>
        <time>2021-07-25T07:45:31Z</time>
      </trkpt>
      <trkpt lat="44.69471" lon="5.52225">
        <ele>636</ele>
        <time>2021-07-25T07:45:33Z</time>
      </trkpt>
      <trkpt lat="44.69458" lon="5.52213">
        <ele>635</ele>
        <time>2021-07-25T07:45:35Z</time>
      </trkpt>
      <trkpt lat="44.69445" lon="5.52201">
        <ele>635</ele>
        <time>2021-07-25T07:45:37Z</time>
      </trkpt>
      <trkpt lat="44.6943" lon="5.52194">
        <ele>635</ele>
        <time>2021-07-25T07:45:39Z</time>
      </trkpt>
      <trkpt lat="44.69416" lon="5.52191">
        <ele>635</ele>
        <time>2021-07-25T07:45:41Z</time>
      </trkpt>
      <trkpt lat="44.69402" lon="5.52193">
        <ele>635</ele>
        <time>2021-07-25T07:45:43Z</time>
      </trkpt>
      <trkpt lat="44.69386" lon="5.52196">
        <ele>635</ele>
        <time>2021-07-25T07:45:45Z</time>
      </trkpt>
      <trkpt lat="44.69369" lon="5.52195">
        <ele>635</ele>
        <time>2021-07-25T07:45:47Z</time>
      </trkpt>
      <trkpt lat="44.69353" lon="5.52189">
        <ele>635</ele>
        <time>2021-07-25T07:45:49Z</time>
      </trkpt>
      <trkpt lat="44.69338" lon="5.52178">
        <ele>632</ele>
        <time>2021-07-25T07:45:51Z</time>
      </trkpt>
      <trkpt lat="44.69325" lon="5.52165">
        <ele>632</ele>
        <time>2021-07-25T07:45:53Z</time>
      </trkpt>
      <trkpt lat="44.69313" lon="5.5215">
        <ele>632</ele>
        <time>2021-07-25T07:45:55Z</time>
      </trkpt>
      <trkpt lat="44.69304" lon="5.52134">
        <ele>632</ele>
        <time>2021-07-25T07:45:57Z</time>
      </trkpt>
      <trkpt lat="44.69295" lon="5.52116">
        <ele>632</ele>
        <time>2021-07-25T07:45:59Z</time>
      </trkpt>
      <trkpt lat="44.69287" lon="5.52099">
        <ele>631</ele>
        <time>2021-07-25T07:46:01Z</time>
      </trkpt>
      <trkpt lat="44.69277" lon="5.52083">
        <ele>631</ele>
        <time>2021-07-25T07:46:03Z</time>
      </trkpt>
      <trkpt lat="44.69266" lon="5.52068">
        <ele>631</ele>
        <time>2021-07-25T07:46:05Z</time>
      </trkpt>
      <trkpt lat="44.69252" lon="5.52055">
        <ele>631</ele>
        <time>2021-07-25T07:46:07Z</time>
      </trkpt>
      <trkpt lat="44.69238" lon="5.52045">
        <ele>631</ele>
        <time>2021-07-25T07:46:09Z</time>
      </trkpt>
      <trkpt lat="44.69224" lon="5.52036">
        <ele>631</ele>
        <time>2021-07-25T07:46:11Z</time>
      </trkpt>
      <trkpt lat="44.69209" lon="5.52027">
        <ele>631</ele>
        <time>2021-07-25T07:46:13Z</time>
      </trkpt>
      <trkpt lat="44.69195" lon="5.52018">
        <ele>631</ele>
        <time>2021-07-25T07:46:15Z</time>
      </trkpt>
      <trkpt lat="44.69182" lon="5.52008">
        <ele>631</ele>
        <time>2021-07-25T07:46:17Z</time>
      </trkpt>
      <trkpt lat="44.6917" lon="5.51995">
        <ele>631</ele>
        <time>2021-07-25T07:46:19Z</time>
      </trkpt>
      <trkpt lat="44.69158" lon="5.51984">
        <ele>631</ele>
        <time>2021-07-25T07:46:21Z</time>
      </trkpt>
      <trkpt lat="44.69145" lon="5.51973">
        <ele>631</ele>
        <time>2021-07-25T07:46:23Z</time>
      </trkpt>
      <trkpt lat="44.6913" lon="5.51965">
        <ele>631</ele>
        <time>2021-07-25T07:46:25Z</time>
      </trkpt>
      <trkpt lat="44.69116" lon="5.51956">
        <ele>631</ele>
        <time>2021-07-25T07:46:27Z</time>
      </trkpt>
      <trkpt lat="44.69102" lon="5.51948">
        <ele>631</ele>
        <time>2021-07-25T07:46:29Z</time>
      </trkpt>
      <trkpt lat="44.69086" lon="5.51942">
        <ele>628</ele>
        <time>2021-07-25T07:46:31Z</time>
      </trkpt>
      <trkpt lat="44.69071" lon="5.51935">
        <ele>628</ele>
        <time>2021-07-25T07:46:33Z</time>
      </trkpt>
      <trkpt lat="44.69054" lon="5.51932">
        <ele>628</ele>
        <time>2021-07-25T07:46:35Z</time>
      </trkpt>
      <trkpt lat="44.69038" lon="5.51928">
        <ele>628</ele>
        <time>2021-07-25T07:46:37Z</time>
      </trkpt>
      <trkpt lat="44.69024" lon="5.51925">
        <ele>628</ele>
        <time>2021-07-25T07:46:39Z</time>
      </trkpt>
      <trkpt lat="44.69007" lon="5.51921">
        <ele>627</ele>
        <time>2021-07-25T07:46:41Z</time>
      </trkpt>
      <trkpt lat="44.68988" lon="5.51915">
        <ele>627</ele>
        <time>2021-07-25T07:46:43Z</time>
      </trkpt>
      <trkpt lat="44.6897" lon="5.51908">
        <ele>627</ele>
        <time>2021-07-25T07:46:45Z</time>
      </trkpt>
      <trkpt lat="44.68954" lon="5.51899">
        <ele>627</ele>
        <time>2021-07-25T07:46:47Z</time>
      </trkpt>
      <trkpt lat="44.68938" lon="5.5189">
        <ele>627</ele>
        <time>2021-07-25T07:46:49Z</time>
      </trkpt>
      <trkpt lat="44.68921" lon="5.5188">
        <ele>626</ele>
        <time>2021-07-25T07:46:51Z</time>
      </trkpt>
      <trkpt lat="44.68906" lon="5.5187">
        <ele>626</ele>
        <time>2021-07-25T07:46:53Z</time>
      </trkpt>
      <trkpt lat="44.68892" lon="5.51857">
        <ele>626</ele>
        <time>2021-07-25T07:46:55Z</time>
      </trkpt>
      <trkpt lat="44.68879" lon="5.51842">
        <ele>626</ele>
        <time>2021-07-25T07:46:57Z</time>
      </trkpt>
      <trkpt lat="44.68868" lon="5.51824">
        <ele>626</ele>
        <time>2021-07-25T07:46:59Z</time>
      </trkpt>
      <trkpt lat="44.68857" lon="5.51807">
        <ele>623</ele>
        <time>2021-07-25T07:47:01Z</time>
      </trkpt>
      <trkpt lat="44.68846" lon="5.51788">
        <ele>623</ele>
        <time>2021-07-25T07:47:03Z</time>
      </trkpt>
      <trkpt lat="44.68835" lon="5.5177">
        <ele>623</ele>
        <time>2021-07-25T07:47:05Z</time>
      </trkpt>
      <trkpt lat="44.68825" lon="5.51752">
        <ele>623</ele>
        <time>2021-07-25T07:47:07Z</time>
      </trkpt>
      <trkpt lat="44.6882" lon="5.51742">
        <ele>623</ele>
        <time>2021-07-25T07:47:08Z</time>
      </trkpt>
      <trkpt lat="44.68817" lon="5.51731">
        <ele>623</ele>
        <time>2021-07-25T07:47:09Z</time>
      </trkpt>
      <trkpt lat="44.68814" lon="5.5172">
        <ele>622</ele>
        <time>2021-07-25T07:47:10Z</time>
      </trkpt>
      <trkpt lat="44.68811" lon="5.51709">
        <ele>622</ele>
        <time>2021-07-25T07:47:11Z</time>
      </trkpt>
      <trkpt lat="44.68808" lon="5.51697">
        <ele>622</ele>
        <time>2021-07-25T07:47:12Z</time>
      </trkpt>
      <trkpt lat="44.68806" lon="5.51686">
        <ele>622</ele>
        <time>2021-07-25T07:47:13Z</time>
      </trkpt>
      <trkpt lat="44.68803" lon="5.51675">
        <ele>622</ele>
        <time>2021-07-25T07:47:14Z</time>
      </trkpt>
      <trkpt lat="44.68801" lon="5.51664">
        <ele>622</ele>
        <time>2021-07-25T07:47:15Z</time>
      </trkpt>
      <trkpt lat="44.68797" lon="5.51643">
        <ele>622</ele>
        <time>2021-07-25T07:47:17Z</time>
      </trkpt>
      <trkpt lat="44.68794" lon="5.51621">
        <ele>622</ele>
        <time>2021-07-25T07:47:19Z</time>
      </trkpt>
      <trkpt lat="44.68792" lon="5.51602">
        <ele>622</ele>
        <time>2021-07-25T07:47:21Z</time>
      </trkpt>
      <trkpt lat="44.68791" lon="5.51587">
        <ele>622</ele>
        <time>2021-07-25T07:47:23Z</time>
      </trkpt>
      <trkpt lat="44.6879" lon="5.51571">
        <ele>622</ele>
        <time>2021-07-25T07:47:26Z</time>
      </trkpt>
      <trkpt lat="44.6879" lon="5.51587">
        <ele>620</ele>
        <time>2021-07-25T07:47:31Z</time>
      </trkpt>
      <trkpt lat="44.68792" lon="5.51601">
        <ele>620</ele>
        <time>2021-07-25T07:47:33Z</time>
      </trkpt>
      <trkpt lat="44.68793" lon="5.51617">
        <ele>620</ele>
        <time>2021-07-25T07:47:35Z</time>
      </trkpt>
      <trkpt lat="44.68795" lon="5.51632">
        <ele>620</ele>
        <time>2021-07-25T07:47:37Z</time>
      </trkpt>
      <trkpt lat="44.68797" lon="5.51648">
        <ele>620</ele>
        <time>2021-07-25T07:47:39Z</time>
      </trkpt>
      <trkpt lat="44.68797" lon="5.51663">
        <ele>619</ele>
        <time>2021-07-25T07:47:41Z</time>
      </trkpt>
      <trkpt lat="44.68797" lon="5.51679">
        <ele>619</ele>
        <time>2021-07-25T07:47:43Z</time>
      </trkpt>
      <trkpt lat="44.68799" lon="5.51696">
        <ele>619</ele>
        <time>2021-07-25T07:47:45Z</time>
      </trkpt>
      <trkpt lat="44.68799" lon="5.51705">
        <ele>619</ele>
        <time>2021-07-25T07:47:46Z</time>
      </trkpt>
      <trkpt lat="44.68798" lon="5.51714">
        <ele>619</ele>
        <time>2021-07-25T07:47:47Z</time>
      </trkpt>
      <trkpt lat="44.68792" lon="5.5173">
        <ele>619</ele>
        <time>2021-07-25T07:47:49Z</time>
      </trkpt>
      <trkpt lat="44.68783" lon="5.51743">
        <ele>619</ele>
        <time>2021-07-25T07:47:51Z</time>
      </trkpt>
      <trkpt lat="44.68774" lon="5.51753">
        <ele>619</ele>
        <time>2021-07-25T07:47:53Z</time>
      </trkpt>
      <trkpt lat="44.68765" lon="5.51763">
        <ele>619</ele>
        <time>2021-07-25T07:47:55Z</time>
      </trkpt>
      <trkpt lat="44.68758" lon="5.51773">
        <ele>619</ele>
        <time>2021-07-25T07:47:57Z</time>
      </trkpt>
      <trkpt lat="44.68751" lon="5.51782">
        <ele>619</ele>
        <time>2021-07-25T07:47:59Z</time>
      </trkpt>
      <trkpt lat="44.68745" lon="5.5179">
        <ele>621</ele>
        <time>2021-07-25T07:48:01Z</time>
      </trkpt>
      <trkpt lat="44.68739" lon="5.51798">
        <ele>621</ele>
        <time>2021-07-25T07:48:03Z</time>
      </trkpt>
      <trkpt lat="44.68733" lon="5.51806">
        <ele>621</ele>
        <time>2021-07-25T07:48:05Z</time>
      </trkpt>
      <trkpt lat="44.68724" lon="5.51817">
        <ele>621</ele>
        <time>2021-07-25T07:48:08Z</time>
      </trkpt>
      <trkpt lat="44.68715" lon="5.51827">
        <ele>623</ele>
        <time>2021-07-25T07:48:11Z</time>
      </trkpt>
      <trkpt lat="44.68707" lon="5.51838">
        <ele>623</ele>
        <time>2021-07-25T07:48:14Z</time>
      </trkpt>
      <trkpt lat="44.68701" lon="5.51845">
        <ele>623</ele>
        <time>2021-07-25T07:48:16Z</time>
      </trkpt>
      <trkpt lat="44.68691" lon="5.51854">
        <ele>623</ele>
        <time>2021-07-25T07:48:19Z</time>
      </trkpt>
      <trkpt lat="44.6868" lon="5.51864">
        <ele>626</ele>
        <time>2021-07-25T07:48:22Z</time>
      </trkpt>
      <trkpt lat="44.68669" lon="5.51875">
        <ele>627</ele>
        <time>2021-07-25T07:48:25Z</time>
      </trkpt>
      <trkpt lat="44.68657" lon="5.51886">
        <ele>627</ele>
        <time>2021-07-25T07:48:28Z</time>
      </trkpt>
      <trkpt lat="44.68649" lon="5.51894">
        <ele>627</ele>
        <time>2021-07-25T07:48:30Z</time>
      </trkpt>
      <trkpt lat="44.68639" lon="5.51901">
        <ele>627</ele>
        <time>2021-07-25T07:48:32Z</time>
      </trkpt>
      <trkpt lat="44.6863" lon="5.51909">
        <ele>627</ele>
        <time>2021-07-25T07:48:34Z</time>
      </trkpt>
      <trkpt lat="44.6862" lon="5.51916">
        <ele>627</ele>
        <time>2021-07-25T07:48:36Z</time>
      </trkpt>
      <trkpt lat="44.68609" lon="5.51923">
        <ele>627</ele>
        <time>2021-07-25T07:48:38Z</time>
      </trkpt>
      <trkpt lat="44.68598" lon="5.5193">
        <ele>627</ele>
        <time>2021-07-25T07:48:40Z</time>
      </trkpt>
      <trkpt lat="44.68588" lon="5.51936">
        <ele>627</ele>
        <time>2021-07-25T07:48:42Z</time>
      </trkpt>
      <trkpt lat="44.68577" lon="5.51942">
        <ele>627</ele>
        <time>2021-07-25T07:48:44Z</time>
      </trkpt>
      <trkpt lat="44.68565" lon="5.51948">
        <ele>627</ele>
        <time>2021-07-25T07:48:46Z</time>
      </trkpt>
      <trkpt lat="44.68552" lon="5.51953">
        <ele>627</ele>
        <time>2021-07-25T07:48:48Z</time>
      </trkpt>
      <trkpt lat="44.68539" lon="5.51959">
        <ele>627</ele>
        <time>2021-07-25T07:48:50Z</time>
      </trkpt>
      <trkpt lat="44.68526" lon="5.51965">
        <ele>627</ele>
        <time>2021-07-25T07:48:52Z</time>
      </trkpt>
      <trkpt lat="44.68512" lon="5.51972">
        <ele>627</ele>
        <time>2021-07-25T07:48:54Z</time>
      </trkpt>
      <trkpt lat="44.68498" lon="5.51979">
        <ele>627</ele>
        <time>2021-07-25T07:48:56Z</time>
      </trkpt>
      <trkpt lat="44.68484" lon="5.51986">
        <ele>627</ele>
        <time>2021-07-25T07:48:58Z</time>
      </trkpt>
      <trkpt lat="44.68477" lon="5.5199">
        <ele>627</ele>
        <time>2021-07-25T07:48:59Z</time>
      </trkpt>
      <trkpt lat="44.6847" lon="5.51994">
        <ele>627</ele>
        <time>2021-07-25T07:49:00Z</time>
      </trkpt>
      <trkpt lat="44.68462" lon="5.51998">
        <ele>627</ele>
        <time>2021-07-25T07:49:01Z</time>
      </trkpt>
      <trkpt lat="44.68455" lon="5.52002">
        <ele>627</ele>
        <time>2021-07-25T07:49:02Z</time>
      </trkpt>
      <trkpt lat="44.68448" lon="5.52005">
        <ele>627</ele>
        <time>2021-07-25T07:49:03Z</time>
      </trkpt>
      <trkpt lat="44.68432" lon="5.52012">
        <ele>626</ele>
        <time>2021-07-25T07:49:05Z</time>
      </trkpt>
      <trkpt lat="44.68424" lon="5.52015">
        <ele>626</ele>
        <time>2021-07-25T07:49:06Z</time>
      </trkpt>
      <trkpt lat="44.68417" lon="5.52017">
        <ele>626</ele>
        <time>2021-07-25T07:49:07Z</time>
      </trkpt>
      <trkpt lat="44.68401" lon="5.52022">
        <ele>626</ele>
        <time>2021-07-25T07:49:09Z</time>
      </trkpt>
      <trkpt lat="44.68386" lon="5.52027">
        <ele>626</ele>
        <time>2021-07-25T07:49:11Z</time>
      </trkpt>
      <trkpt lat="44.6837" lon="5.5203">
        <ele>626</ele>
        <time>2021-07-25T07:49:13Z</time>
      </trkpt>
      <trkpt lat="44.68355" lon="5.52032">
        <ele>626</ele>
        <time>2021-07-25T07:49:15Z</time>
      </trkpt>
      <trkpt lat="44.68339" lon="5.52035">
        <ele>626</ele>
        <time>2021-07-25T07:49:17Z</time>
      </trkpt>
      <trkpt lat="44.68325" lon="5.52039">
        <ele>626</ele>
        <time>2021-07-25T07:49:19Z</time>
      </trkpt>
      <trkpt lat="44.68313" lon="5.52045">
        <ele>626</ele>
        <time>2021-07-25T07:49:21Z</time>
      </trkpt>
      <trkpt lat="44.683" lon="5.52051">
        <ele>626</ele>
        <time>2021-07-25T07:49:23Z</time>
      </trkpt>
      <trkpt lat="44.68287" lon="5.52059">
        <ele>626</ele>
        <time>2021-07-25T07:49:25Z</time>
      </trkpt>
      <trkpt lat="44.68276" lon="5.52067">
        <ele>626</ele>
        <time>2021-07-25T07:49:27Z</time>
      </trkpt>
      <trkpt lat="44.68264" lon="5.52076">
        <ele>626</ele>
        <time>2021-07-25T07:49:29Z</time>
      </trkpt>
      <trkpt lat="44.68253" lon="5.52085">
        <ele>627</ele>
        <time>2021-07-25T07:49:31Z</time>
      </trkpt>
      <trkpt lat="44.68242" lon="5.52093">
        <ele>627</ele>
        <time>2021-07-25T07:49:33Z</time>
      </trkpt>
      <trkpt lat="44.68231" lon="5.52101">
        <ele>627</ele>
        <time>2021-07-25T07:49:35Z</time>
      </trkpt>
      <trkpt lat="44.68221" lon="5.52108">
        <ele>627</ele>
        <time>2021-07-25T07:49:37Z</time>
      </trkpt>
      <trkpt lat="44.6821" lon="5.52115">
        <ele>627</ele>
        <time>2021-07-25T07:49:39Z</time>
      </trkpt>
      <trkpt lat="44.68199" lon="5.52122">
        <ele>627</ele>
        <time>2021-07-25T07:49:41Z</time>
      </trkpt>
      <trkpt lat="44.68187" lon="5.5213">
        <ele>627</ele>
        <time>2021-07-25T07:49:43Z</time>
      </trkpt>
      <trkpt lat="44.68174" lon="5.52138">
        <ele>627</ele>
        <time>2021-07-25T07:49:45Z</time>
      </trkpt>
      <trkpt lat="44.68164" lon="5.52148">
        <ele>627</ele>
        <time>2021-07-25T07:49:47Z</time>
      </trkpt>
      <trkpt lat="44.68155" lon="5.52161">
        <ele>627</ele>
        <time>2021-07-25T07:49:49Z</time>
      </trkpt>
      <trkpt lat="44.68149" lon="5.52176">
        <ele>629</ele>
        <time>2021-07-25T07:49:51Z</time>
      </trkpt>
      <trkpt lat="44.68144" lon="5.52193">
        <ele>629</ele>
        <time>2021-07-25T07:49:53Z</time>
      </trkpt>
      <trkpt lat="44.68141" lon="5.52211">
        <ele>629</ele>
        <time>2021-07-25T07:49:55Z</time>
      </trkpt>
      <trkpt lat="44.68137" lon="5.5223">
        <ele>629</ele>
        <time>2021-07-25T07:49:57Z</time>
      </trkpt>
      <trkpt lat="44.68131" lon="5.52248">
        <ele>629</ele>
        <time>2021-07-25T07:49:59Z</time>
      </trkpt>
      <trkpt lat="44.68123" lon="5.52263">
        <ele>629</ele>
        <time>2021-07-25T07:50:01Z</time>
      </trkpt>
      <trkpt lat="44.68114" lon="5.52278">
        <ele>629</ele>
        <time>2021-07-25T07:50:03Z</time>
      </trkpt>
      <trkpt lat="44.68105" lon="5.52292">
        <ele>629</ele>
        <time>2021-07-25T07:50:05Z</time>
      </trkpt>
      <trkpt lat="44.68097" lon="5.52307">
        <ele>629</ele>
        <time>2021-07-25T07:50:07Z</time>
      </trkpt>
      <trkpt lat="44.68094" lon="5.52314">
        <ele>629</ele>
        <time>2021-07-25T07:50:08Z</time>
      </trkpt>
      <trkpt lat="44.68086" lon="5.52329">
        <ele>629</ele>
        <time>2021-07-25T07:50:10Z</time>
      </trkpt>
      <trkpt lat="44.68079" lon="5.52344">
        <ele>629</ele>
        <time>2021-07-25T07:50:12Z</time>
      </trkpt>
      <trkpt lat="44.68073" lon="5.52359">
        <ele>629</ele>
        <time>2021-07-25T07:50:14Z</time>
      </trkpt>
      <trkpt lat="44.68066" lon="5.52373">
        <ele>629</ele>
        <time>2021-07-25T07:50:16Z</time>
      </trkpt>
      <trkpt lat="44.6806" lon="5.52387">
        <ele>629</ele>
        <time>2021-07-25T07:50:18Z</time>
      </trkpt>
      <trkpt lat="44.68053" lon="5.52402">
        <ele>630</ele>
        <time>2021-07-25T07:50:20Z</time>
      </trkpt>
      <trkpt lat="44.68048" lon="5.52417">
        <ele>630</ele>
        <time>2021-07-25T07:50:22Z</time>
      </trkpt>
      <trkpt lat="44.68045" lon="5.52433">
        <ele>630</ele>
        <time>2021-07-25T07:50:24Z</time>
      </trkpt>
      <trkpt lat="44.68043" lon="5.52449">
        <ele>630</ele>
        <time>2021-07-25T07:50:26Z</time>
      </trkpt>
      <trkpt lat="44.68043" lon="5.52466">
        <ele>630</ele>
        <time>2021-07-25T07:50:28Z</time>
      </trkpt>
      <trkpt lat="44.68044" lon="5.52484">
        <ele>632</ele>
        <time>2021-07-25T07:50:30Z</time>
      </trkpt>
      <trkpt lat="44.68047" lon="5.52501">
        <ele>632</ele>
        <time>2021-07-25T07:50:32Z</time>
      </trkpt>
      <trkpt lat="44.6805" lon="5.52518">
        <ele>632</ele>
        <time>2021-07-25T07:50:34Z</time>
      </trkpt>
      <trkpt lat="44.68052" lon="5.52536">
        <ele>632</ele>
        <time>2021-07-25T07:50:36Z</time>
      </trkpt>
      <trkpt lat="44.68055" lon="5.52553">
        <ele>632</ele>
        <time>2021-07-25T07:50:38Z</time>
      </trkpt>
      <trkpt lat="44.68056" lon="5.5257">
        <ele>633</ele>
        <time>2021-07-25T07:50:40Z</time>
      </trkpt>
      <trkpt lat="44.68055" lon="5.52587">
        <ele>633</ele>
        <time>2021-07-25T07:50:42Z</time>
      </trkpt>
      <trkpt lat="44.6805" lon="5.52602">
        <ele>633</ele>
        <time>2021-07-25T07:50:44Z</time>
      </trkpt>
      <trkpt lat="44.68044" lon="5.52615">
        <ele>632</ele>
        <time>2021-07-25T07:50:46Z</time>
      </trkpt>
      <trkpt lat="44.68037" lon="5.52628">
        <ele>632</ele>
        <time>2021-07-25T07:50:48Z</time>
      </trkpt>
      <trkpt lat="44.6803" lon="5.5264">
        <ele>634</ele>
        <time>2021-07-25T07:50:50Z</time>
      </trkpt>
      <trkpt lat="44.68023" lon="5.52653">
        <ele>634</ele>
        <time>2021-07-25T07:50:52Z</time>
      </trkpt>
      <trkpt lat="44.68015" lon="5.52664">
        <ele>634</ele>
        <time>2021-07-25T07:50:54Z</time>
      </trkpt>
      <trkpt lat="44.68008" lon="5.52677">
        <ele>634</ele>
        <time>2021-07-25T07:50:56Z</time>
      </trkpt>
      <trkpt lat="44.68001" lon="5.52689">
        <ele>634</ele>
        <time>2021-07-25T07:50:58Z</time>
      </trkpt>
      <trkpt lat="44.67993" lon="5.52702">
        <ele>636</ele>
        <time>2021-07-25T07:51:00Z</time>
      </trkpt>
      <trkpt lat="44.67986" lon="5.52714">
        <ele>636</ele>
        <time>2021-07-25T07:51:02Z</time>
      </trkpt>
      <trkpt lat="44.67978" lon="5.52727">
        <ele>636</ele>
        <time>2021-07-25T07:51:04Z</time>
      </trkpt>
      <trkpt lat="44.67971" lon="5.5274">
        <ele>636</ele>
        <time>2021-07-25T07:51:06Z</time>
      </trkpt>
      <trkpt lat="44.67967" lon="5.52747">
        <ele>636</ele>
        <time>2021-07-25T07:51:07Z</time>
      </trkpt>
      <trkpt lat="44.67963" lon="5.52753">
        <ele>636</ele>
        <time>2021-07-25T07:51:08Z</time>
      </trkpt>
      <trkpt lat="44.67959" lon="5.5276">
        <ele>636</ele>
        <time>2021-07-25T07:51:09Z</time>
      </trkpt>
      <trkpt lat="44.67956" lon="5.52766">
        <ele>637</ele>
        <time>2021-07-25T07:51:10Z</time>
      </trkpt>
      <trkpt lat="44.67952" lon="5.52773">
        <ele>637</ele>
        <time>2021-07-25T07:51:11Z</time>
      </trkpt>
      <trkpt lat="44.67948" lon="5.52779">
        <ele>637</ele>
        <time>2021-07-25T07:51:12Z</time>
      </trkpt>
      <trkpt lat="44.67944" lon="5.52786">
        <ele>637</ele>
        <time>2021-07-25T07:51:13Z</time>
      </trkpt>
      <trkpt lat="44.6794" lon="5.52792">
        <ele>637</ele>
        <time>2021-07-25T07:51:14Z</time>
      </trkpt>
      <trkpt lat="44.67936" lon="5.52799">
        <ele>637</ele>
        <time>2021-07-25T07:51:15Z</time>
      </trkpt>
      <trkpt lat="44.67932" lon="5.52805">
        <ele>637</ele>
        <time>2021-07-25T07:51:16Z</time>
      </trkpt>
      <trkpt lat="44.67929" lon="5.52812">
        <ele>637</ele>
        <time>2021-07-25T07:51:17Z</time>
      </trkpt>
      <trkpt lat="44.67925" lon="5.52818">
        <ele>637</ele>
        <time>2021-07-25T07:51:18Z</time>
      </trkpt>
      <trkpt lat="44.67918" lon="5.52831">
        <ele>639</ele>
        <time>2021-07-25T07:51:20Z</time>
      </trkpt>
      <trkpt lat="44.67914" lon="5.52838">
        <ele>639</ele>
        <time>2021-07-25T07:51:21Z</time>
      </trkpt>
      <trkpt lat="44.6791" lon="5.52844">
        <ele>639</ele>
        <time>2021-07-25T07:51:22Z</time>
      </trkpt>
      <trkpt lat="44.67906" lon="5.5285">
        <ele>639</ele>
        <time>2021-07-25T07:51:23Z</time>
      </trkpt>
      <trkpt lat="44.67902" lon="5.52857">
        <ele>639</ele>
        <time>2021-07-25T07:51:24Z</time>
      </trkpt>
      <trkpt lat="44.67898" lon="5.52864">
        <ele>639</ele>
        <time>2021-07-25T07:51:25Z</time>
      </trkpt>
      <trkpt lat="44.67894" lon="5.52871">
        <ele>639</ele>
        <time>2021-07-25T07:51:26Z</time>
      </trkpt>
      <trkpt lat="44.6789" lon="5.52877">
        <ele>639</ele>
        <time>2021-07-25T07:51:27Z</time>
      </trkpt>
      <trkpt lat="44.67886" lon="5.52885">
        <ele>639</ele>
        <time>2021-07-25T07:51:28Z</time>
      </trkpt>
      <trkpt lat="44.67881" lon="5.52892">
        <ele>639</ele>
        <time>2021-07-25T07:51:29Z</time>
      </trkpt>
      <trkpt lat="44.67877" lon="5.52899">
        <ele>639</ele>
        <time>2021-07-25T07:51:30Z</time>
      </trkpt>
      <trkpt lat="44.67873" lon="5.52906">
        <ele>639</ele>
        <time>2021-07-25T07:51:31Z</time>
      </trkpt>
      <trkpt lat="44.67869" lon="5.52913">
        <ele>639</ele>
        <time>2021-07-25T07:51:32Z</time>
      </trkpt>
      <trkpt lat="44.67865" lon="5.5292">
        <ele>639</ele>
        <time>2021-07-25T07:51:33Z</time>
      </trkpt>
      <trkpt lat="44.6786" lon="5.52926">
        <ele>639</ele>
        <time>2021-07-25T07:51:34Z</time>
      </trkpt>
      <trkpt lat="44.67857" lon="5.52933">
        <ele>639</ele>
        <time>2021-07-25T07:51:35Z</time>
      </trkpt>
      <trkpt lat="44.67853" lon="5.5294">
        <ele>639</ele>
        <time>2021-07-25T07:51:36Z</time>
      </trkpt>
      <trkpt lat="44.67848" lon="5.52947">
        <ele>639</ele>
        <time>2021-07-25T07:51:37Z</time>
      </trkpt>
      <trkpt lat="44.67844" lon="5.52954">
        <ele>639</ele>
        <time>2021-07-25T07:51:38Z</time>
      </trkpt>
      <trkpt lat="44.6784" lon="5.52961">
        <ele>639</ele>
        <time>2021-07-25T07:51:39Z</time>
      </trkpt>
      <trkpt lat="44.67836" lon="5.52968">
        <ele>638</ele>
        <time>2021-07-25T07:51:40Z</time>
      </trkpt>
      <trkpt lat="44.67832" lon="5.52974">
        <ele>638</ele>
        <time>2021-07-25T07:51:41Z</time>
      </trkpt>
      <trkpt lat="44.67828" lon="5.52981">
        <ele>638</ele>
        <time>2021-07-25T07:51:42Z</time>
      </trkpt>
      <trkpt lat="44.67823" lon="5.52988">
        <ele>638</ele>
        <time>2021-07-25T07:51:43Z</time>
      </trkpt>
      <trkpt lat="44.67819" lon="5.52995">
        <ele>638</ele>
        <time>2021-07-25T07:51:44Z</time>
      </trkpt>
      <trkpt lat="44.6781" lon="5.53008">
        <ele>638</ele>
        <time>2021-07-25T07:51:46Z</time>
      </trkpt>
      <trkpt lat="44.67805" lon="5.53014">
        <ele>638</ele>
        <time>2021-07-25T07:51:47Z</time>
      </trkpt>
      <trkpt lat="44.67801" lon="5.53021">
        <ele>638</ele>
        <time>2021-07-25T07:51:48Z</time>
      </trkpt>
      <trkpt lat="44.67796" lon="5.53027">
        <ele>638</ele>
        <time>2021-07-25T07:51:49Z</time>
      </trkpt>
      <trkpt lat="44.67787" lon="5.5304">
        <ele>640</ele>
        <time>2021-07-25T07:51:51Z</time>
      </trkpt>
      <trkpt lat="44.67783" lon="5.53047">
        <ele>640</ele>
        <time>2021-07-25T07:51:52Z</time>
      </trkpt>
      <trkpt lat="44.67778" lon="5.53053">
        <ele>640</ele>
        <time>2021-07-25T07:51:53Z</time>
      </trkpt>
      <trkpt lat="44.67773" lon="5.53059">
        <ele>640</ele>
        <time>2021-07-25T07:51:54Z</time>
      </trkpt>
      <trkpt lat="44.67769" lon="5.53065">
        <ele>640</ele>
        <time>2021-07-25T07:51:55Z</time>
      </trkpt>
      <trkpt lat="44.67764" lon="5.53071">
        <ele>640</ele>
        <time>2021-07-25T07:51:56Z</time>
      </trkpt>
      <trkpt lat="44.6776" lon="5.53077">
        <ele>640</ele>
        <time>2021-07-25T07:51:57Z</time>
      </trkpt>
      <trkpt lat="44.67751" lon="5.53089">
        <ele>639</ele>
        <time>2021-07-25T07:51:59Z</time>
      </trkpt>
      <trkpt lat="44.67742" lon="5.53099">
        <ele>640</ele>
        <time>2021-07-25T07:52:01Z</time>
      </trkpt>
      <trkpt lat="44.67732" lon="5.53109">
        <ele>640</ele>
        <time>2021-07-25T07:52:03Z</time>
      </trkpt>
      <trkpt lat="44.67722" lon="5.53117">
        <ele>640</ele>
        <time>2021-07-25T07:52:05Z</time>
      </trkpt>
      <trkpt lat="44.67713" lon="5.53125">
        <ele>640</ele>
        <time>2021-07-25T07:52:07Z</time>
      </trkpt>
      <trkpt lat="44.67703" lon="5.53132">
        <ele>640</ele>
        <time>2021-07-25T07:52:09Z</time>
      </trkpt>
      <trkpt lat="44.67693" lon="5.53138">
        <ele>642</ele>
        <time>2021-07-25T07:52:11Z</time>
      </trkpt>
      <trkpt lat="44.67683" lon="5.53145">
        <ele>642</ele>
        <time>2021-07-25T07:52:13Z</time>
      </trkpt>
      <trkpt lat="44.67675" lon="5.5315">
        <ele>642</ele>
        <time>2021-07-25T07:52:15Z</time>
      </trkpt>
      <trkpt lat="44.67664" lon="5.53157">
        <ele>642</ele>
        <time>2021-07-25T07:52:17Z</time>
      </trkpt>
      <trkpt lat="44.67654" lon="5.53163">
        <ele>642</ele>
        <time>2021-07-25T07:52:19Z</time>
      </trkpt>
      <trkpt lat="44.67645" lon="5.5317">
        <ele>644</ele>
        <time>2021-07-25T07:52:21Z</time>
      </trkpt>
      <trkpt lat="44.67635" lon="5.53177">
        <ele>644</ele>
        <time>2021-07-25T07:52:23Z</time>
      </trkpt>
      <trkpt lat="44.67627" lon="5.53186">
        <ele>646</ele>
        <time>2021-07-25T07:52:25Z</time>
      </trkpt>
      <trkpt lat="44.6762" lon="5.53197">
        <ele>646</ele>
        <time>2021-07-25T07:52:27Z</time>
      </trkpt>
      <trkpt lat="44.67613" lon="5.53209">
        <ele>646</ele>
        <time>2021-07-25T07:52:29Z</time>
      </trkpt>
      <trkpt lat="44.67609" lon="5.53224">
        <ele>646</ele>
        <time>2021-07-25T07:52:31Z</time>
      </trkpt>
      <trkpt lat="44.67605" lon="5.5324">
        <ele>646</ele>
        <time>2021-07-25T07:52:33Z</time>
      </trkpt>
      <trkpt lat="44.67601" lon="5.53256">
        <ele>646</ele>
        <time>2021-07-25T07:52:35Z</time>
      </trkpt>
      <trkpt lat="44.67596" lon="5.53272">
        <ele>646</ele>
        <time>2021-07-25T07:52:37Z</time>
      </trkpt>
      <trkpt lat="44.6759" lon="5.53287">
        <ele>646</ele>
        <time>2021-07-25T07:52:39Z</time>
      </trkpt>
      <trkpt lat="44.67583" lon="5.53301">
        <ele>647</ele>
        <time>2021-07-25T07:52:41Z</time>
      </trkpt>
      <trkpt lat="44.67577" lon="5.53315">
        <ele>647</ele>
        <time>2021-07-25T07:52:43Z</time>
      </trkpt>
      <trkpt lat="44.6757" lon="5.53329">
        <ele>647</ele>
        <time>2021-07-25T07:52:45Z</time>
      </trkpt>
      <trkpt lat="44.67565" lon="5.53343">
        <ele>647</ele>
        <time>2021-07-25T07:52:47Z</time>
      </trkpt>
      <trkpt lat="44.67562" lon="5.53351">
        <ele>647</ele>
        <time>2021-07-25T07:52:48Z</time>
      </trkpt>
      <trkpt lat="44.67559" lon="5.53358">
        <ele>647</ele>
        <time>2021-07-25T07:52:49Z</time>
      </trkpt>
      <trkpt lat="44.67553" lon="5.53372">
        <ele>647</ele>
        <time>2021-07-25T07:52:51Z</time>
      </trkpt>
      <trkpt lat="44.67548" lon="5.53387">
        <ele>647</ele>
        <time>2021-07-25T07:52:53Z</time>
      </trkpt>
      <trkpt lat="44.67542" lon="5.53401">
        <ele>647</ele>
        <time>2021-07-25T07:52:55Z</time>
      </trkpt>
      <trkpt lat="44.67537" lon="5.53416">
        <ele>647</ele>
        <time>2021-07-25T07:52:57Z</time>
      </trkpt>
      <trkpt lat="44.67533" lon="5.53431">
        <ele>647</ele>
        <time>2021-07-25T07:52:59Z</time>
      </trkpt>
      <trkpt lat="44.67529" lon="5.53447">
        <ele>649</ele>
        <time>2021-07-25T07:53:01Z</time>
      </trkpt>
      <trkpt lat="44.67526" lon="5.53462">
        <ele>649</ele>
        <time>2021-07-25T07:53:03Z</time>
      </trkpt>
      <trkpt lat="44.67523" lon="5.53478">
        <ele>649</ele>
        <time>2021-07-25T07:53:05Z</time>
      </trkpt>
      <trkpt lat="44.6752" lon="5.53493">
        <ele>649</ele>
        <time>2021-07-25T07:53:07Z</time>
      </trkpt>
      <trkpt lat="44.67517" lon="5.53508">
        <ele>649</ele>
        <time>2021-07-25T07:53:09Z</time>
      </trkpt>
      <trkpt lat="44.67513" lon="5.53523">
        <ele>650</ele>
        <time>2021-07-25T07:53:11Z</time>
      </trkpt>
      <trkpt lat="44.67506" lon="5.53537">
        <ele>650</ele>
        <time>2021-07-25T07:53:13Z</time>
      </trkpt>
      <trkpt lat="44.67498" lon="5.53549">
        <ele>650</ele>
        <time>2021-07-25T07:53:15Z</time>
      </trkpt>
      <trkpt lat="44.67489" lon="5.53559">
        <ele>650</ele>
        <time>2021-07-25T07:53:17Z</time>
      </trkpt>
      <trkpt lat="44.6748" lon="5.53568">
        <ele>650</ele>
        <time>2021-07-25T07:53:19Z</time>
      </trkpt>
      <trkpt lat="44.67471" lon="5.53576">
        <ele>651</ele>
        <time>2021-07-25T07:53:21Z</time>
      </trkpt>
      <trkpt lat="44.67462" lon="5.53583">
        <ele>650</ele>
        <time>2021-07-25T07:53:23Z</time>
      </trkpt>
      <trkpt lat="44.6745" lon="5.53592">
        <ele>650</ele>
        <time>2021-07-25T07:53:26Z</time>
      </trkpt>
      <trkpt lat="44.67439" lon="5.53595">
        <ele>650</ele>
        <time>2021-07-25T07:53:28Z</time>
      </trkpt>
      <trkpt lat="44.67428" lon="5.53598">
        <ele>651</ele>
        <time>2021-07-25T07:53:30Z</time>
      </trkpt>
      <trkpt lat="44.67417" lon="5.53599">
        <ele>651</ele>
        <time>2021-07-25T07:53:32Z</time>
      </trkpt>
      <trkpt lat="44.67405" lon="5.53598">
        <ele>651</ele>
        <time>2021-07-25T07:53:34Z</time>
      </trkpt>
      <trkpt lat="44.67394" lon="5.53597">
        <ele>651</ele>
        <time>2021-07-25T07:53:36Z</time>
      </trkpt>
      <trkpt lat="44.67382" lon="5.53593">
        <ele>651</ele>
        <time>2021-07-25T07:53:38Z</time>
      </trkpt>
      <trkpt lat="44.67371" lon="5.53588">
        <ele>653</ele>
        <time>2021-07-25T07:53:40Z</time>
      </trkpt>
      <trkpt lat="44.67361" lon="5.53582">
        <ele>653</ele>
        <time>2021-07-25T07:53:42Z</time>
      </trkpt>
      <trkpt lat="44.6735" lon="5.53575">
        <ele>653</ele>
        <time>2021-07-25T07:53:44Z</time>
      </trkpt>
      <trkpt lat="44.67339" lon="5.53567">
        <ele>653</ele>
        <time>2021-07-25T07:53:46Z</time>
      </trkpt>
      <trkpt lat="44.67328" lon="5.53559">
        <ele>653</ele>
        <time>2021-07-25T07:53:48Z</time>
      </trkpt>
      <trkpt lat="44.67317" lon="5.53551">
        <ele>653</ele>
        <time>2021-07-25T07:53:50Z</time>
      </trkpt>
      <trkpt lat="44.67311" lon="5.53547">
        <ele>653</ele>
        <time>2021-07-25T07:53:51Z</time>
      </trkpt>
      <trkpt lat="44.67299" lon="5.53541">
        <ele>653</ele>
        <time>2021-07-25T07:53:53Z</time>
      </trkpt>
      <trkpt lat="44.67287" lon="5.53536">
        <ele>653</ele>
        <time>2021-07-25T07:53:55Z</time>
      </trkpt>
      <trkpt lat="44.67274" lon="5.53532">
        <ele>653</ele>
        <time>2021-07-25T07:53:57Z</time>
      </trkpt>
      <trkpt lat="44.67262" lon="5.53531">
        <ele>653</ele>
        <time>2021-07-25T07:53:59Z</time>
      </trkpt>
      <trkpt lat="44.6725" lon="5.53535">
        <ele>654</ele>
        <time>2021-07-25T07:54:01Z</time>
      </trkpt>
      <trkpt lat="44.67242" lon="5.53546">
        <ele>654</ele>
        <time>2021-07-25T07:54:03Z</time>
      </trkpt>
      <trkpt lat="44.67237" lon="5.53562">
        <ele>654</ele>
        <time>2021-07-25T07:54:05Z</time>
      </trkpt>
      <trkpt lat="44.67237" lon="5.53581">
        <ele>654</ele>
        <time>2021-07-25T07:54:07Z</time>
      </trkpt>
      <trkpt lat="44.67238" lon="5.53599">
        <ele>654</ele>
        <time>2021-07-25T07:54:09Z</time>
      </trkpt>
      <trkpt lat="44.67237" lon="5.53619">
        <ele>656</ele>
        <time>2021-07-25T07:54:11Z</time>
      </trkpt>
      <trkpt lat="44.67234" lon="5.53639">
        <ele>656</ele>
        <time>2021-07-25T07:54:13Z</time>
      </trkpt>
      <trkpt lat="44.67229" lon="5.53656">
        <ele>656</ele>
        <time>2021-07-25T07:54:15Z</time>
      </trkpt>
      <trkpt lat="44.67223" lon="5.53673">
        <ele>656</ele>
        <time>2021-07-25T07:54:17Z</time>
      </trkpt>
      <trkpt lat="44.67216" lon="5.53688">
        <ele>656</ele>
        <time>2021-07-25T07:54:19Z</time>
      </trkpt>
      <trkpt lat="44.67209" lon="5.53705">
        <ele>657</ele>
        <time>2021-07-25T07:54:21Z</time>
      </trkpt>
      <trkpt lat="44.67203" lon="5.5372">
        <ele>657</ele>
        <time>2021-07-25T07:54:23Z</time>
      </trkpt>
      <trkpt lat="44.67198" lon="5.53736">
        <ele>657</ele>
        <time>2021-07-25T07:54:25Z</time>
      </trkpt>
      <trkpt lat="44.67191" lon="5.53751">
        <ele>657</ele>
        <time>2021-07-25T07:54:27Z</time>
      </trkpt>
      <trkpt lat="44.67185" lon="5.53766">
        <ele>657</ele>
        <time>2021-07-25T07:54:29Z</time>
      </trkpt>
      <trkpt lat="44.67178" lon="5.53781">
        <ele>657</ele>
        <time>2021-07-25T07:54:31Z</time>
      </trkpt>
      <trkpt lat="44.67173" lon="5.53798">
        <ele>657</ele>
        <time>2021-07-25T07:54:33Z</time>
      </trkpt>
      <trkpt lat="44.67167" lon="5.53812">
        <ele>657</ele>
        <time>2021-07-25T07:54:35Z</time>
      </trkpt>
      <trkpt lat="44.67159" lon="5.53827">
        <ele>657</ele>
        <time>2021-07-25T07:54:37Z</time>
      </trkpt>
      <trkpt lat="44.67153" lon="5.53842">
        <ele>657</ele>
        <time>2021-07-25T07:54:39Z</time>
      </trkpt>
      <trkpt lat="44.67144" lon="5.53855">
        <ele>657</ele>
        <time>2021-07-25T07:54:41Z</time>
      </trkpt>
      <trkpt lat="44.67135" lon="5.53867">
        <ele>657</ele>
        <time>2021-07-25T07:54:43Z</time>
      </trkpt>
      <trkpt lat="44.67125" lon="5.53878">
        <ele>657</ele>
        <time>2021-07-25T07:54:45Z</time>
      </trkpt>
      <trkpt lat="44.67115" lon="5.5389">
        <ele>657</ele>
        <time>2021-07-25T07:54:47Z</time>
      </trkpt>
      <trkpt lat="44.67106" lon="5.53901">
        <ele>657</ele>
        <time>2021-07-25T07:54:49Z</time>
      </trkpt>
      <trkpt lat="44.67096" lon="5.53912">
        <ele>659</ele>
        <time>2021-07-25T07:54:51Z</time>
      </trkpt>
      <trkpt lat="44.67087" lon="5.53924">
        <ele>659</ele>
        <time>2021-07-25T07:54:53Z</time>
      </trkpt>
      <trkpt lat="44.67078" lon="5.53936">
        <ele>659</ele>
        <time>2021-07-25T07:54:55Z</time>
      </trkpt>
      <trkpt lat="44.67073" lon="5.53942">
        <ele>659</ele>
        <time>2021-07-25T07:54:56Z</time>
      </trkpt>
      <trkpt lat="44.67069" lon="5.53948">
        <ele>659</ele>
        <time>2021-07-25T07:54:57Z</time>
      </trkpt>
      <trkpt lat="44.67064" lon="5.53954">
        <ele>659</ele>
        <time>2021-07-25T07:54:58Z</time>
      </trkpt>
      <trkpt lat="44.6706" lon="5.5396">
        <ele>659</ele>
        <time>2021-07-25T07:54:59Z</time>
      </trkpt>
      <trkpt lat="44.67056" lon="5.53966">
        <ele>659</ele>
        <time>2021-07-25T07:55:00Z</time>
      </trkpt>
      <trkpt lat="44.67047" lon="5.53978">
        <ele>659</ele>
        <time>2021-07-25T07:55:02Z</time>
      </trkpt>
      <trkpt lat="44.67038" lon="5.53989">
        <ele>659</ele>
        <time>2021-07-25T07:55:04Z</time>
      </trkpt>
      <trkpt lat="44.67029" lon="5.54">
        <ele>659</ele>
        <time>2021-07-25T07:55:06Z</time>
      </trkpt>
      <trkpt lat="44.6702" lon="5.54013">
        <ele>659</ele>
        <time>2021-07-25T07:55:08Z</time>
      </trkpt>
      <trkpt lat="44.67011" lon="5.54024">
        <ele>660</ele>
        <time>2021-07-25T07:55:10Z</time>
      </trkpt>
      <trkpt lat="44.67002" lon="5.54036">
        <ele>660</ele>
        <time>2021-07-25T07:55:12Z</time>
      </trkpt>
      <trkpt lat="44.66993" lon="5.54047">
        <ele>660</ele>
        <time>2021-07-25T07:55:14Z</time>
      </trkpt>
      <trkpt lat="44.66984" lon="5.54058">
        <ele>660</ele>
        <time>2021-07-25T07:55:16Z</time>
      </trkpt>
      <trkpt lat="44.66975" lon="5.54069">
        <ele>660</ele>
        <time>2021-07-25T07:55:18Z</time>
      </trkpt>
      <trkpt lat="44.66966" lon="5.54081">
        <ele>661</ele>
        <time>2021-07-25T07:55:20Z</time>
      </trkpt>
      <trkpt lat="44.66961" lon="5.54087">
        <ele>661</ele>
        <time>2021-07-25T07:55:21Z</time>
      </trkpt>
      <trkpt lat="44.66957" lon="5.54092">
        <ele>661</ele>
        <time>2021-07-25T07:55:22Z</time>
      </trkpt>
      <trkpt lat="44.66952" lon="5.54098">
        <ele>661</ele>
        <time>2021-07-25T07:55:23Z</time>
      </trkpt>
      <trkpt lat="44.66948" lon="5.54104">
        <ele>661</ele>
        <time>2021-07-25T07:55:24Z</time>
      </trkpt>
      <trkpt lat="44.66944" lon="5.5411">
        <ele>661</ele>
        <time>2021-07-25T07:55:25Z</time>
      </trkpt>
      <trkpt lat="44.66939" lon="5.54116">
        <ele>661</ele>
        <time>2021-07-25T07:55:26Z</time>
      </trkpt>
      <trkpt lat="44.66935" lon="5.54122">
        <ele>661</ele>
        <time>2021-07-25T07:55:27Z</time>
      </trkpt>
      <trkpt lat="44.66931" lon="5.54127">
        <ele>661</ele>
        <time>2021-07-25T07:55:28Z</time>
      </trkpt>
      <trkpt lat="44.66926" lon="5.54133">
        <ele>661</ele>
        <time>2021-07-25T07:55:29Z</time>
      </trkpt>
      <trkpt lat="44.66922" lon="5.54139">
        <ele>663</ele>
        <time>2021-07-25T07:55:30Z</time>
      </trkpt>
      <trkpt lat="44.66917" lon="5.54144">
        <ele>663</ele>
        <time>2021-07-25T07:55:31Z</time>
      </trkpt>
      <trkpt lat="44.66912" lon="5.5415">
        <ele>663</ele>
        <time>2021-07-25T07:55:32Z</time>
      </trkpt>
      <trkpt lat="44.66908" lon="5.54156">
        <ele>663</ele>
        <time>2021-07-25T07:55:33Z</time>
      </trkpt>
      <trkpt lat="44.66903" lon="5.54162">
        <ele>663</ele>
        <time>2021-07-25T07:55:34Z</time>
      </trkpt>
      <trkpt lat="44.66899" lon="5.54169">
        <ele>663</ele>
        <time>2021-07-25T07:55:35Z</time>
      </trkpt>
      <trkpt lat="44.66895" lon="5.54175">
        <ele>663</ele>
        <time>2021-07-25T07:55:36Z</time>
      </trkpt>
      <trkpt lat="44.6689" lon="5.54181">
        <ele>663</ele>
        <time>2021-07-25T07:55:37Z</time>
      </trkpt>
      <trkpt lat="44.66885" lon="5.54186">
        <ele>662</ele>
        <time>2021-07-25T07:55:38Z</time>
      </trkpt>
      <trkpt lat="44.66881" lon="5.54192">
        <ele>662</ele>
        <time>2021-07-25T07:55:39Z</time>
      </trkpt>
      <trkpt lat="44.66876" lon="5.54197">
        <ele>663</ele>
        <time>2021-07-25T07:55:40Z</time>
      </trkpt>
      <trkpt lat="44.66871" lon="5.54203">
        <ele>663</ele>
        <time>2021-07-25T07:55:41Z</time>
      </trkpt>
      <trkpt lat="44.66867" lon="5.54209">
        <ele>663</ele>
        <time>2021-07-25T07:55:42Z</time>
      </trkpt>
      <trkpt lat="44.66862" lon="5.54215">
        <ele>663</ele>
        <time>2021-07-25T07:55:43Z</time>
      </trkpt>
      <trkpt lat="44.66858" lon="5.54221">
        <ele>663</ele>
        <time>2021-07-25T07:55:44Z</time>
      </trkpt>
      <trkpt lat="44.66853" lon="5.54226">
        <ele>663</ele>
        <time>2021-07-25T07:55:45Z</time>
      </trkpt>
      <trkpt lat="44.66849" lon="5.54232">
        <ele>663</ele>
        <time>2021-07-25T07:55:46Z</time>
      </trkpt>
      <trkpt lat="44.66844" lon="5.54238">
        <ele>663</ele>
        <time>2021-07-25T07:55:47Z</time>
      </trkpt>
      <trkpt lat="44.6684" lon="5.54245">
        <ele>663</ele>
        <time>2021-07-25T07:55:48Z</time>
      </trkpt>
      <trkpt lat="44.66836" lon="5.54251">
        <ele>663</ele>
        <time>2021-07-25T07:55:49Z</time>
      </trkpt>
      <trkpt lat="44.66832" lon="5.54258">
        <ele>665</ele>
        <time>2021-07-25T07:55:50Z</time>
      </trkpt>
      <trkpt lat="44.66829" lon="5.54265">
        <ele>665</ele>
        <time>2021-07-25T07:55:51Z</time>
      </trkpt>
      <trkpt lat="44.66825" lon="5.54272">
        <ele>665</ele>
        <time>2021-07-25T07:55:52Z</time>
      </trkpt>
      <trkpt lat="44.66822" lon="5.54279">
        <ele>665</ele>
        <time>2021-07-25T07:55:53Z</time>
      </trkpt>
      <trkpt lat="44.66818" lon="5.54286">
        <ele>665</ele>
        <time>2021-07-25T07:55:54Z</time>
      </trkpt>
      <trkpt lat="44.66815" lon="5.54293">
        <ele>665</ele>
        <time>2021-07-25T07:55:55Z</time>
      </trkpt>
      <trkpt lat="44.6681" lon="5.54307">
        <ele>665</ele>
        <time>2021-07-25T07:55:57Z</time>
      </trkpt>
      <trkpt lat="44.66807" lon="5.54315">
        <ele>665</ele>
        <time>2021-07-25T07:55:58Z</time>
      </trkpt>
      <trkpt lat="44.66804" lon="5.54322">
        <ele>665</ele>
        <time>2021-07-25T07:55:59Z</time>
      </trkpt>
      <trkpt lat="44.66802" lon="5.5433">
        <ele>667</ele>
        <time>2021-07-25T07:56:00Z</time>
      </trkpt>
      <trkpt lat="44.668" lon="5.54338">
        <ele>667</ele>
        <time>2021-07-25T07:56:01Z</time>
      </trkpt>
      <trkpt lat="44.66798" lon="5.54346">
        <ele>667</ele>
        <time>2021-07-25T07:56:02Z</time>
      </trkpt>
      <trkpt lat="44.66797" lon="5.54354">
        <ele>667</ele>
        <time>2021-07-25T07:56:03Z</time>
      </trkpt>
      <trkpt lat="44.66798" lon="5.54369">
        <ele>667</ele>
        <time>2021-07-25T07:56:05Z</time>
      </trkpt>
      <trkpt lat="44.66803" lon="5.54382">
        <ele>667</ele>
        <time>2021-07-25T07:56:07Z</time>
      </trkpt>
      <trkpt lat="44.66806" lon="5.54387">
        <ele>667</ele>
        <time>2021-07-25T07:56:08Z</time>
      </trkpt>
      <trkpt lat="44.6681" lon="5.54392">
        <ele>667</ele>
        <time>2021-07-25T07:56:09Z</time>
      </trkpt>
      <trkpt lat="44.66815" lon="5.54396">
        <ele>668</ele>
        <time>2021-07-25T07:56:10Z</time>
      </trkpt>
      <trkpt lat="44.66824" lon="5.54406">
        <ele>668</ele>
        <time>2021-07-25T07:56:12Z</time>
      </trkpt>
      <trkpt lat="44.66831" lon="5.54418">
        <ele>668</ele>
        <time>2021-07-25T07:56:14Z</time>
      </trkpt>
      <trkpt lat="44.66835" lon="5.54433">
        <ele>668</ele>
        <time>2021-07-25T07:56:16Z</time>
      </trkpt>
      <trkpt lat="44.66836" lon="5.54449">
        <ele>668</ele>
        <time>2021-07-25T07:56:18Z</time>
      </trkpt>
      <trkpt lat="44.66833" lon="5.54465">
        <ele>670</ele>
        <time>2021-07-25T07:56:20Z</time>
      </trkpt>
      <trkpt lat="44.66828" lon="5.54481">
        <ele>670</ele>
        <time>2021-07-25T07:56:22Z</time>
      </trkpt>
      <trkpt lat="44.66825" lon="5.54488">
        <ele>670</ele>
        <time>2021-07-25T07:56:23Z</time>
      </trkpt>
      <trkpt lat="44.66818" lon="5.54502">
        <ele>670</ele>
        <time>2021-07-25T07:56:25Z</time>
      </trkpt>
      <trkpt lat="44.66814" lon="5.54508">
        <ele>670</ele>
        <time>2021-07-25T07:56:26Z</time>
      </trkpt>
      <trkpt lat="44.66807" lon="5.5452">
        <ele>670</ele>
        <time>2021-07-25T07:56:28Z</time>
      </trkpt>
      <trkpt lat="44.66797" lon="5.54529">
        <ele>670</ele>
        <time>2021-07-25T07:56:30Z</time>
      </trkpt>
      <trkpt lat="44.66787" lon="5.54536">
        <ele>670</ele>
        <time>2021-07-25T07:56:32Z</time>
      </trkpt>
      <trkpt lat="44.66777" lon="5.54544">
        <ele>670</ele>
        <time>2021-07-25T07:56:34Z</time>
      </trkpt>
      <trkpt lat="44.66767" lon="5.54552">
        <ele>670</ele>
        <time>2021-07-25T07:56:36Z</time>
      </trkpt>
      <trkpt lat="44.66758" lon="5.54559">
        <ele>670</ele>
        <time>2021-07-25T07:56:38Z</time>
      </trkpt>
      <trkpt lat="44.66751" lon="5.54567">
        <ele>671</ele>
        <time>2021-07-25T07:56:40Z</time>
      </trkpt>
      <trkpt lat="44.66741" lon="5.54577">
        <ele>671</ele>
        <time>2021-07-25T07:56:43Z</time>
      </trkpt>
      <trkpt lat="44.66733" lon="5.54586">
        <ele>671</ele>
        <time>2021-07-25T07:56:45Z</time>
      </trkpt>
      <trkpt lat="44.66723" lon="5.54596">
        <ele>671</ele>
        <time>2021-07-25T07:56:47Z</time>
      </trkpt>
      <trkpt lat="44.66715" lon="5.54606">
        <ele>671</ele>
        <time>2021-07-25T07:56:49Z</time>
      </trkpt>
      <trkpt lat="44.66705" lon="5.54617">
        <ele>673</ele>
        <time>2021-07-25T07:56:51Z</time>
      </trkpt>
      <trkpt lat="44.66695" lon="5.54626">
        <ele>673</ele>
        <time>2021-07-25T07:56:53Z</time>
      </trkpt>
      <trkpt lat="44.66683" lon="5.54633">
        <ele>675</ele>
        <time>2021-07-25T07:56:55Z</time>
      </trkpt>
      <trkpt lat="44.66667" lon="5.54639">
        <ele>675</ele>
        <time>2021-07-25T07:56:57Z</time>
      </trkpt>
      <trkpt lat="44.66652" lon="5.54644">
        <ele>675</ele>
        <time>2021-07-25T07:56:59Z</time>
      </trkpt>
      <trkpt lat="44.6664" lon="5.54648">
        <ele>675</ele>
        <time>2021-07-25T07:57:01Z</time>
      </trkpt>
      <trkpt lat="44.66629" lon="5.54654">
        <ele>675</ele>
        <time>2021-07-25T07:57:03Z</time>
      </trkpt>
      <trkpt lat="44.66621" lon="5.54662">
        <ele>675</ele>
        <time>2021-07-25T07:57:05Z</time>
      </trkpt>
      <trkpt lat="44.66614" lon="5.54672">
        <ele>675</ele>
        <time>2021-07-25T07:57:07Z</time>
      </trkpt>
      <trkpt lat="44.66606" lon="5.54684">
        <ele>677</ele>
        <time>2021-07-25T07:57:10Z</time>
      </trkpt>
      <trkpt lat="44.66622" lon="5.54799">
        <ele>677</ele>
        <time>2021-07-25T07:57:24Z</time>
      </trkpt>
      <trkpt lat="44.66631" lon="5.54814">
        <ele>677</ele>
        <time>2021-07-25T07:57:26Z</time>
      </trkpt>
      <trkpt lat="44.66638" lon="5.54828">
        <ele>677</ele>
        <time>2021-07-25T07:57:28Z</time>
      </trkpt>
      <trkpt lat="44.66644" lon="5.54843">
        <ele>679</ele>
        <time>2021-07-25T07:57:30Z</time>
      </trkpt>
      <trkpt lat="44.66653" lon="5.54858">
        <ele>679</ele>
        <time>2021-07-25T07:57:32Z</time>
      </trkpt>
      <trkpt lat="44.6666" lon="5.54873">
        <ele>679</ele>
        <time>2021-07-25T07:57:34Z</time>
      </trkpt>
      <trkpt lat="44.66666" lon="5.54889">
        <ele>679</ele>
        <time>2021-07-25T07:57:36Z</time>
      </trkpt>
      <trkpt lat="44.66672" lon="5.54904">
        <ele>679</ele>
        <time>2021-07-25T07:57:38Z</time>
      </trkpt>
      <trkpt lat="44.66677" lon="5.54921">
        <ele>680</ele>
        <time>2021-07-25T07:57:40Z</time>
      </trkpt>
      <trkpt lat="44.66683" lon="5.54937">
        <ele>680</ele>
        <time>2021-07-25T07:57:42Z</time>
      </trkpt>
      <trkpt lat="44.66689" lon="5.54952">
        <ele>680</ele>
        <time>2021-07-25T07:57:44Z</time>
      </trkpt>
      <trkpt lat="44.66696" lon="5.54968">
        <ele>680</ele>
        <time>2021-07-25T07:57:46Z</time>
      </trkpt>
      <trkpt lat="44.66703" lon="5.54983">
        <ele>680</ele>
        <time>2021-07-25T07:57:48Z</time>
      </trkpt>
      <trkpt lat="44.66709" lon="5.54998">
        <ele>681</ele>
        <time>2021-07-25T07:57:50Z</time>
      </trkpt>
      <trkpt lat="44.66714" lon="5.55014">
        <ele>681</ele>
        <time>2021-07-25T07:57:52Z</time>
      </trkpt>
      <trkpt lat="44.66719" lon="5.55029">
        <ele>681</ele>
        <time>2021-07-25T07:57:54Z</time>
      </trkpt>
      <trkpt lat="44.66725" lon="5.55044">
        <ele>681</ele>
        <time>2021-07-25T07:57:56Z</time>
      </trkpt>
      <trkpt lat="44.66727" lon="5.55062">
        <ele>681</ele>
        <time>2021-07-25T07:57:58Z</time>
      </trkpt>
      <trkpt lat="44.66735" lon="5.55076">
        <ele>682</ele>
        <time>2021-07-25T07:58:00Z</time>
      </trkpt>
      <trkpt lat="44.66741" lon="5.55092">
        <ele>682</ele>
        <time>2021-07-25T07:58:02Z</time>
      </trkpt>
      <trkpt lat="44.66746" lon="5.55107">
        <ele>682</ele>
        <time>2021-07-25T07:58:04Z</time>
      </trkpt>
      <trkpt lat="44.66752" lon="5.55122">
        <ele>682</ele>
        <time>2021-07-25T07:58:06Z</time>
      </trkpt>
      <trkpt lat="44.66758" lon="5.55138">
        <ele>682</ele>
        <time>2021-07-25T07:58:08Z</time>
      </trkpt>
      <trkpt lat="44.66764" lon="5.55153">
        <ele>683</ele>
        <time>2021-07-25T07:58:10Z</time>
      </trkpt>
      <trkpt lat="44.66769" lon="5.55168">
        <ele>683</ele>
        <time>2021-07-25T07:58:12Z</time>
      </trkpt>
      <trkpt lat="44.66777" lon="5.55182">
        <ele>683</ele>
        <time>2021-07-25T07:58:14Z</time>
      </trkpt>
      <trkpt lat="44.66784" lon="5.55196">
        <ele>683</ele>
        <time>2021-07-25T07:58:16Z</time>
      </trkpt>
      <trkpt lat="44.66792" lon="5.5521">
        <ele>683</ele>
        <time>2021-07-25T07:58:18Z</time>
      </trkpt>
      <trkpt lat="44.66801" lon="5.55222">
        <ele>683</ele>
        <time>2021-07-25T07:58:20Z</time>
      </trkpt>
      <trkpt lat="44.66807" lon="5.55236">
        <ele>683</ele>
        <time>2021-07-25T07:58:22Z</time>
      </trkpt>
      <trkpt lat="44.66814" lon="5.5525">
        <ele>683</ele>
        <time>2021-07-25T07:58:24Z</time>
      </trkpt>
      <trkpt lat="44.6682" lon="5.55263">
        <ele>683</ele>
        <time>2021-07-25T07:58:26Z</time>
      </trkpt>
      <trkpt lat="44.66826" lon="5.55275">
        <ele>683</ele>
        <time>2021-07-25T07:58:28Z</time>
      </trkpt>
      <trkpt lat="44.66864" lon="5.5534">
        <ele>685</ele>
        <time>2021-07-25T07:58:38Z</time>
      </trkpt>
      <trkpt lat="44.66868" lon="5.55347">
        <ele>685</ele>
        <time>2021-07-25T07:58:39Z</time>
      </trkpt>
      <trkpt lat="44.66877" lon="5.5536">
        <ele>687</ele>
        <time>2021-07-25T07:58:41Z</time>
      </trkpt>
      <trkpt lat="44.66886" lon="5.55373">
        <ele>687</ele>
        <time>2021-07-25T07:58:43Z</time>
      </trkpt>
      <trkpt lat="44.66896" lon="5.55386">
        <ele>687</ele>
        <time>2021-07-25T07:58:45Z</time>
      </trkpt>
      <trkpt lat="44.66905" lon="5.55399">
        <ele>687</ele>
        <time>2021-07-25T07:58:47Z</time>
      </trkpt>
      <trkpt lat="44.66914" lon="5.55412">
        <ele>687</ele>
        <time>2021-07-25T07:58:49Z</time>
      </trkpt>
      <trkpt lat="44.66922" lon="5.55424">
        <ele>688</ele>
        <time>2021-07-25T07:58:51Z</time>
      </trkpt>
      <trkpt lat="44.6693" lon="5.55436">
        <ele>688</ele>
        <time>2021-07-25T07:58:53Z</time>
      </trkpt>
      <trkpt lat="44.6694" lon="5.55447">
        <ele>688</ele>
        <time>2021-07-25T07:58:55Z</time>
      </trkpt>
      <trkpt lat="44.6695" lon="5.55457">
        <ele>688</ele>
        <time>2021-07-25T07:58:57Z</time>
      </trkpt>
      <trkpt lat="44.66958" lon="5.55468">
        <ele>688</ele>
        <time>2021-07-25T07:58:59Z</time>
      </trkpt>
      <trkpt lat="44.66968" lon="5.55478">
        <ele>689</ele>
        <time>2021-07-25T07:59:01Z</time>
      </trkpt>
      <trkpt lat="44.66977" lon="5.55488">
        <ele>689</ele>
        <time>2021-07-25T07:59:03Z</time>
      </trkpt>
      <trkpt lat="44.66985" lon="5.55499">
        <ele>689</ele>
        <time>2021-07-25T07:59:05Z</time>
      </trkpt>
      <trkpt lat="44.66994" lon="5.5551">
        <ele>689</ele>
        <time>2021-07-25T07:59:07Z</time>
      </trkpt>
      <trkpt lat="44.67001" lon="5.55521">
        <ele>689</ele>
        <time>2021-07-25T07:59:09Z</time>
      </trkpt>
      <trkpt lat="44.67008" lon="5.55532">
        <ele>690</ele>
        <time>2021-07-25T07:59:11Z</time>
      </trkpt>
      <trkpt lat="44.67014" lon="5.55543">
        <ele>690</ele>
        <time>2021-07-25T07:59:13Z</time>
      </trkpt>
      <trkpt lat="44.67023" lon="5.55554">
        <ele>690</ele>
        <time>2021-07-25T07:59:15Z</time>
      </trkpt>
      <trkpt lat="44.6703" lon="5.55564">
        <ele>690</ele>
        <time>2021-07-25T07:59:17Z</time>
      </trkpt>
      <trkpt lat="44.67037" lon="5.55576">
        <ele>690</ele>
        <time>2021-07-25T07:59:19Z</time>
      </trkpt>
      <trkpt lat="44.67044" lon="5.55587">
        <ele>692</ele>
        <time>2021-07-25T07:59:21Z</time>
      </trkpt>
      <trkpt lat="44.6705" lon="5.55599">
        <ele>692</ele>
        <time>2021-07-25T07:59:23Z</time>
      </trkpt>
      <trkpt lat="44.67056" lon="5.55611">
        <ele>692</ele>
        <time>2021-07-25T07:59:25Z</time>
      </trkpt>
      <trkpt lat="44.67063" lon="5.55628">
        <ele>692</ele>
        <time>2021-07-25T07:59:28Z</time>
      </trkpt>
      <trkpt lat="44.67073" lon="5.5564">
        <ele>694</ele>
        <time>2021-07-25T07:59:31Z</time>
      </trkpt>
      <trkpt lat="44.67084" lon="5.55651">
        <ele>694</ele>
        <time>2021-07-25T07:59:34Z</time>
      </trkpt>
      <trkpt lat="44.67108" lon="5.55651">
        <ele>694</ele>
        <time>2021-07-25T07:59:37Z</time>
      </trkpt>
      <trkpt lat="44.6712" lon="5.55648">
        <ele>694</ele>
        <time>2021-07-25T07:59:38Z</time>
      </trkpt>
      <trkpt lat="44.67135" lon="5.55651">
        <ele>695</ele>
        <time>2021-07-25T07:59:40Z</time>
      </trkpt>
      <trkpt lat="44.67149" lon="5.55657">
        <ele>695</ele>
        <time>2021-07-25T07:59:42Z</time>
      </trkpt>
      <trkpt lat="44.67165" lon="5.55664">
        <ele>695</ele>
        <time>2021-07-25T07:59:44Z</time>
      </trkpt>
      <trkpt lat="44.67176" lon="5.55675">
        <ele>695</ele>
        <time>2021-07-25T07:59:46Z</time>
      </trkpt>
      <trkpt lat="44.67182" lon="5.55689">
        <ele>695</ele>
        <time>2021-07-25T07:59:48Z</time>
      </trkpt>
      <trkpt lat="44.67186" lon="5.55705">
        <ele>695</ele>
        <time>2021-07-25T07:59:50Z</time>
      </trkpt>
      <trkpt lat="44.67189" lon="5.55721">
        <ele>695</ele>
        <time>2021-07-25T07:59:52Z</time>
      </trkpt>
      <trkpt lat="44.67192" lon="5.55737">
        <ele>695</ele>
        <time>2021-07-25T07:59:54Z</time>
      </trkpt>
      <trkpt lat="44.67194" lon="5.55754">
        <ele>695</ele>
        <time>2021-07-25T07:59:56Z</time>
      </trkpt>
      <trkpt lat="44.67196" lon="5.5577">
        <ele>695</ele>
        <time>2021-07-25T07:59:58Z</time>
      </trkpt>
      <trkpt lat="44.672" lon="5.55785">
        <ele>697</ele>
        <time>2021-07-25T08:00:00Z</time>
      </trkpt>
      <trkpt lat="44.67208" lon="5.55798">
        <ele>697</ele>
        <time>2021-07-25T08:00:02Z</time>
      </trkpt>
      <trkpt lat="44.67218" lon="5.55808">
        <ele>697</ele>
        <time>2021-07-25T08:00:04Z</time>
      </trkpt>
      <trkpt lat="44.6723" lon="5.55815">
        <ele>697</ele>
        <time>2021-07-25T08:00:06Z</time>
      </trkpt>
      <trkpt lat="44.67244" lon="5.55822">
        <ele>697</ele>
        <time>2021-07-25T08:00:08Z</time>
      </trkpt>
      <trkpt lat="44.67258" lon="5.55827">
        <ele>698</ele>
        <time>2021-07-25T08:00:10Z</time>
      </trkpt>
      <trkpt lat="44.67268" lon="5.55834">
        <ele>698</ele>
        <time>2021-07-25T08:00:12Z</time>
      </trkpt>
      <trkpt lat="44.67278" lon="5.55841">
        <ele>698</ele>
        <time>2021-07-25T08:00:14Z</time>
      </trkpt>
      <trkpt lat="44.67289" lon="5.55847">
        <ele>698</ele>
        <time>2021-07-25T08:00:16Z</time>
      </trkpt>
      <trkpt lat="44.67302" lon="5.55855">
        <ele>698</ele>
        <time>2021-07-25T08:00:18Z</time>
      </trkpt>
      <trkpt lat="44.67314" lon="5.55865">
        <ele>700</ele>
        <time>2021-07-25T08:00:20Z</time>
      </trkpt>
      <trkpt lat="44.67327" lon="5.55875">
        <ele>700</ele>
        <time>2021-07-25T08:00:22Z</time>
      </trkpt>
      <trkpt lat="44.67329" lon="5.55894">
        <ele>700</ele>
        <time>2021-07-25T08:00:24Z</time>
      </trkpt>
      <trkpt lat="44.6733" lon="5.55912">
        <ele>700</ele>
        <time>2021-07-25T08:00:26Z</time>
      </trkpt>
      <trkpt lat="44.67334" lon="5.55928">
        <ele>700</ele>
        <time>2021-07-25T08:00:28Z</time>
      </trkpt>
      <trkpt lat="44.67341" lon="5.55941">
        <ele>701</ele>
        <time>2021-07-25T08:00:30Z</time>
      </trkpt>
      <trkpt lat="44.67349" lon="5.55951">
        <ele>701</ele>
        <time>2021-07-25T08:00:32Z</time>
      </trkpt>
      <trkpt lat="44.67356" lon="5.55954">
        <ele>701</ele>
        <time>2021-07-25T08:00:33Z</time>
      </trkpt>
      <trkpt lat="44.67366" lon="5.55962">
        <ele>701</ele>
        <time>2021-07-25T08:00:35Z</time>
      </trkpt>
      <trkpt lat="44.6737" lon="5.55967">
        <ele>701</ele>
        <time>2021-07-25T08:00:36Z</time>
      </trkpt>
      <trkpt lat="44.67375" lon="5.55973">
        <ele>701</ele>
        <time>2021-07-25T08:00:37Z</time>
      </trkpt>
      <trkpt lat="44.6738" lon="5.55979">
        <ele>701</ele>
        <time>2021-07-25T08:00:38Z</time>
      </trkpt>
      <trkpt lat="44.67384" lon="5.55987">
        <ele>701</ele>
        <time>2021-07-25T08:00:39Z</time>
      </trkpt>
      <trkpt lat="44.67386" lon="5.55996">
        <ele>702</ele>
        <time>2021-07-25T08:00:40Z</time>
      </trkpt>
      <trkpt lat="44.67388" lon="5.56006">
        <ele>702</ele>
        <time>2021-07-25T08:00:41Z</time>
      </trkpt>
      <trkpt lat="44.67388" lon="5.56016">
        <ele>702</ele>
        <time>2021-07-25T08:00:42Z</time>
      </trkpt>
      <trkpt lat="44.67388" lon="5.56026">
        <ele>702</ele>
        <time>2021-07-25T08:00:43Z</time>
      </trkpt>
      <trkpt lat="44.67388" lon="5.56035">
        <ele>702</ele>
        <time>2021-07-25T08:00:44Z</time>
      </trkpt>
      <trkpt lat="44.67388" lon="5.56045">
        <ele>702</ele>
        <time>2021-07-25T08:00:45Z</time>
      </trkpt>
      <trkpt lat="44.67389" lon="5.56063">
        <ele>702</ele>
        <time>2021-07-25T08:00:47Z</time>
      </trkpt>
      <trkpt lat="44.67389" lon="5.56081">
        <ele>702</ele>
        <time>2021-07-25T08:00:49Z</time>
      </trkpt>
      <trkpt lat="44.67389" lon="5.56099">
        <ele>703</ele>
        <time>2021-07-25T08:00:51Z</time>
      </trkpt>
      <trkpt lat="44.6739" lon="5.56107">
        <ele>703</ele>
        <time>2021-07-25T08:00:52Z</time>
      </trkpt>
      <trkpt lat="44.6739" lon="5.56116">
        <ele>703</ele>
        <time>2021-07-25T08:00:53Z</time>
      </trkpt>
      <trkpt lat="44.67391" lon="5.56132">
        <ele>703</ele>
        <time>2021-07-25T08:00:55Z</time>
      </trkpt>
      <trkpt lat="44.67395" lon="5.56148">
        <ele>703</ele>
        <time>2021-07-25T08:00:57Z</time>
      </trkpt>
      <trkpt lat="44.674" lon="5.56163">
        <ele>703</ele>
        <time>2021-07-25T08:00:59Z</time>
      </trkpt>
      <trkpt lat="44.67404" lon="5.56178">
        <ele>706</ele>
        <time>2021-07-25T08:01:01Z</time>
      </trkpt>
      <trkpt lat="44.67404" lon="5.56195">
        <ele>706</ele>
        <time>2021-07-25T08:01:03Z</time>
      </trkpt>
      <trkpt lat="44.67422" lon="5.56203">
        <ele>706</ele>
        <time>2021-07-25T08:01:06Z</time>
      </trkpt>
      <trkpt lat="44.67434" lon="5.562">
        <ele>706</ele>
        <time>2021-07-25T08:01:07Z</time>
      </trkpt>
      <trkpt lat="44.67444" lon="5.56198">
        <ele>706</ele>
        <time>2021-07-25T08:01:08Z</time>
      </trkpt>
      <trkpt lat="44.67457" lon="5.56198">
        <ele>705</ele>
        <time>2021-07-25T08:01:10Z</time>
      </trkpt>
      <trkpt lat="44.67471" lon="5.56197">
        <ele>705</ele>
        <time>2021-07-25T08:01:12Z</time>
      </trkpt>
      <trkpt lat="44.67478" lon="5.56198">
        <ele>705</ele>
        <time>2021-07-25T08:01:13Z</time>
      </trkpt>
      <trkpt lat="44.67485" lon="5.56198">
        <ele>705</ele>
        <time>2021-07-25T08:01:14Z</time>
      </trkpt>
      <trkpt lat="44.67492" lon="5.56198">
        <ele>705</ele>
        <time>2021-07-25T08:01:15Z</time>
      </trkpt>
      <trkpt lat="44.67498" lon="5.56197">
        <ele>705</ele>
        <time>2021-07-25T08:01:16Z</time>
      </trkpt>
      <trkpt lat="44.67505" lon="5.56197">
        <ele>705</ele>
        <time>2021-07-25T08:01:17Z</time>
      </trkpt>
      <trkpt lat="44.67511" lon="5.56197">
        <ele>705</ele>
        <time>2021-07-25T08:01:18Z</time>
      </trkpt>
      <trkpt lat="44.67516" lon="5.56198">
        <ele>705</ele>
        <time>2021-07-25T08:01:19Z</time>
      </trkpt>
      <trkpt lat="44.67527" lon="5.56199">
        <ele>707</ele>
        <time>2021-07-25T08:01:21Z</time>
      </trkpt>
      <trkpt lat="44.67539" lon="5.56199">
        <ele>707</ele>
        <time>2021-07-25T08:01:23Z</time>
      </trkpt>
      <trkpt lat="44.67551" lon="5.56201">
        <ele>707</ele>
        <time>2021-07-25T08:01:25Z</time>
      </trkpt>
      <trkpt lat="44.67562" lon="5.56202">
        <ele>707</ele>
        <time>2021-07-25T08:01:27Z</time>
      </trkpt>
      <trkpt lat="44.67575" lon="5.56204">
        <ele>709</ele>
        <time>2021-07-25T08:01:30Z</time>
      </trkpt>
      <trkpt lat="44.67584" lon="5.56206">
        <ele>709</ele>
        <time>2021-07-25T08:01:32Z</time>
      </trkpt>
      <trkpt lat="44.67595" lon="5.56205">
        <ele>709</ele>
        <time>2021-07-25T08:01:34Z</time>
      </trkpt>
      <trkpt lat="44.67606" lon="5.56202">
        <ele>709</ele>
        <time>2021-07-25T08:01:36Z</time>
      </trkpt>
      <trkpt lat="44.67617" lon="5.562">
        <ele>709</ele>
        <time>2021-07-25T08:01:38Z</time>
      </trkpt>
      <trkpt lat="44.67628" lon="5.56195">
        <ele>710</ele>
        <time>2021-07-25T08:01:40Z</time>
      </trkpt>
      <trkpt lat="44.6764" lon="5.56191">
        <ele>710</ele>
        <time>2021-07-25T08:01:42Z</time>
      </trkpt>
      <trkpt lat="44.67652" lon="5.5619">
        <ele>710</ele>
        <time>2021-07-25T08:01:44Z</time>
      </trkpt>
      <trkpt lat="44.67667" lon="5.56193">
        <ele>710</ele>
        <time>2021-07-25T08:01:47Z</time>
      </trkpt>
      <trkpt lat="44.67677" lon="5.56197">
        <ele>710</ele>
        <time>2021-07-25T08:01:49Z</time>
      </trkpt>
      <trkpt lat="44.67686" lon="5.56205">
        <ele>713</ele>
        <time>2021-07-25T08:01:51Z</time>
      </trkpt>
      <trkpt lat="44.67694" lon="5.56214">
        <ele>713</ele>
        <time>2021-07-25T08:01:53Z</time>
      </trkpt>
      <trkpt lat="44.67701" lon="5.56231">
        <ele>715</ele>
        <time>2021-07-25T08:01:56Z</time>
      </trkpt>
      <trkpt lat="44.67703" lon="5.56244">
        <ele>715</ele>
        <time>2021-07-25T08:01:58Z</time>
      </trkpt>
      <trkpt lat="44.67702" lon="5.56258">
        <ele>716</ele>
        <time>2021-07-25T08:02:00Z</time>
      </trkpt>
      <trkpt lat="44.67699" lon="5.56272">
        <ele>716</ele>
        <time>2021-07-25T08:02:02Z</time>
      </trkpt>
      <trkpt lat="44.67692" lon="5.5629">
        <ele>717</ele>
        <time>2021-07-25T08:02:05Z</time>
      </trkpt>
      <trkpt lat="44.67687" lon="5.56301">
        <ele>717</ele>
        <time>2021-07-25T08:02:07Z</time>
      </trkpt>
      <trkpt lat="44.67684" lon="5.56307">
        <ele>717</ele>
        <time>2021-07-25T08:02:08Z</time>
      </trkpt>
      <trkpt lat="44.67679" lon="5.56319">
        <ele>718</ele>
        <time>2021-07-25T08:02:10Z</time>
      </trkpt>
      <trkpt lat="44.6768" lon="5.5634">
        <ele>718</ele>
        <time>2021-07-25T08:02:13Z</time>
      </trkpt>
      <trkpt lat="44.67684" lon="5.56355">
        <ele>718</ele>
        <time>2021-07-25T08:02:15Z</time>
      </trkpt>
      <trkpt lat="44.67688" lon="5.5637">
        <ele>718</ele>
        <time>2021-07-25T08:02:17Z</time>
      </trkpt>
      <trkpt lat="44.67693" lon="5.56384">
        <ele>718</ele>
        <time>2021-07-25T08:02:19Z</time>
      </trkpt>
      <trkpt lat="44.67708" lon="5.56391">
        <ele>719</ele>
        <time>2021-07-25T08:02:21Z</time>
      </trkpt>
      <trkpt lat="44.67715" lon="5.56395">
        <ele>719</ele>
        <time>2021-07-25T08:02:22Z</time>
      </trkpt>
      <trkpt lat="44.6772" lon="5.56401">
        <ele>719</ele>
        <time>2021-07-25T08:02:23Z</time>
      </trkpt>
      <trkpt lat="44.67725" lon="5.56408">
        <ele>719</ele>
        <time>2021-07-25T08:02:24Z</time>
      </trkpt>
      <trkpt lat="44.6773" lon="5.56416">
        <ele>719</ele>
        <time>2021-07-25T08:02:25Z</time>
      </trkpt>
      <trkpt lat="44.67735" lon="5.56423">
        <ele>719</ele>
        <time>2021-07-25T08:02:26Z</time>
      </trkpt>
      <trkpt lat="44.6774" lon="5.5643">
        <ele>719</ele>
        <time>2021-07-25T08:02:27Z</time>
      </trkpt>
      <trkpt lat="44.67746" lon="5.56437">
        <ele>719</ele>
        <time>2021-07-25T08:02:28Z</time>
      </trkpt>
      <trkpt lat="44.67757" lon="5.5645">
        <ele>721</ele>
        <time>2021-07-25T08:02:30Z</time>
      </trkpt>
      <trkpt lat="44.67771" lon="5.56462">
        <ele>721</ele>
        <time>2021-07-25T08:02:32Z</time>
      </trkpt>
      <trkpt lat="44.67778" lon="5.56466">
        <ele>721</ele>
        <time>2021-07-25T08:02:33Z</time>
      </trkpt>
      <trkpt lat="44.67785" lon="5.5647">
        <ele>721</ele>
        <time>2021-07-25T08:02:34Z</time>
      </trkpt>
      <trkpt lat="44.67797" lon="5.56478">
        <ele>721</ele>
        <time>2021-07-25T08:02:36Z</time>
      </trkpt>
      <trkpt lat="44.67808" lon="5.56484">
        <ele>721</ele>
        <time>2021-07-25T08:02:38Z</time>
      </trkpt>
      <trkpt lat="44.67823" lon="5.56492">
        <ele>721</ele>
        <time>2021-07-25T08:02:40Z</time>
      </trkpt>
      <trkpt lat="44.67842" lon="5.565">
        <ele>721</ele>
        <time>2021-07-25T08:02:42Z</time>
      </trkpt>
      <trkpt lat="44.67852" lon="5.56504">
        <ele>721</ele>
        <time>2021-07-25T08:02:43Z</time>
      </trkpt>
      <trkpt lat="44.67862" lon="5.56508">
        <ele>721</ele>
        <time>2021-07-25T08:02:44Z</time>
      </trkpt>
      <trkpt lat="44.67872" lon="5.56522">
        <ele>721</ele>
        <time>2021-07-25T08:02:46Z</time>
      </trkpt>
      <trkpt lat="44.67868" lon="5.56538">
        <ele>721</ele>
        <time>2021-07-25T08:02:47Z</time>
      </trkpt>
      <trkpt lat="44.67862" lon="5.56554">
        <ele>721</ele>
        <time>2021-07-25T08:02:48Z</time>
      </trkpt>
      <trkpt lat="44.67859" lon="5.56568">
        <ele>721</ele>
        <time>2021-07-25T08:02:49Z</time>
      </trkpt>
      <trkpt lat="44.67864" lon="5.56589">
        <ele>721</ele>
        <time>2021-07-25T08:02:51Z</time>
      </trkpt>
      <trkpt lat="44.67869" lon="5.5661">
        <ele>721</ele>
        <time>2021-07-25T08:02:53Z</time>
      </trkpt>
      <trkpt lat="44.67873" lon="5.5663">
        <ele>721</ele>
        <time>2021-07-25T08:02:55Z</time>
      </trkpt>
      <trkpt lat="44.67879" lon="5.56649">
        <ele>721</ele>
        <time>2021-07-25T08:02:57Z</time>
      </trkpt>
      <trkpt lat="44.67882" lon="5.56668">
        <ele>721</ele>
        <time>2021-07-25T08:02:59Z</time>
      </trkpt>
      <trkpt lat="44.67885" lon="5.56687">
        <ele>722</ele>
        <time>2021-07-25T08:03:01Z</time>
      </trkpt>
      <trkpt lat="44.6789" lon="5.56704">
        <ele>722</ele>
        <time>2021-07-25T08:03:03Z</time>
      </trkpt>
      <trkpt lat="44.67899" lon="5.56717">
        <ele>722</ele>
        <time>2021-07-25T08:03:05Z</time>
      </trkpt>
      <trkpt lat="44.67906" lon="5.56729">
        <ele>722</ele>
        <time>2021-07-25T08:03:07Z</time>
      </trkpt>
      <trkpt lat="44.67973" lon="5.56808">
        <ele>723</ele>
        <time>2021-07-25T08:03:21Z</time>
      </trkpt>
      <trkpt lat="44.67977" lon="5.56815">
        <ele>723</ele>
        <time>2021-07-25T08:03:22Z</time>
      </trkpt>
      <trkpt lat="44.6798" lon="5.56822">
        <ele>723</ele>
        <time>2021-07-25T08:03:23Z</time>
      </trkpt>
      <trkpt lat="44.67984" lon="5.56829">
        <ele>723</ele>
        <time>2021-07-25T08:03:24Z</time>
      </trkpt>
      <trkpt lat="44.67988" lon="5.56836">
        <ele>723</ele>
        <time>2021-07-25T08:03:25Z</time>
      </trkpt>
      <trkpt lat="44.67992" lon="5.56843">
        <ele>723</ele>
        <time>2021-07-25T08:03:26Z</time>
      </trkpt>
      <trkpt lat="44.67996" lon="5.5685">
        <ele>723</ele>
        <time>2021-07-25T08:03:27Z</time>
      </trkpt>
      <trkpt lat="44.68005" lon="5.56864">
        <ele>723</ele>
        <time>2021-07-25T08:03:29Z</time>
      </trkpt>
      <trkpt lat="44.68013" lon="5.56878">
        <ele>725</ele>
        <time>2021-07-25T08:03:31Z</time>
      </trkpt>
      <trkpt lat="44.68021" lon="5.56891">
        <ele>725</ele>
        <time>2021-07-25T08:03:33Z</time>
      </trkpt>
      <trkpt lat="44.68031" lon="5.56904">
        <ele>727</ele>
        <time>2021-07-25T08:03:35Z</time>
      </trkpt>
      <trkpt lat="44.6804" lon="5.56917">
        <ele>727</ele>
        <time>2021-07-25T08:03:37Z</time>
      </trkpt>
      <trkpt lat="44.68051" lon="5.56929">
        <ele>727</ele>
        <time>2021-07-25T08:03:39Z</time>
      </trkpt>
      <trkpt lat="44.68062" lon="5.5694">
        <ele>728</ele>
        <time>2021-07-25T08:03:41Z</time>
      </trkpt>
      <trkpt lat="44.68067" lon="5.56956">
        <ele>728</ele>
        <time>2021-07-25T08:03:43Z</time>
      </trkpt>
      <trkpt lat="44.68074" lon="5.56971">
        <ele>728</ele>
        <time>2021-07-25T08:03:45Z</time>
      </trkpt>
      <trkpt lat="44.68081" lon="5.56986">
        <ele>728</ele>
        <time>2021-07-25T08:03:47Z</time>
      </trkpt>
      <trkpt lat="44.68088" lon="5.57001">
        <ele>728</ele>
        <time>2021-07-25T08:03:49Z</time>
      </trkpt>
      <trkpt lat="44.68096" lon="5.57014">
        <ele>728</ele>
        <time>2021-07-25T08:03:51Z</time>
      </trkpt>
      <trkpt lat="44.681" lon="5.57021">
        <ele>728</ele>
        <time>2021-07-25T08:03:52Z</time>
      </trkpt>
      <trkpt lat="44.68108" lon="5.57033">
        <ele>728</ele>
        <time>2021-07-25T08:03:54Z</time>
      </trkpt>
      <trkpt lat="44.68113" lon="5.57045">
        <ele>728</ele>
        <time>2021-07-25T08:03:56Z</time>
      </trkpt>
      <trkpt lat="44.6812" lon="5.57061">
        <ele>728</ele>
        <time>2021-07-25T08:03:59Z</time>
      </trkpt>
      <trkpt lat="44.68129" lon="5.57074">
        <ele>731</ele>
        <time>2021-07-25T08:04:02Z</time>
      </trkpt>
      <trkpt lat="44.68139" lon="5.5708">
        <ele>731</ele>
        <time>2021-07-25T08:04:04Z</time>
      </trkpt>
      <trkpt lat="44.68148" lon="5.57087">
        <ele>731</ele>
        <time>2021-07-25T08:04:06Z</time>
      </trkpt>
      <trkpt lat="44.68159" lon="5.57095">
        <ele>731</ele>
        <time>2021-07-25T08:04:08Z</time>
      </trkpt>
      <trkpt lat="44.68169" lon="5.57105">
        <ele>732</ele>
        <time>2021-07-25T08:04:10Z</time>
      </trkpt>
      <trkpt lat="44.6818" lon="5.57117">
        <ele>732</ele>
        <time>2021-07-25T08:04:12Z</time>
      </trkpt>
      <trkpt lat="44.68192" lon="5.57127">
        <ele>732</ele>
        <time>2021-07-25T08:04:14Z</time>
      </trkpt>
      <trkpt lat="44.68202" lon="5.57137">
        <ele>732</ele>
        <time>2021-07-25T08:04:16Z</time>
      </trkpt>
      <trkpt lat="44.68213" lon="5.57147">
        <ele>732</ele>
        <time>2021-07-25T08:04:18Z</time>
      </trkpt>
      <trkpt lat="44.68222" lon="5.57158">
        <ele>733</ele>
        <time>2021-07-25T08:04:20Z</time>
      </trkpt>
      <trkpt lat="44.68228" lon="5.57172">
        <ele>733</ele>
        <time>2021-07-25T08:04:22Z</time>
      </trkpt>
      <trkpt lat="44.68233" lon="5.57188">
        <ele>733</ele>
        <time>2021-07-25T08:04:24Z</time>
      </trkpt>
      <trkpt lat="44.68238" lon="5.57204">
        <ele>733</ele>
        <time>2021-07-25T08:04:26Z</time>
      </trkpt>
      <trkpt lat="44.68243" lon="5.5722">
        <ele>733</ele>
        <time>2021-07-25T08:04:28Z</time>
      </trkpt>
      <trkpt lat="44.68245" lon="5.57238">
        <ele>734</ele>
        <time>2021-07-25T08:04:30Z</time>
      </trkpt>
      <trkpt lat="44.68245" lon="5.57259">
        <ele>734</ele>
        <time>2021-07-25T08:04:32Z</time>
      </trkpt>
      <trkpt lat="44.68241" lon="5.57272">
        <ele>734</ele>
        <time>2021-07-25T08:04:33Z</time>
      </trkpt>
      <trkpt lat="44.68236" lon="5.57287">
        <ele>734</ele>
        <time>2021-07-25T08:04:34Z</time>
      </trkpt>
      <trkpt lat="44.68228" lon="5.57305">
        <ele>734</ele>
        <time>2021-07-25T08:04:35Z</time>
      </trkpt>
      <trkpt lat="44.68214" lon="5.57328">
        <ele>734</ele>
        <time>2021-07-25T08:04:36Z</time>
      </trkpt>
      <trkpt lat="44.68198" lon="5.57353">
        <ele>734</ele>
        <time>2021-07-25T08:04:37Z</time>
      </trkpt>
      <trkpt lat="44.68191" lon="5.57371">
        <ele>734</ele>
        <time>2021-07-25T08:04:38Z</time>
      </trkpt>
      <trkpt lat="44.68188" lon="5.57394">
        <ele>736</ele>
        <time>2021-07-25T08:04:40Z</time>
      </trkpt>
      <trkpt lat="44.68199" lon="5.57405">
        <ele>736</ele>
        <time>2021-07-25T08:04:42Z</time>
      </trkpt>
      <trkpt lat="44.68217" lon="5.57409">
        <ele>736</ele>
        <time>2021-07-25T08:04:44Z</time>
      </trkpt>
      <trkpt lat="44.68229" lon="5.57408">
        <ele>736</ele>
        <time>2021-07-25T08:04:45Z</time>
      </trkpt>
      <trkpt lat="44.68248" lon="5.57411">
        <ele>736</ele>
        <time>2021-07-25T08:04:47Z</time>
      </trkpt>
      <trkpt lat="44.68261" lon="5.5741">
        <ele>736</ele>
        <time>2021-07-25T08:04:48Z</time>
      </trkpt>
      <trkpt lat="44.68275" lon="5.57408">
        <ele>736</ele>
        <time>2021-07-25T08:04:49Z</time>
      </trkpt>
      <trkpt lat="44.68287" lon="5.57408">
        <ele>738</ele>
        <time>2021-07-25T08:04:50Z</time>
      </trkpt>
      <trkpt lat="44.68303" lon="5.57415">
        <ele>738</ele>
        <time>2021-07-25T08:04:52Z</time>
      </trkpt>
      <trkpt lat="44.68311" lon="5.57427">
        <ele>738</ele>
        <time>2021-07-25T08:04:54Z</time>
      </trkpt>
      <trkpt lat="44.6832" lon="5.57435">
        <ele>738</ele>
        <time>2021-07-25T08:04:56Z</time>
      </trkpt>
      <trkpt lat="44.68329" lon="5.57443">
        <ele>738</ele>
        <time>2021-07-25T08:04:58Z</time>
      </trkpt>
      <trkpt lat="44.68338" lon="5.5745">
        <ele>739</ele>
        <time>2021-07-25T08:05:00Z</time>
      </trkpt>
      <trkpt lat="44.68351" lon="5.57454">
        <ele>739</ele>
        <time>2021-07-25T08:05:02Z</time>
      </trkpt>
      <trkpt lat="44.68364" lon="5.57458">
        <ele>739</ele>
        <time>2021-07-25T08:05:04Z</time>
      </trkpt>
      <trkpt lat="44.68377" lon="5.57464">
        <ele>739</ele>
        <time>2021-07-25T08:05:06Z</time>
      </trkpt>
      <trkpt lat="44.68393" lon="5.57468">
        <ele>739</ele>
        <time>2021-07-25T08:05:08Z</time>
      </trkpt>
      <trkpt lat="44.68404" lon="5.57467">
        <ele>739</ele>
        <time>2021-07-25T08:05:09Z</time>
      </trkpt>
      <trkpt lat="44.68416" lon="5.57466">
        <ele>740</ele>
        <time>2021-07-25T08:05:10Z</time>
      </trkpt>
      <trkpt lat="44.68427" lon="5.57466">
        <ele>740</ele>
        <time>2021-07-25T08:05:11Z</time>
      </trkpt>
      <trkpt lat="44.68448" lon="5.57466">
        <ele>740</ele>
        <time>2021-07-25T08:05:13Z</time>
      </trkpt>
      <trkpt lat="44.6846" lon="5.57465">
        <ele>740</ele>
        <time>2021-07-25T08:05:14Z</time>
      </trkpt>
      <trkpt lat="44.68475" lon="5.57469">
        <ele>740</ele>
        <time>2021-07-25T08:05:16Z</time>
      </trkpt>
      <trkpt lat="44.68482" lon="5.57481">
        <ele>740</ele>
        <time>2021-07-25T08:05:18Z</time>
      </trkpt>
      <trkpt lat="44.6849" lon="5.57492">
        <ele>741</ele>
        <time>2021-07-25T08:05:20Z</time>
      </trkpt>
      <trkpt lat="44.68501" lon="5.57501">
        <ele>741</ele>
        <time>2021-07-25T08:05:22Z</time>
      </trkpt>
      <trkpt lat="44.68512" lon="5.5751">
        <ele>741</ele>
        <time>2021-07-25T08:05:24Z</time>
      </trkpt>
      <trkpt lat="44.68524" lon="5.57518">
        <ele>741</ele>
        <time>2021-07-25T08:05:26Z</time>
      </trkpt>
      <trkpt lat="44.68538" lon="5.57525">
        <ele>741</ele>
        <time>2021-07-25T08:05:28Z</time>
      </trkpt>
      <trkpt lat="44.68551" lon="5.57531">
        <ele>743</ele>
        <time>2021-07-25T08:05:30Z</time>
      </trkpt>
      <trkpt lat="44.68563" lon="5.57537">
        <ele>743</ele>
        <time>2021-07-25T08:05:32Z</time>
      </trkpt>
      <trkpt lat="44.68575" lon="5.57542">
        <ele>743</ele>
        <time>2021-07-25T08:05:34Z</time>
      </trkpt>
      <trkpt lat="44.68587" lon="5.57544">
        <ele>743</ele>
        <time>2021-07-25T08:05:36Z</time>
      </trkpt>
      <trkpt lat="44.68597" lon="5.57545">
        <ele>743</ele>
        <time>2021-07-25T08:05:38Z</time>
      </trkpt>
      <trkpt lat="44.6861" lon="5.57543">
        <ele>745</ele>
        <time>2021-07-25T08:05:40Z</time>
      </trkpt>
      <trkpt lat="44.68626" lon="5.57539">
        <ele>745</ele>
        <time>2021-07-25T08:05:42Z</time>
      </trkpt>
      <trkpt lat="44.68637" lon="5.57538">
        <ele>745</ele>
        <time>2021-07-25T08:05:44Z</time>
      </trkpt>
      <trkpt lat="44.6865" lon="5.57535">
        <ele>745</ele>
        <time>2021-07-25T08:05:46Z</time>
      </trkpt>
      <trkpt lat="44.68665" lon="5.57535">
        <ele>745</ele>
        <time>2021-07-25T08:05:49Z</time>
      </trkpt>
      <trkpt lat="44.68678" lon="5.57544">
        <ele>747</ele>
        <time>2021-07-25T08:05:52Z</time>
      </trkpt>
      <trkpt lat="44.68688" lon="5.57552">
        <ele>747</ele>
        <time>2021-07-25T08:05:54Z</time>
      </trkpt>
      <trkpt lat="44.68699" lon="5.5756">
        <ele>747</ele>
        <time>2021-07-25T08:05:56Z</time>
      </trkpt>
      <trkpt lat="44.68711" lon="5.57568">
        <ele>747</ele>
        <time>2021-07-25T08:05:58Z</time>
      </trkpt>
      <trkpt lat="44.68722" lon="5.57577">
        <ele>749</ele>
        <time>2021-07-25T08:06:00Z</time>
      </trkpt>
      <trkpt lat="44.68735" lon="5.57586">
        <ele>749</ele>
        <time>2021-07-25T08:06:02Z</time>
      </trkpt>
      <trkpt lat="44.6874" lon="5.57601">
        <ele>749</ele>
        <time>2021-07-25T08:06:04Z</time>
      </trkpt>
      <trkpt lat="44.68733" lon="5.57617">
        <ele>749</ele>
        <time>2021-07-25T08:06:05Z</time>
      </trkpt>
      <trkpt lat="44.68739" lon="5.57631">
        <ele>749</ele>
        <time>2021-07-25T08:06:07Z</time>
      </trkpt>
      <trkpt lat="44.68741" lon="5.57647">
        <ele>749</ele>
        <time>2021-07-25T08:06:09Z</time>
      </trkpt>
      <trkpt lat="44.68744" lon="5.57663">
        <ele>750</ele>
        <time>2021-07-25T08:06:11Z</time>
      </trkpt>
      <trkpt lat="44.68744" lon="5.57681">
        <ele>750</ele>
        <time>2021-07-25T08:06:13Z</time>
      </trkpt>
      <trkpt lat="44.68743" lon="5.57702">
        <ele>750</ele>
        <time>2021-07-25T08:06:15Z</time>
      </trkpt>
      <trkpt lat="44.68741" lon="5.57725">
        <ele>750</ele>
        <time>2021-07-25T08:06:17Z</time>
      </trkpt>
      <trkpt lat="44.68739" lon="5.57747">
        <ele>750</ele>
        <time>2021-07-25T08:06:19Z</time>
      </trkpt>
      <trkpt lat="44.68739" lon="5.57767">
        <ele>753</ele>
        <time>2021-07-25T08:06:21Z</time>
      </trkpt>
      <trkpt lat="44.68741" lon="5.57784">
        <ele>753</ele>
        <time>2021-07-25T08:06:23Z</time>
      </trkpt>
      <trkpt lat="44.68747" lon="5.57798">
        <ele>754</ele>
        <time>2021-07-25T08:06:25Z</time>
      </trkpt>
      <trkpt lat="44.68752" lon="5.57811">
        <ele>754</ele>
        <time>2021-07-25T08:06:27Z</time>
      </trkpt>
      <trkpt lat="44.68763" lon="5.5782">
        <ele>754</ele>
        <time>2021-07-25T08:06:29Z</time>
      </trkpt>
      <trkpt lat="44.68772" lon="5.57831">
        <ele>755</ele>
        <time>2021-07-25T08:06:31Z</time>
      </trkpt>
      <trkpt lat="44.68779" lon="5.57842">
        <ele>755</ele>
        <time>2021-07-25T08:06:33Z</time>
      </trkpt>
      <trkpt lat="44.68788" lon="5.57851">
        <ele>756</ele>
        <time>2021-07-25T08:06:35Z</time>
      </trkpt>
      <trkpt lat="44.68798" lon="5.5786">
        <ele>756</ele>
        <time>2021-07-25T08:06:37Z</time>
      </trkpt>
      <trkpt lat="44.68807" lon="5.5787">
        <ele>756</ele>
        <time>2021-07-25T08:06:39Z</time>
      </trkpt>
      <trkpt lat="44.68819" lon="5.57879">
        <ele>757</ele>
        <time>2021-07-25T08:06:41Z</time>
      </trkpt>
      <trkpt lat="44.68835" lon="5.57884">
        <ele>757</ele>
        <time>2021-07-25T08:06:43Z</time>
      </trkpt>
      <trkpt lat="44.68847" lon="5.57892">
        <ele>757</ele>
        <time>2021-07-25T08:06:45Z</time>
      </trkpt>
      <trkpt lat="44.68854" lon="5.57902">
        <ele>757</ele>
        <time>2021-07-25T08:06:47Z</time>
      </trkpt>
      <trkpt lat="44.68858" lon="5.57915">
        <ele>757</ele>
        <time>2021-07-25T08:06:49Z</time>
      </trkpt>
      <trkpt lat="44.68859" lon="5.57933">
        <ele>759</ele>
        <time>2021-07-25T08:06:52Z</time>
      </trkpt>
      <trkpt lat="44.68859" lon="5.57953">
        <ele>759</ele>
        <time>2021-07-25T08:06:55Z</time>
      </trkpt>
      <trkpt lat="44.68862" lon="5.5797">
        <ele>759</ele>
        <time>2021-07-25T08:06:58Z</time>
      </trkpt>
      <trkpt lat="44.68873" lon="5.57982">
        <ele>763</ele>
        <time>2021-07-25T08:07:01Z</time>
      </trkpt>
      <trkpt lat="44.68877" lon="5.57998">
        <ele>765</ele>
        <time>2021-07-25T08:07:05Z</time>
      </trkpt>
      <trkpt lat="44.68884" lon="5.58012">
        <ele>766</ele>
        <time>2021-07-25T08:07:10Z</time>
      </trkpt>
      <trkpt lat="44.68895" lon="5.58018">
        <ele>766</ele>
        <time>2021-07-25T08:07:14Z</time>
      </trkpt>
      <trkpt lat="44.68907" lon="5.58022">
        <ele>768</ele>
        <time>2021-07-25T08:07:17Z</time>
      </trkpt>
      <trkpt lat="44.68918" lon="5.58022">
        <ele>768</ele>
        <time>2021-07-25T08:07:19Z</time>
      </trkpt>
      <trkpt lat="44.68928" lon="5.58022">
        <ele>769</ele>
        <time>2021-07-25T08:07:21Z</time>
      </trkpt>
      <trkpt lat="44.68939" lon="5.58023">
        <ele>769</ele>
        <time>2021-07-25T08:07:23Z</time>
      </trkpt>
      <trkpt lat="44.68949" lon="5.58027">
        <ele>771</ele>
        <time>2021-07-25T08:07:25Z</time>
      </trkpt>
      <trkpt lat="44.68958" lon="5.58035">
        <ele>771</ele>
        <time>2021-07-25T08:07:27Z</time>
      </trkpt>
      <trkpt lat="44.68968" lon="5.58044">
        <ele>771</ele>
        <time>2021-07-25T08:07:29Z</time>
      </trkpt>
      <trkpt lat="44.68976" lon="5.58061">
        <ele>773</ele>
        <time>2021-07-25T08:07:32Z</time>
      </trkpt>
      <trkpt lat="44.68982" lon="5.58075">
        <ele>774</ele>
        <time>2021-07-25T08:07:35Z</time>
      </trkpt>
      <trkpt lat="44.68984" lon="5.58093">
        <ele>774</ele>
        <time>2021-07-25T08:07:38Z</time>
      </trkpt>
      <trkpt lat="44.68974" lon="5.58087">
        <ele>776</ele>
        <time>2021-07-25T08:07:44Z</time>
      </trkpt>
      <trkpt lat="44.68961" lon="5.58079">
        <ele>778</ele>
        <time>2021-07-25T08:07:47Z</time>
      </trkpt>
      <trkpt lat="44.68951" lon="5.58073">
        <ele>778</ele>
        <time>2021-07-25T08:07:49Z</time>
      </trkpt>
      <trkpt lat="44.68944" lon="5.5806">
        <ele>778</ele>
        <time>2021-07-25T08:07:51Z</time>
      </trkpt>
      <trkpt lat="44.68936" lon="5.58049">
        <ele>778</ele>
        <time>2021-07-25T08:07:53Z</time>
      </trkpt>
      <trkpt lat="44.68927" lon="5.58035">
        <ele>778</ele>
        <time>2021-07-25T08:07:56Z</time>
      </trkpt>
      <trkpt lat="44.68922" lon="5.58022">
        <ele>778</ele>
        <time>2021-07-25T08:07:59Z</time>
      </trkpt>
      <trkpt lat="44.68914" lon="5.58012">
        <ele>779</ele>
        <time>2021-07-25T08:08:02Z</time>
      </trkpt>
      <trkpt lat="44.68908" lon="5.58">
        <ele>779</ele>
        <time>2021-07-25T08:08:06Z</time>
      </trkpt>
      <trkpt lat="44.68896" lon="5.57994">
        <ele>781</ele>
        <time>2021-07-25T08:08:11Z</time>
      </trkpt>
      <trkpt lat="44.68886" lon="5.57998">
        <ele>781</ele>
        <time>2021-07-25T08:08:13Z</time>
      </trkpt>
      <trkpt lat="44.68876" lon="5.57994">
        <ele>781</ele>
        <time>2021-07-25T08:08:16Z</time>
      </trkpt>
      <trkpt lat="44.68866" lon="5.57991">
        <ele>781</ele>
        <time>2021-07-25T08:08:19Z</time>
      </trkpt>
      <trkpt lat="44.68855" lon="5.57989">
        <ele>784</ele>
        <time>2021-07-25T08:08:22Z</time>
      </trkpt>
      <trkpt lat="44.68844" lon="5.5799">
        <ele>784</ele>
        <time>2021-07-25T08:08:24Z</time>
      </trkpt>
      <trkpt lat="44.68835" lon="5.57991">
        <ele>785</ele>
        <time>2021-07-25T08:08:26Z</time>
      </trkpt>
      <trkpt lat="44.68827" lon="5.57996">
        <ele>785</ele>
        <time>2021-07-25T08:08:28Z</time>
      </trkpt>
      <trkpt lat="44.6882" lon="5.58002">
        <ele>786</ele>
        <time>2021-07-25T08:08:30Z</time>
      </trkpt>
      <trkpt lat="44.68813" lon="5.58008">
        <ele>786</ele>
        <time>2021-07-25T08:08:32Z</time>
      </trkpt>
      <trkpt lat="44.6881" lon="5.58012">
        <ele>786</ele>
        <time>2021-07-25T08:08:33Z</time>
      </trkpt>
      <trkpt lat="44.68806" lon="5.58015">
        <ele>786</ele>
        <time>2021-07-25T08:08:34Z</time>
      </trkpt>
      <trkpt lat="44.68803" lon="5.58019">
        <ele>788</ele>
        <time>2021-07-25T08:08:35Z</time>
      </trkpt>
      <trkpt lat="44.688" lon="5.58023">
        <ele>788</ele>
        <time>2021-07-25T08:08:36Z</time>
      </trkpt>
      <trkpt lat="44.68797" lon="5.58028">
        <ele>788</ele>
        <time>2021-07-25T08:08:37Z</time>
      </trkpt>
      <trkpt lat="44.68794" lon="5.58032">
        <ele>788</ele>
        <time>2021-07-25T08:08:38Z</time>
      </trkpt>
      <trkpt lat="44.68792" lon="5.58037">
        <ele>788</ele>
        <time>2021-07-25T08:08:39Z</time>
      </trkpt>
      <trkpt lat="44.6879" lon="5.58042">
        <ele>789</ele>
        <time>2021-07-25T08:08:40Z</time>
      </trkpt>
      <trkpt lat="44.68788" lon="5.58047">
        <ele>789</ele>
        <time>2021-07-25T08:08:41Z</time>
      </trkpt>
      <trkpt lat="44.68786" lon="5.58052">
        <ele>789</ele>
        <time>2021-07-25T08:08:42Z</time>
      </trkpt>
      <trkpt lat="44.68784" lon="5.58058">
        <ele>789</ele>
        <time>2021-07-25T08:08:43Z</time>
      </trkpt>
      <trkpt lat="44.68782" lon="5.58063">
        <ele>789</ele>
        <time>2021-07-25T08:08:44Z</time>
      </trkpt>
      <trkpt lat="44.68781" lon="5.58069">
        <ele>791</ele>
        <time>2021-07-25T08:08:45Z</time>
      </trkpt>
      <trkpt lat="44.68779" lon="5.58074">
        <ele>791</ele>
        <time>2021-07-25T08:08:46Z</time>
      </trkpt>
      <trkpt lat="44.68777" lon="5.5808">
        <ele>791</ele>
        <time>2021-07-25T08:08:47Z</time>
      </trkpt>
      <trkpt lat="44.68775" lon="5.58085">
        <ele>791</ele>
        <time>2021-07-25T08:08:48Z</time>
      </trkpt>
      <trkpt lat="44.68773" lon="5.5809">
        <ele>791</ele>
        <time>2021-07-25T08:08:49Z</time>
      </trkpt>
      <trkpt lat="44.68772" lon="5.58096">
        <ele>791</ele>
        <time>2021-07-25T08:08:50Z</time>
      </trkpt>
      <trkpt lat="44.6877" lon="5.58101">
        <ele>791</ele>
        <time>2021-07-25T08:08:51Z</time>
      </trkpt>
      <trkpt lat="44.68769" lon="5.58107">
        <ele>791</ele>
        <time>2021-07-25T08:08:52Z</time>
      </trkpt>
      <trkpt lat="44.68765" lon="5.58124">
        <ele>793</ele>
        <time>2021-07-25T08:08:55Z</time>
      </trkpt>
      <trkpt lat="44.68761" lon="5.58141">
        <ele>793</ele>
        <time>2021-07-25T08:08:58Z</time>
      </trkpt>
      <trkpt lat="44.68759" lon="5.58159">
        <ele>794</ele>
        <time>2021-07-25T08:09:01Z</time>
      </trkpt>
      <trkpt lat="44.68759" lon="5.58178">
        <ele>794</ele>
        <time>2021-07-25T08:09:04Z</time>
      </trkpt>
      <trkpt lat="44.68758" lon="5.58197">
        <ele>796</ele>
        <time>2021-07-25T08:09:07Z</time>
      </trkpt>
      <trkpt lat="44.68758" lon="5.58214">
        <ele>797</ele>
        <time>2021-07-25T08:09:10Z</time>
      </trkpt>
      <trkpt lat="44.68759" lon="5.58232">
        <ele>797</ele>
        <time>2021-07-25T08:09:13Z</time>
      </trkpt>
      <trkpt lat="44.6876" lon="5.5825">
        <ele>797</ele>
        <time>2021-07-25T08:09:16Z</time>
      </trkpt>
      <trkpt lat="44.68761" lon="5.58263">
        <ele>797</ele>
        <time>2021-07-25T08:09:18Z</time>
      </trkpt>
      <trkpt lat="44.68761" lon="5.58281">
        <ele>799</ele>
        <time>2021-07-25T08:09:21Z</time>
      </trkpt>
      <trkpt lat="44.68762" lon="5.58292">
        <ele>799</ele>
        <time>2021-07-25T08:09:23Z</time>
      </trkpt>
      <trkpt lat="44.68765" lon="5.58304">
        <ele>800</ele>
        <time>2021-07-25T08:09:25Z</time>
      </trkpt>
      <trkpt lat="44.68769" lon="5.58314">
        <ele>800</ele>
        <time>2021-07-25T08:09:27Z</time>
      </trkpt>
      <trkpt lat="44.68774" lon="5.58324">
        <ele>800</ele>
        <time>2021-07-25T08:09:29Z</time>
      </trkpt>
      <trkpt lat="44.68779" lon="5.58332">
        <ele>801</ele>
        <time>2021-07-25T08:09:31Z</time>
      </trkpt>
      <trkpt lat="44.68782" lon="5.58336">
        <ele>801</ele>
        <time>2021-07-25T08:09:32Z</time>
      </trkpt>
      <trkpt lat="44.68789" lon="5.58344">
        <ele>801</ele>
        <time>2021-07-25T08:09:34Z</time>
      </trkpt>
      <trkpt lat="44.68791" lon="5.58348">
        <ele>801</ele>
        <time>2021-07-25T08:09:35Z</time>
      </trkpt>
      <trkpt lat="44.68794" lon="5.58353">
        <ele>801</ele>
        <time>2021-07-25T08:09:36Z</time>
      </trkpt>
      <trkpt lat="44.68797" lon="5.58357">
        <ele>801</ele>
        <time>2021-07-25T08:09:37Z</time>
      </trkpt>
      <trkpt lat="44.68799" lon="5.58362">
        <ele>801</ele>
        <time>2021-07-25T08:09:38Z</time>
      </trkpt>
      <trkpt lat="44.68802" lon="5.58367">
        <ele>801</ele>
        <time>2021-07-25T08:09:39Z</time>
      </trkpt>
      <trkpt lat="44.68804" lon="5.58372">
        <ele>803</ele>
        <time>2021-07-25T08:09:40Z</time>
      </trkpt>
      <trkpt lat="44.68806" lon="5.58377">
        <ele>803</ele>
        <time>2021-07-25T08:09:41Z</time>
      </trkpt>
      <trkpt lat="44.68811" lon="5.58394">
        <ele>803</ele>
        <time>2021-07-25T08:09:44Z</time>
      </trkpt>
      <trkpt lat="44.68818" lon="5.58409">
        <ele>805</ele>
        <time>2021-07-25T08:09:47Z</time>
      </trkpt>
      <trkpt lat="44.68824" lon="5.58425">
        <ele>807</ele>
        <time>2021-07-25T08:09:50Z</time>
      </trkpt>
      <trkpt lat="44.68827" lon="5.58436">
        <ele>807</ele>
        <time>2021-07-25T08:09:52Z</time>
      </trkpt>
      <trkpt lat="44.68827" lon="5.58442">
        <ele>807</ele>
        <time>2021-07-25T08:09:53Z</time>
      </trkpt>
      <trkpt lat="44.68826" lon="5.58448">
        <ele>807</ele>
        <time>2021-07-25T08:09:54Z</time>
      </trkpt>
      <trkpt lat="44.6882" lon="5.58462">
        <ele>808</ele>
        <time>2021-07-25T08:09:57Z</time>
      </trkpt>
      <trkpt lat="44.68809" lon="5.58471">
        <ele>809</ele>
        <time>2021-07-25T08:10:00Z</time>
      </trkpt>
      <trkpt lat="44.68798" lon="5.58478">
        <ele>809</ele>
        <time>2021-07-25T08:10:03Z</time>
      </trkpt>
      <trkpt lat="44.68788" lon="5.58486">
        <ele>809</ele>
        <time>2021-07-25T08:10:06Z</time>
      </trkpt>
      <trkpt lat="44.68778" lon="5.58497">
        <ele>809</ele>
        <time>2021-07-25T08:10:09Z</time>
      </trkpt>
      <trkpt lat="44.68768" lon="5.58508">
        <ele>811</ele>
        <time>2021-07-25T08:10:12Z</time>
      </trkpt>
      <trkpt lat="44.68758" lon="5.58519">
        <ele>811</ele>
        <time>2021-07-25T08:10:15Z</time>
      </trkpt>
      <trkpt lat="44.68749" lon="5.58532">
        <ele>811</ele>
        <time>2021-07-25T08:10:18Z</time>
      </trkpt>
      <trkpt lat="44.68742" lon="5.58546">
        <ele>813</ele>
        <time>2021-07-25T08:10:21Z</time>
      </trkpt>
      <trkpt lat="44.68735" lon="5.5856">
        <ele>813</ele>
        <time>2021-07-25T08:10:24Z</time>
      </trkpt>
      <trkpt lat="44.68729" lon="5.58575">
        <ele>813</ele>
        <time>2021-07-25T08:10:27Z</time>
      </trkpt>
      <trkpt lat="44.68721" lon="5.58589">
        <ele>816</ele>
        <time>2021-07-25T08:10:30Z</time>
      </trkpt>
      <trkpt lat="44.68713" lon="5.58603">
        <ele>816</ele>
        <time>2021-07-25T08:10:33Z</time>
      </trkpt>
      <trkpt lat="44.68706" lon="5.58618">
        <ele>817</ele>
        <time>2021-07-25T08:10:36Z</time>
      </trkpt>
      <trkpt lat="44.68696" lon="5.58629">
        <ele>817</ele>
        <time>2021-07-25T08:10:39Z</time>
      </trkpt>
      <trkpt lat="44.68692" lon="5.58642">
        <ele>819</ele>
        <time>2021-07-25T08:10:45Z</time>
      </trkpt>
      <trkpt lat="44.68669" lon="5.58679">
        <ele>821</ele>
        <time>2021-07-25T08:10:52Z</time>
      </trkpt>
      <trkpt lat="44.68661" lon="5.58688">
        <ele>821</ele>
        <time>2021-07-25T08:10:54Z</time>
      </trkpt>
      <trkpt lat="44.68654" lon="5.58705">
        <ele>823</ele>
        <time>2021-07-25T08:10:57Z</time>
      </trkpt>
      <trkpt lat="44.68651" lon="5.58727">
        <ele>822</ele>
        <time>2021-07-25T08:11:00Z</time>
      </trkpt>
      <trkpt lat="44.68642" lon="5.58737">
        <ele>822</ele>
        <time>2021-07-25T08:11:03Z</time>
      </trkpt>
      <trkpt lat="44.68636" lon="5.5875">
        <ele>822</ele>
        <time>2021-07-25T08:11:07Z</time>
      </trkpt>
      <trkpt lat="44.68567" lon="5.58908">
        <ele>833</ele>
        <time>2021-07-25T08:11:40Z</time>
      </trkpt>
      <trkpt lat="44.6852" lon="5.5894">
        <ele>836</ele>
        <time>2021-07-25T08:11:58Z</time>
      </trkpt>
      <trkpt lat="44.68505" lon="5.5896">
        <ele>836</ele>
        <time>2021-07-25T08:11:59Z</time>
      </trkpt>
      <trkpt lat="44.68499" lon="5.58972">
        <ele>838</ele>
        <time>2021-07-25T08:12:00Z</time>
      </trkpt>
      <trkpt lat="44.68497" lon="5.58986">
        <ele>838</ele>
        <time>2021-07-25T08:12:02Z</time>
      </trkpt>
      <trkpt lat="44.68495" lon="5.59002">
        <ele>838</ele>
        <time>2021-07-25T08:12:04Z</time>
      </trkpt>
      <trkpt lat="44.68483" lon="5.59026">
        <ele>840</ele>
        <time>2021-07-25T08:12:09Z</time>
      </trkpt>
      <trkpt lat="44.68476" lon="5.59041">
        <ele>841</ele>
        <time>2021-07-25T08:12:11Z</time>
      </trkpt>
      <trkpt lat="44.68473" lon="5.59056">
        <ele>841</ele>
        <time>2021-07-25T08:12:13Z</time>
      </trkpt>
      <trkpt lat="44.6847" lon="5.5907">
        <ele>842</ele>
        <time>2021-07-25T08:12:15Z</time>
      </trkpt>
      <trkpt lat="44.68467" lon="5.59083">
        <ele>842</ele>
        <time>2021-07-25T08:12:17Z</time>
      </trkpt>
      <trkpt lat="44.68462" lon="5.59102">
        <ele>843</ele>
        <time>2021-07-25T08:12:20Z</time>
      </trkpt>
      <trkpt lat="44.68459" lon="5.59121">
        <ele>843</ele>
        <time>2021-07-25T08:12:23Z</time>
      </trkpt>
      <trkpt lat="44.68457" lon="5.59141">
        <ele>843</ele>
        <time>2021-07-25T08:12:26Z</time>
      </trkpt>
      <trkpt lat="44.68454" lon="5.5916">
        <ele>843</ele>
        <time>2021-07-25T08:12:29Z</time>
      </trkpt>
      <trkpt lat="44.68452" lon="5.59175">
        <ele>844</ele>
        <time>2021-07-25T08:12:31Z</time>
      </trkpt>
      <trkpt lat="44.68449" lon="5.5919">
        <ele>844</ele>
        <time>2021-07-25T08:12:33Z</time>
      </trkpt>
      <trkpt lat="44.68446" lon="5.59206">
        <ele>844</ele>
        <time>2021-07-25T08:12:35Z</time>
      </trkpt>
      <trkpt lat="44.68443" lon="5.59221">
        <ele>844</ele>
        <time>2021-07-25T08:12:37Z</time>
      </trkpt>
      <trkpt lat="44.68438" lon="5.59237">
        <ele>844</ele>
        <time>2021-07-25T08:12:39Z</time>
      </trkpt>
      <trkpt lat="44.68432" lon="5.59253">
        <ele>846</ele>
        <time>2021-07-25T08:12:41Z</time>
      </trkpt>
      <trkpt lat="44.68426" lon="5.59268">
        <ele>846</ele>
        <time>2021-07-25T08:12:43Z</time>
      </trkpt>
      <trkpt lat="44.68421" lon="5.59284">
        <ele>846</ele>
        <time>2021-07-25T08:12:45Z</time>
      </trkpt>
      <trkpt lat="44.68416" lon="5.59299">
        <ele>846</ele>
        <time>2021-07-25T08:12:47Z</time>
      </trkpt>
      <trkpt lat="44.68411" lon="5.59315">
        <ele>846</ele>
        <time>2021-07-25T08:12:49Z</time>
      </trkpt>
      <trkpt lat="44.68406" lon="5.59331">
        <ele>846</ele>
        <time>2021-07-25T08:12:51Z</time>
      </trkpt>
      <trkpt lat="44.68404" lon="5.59347">
        <ele>846</ele>
        <time>2021-07-25T08:12:53Z</time>
      </trkpt>
      <trkpt lat="44.68403" lon="5.59364">
        <ele>846</ele>
        <time>2021-07-25T08:12:55Z</time>
      </trkpt>
      <trkpt lat="44.68402" lon="5.59381">
        <ele>846</ele>
        <time>2021-07-25T08:12:57Z</time>
      </trkpt>
      <trkpt lat="44.68403" lon="5.59397">
        <ele>846</ele>
        <time>2021-07-25T08:12:59Z</time>
      </trkpt>
      <trkpt lat="44.68404" lon="5.59413">
        <ele>849</ele>
        <time>2021-07-25T08:13:01Z</time>
      </trkpt>
      <trkpt lat="44.68405" lon="5.59421">
        <ele>849</ele>
        <time>2021-07-25T08:13:02Z</time>
      </trkpt>
      <trkpt lat="44.68407" lon="5.59428">
        <ele>849</ele>
        <time>2021-07-25T08:13:03Z</time>
      </trkpt>
      <trkpt lat="44.68415" lon="5.59441">
        <ele>851</ele>
        <time>2021-07-25T08:13:05Z</time>
      </trkpt>
      <trkpt lat="44.68425" lon="5.59451">
        <ele>851</ele>
        <time>2021-07-25T08:13:07Z</time>
      </trkpt>
      <trkpt lat="44.68436" lon="5.59458">
        <ele>851</ele>
        <time>2021-07-25T08:13:09Z</time>
      </trkpt>
      <trkpt lat="44.68447" lon="5.59464">
        <ele>852</ele>
        <time>2021-07-25T08:13:11Z</time>
      </trkpt>
      <trkpt lat="44.68458" lon="5.59471">
        <ele>852</ele>
        <time>2021-07-25T08:13:13Z</time>
      </trkpt>
      <trkpt lat="44.6847" lon="5.59478">
        <ele>854</ele>
        <time>2021-07-25T08:13:15Z</time>
      </trkpt>
      <trkpt lat="44.68481" lon="5.59486">
        <ele>854</ele>
        <time>2021-07-25T08:13:17Z</time>
      </trkpt>
      <trkpt lat="44.68492" lon="5.59494">
        <ele>854</ele>
        <time>2021-07-25T08:13:19Z</time>
      </trkpt>
      <trkpt lat="44.68501" lon="5.59504">
        <ele>854</ele>
        <time>2021-07-25T08:13:21Z</time>
      </trkpt>
      <trkpt lat="44.68511" lon="5.59513">
        <ele>854</ele>
        <time>2021-07-25T08:13:23Z</time>
      </trkpt>
      <trkpt lat="44.68521" lon="5.59522">
        <ele>854</ele>
        <time>2021-07-25T08:13:25Z</time>
      </trkpt>
      <trkpt lat="44.68531" lon="5.59531">
        <ele>854</ele>
        <time>2021-07-25T08:13:27Z</time>
      </trkpt>
      <trkpt lat="44.68541" lon="5.59541">
        <ele>854</ele>
        <time>2021-07-25T08:13:29Z</time>
      </trkpt>
      <trkpt lat="44.6855" lon="5.59551">
        <ele>856</ele>
        <time>2021-07-25T08:13:31Z</time>
      </trkpt>
      <trkpt lat="44.6856" lon="5.59561">
        <ele>856</ele>
        <time>2021-07-25T08:13:33Z</time>
      </trkpt>
      <trkpt lat="44.6857" lon="5.59572">
        <ele>856</ele>
        <time>2021-07-25T08:13:35Z</time>
      </trkpt>
      <trkpt lat="44.6858" lon="5.59581">
        <ele>856</ele>
        <time>2021-07-25T08:13:37Z</time>
      </trkpt>
      <trkpt lat="44.6859" lon="5.5959">
        <ele>856</ele>
        <time>2021-07-25T08:13:39Z</time>
      </trkpt>
      <trkpt lat="44.68601" lon="5.59597">
        <ele>857</ele>
        <time>2021-07-25T08:13:41Z</time>
      </trkpt>
      <trkpt lat="44.68612" lon="5.59602">
        <ele>857</ele>
        <time>2021-07-25T08:13:43Z</time>
      </trkpt>
      <trkpt lat="44.68624" lon="5.59607">
        <ele>857</ele>
        <time>2021-07-25T08:13:45Z</time>
      </trkpt>
      <trkpt lat="44.68635" lon="5.59612">
        <ele>857</ele>
        <time>2021-07-25T08:13:47Z</time>
      </trkpt>
      <trkpt lat="44.68647" lon="5.59618">
        <ele>857</ele>
        <time>2021-07-25T08:13:49Z</time>
      </trkpt>
      <trkpt lat="44.68658" lon="5.59624">
        <ele>859</ele>
        <time>2021-07-25T08:13:51Z</time>
      </trkpt>
      <trkpt lat="44.6867" lon="5.59629">
        <ele>859</ele>
        <time>2021-07-25T08:13:53Z</time>
      </trkpt>
      <trkpt lat="44.68682" lon="5.59634">
        <ele>859</ele>
        <time>2021-07-25T08:13:55Z</time>
      </trkpt>
      <trkpt lat="44.68693" lon="5.5964">
        <ele>859</ele>
        <time>2021-07-25T08:13:57Z</time>
      </trkpt>
      <trkpt lat="44.68705" lon="5.59646">
        <ele>859</ele>
        <time>2021-07-25T08:13:59Z</time>
      </trkpt>
      <trkpt lat="44.68716" lon="5.59653">
        <ele>859</ele>
        <time>2021-07-25T08:14:01Z</time>
      </trkpt>
      <trkpt lat="44.68727" lon="5.59659">
        <ele>859</ele>
        <time>2021-07-25T08:14:03Z</time>
      </trkpt>
      <trkpt lat="44.68738" lon="5.59666">
        <ele>859</ele>
        <time>2021-07-25T08:14:05Z</time>
      </trkpt>
      <trkpt lat="44.68749" lon="5.59674">
        <ele>859</ele>
        <time>2021-07-25T08:14:07Z</time>
      </trkpt>
      <trkpt lat="44.68758" lon="5.59685">
        <ele>859</ele>
        <time>2021-07-25T08:14:09Z</time>
      </trkpt>
      <trkpt lat="44.68765" lon="5.59699">
        <ele>861</ele>
        <time>2021-07-25T08:14:11Z</time>
      </trkpt>
      <trkpt lat="44.68768" lon="5.59707">
        <ele>861</ele>
        <time>2021-07-25T08:14:12Z</time>
      </trkpt>
      <trkpt lat="44.6877" lon="5.59715">
        <ele>861</ele>
        <time>2021-07-25T08:14:13Z</time>
      </trkpt>
      <trkpt lat="44.68772" lon="5.59723">
        <ele>861</ele>
        <time>2021-07-25T08:14:14Z</time>
      </trkpt>
      <trkpt lat="44.68774" lon="5.59731">
        <ele>861</ele>
        <time>2021-07-25T08:14:15Z</time>
      </trkpt>
      <trkpt lat="44.68777" lon="5.59739">
        <ele>861</ele>
        <time>2021-07-25T08:14:16Z</time>
      </trkpt>
      <trkpt lat="44.68779" lon="5.59746">
        <ele>861</ele>
        <time>2021-07-25T08:14:17Z</time>
      </trkpt>
      <trkpt lat="44.68781" lon="5.59754">
        <ele>861</ele>
        <time>2021-07-25T08:14:18Z</time>
      </trkpt>
      <trkpt lat="44.68783" lon="5.59761">
        <ele>861</ele>
        <time>2021-07-25T08:14:19Z</time>
      </trkpt>
      <trkpt lat="44.68786" lon="5.59774">
        <ele>864</ele>
        <time>2021-07-25T08:14:21Z</time>
      </trkpt>
      <trkpt lat="44.68791" lon="5.5979">
        <ele>864</ele>
        <time>2021-07-25T08:14:24Z</time>
      </trkpt>
      <trkpt lat="44.68802" lon="5.59795">
        <ele>865</ele>
        <time>2021-07-25T08:14:27Z</time>
      </trkpt>
      <trkpt lat="44.68812" lon="5.59795">
        <ele>865</ele>
        <time>2021-07-25T08:14:29Z</time>
      </trkpt>
      <trkpt lat="44.68823" lon="5.59793">
        <ele>866</ele>
        <time>2021-07-25T08:14:31Z</time>
      </trkpt>
      <trkpt lat="44.68834" lon="5.59791">
        <ele>866</ele>
        <time>2021-07-25T08:14:33Z</time>
      </trkpt>
      <trkpt lat="44.68844" lon="5.59787">
        <ele>866</ele>
        <time>2021-07-25T08:14:35Z</time>
      </trkpt>
      <trkpt lat="44.68854" lon="5.59782">
        <ele>866</ele>
        <time>2021-07-25T08:14:37Z</time>
      </trkpt>
      <trkpt lat="44.68864" lon="5.59773">
        <ele>866</ele>
        <time>2021-07-25T08:14:39Z</time>
      </trkpt>
      <trkpt lat="44.68873" lon="5.59765">
        <ele>867</ele>
        <time>2021-07-25T08:14:41Z</time>
      </trkpt>
      <trkpt lat="44.68881" lon="5.59756">
        <ele>867</ele>
        <time>2021-07-25T08:14:43Z</time>
      </trkpt>
      <trkpt lat="44.6889" lon="5.59746">
        <ele>867</ele>
        <time>2021-07-25T08:14:45Z</time>
      </trkpt>
      <trkpt lat="44.68898" lon="5.59737">
        <ele>867</ele>
        <time>2021-07-25T08:14:47Z</time>
      </trkpt>
      <trkpt lat="44.68907" lon="5.59727">
        <ele>867</ele>
        <time>2021-07-25T08:14:49Z</time>
      </trkpt>
      <trkpt lat="44.68917" lon="5.59717">
        <ele>869</ele>
        <time>2021-07-25T08:14:51Z</time>
      </trkpt>
      <trkpt lat="44.68927" lon="5.59709">
        <ele>869</ele>
        <time>2021-07-25T08:14:53Z</time>
      </trkpt>
      <trkpt lat="44.68938" lon="5.59701">
        <ele>869</ele>
        <time>2021-07-25T08:14:55Z</time>
      </trkpt>
      <trkpt lat="44.68944" lon="5.597">
        <ele>869</ele>
        <time>2021-07-25T08:14:56Z</time>
      </trkpt>
      <trkpt lat="44.6895" lon="5.59701">
        <ele>869</ele>
        <time>2021-07-25T08:14:57Z</time>
      </trkpt>
      <trkpt lat="44.6896" lon="5.59703">
        <ele>869</ele>
        <time>2021-07-25T08:14:59Z</time>
      </trkpt>
      <trkpt lat="44.6897" lon="5.59704">
        <ele>871</ele>
        <time>2021-07-25T08:15:01Z</time>
      </trkpt>
      <trkpt lat="44.6898" lon="5.59706">
        <ele>871</ele>
        <time>2021-07-25T08:15:03Z</time>
      </trkpt>
      <trkpt lat="44.6899" lon="5.59709">
        <ele>871</ele>
        <time>2021-07-25T08:15:05Z</time>
      </trkpt>
      <trkpt lat="44.68999" lon="5.59713">
        <ele>871</ele>
        <time>2021-07-25T08:15:07Z</time>
      </trkpt>
      <trkpt lat="44.69008" lon="5.59718">
        <ele>871</ele>
        <time>2021-07-25T08:15:09Z</time>
      </trkpt>
      <trkpt lat="44.69016" lon="5.59721">
        <ele>872</ele>
        <time>2021-07-25T08:15:11Z</time>
      </trkpt>
      <trkpt lat="44.69025" lon="5.59725">
        <ele>872</ele>
        <time>2021-07-25T08:15:13Z</time>
      </trkpt>
      <trkpt lat="44.69034" lon="5.59728">
        <ele>872</ele>
        <time>2021-07-25T08:15:15Z</time>
      </trkpt>
      <trkpt lat="44.69043" lon="5.59731">
        <ele>872</ele>
        <time>2021-07-25T08:15:17Z</time>
      </trkpt>
      <trkpt lat="44.69052" lon="5.59734">
        <ele>872</ele>
        <time>2021-07-25T08:15:19Z</time>
      </trkpt>
      <trkpt lat="44.69061" lon="5.59738">
        <ele>876</ele>
        <time>2021-07-25T08:15:21Z</time>
      </trkpt>
      <trkpt lat="44.69069" lon="5.59745">
        <ele>876</ele>
        <time>2021-07-25T08:15:23Z</time>
      </trkpt>
      <trkpt lat="44.69076" lon="5.59754">
        <ele>877</ele>
        <time>2021-07-25T08:15:25Z</time>
      </trkpt>
      <trkpt lat="44.69079" lon="5.59759">
        <ele>877</ele>
        <time>2021-07-25T08:15:26Z</time>
      </trkpt>
      <trkpt lat="44.69084" lon="5.59771">
        <ele>877</ele>
        <time>2021-07-25T08:15:28Z</time>
      </trkpt>
      <trkpt lat="44.6909" lon="5.59782">
        <ele>878</ele>
        <time>2021-07-25T08:15:30Z</time>
      </trkpt>
      <trkpt lat="44.69095" lon="5.59795">
        <ele>878</ele>
        <time>2021-07-25T08:15:32Z</time>
      </trkpt>
      <trkpt lat="44.69099" lon="5.59808">
        <ele>878</ele>
        <time>2021-07-25T08:15:34Z</time>
      </trkpt>
      <trkpt lat="44.69102" lon="5.59822">
        <ele>879</ele>
        <time>2021-07-25T08:15:36Z</time>
      </trkpt>
      <trkpt lat="44.69105" lon="5.59838">
        <ele>879</ele>
        <time>2021-07-25T08:15:38Z</time>
      </trkpt>
      <trkpt lat="44.69106" lon="5.59853">
        <ele>880</ele>
        <time>2021-07-25T08:15:40Z</time>
      </trkpt>
      <trkpt lat="44.69108" lon="5.59869">
        <ele>880</ele>
        <time>2021-07-25T08:15:42Z</time>
      </trkpt>
      <trkpt lat="44.69111" lon="5.59884">
        <ele>880</ele>
        <time>2021-07-25T08:15:44Z</time>
      </trkpt>
      <trkpt lat="44.69115" lon="5.59898">
        <ele>880</ele>
        <time>2021-07-25T08:15:46Z</time>
      </trkpt>
      <trkpt lat="44.69121" lon="5.59912">
        <ele>880</ele>
        <time>2021-07-25T08:15:48Z</time>
      </trkpt>
      <trkpt lat="44.69128" lon="5.59924">
        <ele>882</ele>
        <time>2021-07-25T08:15:50Z</time>
      </trkpt>
      <trkpt lat="44.69136" lon="5.59934">
        <ele>882</ele>
        <time>2021-07-25T08:15:52Z</time>
      </trkpt>
      <trkpt lat="44.69146" lon="5.59941">
        <ele>882</ele>
        <time>2021-07-25T08:15:54Z</time>
      </trkpt>
      <trkpt lat="44.69157" lon="5.59946">
        <ele>882</ele>
        <time>2021-07-25T08:15:56Z</time>
      </trkpt>
      <trkpt lat="44.69167" lon="5.59949">
        <ele>882</ele>
        <time>2021-07-25T08:15:58Z</time>
      </trkpt>
      <trkpt lat="44.69178" lon="5.59952">
        <ele>885</ele>
        <time>2021-07-25T08:16:00Z</time>
      </trkpt>
      <trkpt lat="44.69188" lon="5.59955">
        <ele>885</ele>
        <time>2021-07-25T08:16:02Z</time>
      </trkpt>
      <trkpt lat="44.69199" lon="5.59957">
        <ele>885</ele>
        <time>2021-07-25T08:16:04Z</time>
      </trkpt>
      <trkpt lat="44.69209" lon="5.5996">
        <ele>885</ele>
        <time>2021-07-25T08:16:06Z</time>
      </trkpt>
      <trkpt lat="44.69219" lon="5.59963">
        <ele>886</ele>
        <time>2021-07-25T08:16:08Z</time>
      </trkpt>
      <trkpt lat="44.69233" lon="5.59966">
        <ele>886</ele>
        <time>2021-07-25T08:16:11Z</time>
      </trkpt>
      <trkpt lat="44.69241" lon="5.59973">
        <ele>886</ele>
        <time>2021-07-25T08:16:13Z</time>
      </trkpt>
      <trkpt lat="44.69244" lon="5.59985">
        <ele>886</ele>
        <time>2021-07-25T08:16:15Z</time>
      </trkpt>
      <trkpt lat="44.69244" lon="5.59999">
        <ele>886</ele>
        <time>2021-07-25T08:16:17Z</time>
      </trkpt>
      <trkpt lat="44.69243" lon="5.60014">
        <ele>886</ele>
        <time>2021-07-25T08:16:19Z</time>
      </trkpt>
      <trkpt lat="44.69242" lon="5.60029">
        <ele>888</ele>
        <time>2021-07-25T08:16:21Z</time>
      </trkpt>
      <trkpt lat="44.69241" lon="5.60044">
        <ele>888</ele>
        <time>2021-07-25T08:16:23Z</time>
      </trkpt>
      <trkpt lat="44.69241" lon="5.60058">
        <ele>888</ele>
        <time>2021-07-25T08:16:25Z</time>
      </trkpt>
      <trkpt lat="44.69242" lon="5.60072">
        <ele>888</ele>
        <time>2021-07-25T08:16:27Z</time>
      </trkpt>
      <trkpt lat="44.69244" lon="5.60086">
        <ele>888</ele>
        <time>2021-07-25T08:16:29Z</time>
      </trkpt>
      <trkpt lat="44.69247" lon="5.601">
        <ele>891</ele>
        <time>2021-07-25T08:16:31Z</time>
      </trkpt>
      <trkpt lat="44.69251" lon="5.60114">
        <ele>891</ele>
        <time>2021-07-25T08:16:33Z</time>
      </trkpt>
      <trkpt lat="44.69254" lon="5.60127">
        <ele>894</ele>
        <time>2021-07-25T08:16:35Z</time>
      </trkpt>
      <trkpt lat="44.69259" lon="5.6014">
        <ele>894</ele>
        <time>2021-07-25T08:16:37Z</time>
      </trkpt>
      <trkpt lat="44.69262" lon="5.60146">
        <ele>894</ele>
        <time>2021-07-25T08:16:38Z</time>
      </trkpt>
      <trkpt lat="44.69265" lon="5.60152">
        <ele>894</ele>
        <time>2021-07-25T08:16:39Z</time>
      </trkpt>
      <trkpt lat="44.69268" lon="5.60157">
        <ele>894</ele>
        <time>2021-07-25T08:16:40Z</time>
      </trkpt>
      <trkpt lat="44.69271" lon="5.60163">
        <ele>894</ele>
        <time>2021-07-25T08:16:41Z</time>
      </trkpt>
      <trkpt lat="44.69274" lon="5.60169">
        <ele>894</ele>
        <time>2021-07-25T08:16:42Z</time>
      </trkpt>
      <trkpt lat="44.69278" lon="5.60175">
        <ele>894</ele>
        <time>2021-07-25T08:16:43Z</time>
      </trkpt>
      <trkpt lat="44.69281" lon="5.60182">
        <ele>894</ele>
        <time>2021-07-25T08:16:44Z</time>
      </trkpt>
      <trkpt lat="44.69285" lon="5.60187">
        <ele>895</ele>
        <time>2021-07-25T08:16:45Z</time>
      </trkpt>
      <trkpt lat="44.69289" lon="5.60193">
        <ele>895</ele>
        <time>2021-07-25T08:16:46Z</time>
      </trkpt>
      <trkpt lat="44.69293" lon="5.60199">
        <ele>895</ele>
        <time>2021-07-25T08:16:47Z</time>
      </trkpt>
      <trkpt lat="44.69301" lon="5.6021">
        <ele>895</ele>
        <time>2021-07-25T08:16:49Z</time>
      </trkpt>
      <trkpt lat="44.69308" lon="5.60222">
        <ele>897</ele>
        <time>2021-07-25T08:16:51Z</time>
      </trkpt>
      <trkpt lat="44.69315" lon="5.60236">
        <ele>897</ele>
        <time>2021-07-25T08:16:53Z</time>
      </trkpt>
      <trkpt lat="44.69319" lon="5.60252">
        <ele>898</ele>
        <time>2021-07-25T08:16:55Z</time>
      </trkpt>
      <trkpt lat="44.69319" lon="5.60268">
        <ele>898</ele>
        <time>2021-07-25T08:16:57Z</time>
      </trkpt>
      <trkpt lat="44.69317" lon="5.60284">
        <ele>898</ele>
        <time>2021-07-25T08:16:59Z</time>
      </trkpt>
      <trkpt lat="44.69316" lon="5.60299">
        <ele>899</ele>
        <time>2021-07-25T08:17:01Z</time>
      </trkpt>
      <trkpt lat="44.69317" lon="5.60307">
        <ele>899</ele>
        <time>2021-07-25T08:17:02Z</time>
      </trkpt>
      <trkpt lat="44.69321" lon="5.60323">
        <ele>899</ele>
        <time>2021-07-25T08:17:04Z</time>
      </trkpt>
      <trkpt lat="44.69327" lon="5.60338">
        <ele>899</ele>
        <time>2021-07-25T08:17:06Z</time>
      </trkpt>
      <trkpt lat="44.69332" lon="5.60353">
        <ele>899</ele>
        <time>2021-07-25T08:17:08Z</time>
      </trkpt>
      <trkpt lat="44.69335" lon="5.60361">
        <ele>899</ele>
        <time>2021-07-25T08:17:09Z</time>
      </trkpt>
      <trkpt lat="44.69337" lon="5.60369">
        <ele>901</ele>
        <time>2021-07-25T08:17:10Z</time>
      </trkpt>
      <trkpt lat="44.69342" lon="5.60385">
        <ele>901</ele>
        <time>2021-07-25T08:17:12Z</time>
      </trkpt>
      <trkpt lat="44.69344" lon="5.60402">
        <ele>901</ele>
        <time>2021-07-25T08:17:14Z</time>
      </trkpt>
      <trkpt lat="44.69345" lon="5.6042">
        <ele>901</ele>
        <time>2021-07-25T08:17:16Z</time>
      </trkpt>
      <trkpt lat="44.69345" lon="5.60429">
        <ele>901</ele>
        <time>2021-07-25T08:17:17Z</time>
      </trkpt>
      <trkpt lat="44.69346" lon="5.60447">
        <ele>901</ele>
        <time>2021-07-25T08:17:19Z</time>
      </trkpt>
      <trkpt lat="44.69346" lon="5.60456">
        <ele>902</ele>
        <time>2021-07-25T08:17:20Z</time>
      </trkpt>
      <trkpt lat="44.69346" lon="5.60465">
        <ele>902</ele>
        <time>2021-07-25T08:17:21Z</time>
      </trkpt>
      <trkpt lat="44.69347" lon="5.60474">
        <ele>902</ele>
        <time>2021-07-25T08:17:22Z</time>
      </trkpt>
      <trkpt lat="44.69347" lon="5.60483">
        <ele>902</ele>
        <time>2021-07-25T08:17:23Z</time>
      </trkpt>
      <trkpt lat="44.69349" lon="5.605">
        <ele>902</ele>
        <time>2021-07-25T08:17:25Z</time>
      </trkpt>
      <trkpt lat="44.6935" lon="5.60509">
        <ele>902</ele>
        <time>2021-07-25T08:17:26Z</time>
      </trkpt>
      <trkpt lat="44.69353" lon="5.60526">
        <ele>902</ele>
        <time>2021-07-25T08:17:28Z</time>
      </trkpt>
      <trkpt lat="44.69355" lon="5.60545">
        <ele>903</ele>
        <time>2021-07-25T08:17:30Z</time>
      </trkpt>
      <trkpt lat="44.69354" lon="5.60563">
        <ele>903</ele>
        <time>2021-07-25T08:17:32Z</time>
      </trkpt>
      <trkpt lat="44.69354" lon="5.60579">
        <ele>904</ele>
        <time>2021-07-25T08:17:34Z</time>
      </trkpt>
      <trkpt lat="44.69359" lon="5.60595">
        <ele>904</ele>
        <time>2021-07-25T08:17:36Z</time>
      </trkpt>
      <trkpt lat="44.69365" lon="5.6061">
        <ele>904</ele>
        <time>2021-07-25T08:17:38Z</time>
      </trkpt>
      <trkpt lat="44.69373" lon="5.60624">
        <ele>904</ele>
        <time>2021-07-25T08:17:40Z</time>
      </trkpt>
      <trkpt lat="44.69382" lon="5.60638">
        <ele>904</ele>
        <time>2021-07-25T08:17:42Z</time>
      </trkpt>
      <trkpt lat="44.69391" lon="5.60651">
        <ele>904</ele>
        <time>2021-07-25T08:17:44Z</time>
      </trkpt>
      <trkpt lat="44.69399" lon="5.60664">
        <ele>904</ele>
        <time>2021-07-25T08:17:46Z</time>
      </trkpt>
      <trkpt lat="44.69407" lon="5.60679">
        <ele>905</ele>
        <time>2021-07-25T08:17:48Z</time>
      </trkpt>
      <trkpt lat="44.69415" lon="5.60694">
        <ele>906</ele>
        <time>2021-07-25T08:17:50Z</time>
      </trkpt>
      <trkpt lat="44.69422" lon="5.60709">
        <ele>906</ele>
        <time>2021-07-25T08:17:52Z</time>
      </trkpt>
      <trkpt lat="44.69427" lon="5.60727">
        <ele>906</ele>
        <time>2021-07-25T08:17:54Z</time>
      </trkpt>
      <trkpt lat="44.69431" lon="5.60744">
        <ele>906</ele>
        <time>2021-07-25T08:17:56Z</time>
      </trkpt>
      <trkpt lat="44.69433" lon="5.60762">
        <ele>906</ele>
        <time>2021-07-25T08:17:58Z</time>
      </trkpt>
      <trkpt lat="44.69434" lon="5.60779">
        <ele>909</ele>
        <time>2021-07-25T08:18:00Z</time>
      </trkpt>
      <trkpt lat="44.69436" lon="5.60797">
        <ele>909</ele>
        <time>2021-07-25T08:18:02Z</time>
      </trkpt>
      <trkpt lat="44.69437" lon="5.60814">
        <ele>909</ele>
        <time>2021-07-25T08:18:04Z</time>
      </trkpt>
      <trkpt lat="44.69437" lon="5.60831">
        <ele>909</ele>
        <time>2021-07-25T08:18:06Z</time>
      </trkpt>
      <trkpt lat="44.69438" lon="5.60848">
        <ele>909</ele>
        <time>2021-07-25T08:18:08Z</time>
      </trkpt>
      <trkpt lat="44.69438" lon="5.60866">
        <ele>911</ele>
        <time>2021-07-25T08:18:10Z</time>
      </trkpt>
      <trkpt lat="44.69436" lon="5.60883">
        <ele>911</ele>
        <time>2021-07-25T08:18:12Z</time>
      </trkpt>
      <trkpt lat="44.69435" lon="5.60891">
        <ele>911</ele>
        <time>2021-07-25T08:18:13Z</time>
      </trkpt>
      <trkpt lat="44.69432" lon="5.60908">
        <ele>911</ele>
        <time>2021-07-25T08:18:15Z</time>
      </trkpt>
      <trkpt lat="44.69429" lon="5.60925">
        <ele>911</ele>
        <time>2021-07-25T08:18:17Z</time>
      </trkpt>
      <trkpt lat="44.69427" lon="5.60941">
        <ele>911</ele>
        <time>2021-07-25T08:18:19Z</time>
      </trkpt>
      <trkpt lat="44.69425" lon="5.60958">
        <ele>912</ele>
        <time>2021-07-25T08:18:21Z</time>
      </trkpt>
      <trkpt lat="44.69424" lon="5.60975">
        <ele>912</ele>
        <time>2021-07-25T08:18:23Z</time>
      </trkpt>
      <trkpt lat="44.69424" lon="5.60991">
        <ele>912</ele>
        <time>2021-07-25T08:18:25Z</time>
      </trkpt>
      <trkpt lat="44.69426" lon="5.61006">
        <ele>912</ele>
        <time>2021-07-25T08:18:27Z</time>
      </trkpt>
      <trkpt lat="44.69428" lon="5.61021">
        <ele>912</ele>
        <time>2021-07-25T08:18:29Z</time>
      </trkpt>
      <trkpt lat="44.69431" lon="5.61035">
        <ele>914</ele>
        <time>2021-07-25T08:18:31Z</time>
      </trkpt>
      <trkpt lat="44.69433" lon="5.61049">
        <ele>914</ele>
        <time>2021-07-25T08:18:33Z</time>
      </trkpt>
      <trkpt lat="44.69437" lon="5.61062">
        <ele>917</ele>
        <time>2021-07-25T08:18:35Z</time>
      </trkpt>
      <trkpt lat="44.69442" lon="5.6108">
        <ele>917</ele>
        <time>2021-07-25T08:18:38Z</time>
      </trkpt>
      <trkpt lat="44.69448" lon="5.61097">
        <ele>919</ele>
        <time>2021-07-25T08:18:41Z</time>
      </trkpt>
      <trkpt lat="44.69455" lon="5.61115">
        <ele>919</ele>
        <time>2021-07-25T08:18:44Z</time>
      </trkpt>
      <trkpt lat="44.69461" lon="5.61132">
        <ele>920</ele>
        <time>2021-07-25T08:18:47Z</time>
      </trkpt>
      <trkpt lat="44.69467" lon="5.61149">
        <ele>921</ele>
        <time>2021-07-25T08:18:50Z</time>
      </trkpt>
      <trkpt lat="44.69472" lon="5.61165">
        <ele>921</ele>
        <time>2021-07-25T08:18:53Z</time>
      </trkpt>
      <trkpt lat="44.69478" lon="5.61182">
        <ele>923</ele>
        <time>2021-07-25T08:18:56Z</time>
      </trkpt>
      <trkpt lat="44.69483" lon="5.61199">
        <ele>923</ele>
        <time>2021-07-25T08:18:59Z</time>
      </trkpt>
      <trkpt lat="44.6949" lon="5.61215">
        <ele>924</ele>
        <time>2021-07-25T08:19:02Z</time>
      </trkpt>
      <trkpt lat="44.69497" lon="5.61231">
        <ele>926</ele>
        <time>2021-07-25T08:19:05Z</time>
      </trkpt>
      <trkpt lat="44.69505" lon="5.61244">
        <ele>926</ele>
        <time>2021-07-25T08:19:08Z</time>
      </trkpt>
      <trkpt lat="44.69514" lon="5.61257">
        <ele>927</ele>
        <time>2021-07-25T08:19:11Z</time>
      </trkpt>
      <trkpt lat="44.69524" lon="5.61268">
        <ele>927</ele>
        <time>2021-07-25T08:19:14Z</time>
      </trkpt>
      <trkpt lat="44.69535" lon="5.61278">
        <ele>928</ele>
        <time>2021-07-25T08:19:17Z</time>
      </trkpt>
      <trkpt lat="44.69547" lon="5.61286">
        <ele>930</ele>
        <time>2021-07-25T08:19:20Z</time>
      </trkpt>
      <trkpt lat="44.69559" lon="5.61293">
        <ele>930</ele>
        <time>2021-07-25T08:19:23Z</time>
      </trkpt>
      <trkpt lat="44.69572" lon="5.61299">
        <ele>931</ele>
        <time>2021-07-25T08:19:26Z</time>
      </trkpt>
      <trkpt lat="44.69585" lon="5.61303">
        <ele>931</ele>
        <time>2021-07-25T08:19:29Z</time>
      </trkpt>
      <trkpt lat="44.69597" lon="5.61308">
        <ele>931</ele>
        <time>2021-07-25T08:19:32Z</time>
      </trkpt>
      <trkpt lat="44.69602" lon="5.6131">
        <ele>931</ele>
        <time>2021-07-25T08:19:33Z</time>
      </trkpt>
      <trkpt lat="44.69606" lon="5.61312">
        <ele>931</ele>
        <time>2021-07-25T08:19:34Z</time>
      </trkpt>
      <trkpt lat="44.69614" lon="5.61317">
        <ele>931</ele>
        <time>2021-07-25T08:19:36Z</time>
      </trkpt>
      <trkpt lat="44.69618" lon="5.6132">
        <ele>931</ele>
        <time>2021-07-25T08:19:37Z</time>
      </trkpt>
      <trkpt lat="44.69625" lon="5.61327">
        <ele>931</ele>
        <time>2021-07-25T08:19:39Z</time>
      </trkpt>
      <trkpt lat="44.69629" lon="5.61332">
        <ele>934</ele>
        <time>2021-07-25T08:19:40Z</time>
      </trkpt>
      <trkpt lat="44.69632" lon="5.61336">
        <ele>934</ele>
        <time>2021-07-25T08:19:41Z</time>
      </trkpt>
      <trkpt lat="44.69635" lon="5.61341">
        <ele>934</ele>
        <time>2021-07-25T08:19:42Z</time>
      </trkpt>
      <trkpt lat="44.6964" lon="5.61351">
        <ele>934</ele>
        <time>2021-07-25T08:19:44Z</time>
      </trkpt>
      <trkpt lat="44.69644" lon="5.61362">
        <ele>936</ele>
        <time>2021-07-25T08:19:46Z</time>
      </trkpt>
      <trkpt lat="44.69646" lon="5.61368">
        <ele>936</ele>
        <time>2021-07-25T08:19:47Z</time>
      </trkpt>
      <trkpt lat="44.69649" lon="5.61379">
        <ele>936</ele>
        <time>2021-07-25T08:19:49Z</time>
      </trkpt>
      <trkpt lat="44.69654" lon="5.61397">
        <ele>938</ele>
        <time>2021-07-25T08:19:52Z</time>
      </trkpt>
      <trkpt lat="44.6966" lon="5.61415">
        <ele>939</ele>
        <time>2021-07-25T08:19:55Z</time>
      </trkpt>
      <trkpt lat="44.69662" lon="5.61421">
        <ele>939</ele>
        <time>2021-07-25T08:19:56Z</time>
      </trkpt>
      <trkpt lat="44.69667" lon="5.61438">
        <ele>939</ele>
        <time>2021-07-25T08:19:59Z</time>
      </trkpt>
      <trkpt lat="44.6967" lon="5.61449">
        <ele>940</ele>
        <time>2021-07-25T08:20:01Z</time>
      </trkpt>
      <trkpt lat="44.69673" lon="5.6146">
        <ele>940</ele>
        <time>2021-07-25T08:20:03Z</time>
      </trkpt>
      <trkpt lat="44.69678" lon="5.61477">
        <ele>941</ele>
        <time>2021-07-25T08:20:06Z</time>
      </trkpt>
      <trkpt lat="44.69683" lon="5.61494">
        <ele>941</ele>
        <time>2021-07-25T08:20:09Z</time>
      </trkpt>
      <trkpt lat="44.69688" lon="5.61511">
        <ele>943</ele>
        <time>2021-07-25T08:20:12Z</time>
      </trkpt>
      <trkpt lat="44.69692" lon="5.61527">
        <ele>945</ele>
        <time>2021-07-25T08:20:15Z</time>
      </trkpt>
      <trkpt lat="44.69697" lon="5.61544">
        <ele>945</ele>
        <time>2021-07-25T08:20:18Z</time>
      </trkpt>
      <trkpt lat="44.69703" lon="5.6156">
        <ele>946</ele>
        <time>2021-07-25T08:20:21Z</time>
      </trkpt>
      <trkpt lat="44.69708" lon="5.61576">
        <ele>946</ele>
        <time>2021-07-25T08:20:24Z</time>
      </trkpt>
      <trkpt lat="44.69714" lon="5.61592">
        <ele>947</ele>
        <time>2021-07-25T08:20:27Z</time>
      </trkpt>
      <trkpt lat="44.69722" lon="5.61606">
        <ele>949</ele>
        <time>2021-07-25T08:20:30Z</time>
      </trkpt>
      <trkpt lat="44.69728" lon="5.61614">
        <ele>949</ele>
        <time>2021-07-25T08:20:32Z</time>
      </trkpt>
      <trkpt lat="44.69735" lon="5.61622">
        <ele>949</ele>
        <time>2021-07-25T08:20:34Z</time>
      </trkpt>
      <trkpt lat="44.69742" lon="5.61627">
        <ele>951</ele>
        <time>2021-07-25T08:20:36Z</time>
      </trkpt>
      <trkpt lat="44.6975" lon="5.61631">
        <ele>951</ele>
        <time>2021-07-25T08:20:38Z</time>
      </trkpt>
      <trkpt lat="44.69758" lon="5.61635">
        <ele>951</ele>
        <time>2021-07-25T08:20:40Z</time>
      </trkpt>
      <trkpt lat="44.69771" lon="5.61637">
        <ele>951</ele>
        <time>2021-07-25T08:20:43Z</time>
      </trkpt>
      <trkpt lat="44.69784" lon="5.61639">
        <ele>951</ele>
        <time>2021-07-25T08:20:46Z</time>
      </trkpt>
      <trkpt lat="44.69797" lon="5.61642">
        <ele>951</ele>
        <time>2021-07-25T08:20:49Z</time>
      </trkpt>
      <trkpt lat="44.6981" lon="5.61645">
        <ele>954</ele>
        <time>2021-07-25T08:20:52Z</time>
      </trkpt>
      <trkpt lat="44.69823" lon="5.61648">
        <ele>955</ele>
        <time>2021-07-25T08:20:55Z</time>
      </trkpt>
      <trkpt lat="44.69837" lon="5.61649">
        <ele>955</ele>
        <time>2021-07-25T08:20:58Z</time>
      </trkpt>
      <trkpt lat="44.69849" lon="5.61652">
        <ele>956</ele>
        <time>2021-07-25T08:21:01Z</time>
      </trkpt>
      <trkpt lat="44.69862" lon="5.61653">
        <ele>956</ele>
        <time>2021-07-25T08:21:04Z</time>
      </trkpt>
      <trkpt lat="44.69875" lon="5.61654">
        <ele>958</ele>
        <time>2021-07-25T08:21:07Z</time>
      </trkpt>
      <trkpt lat="44.69887" lon="5.61657">
        <ele>960</ele>
        <time>2021-07-25T08:21:10Z</time>
      </trkpt>
      <trkpt lat="44.69899" lon="5.61659">
        <ele>960</ele>
        <time>2021-07-25T08:21:13Z</time>
      </trkpt>
      <trkpt lat="44.69911" lon="5.61662">
        <ele>962</ele>
        <time>2021-07-25T08:21:16Z</time>
      </trkpt>
      <trkpt lat="44.69924" lon="5.61664">
        <ele>962</ele>
        <time>2021-07-25T08:21:19Z</time>
      </trkpt>
      <trkpt lat="44.69932" lon="5.61665">
        <ele>963</ele>
        <time>2021-07-25T08:21:21Z</time>
      </trkpt>
      <trkpt lat="44.69946" lon="5.61667">
        <ele>963</ele>
        <time>2021-07-25T08:21:24Z</time>
      </trkpt>
      <trkpt lat="44.69959" lon="5.61669">
        <ele>964</ele>
        <time>2021-07-25T08:21:27Z</time>
      </trkpt>
      <trkpt lat="44.69972" lon="5.6167">
        <ele>964</ele>
        <time>2021-07-25T08:21:30Z</time>
      </trkpt>
      <trkpt lat="44.69984" lon="5.61673">
        <ele>964</ele>
        <time>2021-07-25T08:21:33Z</time>
      </trkpt>
      <trkpt lat="44.69996" lon="5.6168">
        <ele>965</ele>
        <time>2021-07-25T08:21:36Z</time>
      </trkpt>
      <trkpt lat="44.70007" lon="5.61689">
        <ele>965</ele>
        <time>2021-07-25T08:21:39Z</time>
      </trkpt>
      <trkpt lat="44.70018" lon="5.61696">
        <ele>966</ele>
        <time>2021-07-25T08:21:42Z</time>
      </trkpt>
      <trkpt lat="44.70031" lon="5.61698">
        <ele>966</ele>
        <time>2021-07-25T08:21:45Z</time>
      </trkpt>
      <trkpt lat="44.70043" lon="5.61697">
        <ele>966</ele>
        <time>2021-07-25T08:21:48Z</time>
      </trkpt>
      <trkpt lat="44.70051" lon="5.61696">
        <ele>969</ele>
        <time>2021-07-25T08:21:50Z</time>
      </trkpt>
      <trkpt lat="44.70059" lon="5.61693">
        <ele>969</ele>
        <time>2021-07-25T08:21:52Z</time>
      </trkpt>
      <trkpt lat="44.70067" lon="5.6169">
        <ele>969</ele>
        <time>2021-07-25T08:21:54Z</time>
      </trkpt>
      <trkpt lat="44.70076" lon="5.61686">
        <ele>972</ele>
        <time>2021-07-25T08:21:56Z</time>
      </trkpt>
      <trkpt lat="44.70085" lon="5.61685">
        <ele>972</ele>
        <time>2021-07-25T08:21:58Z</time>
      </trkpt>
      <trkpt lat="44.70093" lon="5.61687">
        <ele>973</ele>
        <time>2021-07-25T08:22:00Z</time>
      </trkpt>
      <trkpt lat="44.70101" lon="5.61692">
        <ele>973</ele>
        <time>2021-07-25T08:22:02Z</time>
      </trkpt>
      <trkpt lat="44.70108" lon="5.61699">
        <ele>973</ele>
        <time>2021-07-25T08:22:04Z</time>
      </trkpt>
      <trkpt lat="44.70114" lon="5.61707">
        <ele>974</ele>
        <time>2021-07-25T08:22:06Z</time>
      </trkpt>
      <trkpt lat="44.70119" lon="5.61717">
        <ele>975</ele>
        <time>2021-07-25T08:22:08Z</time>
      </trkpt>
      <trkpt lat="44.70124" lon="5.61727">
        <ele>975</ele>
        <time>2021-07-25T08:22:10Z</time>
      </trkpt>
      <trkpt lat="44.70128" lon="5.61738">
        <ele>975</ele>
        <time>2021-07-25T08:22:12Z</time>
      </trkpt>
      <trkpt lat="44.70132" lon="5.61749">
        <ele>975</ele>
        <time>2021-07-25T08:22:14Z</time>
      </trkpt>
      <trkpt lat="44.70135" lon="5.6176">
        <ele>977</ele>
        <time>2021-07-25T08:22:16Z</time>
      </trkpt>
      <trkpt lat="44.70139" lon="5.61771">
        <ele>977</ele>
        <time>2021-07-25T08:22:18Z</time>
      </trkpt>
      <trkpt lat="44.70143" lon="5.61782">
        <ele>979</ele>
        <time>2021-07-25T08:22:20Z</time>
      </trkpt>
      <trkpt lat="44.70148" lon="5.61793">
        <ele>979</ele>
        <time>2021-07-25T08:22:22Z</time>
      </trkpt>
      <trkpt lat="44.70153" lon="5.61804">
        <ele>979</ele>
        <time>2021-07-25T08:22:24Z</time>
      </trkpt>
      <trkpt lat="44.70157" lon="5.61815">
        <ele>980</ele>
        <time>2021-07-25T08:22:26Z</time>
      </trkpt>
      <trkpt lat="44.70159" lon="5.61827">
        <ele>980</ele>
        <time>2021-07-25T08:22:28Z</time>
      </trkpt>
      <trkpt lat="44.7016" lon="5.61834">
        <ele>980</ele>
        <time>2021-07-25T08:22:29Z</time>
      </trkpt>
      <trkpt lat="44.70158" lon="5.61846">
        <ele>981</ele>
        <time>2021-07-25T08:22:31Z</time>
      </trkpt>
      <trkpt lat="44.70155" lon="5.61858">
        <ele>981</ele>
        <time>2021-07-25T08:22:33Z</time>
      </trkpt>
      <trkpt lat="44.70149" lon="5.61867">
        <ele>981</ele>
        <time>2021-07-25T08:22:35Z</time>
      </trkpt>
      <trkpt lat="44.70137" lon="5.61874">
        <ele>981</ele>
        <time>2021-07-25T08:22:38Z</time>
      </trkpt>
      <trkpt lat="44.70133" lon="5.61874">
        <ele>981</ele>
        <time>2021-07-25T08:22:39Z</time>
      </trkpt>
      <trkpt lat="44.70124" lon="5.61869">
        <ele>983</ele>
        <time>2021-07-25T08:22:41Z</time>
      </trkpt>
      <trkpt lat="44.70117" lon="5.6186">
        <ele>983</ele>
        <time>2021-07-25T08:22:43Z</time>
      </trkpt>
      <trkpt lat="44.70111" lon="5.61851">
        <ele>986</ele>
        <time>2021-07-25T08:22:45Z</time>
      </trkpt>
      <trkpt lat="44.70106" lon="5.61841">
        <ele>986</ele>
        <time>2021-07-25T08:22:47Z</time>
      </trkpt>
      <trkpt lat="44.70101" lon="5.6183">
        <ele>986</ele>
        <time>2021-07-25T08:22:49Z</time>
      </trkpt>
      <trkpt lat="44.70099" lon="5.61818">
        <ele>987</ele>
        <time>2021-07-25T08:22:51Z</time>
      </trkpt>
      <trkpt lat="44.70095" lon="5.61807">
        <ele>987</ele>
        <time>2021-07-25T08:22:53Z</time>
      </trkpt>
      <trkpt lat="44.70089" lon="5.61799">
        <ele>989</ele>
        <time>2021-07-25T08:22:55Z</time>
      </trkpt>
      <trkpt lat="44.70078" lon="5.61793">
        <ele>989</ele>
        <time>2021-07-25T08:22:58Z</time>
      </trkpt>
      <trkpt lat="44.70066" lon="5.61792">
        <ele>991</ele>
        <time>2021-07-25T08:23:01Z</time>
      </trkpt>
      <trkpt lat="44.70057" lon="5.61794">
        <ele>991</ele>
        <time>2021-07-25T08:23:03Z</time>
      </trkpt>
      <trkpt lat="44.70052" lon="5.61795">
        <ele>991</ele>
        <time>2021-07-25T08:23:04Z</time>
      </trkpt>
      <trkpt lat="44.70048" lon="5.61796">
        <ele>991</ele>
        <time>2021-07-25T08:23:05Z</time>
      </trkpt>
      <trkpt lat="44.70044" lon="5.61796">
        <ele>991</ele>
        <time>2021-07-25T08:23:06Z</time>
      </trkpt>
      <trkpt lat="44.7004" lon="5.61797">
        <ele>991</ele>
        <time>2021-07-25T08:23:07Z</time>
      </trkpt>
      <trkpt lat="44.70036" lon="5.61797">
        <ele>991</ele>
        <time>2021-07-25T08:23:08Z</time>
      </trkpt>
      <trkpt lat="44.70027" lon="5.61799">
        <ele>992</ele>
        <time>2021-07-25T08:23:10Z</time>
      </trkpt>
      <trkpt lat="44.70023" lon="5.618">
        <ele>992</ele>
        <time>2021-07-25T08:23:11Z</time>
      </trkpt>
      <trkpt lat="44.70019" lon="5.618">
        <ele>992</ele>
        <time>2021-07-25T08:23:12Z</time>
      </trkpt>
      <trkpt lat="44.70014" lon="5.618">
        <ele>992</ele>
        <time>2021-07-25T08:23:13Z</time>
      </trkpt>
      <trkpt lat="44.7001" lon="5.61799">
        <ele>992</ele>
        <time>2021-07-25T08:23:14Z</time>
      </trkpt>
      <trkpt lat="44.70006" lon="5.61799">
        <ele>992</ele>
        <time>2021-07-25T08:23:15Z</time>
      </trkpt>
      <trkpt lat="44.70002" lon="5.61797">
        <ele>992</ele>
        <time>2021-07-25T08:23:16Z</time>
      </trkpt>
      <trkpt lat="44.69998" lon="5.61795">
        <ele>992</ele>
        <time>2021-07-25T08:23:17Z</time>
      </trkpt>
      <trkpt lat="44.69994" lon="5.61794">
        <ele>992</ele>
        <time>2021-07-25T08:23:18Z</time>
      </trkpt>
      <trkpt lat="44.6999" lon="5.61792">
        <ele>992</ele>
        <time>2021-07-25T08:23:19Z</time>
      </trkpt>
      <trkpt lat="44.69986" lon="5.6179">
        <ele>994</ele>
        <time>2021-07-25T08:23:20Z</time>
      </trkpt>
      <trkpt lat="44.69982" lon="5.61788">
        <ele>994</ele>
        <time>2021-07-25T08:23:21Z</time>
      </trkpt>
      <trkpt lat="44.6997" lon="5.61791">
        <ele>994</ele>
        <time>2021-07-25T08:23:24Z</time>
      </trkpt>
      <trkpt lat="44.69962" lon="5.61797">
        <ele>994</ele>
        <time>2021-07-25T08:23:26Z</time>
      </trkpt>
      <trkpt lat="44.69953" lon="5.61806">
        <ele>994</ele>
        <time>2021-07-25T08:23:29Z</time>
      </trkpt>
      <trkpt lat="44.69943" lon="5.61817">
        <ele>997</ele>
        <time>2021-07-25T08:23:32Z</time>
      </trkpt>
      <trkpt lat="44.69933" lon="5.61826">
        <ele>999</ele>
        <time>2021-07-25T08:23:35Z</time>
      </trkpt>
      <trkpt lat="44.69922" lon="5.61834">
        <ele>999</ele>
        <time>2021-07-25T08:23:38Z</time>
      </trkpt>
      <trkpt lat="44.69914" lon="5.6184">
        <ele>1000</ele>
        <time>2021-07-25T08:23:40Z</time>
      </trkpt>
      <trkpt lat="44.69907" lon="5.61844">
        <ele>1000</ele>
        <time>2021-07-25T08:23:42Z</time>
      </trkpt>
      <trkpt lat="44.699" lon="5.6185">
        <ele>1000</ele>
        <time>2021-07-25T08:23:44Z</time>
      </trkpt>
      <trkpt lat="44.69893" lon="5.61855">
        <ele>1001</ele>
        <time>2021-07-25T08:23:46Z</time>
      </trkpt>
      <trkpt lat="44.69885" lon="5.6186">
        <ele>1001</ele>
        <time>2021-07-25T08:23:48Z</time>
      </trkpt>
      <trkpt lat="44.69878" lon="5.61865">
        <ele>1002</ele>
        <time>2021-07-25T08:23:50Z</time>
      </trkpt>
      <trkpt lat="44.69867" lon="5.61872">
        <ele>1002</ele>
        <time>2021-07-25T08:23:53Z</time>
      </trkpt>
      <trkpt lat="44.69856" lon="5.61879">
        <ele>1003</ele>
        <time>2021-07-25T08:23:56Z</time>
      </trkpt>
      <trkpt lat="44.69845" lon="5.61885">
        <ele>1003</ele>
        <time>2021-07-25T08:23:59Z</time>
      </trkpt>
      <trkpt lat="44.69835" lon="5.61893">
        <ele>1004</ele>
        <time>2021-07-25T08:24:02Z</time>
      </trkpt>
      <trkpt lat="44.69823" lon="5.619">
        <ele>1004</ele>
        <time>2021-07-25T08:24:05Z</time>
      </trkpt>
      <trkpt lat="44.69812" lon="5.61906">
        <ele>1004</ele>
        <time>2021-07-25T08:24:08Z</time>
      </trkpt>
      <trkpt lat="44.698" lon="5.6191">
        <ele>1007</ele>
        <time>2021-07-25T08:24:11Z</time>
      </trkpt>
      <trkpt lat="44.69788" lon="5.61917">
        <ele>1007</ele>
        <time>2021-07-25T08:24:14Z</time>
      </trkpt>
      <trkpt lat="44.69778" lon="5.61928">
        <ele>1009</ele>
        <time>2021-07-25T08:24:17Z</time>
      </trkpt>
      <trkpt lat="44.6977" lon="5.61942">
        <ele>1010</ele>
        <time>2021-07-25T08:24:20Z</time>
      </trkpt>
      <trkpt lat="44.69764" lon="5.61958">
        <ele>1010</ele>
        <time>2021-07-25T08:24:23Z</time>
      </trkpt>
      <trkpt lat="44.69759" lon="5.61974">
        <ele>1011</ele>
        <time>2021-07-25T08:24:26Z</time>
      </trkpt>
      <trkpt lat="44.69754" lon="5.61991">
        <ele>1011</ele>
        <time>2021-07-25T08:24:29Z</time>
      </trkpt>
      <trkpt lat="44.69748" lon="5.62007">
        <ele>1013</ele>
        <time>2021-07-25T08:24:32Z</time>
      </trkpt>
      <trkpt lat="44.69741" lon="5.62021">
        <ele>1014</ele>
        <time>2021-07-25T08:24:35Z</time>
      </trkpt>
      <trkpt lat="44.69733" lon="5.62035">
        <ele>1014</ele>
        <time>2021-07-25T08:24:38Z</time>
      </trkpt>
      <trkpt lat="44.69724" lon="5.62049">
        <ele>1016</ele>
        <time>2021-07-25T08:24:41Z</time>
      </trkpt>
      <trkpt lat="44.69714" lon="5.62061">
        <ele>1016</ele>
        <time>2021-07-25T08:24:44Z</time>
      </trkpt>
      <trkpt lat="44.69704" lon="5.62071">
        <ele>1017</ele>
        <time>2021-07-25T08:24:47Z</time>
      </trkpt>
      <trkpt lat="44.69695" lon="5.62082">
        <ele>1019</ele>
        <time>2021-07-25T08:24:50Z</time>
      </trkpt>
      <trkpt lat="44.69685" lon="5.62092">
        <ele>1019</ele>
        <time>2021-07-25T08:24:53Z</time>
      </trkpt>
      <trkpt lat="44.69675" lon="5.62103">
        <ele>1019</ele>
        <time>2021-07-25T08:24:56Z</time>
      </trkpt>
      <trkpt lat="44.69666" lon="5.62114">
        <ele>1019</ele>
        <time>2021-07-25T08:24:59Z</time>
      </trkpt>
      <trkpt lat="44.69657" lon="5.62125">
        <ele>1021</ele>
        <time>2021-07-25T08:25:02Z</time>
      </trkpt>
      <trkpt lat="44.69647" lon="5.62135">
        <ele>1022</ele>
        <time>2021-07-25T08:25:05Z</time>
      </trkpt>
      <trkpt lat="44.69637" lon="5.62146">
        <ele>1022</ele>
        <time>2021-07-25T08:25:08Z</time>
      </trkpt>
      <trkpt lat="44.69627" lon="5.62157">
        <ele>1023</ele>
        <time>2021-07-25T08:25:11Z</time>
      </trkpt>
      <trkpt lat="44.69619" lon="5.62171">
        <ele>1023</ele>
        <time>2021-07-25T08:25:14Z</time>
      </trkpt>
      <trkpt lat="44.69612" lon="5.62185">
        <ele>1023</ele>
        <time>2021-07-25T08:25:17Z</time>
      </trkpt>
      <trkpt lat="44.69605" lon="5.622">
        <ele>1025</ele>
        <time>2021-07-25T08:25:20Z</time>
      </trkpt>
      <trkpt lat="44.69598" lon="5.62213">
        <ele>1025</ele>
        <time>2021-07-25T08:25:23Z</time>
      </trkpt>
      <trkpt lat="44.69591" lon="5.6222">
        <ele>1025</ele>
        <time>2021-07-25T08:25:25Z</time>
      </trkpt>
      <trkpt lat="44.69586" lon="5.62229">
        <ele>1025</ele>
        <time>2021-07-25T08:25:27Z</time>
      </trkpt>
      <trkpt lat="44.69581" lon="5.62239">
        <ele>1025</ele>
        <time>2021-07-25T08:25:29Z</time>
      </trkpt>
      <trkpt lat="44.69577" lon="5.62249">
        <ele>1028</ele>
        <time>2021-07-25T08:25:31Z</time>
      </trkpt>
      <trkpt lat="44.69569" lon="5.62263">
        <ele>1028</ele>
        <time>2021-07-25T08:25:34Z</time>
      </trkpt>
      <trkpt lat="44.69566" lon="5.62274">
        <ele>1029</ele>
        <time>2021-07-25T08:25:36Z</time>
      </trkpt>
      <trkpt lat="44.69565" lon="5.62279">
        <ele>1029</ele>
        <time>2021-07-25T08:25:37Z</time>
      </trkpt>
      <trkpt lat="44.69564" lon="5.62285">
        <ele>1029</ele>
        <time>2021-07-25T08:25:38Z</time>
      </trkpt>
      <trkpt lat="44.69561" lon="5.62296">
        <ele>1031</ele>
        <time>2021-07-25T08:25:40Z</time>
      </trkpt>
      <trkpt lat="44.69559" lon="5.62307">
        <ele>1031</ele>
        <time>2021-07-25T08:25:42Z</time>
      </trkpt>
      <trkpt lat="44.69557" lon="5.62318">
        <ele>1031</ele>
        <time>2021-07-25T08:25:44Z</time>
      </trkpt>
      <trkpt lat="44.69552" lon="5.62329">
        <ele>1033</ele>
        <time>2021-07-25T08:25:46Z</time>
      </trkpt>
      <trkpt lat="44.69548" lon="5.62338">
        <ele>1033</ele>
        <time>2021-07-25T08:25:48Z</time>
      </trkpt>
      <trkpt lat="44.69546" lon="5.62348">
        <ele>1034</ele>
        <time>2021-07-25T08:25:50Z</time>
      </trkpt>
      <trkpt lat="44.69553" lon="5.62359">
        <ele>1034</ele>
        <time>2021-07-25T08:25:53Z</time>
      </trkpt>
      <trkpt lat="44.69565" lon="5.62365">
        <ele>1036</ele>
        <time>2021-07-25T08:25:56Z</time>
      </trkpt>
      <trkpt lat="44.69578" lon="5.62373">
        <ele>1036</ele>
        <time>2021-07-25T08:25:59Z</time>
      </trkpt>
      <trkpt lat="44.69588" lon="5.62381">
        <ele>1038</ele>
        <time>2021-07-25T08:26:02Z</time>
      </trkpt>
      <trkpt lat="44.69597" lon="5.62392">
        <ele>1039</ele>
        <time>2021-07-25T08:26:05Z</time>
      </trkpt>
      <trkpt lat="44.69606" lon="5.62405">
        <ele>1039</ele>
        <time>2021-07-25T08:26:08Z</time>
      </trkpt>
      <trkpt lat="44.69615" lon="5.62418">
        <ele>1041</ele>
        <time>2021-07-25T08:26:11Z</time>
      </trkpt>
      <trkpt lat="44.69621" lon="5.62425">
        <ele>1041</ele>
        <time>2021-07-25T08:26:13Z</time>
      </trkpt>
      <trkpt lat="44.69627" lon="5.62434">
        <ele>1042</ele>
        <time>2021-07-25T08:26:15Z</time>
      </trkpt>
      <trkpt lat="44.69632" lon="5.62444">
        <ele>1042</ele>
        <time>2021-07-25T08:26:17Z</time>
      </trkpt>
      <trkpt lat="44.69635" lon="5.62456">
        <ele>1042</ele>
        <time>2021-07-25T08:26:19Z</time>
      </trkpt>
      <trkpt lat="44.69636" lon="5.62469">
        <ele>1043</ele>
        <time>2021-07-25T08:26:21Z</time>
      </trkpt>
      <trkpt lat="44.69637" lon="5.62482">
        <ele>1043</ele>
        <time>2021-07-25T08:26:23Z</time>
      </trkpt>
      <trkpt lat="44.69638" lon="5.62496">
        <ele>1043</ele>
        <time>2021-07-25T08:26:25Z</time>
      </trkpt>
      <trkpt lat="44.69639" lon="5.62509">
        <ele>1043</ele>
        <time>2021-07-25T08:26:27Z</time>
      </trkpt>
      <trkpt lat="44.6964" lon="5.62529">
        <ele>1045</ele>
        <time>2021-07-25T08:26:30Z</time>
      </trkpt>
      <trkpt lat="44.6964" lon="5.62548">
        <ele>1045</ele>
        <time>2021-07-25T08:26:33Z</time>
      </trkpt>
      <trkpt lat="44.6964" lon="5.62566">
        <ele>1045</ele>
        <time>2021-07-25T08:26:36Z</time>
      </trkpt>
      <trkpt lat="44.69639" lon="5.62584">
        <ele>1045</ele>
        <time>2021-07-25T08:26:39Z</time>
      </trkpt>
      <trkpt lat="44.69637" lon="5.62601">
        <ele>1047</ele>
        <time>2021-07-25T08:26:42Z</time>
      </trkpt>
      <trkpt lat="44.69638" lon="5.62618">
        <ele>1049</ele>
        <time>2021-07-25T08:26:45Z</time>
      </trkpt>
      <trkpt lat="44.69641" lon="5.62635">
        <ele>1049</ele>
        <time>2021-07-25T08:26:48Z</time>
      </trkpt>
      <trkpt lat="44.69642" lon="5.62652">
        <ele>1050</ele>
        <time>2021-07-25T08:26:51Z</time>
      </trkpt>
      <trkpt lat="44.69636" lon="5.62669">
        <ele>1050</ele>
        <time>2021-07-25T08:26:54Z</time>
      </trkpt>
      <trkpt lat="44.69627" lon="5.62681">
        <ele>1052</ele>
        <time>2021-07-25T08:26:57Z</time>
      </trkpt>
      <trkpt lat="44.69617" lon="5.62692">
        <ele>1053</ele>
        <time>2021-07-25T08:27:00Z</time>
      </trkpt>
      <trkpt lat="44.69606" lon="5.62703">
        <ele>1053</ele>
        <time>2021-07-25T08:27:03Z</time>
      </trkpt>
      <trkpt lat="44.696" lon="5.62712">
        <ele>1055</ele>
        <time>2021-07-25T08:27:05Z</time>
      </trkpt>
      <trkpt lat="44.69595" lon="5.62722">
        <ele>1055</ele>
        <time>2021-07-25T08:27:07Z</time>
      </trkpt>
      <trkpt lat="44.69591" lon="5.62733">
        <ele>1055</ele>
        <time>2021-07-25T08:27:09Z</time>
      </trkpt>
      <trkpt lat="44.69587" lon="5.62744">
        <ele>1055</ele>
        <time>2021-07-25T08:27:11Z</time>
      </trkpt>
      <trkpt lat="44.69583" lon="5.62761">
        <ele>1055</ele>
        <time>2021-07-25T08:27:14Z</time>
      </trkpt>
      <trkpt lat="44.69579" lon="5.62778">
        <ele>1056</ele>
        <time>2021-07-25T08:27:17Z</time>
      </trkpt>
      <trkpt lat="44.69577" lon="5.6279">
        <ele>1056</ele>
        <time>2021-07-25T08:27:19Z</time>
      </trkpt>
      <trkpt lat="44.69575" lon="5.62802">
        <ele>1058</ele>
        <time>2021-07-25T08:27:21Z</time>
      </trkpt>
      <trkpt lat="44.69574" lon="5.62814">
        <ele>1058</ele>
        <time>2021-07-25T08:27:23Z</time>
      </trkpt>
      <trkpt lat="44.69571" lon="5.62826">
        <ele>1059</ele>
        <time>2021-07-25T08:27:25Z</time>
      </trkpt>
      <trkpt lat="44.69568" lon="5.62838">
        <ele>1059</ele>
        <time>2021-07-25T08:27:27Z</time>
      </trkpt>
      <trkpt lat="44.69565" lon="5.62849">
        <ele>1059</ele>
        <time>2021-07-25T08:27:29Z</time>
      </trkpt>
      <trkpt lat="44.69561" lon="5.6286">
        <ele>1061</ele>
        <time>2021-07-25T08:27:31Z</time>
      </trkpt>
      <trkpt lat="44.69558" lon="5.62871">
        <ele>1061</ele>
        <time>2021-07-25T08:27:33Z</time>
      </trkpt>
      <trkpt lat="44.69555" lon="5.62882">
        <ele>1063</ele>
        <time>2021-07-25T08:27:35Z</time>
      </trkpt>
      <trkpt lat="44.69552" lon="5.62893">
        <ele>1063</ele>
        <time>2021-07-25T08:27:37Z</time>
      </trkpt>
      <trkpt lat="44.6955" lon="5.62905">
        <ele>1063</ele>
        <time>2021-07-25T08:27:39Z</time>
      </trkpt>
      <trkpt lat="44.69548" lon="5.62918">
        <ele>1063</ele>
        <time>2021-07-25T08:27:41Z</time>
      </trkpt>
      <trkpt lat="44.69547" lon="5.62935">
        <ele>1063</ele>
        <time>2021-07-25T08:27:44Z</time>
      </trkpt>
      <trkpt lat="44.69546" lon="5.62954">
        <ele>1063</ele>
        <time>2021-07-25T08:27:47Z</time>
      </trkpt>
      <trkpt lat="44.69547" lon="5.62966">
        <ele>1063</ele>
        <time>2021-07-25T08:27:49Z</time>
      </trkpt>
      <trkpt lat="44.69549" lon="5.62979">
        <ele>1065</ele>
        <time>2021-07-25T08:27:51Z</time>
      </trkpt>
      <trkpt lat="44.69555" lon="5.6299">
        <ele>1065</ele>
        <time>2021-07-25T08:27:53Z</time>
      </trkpt>
      <trkpt lat="44.69561" lon="5.63">
        <ele>1067</ele>
        <time>2021-07-25T08:27:55Z</time>
      </trkpt>
      <trkpt lat="44.69568" lon="5.63008">
        <ele>1067</ele>
        <time>2021-07-25T08:27:57Z</time>
      </trkpt>
      <trkpt lat="44.69577" lon="5.63021">
        <ele>1068</ele>
        <time>2021-07-25T08:28:00Z</time>
      </trkpt>
      <trkpt lat="44.69582" lon="5.63038">
        <ele>1068</ele>
        <time>2021-07-25T08:28:03Z</time>
      </trkpt>
      <trkpt lat="44.6959" lon="5.63052">
        <ele>1070</ele>
        <time>2021-07-25T08:28:06Z</time>
      </trkpt>
      <trkpt lat="44.696" lon="5.63064">
        <ele>1070</ele>
        <time>2021-07-25T08:28:09Z</time>
      </trkpt>
      <trkpt lat="44.69608" lon="5.63068">
        <ele>1071</ele>
        <time>2021-07-25T08:28:11Z</time>
      </trkpt>
      <trkpt lat="44.69621" lon="5.63069">
        <ele>1071</ele>
        <time>2021-07-25T08:28:14Z</time>
      </trkpt>
      <trkpt lat="44.69635" lon="5.63065">
        <ele>1073</ele>
        <time>2021-07-25T08:28:17Z</time>
      </trkpt>
      <trkpt lat="44.69649" lon="5.63064">
        <ele>1075</ele>
        <time>2021-07-25T08:28:20Z</time>
      </trkpt>
      <trkpt lat="44.69657" lon="5.63077">
        <ele>1075</ele>
        <time>2021-07-25T08:28:23Z</time>
      </trkpt>
      <trkpt lat="44.69657" lon="5.63089">
        <ele>1077</ele>
        <time>2021-07-25T08:28:25Z</time>
      </trkpt>
      <trkpt lat="44.69654" lon="5.63106">
        <ele>1077</ele>
        <time>2021-07-25T08:28:28Z</time>
      </trkpt>
      <trkpt lat="44.69652" lon="5.63123">
        <ele>1079</ele>
        <time>2021-07-25T08:28:31Z</time>
      </trkpt>
      <trkpt lat="44.69652" lon="5.6314">
        <ele>1079</ele>
        <time>2021-07-25T08:28:34Z</time>
      </trkpt>
      <trkpt lat="44.69652" lon="5.63158">
        <ele>1080</ele>
        <time>2021-07-25T08:28:37Z</time>
      </trkpt>
      <trkpt lat="44.69651" lon="5.63175">
        <ele>1081</ele>
        <time>2021-07-25T08:28:40Z</time>
      </trkpt>
      <trkpt lat="44.69649" lon="5.63186">
        <ele>1081</ele>
        <time>2021-07-25T08:28:42Z</time>
      </trkpt>
      <trkpt lat="44.69647" lon="5.63198">
        <ele>1081</ele>
        <time>2021-07-25T08:28:44Z</time>
      </trkpt>
      <trkpt lat="44.69645" lon="5.63209">
        <ele>1081</ele>
        <time>2021-07-25T08:28:46Z</time>
      </trkpt>
      <trkpt lat="44.69643" lon="5.6322">
        <ele>1081</ele>
        <time>2021-07-25T08:28:48Z</time>
      </trkpt>
      <trkpt lat="44.6964" lon="5.63231">
        <ele>1083</ele>
        <time>2021-07-25T08:28:50Z</time>
      </trkpt>
      <trkpt lat="44.69638" lon="5.63242">
        <ele>1083</ele>
        <time>2021-07-25T08:28:52Z</time>
      </trkpt>
      <trkpt lat="44.69636" lon="5.63252">
        <ele>1083</ele>
        <time>2021-07-25T08:28:54Z</time>
      </trkpt>
      <trkpt lat="44.69633" lon="5.63263">
        <ele>1085</ele>
        <time>2021-07-25T08:28:56Z</time>
      </trkpt>
      <trkpt lat="44.6963" lon="5.63281">
        <ele>1085</ele>
        <time>2021-07-25T08:28:59Z</time>
      </trkpt>
      <trkpt lat="44.69631" lon="5.63298">
        <ele>1088</ele>
        <time>2021-07-25T08:29:02Z</time>
      </trkpt>
      <trkpt lat="44.69632" lon="5.63311">
        <ele>1088</ele>
        <time>2021-07-25T08:29:04Z</time>
      </trkpt>
      <trkpt lat="44.69634" lon="5.63323">
        <ele>1089</ele>
        <time>2021-07-25T08:29:06Z</time>
      </trkpt>
      <trkpt lat="44.69635" lon="5.63335">
        <ele>1089</ele>
        <time>2021-07-25T08:29:08Z</time>
      </trkpt>
      <trkpt lat="44.69637" lon="5.63347">
        <ele>1090</ele>
        <time>2021-07-25T08:29:10Z</time>
      </trkpt>
      <trkpt lat="44.69639" lon="5.63358">
        <ele>1090</ele>
        <time>2021-07-25T08:29:12Z</time>
      </trkpt>
      <trkpt lat="44.69642" lon="5.6337">
        <ele>1090</ele>
        <time>2021-07-25T08:29:14Z</time>
      </trkpt>
      <trkpt lat="44.69643" lon="5.63375">
        <ele>1090</ele>
        <time>2021-07-25T08:29:15Z</time>
      </trkpt>
      <trkpt lat="44.69645" lon="5.63381">
        <ele>1090</ele>
        <time>2021-07-25T08:29:16Z</time>
      </trkpt>
      <trkpt lat="44.69646" lon="5.63387">
        <ele>1090</ele>
        <time>2021-07-25T08:29:17Z</time>
      </trkpt>
      <trkpt lat="44.69647" lon="5.63392">
        <ele>1090</ele>
        <time>2021-07-25T08:29:18Z</time>
      </trkpt>
      <trkpt lat="44.69648" lon="5.63398">
        <ele>1090</ele>
        <time>2021-07-25T08:29:19Z</time>
      </trkpt>
      <trkpt lat="44.69649" lon="5.63409">
        <ele>1092</ele>
        <time>2021-07-25T08:29:21Z</time>
      </trkpt>
      <trkpt lat="44.69649" lon="5.63421">
        <ele>1092</ele>
        <time>2021-07-25T08:29:23Z</time>
      </trkpt>
      <trkpt lat="44.69646" lon="5.63432">
        <ele>1093</ele>
        <time>2021-07-25T08:29:25Z</time>
      </trkpt>
      <trkpt lat="44.69642" lon="5.63443">
        <ele>1093</ele>
        <time>2021-07-25T08:29:27Z</time>
      </trkpt>
      <trkpt lat="44.69637" lon="5.63452">
        <ele>1093</ele>
        <time>2021-07-25T08:29:29Z</time>
      </trkpt>
      <trkpt lat="44.6963" lon="5.63459">
        <ele>1095</ele>
        <time>2021-07-25T08:29:31Z</time>
      </trkpt>
      <trkpt lat="44.69623" lon="5.63464">
        <ele>1095</ele>
        <time>2021-07-25T08:29:33Z</time>
      </trkpt>
      <trkpt lat="44.69615" lon="5.6347">
        <ele>1098</ele>
        <time>2021-07-25T08:29:35Z</time>
      </trkpt>
      <trkpt lat="44.69607" lon="5.63475">
        <ele>1098</ele>
        <time>2021-07-25T08:29:37Z</time>
      </trkpt>
      <trkpt lat="44.696" lon="5.63481">
        <ele>1098</ele>
        <time>2021-07-25T08:29:39Z</time>
      </trkpt>
      <trkpt lat="44.69593" lon="5.63489">
        <ele>1100</ele>
        <time>2021-07-25T08:29:41Z</time>
      </trkpt>
      <trkpt lat="44.69586" lon="5.63495">
        <ele>1100</ele>
        <time>2021-07-25T08:29:43Z</time>
      </trkpt>
      <trkpt lat="44.69579" lon="5.63502">
        <ele>1100</ele>
        <time>2021-07-25T08:29:45Z</time>
      </trkpt>
      <trkpt lat="44.69573" lon="5.63512">
        <ele>1100</ele>
        <time>2021-07-25T08:29:47Z</time>
      </trkpt>
      <trkpt lat="44.69569" lon="5.63525">
        <ele>1100</ele>
        <time>2021-07-25T08:29:49Z</time>
      </trkpt>
      <trkpt lat="44.6957" lon="5.63538">
        <ele>1101</ele>
        <time>2021-07-25T08:29:51Z</time>
      </trkpt>
      <trkpt lat="44.69572" lon="5.63544">
        <ele>1101</ele>
        <time>2021-07-25T08:29:52Z</time>
      </trkpt>
      <trkpt lat="44.69574" lon="5.63551">
        <ele>1101</ele>
        <time>2021-07-25T08:29:53Z</time>
      </trkpt>
      <trkpt lat="44.69575" lon="5.63558">
        <ele>1101</ele>
        <time>2021-07-25T08:29:54Z</time>
      </trkpt>
      <trkpt lat="44.69578" lon="5.63565">
        <ele>1101</ele>
        <time>2021-07-25T08:29:55Z</time>
      </trkpt>
      <trkpt lat="44.6958" lon="5.63572">
        <ele>1101</ele>
        <time>2021-07-25T08:29:56Z</time>
      </trkpt>
      <trkpt lat="44.69582" lon="5.6358">
        <ele>1101</ele>
        <time>2021-07-25T08:29:57Z</time>
      </trkpt>
      <trkpt lat="44.69585" lon="5.63588">
        <ele>1101</ele>
        <time>2021-07-25T08:29:58Z</time>
      </trkpt>
      <trkpt lat="44.69587" lon="5.63596">
        <ele>1101</ele>
        <time>2021-07-25T08:29:59Z</time>
      </trkpt>
      <trkpt lat="44.6959" lon="5.63604">
        <ele>1102</ele>
        <time>2021-07-25T08:30:00Z</time>
      </trkpt>
      <trkpt lat="44.69592" lon="5.63612">
        <ele>1102</ele>
        <time>2021-07-25T08:30:01Z</time>
      </trkpt>
      <trkpt lat="44.69595" lon="5.63621">
        <ele>1102</ele>
        <time>2021-07-25T08:30:02Z</time>
      </trkpt>
      <trkpt lat="44.69597" lon="5.63629">
        <ele>1102</ele>
        <time>2021-07-25T08:30:03Z</time>
      </trkpt>
      <trkpt lat="44.69602" lon="5.63646">
        <ele>1102</ele>
        <time>2021-07-25T08:30:05Z</time>
      </trkpt>
      <trkpt lat="44.69607" lon="5.63664">
        <ele>1102</ele>
        <time>2021-07-25T08:30:07Z</time>
      </trkpt>
      <trkpt lat="44.69612" lon="5.63681">
        <ele>1102</ele>
        <time>2021-07-25T08:30:09Z</time>
      </trkpt>
      <trkpt lat="44.69617" lon="5.63698">
        <ele>1102</ele>
        <time>2021-07-25T08:30:11Z</time>
      </trkpt>
      <trkpt lat="44.69622" lon="5.63715">
        <ele>1102</ele>
        <time>2021-07-25T08:30:13Z</time>
      </trkpt>
      <trkpt lat="44.69626" lon="5.63731">
        <ele>1102</ele>
        <time>2021-07-25T08:30:15Z</time>
      </trkpt>
      <trkpt lat="44.6963" lon="5.63746">
        <ele>1102</ele>
        <time>2021-07-25T08:30:17Z</time>
      </trkpt>
      <trkpt lat="44.69635" lon="5.63762">
        <ele>1102</ele>
        <time>2021-07-25T08:30:19Z</time>
      </trkpt>
      <trkpt lat="44.69641" lon="5.63778">
        <ele>1105</ele>
        <time>2021-07-25T08:30:21Z</time>
      </trkpt>
      <trkpt lat="44.69645" lon="5.63794">
        <ele>1105</ele>
        <time>2021-07-25T08:30:23Z</time>
      </trkpt>
      <trkpt lat="44.69647" lon="5.6381">
        <ele>1107</ele>
        <time>2021-07-25T08:30:25Z</time>
      </trkpt>
      <trkpt lat="44.69649" lon="5.63825">
        <ele>1107</ele>
        <time>2021-07-25T08:30:27Z</time>
      </trkpt>
      <trkpt lat="44.6965" lon="5.6384">
        <ele>1107</ele>
        <time>2021-07-25T08:30:29Z</time>
      </trkpt>
      <trkpt lat="44.6965" lon="5.63855">
        <ele>1108</ele>
        <time>2021-07-25T08:30:31Z</time>
      </trkpt>
      <trkpt lat="44.6965" lon="5.6387">
        <ele>1108</ele>
        <time>2021-07-25T08:30:33Z</time>
      </trkpt>
      <trkpt lat="44.6965" lon="5.63884">
        <ele>1110</ele>
        <time>2021-07-25T08:30:35Z</time>
      </trkpt>
      <trkpt lat="44.69649" lon="5.63898">
        <ele>1110</ele>
        <time>2021-07-25T08:30:37Z</time>
      </trkpt>
      <trkpt lat="44.69648" lon="5.63913">
        <ele>1110</ele>
        <time>2021-07-25T08:30:39Z</time>
      </trkpt>
      <trkpt lat="44.69648" lon="5.63927">
        <ele>1110</ele>
        <time>2021-07-25T08:30:41Z</time>
      </trkpt>
      <trkpt lat="44.69647" lon="5.63941">
        <ele>1110</ele>
        <time>2021-07-25T08:30:43Z</time>
      </trkpt>
      <trkpt lat="44.69647" lon="5.63954">
        <ele>1111</ele>
        <time>2021-07-25T08:30:45Z</time>
      </trkpt>
      <trkpt lat="44.69647" lon="5.63968">
        <ele>1111</ele>
        <time>2021-07-25T08:30:47Z</time>
      </trkpt>
      <trkpt lat="44.69647" lon="5.63982">
        <ele>1111</ele>
        <time>2021-07-25T08:30:49Z</time>
      </trkpt>
      <trkpt lat="44.69647" lon="5.63996">
        <ele>1112</ele>
        <time>2021-07-25T08:30:51Z</time>
      </trkpt>
      <trkpt lat="44.69647" lon="5.64009">
        <ele>1112</ele>
        <time>2021-07-25T08:30:53Z</time>
      </trkpt>
      <trkpt lat="44.69648" lon="5.64023">
        <ele>1112</ele>
        <time>2021-07-25T08:30:55Z</time>
      </trkpt>
      <trkpt lat="44.69648" lon="5.64036">
        <ele>1112</ele>
        <time>2021-07-25T08:30:57Z</time>
      </trkpt>
      <trkpt lat="44.69649" lon="5.64049">
        <ele>1112</ele>
        <time>2021-07-25T08:30:59Z</time>
      </trkpt>
      <trkpt lat="44.6965" lon="5.64061">
        <ele>1116</ele>
        <time>2021-07-25T08:31:01Z</time>
      </trkpt>
      <trkpt lat="44.69651" lon="5.64074">
        <ele>1116</ele>
        <time>2021-07-25T08:31:03Z</time>
      </trkpt>
      <trkpt lat="44.69652" lon="5.64086">
        <ele>1118</ele>
        <time>2021-07-25T08:31:05Z</time>
      </trkpt>
      <trkpt lat="44.69653" lon="5.64097">
        <ele>1118</ele>
        <time>2021-07-25T08:31:07Z</time>
      </trkpt>
      <trkpt lat="44.69654" lon="5.6411">
        <ele>1118</ele>
        <time>2021-07-25T08:31:09Z</time>
      </trkpt>
      <trkpt lat="44.69656" lon="5.64122">
        <ele>1119</ele>
        <time>2021-07-25T08:31:11Z</time>
      </trkpt>
      <trkpt lat="44.69658" lon="5.64134">
        <ele>1119</ele>
        <time>2021-07-25T08:31:13Z</time>
      </trkpt>
      <trkpt lat="44.6966" lon="5.64145">
        <ele>1121</ele>
        <time>2021-07-25T08:31:15Z</time>
      </trkpt>
      <trkpt lat="44.69663" lon="5.64157">
        <ele>1121</ele>
        <time>2021-07-25T08:31:17Z</time>
      </trkpt>
      <trkpt lat="44.69665" lon="5.64168">
        <ele>1121</ele>
        <time>2021-07-25T08:31:19Z</time>
      </trkpt>
      <trkpt lat="44.69667" lon="5.6418">
        <ele>1123</ele>
        <time>2021-07-25T08:31:21Z</time>
      </trkpt>
      <trkpt lat="44.69668" lon="5.64192">
        <ele>1123</ele>
        <time>2021-07-25T08:31:23Z</time>
      </trkpt>
      <trkpt lat="44.69671" lon="5.64203">
        <ele>1125</ele>
        <time>2021-07-25T08:31:25Z</time>
      </trkpt>
      <trkpt lat="44.69673" lon="5.64215">
        <ele>1125</ele>
        <time>2021-07-25T08:31:27Z</time>
      </trkpt>
      <trkpt lat="44.69674" lon="5.64226">
        <ele>1125</ele>
        <time>2021-07-25T08:31:29Z</time>
      </trkpt>
      <trkpt lat="44.69674" lon="5.64238">
        <ele>1126</ele>
        <time>2021-07-25T08:31:31Z</time>
      </trkpt>
      <trkpt lat="44.69674" lon="5.6425">
        <ele>1126</ele>
        <time>2021-07-25T08:31:33Z</time>
      </trkpt>
      <trkpt lat="44.69673" lon="5.64261">
        <ele>1128</ele>
        <time>2021-07-25T08:31:35Z</time>
      </trkpt>
      <trkpt lat="44.69672" lon="5.64273">
        <ele>1128</ele>
        <time>2021-07-25T08:31:37Z</time>
      </trkpt>
      <trkpt lat="44.69671" lon="5.64285">
        <ele>1128</ele>
        <time>2021-07-25T08:31:39Z</time>
      </trkpt>
      <trkpt lat="44.6967" lon="5.64297">
        <ele>1130</ele>
        <time>2021-07-25T08:31:41Z</time>
      </trkpt>
      <trkpt lat="44.69669" lon="5.64309">
        <ele>1130</ele>
        <time>2021-07-25T08:31:43Z</time>
      </trkpt>
      <trkpt lat="44.69668" lon="5.64321">
        <ele>1131</ele>
        <time>2021-07-25T08:31:45Z</time>
      </trkpt>
      <trkpt lat="44.69667" lon="5.64333">
        <ele>1131</ele>
        <time>2021-07-25T08:31:47Z</time>
      </trkpt>
      <trkpt lat="44.69666" lon="5.64346">
        <ele>1131</ele>
        <time>2021-07-25T08:31:49Z</time>
      </trkpt>
      <trkpt lat="44.69665" lon="5.64358">
        <ele>1132</ele>
        <time>2021-07-25T08:31:51Z</time>
      </trkpt>
      <trkpt lat="44.69664" lon="5.64371">
        <ele>1132</ele>
        <time>2021-07-25T08:31:53Z</time>
      </trkpt>
      <trkpt lat="44.69663" lon="5.64383">
        <ele>1133</ele>
        <time>2021-07-25T08:31:55Z</time>
      </trkpt>
      <trkpt lat="44.69662" lon="5.64401">
        <ele>1133</ele>
        <time>2021-07-25T08:31:58Z</time>
      </trkpt>
      <trkpt lat="44.69661" lon="5.64419">
        <ele>1134</ele>
        <time>2021-07-25T08:32:01Z</time>
      </trkpt>
      <trkpt lat="44.69661" lon="5.64438">
        <ele>1134</ele>
        <time>2021-07-25T08:32:04Z</time>
      </trkpt>
      <trkpt lat="44.69662" lon="5.64456">
        <ele>1134</ele>
        <time>2021-07-25T08:32:07Z</time>
      </trkpt>
      <trkpt lat="44.69663" lon="5.64468">
        <ele>1134</ele>
        <time>2021-07-25T08:32:09Z</time>
      </trkpt>
      <trkpt lat="44.69663" lon="5.6448">
        <ele>1137</ele>
        <time>2021-07-25T08:32:11Z</time>
      </trkpt>
      <trkpt lat="44.69665" lon="5.64492">
        <ele>1137</ele>
        <time>2021-07-25T08:32:13Z</time>
      </trkpt>
      <trkpt lat="44.69671" lon="5.64506">
        <ele>1138</ele>
        <time>2021-07-25T08:32:16Z</time>
      </trkpt>
      <trkpt lat="44.69682" lon="5.64496">
        <ele>1140</ele>
        <time>2021-07-25T08:32:20Z</time>
      </trkpt>
      <trkpt lat="44.69684" lon="5.64476">
        <ele>1140</ele>
        <time>2021-07-25T08:32:23Z</time>
      </trkpt>
      <trkpt lat="44.69682" lon="5.64464">
        <ele>1141</ele>
        <time>2021-07-25T08:32:25Z</time>
      </trkpt>
      <trkpt lat="44.69679" lon="5.64451">
        <ele>1141</ele>
        <time>2021-07-25T08:32:27Z</time>
      </trkpt>
      <trkpt lat="44.69678" lon="5.64432">
        <ele>1142</ele>
        <time>2021-07-25T08:32:30Z</time>
      </trkpt>
      <trkpt lat="44.69679" lon="5.64414">
        <ele>1142</ele>
        <time>2021-07-25T08:32:33Z</time>
      </trkpt>
      <trkpt lat="44.69683" lon="5.64398">
        <ele>1143</ele>
        <time>2021-07-25T08:32:36Z</time>
      </trkpt>
      <trkpt lat="44.69687" lon="5.64383">
        <ele>1143</ele>
        <time>2021-07-25T08:32:39Z</time>
      </trkpt>
      <trkpt lat="44.69691" lon="5.64365">
        <ele>1145</ele>
        <time>2021-07-25T08:32:42Z</time>
      </trkpt>
      <trkpt lat="44.69695" lon="5.64349">
        <ele>1147</ele>
        <time>2021-07-25T08:32:45Z</time>
      </trkpt>
      <trkpt lat="44.69699" lon="5.64332">
        <ele>1147</ele>
        <time>2021-07-25T08:32:48Z</time>
      </trkpt>
      <trkpt lat="44.69704" lon="5.64315">
        <ele>1148</ele>
        <time>2021-07-25T08:32:51Z</time>
      </trkpt>
      <trkpt lat="44.6971" lon="5.64305">
        <ele>1148</ele>
        <time>2021-07-25T08:32:53Z</time>
      </trkpt>
      <trkpt lat="44.69716" lon="5.64297">
        <ele>1150</ele>
        <time>2021-07-25T08:32:55Z</time>
      </trkpt>
      <trkpt lat="44.69724" lon="5.64291">
        <ele>1150</ele>
        <time>2021-07-25T08:32:57Z</time>
      </trkpt>
      <trkpt lat="44.69731" lon="5.64284">
        <ele>1150</ele>
        <time>2021-07-25T08:32:59Z</time>
      </trkpt>
      <trkpt lat="44.69736" lon="5.64276">
        <ele>1150</ele>
        <time>2021-07-25T08:33:01Z</time>
      </trkpt>
      <trkpt lat="44.69741" lon="5.64267">
        <ele>1150</ele>
        <time>2021-07-25T08:33:03Z</time>
      </trkpt>
      <trkpt lat="44.69745" lon="5.64256">
        <ele>1152</ele>
        <time>2021-07-25T08:33:05Z</time>
      </trkpt>
      <trkpt lat="44.69745" lon="5.64238">
        <ele>1152</ele>
        <time>2021-07-25T08:33:08Z</time>
      </trkpt>
      <trkpt lat="44.69742" lon="5.64223">
        <ele>1152</ele>
        <time>2021-07-25T08:33:10Z</time>
      </trkpt>
      <trkpt lat="44.69739" lon="5.64211">
        <ele>1152</ele>
        <time>2021-07-25T08:33:12Z</time>
      </trkpt>
      <trkpt lat="44.69735" lon="5.64198">
        <ele>1152</ele>
        <time>2021-07-25T08:33:14Z</time>
      </trkpt>
      <trkpt lat="44.6973" lon="5.64185">
        <ele>1152</ele>
        <time>2021-07-25T08:33:16Z</time>
      </trkpt>
      <trkpt lat="44.69726" lon="5.64173">
        <ele>1152</ele>
        <time>2021-07-25T08:33:18Z</time>
      </trkpt>
      <trkpt lat="44.69722" lon="5.6416">
        <ele>1154</ele>
        <time>2021-07-25T08:33:20Z</time>
      </trkpt>
      <trkpt lat="44.69719" lon="5.64146">
        <ele>1154</ele>
        <time>2021-07-25T08:33:22Z</time>
      </trkpt>
      <trkpt lat="44.69717" lon="5.64132">
        <ele>1154</ele>
        <time>2021-07-25T08:33:24Z</time>
      </trkpt>
      <trkpt lat="44.69716" lon="5.64118">
        <ele>1154</ele>
        <time>2021-07-25T08:33:26Z</time>
      </trkpt>
      <trkpt lat="44.69716" lon="5.64103">
        <ele>1154</ele>
        <time>2021-07-25T08:33:28Z</time>
      </trkpt>
      <trkpt lat="44.69716" lon="5.64089">
        <ele>1157</ele>
        <time>2021-07-25T08:33:30Z</time>
      </trkpt>
      <trkpt lat="44.69716" lon="5.64075">
        <ele>1157</ele>
        <time>2021-07-25T08:33:32Z</time>
      </trkpt>
      <trkpt lat="44.69717" lon="5.6406">
        <ele>1157</ele>
        <time>2021-07-25T08:33:34Z</time>
      </trkpt>
      <trkpt lat="44.69718" lon="5.64045">
        <ele>1159</ele>
        <time>2021-07-25T08:33:36Z</time>
      </trkpt>
      <trkpt lat="44.6972" lon="5.64031">
        <ele>1159</ele>
        <time>2021-07-25T08:33:38Z</time>
      </trkpt>
      <trkpt lat="44.69722" lon="5.64017">
        <ele>1159</ele>
        <time>2021-07-25T08:33:40Z</time>
      </trkpt>
      <trkpt lat="44.69723" lon="5.64003">
        <ele>1159</ele>
        <time>2021-07-25T08:33:42Z</time>
      </trkpt>
      <trkpt lat="44.69724" lon="5.63989">
        <ele>1159</ele>
        <time>2021-07-25T08:33:44Z</time>
      </trkpt>
      <trkpt lat="44.69725" lon="5.63974">
        <ele>1160</ele>
        <time>2021-07-25T08:33:46Z</time>
      </trkpt>
      <trkpt lat="44.69727" lon="5.6396">
        <ele>1160</ele>
        <time>2021-07-25T08:33:48Z</time>
      </trkpt>
      <trkpt lat="44.69731" lon="5.63947">
        <ele>1162</ele>
        <time>2021-07-25T08:33:50Z</time>
      </trkpt>
      <trkpt lat="44.69735" lon="5.63934">
        <ele>1162</ele>
        <time>2021-07-25T08:33:52Z</time>
      </trkpt>
      <trkpt lat="44.69741" lon="5.63915">
        <ele>1163</ele>
        <time>2021-07-25T08:33:55Z</time>
      </trkpt>
      <trkpt lat="44.69747" lon="5.63897">
        <ele>1163</ele>
        <time>2021-07-25T08:33:58Z</time>
      </trkpt>
      <trkpt lat="44.69751" lon="5.63878">
        <ele>1164</ele>
        <time>2021-07-25T08:34:01Z</time>
      </trkpt>
      <trkpt lat="44.69753" lon="5.63858">
        <ele>1164</ele>
        <time>2021-07-25T08:34:04Z</time>
      </trkpt>
      <trkpt lat="44.69753" lon="5.63845">
        <ele>1164</ele>
        <time>2021-07-25T08:34:06Z</time>
      </trkpt>
      <trkpt lat="44.69754" lon="5.63825">
        <ele>1164</ele>
        <time>2021-07-25T08:34:09Z</time>
      </trkpt>
      <trkpt lat="44.69757" lon="5.63806">
        <ele>1166</ele>
        <time>2021-07-25T08:34:12Z</time>
      </trkpt>
      <trkpt lat="44.69765" lon="5.63789">
        <ele>1166</ele>
        <time>2021-07-25T08:34:15Z</time>
      </trkpt>
      <trkpt lat="44.69775" lon="5.63777">
        <ele>1166</ele>
        <time>2021-07-25T08:34:18Z</time>
      </trkpt>
      <trkpt lat="44.69786" lon="5.63767">
        <ele>1168</ele>
        <time>2021-07-25T08:34:21Z</time>
      </trkpt>
      <trkpt lat="44.69794" lon="5.63761">
        <ele>1168</ele>
        <time>2021-07-25T08:34:23Z</time>
      </trkpt>
      <trkpt lat="44.69801" lon="5.63754">
        <ele>1170</ele>
        <time>2021-07-25T08:34:25Z</time>
      </trkpt>
      <trkpt lat="44.69807" lon="5.63745">
        <ele>1170</ele>
        <time>2021-07-25T08:34:27Z</time>
      </trkpt>
      <trkpt lat="44.69812" lon="5.63736">
        <ele>1170</ele>
        <time>2021-07-25T08:34:29Z</time>
      </trkpt>
      <trkpt lat="44.69818" lon="5.63727">
        <ele>1172</ele>
        <time>2021-07-25T08:34:31Z</time>
      </trkpt>
      <trkpt lat="44.69824" lon="5.63712">
        <ele>1172</ele>
        <time>2021-07-25T08:34:34Z</time>
      </trkpt>
      <trkpt lat="44.69827" lon="5.63701">
        <ele>1173</ele>
        <time>2021-07-25T08:34:36Z</time>
      </trkpt>
      <trkpt lat="44.69829" lon="5.6369">
        <ele>1173</ele>
        <time>2021-07-25T08:34:38Z</time>
      </trkpt>
      <trkpt lat="44.69829" lon="5.63672">
        <ele>1175</ele>
        <time>2021-07-25T08:34:41Z</time>
      </trkpt>
      <trkpt lat="44.69828" lon="5.6366">
        <ele>1175</ele>
        <time>2021-07-25T08:34:43Z</time>
      </trkpt>
      <trkpt lat="44.69828" lon="5.63647">
        <ele>1176</ele>
        <time>2021-07-25T08:34:45Z</time>
      </trkpt>
      <trkpt lat="44.69827" lon="5.63634">
        <ele>1176</ele>
        <time>2021-07-25T08:34:47Z</time>
      </trkpt>
      <trkpt lat="44.69827" lon="5.63622">
        <ele>1176</ele>
        <time>2021-07-25T08:34:49Z</time>
      </trkpt>
      <trkpt lat="44.69827" lon="5.6361">
        <ele>1177</ele>
        <time>2021-07-25T08:34:51Z</time>
      </trkpt>
      <trkpt lat="44.69829" lon="5.63597">
        <ele>1177</ele>
        <time>2021-07-25T08:34:53Z</time>
      </trkpt>
      <trkpt lat="44.69831" lon="5.63586">
        <ele>1178</ele>
        <time>2021-07-25T08:34:55Z</time>
      </trkpt>
      <trkpt lat="44.69836" lon="5.63575">
        <ele>1178</ele>
        <time>2021-07-25T08:34:57Z</time>
      </trkpt>
      <trkpt lat="44.69843" lon="5.63565">
        <ele>1178</ele>
        <time>2021-07-25T08:34:59Z</time>
      </trkpt>
      <trkpt lat="44.69854" lon="5.63554">
        <ele>1180</ele>
        <time>2021-07-25T08:35:02Z</time>
      </trkpt>
      <trkpt lat="44.69865" lon="5.63543">
        <ele>1182</ele>
        <time>2021-07-25T08:35:05Z</time>
      </trkpt>
      <trkpt lat="44.69871" lon="5.63535">
        <ele>1182</ele>
        <time>2021-07-25T08:35:07Z</time>
      </trkpt>
      <trkpt lat="44.69877" lon="5.63525">
        <ele>1182</ele>
        <time>2021-07-25T08:35:09Z</time>
      </trkpt>
      <trkpt lat="44.69882" lon="5.63514">
        <ele>1183</ele>
        <time>2021-07-25T08:35:11Z</time>
      </trkpt>
      <trkpt lat="44.69887" lon="5.63503">
        <ele>1183</ele>
        <time>2021-07-25T08:35:13Z</time>
      </trkpt>
      <trkpt lat="44.6989" lon="5.63492">
        <ele>1185</ele>
        <time>2021-07-25T08:35:15Z</time>
      </trkpt>
      <trkpt lat="44.69892" lon="5.63479">
        <ele>1185</ele>
        <time>2021-07-25T08:35:17Z</time>
      </trkpt>
      <trkpt lat="44.69893" lon="5.63466">
        <ele>1185</ele>
        <time>2021-07-25T08:35:19Z</time>
      </trkpt>
      <trkpt lat="44.69894" lon="5.63454">
        <ele>1186</ele>
        <time>2021-07-25T08:35:21Z</time>
      </trkpt>
      <trkpt lat="44.69894" lon="5.63441">
        <ele>1186</ele>
        <time>2021-07-25T08:35:23Z</time>
      </trkpt>
      <trkpt lat="44.69894" lon="5.63428">
        <ele>1187</ele>
        <time>2021-07-25T08:35:25Z</time>
      </trkpt>
      <trkpt lat="44.69894" lon="5.63415">
        <ele>1187</ele>
        <time>2021-07-25T08:35:27Z</time>
      </trkpt>
      <trkpt lat="44.69893" lon="5.63402">
        <ele>1187</ele>
        <time>2021-07-25T08:35:29Z</time>
      </trkpt>
      <trkpt lat="44.69891" lon="5.63389">
        <ele>1188</ele>
        <time>2021-07-25T08:35:31Z</time>
      </trkpt>
      <trkpt lat="44.69891" lon="5.63377">
        <ele>1188</ele>
        <time>2021-07-25T08:35:33Z</time>
      </trkpt>
      <trkpt lat="44.6989" lon="5.63364">
        <ele>1189</ele>
        <time>2021-07-25T08:35:35Z</time>
      </trkpt>
      <trkpt lat="44.6989" lon="5.63345">
        <ele>1189</ele>
        <time>2021-07-25T08:35:38Z</time>
      </trkpt>
      <trkpt lat="44.69894" lon="5.63333">
        <ele>1190</ele>
        <time>2021-07-25T08:35:40Z</time>
      </trkpt>
      <trkpt lat="44.69902" lon="5.63336">
        <ele>1190</ele>
        <time>2021-07-25T08:35:42Z</time>
      </trkpt>
      <trkpt lat="44.69905" lon="5.63348">
        <ele>1190</ele>
        <time>2021-07-25T08:35:44Z</time>
      </trkpt>
      <trkpt lat="44.69904" lon="5.63363">
        <ele>1190</ele>
        <time>2021-07-25T08:35:46Z</time>
      </trkpt>
      <trkpt lat="44.69903" lon="5.63376">
        <ele>1190</ele>
        <time>2021-07-25T08:35:48Z</time>
      </trkpt>
      <trkpt lat="44.69905" lon="5.63389">
        <ele>1193</ele>
        <time>2021-07-25T08:35:50Z</time>
      </trkpt>
      <trkpt lat="44.69907" lon="5.63402">
        <ele>1193</ele>
        <time>2021-07-25T08:35:52Z</time>
      </trkpt>
      <trkpt lat="44.69911" lon="5.63414">
        <ele>1193</ele>
        <time>2021-07-25T08:35:54Z</time>
      </trkpt>
      <trkpt lat="44.69914" lon="5.63427">
        <ele>1195</ele>
        <time>2021-07-25T08:35:56Z</time>
      </trkpt>
      <trkpt lat="44.69918" lon="5.6344">
        <ele>1195</ele>
        <time>2021-07-25T08:35:58Z</time>
      </trkpt>
      <trkpt lat="44.69922" lon="5.63453">
        <ele>1197</ele>
        <time>2021-07-25T08:36:00Z</time>
      </trkpt>
      <trkpt lat="44.69925" lon="5.63465">
        <ele>1197</ele>
        <time>2021-07-25T08:36:02Z</time>
      </trkpt>
      <trkpt lat="44.69928" lon="5.63478">
        <ele>1197</ele>
        <time>2021-07-25T08:36:04Z</time>
      </trkpt>
      <trkpt lat="44.69928" lon="5.63491">
        <ele>1198</ele>
        <time>2021-07-25T08:36:06Z</time>
      </trkpt>
      <trkpt lat="44.69926" lon="5.63504">
        <ele>1198</ele>
        <time>2021-07-25T08:36:08Z</time>
      </trkpt>
      <trkpt lat="44.69923" lon="5.63516">
        <ele>1200</ele>
        <time>2021-07-25T08:36:10Z</time>
      </trkpt>
      <trkpt lat="44.69919" lon="5.63528">
        <ele>1200</ele>
        <time>2021-07-25T08:36:12Z</time>
      </trkpt>
      <trkpt lat="44.69913" lon="5.63539">
        <ele>1200</ele>
        <time>2021-07-25T08:36:14Z</time>
      </trkpt>
      <trkpt lat="44.69907" lon="5.63549">
        <ele>1201</ele>
        <time>2021-07-25T08:36:16Z</time>
      </trkpt>
      <trkpt lat="44.69901" lon="5.6356">
        <ele>1201</ele>
        <time>2021-07-25T08:36:18Z</time>
      </trkpt>
      <trkpt lat="44.69896" lon="5.63571">
        <ele>1202</ele>
        <time>2021-07-25T08:36:20Z</time>
      </trkpt>
      <trkpt lat="44.69892" lon="5.63582">
        <ele>1202</ele>
        <time>2021-07-25T08:36:22Z</time>
      </trkpt>
      <trkpt lat="44.69888" lon="5.63592">
        <ele>1202</ele>
        <time>2021-07-25T08:36:24Z</time>
      </trkpt>
      <trkpt lat="44.69885" lon="5.63605">
        <ele>1202</ele>
        <time>2021-07-25T08:36:26Z</time>
      </trkpt>
      <trkpt lat="44.69883" lon="5.63618">
        <ele>1202</ele>
        <time>2021-07-25T08:36:28Z</time>
      </trkpt>
      <trkpt lat="44.69882" lon="5.63631">
        <ele>1204</ele>
        <time>2021-07-25T08:36:30Z</time>
      </trkpt>
      <trkpt lat="44.69882" lon="5.63644">
        <ele>1204</ele>
        <time>2021-07-25T08:36:32Z</time>
      </trkpt>
      <trkpt lat="44.69882" lon="5.63657">
        <ele>1204</ele>
        <time>2021-07-25T08:36:34Z</time>
      </trkpt>
      <trkpt lat="44.69883" lon="5.63664">
        <ele>1206</ele>
        <time>2021-07-25T08:36:35Z</time>
      </trkpt>
      <trkpt lat="44.69884" lon="5.6367">
        <ele>1206</ele>
        <time>2021-07-25T08:36:36Z</time>
      </trkpt>
      <trkpt lat="44.69885" lon="5.63676">
        <ele>1206</ele>
        <time>2021-07-25T08:36:37Z</time>
      </trkpt>
      <trkpt lat="44.69886" lon="5.63681">
        <ele>1206</ele>
        <time>2021-07-25T08:36:38Z</time>
      </trkpt>
      <trkpt lat="44.69888" lon="5.63687">
        <ele>1206</ele>
        <time>2021-07-25T08:36:39Z</time>
      </trkpt>
      <trkpt lat="44.6989" lon="5.63692">
        <ele>1208</ele>
        <time>2021-07-25T08:36:40Z</time>
      </trkpt>
      <trkpt lat="44.69892" lon="5.63698">
        <ele>1208</ele>
        <time>2021-07-25T08:36:41Z</time>
      </trkpt>
      <trkpt lat="44.69894" lon="5.63703">
        <ele>1208</ele>
        <time>2021-07-25T08:36:42Z</time>
      </trkpt>
      <trkpt lat="44.69896" lon="5.63708">
        <ele>1208</ele>
        <time>2021-07-25T08:36:43Z</time>
      </trkpt>
      <trkpt lat="44.69898" lon="5.63713">
        <ele>1208</ele>
        <time>2021-07-25T08:36:44Z</time>
      </trkpt>
      <trkpt lat="44.699" lon="5.63718">
        <ele>1210</ele>
        <time>2021-07-25T08:36:45Z</time>
      </trkpt>
      <trkpt lat="44.69903" lon="5.63723">
        <ele>1210</ele>
        <time>2021-07-25T08:36:46Z</time>
      </trkpt>
      <trkpt lat="44.69905" lon="5.63728">
        <ele>1210</ele>
        <time>2021-07-25T08:36:47Z</time>
      </trkpt>
      <trkpt lat="44.69907" lon="5.63733">
        <ele>1210</ele>
        <time>2021-07-25T08:36:48Z</time>
      </trkpt>
      <trkpt lat="44.69909" lon="5.63739">
        <ele>1210</ele>
        <time>2021-07-25T08:36:49Z</time>
      </trkpt>
      <trkpt lat="44.69911" lon="5.63745">
        <ele>1212</ele>
        <time>2021-07-25T08:36:50Z</time>
      </trkpt>
      <trkpt lat="44.69915" lon="5.63756">
        <ele>1212</ele>
        <time>2021-07-25T08:36:52Z</time>
      </trkpt>
      <trkpt lat="44.69918" lon="5.63768">
        <ele>1212</ele>
        <time>2021-07-25T08:36:54Z</time>
      </trkpt>
      <trkpt lat="44.69921" lon="5.63779">
        <ele>1212</ele>
        <time>2021-07-25T08:36:56Z</time>
      </trkpt>
      <trkpt lat="44.69925" lon="5.6379">
        <ele>1212</ele>
        <time>2021-07-25T08:36:58Z</time>
      </trkpt>
      <trkpt lat="44.69928" lon="5.63801">
        <ele>1214</ele>
        <time>2021-07-25T08:37:00Z</time>
      </trkpt>
      <trkpt lat="44.69931" lon="5.63812">
        <ele>1214</ele>
        <time>2021-07-25T08:37:02Z</time>
      </trkpt>
      <trkpt lat="44.69934" lon="5.63824">
        <ele>1214</ele>
        <time>2021-07-25T08:37:04Z</time>
      </trkpt>
      <trkpt lat="44.69937" lon="5.63835">
        <ele>1215</ele>
        <time>2021-07-25T08:37:06Z</time>
      </trkpt>
      <trkpt lat="44.69941" lon="5.63852">
        <ele>1215</ele>
        <time>2021-07-25T08:37:09Z</time>
      </trkpt>
      <trkpt lat="44.69944" lon="5.63871">
        <ele>1215</ele>
        <time>2021-07-25T08:37:12Z</time>
      </trkpt>
      <trkpt lat="44.69945" lon="5.6389">
        <ele>1215</ele>
        <time>2021-07-25T08:37:15Z</time>
      </trkpt>
      <trkpt lat="44.69947" lon="5.63909">
        <ele>1215</ele>
        <time>2021-07-25T08:37:18Z</time>
      </trkpt>
      <trkpt lat="44.69948" lon="5.63921">
        <ele>1218</ele>
        <time>2021-07-25T08:37:20Z</time>
      </trkpt>
      <trkpt lat="44.69949" lon="5.63934">
        <ele>1218</ele>
        <time>2021-07-25T08:37:22Z</time>
      </trkpt>
      <trkpt lat="44.69951" lon="5.63946">
        <ele>1218</ele>
        <time>2021-07-25T08:37:24Z</time>
      </trkpt>
      <trkpt lat="44.69952" lon="5.63958">
        <ele>1221</ele>
        <time>2021-07-25T08:37:26Z</time>
      </trkpt>
      <trkpt lat="44.69953" lon="5.63964">
        <ele>1221</ele>
        <time>2021-07-25T08:37:27Z</time>
      </trkpt>
      <trkpt lat="44.69953" lon="5.63971">
        <ele>1221</ele>
        <time>2021-07-25T08:37:28Z</time>
      </trkpt>
      <trkpt lat="44.69954" lon="5.63977">
        <ele>1221</ele>
        <time>2021-07-25T08:37:29Z</time>
      </trkpt>
      <trkpt lat="44.69955" lon="5.63983">
        <ele>1222</ele>
        <time>2021-07-25T08:37:30Z</time>
      </trkpt>
      <trkpt lat="44.69956" lon="5.63989">
        <ele>1222</ele>
        <time>2021-07-25T08:37:31Z</time>
      </trkpt>
      <trkpt lat="44.69956" lon="5.63996">
        <ele>1222</ele>
        <time>2021-07-25T08:37:32Z</time>
      </trkpt>
      <trkpt lat="44.69957" lon="5.64002">
        <ele>1222</ele>
        <time>2021-07-25T08:37:33Z</time>
      </trkpt>
      <trkpt lat="44.69958" lon="5.64008">
        <ele>1222</ele>
        <time>2021-07-25T08:37:34Z</time>
      </trkpt>
      <trkpt lat="44.69958" lon="5.64014">
        <ele>1223</ele>
        <time>2021-07-25T08:37:35Z</time>
      </trkpt>
      <trkpt lat="44.69959" lon="5.64021">
        <ele>1223</ele>
        <time>2021-07-25T08:37:36Z</time>
      </trkpt>
      <trkpt lat="44.6996" lon="5.64027">
        <ele>1223</ele>
        <time>2021-07-25T08:37:37Z</time>
      </trkpt>
      <trkpt lat="44.69961" lon="5.64033">
        <ele>1223</ele>
        <time>2021-07-25T08:37:38Z</time>
      </trkpt>
      <trkpt lat="44.69961" lon="5.6404">
        <ele>1223</ele>
        <time>2021-07-25T08:37:39Z</time>
      </trkpt>
      <trkpt lat="44.69963" lon="5.64052">
        <ele>1225</ele>
        <time>2021-07-25T08:37:41Z</time>
      </trkpt>
      <trkpt lat="44.69965" lon="5.64064">
        <ele>1225</ele>
        <time>2021-07-25T08:37:43Z</time>
      </trkpt>
      <trkpt lat="44.69967" lon="5.64077">
        <ele>1226</ele>
        <time>2021-07-25T08:37:45Z</time>
      </trkpt>
      <trkpt lat="44.69968" lon="5.64083">
        <ele>1226</ele>
        <time>2021-07-25T08:37:46Z</time>
      </trkpt>
      <trkpt lat="44.6997" lon="5.64089">
        <ele>1226</ele>
        <time>2021-07-25T08:37:47Z</time>
      </trkpt>
      <trkpt lat="44.69971" lon="5.64095">
        <ele>1226</ele>
        <time>2021-07-25T08:37:48Z</time>
      </trkpt>
      <trkpt lat="44.69973" lon="5.64101">
        <ele>1226</ele>
        <time>2021-07-25T08:37:49Z</time>
      </trkpt>
      <trkpt lat="44.69974" lon="5.64107">
        <ele>1228</ele>
        <time>2021-07-25T08:37:50Z</time>
      </trkpt>
      <trkpt lat="44.69977" lon="5.64119">
        <ele>1228</ele>
        <time>2021-07-25T08:37:52Z</time>
      </trkpt>
      <trkpt lat="44.69979" lon="5.64131">
        <ele>1228</ele>
        <time>2021-07-25T08:37:54Z</time>
      </trkpt>
      <trkpt lat="44.69981" lon="5.64137">
        <ele>1229</ele>
        <time>2021-07-25T08:37:55Z</time>
      </trkpt>
      <trkpt lat="44.69984" lon="5.64149">
        <ele>1229</ele>
        <time>2021-07-25T08:37:57Z</time>
      </trkpt>
      <trkpt lat="44.69985" lon="5.64155">
        <ele>1229</ele>
        <time>2021-07-25T08:37:58Z</time>
      </trkpt>
      <trkpt lat="44.69986" lon="5.64161">
        <ele>1229</ele>
        <time>2021-07-25T08:37:59Z</time>
      </trkpt>
      <trkpt lat="44.69988" lon="5.64167">
        <ele>1231</ele>
        <time>2021-07-25T08:38:00Z</time>
      </trkpt>
      <trkpt lat="44.69989" lon="5.64173">
        <ele>1231</ele>
        <time>2021-07-25T08:38:01Z</time>
      </trkpt>
      <trkpt lat="44.69991" lon="5.64179">
        <ele>1231</ele>
        <time>2021-07-25T08:38:02Z</time>
      </trkpt>
      <trkpt lat="44.69993" lon="5.64185">
        <ele>1231</ele>
        <time>2021-07-25T08:38:03Z</time>
      </trkpt>
      <trkpt lat="44.69995" lon="5.6419">
        <ele>1231</ele>
        <time>2021-07-25T08:38:04Z</time>
      </trkpt>
      <trkpt lat="44.69997" lon="5.64196">
        <ele>1231</ele>
        <time>2021-07-25T08:38:05Z</time>
      </trkpt>
      <trkpt lat="44.69999" lon="5.64201">
        <ele>1231</ele>
        <time>2021-07-25T08:38:06Z</time>
      </trkpt>
      <trkpt lat="44.70002" lon="5.64207">
        <ele>1231</ele>
        <time>2021-07-25T08:38:07Z</time>
      </trkpt>
      <trkpt lat="44.70004" lon="5.64213">
        <ele>1231</ele>
        <time>2021-07-25T08:38:08Z</time>
      </trkpt>
      <trkpt lat="44.70006" lon="5.64218">
        <ele>1231</ele>
        <time>2021-07-25T08:38:09Z</time>
      </trkpt>
      <trkpt lat="44.70009" lon="5.64224">
        <ele>1233</ele>
        <time>2021-07-25T08:38:10Z</time>
      </trkpt>
      <trkpt lat="44.70011" lon="5.6423">
        <ele>1233</ele>
        <time>2021-07-25T08:38:11Z</time>
      </trkpt>
      <trkpt lat="44.70013" lon="5.64236">
        <ele>1233</ele>
        <time>2021-07-25T08:38:12Z</time>
      </trkpt>
      <trkpt lat="44.70015" lon="5.64242">
        <ele>1233</ele>
        <time>2021-07-25T08:38:13Z</time>
      </trkpt>
      <trkpt lat="44.70017" lon="5.64248">
        <ele>1233</ele>
        <time>2021-07-25T08:38:14Z</time>
      </trkpt>
      <trkpt lat="44.70018" lon="5.64254">
        <ele>1235</ele>
        <time>2021-07-25T08:38:15Z</time>
      </trkpt>
      <trkpt lat="44.7002" lon="5.64267">
        <ele>1235</ele>
        <time>2021-07-25T08:38:17Z</time>
      </trkpt>
      <trkpt lat="44.7002" lon="5.64273">
        <ele>1235</ele>
        <time>2021-07-25T08:38:18Z</time>
      </trkpt>
      <trkpt lat="44.70021" lon="5.64279">
        <ele>1235</ele>
        <time>2021-07-25T08:38:19Z</time>
      </trkpt>
      <trkpt lat="44.70022" lon="5.64286">
        <ele>1237</ele>
        <time>2021-07-25T08:38:20Z</time>
      </trkpt>
      <trkpt lat="44.70022" lon="5.64292">
        <ele>1237</ele>
        <time>2021-07-25T08:38:21Z</time>
      </trkpt>
      <trkpt lat="44.70023" lon="5.64299">
        <ele>1237</ele>
        <time>2021-07-25T08:38:22Z</time>
      </trkpt>
      <trkpt lat="44.70024" lon="5.64305">
        <ele>1237</ele>
        <time>2021-07-25T08:38:23Z</time>
      </trkpt>
      <trkpt lat="44.70024" lon="5.64311">
        <ele>1237</ele>
        <time>2021-07-25T08:38:24Z</time>
      </trkpt>
      <trkpt lat="44.70025" lon="5.64318">
        <ele>1238</ele>
        <time>2021-07-25T08:38:25Z</time>
      </trkpt>
      <trkpt lat="44.70026" lon="5.64324">
        <ele>1238</ele>
        <time>2021-07-25T08:38:26Z</time>
      </trkpt>
      <trkpt lat="44.70027" lon="5.6433">
        <ele>1238</ele>
        <time>2021-07-25T08:38:27Z</time>
      </trkpt>
      <trkpt lat="44.70028" lon="5.64337">
        <ele>1238</ele>
        <time>2021-07-25T08:38:28Z</time>
      </trkpt>
      <trkpt lat="44.7003" lon="5.64349">
        <ele>1239</ele>
        <time>2021-07-25T08:38:30Z</time>
      </trkpt>
      <trkpt lat="44.70032" lon="5.64362">
        <ele>1239</ele>
        <time>2021-07-25T08:38:32Z</time>
      </trkpt>
      <trkpt lat="44.70034" lon="5.64375">
        <ele>1239</ele>
        <time>2021-07-25T08:38:34Z</time>
      </trkpt>
      <trkpt lat="44.70034" lon="5.64388">
        <ele>1239</ele>
        <time>2021-07-25T08:38:36Z</time>
      </trkpt>
      <trkpt lat="44.70035" lon="5.64401">
        <ele>1239</ele>
        <time>2021-07-25T08:38:38Z</time>
      </trkpt>
      <trkpt lat="44.70035" lon="5.64407">
        <ele>1239</ele>
        <time>2021-07-25T08:38:39Z</time>
      </trkpt>
      <trkpt lat="44.70036" lon="5.6442">
        <ele>1242</ele>
        <time>2021-07-25T08:38:41Z</time>
      </trkpt>
      <trkpt lat="44.70036" lon="5.64427">
        <ele>1242</ele>
        <time>2021-07-25T08:38:42Z</time>
      </trkpt>
      <trkpt lat="44.70037" lon="5.64439">
        <ele>1242</ele>
        <time>2021-07-25T08:38:44Z</time>
      </trkpt>
      <trkpt lat="44.7004" lon="5.64451">
        <ele>1245</ele>
        <time>2021-07-25T08:38:46Z</time>
      </trkpt>
      <trkpt lat="44.70043" lon="5.64463">
        <ele>1245</ele>
        <time>2021-07-25T08:38:48Z</time>
      </trkpt>
      <trkpt lat="44.70048" lon="5.64475">
        <ele>1246</ele>
        <time>2021-07-25T08:38:50Z</time>
      </trkpt>
      <trkpt lat="44.70052" lon="5.64487">
        <ele>1246</ele>
        <time>2021-07-25T08:38:52Z</time>
      </trkpt>
      <trkpt lat="44.70054" lon="5.64493">
        <ele>1246</ele>
        <time>2021-07-25T08:38:53Z</time>
      </trkpt>
      <trkpt lat="44.70056" lon="5.64498">
        <ele>1246</ele>
        <time>2021-07-25T08:38:54Z</time>
      </trkpt>
      <trkpt lat="44.70059" lon="5.64504">
        <ele>1247</ele>
        <time>2021-07-25T08:38:55Z</time>
      </trkpt>
      <trkpt lat="44.70061" lon="5.6451">
        <ele>1247</ele>
        <time>2021-07-25T08:38:56Z</time>
      </trkpt>
      <trkpt lat="44.70063" lon="5.64515">
        <ele>1247</ele>
        <time>2021-07-25T08:38:57Z</time>
      </trkpt>
      <trkpt lat="44.70068" lon="5.64526">
        <ele>1247</ele>
        <time>2021-07-25T08:38:59Z</time>
      </trkpt>
      <trkpt lat="44.70071" lon="5.64538">
        <ele>1249</ele>
        <time>2021-07-25T08:39:01Z</time>
      </trkpt>
      <trkpt lat="44.70074" lon="5.6455">
        <ele>1249</ele>
        <time>2021-07-25T08:39:03Z</time>
      </trkpt>
      <trkpt lat="44.70074" lon="5.64563">
        <ele>1250</ele>
        <time>2021-07-25T08:39:05Z</time>
      </trkpt>
      <trkpt lat="44.70072" lon="5.64575">
        <ele>1250</ele>
        <time>2021-07-25T08:39:07Z</time>
      </trkpt>
      <trkpt lat="44.70069" lon="5.64587">
        <ele>1250</ele>
        <time>2021-07-25T08:39:09Z</time>
      </trkpt>
      <trkpt lat="44.70065" lon="5.64598">
        <ele>1252</ele>
        <time>2021-07-25T08:39:11Z</time>
      </trkpt>
      <trkpt lat="44.70062" lon="5.64609">
        <ele>1252</ele>
        <time>2021-07-25T08:39:13Z</time>
      </trkpt>
      <trkpt lat="44.70061" lon="5.64616">
        <ele>1252</ele>
        <time>2021-07-25T08:39:14Z</time>
      </trkpt>
      <trkpt lat="44.70061" lon="5.64622">
        <ele>1254</ele>
        <time>2021-07-25T08:39:15Z</time>
      </trkpt>
      <trkpt lat="44.70059" lon="5.64634">
        <ele>1254</ele>
        <time>2021-07-25T08:39:17Z</time>
      </trkpt>
      <trkpt lat="44.70057" lon="5.64646">
        <ele>1254</ele>
        <time>2021-07-25T08:39:19Z</time>
      </trkpt>
      <trkpt lat="44.70056" lon="5.64659">
        <ele>1254</ele>
        <time>2021-07-25T08:39:21Z</time>
      </trkpt>
      <trkpt lat="44.70056" lon="5.64665">
        <ele>1254</ele>
        <time>2021-07-25T08:39:22Z</time>
      </trkpt>
      <trkpt lat="44.70055" lon="5.64672">
        <ele>1254</ele>
        <time>2021-07-25T08:39:23Z</time>
      </trkpt>
      <trkpt lat="44.70054" lon="5.64684">
        <ele>1254</ele>
        <time>2021-07-25T08:39:25Z</time>
      </trkpt>
      <trkpt lat="44.70054" lon="5.64697">
        <ele>1254</ele>
        <time>2021-07-25T08:39:27Z</time>
      </trkpt>
      <trkpt lat="44.70054" lon="5.64709">
        <ele>1254</ele>
        <time>2021-07-25T08:39:29Z</time>
      </trkpt>
      <trkpt lat="44.70054" lon="5.64722">
        <ele>1256</ele>
        <time>2021-07-25T08:39:31Z</time>
      </trkpt>
      <trkpt lat="44.70055" lon="5.64735">
        <ele>1256</ele>
        <time>2021-07-25T08:39:33Z</time>
      </trkpt>
      <trkpt lat="44.70056" lon="5.64747">
        <ele>1256</ele>
        <time>2021-07-25T08:39:35Z</time>
      </trkpt>
      <trkpt lat="44.70058" lon="5.6476">
        <ele>1256</ele>
        <time>2021-07-25T08:39:37Z</time>
      </trkpt>
      <trkpt lat="44.7006" lon="5.64766">
        <ele>1256</ele>
        <time>2021-07-25T08:39:38Z</time>
      </trkpt>
      <trkpt lat="44.70063" lon="5.64772">
        <ele>1256</ele>
        <time>2021-07-25T08:39:39Z</time>
      </trkpt>
      <trkpt lat="44.70065" lon="5.64777">
        <ele>1259</ele>
        <time>2021-07-25T08:39:40Z</time>
      </trkpt>
      <trkpt lat="44.70071" lon="5.64787">
        <ele>1259</ele>
        <time>2021-07-25T08:39:42Z</time>
      </trkpt>
      <trkpt lat="44.70075" lon="5.64791">
        <ele>1259</ele>
        <time>2021-07-25T08:39:43Z</time>
      </trkpt>
      <trkpt lat="44.70082" lon="5.648">
        <ele>1261</ele>
        <time>2021-07-25T08:39:45Z</time>
      </trkpt>
      <trkpt lat="44.70085" lon="5.64804">
        <ele>1261</ele>
        <time>2021-07-25T08:39:46Z</time>
      </trkpt>
      <trkpt lat="44.70089" lon="5.64808">
        <ele>1261</ele>
        <time>2021-07-25T08:39:47Z</time>
      </trkpt>
      <trkpt lat="44.70093" lon="5.64811">
        <ele>1261</ele>
        <time>2021-07-25T08:39:48Z</time>
      </trkpt>
      <trkpt lat="44.70097" lon="5.64814">
        <ele>1261</ele>
        <time>2021-07-25T08:39:49Z</time>
      </trkpt>
      <trkpt lat="44.70101" lon="5.64818">
        <ele>1263</ele>
        <time>2021-07-25T08:39:50Z</time>
      </trkpt>
      <trkpt lat="44.70106" lon="5.64821">
        <ele>1263</ele>
        <time>2021-07-25T08:39:51Z</time>
      </trkpt>
      <trkpt lat="44.7011" lon="5.64824">
        <ele>1263</ele>
        <time>2021-07-25T08:39:52Z</time>
      </trkpt>
      <trkpt lat="44.70114" lon="5.64826">
        <ele>1263</ele>
        <time>2021-07-25T08:39:53Z</time>
      </trkpt>
      <trkpt lat="44.70118" lon="5.64829">
        <ele>1263</ele>
        <time>2021-07-25T08:39:54Z</time>
      </trkpt>
      <trkpt lat="44.70122" lon="5.64832">
        <ele>1265</ele>
        <time>2021-07-25T08:39:55Z</time>
      </trkpt>
      <trkpt lat="44.70126" lon="5.64835">
        <ele>1265</ele>
        <time>2021-07-25T08:39:56Z</time>
      </trkpt>
      <trkpt lat="44.7013" lon="5.64839">
        <ele>1265</ele>
        <time>2021-07-25T08:39:57Z</time>
      </trkpt>
      <trkpt lat="44.70133" lon="5.64843">
        <ele>1265</ele>
        <time>2021-07-25T08:39:58Z</time>
      </trkpt>
      <trkpt lat="44.70136" lon="5.64848">
        <ele>1265</ele>
        <time>2021-07-25T08:39:59Z</time>
      </trkpt>
      <trkpt lat="44.70138" lon="5.64854">
        <ele>1266</ele>
        <time>2021-07-25T08:40:00Z</time>
      </trkpt>
      <trkpt lat="44.70139" lon="5.6486">
        <ele>1266</ele>
        <time>2021-07-25T08:40:01Z</time>
      </trkpt>
      <trkpt lat="44.7014" lon="5.64866">
        <ele>1266</ele>
        <time>2021-07-25T08:40:02Z</time>
      </trkpt>
      <trkpt lat="44.70141" lon="5.64872">
        <ele>1266</ele>
        <time>2021-07-25T08:40:03Z</time>
      </trkpt>
      <trkpt lat="44.70141" lon="5.64878">
        <ele>1266</ele>
        <time>2021-07-25T08:40:04Z</time>
      </trkpt>
      <trkpt lat="44.70141" lon="5.64885">
        <ele>1268</ele>
        <time>2021-07-25T08:40:05Z</time>
      </trkpt>
      <trkpt lat="44.70139" lon="5.64897">
        <ele>1268</ele>
        <time>2021-07-25T08:40:07Z</time>
      </trkpt>
      <trkpt lat="44.70132" lon="5.64907">
        <ele>1268</ele>
        <time>2021-07-25T08:40:09Z</time>
      </trkpt>
      <trkpt lat="44.70123" lon="5.64912">
        <ele>1270</ele>
        <time>2021-07-25T08:40:11Z</time>
      </trkpt>
      <trkpt lat="44.70113" lon="5.64916">
        <ele>1270</ele>
        <time>2021-07-25T08:40:13Z</time>
      </trkpt>
      <trkpt lat="44.70101" lon="5.64919">
        <ele>1270</ele>
        <time>2021-07-25T08:40:15Z</time>
      </trkpt>
      <trkpt lat="44.70089" lon="5.64921">
        <ele>1270</ele>
        <time>2021-07-25T08:40:17Z</time>
      </trkpt>
      <trkpt lat="44.70078" lon="5.64927">
        <ele>1270</ele>
        <time>2021-07-25T08:40:19Z</time>
      </trkpt>
      <trkpt lat="44.70073" lon="5.64931">
        <ele>1270</ele>
        <time>2021-07-25T08:40:20Z</time>
      </trkpt>
      <trkpt lat="44.70064" lon="5.64943">
        <ele>1270</ele>
        <time>2021-07-25T08:40:22Z</time>
      </trkpt>
      <trkpt lat="44.70056" lon="5.64957">
        <ele>1270</ele>
        <time>2021-07-25T08:40:24Z</time>
      </trkpt>
      <trkpt lat="44.70052" lon="5.64964">
        <ele>1270</ele>
        <time>2021-07-25T08:40:25Z</time>
      </trkpt>
      <trkpt lat="44.70048" lon="5.64971">
        <ele>1270</ele>
        <time>2021-07-25T08:40:26Z</time>
      </trkpt>
      <trkpt lat="44.70044" lon="5.64978">
        <ele>1270</ele>
        <time>2021-07-25T08:40:27Z</time>
      </trkpt>
      <trkpt lat="44.70039" lon="5.64985">
        <ele>1270</ele>
        <time>2021-07-25T08:40:28Z</time>
      </trkpt>
      <trkpt lat="44.70034" lon="5.64992">
        <ele>1270</ele>
        <time>2021-07-25T08:40:29Z</time>
      </trkpt>
      <trkpt lat="44.7003" lon="5.64998">
        <ele>1272</ele>
        <time>2021-07-25T08:40:30Z</time>
      </trkpt>
      <trkpt lat="44.70025" lon="5.65004">
        <ele>1272</ele>
        <time>2021-07-25T08:40:31Z</time>
      </trkpt>
      <trkpt lat="44.70019" lon="5.6501">
        <ele>1272</ele>
        <time>2021-07-25T08:40:32Z</time>
      </trkpt>
      <trkpt lat="44.70013" lon="5.65014">
        <ele>1272</ele>
        <time>2021-07-25T08:40:33Z</time>
      </trkpt>
      <trkpt lat="44.70007" lon="5.65017">
        <ele>1272</ele>
        <time>2021-07-25T08:40:34Z</time>
      </trkpt>
      <trkpt lat="44.69994" lon="5.65018">
        <ele>1272</ele>
        <time>2021-07-25T08:40:36Z</time>
      </trkpt>
      <trkpt lat="44.69981" lon="5.65016">
        <ele>1272</ele>
        <time>2021-07-25T08:40:38Z</time>
      </trkpt>
      <trkpt lat="44.69968" lon="5.65015">
        <ele>1275</ele>
        <time>2021-07-25T08:40:40Z</time>
      </trkpt>
      <trkpt lat="44.69956" lon="5.6502">
        <ele>1275</ele>
        <time>2021-07-25T08:40:42Z</time>
      </trkpt>
      <trkpt lat="44.69943" lon="5.65025">
        <ele>1275</ele>
        <time>2021-07-25T08:40:44Z</time>
      </trkpt>
      <trkpt lat="44.69931" lon="5.6503">
        <ele>1276</ele>
        <time>2021-07-25T08:40:46Z</time>
      </trkpt>
      <trkpt lat="44.69925" lon="5.65034">
        <ele>1276</ele>
        <time>2021-07-25T08:40:47Z</time>
      </trkpt>
      <trkpt lat="44.69919" lon="5.65038">
        <ele>1276</ele>
        <time>2021-07-25T08:40:48Z</time>
      </trkpt>
      <trkpt lat="44.69913" lon="5.65042">
        <ele>1276</ele>
        <time>2021-07-25T08:40:49Z</time>
      </trkpt>
      <trkpt lat="44.69907" lon="5.65046">
        <ele>1277</ele>
        <time>2021-07-25T08:40:50Z</time>
      </trkpt>
      <trkpt lat="44.69901" lon="5.6505">
        <ele>1277</ele>
        <time>2021-07-25T08:40:51Z</time>
      </trkpt>
      <trkpt lat="44.69895" lon="5.65053">
        <ele>1277</ele>
        <time>2021-07-25T08:40:52Z</time>
      </trkpt>
      <trkpt lat="44.69888" lon="5.65054">
        <ele>1277</ele>
        <time>2021-07-25T08:40:53Z</time>
      </trkpt>
      <trkpt lat="44.69875" lon="5.65057">
        <ele>1277</ele>
        <time>2021-07-25T08:40:55Z</time>
      </trkpt>
      <trkpt lat="44.69862" lon="5.6506">
        <ele>1277</ele>
        <time>2021-07-25T08:40:57Z</time>
      </trkpt>
      <trkpt lat="44.69849" lon="5.65064">
        <ele>1277</ele>
        <time>2021-07-25T08:40:59Z</time>
      </trkpt>
      <trkpt lat="44.69836" lon="5.65068">
        <ele>1278</ele>
        <time>2021-07-25T08:41:01Z</time>
      </trkpt>
      <trkpt lat="44.69822" lon="5.65072">
        <ele>1278</ele>
        <time>2021-07-25T08:41:03Z</time>
      </trkpt>
      <trkpt lat="44.69808" lon="5.65075">
        <ele>1278</ele>
        <time>2021-07-25T08:41:05Z</time>
      </trkpt>
      <trkpt lat="44.69794" lon="5.65078">
        <ele>1278</ele>
        <time>2021-07-25T08:41:07Z</time>
      </trkpt>
      <trkpt lat="44.6978" lon="5.65081">
        <ele>1278</ele>
        <time>2021-07-25T08:41:09Z</time>
      </trkpt>
      <trkpt lat="44.69766" lon="5.65083">
        <ele>1279</ele>
        <time>2021-07-25T08:41:11Z</time>
      </trkpt>
      <trkpt lat="44.69752" lon="5.65083">
        <ele>1279</ele>
        <time>2021-07-25T08:41:13Z</time>
      </trkpt>
      <trkpt lat="44.69738" lon="5.65083">
        <ele>1279</ele>
        <time>2021-07-25T08:41:15Z</time>
      </trkpt>
      <trkpt lat="44.69724" lon="5.65083">
        <ele>1279</ele>
        <time>2021-07-25T08:41:17Z</time>
      </trkpt>
      <trkpt lat="44.6971" lon="5.65083">
        <ele>1279</ele>
        <time>2021-07-25T08:41:19Z</time>
      </trkpt>
      <trkpt lat="44.69702" lon="5.65084">
        <ele>1281</ele>
        <time>2021-07-25T08:41:20Z</time>
      </trkpt>
      <trkpt lat="44.69695" lon="5.65085">
        <ele>1281</ele>
        <time>2021-07-25T08:41:21Z</time>
      </trkpt>
      <trkpt lat="44.69688" lon="5.65086">
        <ele>1281</ele>
        <time>2021-07-25T08:41:22Z</time>
      </trkpt>
      <trkpt lat="44.69675" lon="5.65094">
        <ele>1281</ele>
        <time>2021-07-25T08:41:24Z</time>
      </trkpt>
      <trkpt lat="44.69663" lon="5.65105">
        <ele>1281</ele>
        <time>2021-07-25T08:41:26Z</time>
      </trkpt>
      <trkpt lat="44.69658" lon="5.65112">
        <ele>1281</ele>
        <time>2021-07-25T08:41:27Z</time>
      </trkpt>
      <trkpt lat="44.69653" lon="5.65119">
        <ele>1281</ele>
        <time>2021-07-25T08:41:28Z</time>
      </trkpt>
      <trkpt lat="44.69647" lon="5.65126">
        <ele>1281</ele>
        <time>2021-07-25T08:41:29Z</time>
      </trkpt>
      <trkpt lat="44.69643" lon="5.65133">
        <ele>1282</ele>
        <time>2021-07-25T08:41:30Z</time>
      </trkpt>
      <trkpt lat="44.69638" lon="5.65141">
        <ele>1282</ele>
        <time>2021-07-25T08:41:31Z</time>
      </trkpt>
      <trkpt lat="44.69634" lon="5.65149">
        <ele>1282</ele>
        <time>2021-07-25T08:41:32Z</time>
      </trkpt>
      <trkpt lat="44.69629" lon="5.65158">
        <ele>1282</ele>
        <time>2021-07-25T08:41:33Z</time>
      </trkpt>
      <trkpt lat="44.69625" lon="5.65166">
        <ele>1282</ele>
        <time>2021-07-25T08:41:34Z</time>
      </trkpt>
      <trkpt lat="44.6962" lon="5.65174">
        <ele>1282</ele>
        <time>2021-07-25T08:41:35Z</time>
      </trkpt>
      <trkpt lat="44.69616" lon="5.65181">
        <ele>1282</ele>
        <time>2021-07-25T08:41:36Z</time>
      </trkpt>
      <trkpt lat="44.6961" lon="5.65188">
        <ele>1282</ele>
        <time>2021-07-25T08:41:37Z</time>
      </trkpt>
      <trkpt lat="44.69604" lon="5.65194">
        <ele>1282</ele>
        <time>2021-07-25T08:41:38Z</time>
      </trkpt>
      <trkpt lat="44.69599" lon="5.652">
        <ele>1282</ele>
        <time>2021-07-25T08:41:39Z</time>
      </trkpt>
      <trkpt lat="44.69592" lon="5.65205">
        <ele>1284</ele>
        <time>2021-07-25T08:41:40Z</time>
      </trkpt>
      <trkpt lat="44.69586" lon="5.6521">
        <ele>1284</ele>
        <time>2021-07-25T08:41:41Z</time>
      </trkpt>
      <trkpt lat="44.69579" lon="5.65214">
        <ele>1284</ele>
        <time>2021-07-25T08:41:42Z</time>
      </trkpt>
      <trkpt lat="44.69572" lon="5.65218">
        <ele>1284</ele>
        <time>2021-07-25T08:41:43Z</time>
      </trkpt>
      <trkpt lat="44.69565" lon="5.65221">
        <ele>1284</ele>
        <time>2021-07-25T08:41:44Z</time>
      </trkpt>
      <trkpt lat="44.6955" lon="5.65226">
        <ele>1284</ele>
        <time>2021-07-25T08:41:46Z</time>
      </trkpt>
      <trkpt lat="44.69535" lon="5.65232">
        <ele>1284</ele>
        <time>2021-07-25T08:41:48Z</time>
      </trkpt>
      <trkpt lat="44.6952" lon="5.65239">
        <ele>1286</ele>
        <time>2021-07-25T08:41:50Z</time>
      </trkpt>
      <trkpt lat="44.69505" lon="5.65245">
        <ele>1286</ele>
        <time>2021-07-25T08:41:52Z</time>
      </trkpt>
      <trkpt lat="44.69498" lon="5.65248">
        <ele>1286</ele>
        <time>2021-07-25T08:41:53Z</time>
      </trkpt>
      <trkpt lat="44.69491" lon="5.65252">
        <ele>1286</ele>
        <time>2021-07-25T08:41:54Z</time>
      </trkpt>
      <trkpt lat="44.69476" lon="5.65261">
        <ele>1286</ele>
        <time>2021-07-25T08:41:56Z</time>
      </trkpt>
      <trkpt lat="44.69462" lon="5.6527">
        <ele>1286</ele>
        <time>2021-07-25T08:41:58Z</time>
      </trkpt>
      <trkpt lat="44.69448" lon="5.65278">
        <ele>1286</ele>
        <time>2021-07-25T08:42:00Z</time>
      </trkpt>
      <trkpt lat="44.69433" lon="5.65286">
        <ele>1286</ele>
        <time>2021-07-25T08:42:02Z</time>
      </trkpt>
      <trkpt lat="44.69426" lon="5.6529">
        <ele>1286</ele>
        <time>2021-07-25T08:42:03Z</time>
      </trkpt>
      <trkpt lat="44.69419" lon="5.65294">
        <ele>1286</ele>
        <time>2021-07-25T08:42:04Z</time>
      </trkpt>
      <trkpt lat="44.69412" lon="5.65298">
        <ele>1286</ele>
        <time>2021-07-25T08:42:05Z</time>
      </trkpt>
      <trkpt lat="44.69404" lon="5.65302">
        <ele>1286</ele>
        <time>2021-07-25T08:42:06Z</time>
      </trkpt>
      <trkpt lat="44.69389" lon="5.65309">
        <ele>1286</ele>
        <time>2021-07-25T08:42:08Z</time>
      </trkpt>
      <trkpt lat="44.69375" lon="5.65316">
        <ele>1288</ele>
        <time>2021-07-25T08:42:10Z</time>
      </trkpt>
      <trkpt lat="44.6936" lon="5.65323">
        <ele>1288</ele>
        <time>2021-07-25T08:42:12Z</time>
      </trkpt>
      <trkpt lat="44.69346" lon="5.65329">
        <ele>1288</ele>
        <time>2021-07-25T08:42:14Z</time>
      </trkpt>
      <trkpt lat="44.69332" lon="5.65335">
        <ele>1288</ele>
        <time>2021-07-25T08:42:16Z</time>
      </trkpt>
      <trkpt lat="44.69317" lon="5.65341">
        <ele>1288</ele>
        <time>2021-07-25T08:42:18Z</time>
      </trkpt>
      <trkpt lat="44.69303" lon="5.65345">
        <ele>1290</ele>
        <time>2021-07-25T08:42:20Z</time>
      </trkpt>
      <trkpt lat="44.69289" lon="5.65349">
        <ele>1290</ele>
        <time>2021-07-25T08:42:22Z</time>
      </trkpt>
      <trkpt lat="44.69274" lon="5.65354">
        <ele>1290</ele>
        <time>2021-07-25T08:42:24Z</time>
      </trkpt>
      <trkpt lat="44.69267" lon="5.65357">
        <ele>1290</ele>
        <time>2021-07-25T08:42:25Z</time>
      </trkpt>
      <trkpt lat="44.69259" lon="5.65359">
        <ele>1290</ele>
        <time>2021-07-25T08:42:26Z</time>
      </trkpt>
      <trkpt lat="44.69251" lon="5.65361">
        <ele>1290</ele>
        <time>2021-07-25T08:42:27Z</time>
      </trkpt>
      <trkpt lat="44.69236" lon="5.65363">
        <ele>1290</ele>
        <time>2021-07-25T08:42:29Z</time>
      </trkpt>
      <trkpt lat="44.69221" lon="5.65365">
        <ele>1291</ele>
        <time>2021-07-25T08:42:31Z</time>
      </trkpt>
      <trkpt lat="44.69207" lon="5.65368">
        <ele>1291</ele>
        <time>2021-07-25T08:42:33Z</time>
      </trkpt>
      <trkpt lat="44.69193" lon="5.65372">
        <ele>1291</ele>
        <time>2021-07-25T08:42:35Z</time>
      </trkpt>
      <trkpt lat="44.69179" lon="5.65377">
        <ele>1291</ele>
        <time>2021-07-25T08:42:37Z</time>
      </trkpt>
      <trkpt lat="44.69166" lon="5.65382">
        <ele>1291</ele>
        <time>2021-07-25T08:42:39Z</time>
      </trkpt>
      <trkpt lat="44.69159" lon="5.65385">
        <ele>1293</ele>
        <time>2021-07-25T08:42:40Z</time>
      </trkpt>
      <trkpt lat="44.69149" lon="5.65393">
        <ele>1293</ele>
        <time>2021-07-25T08:42:42Z</time>
      </trkpt>
      <trkpt lat="44.69145" lon="5.65398">
        <ele>1293</ele>
        <time>2021-07-25T08:42:43Z</time>
      </trkpt>
      <trkpt lat="44.6914" lon="5.65404">
        <ele>1293</ele>
        <time>2021-07-25T08:42:44Z</time>
      </trkpt>
      <trkpt lat="44.69137" lon="5.6541">
        <ele>1293</ele>
        <time>2021-07-25T08:42:45Z</time>
      </trkpt>
      <trkpt lat="44.69133" lon="5.65416">
        <ele>1293</ele>
        <time>2021-07-25T08:42:46Z</time>
      </trkpt>
      <trkpt lat="44.69127" lon="5.65426">
        <ele>1293</ele>
        <time>2021-07-25T08:42:48Z</time>
      </trkpt>
      <trkpt lat="44.69122" lon="5.65437">
        <ele>1293</ele>
        <time>2021-07-25T08:42:50Z</time>
      </trkpt>
      <trkpt lat="44.6912" lon="5.65446">
        <ele>1293</ele>
        <time>2021-07-25T08:42:52Z</time>
      </trkpt>
      <trkpt lat="44.6912" lon="5.65446">
        <ele>1293</ele>
        <time>2021-07-25T08:42:53Z</time>
      </trkpt>
      <trkpt lat="44.69133" lon="5.65417">
        <ele>1304</ele>
        <time>2021-07-25T08:50:30Z</time>
      </trkpt>
      <trkpt lat="44.69128" lon="5.6543">
        <ele>1304</ele>
        <time>2021-07-25T08:50:31Z</time>
      </trkpt>
      <trkpt lat="44.69123" lon="5.65447">
        <ele>1305</ele>
        <time>2021-07-25T08:50:33Z</time>
      </trkpt>
      <trkpt lat="44.69121" lon="5.65467">
        <ele>1305</ele>
        <time>2021-07-25T08:50:35Z</time>
      </trkpt>
      <trkpt lat="44.6912" lon="5.65489">
        <ele>1305</ele>
        <time>2021-07-25T08:50:37Z</time>
      </trkpt>
      <trkpt lat="44.69117" lon="5.65513">
        <ele>1305</ele>
        <time>2021-07-25T08:50:39Z</time>
      </trkpt>
      <trkpt lat="44.69113" lon="5.65525">
        <ele>1303</ele>
        <time>2021-07-25T08:50:40Z</time>
      </trkpt>
      <trkpt lat="44.69109" lon="5.65538">
        <ele>1303</ele>
        <time>2021-07-25T08:50:41Z</time>
      </trkpt>
      <trkpt lat="44.69104" lon="5.65549">
        <ele>1303</ele>
        <time>2021-07-25T08:50:42Z</time>
      </trkpt>
      <trkpt lat="44.69098" lon="5.65562">
        <ele>1303</ele>
        <time>2021-07-25T08:50:43Z</time>
      </trkpt>
      <trkpt lat="44.69093" lon="5.65574">
        <ele>1303</ele>
        <time>2021-07-25T08:50:44Z</time>
      </trkpt>
      <trkpt lat="44.69088" lon="5.65587">
        <ele>1303</ele>
        <time>2021-07-25T08:50:45Z</time>
      </trkpt>
      <trkpt lat="44.69083" lon="5.656">
        <ele>1303</ele>
        <time>2021-07-25T08:50:46Z</time>
      </trkpt>
      <trkpt lat="44.69078" lon="5.65614">
        <ele>1303</ele>
        <time>2021-07-25T08:50:47Z</time>
      </trkpt>
      <trkpt lat="44.69072" lon="5.65627">
        <ele>1303</ele>
        <time>2021-07-25T08:50:48Z</time>
      </trkpt>
      <trkpt lat="44.69066" lon="5.65639">
        <ele>1303</ele>
        <time>2021-07-25T08:50:49Z</time>
      </trkpt>
      <trkpt lat="44.69059" lon="5.65651">
        <ele>1295</ele>
        <time>2021-07-25T08:50:50Z</time>
      </trkpt>
      <trkpt lat="44.69052" lon="5.65662">
        <ele>1291</ele>
        <time>2021-07-25T08:50:51Z</time>
      </trkpt>
      <trkpt lat="44.69044" lon="5.65674">
        <ele>1290</ele>
        <time>2021-07-25T08:50:52Z</time>
      </trkpt>
      <trkpt lat="44.69036" lon="5.65685">
        <ele>1290</ele>
        <time>2021-07-25T08:50:53Z</time>
      </trkpt>
      <trkpt lat="44.69027" lon="5.65697">
        <ele>1291</ele>
        <time>2021-07-25T08:50:54Z</time>
      </trkpt>
      <trkpt lat="44.69019" lon="5.65708">
        <ele>1291</ele>
        <time>2021-07-25T08:50:55Z</time>
      </trkpt>
      <trkpt lat="44.6901" lon="5.65719">
        <ele>1291</ele>
        <time>2021-07-25T08:50:56Z</time>
      </trkpt>
      <trkpt lat="44.69002" lon="5.65731">
        <ele>1291</ele>
        <time>2021-07-25T08:50:57Z</time>
      </trkpt>
      <trkpt lat="44.68994" lon="5.65743">
        <ele>1291</ele>
        <time>2021-07-25T08:50:58Z</time>
      </trkpt>
      <trkpt lat="44.68986" lon="5.65756">
        <ele>1289</ele>
        <time>2021-07-25T08:50:59Z</time>
      </trkpt>
      <trkpt lat="44.68977" lon="5.65769">
        <ele>1289</ele>
        <time>2021-07-25T08:51:00Z</time>
      </trkpt>
      <trkpt lat="44.68969" lon="5.65783">
        <ele>1288</ele>
        <time>2021-07-25T08:51:01Z</time>
      </trkpt>
      <trkpt lat="44.68962" lon="5.65797">
        <ele>1287</ele>
        <time>2021-07-25T08:51:02Z</time>
      </trkpt>
      <trkpt lat="44.68954" lon="5.65812">
        <ele>1287</ele>
        <time>2021-07-25T08:51:03Z</time>
      </trkpt>
      <trkpt lat="44.68948" lon="5.65827">
        <ele>1286</ele>
        <time>2021-07-25T08:51:04Z</time>
      </trkpt>
      <trkpt lat="44.68941" lon="5.65842">
        <ele>1285</ele>
        <time>2021-07-25T08:51:05Z</time>
      </trkpt>
      <trkpt lat="44.68935" lon="5.65858">
        <ele>1284</ele>
        <time>2021-07-25T08:51:06Z</time>
      </trkpt>
      <trkpt lat="44.68928" lon="5.65874">
        <ele>1284</ele>
        <time>2021-07-25T08:51:07Z</time>
      </trkpt>
      <trkpt lat="44.68922" lon="5.6589">
        <ele>1283</ele>
        <time>2021-07-25T08:51:08Z</time>
      </trkpt>
      <trkpt lat="44.68915" lon="5.65905">
        <ele>1283</ele>
        <time>2021-07-25T08:51:09Z</time>
      </trkpt>
      <trkpt lat="44.68907" lon="5.6592">
        <ele>1282</ele>
        <time>2021-07-25T08:51:10Z</time>
      </trkpt>
      <trkpt lat="44.68899" lon="5.65935">
        <ele>1281</ele>
        <time>2021-07-25T08:51:11Z</time>
      </trkpt>
      <trkpt lat="44.68891" lon="5.65949">
        <ele>1280</ele>
        <time>2021-07-25T08:51:12Z</time>
      </trkpt>
      <trkpt lat="44.68883" lon="5.65964">
        <ele>1279</ele>
        <time>2021-07-25T08:51:13Z</time>
      </trkpt>
      <trkpt lat="44.68876" lon="5.6598">
        <ele>1278</ele>
        <time>2021-07-25T08:51:14Z</time>
      </trkpt>
      <trkpt lat="44.6887" lon="5.65997">
        <ele>1278</ele>
        <time>2021-07-25T08:51:15Z</time>
      </trkpt>
      <trkpt lat="44.68864" lon="5.66014">
        <ele>1277</ele>
        <time>2021-07-25T08:51:16Z</time>
      </trkpt>
      <trkpt lat="44.68859" lon="5.66031">
        <ele>1277</ele>
        <time>2021-07-25T08:51:17Z</time>
      </trkpt>
      <trkpt lat="44.68854" lon="5.66048">
        <ele>1276</ele>
        <time>2021-07-25T08:51:18Z</time>
      </trkpt>
      <trkpt lat="44.68849" lon="5.66066">
        <ele>1275</ele>
        <time>2021-07-25T08:51:19Z</time>
      </trkpt>
      <trkpt lat="44.68844" lon="5.66083">
        <ele>1275</ele>
        <time>2021-07-25T08:51:20Z</time>
      </trkpt>
      <trkpt lat="44.6884" lon="5.66101">
        <ele>1273</ele>
        <time>2021-07-25T08:51:21Z</time>
      </trkpt>
      <trkpt lat="44.68836" lon="5.66118">
        <ele>1271</ele>
        <time>2021-07-25T08:51:22Z</time>
      </trkpt>
      <trkpt lat="44.68832" lon="5.66136">
        <ele>1271</ele>
        <time>2021-07-25T08:51:23Z</time>
      </trkpt>
      <trkpt lat="44.68829" lon="5.66154">
        <ele>1270</ele>
        <time>2021-07-25T08:51:24Z</time>
      </trkpt>
      <trkpt lat="44.68825" lon="5.66172">
        <ele>1269</ele>
        <time>2021-07-25T08:51:25Z</time>
      </trkpt>
      <trkpt lat="44.68823" lon="5.6619">
        <ele>1270</ele>
        <time>2021-07-25T08:51:26Z</time>
      </trkpt>
      <trkpt lat="44.68822" lon="5.66208">
        <ele>1270</ele>
        <time>2021-07-25T08:51:27Z</time>
      </trkpt>
      <trkpt lat="44.68823" lon="5.66227">
        <ele>1268</ele>
        <time>2021-07-25T08:51:28Z</time>
      </trkpt>
      <trkpt lat="44.68825" lon="5.66245">
        <ele>1266</ele>
        <time>2021-07-25T08:51:29Z</time>
      </trkpt>
      <trkpt lat="44.68828" lon="5.66264">
        <ele>1265</ele>
        <time>2021-07-25T08:51:30Z</time>
      </trkpt>
      <trkpt lat="44.68832" lon="5.66282">
        <ele>1264</ele>
        <time>2021-07-25T08:51:31Z</time>
      </trkpt>
      <trkpt lat="44.68836" lon="5.66299">
        <ele>1264</ele>
        <time>2021-07-25T08:51:32Z</time>
      </trkpt>
      <trkpt lat="44.68841" lon="5.66315">
        <ele>1263</ele>
        <time>2021-07-25T08:51:33Z</time>
      </trkpt>
      <trkpt lat="44.68846" lon="5.66329">
        <ele>1262</ele>
        <time>2021-07-25T08:51:34Z</time>
      </trkpt>
      <trkpt lat="44.68854" lon="5.66341">
        <ele>1261</ele>
        <time>2021-07-25T08:51:35Z</time>
      </trkpt>
      <trkpt lat="44.68864" lon="5.6635">
        <ele>1260</ele>
        <time>2021-07-25T08:51:36Z</time>
      </trkpt>
      <trkpt lat="44.68875" lon="5.66358">
        <ele>1260</ele>
        <time>2021-07-25T08:51:37Z</time>
      </trkpt>
      <trkpt lat="44.68885" lon="5.66367">
        <ele>1260</ele>
        <time>2021-07-25T08:51:38Z</time>
      </trkpt>
      <trkpt lat="44.68894" lon="5.66379">
        <ele>1259</ele>
        <time>2021-07-25T08:51:39Z</time>
      </trkpt>
      <trkpt lat="44.68901" lon="5.66394">
        <ele>1258</ele>
        <time>2021-07-25T08:51:40Z</time>
      </trkpt>
      <trkpt lat="44.68906" lon="5.66409">
        <ele>1258</ele>
        <time>2021-07-25T08:51:41Z</time>
      </trkpt>
      <trkpt lat="44.68911" lon="5.66425">
        <ele>1257</ele>
        <time>2021-07-25T08:51:42Z</time>
      </trkpt>
      <trkpt lat="44.68914" lon="5.66442">
        <ele>1257</ele>
        <time>2021-07-25T08:51:43Z</time>
      </trkpt>
      <trkpt lat="44.68915" lon="5.66459">
        <ele>1256</ele>
        <time>2021-07-25T08:51:44Z</time>
      </trkpt>
      <trkpt lat="44.68915" lon="5.66477">
        <ele>1256</ele>
        <time>2021-07-25T08:51:45Z</time>
      </trkpt>
      <trkpt lat="44.68913" lon="5.66494">
        <ele>1255</ele>
        <time>2021-07-25T08:51:46Z</time>
      </trkpt>
      <trkpt lat="44.68909" lon="5.66511">
        <ele>1255</ele>
        <time>2021-07-25T08:51:47Z</time>
      </trkpt>
      <trkpt lat="44.68904" lon="5.66527">
        <ele>1256</ele>
        <time>2021-07-25T08:51:48Z</time>
      </trkpt>
      <trkpt lat="44.68899" lon="5.66542">
        <ele>1254</ele>
        <time>2021-07-25T08:51:49Z</time>
      </trkpt>
      <trkpt lat="44.68894" lon="5.66558">
        <ele>1252</ele>
        <time>2021-07-25T08:51:50Z</time>
      </trkpt>
      <trkpt lat="44.68889" lon="5.66574">
        <ele>1250</ele>
        <time>2021-07-25T08:51:51Z</time>
      </trkpt>
      <trkpt lat="44.68884" lon="5.66589">
        <ele>1249</ele>
        <time>2021-07-25T08:51:52Z</time>
      </trkpt>
      <trkpt lat="44.68879" lon="5.66605">
        <ele>1248</ele>
        <time>2021-07-25T08:51:53Z</time>
      </trkpt>
      <trkpt lat="44.68873" lon="5.66621">
        <ele>1248</ele>
        <time>2021-07-25T08:51:54Z</time>
      </trkpt>
      <trkpt lat="44.68868" lon="5.66636">
        <ele>1247</ele>
        <time>2021-07-25T08:51:55Z</time>
      </trkpt>
      <trkpt lat="44.68862" lon="5.66651">
        <ele>1247</ele>
        <time>2021-07-25T08:51:56Z</time>
      </trkpt>
      <trkpt lat="44.68855" lon="5.66666">
        <ele>1246</ele>
        <time>2021-07-25T08:51:57Z</time>
      </trkpt>
      <trkpt lat="44.68848" lon="5.6668">
        <ele>1246</ele>
        <time>2021-07-25T08:51:58Z</time>
      </trkpt>
      <trkpt lat="44.68841" lon="5.66695">
        <ele>1245</ele>
        <time>2021-07-25T08:51:59Z</time>
      </trkpt>
      <trkpt lat="44.68836" lon="5.6671">
        <ele>1242</ele>
        <time>2021-07-25T08:52:00Z</time>
      </trkpt>
      <trkpt lat="44.68832" lon="5.66724">
        <ele>1243</ele>
        <time>2021-07-25T08:52:01Z</time>
      </trkpt>
      <trkpt lat="44.68833" lon="5.6675">
        <ele>1240</ele>
        <time>2021-07-25T08:52:03Z</time>
      </trkpt>
      <trkpt lat="44.68837" lon="5.66762">
        <ele>1239</ele>
        <time>2021-07-25T08:52:04Z</time>
      </trkpt>
      <trkpt lat="44.68853" lon="5.66774">
        <ele>1238</ele>
        <time>2021-07-25T08:52:06Z</time>
      </trkpt>
      <trkpt lat="44.68863" lon="5.66773">
        <ele>1238</ele>
        <time>2021-07-25T08:52:07Z</time>
      </trkpt>
      <trkpt lat="44.68874" lon="5.66771">
        <ele>1238</ele>
        <time>2021-07-25T08:52:08Z</time>
      </trkpt>
      <trkpt lat="44.68885" lon="5.66769">
        <ele>1238</ele>
        <time>2021-07-25T08:52:09Z</time>
      </trkpt>
      <trkpt lat="44.68896" lon="5.66767">
        <ele>1238</ele>
        <time>2021-07-25T08:52:10Z</time>
      </trkpt>
      <trkpt lat="44.68907" lon="5.66767">
        <ele>1238</ele>
        <time>2021-07-25T08:52:11Z</time>
      </trkpt>
      <trkpt lat="44.68919" lon="5.66769">
        <ele>1238</ele>
        <time>2021-07-25T08:52:12Z</time>
      </trkpt>
      <trkpt lat="44.6893" lon="5.66774">
        <ele>1238</ele>
        <time>2021-07-25T08:52:13Z</time>
      </trkpt>
      <trkpt lat="44.6894" lon="5.66783">
        <ele>1238</ele>
        <time>2021-07-25T08:52:14Z</time>
      </trkpt>
      <trkpt lat="44.68948" lon="5.66793">
        <ele>1235</ele>
        <time>2021-07-25T08:52:15Z</time>
      </trkpt>
      <trkpt lat="44.68954" lon="5.66807">
        <ele>1235</ele>
        <time>2021-07-25T08:52:16Z</time>
      </trkpt>
      <trkpt lat="44.68958" lon="5.66822">
        <ele>1235</ele>
        <time>2021-07-25T08:52:17Z</time>
      </trkpt>
      <trkpt lat="44.68957" lon="5.66839">
        <ele>1235</ele>
        <time>2021-07-25T08:52:18Z</time>
      </trkpt>
      <trkpt lat="44.68954" lon="5.66856">
        <ele>1235</ele>
        <time>2021-07-25T08:52:19Z</time>
      </trkpt>
      <trkpt lat="44.6895" lon="5.66872">
        <ele>1232</ele>
        <time>2021-07-25T08:52:20Z</time>
      </trkpt>
      <trkpt lat="44.68945" lon="5.66888">
        <ele>1230</ele>
        <time>2021-07-25T08:52:21Z</time>
      </trkpt>
      <trkpt lat="44.68942" lon="5.66903">
        <ele>1229</ele>
        <time>2021-07-25T08:52:22Z</time>
      </trkpt>
      <trkpt lat="44.68937" lon="5.66918">
        <ele>1228</ele>
        <time>2021-07-25T08:52:23Z</time>
      </trkpt>
      <trkpt lat="44.68933" lon="5.66933">
        <ele>1227</ele>
        <time>2021-07-25T08:52:24Z</time>
      </trkpt>
      <trkpt lat="44.68928" lon="5.66948">
        <ele>1227</ele>
        <time>2021-07-25T08:52:25Z</time>
      </trkpt>
      <trkpt lat="44.68923" lon="5.66963">
        <ele>1226</ele>
        <time>2021-07-25T08:52:26Z</time>
      </trkpt>
      <trkpt lat="44.68918" lon="5.66977">
        <ele>1225</ele>
        <time>2021-07-25T08:52:27Z</time>
      </trkpt>
      <trkpt lat="44.68913" lon="5.66992">
        <ele>1225</ele>
        <time>2021-07-25T08:52:28Z</time>
      </trkpt>
      <trkpt lat="44.68908" lon="5.67007">
        <ele>1224</ele>
        <time>2021-07-25T08:52:29Z</time>
      </trkpt>
      <trkpt lat="44.68903" lon="5.67022">
        <ele>1224</ele>
        <time>2021-07-25T08:52:30Z</time>
      </trkpt>
      <trkpt lat="44.68899" lon="5.67038">
        <ele>1223</ele>
        <time>2021-07-25T08:52:31Z</time>
      </trkpt>
      <trkpt lat="44.68895" lon="5.67054">
        <ele>1221</ele>
        <time>2021-07-25T08:52:32Z</time>
      </trkpt>
      <trkpt lat="44.68892" lon="5.6707">
        <ele>1220</ele>
        <time>2021-07-25T08:52:33Z</time>
      </trkpt>
      <trkpt lat="44.68888" lon="5.67084">
        <ele>1220</ele>
        <time>2021-07-25T08:52:34Z</time>
      </trkpt>
      <trkpt lat="44.68885" lon="5.67099">
        <ele>1220</ele>
        <time>2021-07-25T08:52:35Z</time>
      </trkpt>
      <trkpt lat="44.68882" lon="5.67124">
        <ele>1217</ele>
        <time>2021-07-25T08:52:37Z</time>
      </trkpt>
      <trkpt lat="44.68889" lon="5.67147">
        <ele>1215</ele>
        <time>2021-07-25T08:52:39Z</time>
      </trkpt>
      <trkpt lat="44.68907" lon="5.67157">
        <ele>1214</ele>
        <time>2021-07-25T08:52:41Z</time>
      </trkpt>
      <trkpt lat="44.68918" lon="5.67156">
        <ele>1213</ele>
        <time>2021-07-25T08:52:42Z</time>
      </trkpt>
      <trkpt lat="44.68929" lon="5.67153">
        <ele>1213</ele>
        <time>2021-07-25T08:52:43Z</time>
      </trkpt>
      <trkpt lat="44.6894" lon="5.6715">
        <ele>1213</ele>
        <time>2021-07-25T08:52:44Z</time>
      </trkpt>
      <trkpt lat="44.68952" lon="5.67146">
        <ele>1212</ele>
        <time>2021-07-25T08:52:45Z</time>
      </trkpt>
      <trkpt lat="44.68964" lon="5.67142">
        <ele>1212</ele>
        <time>2021-07-25T08:52:46Z</time>
      </trkpt>
      <trkpt lat="44.68975" lon="5.6714">
        <ele>1211</ele>
        <time>2021-07-25T08:52:47Z</time>
      </trkpt>
      <trkpt lat="44.68987" lon="5.67138">
        <ele>1211</ele>
        <time>2021-07-25T08:52:48Z</time>
      </trkpt>
      <trkpt lat="44.68999" lon="5.67135">
        <ele>1210</ele>
        <time>2021-07-25T08:52:49Z</time>
      </trkpt>
      <trkpt lat="44.6901" lon="5.67132">
        <ele>1209</ele>
        <time>2021-07-25T08:52:50Z</time>
      </trkpt>
      <trkpt lat="44.69022" lon="5.67129">
        <ele>1208</ele>
        <time>2021-07-25T08:52:51Z</time>
      </trkpt>
      <trkpt lat="44.69034" lon="5.67126">
        <ele>1207</ele>
        <time>2021-07-25T08:52:52Z</time>
      </trkpt>
      <trkpt lat="44.69046" lon="5.67123">
        <ele>1207</ele>
        <time>2021-07-25T08:52:53Z</time>
      </trkpt>
      <trkpt lat="44.69057" lon="5.67121">
        <ele>1205</ele>
        <time>2021-07-25T08:52:54Z</time>
      </trkpt>
      <trkpt lat="44.69069" lon="5.67119">
        <ele>1204</ele>
        <time>2021-07-25T08:52:55Z</time>
      </trkpt>
      <trkpt lat="44.69082" lon="5.67117">
        <ele>1204</ele>
        <time>2021-07-25T08:52:56Z</time>
      </trkpt>
      <trkpt lat="44.69094" lon="5.67115">
        <ele>1204</ele>
        <time>2021-07-25T08:52:57Z</time>
      </trkpt>
      <trkpt lat="44.69106" lon="5.67113">
        <ele>1204</ele>
        <time>2021-07-25T08:52:58Z</time>
      </trkpt>
      <trkpt lat="44.69119" lon="5.6711">
        <ele>1203</ele>
        <time>2021-07-25T08:52:59Z</time>
      </trkpt>
      <trkpt lat="44.69131" lon="5.67108">
        <ele>1202</ele>
        <time>2021-07-25T08:53:00Z</time>
      </trkpt>
      <trkpt lat="44.69143" lon="5.67107">
        <ele>1202</ele>
        <time>2021-07-25T08:53:01Z</time>
      </trkpt>
      <trkpt lat="44.69156" lon="5.67108">
        <ele>1201</ele>
        <time>2021-07-25T08:53:02Z</time>
      </trkpt>
      <trkpt lat="44.69169" lon="5.6711">
        <ele>1199</ele>
        <time>2021-07-25T08:53:03Z</time>
      </trkpt>
      <trkpt lat="44.69181" lon="5.67113">
        <ele>1198</ele>
        <time>2021-07-25T08:53:04Z</time>
      </trkpt>
      <trkpt lat="44.69193" lon="5.67116">
        <ele>1198</ele>
        <time>2021-07-25T08:53:05Z</time>
      </trkpt>
      <trkpt lat="44.69205" lon="5.67116">
        <ele>1198</ele>
        <time>2021-07-25T08:53:06Z</time>
      </trkpt>
      <trkpt lat="44.69215" lon="5.67117">
        <ele>1196</ele>
        <time>2021-07-25T08:53:07Z</time>
      </trkpt>
      <trkpt lat="44.69233" lon="5.67123">
        <ele>1194</ele>
        <time>2021-07-25T08:53:09Z</time>
      </trkpt>
      <trkpt lat="44.69241" lon="5.67143">
        <ele>1193</ele>
        <time>2021-07-25T08:53:11Z</time>
      </trkpt>
      <trkpt lat="44.69235" lon="5.67169">
        <ele>1193</ele>
        <time>2021-07-25T08:53:13Z</time>
      </trkpt>
      <trkpt lat="44.69229" lon="5.6718">
        <ele>1193</ele>
        <time>2021-07-25T08:53:14Z</time>
      </trkpt>
      <trkpt lat="44.69223" lon="5.67191">
        <ele>1192</ele>
        <time>2021-07-25T08:53:15Z</time>
      </trkpt>
      <trkpt lat="44.69217" lon="5.67203">
        <ele>1191</ele>
        <time>2021-07-25T08:53:16Z</time>
      </trkpt>
      <trkpt lat="44.69212" lon="5.67216">
        <ele>1190</ele>
        <time>2021-07-25T08:53:17Z</time>
      </trkpt>
      <trkpt lat="44.69207" lon="5.6723">
        <ele>1189</ele>
        <time>2021-07-25T08:53:18Z</time>
      </trkpt>
      <trkpt lat="44.69202" lon="5.67243">
        <ele>1189</ele>
        <time>2021-07-25T08:53:19Z</time>
      </trkpt>
      <trkpt lat="44.69196" lon="5.67256">
        <ele>1189</ele>
        <time>2021-07-25T08:53:20Z</time>
      </trkpt>
      <trkpt lat="44.6919" lon="5.6727">
        <ele>1188</ele>
        <time>2021-07-25T08:53:21Z</time>
      </trkpt>
      <trkpt lat="44.69183" lon="5.67284">
        <ele>1187</ele>
        <time>2021-07-25T08:53:22Z</time>
      </trkpt>
      <trkpt lat="44.69177" lon="5.67298">
        <ele>1186</ele>
        <time>2021-07-25T08:53:23Z</time>
      </trkpt>
      <trkpt lat="44.69171" lon="5.67313">
        <ele>1185</ele>
        <time>2021-07-25T08:53:24Z</time>
      </trkpt>
      <trkpt lat="44.69164" lon="5.67328">
        <ele>1184</ele>
        <time>2021-07-25T08:53:25Z</time>
      </trkpt>
      <trkpt lat="44.69158" lon="5.67343">
        <ele>1184</ele>
        <time>2021-07-25T08:53:26Z</time>
      </trkpt>
      <trkpt lat="44.69152" lon="5.67357">
        <ele>1184</ele>
        <time>2021-07-25T08:53:27Z</time>
      </trkpt>
      <trkpt lat="44.69145" lon="5.67372">
        <ele>1182</ele>
        <time>2021-07-25T08:53:28Z</time>
      </trkpt>
      <trkpt lat="44.69139" lon="5.67386">
        <ele>1182</ele>
        <time>2021-07-25T08:53:29Z</time>
      </trkpt>
      <trkpt lat="44.69132" lon="5.67401">
        <ele>1182</ele>
        <time>2021-07-25T08:53:30Z</time>
      </trkpt>
      <trkpt lat="44.69126" lon="5.67416">
        <ele>1180</ele>
        <time>2021-07-25T08:53:31Z</time>
      </trkpt>
      <trkpt lat="44.6912" lon="5.67431">
        <ele>1179</ele>
        <time>2021-07-25T08:53:32Z</time>
      </trkpt>
      <trkpt lat="44.69115" lon="5.67446">
        <ele>1179</ele>
        <time>2021-07-25T08:53:33Z</time>
      </trkpt>
      <trkpt lat="44.69109" lon="5.67462">
        <ele>1178</ele>
        <time>2021-07-25T08:53:34Z</time>
      </trkpt>
      <trkpt lat="44.69104" lon="5.67477">
        <ele>1176</ele>
        <time>2021-07-25T08:53:35Z</time>
      </trkpt>
      <trkpt lat="44.69098" lon="5.67493">
        <ele>1176</ele>
        <time>2021-07-25T08:53:36Z</time>
      </trkpt>
      <trkpt lat="44.69091" lon="5.67507">
        <ele>1176</ele>
        <time>2021-07-25T08:53:37Z</time>
      </trkpt>
      <trkpt lat="44.69084" lon="5.67521">
        <ele>1175</ele>
        <time>2021-07-25T08:53:38Z</time>
      </trkpt>
      <trkpt lat="44.69076" lon="5.67534">
        <ele>1175</ele>
        <time>2021-07-25T08:53:39Z</time>
      </trkpt>
      <trkpt lat="44.69067" lon="5.67546">
        <ele>1172</ele>
        <time>2021-07-25T08:53:40Z</time>
      </trkpt>
      <trkpt lat="44.69057" lon="5.67558">
        <ele>1168</ele>
        <time>2021-07-25T08:53:41Z</time>
      </trkpt>
      <trkpt lat="44.69048" lon="5.67569">
        <ele>1170</ele>
        <time>2021-07-25T08:53:42Z</time>
      </trkpt>
      <trkpt lat="44.69039" lon="5.67582">
        <ele>1171</ele>
        <time>2021-07-25T08:53:43Z</time>
      </trkpt>
      <trkpt lat="44.69031" lon="5.67595">
        <ele>1166</ele>
        <time>2021-07-25T08:53:44Z</time>
      </trkpt>
      <trkpt lat="44.69022" lon="5.67608">
        <ele>1166</ele>
        <time>2021-07-25T08:53:45Z</time>
      </trkpt>
      <trkpt lat="44.69013" lon="5.67619">
        <ele>1167</ele>
        <time>2021-07-25T08:53:46Z</time>
      </trkpt>
      <trkpt lat="44.69002" lon="5.6763">
        <ele>1167</ele>
        <time>2021-07-25T08:53:47Z</time>
      </trkpt>
      <trkpt lat="44.68992" lon="5.6764">
        <ele>1167</ele>
        <time>2021-07-25T08:53:48Z</time>
      </trkpt>
      <trkpt lat="44.68983" lon="5.67651">
        <ele>1166</ele>
        <time>2021-07-25T08:53:49Z</time>
      </trkpt>
      <trkpt lat="44.68972" lon="5.67661">
        <ele>1167</ele>
        <time>2021-07-25T08:53:50Z</time>
      </trkpt>
      <trkpt lat="44.68961" lon="5.6767">
        <ele>1167</ele>
        <time>2021-07-25T08:53:51Z</time>
      </trkpt>
      <trkpt lat="44.6895" lon="5.67677">
        <ele>1167</ele>
        <time>2021-07-25T08:53:52Z</time>
      </trkpt>
      <trkpt lat="44.68938" lon="5.67683">
        <ele>1167</ele>
        <time>2021-07-25T08:53:53Z</time>
      </trkpt>
      <trkpt lat="44.68927" lon="5.67689">
        <ele>1167</ele>
        <time>2021-07-25T08:53:54Z</time>
      </trkpt>
      <trkpt lat="44.68916" lon="5.67696">
        <ele>1164</ele>
        <time>2021-07-25T08:53:55Z</time>
      </trkpt>
      <trkpt lat="44.68906" lon="5.67706">
        <ele>1164</ele>
        <time>2021-07-25T08:53:56Z</time>
      </trkpt>
      <trkpt lat="44.68899" lon="5.6772">
        <ele>1164</ele>
        <time>2021-07-25T08:53:57Z</time>
      </trkpt>
      <trkpt lat="44.68893" lon="5.67735">
        <ele>1164</ele>
        <time>2021-07-25T08:53:58Z</time>
      </trkpt>
      <trkpt lat="44.68888" lon="5.67751">
        <ele>1164</ele>
        <time>2021-07-25T08:53:59Z</time>
      </trkpt>
      <trkpt lat="44.68884" lon="5.67767">
        <ele>1157</ele>
        <time>2021-07-25T08:54:00Z</time>
      </trkpt>
      <trkpt lat="44.68882" lon="5.67784">
        <ele>1157</ele>
        <time>2021-07-25T08:54:01Z</time>
      </trkpt>
      <trkpt lat="44.6888" lon="5.67801">
        <ele>1156</ele>
        <time>2021-07-25T08:54:02Z</time>
      </trkpt>
      <trkpt lat="44.68878" lon="5.67819">
        <ele>1157</ele>
        <time>2021-07-25T08:54:03Z</time>
      </trkpt>
      <trkpt lat="44.68876" lon="5.67836">
        <ele>1157</ele>
        <time>2021-07-25T08:54:04Z</time>
      </trkpt>
      <trkpt lat="44.68873" lon="5.67853">
        <ele>1155</ele>
        <time>2021-07-25T08:54:05Z</time>
      </trkpt>
      <trkpt lat="44.68869" lon="5.6787">
        <ele>1153</ele>
        <time>2021-07-25T08:54:06Z</time>
      </trkpt>
      <trkpt lat="44.68865" lon="5.67886">
        <ele>1153</ele>
        <time>2021-07-25T08:54:07Z</time>
      </trkpt>
      <trkpt lat="44.68861" lon="5.67902">
        <ele>1152</ele>
        <time>2021-07-25T08:54:08Z</time>
      </trkpt>
      <trkpt lat="44.68855" lon="5.67918">
        <ele>1151</ele>
        <time>2021-07-25T08:54:09Z</time>
      </trkpt>
      <trkpt lat="44.6885" lon="5.67935">
        <ele>1150</ele>
        <time>2021-07-25T08:54:10Z</time>
      </trkpt>
      <trkpt lat="44.68843" lon="5.6795">
        <ele>1150</ele>
        <time>2021-07-25T08:54:11Z</time>
      </trkpt>
      <trkpt lat="44.68836" lon="5.67965">
        <ele>1149</ele>
        <time>2021-07-25T08:54:12Z</time>
      </trkpt>
      <trkpt lat="44.68828" lon="5.67979">
        <ele>1148</ele>
        <time>2021-07-25T08:54:13Z</time>
      </trkpt>
      <trkpt lat="44.68819" lon="5.67992">
        <ele>1148</ele>
        <time>2021-07-25T08:54:14Z</time>
      </trkpt>
      <trkpt lat="44.6881" lon="5.68004">
        <ele>1148</ele>
        <time>2021-07-25T08:54:15Z</time>
      </trkpt>
      <trkpt lat="44.68802" lon="5.68017">
        <ele>1145</ele>
        <time>2021-07-25T08:54:16Z</time>
      </trkpt>
      <trkpt lat="44.68796" lon="5.68029">
        <ele>1144</ele>
        <time>2021-07-25T08:54:17Z</time>
      </trkpt>
      <trkpt lat="44.68791" lon="5.6804">
        <ele>1144</ele>
        <time>2021-07-25T08:54:18Z</time>
      </trkpt>
      <trkpt lat="44.68788" lon="5.68052">
        <ele>1143</ele>
        <time>2021-07-25T08:54:19Z</time>
      </trkpt>
      <trkpt lat="44.68793" lon="5.68072">
        <ele>1141</ele>
        <time>2021-07-25T08:54:21Z</time>
      </trkpt>
      <trkpt lat="44.68809" lon="5.68073">
        <ele>1139</ele>
        <time>2021-07-25T08:54:23Z</time>
      </trkpt>
      <trkpt lat="44.68828" lon="5.68066">
        <ele>1140</ele>
        <time>2021-07-25T08:54:25Z</time>
      </trkpt>
      <trkpt lat="44.68839" lon="5.68064">
        <ele>1139</ele>
        <time>2021-07-25T08:54:26Z</time>
      </trkpt>
      <trkpt lat="44.68849" lon="5.68062">
        <ele>1139</ele>
        <time>2021-07-25T08:54:27Z</time>
      </trkpt>
      <trkpt lat="44.6886" lon="5.68062">
        <ele>1138</ele>
        <time>2021-07-25T08:54:28Z</time>
      </trkpt>
      <trkpt lat="44.68871" lon="5.68063">
        <ele>1137</ele>
        <time>2021-07-25T08:54:29Z</time>
      </trkpt>
      <trkpt lat="44.68882" lon="5.68066">
        <ele>1137</ele>
        <time>2021-07-25T08:54:30Z</time>
      </trkpt>
      <trkpt lat="44.68892" lon="5.68069">
        <ele>1136</ele>
        <time>2021-07-25T08:54:31Z</time>
      </trkpt>
      <trkpt lat="44.68903" lon="5.68073">
        <ele>1135</ele>
        <time>2021-07-25T08:54:32Z</time>
      </trkpt>
      <trkpt lat="44.68914" lon="5.68077">
        <ele>1135</ele>
        <time>2021-07-25T08:54:33Z</time>
      </trkpt>
      <trkpt lat="44.68926" lon="5.68081">
        <ele>1135</ele>
        <time>2021-07-25T08:54:34Z</time>
      </trkpt>
      <trkpt lat="44.68937" lon="5.68083">
        <ele>1134</ele>
        <time>2021-07-25T08:54:35Z</time>
      </trkpt>
      <trkpt lat="44.68949" lon="5.68082">
        <ele>1133</ele>
        <time>2021-07-25T08:54:36Z</time>
      </trkpt>
      <trkpt lat="44.68961" lon="5.68079">
        <ele>1132</ele>
        <time>2021-07-25T08:54:37Z</time>
      </trkpt>
      <trkpt lat="44.68972" lon="5.68075">
        <ele>1131</ele>
        <time>2021-07-25T08:54:38Z</time>
      </trkpt>
      <trkpt lat="44.68983" lon="5.68069">
        <ele>1130</ele>
        <time>2021-07-25T08:54:39Z</time>
      </trkpt>
      <trkpt lat="44.68995" lon="5.68062">
        <ele>1130</ele>
        <time>2021-07-25T08:54:40Z</time>
      </trkpt>
      <trkpt lat="44.69006" lon="5.68055">
        <ele>1130</ele>
        <time>2021-07-25T08:54:41Z</time>
      </trkpt>
      <trkpt lat="44.69018" lon="5.68049">
        <ele>1129</ele>
        <time>2021-07-25T08:54:42Z</time>
      </trkpt>
      <trkpt lat="44.69029" lon="5.68043">
        <ele>1129</ele>
        <time>2021-07-25T08:54:43Z</time>
      </trkpt>
      <trkpt lat="44.69041" lon="5.68038">
        <ele>1129</ele>
        <time>2021-07-25T08:54:44Z</time>
      </trkpt>
      <trkpt lat="44.69054" lon="5.68035">
        <ele>1128</ele>
        <time>2021-07-25T08:54:45Z</time>
      </trkpt>
      <trkpt lat="44.69066" lon="5.68033">
        <ele>1127</ele>
        <time>2021-07-25T08:54:46Z</time>
      </trkpt>
      <trkpt lat="44.69079" lon="5.68032">
        <ele>1127</ele>
        <time>2021-07-25T08:54:47Z</time>
      </trkpt>
      <trkpt lat="44.69092" lon="5.68032">
        <ele>1125</ele>
        <time>2021-07-25T08:54:48Z</time>
      </trkpt>
      <trkpt lat="44.69104" lon="5.68033">
        <ele>1124</ele>
        <time>2021-07-25T08:54:49Z</time>
      </trkpt>
      <trkpt lat="44.69117" lon="5.68033">
        <ele>1123</ele>
        <time>2021-07-25T08:54:50Z</time>
      </trkpt>
      <trkpt lat="44.6913" lon="5.68033">
        <ele>1123</ele>
        <time>2021-07-25T08:54:51Z</time>
      </trkpt>
      <trkpt lat="44.69142" lon="5.68032">
        <ele>1121</ele>
        <time>2021-07-25T08:54:52Z</time>
      </trkpt>
      <trkpt lat="44.69155" lon="5.68034">
        <ele>1121</ele>
        <time>2021-07-25T08:54:53Z</time>
      </trkpt>
      <trkpt lat="44.69167" lon="5.68039">
        <ele>1120</ele>
        <time>2021-07-25T08:54:54Z</time>
      </trkpt>
      <trkpt lat="44.69178" lon="5.68049">
        <ele>1120</ele>
        <time>2021-07-25T08:54:55Z</time>
      </trkpt>
      <trkpt lat="44.69187" lon="5.68062">
        <ele>1120</ele>
        <time>2021-07-25T08:54:56Z</time>
      </trkpt>
      <trkpt lat="44.69193" lon="5.68078">
        <ele>1118</ele>
        <time>2021-07-25T08:54:57Z</time>
      </trkpt>
      <trkpt lat="44.69199" lon="5.68094">
        <ele>1117</ele>
        <time>2021-07-25T08:54:58Z</time>
      </trkpt>
      <trkpt lat="44.69206" lon="5.68108">
        <ele>1115</ele>
        <time>2021-07-25T08:54:59Z</time>
      </trkpt>
      <trkpt lat="44.69215" lon="5.6812">
        <ele>1112</ele>
        <time>2021-07-25T08:55:00Z</time>
      </trkpt>
      <trkpt lat="44.69226" lon="5.68129">
        <ele>1113</ele>
        <time>2021-07-25T08:55:01Z</time>
      </trkpt>
      <trkpt lat="44.69238" lon="5.68137">
        <ele>1113</ele>
        <time>2021-07-25T08:55:02Z</time>
      </trkpt>
      <trkpt lat="44.69249" lon="5.68145">
        <ele>1113</ele>
        <time>2021-07-25T08:55:03Z</time>
      </trkpt>
      <trkpt lat="44.69259" lon="5.68155">
        <ele>1112</ele>
        <time>2021-07-25T08:55:04Z</time>
      </trkpt>
      <trkpt lat="44.69269" lon="5.68166">
        <ele>1111</ele>
        <time>2021-07-25T08:55:05Z</time>
      </trkpt>
      <trkpt lat="44.69278" lon="5.68179">
        <ele>1111</ele>
        <time>2021-07-25T08:55:06Z</time>
      </trkpt>
      <trkpt lat="44.69285" lon="5.68193">
        <ele>1111</ele>
        <time>2021-07-25T08:55:07Z</time>
      </trkpt>
      <trkpt lat="44.69294" lon="5.68206">
        <ele>1111</ele>
        <time>2021-07-25T08:55:08Z</time>
      </trkpt>
      <trkpt lat="44.69304" lon="5.68216">
        <ele>1108</ele>
        <time>2021-07-25T08:55:09Z</time>
      </trkpt>
      <trkpt lat="44.69316" lon="5.68223">
        <ele>1106</ele>
        <time>2021-07-25T08:55:10Z</time>
      </trkpt>
      <trkpt lat="44.69328" lon="5.68227">
        <ele>1106</ele>
        <time>2021-07-25T08:55:11Z</time>
      </trkpt>
      <trkpt lat="44.69341" lon="5.6823">
        <ele>1104</ele>
        <time>2021-07-25T08:55:12Z</time>
      </trkpt>
      <trkpt lat="44.69354" lon="5.68233">
        <ele>1103</ele>
        <time>2021-07-25T08:55:13Z</time>
      </trkpt>
      <trkpt lat="44.69366" lon="5.68235">
        <ele>1103</ele>
        <time>2021-07-25T08:55:14Z</time>
      </trkpt>
      <trkpt lat="44.69379" lon="5.68236">
        <ele>1102</ele>
        <time>2021-07-25T08:55:15Z</time>
      </trkpt>
      <trkpt lat="44.69392" lon="5.68236">
        <ele>1102</ele>
        <time>2021-07-25T08:55:16Z</time>
      </trkpt>
      <trkpt lat="44.69405" lon="5.68235">
        <ele>1101</ele>
        <time>2021-07-25T08:55:17Z</time>
      </trkpt>
      <trkpt lat="44.69418" lon="5.68235">
        <ele>1100</ele>
        <time>2021-07-25T08:55:18Z</time>
      </trkpt>
      <trkpt lat="44.6943" lon="5.68235">
        <ele>1099</ele>
        <time>2021-07-25T08:55:19Z</time>
      </trkpt>
      <trkpt lat="44.69441" lon="5.68236">
        <ele>1099</ele>
        <time>2021-07-25T08:55:20Z</time>
      </trkpt>
      <trkpt lat="44.69451" lon="5.68238">
        <ele>1097</ele>
        <time>2021-07-25T08:55:21Z</time>
      </trkpt>
      <trkpt lat="44.69459" lon="5.6824">
        <ele>1096</ele>
        <time>2021-07-25T08:55:22Z</time>
      </trkpt>
      <trkpt lat="44.69472" lon="5.6825">
        <ele>1094</ele>
        <time>2021-07-25T08:55:24Z</time>
      </trkpt>
      <trkpt lat="44.69484" lon="5.68262">
        <ele>1094</ele>
        <time>2021-07-25T08:55:26Z</time>
      </trkpt>
      <trkpt lat="44.69497" lon="5.68272">
        <ele>1094</ele>
        <time>2021-07-25T08:55:28Z</time>
      </trkpt>
      <trkpt lat="44.69513" lon="5.68276">
        <ele>1093</ele>
        <time>2021-07-25T08:55:30Z</time>
      </trkpt>
      <trkpt lat="44.69531" lon="5.68276">
        <ele>1092</ele>
        <time>2021-07-25T08:55:32Z</time>
      </trkpt>
      <trkpt lat="44.6955" lon="5.68274">
        <ele>1091</ele>
        <time>2021-07-25T08:55:34Z</time>
      </trkpt>
      <trkpt lat="44.6956" lon="5.68273">
        <ele>1090</ele>
        <time>2021-07-25T08:55:35Z</time>
      </trkpt>
      <trkpt lat="44.69571" lon="5.68273">
        <ele>1090</ele>
        <time>2021-07-25T08:55:36Z</time>
      </trkpt>
      <trkpt lat="44.69581" lon="5.68273">
        <ele>1089</ele>
        <time>2021-07-25T08:55:37Z</time>
      </trkpt>
      <trkpt lat="44.69592" lon="5.68274">
        <ele>1088</ele>
        <time>2021-07-25T08:55:38Z</time>
      </trkpt>
      <trkpt lat="44.69603" lon="5.68275">
        <ele>1087</ele>
        <time>2021-07-25T08:55:39Z</time>
      </trkpt>
      <trkpt lat="44.69615" lon="5.68276">
        <ele>1086</ele>
        <time>2021-07-25T08:55:40Z</time>
      </trkpt>
      <trkpt lat="44.69626" lon="5.68278">
        <ele>1085</ele>
        <time>2021-07-25T08:55:41Z</time>
      </trkpt>
      <trkpt lat="44.69638" lon="5.6828">
        <ele>1085</ele>
        <time>2021-07-25T08:55:42Z</time>
      </trkpt>
      <trkpt lat="44.69649" lon="5.6828">
        <ele>1085</ele>
        <time>2021-07-25T08:55:43Z</time>
      </trkpt>
      <trkpt lat="44.69661" lon="5.68281">
        <ele>1085</ele>
        <time>2021-07-25T08:55:44Z</time>
      </trkpt>
      <trkpt lat="44.69673" lon="5.68281">
        <ele>1085</ele>
        <time>2021-07-25T08:55:45Z</time>
      </trkpt>
      <trkpt lat="44.69685" lon="5.68281">
        <ele>1083</ele>
        <time>2021-07-25T08:55:46Z</time>
      </trkpt>
      <trkpt lat="44.69697" lon="5.6828">
        <ele>1082</ele>
        <time>2021-07-25T08:55:47Z</time>
      </trkpt>
      <trkpt lat="44.69708" lon="5.68279">
        <ele>1081</ele>
        <time>2021-07-25T08:55:48Z</time>
      </trkpt>
      <trkpt lat="44.69719" lon="5.68277">
        <ele>1080</ele>
        <time>2021-07-25T08:55:49Z</time>
      </trkpt>
      <trkpt lat="44.6973" lon="5.68274">
        <ele>1079</ele>
        <time>2021-07-25T08:55:50Z</time>
      </trkpt>
      <trkpt lat="44.6974" lon="5.68271">
        <ele>1078</ele>
        <time>2021-07-25T08:55:51Z</time>
      </trkpt>
      <trkpt lat="44.69758" lon="5.68268">
        <ele>1078</ele>
        <time>2021-07-25T08:55:53Z</time>
      </trkpt>
      <trkpt lat="44.69768" lon="5.68272">
        <ele>1077</ele>
        <time>2021-07-25T08:55:55Z</time>
      </trkpt>
      <trkpt lat="44.69774" lon="5.68285">
        <ele>1076</ele>
        <time>2021-07-25T08:55:58Z</time>
      </trkpt>
      <trkpt lat="44.69781" lon="5.68296">
        <ele>1076</ele>
        <time>2021-07-25T08:56:01Z</time>
      </trkpt>
      <trkpt lat="44.69789" lon="5.68296">
        <ele>1076</ele>
        <time>2021-07-25T08:56:03Z</time>
      </trkpt>
      <trkpt lat="44.69797" lon="5.68294">
        <ele>1076</ele>
        <time>2021-07-25T08:56:05Z</time>
      </trkpt>
      <trkpt lat="44.69805" lon="5.68291">
        <ele>1076</ele>
        <time>2021-07-25T08:56:07Z</time>
      </trkpt>
      <trkpt lat="44.69813" lon="5.68288">
        <ele>1076</ele>
        <time>2021-07-25T08:56:09Z</time>
      </trkpt>
      <trkpt lat="44.69821" lon="5.68285">
        <ele>1077</ele>
        <time>2021-07-25T08:56:11Z</time>
      </trkpt>
      <trkpt lat="44.69833" lon="5.6828">
        <ele>1077</ele>
        <time>2021-07-25T08:56:14Z</time>
      </trkpt>
      <trkpt lat="44.69846" lon="5.68274">
        <ele>1077</ele>
        <time>2021-07-25T08:56:17Z</time>
      </trkpt>
      <trkpt lat="44.69858" lon="5.68269">
        <ele>1079</ele>
        <time>2021-07-25T08:56:20Z</time>
      </trkpt>
      <trkpt lat="44.6987" lon="5.68264">
        <ele>1079</ele>
        <time>2021-07-25T08:56:23Z</time>
      </trkpt>
      <trkpt lat="44.69883" lon="5.68259">
        <ele>1079</ele>
        <time>2021-07-25T08:56:26Z</time>
      </trkpt>
      <trkpt lat="44.69895" lon="5.68255">
        <ele>1079</ele>
        <time>2021-07-25T08:56:29Z</time>
      </trkpt>
      <trkpt lat="44.69907" lon="5.68252">
        <ele>1082</ele>
        <time>2021-07-25T08:56:32Z</time>
      </trkpt>
      <trkpt lat="44.69919" lon="5.68248">
        <ele>1084</ele>
        <time>2021-07-25T08:56:35Z</time>
      </trkpt>
      <trkpt lat="44.69927" lon="5.68245">
        <ele>1084</ele>
        <time>2021-07-25T08:56:37Z</time>
      </trkpt>
      <trkpt lat="44.69935" lon="5.68243">
        <ele>1084</ele>
        <time>2021-07-25T08:56:39Z</time>
      </trkpt>
      <trkpt lat="44.69943" lon="5.6824">
        <ele>1085</ele>
        <time>2021-07-25T08:56:41Z</time>
      </trkpt>
      <trkpt lat="44.69951" lon="5.68238">
        <ele>1085</ele>
        <time>2021-07-25T08:56:43Z</time>
      </trkpt>
      <trkpt lat="44.69959" lon="5.68235">
        <ele>1085</ele>
        <time>2021-07-25T08:56:45Z</time>
      </trkpt>
      <trkpt lat="44.69967" lon="5.68233">
        <ele>1085</ele>
        <time>2021-07-25T08:56:47Z</time>
      </trkpt>
      <trkpt lat="44.69975" lon="5.6823">
        <ele>1085</ele>
        <time>2021-07-25T08:56:49Z</time>
      </trkpt>
      <trkpt lat="44.69983" lon="5.68228">
        <ele>1086</ele>
        <time>2021-07-25T08:56:51Z</time>
      </trkpt>
      <trkpt lat="44.69992" lon="5.68225">
        <ele>1086</ele>
        <time>2021-07-25T08:56:53Z</time>
      </trkpt>
      <trkpt lat="44.7" lon="5.68223">
        <ele>1086</ele>
        <time>2021-07-25T08:56:55Z</time>
      </trkpt>
      <trkpt lat="44.70008" lon="5.6822">
        <ele>1086</ele>
        <time>2021-07-25T08:56:57Z</time>
      </trkpt>
      <trkpt lat="44.70017" lon="5.68218">
        <ele>1086</ele>
        <time>2021-07-25T08:56:59Z</time>
      </trkpt>
      <trkpt lat="44.70025" lon="5.68215">
        <ele>1088</ele>
        <time>2021-07-25T08:57:01Z</time>
      </trkpt>
      <trkpt lat="44.70032" lon="5.68212">
        <ele>1088</ele>
        <time>2021-07-25T08:57:03Z</time>
      </trkpt>
      <trkpt lat="44.70044" lon="5.68208">
        <ele>1088</ele>
        <time>2021-07-25T08:57:06Z</time>
      </trkpt>
      <trkpt lat="44.70056" lon="5.68203">
        <ele>1088</ele>
        <time>2021-07-25T08:57:09Z</time>
      </trkpt>
      <trkpt lat="44.70064" lon="5.682">
        <ele>1091</ele>
        <time>2021-07-25T08:57:11Z</time>
      </trkpt>
      <trkpt lat="44.70076" lon="5.68196">
        <ele>1091</ele>
        <time>2021-07-25T08:57:14Z</time>
      </trkpt>
      <trkpt lat="44.70084" lon="5.68194">
        <ele>1094</ele>
        <time>2021-07-25T08:57:16Z</time>
      </trkpt>
      <trkpt lat="44.70092" lon="5.68191">
        <ele>1094</ele>
        <time>2021-07-25T08:57:18Z</time>
      </trkpt>
      <trkpt lat="44.701" lon="5.68188">
        <ele>1094</ele>
        <time>2021-07-25T08:57:20Z</time>
      </trkpt>
      <trkpt lat="44.70108" lon="5.68185">
        <ele>1094</ele>
        <time>2021-07-25T08:57:22Z</time>
      </trkpt>
      <trkpt lat="44.70116" lon="5.68182">
        <ele>1094</ele>
        <time>2021-07-25T08:57:24Z</time>
      </trkpt>
      <trkpt lat="44.70124" lon="5.6818">
        <ele>1094</ele>
        <time>2021-07-25T08:57:26Z</time>
      </trkpt>
      <trkpt lat="44.70133" lon="5.68177">
        <ele>1094</ele>
        <time>2021-07-25T08:57:28Z</time>
      </trkpt>
      <trkpt lat="44.70142" lon="5.68174">
        <ele>1094</ele>
        <time>2021-07-25T08:57:30Z</time>
      </trkpt>
      <trkpt lat="44.70151" lon="5.68171">
        <ele>1094</ele>
        <time>2021-07-25T08:57:32Z</time>
      </trkpt>
      <trkpt lat="44.70165" lon="5.68165">
        <ele>1094</ele>
        <time>2021-07-25T08:57:35Z</time>
      </trkpt>
      <trkpt lat="44.70175" lon="5.68162">
        <ele>1094</ele>
        <time>2021-07-25T08:57:37Z</time>
      </trkpt>
      <trkpt lat="44.70185" lon="5.68159">
        <ele>1094</ele>
        <time>2021-07-25T08:57:39Z</time>
      </trkpt>
      <trkpt lat="44.70196" lon="5.68155">
        <ele>1096</ele>
        <time>2021-07-25T08:57:41Z</time>
      </trkpt>
      <trkpt lat="44.70206" lon="5.68151">
        <ele>1096</ele>
        <time>2021-07-25T08:57:43Z</time>
      </trkpt>
      <trkpt lat="44.70215" lon="5.68147">
        <ele>1096</ele>
        <time>2021-07-25T08:57:45Z</time>
      </trkpt>
      <trkpt lat="44.70225" lon="5.68142">
        <ele>1096</ele>
        <time>2021-07-25T08:57:47Z</time>
      </trkpt>
      <trkpt lat="44.70235" lon="5.68137">
        <ele>1096</ele>
        <time>2021-07-25T08:57:49Z</time>
      </trkpt>
      <trkpt lat="44.70245" lon="5.68132">
        <ele>1098</ele>
        <time>2021-07-25T08:57:51Z</time>
      </trkpt>
      <trkpt lat="44.70255" lon="5.68126">
        <ele>1098</ele>
        <time>2021-07-25T08:57:53Z</time>
      </trkpt>
      <trkpt lat="44.70265" lon="5.6812">
        <ele>1098</ele>
        <time>2021-07-25T08:57:55Z</time>
      </trkpt>
      <trkpt lat="44.70274" lon="5.68114">
        <ele>1098</ele>
        <time>2021-07-25T08:57:57Z</time>
      </trkpt>
      <trkpt lat="44.70284" lon="5.68107">
        <ele>1098</ele>
        <time>2021-07-25T08:57:59Z</time>
      </trkpt>
      <trkpt lat="44.70294" lon="5.68099">
        <ele>1101</ele>
        <time>2021-07-25T08:58:01Z</time>
      </trkpt>
      <trkpt lat="44.70298" lon="5.68095">
        <ele>1101</ele>
        <time>2021-07-25T08:58:02Z</time>
      </trkpt>
      <trkpt lat="44.70303" lon="5.68091">
        <ele>1101</ele>
        <time>2021-07-25T08:58:03Z</time>
      </trkpt>
      <trkpt lat="44.70308" lon="5.68087">
        <ele>1101</ele>
        <time>2021-07-25T08:58:04Z</time>
      </trkpt>
      <trkpt lat="44.70318" lon="5.68077">
        <ele>1101</ele>
        <time>2021-07-25T08:58:06Z</time>
      </trkpt>
      <trkpt lat="44.70328" lon="5.68068">
        <ele>1101</ele>
        <time>2021-07-25T08:58:08Z</time>
      </trkpt>
      <trkpt lat="44.70333" lon="5.68064">
        <ele>1101</ele>
        <time>2021-07-25T08:58:09Z</time>
      </trkpt>
      <trkpt lat="44.70343" lon="5.68054">
        <ele>1100</ele>
        <time>2021-07-25T08:58:11Z</time>
      </trkpt>
      <trkpt lat="44.70348" lon="5.6805">
        <ele>1100</ele>
        <time>2021-07-25T08:58:12Z</time>
      </trkpt>
      <trkpt lat="44.70354" lon="5.68045">
        <ele>1100</ele>
        <time>2021-07-25T08:58:13Z</time>
      </trkpt>
      <trkpt lat="44.70359" lon="5.6804">
        <ele>1100</ele>
        <time>2021-07-25T08:58:14Z</time>
      </trkpt>
      <trkpt lat="44.70364" lon="5.68035">
        <ele>1100</ele>
        <time>2021-07-25T08:58:15Z</time>
      </trkpt>
      <trkpt lat="44.7037" lon="5.68031">
        <ele>1100</ele>
        <time>2021-07-25T08:58:16Z</time>
      </trkpt>
      <trkpt lat="44.70375" lon="5.68026">
        <ele>1100</ele>
        <time>2021-07-25T08:58:17Z</time>
      </trkpt>
      <trkpt lat="44.70381" lon="5.68021">
        <ele>1100</ele>
        <time>2021-07-25T08:58:18Z</time>
      </trkpt>
      <trkpt lat="44.70387" lon="5.68016">
        <ele>1100</ele>
        <time>2021-07-25T08:58:19Z</time>
      </trkpt>
      <trkpt lat="44.70392" lon="5.68011">
        <ele>1101</ele>
        <time>2021-07-25T08:58:20Z</time>
      </trkpt>
      <trkpt lat="44.70398" lon="5.68005">
        <ele>1101</ele>
        <time>2021-07-25T08:58:21Z</time>
      </trkpt>
      <trkpt lat="44.70409" lon="5.67995">
        <ele>1101</ele>
        <time>2021-07-25T08:58:23Z</time>
      </trkpt>
      <trkpt lat="44.70421" lon="5.67985">
        <ele>1101</ele>
        <time>2021-07-25T08:58:25Z</time>
      </trkpt>
      <trkpt lat="44.70432" lon="5.67975">
        <ele>1101</ele>
        <time>2021-07-25T08:58:27Z</time>
      </trkpt>
      <trkpt lat="44.70444" lon="5.67966">
        <ele>1101</ele>
        <time>2021-07-25T08:58:29Z</time>
      </trkpt>
      <trkpt lat="44.70456" lon="5.67957">
        <ele>1102</ele>
        <time>2021-07-25T08:58:31Z</time>
      </trkpt>
      <trkpt lat="44.70468" lon="5.67948">
        <ele>1102</ele>
        <time>2021-07-25T08:58:33Z</time>
      </trkpt>
      <trkpt lat="44.7048" lon="5.67941">
        <ele>1102</ele>
        <time>2021-07-25T08:58:35Z</time>
      </trkpt>
      <trkpt lat="44.70492" lon="5.67933">
        <ele>1102</ele>
        <time>2021-07-25T08:58:37Z</time>
      </trkpt>
      <trkpt lat="44.70503" lon="5.67926">
        <ele>1102</ele>
        <time>2021-07-25T08:58:39Z</time>
      </trkpt>
      <trkpt lat="44.70515" lon="5.67919">
        <ele>1103</ele>
        <time>2021-07-25T08:58:41Z</time>
      </trkpt>
      <trkpt lat="44.70526" lon="5.67912">
        <ele>1103</ele>
        <time>2021-07-25T08:58:43Z</time>
      </trkpt>
      <trkpt lat="44.70537" lon="5.67906">
        <ele>1103</ele>
        <time>2021-07-25T08:58:45Z</time>
      </trkpt>
      <trkpt lat="44.70548" lon="5.67899">
        <ele>1103</ele>
        <time>2021-07-25T08:58:47Z</time>
      </trkpt>
      <trkpt lat="44.70558" lon="5.67892">
        <ele>1103</ele>
        <time>2021-07-25T08:58:49Z</time>
      </trkpt>
      <trkpt lat="44.70569" lon="5.67885">
        <ele>1104</ele>
        <time>2021-07-25T08:58:51Z</time>
      </trkpt>
      <trkpt lat="44.7058" lon="5.67879">
        <ele>1104</ele>
        <time>2021-07-25T08:58:53Z</time>
      </trkpt>
      <trkpt lat="44.7059" lon="5.67872">
        <ele>1104</ele>
        <time>2021-07-25T08:58:55Z</time>
      </trkpt>
      <trkpt lat="44.706" lon="5.67866">
        <ele>1104</ele>
        <time>2021-07-25T08:58:57Z</time>
      </trkpt>
      <trkpt lat="44.7061" lon="5.67859">
        <ele>1104</ele>
        <time>2021-07-25T08:58:59Z</time>
      </trkpt>
      <trkpt lat="44.7062" lon="5.67853">
        <ele>1107</ele>
        <time>2021-07-25T08:59:01Z</time>
      </trkpt>
      <trkpt lat="44.7063" lon="5.67847">
        <ele>1107</ele>
        <time>2021-07-25T08:59:03Z</time>
      </trkpt>
      <trkpt lat="44.7064" lon="5.67841">
        <ele>1109</ele>
        <time>2021-07-25T08:59:05Z</time>
      </trkpt>
      <trkpt lat="44.70649" lon="5.67835">
        <ele>1109</ele>
        <time>2021-07-25T08:59:07Z</time>
      </trkpt>
      <trkpt lat="44.70659" lon="5.6783">
        <ele>1109</ele>
        <time>2021-07-25T08:59:09Z</time>
      </trkpt>
      <trkpt lat="44.70668" lon="5.67824">
        <ele>1110</ele>
        <time>2021-07-25T08:59:11Z</time>
      </trkpt>
      <trkpt lat="44.70677" lon="5.67818">
        <ele>1110</ele>
        <time>2021-07-25T08:59:13Z</time>
      </trkpt>
      <trkpt lat="44.70686" lon="5.67814">
        <ele>1112</ele>
        <time>2021-07-25T08:59:15Z</time>
      </trkpt>
      <trkpt lat="44.70695" lon="5.67809">
        <ele>1112</ele>
        <time>2021-07-25T08:59:17Z</time>
      </trkpt>
      <trkpt lat="44.70704" lon="5.67805">
        <ele>1112</ele>
        <time>2021-07-25T08:59:19Z</time>
      </trkpt>
      <trkpt lat="44.70714" lon="5.67801">
        <ele>1112</ele>
        <time>2021-07-25T08:59:21Z</time>
      </trkpt>
      <trkpt lat="44.70723" lon="5.67797">
        <ele>1112</ele>
        <time>2021-07-25T08:59:23Z</time>
      </trkpt>
      <trkpt lat="44.70732" lon="5.67793">
        <ele>1113</ele>
        <time>2021-07-25T08:59:25Z</time>
      </trkpt>
      <trkpt lat="44.70742" lon="5.67789">
        <ele>1113</ele>
        <time>2021-07-25T08:59:27Z</time>
      </trkpt>
      <trkpt lat="44.70751" lon="5.67786">
        <ele>1113</ele>
        <time>2021-07-25T08:59:29Z</time>
      </trkpt>
      <trkpt lat="44.7076" lon="5.67782">
        <ele>1113</ele>
        <time>2021-07-25T08:59:31Z</time>
      </trkpt>
      <trkpt lat="44.7077" lon="5.67778">
        <ele>1113</ele>
        <time>2021-07-25T08:59:33Z</time>
      </trkpt>
      <trkpt lat="44.7078" lon="5.67774">
        <ele>1113</ele>
        <time>2021-07-25T08:59:35Z</time>
      </trkpt>
      <trkpt lat="44.70789" lon="5.67771">
        <ele>1113</ele>
        <time>2021-07-25T08:59:37Z</time>
      </trkpt>
      <trkpt lat="44.70798" lon="5.67767">
        <ele>1113</ele>
        <time>2021-07-25T08:59:39Z</time>
      </trkpt>
      <trkpt lat="44.70808" lon="5.67763">
        <ele>1115</ele>
        <time>2021-07-25T08:59:41Z</time>
      </trkpt>
      <trkpt lat="44.70817" lon="5.6776">
        <ele>1115</ele>
        <time>2021-07-25T08:59:43Z</time>
      </trkpt>
      <trkpt lat="44.70825" lon="5.67756">
        <ele>1115</ele>
        <time>2021-07-25T08:59:45Z</time>
      </trkpt>
      <trkpt lat="44.70839" lon="5.67752">
        <ele>1115</ele>
        <time>2021-07-25T08:59:48Z</time>
      </trkpt>
      <trkpt lat="44.70853" lon="5.67748">
        <ele>1118</ele>
        <time>2021-07-25T08:59:51Z</time>
      </trkpt>
      <trkpt lat="44.70866" lon="5.67746">
        <ele>1118</ele>
        <time>2021-07-25T08:59:54Z</time>
      </trkpt>
      <trkpt lat="44.70879" lon="5.67744">
        <ele>1121</ele>
        <time>2021-07-25T08:59:57Z</time>
      </trkpt>
      <trkpt lat="44.70892" lon="5.67742">
        <ele>1121</ele>
        <time>2021-07-25T09:00:00Z</time>
      </trkpt>
      <trkpt lat="44.70905" lon="5.6774">
        <ele>1121</ele>
        <time>2021-07-25T09:00:03Z</time>
      </trkpt>
      <trkpt lat="44.70917" lon="5.67738">
        <ele>1121</ele>
        <time>2021-07-25T09:00:06Z</time>
      </trkpt>
      <trkpt lat="44.70929" lon="5.67736">
        <ele>1121</ele>
        <time>2021-07-25T09:00:09Z</time>
      </trkpt>
      <trkpt lat="44.70941" lon="5.67734">
        <ele>1123</ele>
        <time>2021-07-25T09:00:12Z</time>
      </trkpt>
      <trkpt lat="44.70953" lon="5.67732">
        <ele>1123</ele>
        <time>2021-07-25T09:00:15Z</time>
      </trkpt>
      <trkpt lat="44.70964" lon="5.67731">
        <ele>1123</ele>
        <time>2021-07-25T09:00:18Z</time>
      </trkpt>
      <trkpt lat="44.70976" lon="5.6773">
        <ele>1125</ele>
        <time>2021-07-25T09:00:21Z</time>
      </trkpt>
      <trkpt lat="44.70987" lon="5.67729">
        <ele>1125</ele>
        <time>2021-07-25T09:00:24Z</time>
      </trkpt>
      <trkpt lat="44.70999" lon="5.6773">
        <ele>1125</ele>
        <time>2021-07-25T09:00:27Z</time>
      </trkpt>
      <trkpt lat="44.7101" lon="5.67731">
        <ele>1128</ele>
        <time>2021-07-25T09:00:30Z</time>
      </trkpt>
      <trkpt lat="44.71021" lon="5.67732">
        <ele>1128</ele>
        <time>2021-07-25T09:00:33Z</time>
      </trkpt>
      <trkpt lat="44.71032" lon="5.67733">
        <ele>1129</ele>
        <time>2021-07-25T09:00:36Z</time>
      </trkpt>
      <trkpt lat="44.71043" lon="5.67735">
        <ele>1129</ele>
        <time>2021-07-25T09:00:39Z</time>
      </trkpt>
      <trkpt lat="44.7105" lon="5.67736">
        <ele>1130</ele>
        <time>2021-07-25T09:00:41Z</time>
      </trkpt>
      <trkpt lat="44.71058" lon="5.67736">
        <ele>1130</ele>
        <time>2021-07-25T09:00:43Z</time>
      </trkpt>
      <trkpt lat="44.71065" lon="5.67737">
        <ele>1131</ele>
        <time>2021-07-25T09:00:45Z</time>
      </trkpt>
      <trkpt lat="44.71073" lon="5.67738">
        <ele>1131</ele>
        <time>2021-07-25T09:00:47Z</time>
      </trkpt>
      <trkpt lat="44.7108" lon="5.67739">
        <ele>1131</ele>
        <time>2021-07-25T09:00:49Z</time>
      </trkpt>
      <trkpt lat="44.71087" lon="5.6774">
        <ele>1133</ele>
        <time>2021-07-25T09:00:51Z</time>
      </trkpt>
      <trkpt lat="44.71095" lon="5.67741">
        <ele>1133</ele>
        <time>2021-07-25T09:00:53Z</time>
      </trkpt>
      <trkpt lat="44.71102" lon="5.67742">
        <ele>1134</ele>
        <time>2021-07-25T09:00:55Z</time>
      </trkpt>
      <trkpt lat="44.71109" lon="5.67743">
        <ele>1134</ele>
        <time>2021-07-25T09:00:57Z</time>
      </trkpt>
      <trkpt lat="44.71117" lon="5.67745">
        <ele>1134</ele>
        <time>2021-07-25T09:00:59Z</time>
      </trkpt>
      <trkpt lat="44.71125" lon="5.67746">
        <ele>1136</ele>
        <time>2021-07-25T09:01:01Z</time>
      </trkpt>
      <trkpt lat="44.71132" lon="5.67747">
        <ele>1136</ele>
        <time>2021-07-25T09:01:03Z</time>
      </trkpt>
      <trkpt lat="44.71139" lon="5.67749">
        <ele>1137</ele>
        <time>2021-07-25T09:01:05Z</time>
      </trkpt>
      <trkpt lat="44.71146" lon="5.6775">
        <ele>1137</ele>
        <time>2021-07-25T09:01:07Z</time>
      </trkpt>
      <trkpt lat="44.71157" lon="5.6775">
        <ele>1138</ele>
        <time>2021-07-25T09:01:10Z</time>
      </trkpt>
      <trkpt lat="44.71165" lon="5.67749">
        <ele>1138</ele>
        <time>2021-07-25T09:01:12Z</time>
      </trkpt>
      <trkpt lat="44.71172" lon="5.67747">
        <ele>1138</ele>
        <time>2021-07-25T09:01:14Z</time>
      </trkpt>
      <trkpt lat="44.7118" lon="5.67742">
        <ele>1138</ele>
        <time>2021-07-25T09:01:16Z</time>
      </trkpt>
      <trkpt lat="44.71189" lon="5.67737">
        <ele>1138</ele>
        <time>2021-07-25T09:01:18Z</time>
      </trkpt>
      <trkpt lat="44.71197" lon="5.67731">
        <ele>1139</ele>
        <time>2021-07-25T09:01:20Z</time>
      </trkpt>
      <trkpt lat="44.71206" lon="5.67725">
        <ele>1139</ele>
        <time>2021-07-25T09:01:22Z</time>
      </trkpt>
      <trkpt lat="44.71214" lon="5.6772">
        <ele>1139</ele>
        <time>2021-07-25T09:01:24Z</time>
      </trkpt>
      <trkpt lat="44.71219" lon="5.67717">
        <ele>1139</ele>
        <time>2021-07-25T09:01:25Z</time>
      </trkpt>
      <trkpt lat="44.71224" lon="5.67716">
        <ele>1139</ele>
        <time>2021-07-25T09:01:26Z</time>
      </trkpt>
      <trkpt lat="44.71228" lon="5.67715">
        <ele>1139</ele>
        <time>2021-07-25T09:01:27Z</time>
      </trkpt>
      <trkpt lat="44.71233" lon="5.67714">
        <ele>1139</ele>
        <time>2021-07-25T09:01:28Z</time>
      </trkpt>
      <trkpt lat="44.71238" lon="5.67714">
        <ele>1139</ele>
        <time>2021-07-25T09:01:29Z</time>
      </trkpt>
      <trkpt lat="44.71242" lon="5.67714">
        <ele>1141</ele>
        <time>2021-07-25T09:01:30Z</time>
      </trkpt>
      <trkpt lat="44.71247" lon="5.67715">
        <ele>1141</ele>
        <time>2021-07-25T09:01:31Z</time>
      </trkpt>
      <trkpt lat="44.71252" lon="5.67715">
        <ele>1141</ele>
        <time>2021-07-25T09:01:32Z</time>
      </trkpt>
      <trkpt lat="44.71256" lon="5.67716">
        <ele>1141</ele>
        <time>2021-07-25T09:01:33Z</time>
      </trkpt>
      <trkpt lat="44.71265" lon="5.67718">
        <ele>1141</ele>
        <time>2021-07-25T09:01:35Z</time>
      </trkpt>
      <trkpt lat="44.7127" lon="5.67719">
        <ele>1141</ele>
        <time>2021-07-25T09:01:36Z</time>
      </trkpt>
      <trkpt lat="44.71279" lon="5.67721">
        <ele>1141</ele>
        <time>2021-07-25T09:01:38Z</time>
      </trkpt>
      <trkpt lat="44.71288" lon="5.67723">
        <ele>1142</ele>
        <time>2021-07-25T09:01:40Z</time>
      </trkpt>
      <trkpt lat="44.71293" lon="5.67724">
        <ele>1142</ele>
        <time>2021-07-25T09:01:41Z</time>
      </trkpt>
      <trkpt lat="44.71297" lon="5.67725">
        <ele>1142</ele>
        <time>2021-07-25T09:01:42Z</time>
      </trkpt>
      <trkpt lat="44.71302" lon="5.67726">
        <ele>1142</ele>
        <time>2021-07-25T09:01:43Z</time>
      </trkpt>
      <trkpt lat="44.71306" lon="5.67727">
        <ele>1142</ele>
        <time>2021-07-25T09:01:44Z</time>
      </trkpt>
      <trkpt lat="44.71315" lon="5.67729">
        <ele>1142</ele>
        <time>2021-07-25T09:01:46Z</time>
      </trkpt>
      <trkpt lat="44.71319" lon="5.6773">
        <ele>1142</ele>
        <time>2021-07-25T09:01:47Z</time>
      </trkpt>
      <trkpt lat="44.71323" lon="5.67731">
        <ele>1142</ele>
        <time>2021-07-25T09:01:48Z</time>
      </trkpt>
      <trkpt lat="44.71332" lon="5.67733">
        <ele>1144</ele>
        <time>2021-07-25T09:01:50Z</time>
      </trkpt>
      <trkpt lat="44.71341" lon="5.67734">
        <ele>1144</ele>
        <time>2021-07-25T09:01:52Z</time>
      </trkpt>
      <trkpt lat="44.71345" lon="5.67735">
        <ele>1144</ele>
        <time>2021-07-25T09:01:53Z</time>
      </trkpt>
      <trkpt lat="44.7135" lon="5.67736">
        <ele>1144</ele>
        <time>2021-07-25T09:01:54Z</time>
      </trkpt>
      <trkpt lat="44.71354" lon="5.67736">
        <ele>1144</ele>
        <time>2021-07-25T09:01:55Z</time>
      </trkpt>
      <trkpt lat="44.71358" lon="5.67736">
        <ele>1144</ele>
        <time>2021-07-25T09:01:56Z</time>
      </trkpt>
      <trkpt lat="44.71363" lon="5.67736">
        <ele>1144</ele>
        <time>2021-07-25T09:01:57Z</time>
      </trkpt>
      <trkpt lat="44.71367" lon="5.67736">
        <ele>1144</ele>
        <time>2021-07-25T09:01:58Z</time>
      </trkpt>
      <trkpt lat="44.71372" lon="5.67735">
        <ele>1144</ele>
        <time>2021-07-25T09:01:59Z</time>
      </trkpt>
      <trkpt lat="44.71377" lon="5.67734">
        <ele>1148</ele>
        <time>2021-07-25T09:02:00Z</time>
      </trkpt>
      <trkpt lat="44.71381" lon="5.67733">
        <ele>1148</ele>
        <time>2021-07-25T09:02:01Z</time>
      </trkpt>
      <trkpt lat="44.71391" lon="5.67729">
        <ele>1148</ele>
        <time>2021-07-25T09:02:03Z</time>
      </trkpt>
      <trkpt lat="44.714" lon="5.67723">
        <ele>1148</ele>
        <time>2021-07-25T09:02:05Z</time>
      </trkpt>
      <trkpt lat="44.7141" lon="5.67716">
        <ele>1148</ele>
        <time>2021-07-25T09:02:07Z</time>
      </trkpt>
      <trkpt lat="44.71419" lon="5.67709">
        <ele>1148</ele>
        <time>2021-07-25T09:02:09Z</time>
      </trkpt>
      <trkpt lat="44.71429" lon="5.67701">
        <ele>1148</ele>
        <time>2021-07-25T09:02:11Z</time>
      </trkpt>
      <trkpt lat="44.7144" lon="5.67693">
        <ele>1148</ele>
        <time>2021-07-25T09:02:13Z</time>
      </trkpt>
      <trkpt lat="44.7145" lon="5.67685">
        <ele>1148</ele>
        <time>2021-07-25T09:02:15Z</time>
      </trkpt>
      <trkpt lat="44.71462" lon="5.67681">
        <ele>1148</ele>
        <time>2021-07-25T09:02:17Z</time>
      </trkpt>
      <trkpt lat="44.71474" lon="5.6768">
        <ele>1148</ele>
        <time>2021-07-25T09:02:19Z</time>
      </trkpt>
      <trkpt lat="44.71486" lon="5.67681">
        <ele>1148</ele>
        <time>2021-07-25T09:02:21Z</time>
      </trkpt>
      <trkpt lat="44.71499" lon="5.67682">
        <ele>1148</ele>
        <time>2021-07-25T09:02:23Z</time>
      </trkpt>
      <trkpt lat="44.71511" lon="5.67682">
        <ele>1148</ele>
        <time>2021-07-25T09:02:25Z</time>
      </trkpt>
      <trkpt lat="44.71524" lon="5.67683">
        <ele>1148</ele>
        <time>2021-07-25T09:02:27Z</time>
      </trkpt>
      <trkpt lat="44.71536" lon="5.67684">
        <ele>1148</ele>
        <time>2021-07-25T09:02:29Z</time>
      </trkpt>
      <trkpt lat="44.71548" lon="5.67684">
        <ele>1149</ele>
        <time>2021-07-25T09:02:31Z</time>
      </trkpt>
      <trkpt lat="44.7156" lon="5.67683">
        <ele>1149</ele>
        <time>2021-07-25T09:02:33Z</time>
      </trkpt>
      <trkpt lat="44.71573" lon="5.67681">
        <ele>1149</ele>
        <time>2021-07-25T09:02:35Z</time>
      </trkpt>
      <trkpt lat="44.71585" lon="5.67679">
        <ele>1149</ele>
        <time>2021-07-25T09:02:37Z</time>
      </trkpt>
      <trkpt lat="44.71598" lon="5.67676">
        <ele>1149</ele>
        <time>2021-07-25T09:02:39Z</time>
      </trkpt>
      <trkpt lat="44.71612" lon="5.67673">
        <ele>1151</ele>
        <time>2021-07-25T09:02:41Z</time>
      </trkpt>
      <trkpt lat="44.71625" lon="5.67671">
        <ele>1151</ele>
        <time>2021-07-25T09:02:43Z</time>
      </trkpt>
      <trkpt lat="44.71639" lon="5.67668">
        <ele>1151</ele>
        <time>2021-07-25T09:02:45Z</time>
      </trkpt>
      <trkpt lat="44.71653" lon="5.67665">
        <ele>1151</ele>
        <time>2021-07-25T09:02:47Z</time>
      </trkpt>
      <trkpt lat="44.71667" lon="5.67662">
        <ele>1151</ele>
        <time>2021-07-25T09:02:49Z</time>
      </trkpt>
      <trkpt lat="44.71681" lon="5.6766">
        <ele>1151</ele>
        <time>2021-07-25T09:02:51Z</time>
      </trkpt>
      <trkpt lat="44.71695" lon="5.67657">
        <ele>1151</ele>
        <time>2021-07-25T09:02:53Z</time>
      </trkpt>
      <trkpt lat="44.71709" lon="5.67655">
        <ele>1151</ele>
        <time>2021-07-25T09:02:55Z</time>
      </trkpt>
      <trkpt lat="44.71724" lon="5.67653">
        <ele>1151</ele>
        <time>2021-07-25T09:02:57Z</time>
      </trkpt>
      <trkpt lat="44.71738" lon="5.67651">
        <ele>1151</ele>
        <time>2021-07-25T09:02:59Z</time>
      </trkpt>
      <trkpt lat="44.71752" lon="5.6765">
        <ele>1152</ele>
        <time>2021-07-25T09:03:01Z</time>
      </trkpt>
      <trkpt lat="44.71766" lon="5.67648">
        <ele>1152</ele>
        <time>2021-07-25T09:03:03Z</time>
      </trkpt>
      <trkpt lat="44.71779" lon="5.67647">
        <ele>1152</ele>
        <time>2021-07-25T09:03:05Z</time>
      </trkpt>
      <trkpt lat="44.71792" lon="5.67647">
        <ele>1152</ele>
        <time>2021-07-25T09:03:07Z</time>
      </trkpt>
      <trkpt lat="44.71805" lon="5.67645">
        <ele>1152</ele>
        <time>2021-07-25T09:03:09Z</time>
      </trkpt>
      <trkpt lat="44.71817" lon="5.67644">
        <ele>1154</ele>
        <time>2021-07-25T09:03:11Z</time>
      </trkpt>
      <trkpt lat="44.71829" lon="5.67644">
        <ele>1154</ele>
        <time>2021-07-25T09:03:13Z</time>
      </trkpt>
      <trkpt lat="44.71835" lon="5.67644">
        <ele>1154</ele>
        <time>2021-07-25T09:03:14Z</time>
      </trkpt>
      <trkpt lat="44.71841" lon="5.67644">
        <ele>1154</ele>
        <time>2021-07-25T09:03:15Z</time>
      </trkpt>
      <trkpt lat="44.71847" lon="5.67645">
        <ele>1154</ele>
        <time>2021-07-25T09:03:16Z</time>
      </trkpt>
      <trkpt lat="44.71853" lon="5.67645">
        <ele>1154</ele>
        <time>2021-07-25T09:03:17Z</time>
      </trkpt>
      <trkpt lat="44.71859" lon="5.67645">
        <ele>1154</ele>
        <time>2021-07-25T09:03:18Z</time>
      </trkpt>
      <trkpt lat="44.71865" lon="5.67646">
        <ele>1154</ele>
        <time>2021-07-25T09:03:19Z</time>
      </trkpt>
      <trkpt lat="44.7187" lon="5.67646">
        <ele>1156</ele>
        <time>2021-07-25T09:03:20Z</time>
      </trkpt>
      <trkpt lat="44.71876" lon="5.67646">
        <ele>1156</ele>
        <time>2021-07-25T09:03:21Z</time>
      </trkpt>
      <trkpt lat="44.71882" lon="5.67647">
        <ele>1156</ele>
        <time>2021-07-25T09:03:22Z</time>
      </trkpt>
      <trkpt lat="44.71888" lon="5.67647">
        <ele>1156</ele>
        <time>2021-07-25T09:03:23Z</time>
      </trkpt>
      <trkpt lat="44.71894" lon="5.67647">
        <ele>1156</ele>
        <time>2021-07-25T09:03:24Z</time>
      </trkpt>
      <trkpt lat="44.719" lon="5.67648">
        <ele>1156</ele>
        <time>2021-07-25T09:03:25Z</time>
      </trkpt>
      <trkpt lat="44.71907" lon="5.67648">
        <ele>1156</ele>
        <time>2021-07-25T09:03:26Z</time>
      </trkpt>
      <trkpt lat="44.71913" lon="5.67649">
        <ele>1156</ele>
        <time>2021-07-25T09:03:27Z</time>
      </trkpt>
      <trkpt lat="44.71919" lon="5.67649">
        <ele>1156</ele>
        <time>2021-07-25T09:03:28Z</time>
      </trkpt>
      <trkpt lat="44.71925" lon="5.6765">
        <ele>1156</ele>
        <time>2021-07-25T09:03:29Z</time>
      </trkpt>
      <trkpt lat="44.71931" lon="5.6765">
        <ele>1158</ele>
        <time>2021-07-25T09:03:30Z</time>
      </trkpt>
      <trkpt lat="44.71938" lon="5.67651">
        <ele>1158</ele>
        <time>2021-07-25T09:03:31Z</time>
      </trkpt>
      <trkpt lat="44.71944" lon="5.67652">
        <ele>1158</ele>
        <time>2021-07-25T09:03:32Z</time>
      </trkpt>
      <trkpt lat="44.7195" lon="5.67652">
        <ele>1158</ele>
        <time>2021-07-25T09:03:33Z</time>
      </trkpt>
      <trkpt lat="44.71963" lon="5.67654">
        <ele>1158</ele>
        <time>2021-07-25T09:03:35Z</time>
      </trkpt>
      <trkpt lat="44.71975" lon="5.67655">
        <ele>1158</ele>
        <time>2021-07-25T09:03:37Z</time>
      </trkpt>
      <trkpt lat="44.71981" lon="5.67655">
        <ele>1158</ele>
        <time>2021-07-25T09:03:38Z</time>
      </trkpt>
      <trkpt lat="44.71994" lon="5.67656">
        <ele>1160</ele>
        <time>2021-07-25T09:03:40Z</time>
      </trkpt>
      <trkpt lat="44.72" lon="5.67657">
        <ele>1160</ele>
        <time>2021-07-25T09:03:41Z</time>
      </trkpt>
      <trkpt lat="44.72005" lon="5.67657">
        <ele>1160</ele>
        <time>2021-07-25T09:03:42Z</time>
      </trkpt>
      <trkpt lat="44.72011" lon="5.67658">
        <ele>1160</ele>
        <time>2021-07-25T09:03:43Z</time>
      </trkpt>
      <trkpt lat="44.72017" lon="5.67658">
        <ele>1160</ele>
        <time>2021-07-25T09:03:44Z</time>
      </trkpt>
      <trkpt lat="44.72023" lon="5.67658">
        <ele>1160</ele>
        <time>2021-07-25T09:03:45Z</time>
      </trkpt>
      <trkpt lat="44.72028" lon="5.67659">
        <ele>1160</ele>
        <time>2021-07-25T09:03:46Z</time>
      </trkpt>
      <trkpt lat="44.72034" lon="5.6766">
        <ele>1160</ele>
        <time>2021-07-25T09:03:47Z</time>
      </trkpt>
      <trkpt lat="44.7204" lon="5.6766">
        <ele>1160</ele>
        <time>2021-07-25T09:03:48Z</time>
      </trkpt>
      <trkpt lat="44.72045" lon="5.6766">
        <ele>1160</ele>
        <time>2021-07-25T09:03:49Z</time>
      </trkpt>
      <trkpt lat="44.72051" lon="5.6766">
        <ele>1161</ele>
        <time>2021-07-25T09:03:50Z</time>
      </trkpt>
      <trkpt lat="44.72057" lon="5.67661">
        <ele>1161</ele>
        <time>2021-07-25T09:03:51Z</time>
      </trkpt>
      <trkpt lat="44.72062" lon="5.67661">
        <ele>1161</ele>
        <time>2021-07-25T09:03:52Z</time>
      </trkpt>
      <trkpt lat="44.72068" lon="5.67661">
        <ele>1161</ele>
        <time>2021-07-25T09:03:53Z</time>
      </trkpt>
      <trkpt lat="44.72073" lon="5.67662">
        <ele>1161</ele>
        <time>2021-07-25T09:03:54Z</time>
      </trkpt>
      <trkpt lat="44.72079" lon="5.67662">
        <ele>1161</ele>
        <time>2021-07-25T09:03:55Z</time>
      </trkpt>
      <trkpt lat="44.72084" lon="5.67663">
        <ele>1161</ele>
        <time>2021-07-25T09:03:56Z</time>
      </trkpt>
      <trkpt lat="44.72095" lon="5.67664">
        <ele>1161</ele>
        <time>2021-07-25T09:03:58Z</time>
      </trkpt>
      <trkpt lat="44.721" lon="5.67665">
        <ele>1161</ele>
        <time>2021-07-25T09:03:59Z</time>
      </trkpt>
      <trkpt lat="44.72105" lon="5.67666">
        <ele>1163</ele>
        <time>2021-07-25T09:04:00Z</time>
      </trkpt>
      <trkpt lat="44.72111" lon="5.67667">
        <ele>1163</ele>
        <time>2021-07-25T09:04:01Z</time>
      </trkpt>
      <trkpt lat="44.72116" lon="5.67668">
        <ele>1163</ele>
        <time>2021-07-25T09:04:02Z</time>
      </trkpt>
      <trkpt lat="44.72126" lon="5.67671">
        <ele>1163</ele>
        <time>2021-07-25T09:04:04Z</time>
      </trkpt>
      <trkpt lat="44.72132" lon="5.67672">
        <ele>1163</ele>
        <time>2021-07-25T09:04:05Z</time>
      </trkpt>
      <trkpt lat="44.72137" lon="5.67673">
        <ele>1163</ele>
        <time>2021-07-25T09:04:06Z</time>
      </trkpt>
      <trkpt lat="44.72142" lon="5.67675">
        <ele>1163</ele>
        <time>2021-07-25T09:04:07Z</time>
      </trkpt>
      <trkpt lat="44.72152" lon="5.67678">
        <ele>1163</ele>
        <time>2021-07-25T09:04:09Z</time>
      </trkpt>
      <trkpt lat="44.72157" lon="5.67679">
        <ele>1166</ele>
        <time>2021-07-25T09:04:10Z</time>
      </trkpt>
      <trkpt lat="44.72167" lon="5.67682">
        <ele>1166</ele>
        <time>2021-07-25T09:04:12Z</time>
      </trkpt>
      <trkpt lat="44.72178" lon="5.67685">
        <ele>1166</ele>
        <time>2021-07-25T09:04:14Z</time>
      </trkpt>
      <trkpt lat="44.72188" lon="5.67689">
        <ele>1167</ele>
        <time>2021-07-25T09:04:16Z</time>
      </trkpt>
      <trkpt lat="44.72199" lon="5.67692">
        <ele>1167</ele>
        <time>2021-07-25T09:04:18Z</time>
      </trkpt>
      <trkpt lat="44.72209" lon="5.67695">
        <ele>1168</ele>
        <time>2021-07-25T09:04:20Z</time>
      </trkpt>
      <trkpt lat="44.7222" lon="5.67698">
        <ele>1168</ele>
        <time>2021-07-25T09:04:22Z</time>
      </trkpt>
      <trkpt lat="44.7223" lon="5.67701">
        <ele>1168</ele>
        <time>2021-07-25T09:04:24Z</time>
      </trkpt>
      <trkpt lat="44.7224" lon="5.67704">
        <ele>1168</ele>
        <time>2021-07-25T09:04:26Z</time>
      </trkpt>
      <trkpt lat="44.72251" lon="5.67708">
        <ele>1168</ele>
        <time>2021-07-25T09:04:28Z</time>
      </trkpt>
      <trkpt lat="44.72261" lon="5.67711">
        <ele>1170</ele>
        <time>2021-07-25T09:04:30Z</time>
      </trkpt>
      <trkpt lat="44.72271" lon="5.67714">
        <ele>1170</ele>
        <time>2021-07-25T09:04:32Z</time>
      </trkpt>
      <trkpt lat="44.7228" lon="5.67717">
        <ele>1170</ele>
        <time>2021-07-25T09:04:34Z</time>
      </trkpt>
      <trkpt lat="44.7229" lon="5.6772">
        <ele>1172</ele>
        <time>2021-07-25T09:04:36Z</time>
      </trkpt>
      <trkpt lat="44.72304" lon="5.67725">
        <ele>1172</ele>
        <time>2021-07-25T09:04:39Z</time>
      </trkpt>
      <trkpt lat="44.72319" lon="5.6773">
        <ele>1174</ele>
        <time>2021-07-25T09:04:42Z</time>
      </trkpt>
      <trkpt lat="44.72329" lon="5.67732">
        <ele>1174</ele>
        <time>2021-07-25T09:04:44Z</time>
      </trkpt>
      <trkpt lat="44.72339" lon="5.67735">
        <ele>1176</ele>
        <time>2021-07-25T09:04:46Z</time>
      </trkpt>
      <trkpt lat="44.72349" lon="5.67738">
        <ele>1176</ele>
        <time>2021-07-25T09:04:48Z</time>
      </trkpt>
      <trkpt lat="44.72364" lon="5.67742">
        <ele>1177</ele>
        <time>2021-07-25T09:04:51Z</time>
      </trkpt>
      <trkpt lat="44.72378" lon="5.67747">
        <ele>1177</ele>
        <time>2021-07-25T09:04:54Z</time>
      </trkpt>
      <trkpt lat="44.72388" lon="5.6775">
        <ele>1178</ele>
        <time>2021-07-25T09:04:56Z</time>
      </trkpt>
      <trkpt lat="44.72399" lon="5.67754">
        <ele>1178</ele>
        <time>2021-07-25T09:04:58Z</time>
      </trkpt>
      <trkpt lat="44.7241" lon="5.67758">
        <ele>1178</ele>
        <time>2021-07-25T09:05:00Z</time>
      </trkpt>
      <trkpt lat="44.72423" lon="5.67761">
        <ele>1178</ele>
        <time>2021-07-25T09:05:02Z</time>
      </trkpt>
      <trkpt lat="44.72435" lon="5.67765">
        <ele>1178</ele>
        <time>2021-07-25T09:05:04Z</time>
      </trkpt>
      <trkpt lat="44.72448" lon="5.67768">
        <ele>1178</ele>
        <time>2021-07-25T09:05:06Z</time>
      </trkpt>
      <trkpt lat="44.72462" lon="5.67771">
        <ele>1178</ele>
        <time>2021-07-25T09:05:08Z</time>
      </trkpt>
      <trkpt lat="44.72477" lon="5.67774">
        <ele>1178</ele>
        <time>2021-07-25T09:05:10Z</time>
      </trkpt>
      <trkpt lat="44.72493" lon="5.67776">
        <ele>1178</ele>
        <time>2021-07-25T09:05:12Z</time>
      </trkpt>
      <trkpt lat="44.7251" lon="5.67777">
        <ele>1178</ele>
        <time>2021-07-25T09:05:14Z</time>
      </trkpt>
      <trkpt lat="44.72519" lon="5.67778">
        <ele>1178</ele>
        <time>2021-07-25T09:05:15Z</time>
      </trkpt>
      <trkpt lat="44.72538" lon="5.67779">
        <ele>1178</ele>
        <time>2021-07-25T09:05:17Z</time>
      </trkpt>
      <trkpt lat="44.72558" lon="5.67779">
        <ele>1178</ele>
        <time>2021-07-25T09:05:19Z</time>
      </trkpt>
      <trkpt lat="44.72568" lon="5.67779">
        <ele>1173</ele>
        <time>2021-07-25T09:05:20Z</time>
      </trkpt>
      <trkpt lat="44.72578" lon="5.6778">
        <ele>1173</ele>
        <time>2021-07-25T09:05:21Z</time>
      </trkpt>
      <trkpt lat="44.72589" lon="5.6778">
        <ele>1173</ele>
        <time>2021-07-25T09:05:22Z</time>
      </trkpt>
      <trkpt lat="44.72599" lon="5.67781">
        <ele>1173</ele>
        <time>2021-07-25T09:05:23Z</time>
      </trkpt>
      <trkpt lat="44.7261" lon="5.67781">
        <ele>1173</ele>
        <time>2021-07-25T09:05:24Z</time>
      </trkpt>
      <trkpt lat="44.72621" lon="5.67782">
        <ele>1173</ele>
        <time>2021-07-25T09:05:25Z</time>
      </trkpt>
      <trkpt lat="44.72632" lon="5.67783">
        <ele>1173</ele>
        <time>2021-07-25T09:05:26Z</time>
      </trkpt>
      <trkpt lat="44.72643" lon="5.67784">
        <ele>1173</ele>
        <time>2021-07-25T09:05:27Z</time>
      </trkpt>
      <trkpt lat="44.72654" lon="5.67785">
        <ele>1173</ele>
        <time>2021-07-25T09:05:28Z</time>
      </trkpt>
      <trkpt lat="44.72665" lon="5.67787">
        <ele>1173</ele>
        <time>2021-07-25T09:05:29Z</time>
      </trkpt>
      <trkpt lat="44.72676" lon="5.67788">
        <ele>1169</ele>
        <time>2021-07-25T09:05:30Z</time>
      </trkpt>
      <trkpt lat="44.72688" lon="5.6779">
        <ele>1169</ele>
        <time>2021-07-25T09:05:31Z</time>
      </trkpt>
      <trkpt lat="44.727" lon="5.67792">
        <ele>1169</ele>
        <time>2021-07-25T09:05:32Z</time>
      </trkpt>
      <trkpt lat="44.72711" lon="5.67795">
        <ele>1169</ele>
        <time>2021-07-25T09:05:33Z</time>
      </trkpt>
      <trkpt lat="44.72723" lon="5.67797">
        <ele>1169</ele>
        <time>2021-07-25T09:05:34Z</time>
      </trkpt>
      <trkpt lat="44.72735" lon="5.67799">
        <ele>1165</ele>
        <time>2021-07-25T09:05:35Z</time>
      </trkpt>
      <trkpt lat="44.72747" lon="5.67801">
        <ele>1165</ele>
        <time>2021-07-25T09:05:36Z</time>
      </trkpt>
      <trkpt lat="44.72759" lon="5.67803">
        <ele>1165</ele>
        <time>2021-07-25T09:05:37Z</time>
      </trkpt>
      <trkpt lat="44.72771" lon="5.67805">
        <ele>1165</ele>
        <time>2021-07-25T09:05:38Z</time>
      </trkpt>
      <trkpt lat="44.72783" lon="5.67808">
        <ele>1165</ele>
        <time>2021-07-25T09:05:39Z</time>
      </trkpt>
      <trkpt lat="44.72796" lon="5.67811">
        <ele>1161</ele>
        <time>2021-07-25T09:05:40Z</time>
      </trkpt>
      <trkpt lat="44.72807" lon="5.67815">
        <ele>1160</ele>
        <time>2021-07-25T09:05:41Z</time>
      </trkpt>
      <trkpt lat="44.72819" lon="5.67821">
        <ele>1160</ele>
        <time>2021-07-25T09:05:42Z</time>
      </trkpt>
      <trkpt lat="44.72831" lon="5.67827">
        <ele>1158</ele>
        <time>2021-07-25T09:05:43Z</time>
      </trkpt>
      <trkpt lat="44.72842" lon="5.67834">
        <ele>1153</ele>
        <time>2021-07-25T09:05:44Z</time>
      </trkpt>
      <trkpt lat="44.72854" lon="5.67841">
        <ele>1155</ele>
        <time>2021-07-25T09:05:45Z</time>
      </trkpt>
      <trkpt lat="44.72865" lon="5.67848">
        <ele>1156</ele>
        <time>2021-07-25T09:05:46Z</time>
      </trkpt>
      <trkpt lat="44.72877" lon="5.67854">
        <ele>1152</ele>
        <time>2021-07-25T09:05:47Z</time>
      </trkpt>
      <trkpt lat="44.72889" lon="5.6786">
        <ele>1153</ele>
        <time>2021-07-25T09:05:48Z</time>
      </trkpt>
      <trkpt lat="44.72901" lon="5.67865">
        <ele>1154</ele>
        <time>2021-07-25T09:05:49Z</time>
      </trkpt>
      <trkpt lat="44.72913" lon="5.67869">
        <ele>1153</ele>
        <time>2021-07-25T09:05:50Z</time>
      </trkpt>
      <trkpt lat="44.72925" lon="5.67872">
        <ele>1151</ele>
        <time>2021-07-25T09:05:51Z</time>
      </trkpt>
      <trkpt lat="44.72938" lon="5.67877">
        <ele>1151</ele>
        <time>2021-07-25T09:05:52Z</time>
      </trkpt>
      <trkpt lat="44.72959" lon="5.67897">
        <ele>1151</ele>
        <time>2021-07-25T09:05:54Z</time>
      </trkpt>
      <trkpt lat="44.72967" lon="5.6791">
        <ele>1150</ele>
        <time>2021-07-25T09:05:55Z</time>
      </trkpt>
      <trkpt lat="44.72975" lon="5.67925">
        <ele>1149</ele>
        <time>2021-07-25T09:05:56Z</time>
      </trkpt>
      <trkpt lat="44.72983" lon="5.67939">
        <ele>1148</ele>
        <time>2021-07-25T09:05:57Z</time>
      </trkpt>
      <trkpt lat="44.72994" lon="5.67949">
        <ele>1148</ele>
        <time>2021-07-25T09:05:58Z</time>
      </trkpt>
      <trkpt lat="44.73007" lon="5.67955">
        <ele>1147</ele>
        <time>2021-07-25T09:05:59Z</time>
      </trkpt>
      <trkpt lat="44.7302" lon="5.6796">
        <ele>1144</ele>
        <time>2021-07-25T09:06:00Z</time>
      </trkpt>
      <trkpt lat="44.73033" lon="5.67965">
        <ele>1144</ele>
        <time>2021-07-25T09:06:01Z</time>
      </trkpt>
      <trkpt lat="44.73046" lon="5.6797">
        <ele>1144</ele>
        <time>2021-07-25T09:06:02Z</time>
      </trkpt>
      <trkpt lat="44.73058" lon="5.67976">
        <ele>1144</ele>
        <time>2021-07-25T09:06:03Z</time>
      </trkpt>
      <trkpt lat="44.7307" lon="5.67986">
        <ele>1143</ele>
        <time>2021-07-25T09:06:04Z</time>
      </trkpt>
      <trkpt lat="44.73081" lon="5.67996">
        <ele>1143</ele>
        <time>2021-07-25T09:06:05Z</time>
      </trkpt>
      <trkpt lat="44.73093" lon="5.68007">
        <ele>1142</ele>
        <time>2021-07-25T09:06:06Z</time>
      </trkpt>
      <trkpt lat="44.73104" lon="5.68019">
        <ele>1141</ele>
        <time>2021-07-25T09:06:07Z</time>
      </trkpt>
      <trkpt lat="44.73115" lon="5.6803">
        <ele>1140</ele>
        <time>2021-07-25T09:06:08Z</time>
      </trkpt>
      <trkpt lat="44.73127" lon="5.68041">
        <ele>1139</ele>
        <time>2021-07-25T09:06:09Z</time>
      </trkpt>
      <trkpt lat="44.73137" lon="5.68051">
        <ele>1138</ele>
        <time>2021-07-25T09:06:10Z</time>
      </trkpt>
      <trkpt lat="44.73148" lon="5.68059">
        <ele>1137</ele>
        <time>2021-07-25T09:06:11Z</time>
      </trkpt>
      <trkpt lat="44.73159" lon="5.68061">
        <ele>1135</ele>
        <time>2021-07-25T09:06:12Z</time>
      </trkpt>
      <trkpt lat="44.7317" lon="5.68055">
        <ele>1135</ele>
        <time>2021-07-25T09:06:13Z</time>
      </trkpt>
      <trkpt lat="44.7318" lon="5.68046">
        <ele>1135</ele>
        <time>2021-07-25T09:06:14Z</time>
      </trkpt>
      <trkpt lat="44.73188" lon="5.68034">
        <ele>1134</ele>
        <time>2021-07-25T09:06:15Z</time>
      </trkpt>
      <trkpt lat="44.73197" lon="5.68022">
        <ele>1133</ele>
        <time>2021-07-25T09:06:16Z</time>
      </trkpt>
      <trkpt lat="44.73205" lon="5.68009">
        <ele>1133</ele>
        <time>2021-07-25T09:06:17Z</time>
      </trkpt>
      <trkpt lat="44.73214" lon="5.67997">
        <ele>1133</ele>
        <time>2021-07-25T09:06:18Z</time>
      </trkpt>
      <trkpt lat="44.73222" lon="5.67985">
        <ele>1132</ele>
        <time>2021-07-25T09:06:19Z</time>
      </trkpt>
      <trkpt lat="44.73231" lon="5.67974">
        <ele>1131</ele>
        <time>2021-07-25T09:06:20Z</time>
      </trkpt>
      <trkpt lat="44.73241" lon="5.6797">
        <ele>1130</ele>
        <time>2021-07-25T09:06:21Z</time>
      </trkpt>
      <trkpt lat="44.73252" lon="5.67973">
        <ele>1129</ele>
        <time>2021-07-25T09:06:22Z</time>
      </trkpt>
      <trkpt lat="44.7326" lon="5.67985">
        <ele>1128</ele>
        <time>2021-07-25T09:06:23Z</time>
      </trkpt>
      <trkpt lat="44.73264" lon="5.68002">
        <ele>1127</ele>
        <time>2021-07-25T09:06:24Z</time>
      </trkpt>
      <trkpt lat="44.73265" lon="5.68019">
        <ele>1127</ele>
        <time>2021-07-25T09:06:25Z</time>
      </trkpt>
      <trkpt lat="44.7327" lon="5.68035">
        <ele>1127</ele>
        <time>2021-07-25T09:06:26Z</time>
      </trkpt>
      <trkpt lat="44.73277" lon="5.68049">
        <ele>1126</ele>
        <time>2021-07-25T09:06:27Z</time>
      </trkpt>
      <trkpt lat="44.73286" lon="5.6806">
        <ele>1126</ele>
        <time>2021-07-25T09:06:28Z</time>
      </trkpt>
      <trkpt lat="44.73297" lon="5.68069">
        <ele>1124</ele>
        <time>2021-07-25T09:06:29Z</time>
      </trkpt>
      <trkpt lat="44.73309" lon="5.68075">
        <ele>1123</ele>
        <time>2021-07-25T09:06:30Z</time>
      </trkpt>
      <trkpt lat="44.73321" lon="5.6808">
        <ele>1123</ele>
        <time>2021-07-25T09:06:31Z</time>
      </trkpt>
      <trkpt lat="44.73334" lon="5.68086">
        <ele>1122</ele>
        <time>2021-07-25T09:06:32Z</time>
      </trkpt>
      <trkpt lat="44.73346" lon="5.68092">
        <ele>1122</ele>
        <time>2021-07-25T09:06:33Z</time>
      </trkpt>
      <trkpt lat="44.73358" lon="5.68098">
        <ele>1121</ele>
        <time>2021-07-25T09:06:34Z</time>
      </trkpt>
      <trkpt lat="44.73371" lon="5.68101">
        <ele>1120</ele>
        <time>2021-07-25T09:06:35Z</time>
      </trkpt>
      <trkpt lat="44.73384" lon="5.68102">
        <ele>1120</ele>
        <time>2021-07-25T09:06:36Z</time>
      </trkpt>
      <trkpt lat="44.73398" lon="5.68103">
        <ele>1118</ele>
        <time>2021-07-25T09:06:37Z</time>
      </trkpt>
      <trkpt lat="44.73411" lon="5.68104">
        <ele>1118</ele>
        <time>2021-07-25T09:06:38Z</time>
      </trkpt>
      <trkpt lat="44.73424" lon="5.68109">
        <ele>1118</ele>
        <time>2021-07-25T09:06:39Z</time>
      </trkpt>
      <trkpt lat="44.73437" lon="5.68115">
        <ele>1117</ele>
        <time>2021-07-25T09:06:40Z</time>
      </trkpt>
      <trkpt lat="44.73449" lon="5.68122">
        <ele>1116</ele>
        <time>2021-07-25T09:06:41Z</time>
      </trkpt>
      <trkpt lat="44.73463" lon="5.68127">
        <ele>1116</ele>
        <time>2021-07-25T09:06:42Z</time>
      </trkpt>
      <trkpt lat="44.73476" lon="5.68132">
        <ele>1114</ele>
        <time>2021-07-25T09:06:43Z</time>
      </trkpt>
      <trkpt lat="44.7349" lon="5.68134">
        <ele>1113</ele>
        <time>2021-07-25T09:06:44Z</time>
      </trkpt>
      <trkpt lat="44.73504" lon="5.68135">
        <ele>1113</ele>
        <time>2021-07-25T09:06:45Z</time>
      </trkpt>
      <trkpt lat="44.73518" lon="5.68134">
        <ele>1111</ele>
        <time>2021-07-25T09:06:46Z</time>
      </trkpt>
      <trkpt lat="44.73531" lon="5.68131">
        <ele>1110</ele>
        <time>2021-07-25T09:06:47Z</time>
      </trkpt>
      <trkpt lat="44.73544" lon="5.68126">
        <ele>1109</ele>
        <time>2021-07-25T09:06:48Z</time>
      </trkpt>
      <trkpt lat="44.73557" lon="5.6812">
        <ele>1109</ele>
        <time>2021-07-25T09:06:49Z</time>
      </trkpt>
      <trkpt lat="44.7357" lon="5.68113">
        <ele>1108</ele>
        <time>2021-07-25T09:06:50Z</time>
      </trkpt>
      <trkpt lat="44.73583" lon="5.68106">
        <ele>1107</ele>
        <time>2021-07-25T09:06:51Z</time>
      </trkpt>
      <trkpt lat="44.73595" lon="5.68098">
        <ele>1107</ele>
        <time>2021-07-25T09:06:52Z</time>
      </trkpt>
      <trkpt lat="44.73607" lon="5.68089">
        <ele>1106</ele>
        <time>2021-07-25T09:06:53Z</time>
      </trkpt>
      <trkpt lat="44.73619" lon="5.68079">
        <ele>1104</ele>
        <time>2021-07-25T09:06:54Z</time>
      </trkpt>
      <trkpt lat="44.73631" lon="5.68068">
        <ele>1103</ele>
        <time>2021-07-25T09:06:55Z</time>
      </trkpt>
      <trkpt lat="44.73642" lon="5.68057">
        <ele>1102</ele>
        <time>2021-07-25T09:06:56Z</time>
      </trkpt>
      <trkpt lat="44.73654" lon="5.68047">
        <ele>1101</ele>
        <time>2021-07-25T09:06:57Z</time>
      </trkpt>
      <trkpt lat="44.73666" lon="5.68038">
        <ele>1100</ele>
        <time>2021-07-25T09:06:58Z</time>
      </trkpt>
      <trkpt lat="44.73679" lon="5.68032">
        <ele>1100</ele>
        <time>2021-07-25T09:06:59Z</time>
      </trkpt>
      <trkpt lat="44.73692" lon="5.68029">
        <ele>1100</ele>
        <time>2021-07-25T09:07:00Z</time>
      </trkpt>
      <trkpt lat="44.73706" lon="5.68027">
        <ele>1100</ele>
        <time>2021-07-25T09:07:01Z</time>
      </trkpt>
      <trkpt lat="44.7372" lon="5.68027">
        <ele>1098</ele>
        <time>2021-07-25T09:07:02Z</time>
      </trkpt>
      <trkpt lat="44.73733" lon="5.68027">
        <ele>1097</ele>
        <time>2021-07-25T09:07:03Z</time>
      </trkpt>
      <trkpt lat="44.73747" lon="5.68027">
        <ele>1096</ele>
        <time>2021-07-25T09:07:04Z</time>
      </trkpt>
      <trkpt lat="44.7376" lon="5.68027">
        <ele>1095</ele>
        <time>2021-07-25T09:07:05Z</time>
      </trkpt>
      <trkpt lat="44.73773" lon="5.68023">
        <ele>1092</ele>
        <time>2021-07-25T09:07:06Z</time>
      </trkpt>
      <trkpt lat="44.73784" lon="5.68014">
        <ele>1091</ele>
        <time>2021-07-25T09:07:07Z</time>
      </trkpt>
      <trkpt lat="44.73793" lon="5.68">
        <ele>1091</ele>
        <time>2021-07-25T09:07:08Z</time>
      </trkpt>
      <trkpt lat="44.73799" lon="5.67984">
        <ele>1091</ele>
        <time>2021-07-25T09:07:09Z</time>
      </trkpt>
      <trkpt lat="44.73803" lon="5.67967">
        <ele>1091</ele>
        <time>2021-07-25T09:07:10Z</time>
      </trkpt>
      <trkpt lat="44.73805" lon="5.6795">
        <ele>1091</ele>
        <time>2021-07-25T09:07:11Z</time>
      </trkpt>
      <trkpt lat="44.73805" lon="5.67933">
        <ele>1090</ele>
        <time>2021-07-25T09:07:12Z</time>
      </trkpt>
      <trkpt lat="44.73805" lon="5.67915">
        <ele>1088</ele>
        <time>2021-07-25T09:07:13Z</time>
      </trkpt>
      <trkpt lat="44.73807" lon="5.67897">
        <ele>1087</ele>
        <time>2021-07-25T09:07:14Z</time>
      </trkpt>
      <trkpt lat="44.73812" lon="5.67879">
        <ele>1086</ele>
        <time>2021-07-25T09:07:15Z</time>
      </trkpt>
      <trkpt lat="44.73819" lon="5.67864">
        <ele>1086</ele>
        <time>2021-07-25T09:07:16Z</time>
      </trkpt>
      <trkpt lat="44.7383" lon="5.67852">
        <ele>1086</ele>
        <time>2021-07-25T09:07:17Z</time>
      </trkpt>
      <trkpt lat="44.73841" lon="5.67843">
        <ele>1084</ele>
        <time>2021-07-25T09:07:18Z</time>
      </trkpt>
      <trkpt lat="44.73852" lon="5.67833">
        <ele>1083</ele>
        <time>2021-07-25T09:07:19Z</time>
      </trkpt>
      <trkpt lat="44.73862" lon="5.67821">
        <ele>1082</ele>
        <time>2021-07-25T09:07:20Z</time>
      </trkpt>
      <trkpt lat="44.73869" lon="5.67807">
        <ele>1082</ele>
        <time>2021-07-25T09:07:21Z</time>
      </trkpt>
      <trkpt lat="44.73874" lon="5.67792">
        <ele>1080</ele>
        <time>2021-07-25T09:07:22Z</time>
      </trkpt>
      <trkpt lat="44.7388" lon="5.6778">
        <ele>1079</ele>
        <time>2021-07-25T09:07:23Z</time>
      </trkpt>
      <trkpt lat="44.73896" lon="5.67765">
        <ele>1079</ele>
        <time>2021-07-25T09:07:25Z</time>
      </trkpt>
      <trkpt lat="44.73913" lon="5.67777">
        <ele>1078</ele>
        <time>2021-07-25T09:07:27Z</time>
      </trkpt>
      <trkpt lat="44.7392" lon="5.6779">
        <ele>1077</ele>
        <time>2021-07-25T09:07:28Z</time>
      </trkpt>
      <trkpt lat="44.73925" lon="5.67805">
        <ele>1077</ele>
        <time>2021-07-25T09:07:29Z</time>
      </trkpt>
      <trkpt lat="44.73929" lon="5.67821">
        <ele>1077</ele>
        <time>2021-07-25T09:07:30Z</time>
      </trkpt>
      <trkpt lat="44.73932" lon="5.67837">
        <ele>1077</ele>
        <time>2021-07-25T09:07:31Z</time>
      </trkpt>
      <trkpt lat="44.73937" lon="5.67853">
        <ele>1075</ele>
        <time>2021-07-25T09:07:32Z</time>
      </trkpt>
      <trkpt lat="44.73941" lon="5.67869">
        <ele>1074</ele>
        <time>2021-07-25T09:07:33Z</time>
      </trkpt>
      <trkpt lat="44.73946" lon="5.67885">
        <ele>1073</ele>
        <time>2021-07-25T09:07:34Z</time>
      </trkpt>
      <trkpt lat="44.7395" lon="5.67902">
        <ele>1072</ele>
        <time>2021-07-25T09:07:35Z</time>
      </trkpt>
      <trkpt lat="44.73954" lon="5.67919">
        <ele>1071</ele>
        <time>2021-07-25T09:07:36Z</time>
      </trkpt>
      <trkpt lat="44.73958" lon="5.67937">
        <ele>1071</ele>
        <time>2021-07-25T09:07:37Z</time>
      </trkpt>
      <trkpt lat="44.73961" lon="5.67955">
        <ele>1070</ele>
        <time>2021-07-25T09:07:38Z</time>
      </trkpt>
      <trkpt lat="44.73964" lon="5.67973">
        <ele>1070</ele>
        <time>2021-07-25T09:07:39Z</time>
      </trkpt>
      <trkpt lat="44.73968" lon="5.6799">
        <ele>1069</ele>
        <time>2021-07-25T09:07:40Z</time>
      </trkpt>
      <trkpt lat="44.73975" lon="5.68005">
        <ele>1068</ele>
        <time>2021-07-25T09:07:41Z</time>
      </trkpt>
      <trkpt lat="44.73984" lon="5.68018">
        <ele>1067</ele>
        <time>2021-07-25T09:07:42Z</time>
      </trkpt>
      <trkpt lat="44.73994" lon="5.68028">
        <ele>1066</ele>
        <time>2021-07-25T09:07:43Z</time>
      </trkpt>
      <trkpt lat="44.74006" lon="5.68036">
        <ele>1066</ele>
        <time>2021-07-25T09:07:44Z</time>
      </trkpt>
      <trkpt lat="44.74018" lon="5.68043">
        <ele>1064</ele>
        <time>2021-07-25T09:07:45Z</time>
      </trkpt>
      <trkpt lat="44.74042" lon="5.68056">
        <ele>1064</ele>
        <time>2021-07-25T09:07:47Z</time>
      </trkpt>
      <trkpt lat="44.74055" lon="5.68061">
        <ele>1063</ele>
        <time>2021-07-25T09:07:48Z</time>
      </trkpt>
      <trkpt lat="44.74067" lon="5.68068">
        <ele>1061</ele>
        <time>2021-07-25T09:07:49Z</time>
      </trkpt>
      <trkpt lat="44.74079" lon="5.68074">
        <ele>1060</ele>
        <time>2021-07-25T09:07:50Z</time>
      </trkpt>
      <trkpt lat="44.74092" lon="5.6808">
        <ele>1060</ele>
        <time>2021-07-25T09:07:51Z</time>
      </trkpt>
      <trkpt lat="44.74105" lon="5.68086">
        <ele>1059</ele>
        <time>2021-07-25T09:07:52Z</time>
      </trkpt>
      <trkpt lat="44.74117" lon="5.68091">
        <ele>1058</ele>
        <time>2021-07-25T09:07:53Z</time>
      </trkpt>
      <trkpt lat="44.74131" lon="5.68096">
        <ele>1057</ele>
        <time>2021-07-25T09:07:54Z</time>
      </trkpt>
      <trkpt lat="44.74144" lon="5.681">
        <ele>1056</ele>
        <time>2021-07-25T09:07:55Z</time>
      </trkpt>
      <trkpt lat="44.74157" lon="5.68103">
        <ele>1056</ele>
        <time>2021-07-25T09:07:56Z</time>
      </trkpt>
      <trkpt lat="44.7417" lon="5.68106">
        <ele>1055</ele>
        <time>2021-07-25T09:07:57Z</time>
      </trkpt>
      <trkpt lat="44.74183" lon="5.68108">
        <ele>1055</ele>
        <time>2021-07-25T09:07:58Z</time>
      </trkpt>
      <trkpt lat="44.74196" lon="5.6811">
        <ele>1054</ele>
        <time>2021-07-25T09:07:59Z</time>
      </trkpt>
      <trkpt lat="44.74209" lon="5.68112">
        <ele>1052</ele>
        <time>2021-07-25T09:08:00Z</time>
      </trkpt>
      <trkpt lat="44.74223" lon="5.68114">
        <ele>1052</ele>
        <time>2021-07-25T09:08:01Z</time>
      </trkpt>
      <trkpt lat="44.74236" lon="5.68116">
        <ele>1052</ele>
        <time>2021-07-25T09:08:02Z</time>
      </trkpt>
      <trkpt lat="44.74249" lon="5.68118">
        <ele>1051</ele>
        <time>2021-07-25T09:08:03Z</time>
      </trkpt>
      <trkpt lat="44.74263" lon="5.6812">
        <ele>1049</ele>
        <time>2021-07-25T09:08:04Z</time>
      </trkpt>
      <trkpt lat="44.74276" lon="5.68122">
        <ele>1048</ele>
        <time>2021-07-25T09:08:05Z</time>
      </trkpt>
      <trkpt lat="44.7429" lon="5.68124">
        <ele>1048</ele>
        <time>2021-07-25T09:08:06Z</time>
      </trkpt>
      <trkpt lat="44.74303" lon="5.68126">
        <ele>1046</ele>
        <time>2021-07-25T09:08:07Z</time>
      </trkpt>
      <trkpt lat="44.74317" lon="5.68129">
        <ele>1046</ele>
        <time>2021-07-25T09:08:08Z</time>
      </trkpt>
      <trkpt lat="44.7433" lon="5.68133">
        <ele>1045</ele>
        <time>2021-07-25T09:08:09Z</time>
      </trkpt>
      <trkpt lat="44.74343" lon="5.68138">
        <ele>1044</ele>
        <time>2021-07-25T09:08:10Z</time>
      </trkpt>
      <trkpt lat="44.74356" lon="5.68144">
        <ele>1043</ele>
        <time>2021-07-25T09:08:11Z</time>
      </trkpt>
      <trkpt lat="44.74368" lon="5.6815">
        <ele>1042</ele>
        <time>2021-07-25T09:08:12Z</time>
      </trkpt>
      <trkpt lat="44.74381" lon="5.68155">
        <ele>1042</ele>
        <time>2021-07-25T09:08:13Z</time>
      </trkpt>
      <trkpt lat="44.74394" lon="5.68156">
        <ele>1041</ele>
        <time>2021-07-25T09:08:14Z</time>
      </trkpt>
      <trkpt lat="44.74407" lon="5.68155">
        <ele>1040</ele>
        <time>2021-07-25T09:08:15Z</time>
      </trkpt>
      <trkpt lat="44.74419" lon="5.68151">
        <ele>1039</ele>
        <time>2021-07-25T09:08:16Z</time>
      </trkpt>
      <trkpt lat="44.74431" lon="5.68145">
        <ele>1038</ele>
        <time>2021-07-25T09:08:17Z</time>
      </trkpt>
      <trkpt lat="44.74442" lon="5.68136">
        <ele>1037</ele>
        <time>2021-07-25T09:08:18Z</time>
      </trkpt>
      <trkpt lat="44.74453" lon="5.68125">
        <ele>1037</ele>
        <time>2021-07-25T09:08:19Z</time>
      </trkpt>
      <trkpt lat="44.74463" lon="5.68113">
        <ele>1036</ele>
        <time>2021-07-25T09:08:20Z</time>
      </trkpt>
      <trkpt lat="44.74472" lon="5.681">
        <ele>1035</ele>
        <time>2021-07-25T09:08:21Z</time>
      </trkpt>
      <trkpt lat="44.74481" lon="5.68088">
        <ele>1035</ele>
        <time>2021-07-25T09:08:22Z</time>
      </trkpt>
      <trkpt lat="44.74491" lon="5.68076">
        <ele>1034</ele>
        <time>2021-07-25T09:08:23Z</time>
      </trkpt>
      <trkpt lat="44.74502" lon="5.68065">
        <ele>1034</ele>
        <time>2021-07-25T09:08:24Z</time>
      </trkpt>
      <trkpt lat="44.74513" lon="5.68056">
        <ele>1033</ele>
        <time>2021-07-25T09:08:25Z</time>
      </trkpt>
      <trkpt lat="44.74524" lon="5.68047">
        <ele>1032</ele>
        <time>2021-07-25T09:08:26Z</time>
      </trkpt>
      <trkpt lat="44.74535" lon="5.68038">
        <ele>1031</ele>
        <time>2021-07-25T09:08:27Z</time>
      </trkpt>
      <trkpt lat="44.74546" lon="5.68028">
        <ele>1030</ele>
        <time>2021-07-25T09:08:28Z</time>
      </trkpt>
      <trkpt lat="44.74556" lon="5.68018">
        <ele>1029</ele>
        <time>2021-07-25T09:08:29Z</time>
      </trkpt>
      <trkpt lat="44.74566" lon="5.68006">
        <ele>1028</ele>
        <time>2021-07-25T09:08:30Z</time>
      </trkpt>
      <trkpt lat="44.74575" lon="5.67993">
        <ele>1028</ele>
        <time>2021-07-25T09:08:31Z</time>
      </trkpt>
      <trkpt lat="44.74583" lon="5.6798">
        <ele>1028</ele>
        <time>2021-07-25T09:08:32Z</time>
      </trkpt>
      <trkpt lat="44.74591" lon="5.67966">
        <ele>1028</ele>
        <time>2021-07-25T09:08:33Z</time>
      </trkpt>
      <trkpt lat="44.74599" lon="5.67953">
        <ele>1027</ele>
        <time>2021-07-25T09:08:34Z</time>
      </trkpt>
      <trkpt lat="44.74607" lon="5.67939">
        <ele>1026</ele>
        <time>2021-07-25T09:08:35Z</time>
      </trkpt>
      <trkpt lat="44.74616" lon="5.67925">
        <ele>1025</ele>
        <time>2021-07-25T09:08:36Z</time>
      </trkpt>
      <trkpt lat="44.74624" lon="5.67912">
        <ele>1024</ele>
        <time>2021-07-25T09:08:37Z</time>
      </trkpt>
      <trkpt lat="44.74633" lon="5.67899">
        <ele>1022</ele>
        <time>2021-07-25T09:08:38Z</time>
      </trkpt>
      <trkpt lat="44.74643" lon="5.67888">
        <ele>1021</ele>
        <time>2021-07-25T09:08:39Z</time>
      </trkpt>
      <trkpt lat="44.74654" lon="5.6788">
        <ele>1021</ele>
        <time>2021-07-25T09:08:40Z</time>
      </trkpt>
      <trkpt lat="44.74666" lon="5.67876">
        <ele>1021</ele>
        <time>2021-07-25T09:08:41Z</time>
      </trkpt>
      <trkpt lat="44.74679" lon="5.67875">
        <ele>1020</ele>
        <time>2021-07-25T09:08:42Z</time>
      </trkpt>
      <trkpt lat="44.74692" lon="5.67874">
        <ele>1019</ele>
        <time>2021-07-25T09:08:43Z</time>
      </trkpt>
      <trkpt lat="44.74704" lon="5.67872">
        <ele>1019</ele>
        <time>2021-07-25T09:08:44Z</time>
      </trkpt>
      <trkpt lat="44.74716" lon="5.67869">
        <ele>1018</ele>
        <time>2021-07-25T09:08:45Z</time>
      </trkpt>
      <trkpt lat="44.74728" lon="5.67864">
        <ele>1017</ele>
        <time>2021-07-25T09:08:46Z</time>
      </trkpt>
      <trkpt lat="44.7474" lon="5.67857">
        <ele>1017</ele>
        <time>2021-07-25T09:08:47Z</time>
      </trkpt>
      <trkpt lat="44.74751" lon="5.6785">
        <ele>1012</ele>
        <time>2021-07-25T09:08:48Z</time>
      </trkpt>
      <trkpt lat="44.74762" lon="5.67841">
        <ele>1012</ele>
        <time>2021-07-25T09:08:49Z</time>
      </trkpt>
      <trkpt lat="44.74773" lon="5.67831">
        <ele>1014</ele>
        <time>2021-07-25T09:08:50Z</time>
      </trkpt>
      <trkpt lat="44.74783" lon="5.6782">
        <ele>1014</ele>
        <time>2021-07-25T09:08:51Z</time>
      </trkpt>
      <trkpt lat="44.74792" lon="5.67808">
        <ele>1013</ele>
        <time>2021-07-25T09:08:52Z</time>
      </trkpt>
      <trkpt lat="44.74801" lon="5.67796">
        <ele>1012</ele>
        <time>2021-07-25T09:08:53Z</time>
      </trkpt>
      <trkpt lat="44.74811" lon="5.67783">
        <ele>1011</ele>
        <time>2021-07-25T09:08:54Z</time>
      </trkpt>
      <trkpt lat="44.7482" lon="5.67771">
        <ele>1010</ele>
        <time>2021-07-25T09:08:55Z</time>
      </trkpt>
      <trkpt lat="44.74829" lon="5.67758">
        <ele>1010</ele>
        <time>2021-07-25T09:08:56Z</time>
      </trkpt>
      <trkpt lat="44.74839" lon="5.67745">
        <ele>1010</ele>
        <time>2021-07-25T09:08:57Z</time>
      </trkpt>
      <trkpt lat="44.74848" lon="5.67732">
        <ele>1010</ele>
        <time>2021-07-25T09:08:58Z</time>
      </trkpt>
      <trkpt lat="44.74857" lon="5.67719">
        <ele>1008</ele>
        <time>2021-07-25T09:08:59Z</time>
      </trkpt>
      <trkpt lat="44.74866" lon="5.67705">
        <ele>1006</ele>
        <time>2021-07-25T09:09:00Z</time>
      </trkpt>
      <trkpt lat="44.74874" lon="5.6769">
        <ele>1007</ele>
        <time>2021-07-25T09:09:01Z</time>
      </trkpt>
      <trkpt lat="44.74883" lon="5.67676">
        <ele>1006</ele>
        <time>2021-07-25T09:09:02Z</time>
      </trkpt>
      <trkpt lat="44.74891" lon="5.67661">
        <ele>1005</ele>
        <time>2021-07-25T09:09:03Z</time>
      </trkpt>
      <trkpt lat="44.74899" lon="5.67646">
        <ele>1004</ele>
        <time>2021-07-25T09:09:04Z</time>
      </trkpt>
      <trkpt lat="44.74907" lon="5.6763">
        <ele>1002</ele>
        <time>2021-07-25T09:09:05Z</time>
      </trkpt>
      <trkpt lat="44.74915" lon="5.67615">
        <ele>1002</ele>
        <time>2021-07-25T09:09:06Z</time>
      </trkpt>
      <trkpt lat="44.74923" lon="5.67598">
        <ele>1002</ele>
        <time>2021-07-25T09:09:07Z</time>
      </trkpt>
      <trkpt lat="44.7493" lon="5.67582">
        <ele>1001</ele>
        <time>2021-07-25T09:09:08Z</time>
      </trkpt>
      <trkpt lat="44.74938" lon="5.67566">
        <ele>999</ele>
        <time>2021-07-25T09:09:09Z</time>
      </trkpt>
      <trkpt lat="44.74945" lon="5.67549">
        <ele>999</ele>
        <time>2021-07-25T09:09:10Z</time>
      </trkpt>
      <trkpt lat="44.74952" lon="5.67533">
        <ele>999</ele>
        <time>2021-07-25T09:09:11Z</time>
      </trkpt>
      <trkpt lat="44.74959" lon="5.67518">
        <ele>997</ele>
        <time>2021-07-25T09:09:12Z</time>
      </trkpt>
      <trkpt lat="44.74967" lon="5.67503">
        <ele>996</ele>
        <time>2021-07-25T09:09:13Z</time>
      </trkpt>
      <trkpt lat="44.74976" lon="5.67489">
        <ele>995</ele>
        <time>2021-07-25T09:09:14Z</time>
      </trkpt>
      <trkpt lat="44.74986" lon="5.67476">
        <ele>994</ele>
        <time>2021-07-25T09:09:15Z</time>
      </trkpt>
      <trkpt lat="44.74996" lon="5.67464">
        <ele>993</ele>
        <time>2021-07-25T09:09:16Z</time>
      </trkpt>
      <trkpt lat="44.75007" lon="5.67453">
        <ele>992</ele>
        <time>2021-07-25T09:09:17Z</time>
      </trkpt>
      <trkpt lat="44.75017" lon="5.67442">
        <ele>992</ele>
        <time>2021-07-25T09:09:18Z</time>
      </trkpt>
      <trkpt lat="44.75028" lon="5.67431">
        <ele>991</ele>
        <time>2021-07-25T09:09:19Z</time>
      </trkpt>
      <trkpt lat="44.75038" lon="5.6742">
        <ele>988</ele>
        <time>2021-07-25T09:09:20Z</time>
      </trkpt>
      <trkpt lat="44.75049" lon="5.67408">
        <ele>989</ele>
        <time>2021-07-25T09:09:21Z</time>
      </trkpt>
      <trkpt lat="44.75059" lon="5.67396">
        <ele>990</ele>
        <time>2021-07-25T09:09:22Z</time>
      </trkpt>
      <trkpt lat="44.75068" lon="5.67382">
        <ele>988</ele>
        <time>2021-07-25T09:09:23Z</time>
      </trkpt>
      <trkpt lat="44.75076" lon="5.67368">
        <ele>985</ele>
        <time>2021-07-25T09:09:24Z</time>
      </trkpt>
      <trkpt lat="44.75085" lon="5.67354">
        <ele>986</ele>
        <time>2021-07-25T09:09:25Z</time>
      </trkpt>
      <trkpt lat="44.75093" lon="5.6734">
        <ele>986</ele>
        <time>2021-07-25T09:09:26Z</time>
      </trkpt>
      <trkpt lat="44.75102" lon="5.67326">
        <ele>986</ele>
        <time>2021-07-25T09:09:27Z</time>
      </trkpt>
      <trkpt lat="44.75111" lon="5.67312">
        <ele>985</ele>
        <time>2021-07-25T09:09:28Z</time>
      </trkpt>
      <trkpt lat="44.75121" lon="5.67298">
        <ele>985</ele>
        <time>2021-07-25T09:09:29Z</time>
      </trkpt>
      <trkpt lat="44.7513" lon="5.67285">
        <ele>984</ele>
        <time>2021-07-25T09:09:30Z</time>
      </trkpt>
      <trkpt lat="44.7514" lon="5.67273">
        <ele>984</ele>
        <time>2021-07-25T09:09:31Z</time>
      </trkpt>
      <trkpt lat="44.7515" lon="5.6726">
        <ele>984</ele>
        <time>2021-07-25T09:09:32Z</time>
      </trkpt>
      <trkpt lat="44.75161" lon="5.67247">
        <ele>984</ele>
        <time>2021-07-25T09:09:33Z</time>
      </trkpt>
      <trkpt lat="44.75171" lon="5.67235">
        <ele>984</ele>
        <time>2021-07-25T09:09:34Z</time>
      </trkpt>
      <trkpt lat="44.75181" lon="5.67222">
        <ele>980</ele>
        <time>2021-07-25T09:09:35Z</time>
      </trkpt>
      <trkpt lat="44.75192" lon="5.67209">
        <ele>980</ele>
        <time>2021-07-25T09:09:36Z</time>
      </trkpt>
      <trkpt lat="44.75203" lon="5.67196">
        <ele>980</ele>
        <time>2021-07-25T09:09:37Z</time>
      </trkpt>
      <trkpt lat="44.75224" lon="5.67169">
        <ele>980</ele>
        <time>2021-07-25T09:09:39Z</time>
      </trkpt>
      <trkpt lat="44.75234" lon="5.67156">
        <ele>977</ele>
        <time>2021-07-25T09:09:40Z</time>
      </trkpt>
      <trkpt lat="44.75245" lon="5.67143">
        <ele>974</ele>
        <time>2021-07-25T09:09:41Z</time>
      </trkpt>
      <trkpt lat="44.75255" lon="5.6713">
        <ele>973</ele>
        <time>2021-07-25T09:09:42Z</time>
      </trkpt>
      <trkpt lat="44.75266" lon="5.67118">
        <ele>972</ele>
        <time>2021-07-25T09:09:43Z</time>
      </trkpt>
      <trkpt lat="44.75276" lon="5.67105">
        <ele>972</ele>
        <time>2021-07-25T09:09:44Z</time>
      </trkpt>
      <trkpt lat="44.75286" lon="5.67093">
        <ele>971</ele>
        <time>2021-07-25T09:09:45Z</time>
      </trkpt>
      <trkpt lat="44.75296" lon="5.6708">
        <ele>970</ele>
        <time>2021-07-25T09:09:46Z</time>
      </trkpt>
      <trkpt lat="44.75307" lon="5.67068">
        <ele>969</ele>
        <time>2021-07-25T09:09:47Z</time>
      </trkpt>
      <trkpt lat="44.75317" lon="5.67055">
        <ele>969</ele>
        <time>2021-07-25T09:09:48Z</time>
      </trkpt>
      <trkpt lat="44.75327" lon="5.67043">
        <ele>968</ele>
        <time>2021-07-25T09:09:49Z</time>
      </trkpt>
      <trkpt lat="44.75337" lon="5.67031">
        <ele>968</ele>
        <time>2021-07-25T09:09:50Z</time>
      </trkpt>
      <trkpt lat="44.75346" lon="5.67019">
        <ele>968</ele>
        <time>2021-07-25T09:09:51Z</time>
      </trkpt>
      <trkpt lat="44.75354" lon="5.67008">
        <ele>966</ele>
        <time>2021-07-25T09:09:52Z</time>
      </trkpt>
      <trkpt lat="44.75361" lon="5.66997">
        <ele>965</ele>
        <time>2021-07-25T09:09:53Z</time>
      </trkpt>
      <trkpt lat="44.75367" lon="5.66986">
        <ele>964</ele>
        <time>2021-07-25T09:09:54Z</time>
      </trkpt>
      <trkpt lat="44.75371" lon="5.66976">
        <ele>963</ele>
        <time>2021-07-25T09:09:55Z</time>
      </trkpt>
      <trkpt lat="44.75377" lon="5.66959">
        <ele>962</ele>
        <time>2021-07-25T09:09:57Z</time>
      </trkpt>
      <trkpt lat="44.75385" lon="5.66951">
        <ele>961</ele>
        <time>2021-07-25T09:09:59Z</time>
      </trkpt>
      <trkpt lat="44.75393" lon="5.66963">
        <ele>961</ele>
        <time>2021-07-25T09:10:01Z</time>
      </trkpt>
      <trkpt lat="44.75394" lon="5.66981">
        <ele>961</ele>
        <time>2021-07-25T09:10:03Z</time>
      </trkpt>
      <trkpt lat="44.75393" lon="5.67003">
        <ele>961</ele>
        <time>2021-07-25T09:10:05Z</time>
      </trkpt>
      <trkpt lat="44.75391" lon="5.67015">
        <ele>961</ele>
        <time>2021-07-25T09:10:06Z</time>
      </trkpt>
      <trkpt lat="44.75389" lon="5.67028">
        <ele>960</ele>
        <time>2021-07-25T09:10:07Z</time>
      </trkpt>
      <trkpt lat="44.75388" lon="5.67042">
        <ele>959</ele>
        <time>2021-07-25T09:10:08Z</time>
      </trkpt>
      <trkpt lat="44.75387" lon="5.67057">
        <ele>957</ele>
        <time>2021-07-25T09:10:09Z</time>
      </trkpt>
      <trkpt lat="44.75386" lon="5.67072">
        <ele>956</ele>
        <time>2021-07-25T09:10:10Z</time>
      </trkpt>
      <trkpt lat="44.75384" lon="5.67088">
        <ele>956</ele>
        <time>2021-07-25T09:10:11Z</time>
      </trkpt>
      <trkpt lat="44.75382" lon="5.67105">
        <ele>956</ele>
        <time>2021-07-25T09:10:12Z</time>
      </trkpt>
      <trkpt lat="44.75379" lon="5.67122">
        <ele>956</ele>
        <time>2021-07-25T09:10:13Z</time>
      </trkpt>
      <trkpt lat="44.75374" lon="5.67139">
        <ele>956</ele>
        <time>2021-07-25T09:10:14Z</time>
      </trkpt>
      <trkpt lat="44.75369" lon="5.67155">
        <ele>953</ele>
        <time>2021-07-25T09:10:15Z</time>
      </trkpt>
      <trkpt lat="44.75364" lon="5.67171">
        <ele>953</ele>
        <time>2021-07-25T09:10:16Z</time>
      </trkpt>
      <trkpt lat="44.75359" lon="5.67188">
        <ele>953</ele>
        <time>2021-07-25T09:10:17Z</time>
      </trkpt>
      <trkpt lat="44.75355" lon="5.67204">
        <ele>953</ele>
        <time>2021-07-25T09:10:18Z</time>
      </trkpt>
      <trkpt lat="44.75349" lon="5.6722">
        <ele>953</ele>
        <time>2021-07-25T09:10:19Z</time>
      </trkpt>
      <trkpt lat="44.75344" lon="5.67235">
        <ele>949</ele>
        <time>2021-07-25T09:10:20Z</time>
      </trkpt>
      <trkpt lat="44.75339" lon="5.67251">
        <ele>947</ele>
        <time>2021-07-25T09:10:21Z</time>
      </trkpt>
      <trkpt lat="44.75333" lon="5.67266">
        <ele>947</ele>
        <time>2021-07-25T09:10:22Z</time>
      </trkpt>
      <trkpt lat="44.75328" lon="5.67282">
        <ele>945</ele>
        <time>2021-07-25T09:10:23Z</time>
      </trkpt>
      <trkpt lat="44.75322" lon="5.67297">
        <ele>944</ele>
        <time>2021-07-25T09:10:24Z</time>
      </trkpt>
      <trkpt lat="44.75316" lon="5.67312">
        <ele>944</ele>
        <time>2021-07-25T09:10:25Z</time>
      </trkpt>
      <trkpt lat="44.7531" lon="5.67327">
        <ele>943</ele>
        <time>2021-07-25T09:10:26Z</time>
      </trkpt>
      <trkpt lat="44.75305" lon="5.67343">
        <ele>943</ele>
        <time>2021-07-25T09:10:27Z</time>
      </trkpt>
      <trkpt lat="44.75299" lon="5.67358">
        <ele>943</ele>
        <time>2021-07-25T09:10:28Z</time>
      </trkpt>
      <trkpt lat="44.75293" lon="5.67374">
        <ele>942</ele>
        <time>2021-07-25T09:10:29Z</time>
      </trkpt>
      <trkpt lat="44.75288" lon="5.6739">
        <ele>941</ele>
        <time>2021-07-25T09:10:30Z</time>
      </trkpt>
      <trkpt lat="44.75282" lon="5.67406">
        <ele>940</ele>
        <time>2021-07-25T09:10:31Z</time>
      </trkpt>
      <trkpt lat="44.75276" lon="5.67422">
        <ele>938</ele>
        <time>2021-07-25T09:10:32Z</time>
      </trkpt>
      <trkpt lat="44.75271" lon="5.67438">
        <ele>937</ele>
        <time>2021-07-25T09:10:33Z</time>
      </trkpt>
      <trkpt lat="44.75265" lon="5.67454">
        <ele>937</ele>
        <time>2021-07-25T09:10:34Z</time>
      </trkpt>
      <trkpt lat="44.7526" lon="5.6747">
        <ele>937</ele>
        <time>2021-07-25T09:10:35Z</time>
      </trkpt>
      <trkpt lat="44.75254" lon="5.67486">
        <ele>936</ele>
        <time>2021-07-25T09:10:36Z</time>
      </trkpt>
      <trkpt lat="44.75248" lon="5.67502">
        <ele>935</ele>
        <time>2021-07-25T09:10:37Z</time>
      </trkpt>
      <trkpt lat="44.75242" lon="5.67518">
        <ele>934</ele>
        <time>2021-07-25T09:10:38Z</time>
      </trkpt>
      <trkpt lat="44.75236" lon="5.67534">
        <ele>932</ele>
        <time>2021-07-25T09:10:39Z</time>
      </trkpt>
      <trkpt lat="44.75229" lon="5.6755">
        <ele>931</ele>
        <time>2021-07-25T09:10:40Z</time>
      </trkpt>
      <trkpt lat="44.75223" lon="5.67567">
        <ele>931</ele>
        <time>2021-07-25T09:10:41Z</time>
      </trkpt>
      <trkpt lat="44.75217" lon="5.67583">
        <ele>931</ele>
        <time>2021-07-25T09:10:42Z</time>
      </trkpt>
      <trkpt lat="44.75211" lon="5.67599">
        <ele>930</ele>
        <time>2021-07-25T09:10:43Z</time>
      </trkpt>
      <trkpt lat="44.75205" lon="5.67615">
        <ele>928</ele>
        <time>2021-07-25T09:10:44Z</time>
      </trkpt>
      <trkpt lat="44.75197" lon="5.67631">
        <ele>927</ele>
        <time>2021-07-25T09:10:45Z</time>
      </trkpt>
      <trkpt lat="44.75188" lon="5.67644">
        <ele>927</ele>
        <time>2021-07-25T09:10:46Z</time>
      </trkpt>
      <trkpt lat="44.75178" lon="5.67656">
        <ele>926</ele>
        <time>2021-07-25T09:10:47Z</time>
      </trkpt>
      <trkpt lat="44.75167" lon="5.67665">
        <ele>925</ele>
        <time>2021-07-25T09:10:48Z</time>
      </trkpt>
      <trkpt lat="44.75156" lon="5.67673">
        <ele>925</ele>
        <time>2021-07-25T09:10:49Z</time>
      </trkpt>
      <trkpt lat="44.75147" lon="5.67679">
        <ele>924</ele>
        <time>2021-07-25T09:10:50Z</time>
      </trkpt>
      <trkpt lat="44.75138" lon="5.67685">
        <ele>922</ele>
        <time>2021-07-25T09:10:51Z</time>
      </trkpt>
      <trkpt lat="44.75132" lon="5.6769">
        <ele>921</ele>
        <time>2021-07-25T09:10:52Z</time>
      </trkpt>
      <trkpt lat="44.75127" lon="5.67695">
        <ele>921</ele>
        <time>2021-07-25T09:10:53Z</time>
      </trkpt>
      <trkpt lat="44.75138" lon="5.67711">
        <ele>920</ele>
        <time>2021-07-25T09:10:56Z</time>
      </trkpt>
      <trkpt lat="44.75154" lon="5.67707">
        <ele>920</ele>
        <time>2021-07-25T09:10:58Z</time>
      </trkpt>
      <trkpt lat="44.75171" lon="5.67699">
        <ele>919</ele>
        <time>2021-07-25T09:11:00Z</time>
      </trkpt>
      <trkpt lat="44.7519" lon="5.67691">
        <ele>919</ele>
        <time>2021-07-25T09:11:02Z</time>
      </trkpt>
      <trkpt lat="44.752" lon="5.67686">
        <ele>917</ele>
        <time>2021-07-25T09:11:03Z</time>
      </trkpt>
      <trkpt lat="44.7521" lon="5.67683">
        <ele>917</ele>
        <time>2021-07-25T09:11:04Z</time>
      </trkpt>
      <trkpt lat="44.75221" lon="5.6768">
        <ele>917</ele>
        <time>2021-07-25T09:11:05Z</time>
      </trkpt>
      <trkpt lat="44.75232" lon="5.67677">
        <ele>917</ele>
        <time>2021-07-25T09:11:06Z</time>
      </trkpt>
      <trkpt lat="44.75243" lon="5.67673">
        <ele>915</ele>
        <time>2021-07-25T09:11:07Z</time>
      </trkpt>
      <trkpt lat="44.75254" lon="5.6767">
        <ele>915</ele>
        <time>2021-07-25T09:11:08Z</time>
      </trkpt>
      <trkpt lat="44.75265" lon="5.67666">
        <ele>915</ele>
        <time>2021-07-25T09:11:09Z</time>
      </trkpt>
      <trkpt lat="44.75277" lon="5.67662">
        <ele>913</ele>
        <time>2021-07-25T09:11:10Z</time>
      </trkpt>
      <trkpt lat="44.75288" lon="5.67658">
        <ele>913</ele>
        <time>2021-07-25T09:11:11Z</time>
      </trkpt>
      <trkpt lat="44.753" lon="5.67653">
        <ele>912</ele>
        <time>2021-07-25T09:11:12Z</time>
      </trkpt>
      <trkpt lat="44.75311" lon="5.67648">
        <ele>911</ele>
        <time>2021-07-25T09:11:13Z</time>
      </trkpt>
      <trkpt lat="44.75323" lon="5.67642">
        <ele>909</ele>
        <time>2021-07-25T09:11:14Z</time>
      </trkpt>
      <trkpt lat="44.75334" lon="5.67635">
        <ele>908</ele>
        <time>2021-07-25T09:11:15Z</time>
      </trkpt>
      <trkpt lat="44.75345" lon="5.67628">
        <ele>907</ele>
        <time>2021-07-25T09:11:16Z</time>
      </trkpt>
      <trkpt lat="44.75356" lon="5.67622">
        <ele>906</ele>
        <time>2021-07-25T09:11:17Z</time>
      </trkpt>
      <trkpt lat="44.75367" lon="5.67615">
        <ele>906</ele>
        <time>2021-07-25T09:11:18Z</time>
      </trkpt>
      <trkpt lat="44.75379" lon="5.67608">
        <ele>905</ele>
        <time>2021-07-25T09:11:19Z</time>
      </trkpt>
      <trkpt lat="44.7539" lon="5.67601">
        <ele>904</ele>
        <time>2021-07-25T09:11:20Z</time>
      </trkpt>
      <trkpt lat="44.75401" lon="5.67595">
        <ele>904</ele>
        <time>2021-07-25T09:11:21Z</time>
      </trkpt>
      <trkpt lat="44.75412" lon="5.67588">
        <ele>902</ele>
        <time>2021-07-25T09:11:22Z</time>
      </trkpt>
      <trkpt lat="44.75422" lon="5.67581">
        <ele>901</ele>
        <time>2021-07-25T09:11:23Z</time>
      </trkpt>
      <trkpt lat="44.75431" lon="5.67573">
        <ele>900</ele>
        <time>2021-07-25T09:11:24Z</time>
      </trkpt>
      <trkpt lat="44.75439" lon="5.67562">
        <ele>900</ele>
        <time>2021-07-25T09:11:25Z</time>
      </trkpt>
      <trkpt lat="44.75446" lon="5.67549">
        <ele>900</ele>
        <time>2021-07-25T09:11:26Z</time>
      </trkpt>
      <trkpt lat="44.75452" lon="5.67536">
        <ele>899</ele>
        <time>2021-07-25T09:11:27Z</time>
      </trkpt>
      <trkpt lat="44.75458" lon="5.67522">
        <ele>899</ele>
        <time>2021-07-25T09:11:28Z</time>
      </trkpt>
      <trkpt lat="44.75464" lon="5.67508">
        <ele>899</ele>
        <time>2021-07-25T09:11:29Z</time>
      </trkpt>
      <trkpt lat="44.75471" lon="5.67495">
        <ele>897</ele>
        <time>2021-07-25T09:11:30Z</time>
      </trkpt>
      <trkpt lat="44.75479" lon="5.67483">
        <ele>896</ele>
        <time>2021-07-25T09:11:31Z</time>
      </trkpt>
      <trkpt lat="44.75488" lon="5.67472">
        <ele>896</ele>
        <time>2021-07-25T09:11:32Z</time>
      </trkpt>
      <trkpt lat="44.75499" lon="5.67466">
        <ele>895</ele>
        <time>2021-07-25T09:11:33Z</time>
      </trkpt>
      <trkpt lat="44.7551" lon="5.67464">
        <ele>894</ele>
        <time>2021-07-25T09:11:34Z</time>
      </trkpt>
      <trkpt lat="44.75535" lon="5.67473">
        <ele>893</ele>
        <time>2021-07-25T09:11:36Z</time>
      </trkpt>
      <trkpt lat="44.75546" lon="5.6748">
        <ele>892</ele>
        <time>2021-07-25T09:11:37Z</time>
      </trkpt>
      <trkpt lat="44.75557" lon="5.6749">
        <ele>891</ele>
        <time>2021-07-25T09:11:38Z</time>
      </trkpt>
      <trkpt lat="44.75567" lon="5.675">
        <ele>886</ele>
        <time>2021-07-25T09:11:39Z</time>
      </trkpt>
      <trkpt lat="44.75575" lon="5.67512">
        <ele>887</ele>
        <time>2021-07-25T09:11:40Z</time>
      </trkpt>
      <trkpt lat="44.75583" lon="5.67524">
        <ele>888</ele>
        <time>2021-07-25T09:11:41Z</time>
      </trkpt>
      <trkpt lat="44.75591" lon="5.67536">
        <ele>888</ele>
        <time>2021-07-25T09:11:42Z</time>
      </trkpt>
      <trkpt lat="44.75599" lon="5.67548">
        <ele>888</ele>
        <time>2021-07-25T09:11:43Z</time>
      </trkpt>
      <trkpt lat="44.75607" lon="5.67559">
        <ele>886</ele>
        <time>2021-07-25T09:11:44Z</time>
      </trkpt>
      <trkpt lat="44.75616" lon="5.6757">
        <ele>885</ele>
        <time>2021-07-25T09:11:45Z</time>
      </trkpt>
      <trkpt lat="44.75624" lon="5.67581">
        <ele>884</ele>
        <time>2021-07-25T09:11:46Z</time>
      </trkpt>
      <trkpt lat="44.75632" lon="5.6759">
        <ele>883</ele>
        <time>2021-07-25T09:11:47Z</time>
      </trkpt>
      <trkpt lat="44.75649" lon="5.67601">
        <ele>882</ele>
        <time>2021-07-25T09:11:49Z</time>
      </trkpt>
      <trkpt lat="44.75667" lon="5.67607">
        <ele>882</ele>
        <time>2021-07-25T09:11:51Z</time>
      </trkpt>
      <trkpt lat="44.75684" lon="5.67611">
        <ele>881</ele>
        <time>2021-07-25T09:11:53Z</time>
      </trkpt>
      <trkpt lat="44.75693" lon="5.67613">
        <ele>880</ele>
        <time>2021-07-25T09:11:54Z</time>
      </trkpt>
      <trkpt lat="44.75709" lon="5.67616">
        <ele>878</ele>
        <time>2021-07-25T09:11:56Z</time>
      </trkpt>
      <trkpt lat="44.75717" lon="5.67618">
        <ele>877</ele>
        <time>2021-07-25T09:11:57Z</time>
      </trkpt>
      <trkpt lat="44.75724" lon="5.67619">
        <ele>877</ele>
        <time>2021-07-25T09:11:58Z</time>
      </trkpt>
      <trkpt lat="44.75731" lon="5.6762">
        <ele>877</ele>
        <time>2021-07-25T09:11:59Z</time>
      </trkpt>
      <trkpt lat="44.75738" lon="5.67621">
        <ele>876</ele>
        <time>2021-07-25T09:12:00Z</time>
      </trkpt>
      <trkpt lat="44.75745" lon="5.67621">
        <ele>876</ele>
        <time>2021-07-25T09:12:01Z</time>
      </trkpt>
      <trkpt lat="44.75751" lon="5.67621">
        <ele>876</ele>
        <time>2021-07-25T09:12:02Z</time>
      </trkpt>
      <trkpt lat="44.75765" lon="5.67615">
        <ele>875</ele>
        <time>2021-07-25T09:12:04Z</time>
      </trkpt>
      <trkpt lat="44.75776" lon="5.67609">
        <ele>874</ele>
        <time>2021-07-25T09:12:06Z</time>
      </trkpt>
      <trkpt lat="44.7579" lon="5.6761">
        <ele>873</ele>
        <time>2021-07-25T09:12:09Z</time>
      </trkpt>
      <trkpt lat="44.75799" lon="5.67619">
        <ele>873</ele>
        <time>2021-07-25T09:12:11Z</time>
      </trkpt>
      <trkpt lat="44.75806" lon="5.67627">
        <ele>873</ele>
        <time>2021-07-25T09:12:13Z</time>
      </trkpt>
      <trkpt lat="44.75816" lon="5.6763">
        <ele>871</ele>
        <time>2021-07-25T09:12:16Z</time>
      </trkpt>
      <trkpt lat="44.75824" lon="5.67627">
        <ele>871</ele>
        <time>2021-07-25T09:12:18Z</time>
      </trkpt>
      <trkpt lat="44.75833" lon="5.67624">
        <ele>870</ele>
        <time>2021-07-25T09:12:20Z</time>
      </trkpt>
      <trkpt lat="44.75843" lon="5.67622">
        <ele>870</ele>
        <time>2021-07-25T09:12:22Z</time>
      </trkpt>
      <trkpt lat="44.75854" lon="5.67621">
        <ele>870</ele>
        <time>2021-07-25T09:12:24Z</time>
      </trkpt>
      <trkpt lat="44.75865" lon="5.67619">
        <ele>870</ele>
        <time>2021-07-25T09:12:26Z</time>
      </trkpt>
      <trkpt lat="44.75879" lon="5.67618">
        <ele>870</ele>
        <time>2021-07-25T09:12:28Z</time>
      </trkpt>
      <trkpt lat="44.75893" lon="5.67617">
        <ele>869</ele>
        <time>2021-07-25T09:12:30Z</time>
      </trkpt>
      <trkpt lat="44.75905" lon="5.6761">
        <ele>869</ele>
        <time>2021-07-25T09:12:32Z</time>
      </trkpt>
      <trkpt lat="44.75917" lon="5.67601">
        <ele>869</ele>
        <time>2021-07-25T09:12:34Z</time>
      </trkpt>
      <trkpt lat="44.75929" lon="5.67592">
        <ele>869</ele>
        <time>2021-07-25T09:12:36Z</time>
      </trkpt>
      <trkpt lat="44.75941" lon="5.67584">
        <ele>869</ele>
        <time>2021-07-25T09:12:38Z</time>
      </trkpt>
      <trkpt lat="44.75947" lon="5.67578">
        <ele>869</ele>
        <time>2021-07-25T09:12:39Z</time>
      </trkpt>
      <trkpt lat="44.75952" lon="5.67572">
        <ele>869</ele>
        <time>2021-07-25T09:12:40Z</time>
      </trkpt>
      <trkpt lat="44.75955" lon="5.67564">
        <ele>869</ele>
        <time>2021-07-25T09:12:41Z</time>
      </trkpt>
      <trkpt lat="44.75958" lon="5.67556">
        <ele>869</ele>
        <time>2021-07-25T09:12:42Z</time>
      </trkpt>
      <trkpt lat="44.75958" lon="5.67538">
        <ele>869</ele>
        <time>2021-07-25T09:12:44Z</time>
      </trkpt>
      <trkpt lat="44.75955" lon="5.67519">
        <ele>869</ele>
        <time>2021-07-25T09:12:46Z</time>
      </trkpt>
      <trkpt lat="44.75951" lon="5.67501">
        <ele>869</ele>
        <time>2021-07-25T09:12:48Z</time>
      </trkpt>
      <trkpt lat="44.75948" lon="5.67483">
        <ele>869</ele>
        <time>2021-07-25T09:12:50Z</time>
      </trkpt>
      <trkpt lat="44.75944" lon="5.67465">
        <ele>869</ele>
        <time>2021-07-25T09:12:52Z</time>
      </trkpt>
      <trkpt lat="44.7594" lon="5.67449">
        <ele>869</ele>
        <time>2021-07-25T09:12:54Z</time>
      </trkpt>
      <trkpt lat="44.75938" lon="5.67432">
        <ele>869</ele>
        <time>2021-07-25T09:12:56Z</time>
      </trkpt>
      <trkpt lat="44.75936" lon="5.67416">
        <ele>869</ele>
        <time>2021-07-25T09:12:58Z</time>
      </trkpt>
      <trkpt lat="44.75934" lon="5.67399">
        <ele>870</ele>
        <time>2021-07-25T09:13:00Z</time>
      </trkpt>
      <trkpt lat="44.75934" lon="5.67385">
        <ele>870</ele>
        <time>2021-07-25T09:13:02Z</time>
      </trkpt>
      <trkpt lat="44.75933" lon="5.67368">
        <ele>870</ele>
        <time>2021-07-25T09:13:04Z</time>
      </trkpt>
      <trkpt lat="44.75934" lon="5.67352">
        <ele>870</ele>
        <time>2021-07-25T09:13:06Z</time>
      </trkpt>
      <trkpt lat="44.75936" lon="5.67335">
        <ele>870</ele>
        <time>2021-07-25T09:13:08Z</time>
      </trkpt>
      <trkpt lat="44.75939" lon="5.67319">
        <ele>872</ele>
        <time>2021-07-25T09:13:10Z</time>
      </trkpt>
      <trkpt lat="44.75941" lon="5.67302">
        <ele>872</ele>
        <time>2021-07-25T09:13:12Z</time>
      </trkpt>
      <trkpt lat="44.75943" lon="5.67285">
        <ele>872</ele>
        <time>2021-07-25T09:13:14Z</time>
      </trkpt>
      <trkpt lat="44.75945" lon="5.67271">
        <ele>872</ele>
        <time>2021-07-25T09:13:16Z</time>
      </trkpt>
      <trkpt lat="44.75945" lon="5.67256">
        <ele>872</ele>
        <time>2021-07-25T09:13:18Z</time>
      </trkpt>
      <trkpt lat="44.75945" lon="5.6724">
        <ele>875</ele>
        <time>2021-07-25T09:13:20Z</time>
      </trkpt>
      <trkpt lat="44.75946" lon="5.67224">
        <ele>875</ele>
        <time>2021-07-25T09:13:22Z</time>
      </trkpt>
      <trkpt lat="44.75946" lon="5.67207">
        <ele>875</ele>
        <time>2021-07-25T09:13:24Z</time>
      </trkpt>
      <trkpt lat="44.75946" lon="5.6719">
        <ele>876</ele>
        <time>2021-07-25T09:13:26Z</time>
      </trkpt>
      <trkpt lat="44.75947" lon="5.67174">
        <ele>876</ele>
        <time>2021-07-25T09:13:28Z</time>
      </trkpt>
      <trkpt lat="44.75947" lon="5.67157">
        <ele>876</ele>
        <time>2021-07-25T09:13:30Z</time>
      </trkpt>
      <trkpt lat="44.75947" lon="5.67141">
        <ele>876</ele>
        <time>2021-07-25T09:13:32Z</time>
      </trkpt>
      <trkpt lat="44.75948" lon="5.67124">
        <ele>876</ele>
        <time>2021-07-25T09:13:34Z</time>
      </trkpt>
      <trkpt lat="44.75949" lon="5.67108">
        <ele>876</ele>
        <time>2021-07-25T09:13:36Z</time>
      </trkpt>
      <trkpt lat="44.75951" lon="5.67092">
        <ele>876</ele>
        <time>2021-07-25T09:13:38Z</time>
      </trkpt>
      <trkpt lat="44.75954" lon="5.67078">
        <ele>877</ele>
        <time>2021-07-25T09:13:40Z</time>
      </trkpt>
      <trkpt lat="44.75957" lon="5.67063">
        <ele>877</ele>
        <time>2021-07-25T09:13:42Z</time>
      </trkpt>
      <trkpt lat="44.7596" lon="5.67048">
        <ele>877</ele>
        <time>2021-07-25T09:13:44Z</time>
      </trkpt>
      <trkpt lat="44.75962" lon="5.67034">
        <ele>877</ele>
        <time>2021-07-25T09:13:46Z</time>
      </trkpt>
      <trkpt lat="44.75964" lon="5.67019">
        <ele>877</ele>
        <time>2021-07-25T09:13:48Z</time>
      </trkpt>
      <trkpt lat="44.75967" lon="5.67005">
        <ele>878</ele>
        <time>2021-07-25T09:13:50Z</time>
      </trkpt>
      <trkpt lat="44.75971" lon="5.66991">
        <ele>878</ele>
        <time>2021-07-25T09:13:52Z</time>
      </trkpt>
      <trkpt lat="44.75974" lon="5.66984">
        <ele>878</ele>
        <time>2021-07-25T09:13:53Z</time>
      </trkpt>
      <trkpt lat="44.75981" lon="5.66974">
        <ele>878</ele>
        <time>2021-07-25T09:13:55Z</time>
      </trkpt>
      <trkpt lat="44.75986" lon="5.66971">
        <ele>878</ele>
        <time>2021-07-25T09:13:56Z</time>
      </trkpt>
      <trkpt lat="44.75997" lon="5.66967">
        <ele>878</ele>
        <time>2021-07-25T09:13:58Z</time>
      </trkpt>
      <trkpt lat="44.76008" lon="5.66965">
        <ele>880</ele>
        <time>2021-07-25T09:14:00Z</time>
      </trkpt>
      <trkpt lat="44.76013" lon="5.66964">
        <ele>880</ele>
        <time>2021-07-25T09:14:01Z</time>
      </trkpt>
      <trkpt lat="44.76018" lon="5.66963">
        <ele>880</ele>
        <time>2021-07-25T09:14:02Z</time>
      </trkpt>
      <trkpt lat="44.76029" lon="5.66962">
        <ele>880</ele>
        <time>2021-07-25T09:14:04Z</time>
      </trkpt>
      <trkpt lat="44.7604" lon="5.66964">
        <ele>880</ele>
        <time>2021-07-25T09:14:06Z</time>
      </trkpt>
      <trkpt lat="44.7605" lon="5.66967">
        <ele>880</ele>
        <time>2021-07-25T09:14:08Z</time>
      </trkpt>
      <trkpt lat="44.7606" lon="5.6697">
        <ele>882</ele>
        <time>2021-07-25T09:14:10Z</time>
      </trkpt>
      <trkpt lat="44.76071" lon="5.66972">
        <ele>882</ele>
        <time>2021-07-25T09:14:12Z</time>
      </trkpt>
      <trkpt lat="44.76081" lon="5.66977">
        <ele>882</ele>
        <time>2021-07-25T09:14:14Z</time>
      </trkpt>
      <trkpt lat="44.7609" lon="5.66984">
        <ele>882</ele>
        <time>2021-07-25T09:14:16Z</time>
      </trkpt>
      <trkpt lat="44.76099" lon="5.66993">
        <ele>882</ele>
        <time>2021-07-25T09:14:18Z</time>
      </trkpt>
      <trkpt lat="44.76107" lon="5.67003">
        <ele>885</ele>
        <time>2021-07-25T09:14:20Z</time>
      </trkpt>
      <trkpt lat="44.76114" lon="5.67015">
        <ele>885</ele>
        <time>2021-07-25T09:14:22Z</time>
      </trkpt>
      <trkpt lat="44.76118" lon="5.6702">
        <ele>885</ele>
        <time>2021-07-25T09:14:23Z</time>
      </trkpt>
      <trkpt lat="44.76127" lon="5.67029">
        <ele>886</ele>
        <time>2021-07-25T09:14:25Z</time>
      </trkpt>
      <trkpt lat="44.76132" lon="5.67033">
        <ele>886</ele>
        <time>2021-07-25T09:14:26Z</time>
      </trkpt>
      <trkpt lat="44.76137" lon="5.67037">
        <ele>886</ele>
        <time>2021-07-25T09:14:27Z</time>
      </trkpt>
      <trkpt lat="44.76142" lon="5.6704">
        <ele>886</ele>
        <time>2021-07-25T09:14:28Z</time>
      </trkpt>
      <trkpt lat="44.76148" lon="5.67043">
        <ele>886</ele>
        <time>2021-07-25T09:14:29Z</time>
      </trkpt>
      <trkpt lat="44.76153" lon="5.67045">
        <ele>886</ele>
        <time>2021-07-25T09:14:30Z</time>
      </trkpt>
      <trkpt lat="44.76159" lon="5.67048">
        <ele>886</ele>
        <time>2021-07-25T09:14:31Z</time>
      </trkpt>
      <trkpt lat="44.76165" lon="5.67049">
        <ele>886</ele>
        <time>2021-07-25T09:14:32Z</time>
      </trkpt>
      <trkpt lat="44.76176" lon="5.67051">
        <ele>886</ele>
        <time>2021-07-25T09:14:34Z</time>
      </trkpt>
      <trkpt lat="44.76188" lon="5.67051">
        <ele>886</ele>
        <time>2021-07-25T09:14:36Z</time>
      </trkpt>
      <trkpt lat="44.762" lon="5.67051">
        <ele>886</ele>
        <time>2021-07-25T09:14:38Z</time>
      </trkpt>
      <trkpt lat="44.76212" lon="5.67052">
        <ele>888</ele>
        <time>2021-07-25T09:14:40Z</time>
      </trkpt>
      <trkpt lat="44.76226" lon="5.67054">
        <ele>888</ele>
        <time>2021-07-25T09:14:42Z</time>
      </trkpt>
      <trkpt lat="44.7624" lon="5.67049">
        <ele>888</ele>
        <time>2021-07-25T09:14:44Z</time>
      </trkpt>
      <trkpt lat="44.76245" lon="5.67042">
        <ele>888</ele>
        <time>2021-07-25T09:14:45Z</time>
      </trkpt>
      <trkpt lat="44.76248" lon="5.67032">
        <ele>888</ele>
        <time>2021-07-25T09:14:46Z</time>
      </trkpt>
      <trkpt lat="44.76247" lon="5.67009">
        <ele>888</ele>
        <time>2021-07-25T09:14:48Z</time>
      </trkpt>
      <trkpt lat="44.76243" lon="5.66984">
        <ele>888</ele>
        <time>2021-07-25T09:14:50Z</time>
      </trkpt>
      <trkpt lat="44.76236" lon="5.6696">
        <ele>888</ele>
        <time>2021-07-25T09:14:52Z</time>
      </trkpt>
      <trkpt lat="44.76224" lon="5.66938">
        <ele>888</ele>
        <time>2021-07-25T09:14:54Z</time>
      </trkpt>
      <trkpt lat="44.76218" lon="5.66926">
        <ele>888</ele>
        <time>2021-07-25T09:14:55Z</time>
      </trkpt>
      <trkpt lat="44.76214" lon="5.66913">
        <ele>888</ele>
        <time>2021-07-25T09:14:56Z</time>
      </trkpt>
      <trkpt lat="44.76212" lon="5.66899">
        <ele>888</ele>
        <time>2021-07-25T09:14:57Z</time>
      </trkpt>
      <trkpt lat="44.76212" lon="5.66884">
        <ele>888</ele>
        <time>2021-07-25T09:14:58Z</time>
      </trkpt>
      <trkpt lat="44.76212" lon="5.66869">
        <ele>888</ele>
        <time>2021-07-25T09:14:59Z</time>
      </trkpt>
      <trkpt lat="44.76209" lon="5.66856">
        <ele>880</ele>
        <time>2021-07-25T09:15:00Z</time>
      </trkpt>
      <trkpt lat="44.76205" lon="5.66842">
        <ele>880</ele>
        <time>2021-07-25T09:15:01Z</time>
      </trkpt>
      <trkpt lat="44.762" lon="5.66828">
        <ele>880</ele>
        <time>2021-07-25T09:15:02Z</time>
      </trkpt>
      <trkpt lat="44.76196" lon="5.66814">
        <ele>879</ele>
        <time>2021-07-25T09:15:03Z</time>
      </trkpt>
      <trkpt lat="44.76193" lon="5.66798">
        <ele>879</ele>
        <time>2021-07-25T09:15:04Z</time>
      </trkpt>
      <trkpt lat="44.76193" lon="5.66782">
        <ele>878</ele>
        <time>2021-07-25T09:15:05Z</time>
      </trkpt>
      <trkpt lat="44.76195" lon="5.66766">
        <ele>878</ele>
        <time>2021-07-25T09:15:06Z</time>
      </trkpt>
      <trkpt lat="44.76199" lon="5.6675">
        <ele>877</ele>
        <time>2021-07-25T09:15:07Z</time>
      </trkpt>
      <trkpt lat="44.76204" lon="5.66735">
        <ele>877</ele>
        <time>2021-07-25T09:15:08Z</time>
      </trkpt>
      <trkpt lat="44.7621" lon="5.66721">
        <ele>876</ele>
        <time>2021-07-25T09:15:09Z</time>
      </trkpt>
      <trkpt lat="44.76217" lon="5.66709">
        <ele>876</ele>
        <time>2021-07-25T09:15:10Z</time>
      </trkpt>
      <trkpt lat="44.76225" lon="5.66697">
        <ele>876</ele>
        <time>2021-07-25T09:15:11Z</time>
      </trkpt>
      <trkpt lat="44.76234" lon="5.66685">
        <ele>876</ele>
        <time>2021-07-25T09:15:12Z</time>
      </trkpt>
      <trkpt lat="44.76242" lon="5.66673">
        <ele>876</ele>
        <time>2021-07-25T09:15:13Z</time>
      </trkpt>
      <trkpt lat="44.7625" lon="5.66662">
        <ele>876</ele>
        <time>2021-07-25T09:15:14Z</time>
      </trkpt>
      <trkpt lat="44.76259" lon="5.6665">
        <ele>873</ele>
        <time>2021-07-25T09:15:15Z</time>
      </trkpt>
      <trkpt lat="44.76267" lon="5.66638">
        <ele>873</ele>
        <time>2021-07-25T09:15:16Z</time>
      </trkpt>
      <trkpt lat="44.76276" lon="5.66627">
        <ele>873</ele>
        <time>2021-07-25T09:15:17Z</time>
      </trkpt>
      <trkpt lat="44.76286" lon="5.66619">
        <ele>873</ele>
        <time>2021-07-25T09:15:18Z</time>
      </trkpt>
      <trkpt lat="44.76294" lon="5.66612">
        <ele>873</ele>
        <time>2021-07-25T09:15:19Z</time>
      </trkpt>
      <trkpt lat="44.76308" lon="5.66602">
        <ele>869</ele>
        <time>2021-07-25T09:15:21Z</time>
      </trkpt>
      <trkpt lat="44.76322" lon="5.66595">
        <ele>869</ele>
        <time>2021-07-25T09:15:23Z</time>
      </trkpt>
      <trkpt lat="44.76334" lon="5.66585">
        <ele>869</ele>
        <time>2021-07-25T09:15:25Z</time>
      </trkpt>
      <trkpt lat="44.76342" lon="5.66574">
        <ele>869</ele>
        <time>2021-07-25T09:15:27Z</time>
      </trkpt>
      <trkpt lat="44.76349" lon="5.66559">
        <ele>868</ele>
        <time>2021-07-25T09:15:29Z</time>
      </trkpt>
      <trkpt lat="44.76356" lon="5.66544">
        <ele>868</ele>
        <time>2021-07-25T09:15:31Z</time>
      </trkpt>
      <trkpt lat="44.76363" lon="5.66529">
        <ele>868</ele>
        <time>2021-07-25T09:15:33Z</time>
      </trkpt>
      <trkpt lat="44.7637" lon="5.66514">
        <ele>868</ele>
        <time>2021-07-25T09:15:35Z</time>
      </trkpt>
      <trkpt lat="44.76376" lon="5.665">
        <ele>868</ele>
        <time>2021-07-25T09:15:37Z</time>
      </trkpt>
      <trkpt lat="44.76383" lon="5.66486">
        <ele>868</ele>
        <time>2021-07-25T09:15:39Z</time>
      </trkpt>
      <trkpt lat="44.76387" lon="5.6648">
        <ele>869</ele>
        <time>2021-07-25T09:15:40Z</time>
      </trkpt>
      <trkpt lat="44.76396" lon="5.66467">
        <ele>869</ele>
        <time>2021-07-25T09:15:42Z</time>
      </trkpt>
      <trkpt lat="44.76405" lon="5.66455">
        <ele>869</ele>
        <time>2021-07-25T09:15:44Z</time>
      </trkpt>
      <trkpt lat="44.76413" lon="5.66443">
        <ele>869</ele>
        <time>2021-07-25T09:15:46Z</time>
      </trkpt>
      <trkpt lat="44.76422" lon="5.66436">
        <ele>869</ele>
        <time>2021-07-25T09:15:48Z</time>
      </trkpt>
      <trkpt lat="44.76434" lon="5.66429">
        <ele>869</ele>
        <time>2021-07-25T09:15:52Z</time>
      </trkpt>
      <trkpt lat="44.76448" lon="5.66434">
        <ele>869</ele>
        <time>2021-07-25T09:15:55Z</time>
      </trkpt>
      <trkpt lat="44.76453" lon="5.66438">
        <ele>869</ele>
        <time>2021-07-25T09:15:56Z</time>
      </trkpt>
      <trkpt lat="44.76465" lon="5.66443">
        <ele>869</ele>
        <time>2021-07-25T09:15:58Z</time>
      </trkpt>
      <trkpt lat="44.76478" lon="5.6644">
        <ele>865</ele>
        <time>2021-07-25T09:16:00Z</time>
      </trkpt>
      <trkpt lat="44.76485" lon="5.66436">
        <ele>865</ele>
        <time>2021-07-25T09:16:01Z</time>
      </trkpt>
      <trkpt lat="44.76492" lon="5.66431">
        <ele>865</ele>
        <time>2021-07-25T09:16:02Z</time>
      </trkpt>
      <trkpt lat="44.765" lon="5.66428">
        <ele>865</ele>
        <time>2021-07-25T09:16:03Z</time>
      </trkpt>
      <trkpt lat="44.76508" lon="5.66425">
        <ele>865</ele>
        <time>2021-07-25T09:16:04Z</time>
      </trkpt>
      <trkpt lat="44.76517" lon="5.66421">
        <ele>865</ele>
        <time>2021-07-25T09:16:05Z</time>
      </trkpt>
      <trkpt lat="44.76525" lon="5.66418">
        <ele>865</ele>
        <time>2021-07-25T09:16:06Z</time>
      </trkpt>
      <trkpt lat="44.76533" lon="5.66416">
        <ele>865</ele>
        <time>2021-07-25T09:16:07Z</time>
      </trkpt>
      <trkpt lat="44.76542" lon="5.66415">
        <ele>865</ele>
        <time>2021-07-25T09:16:08Z</time>
      </trkpt>
      <trkpt lat="44.7655" lon="5.66416">
        <ele>865</ele>
        <time>2021-07-25T09:16:09Z</time>
      </trkpt>
      <trkpt lat="44.76559" lon="5.66419">
        <ele>863</ele>
        <time>2021-07-25T09:16:10Z</time>
      </trkpt>
      <trkpt lat="44.76568" lon="5.66424">
        <ele>863</ele>
        <time>2021-07-25T09:16:11Z</time>
      </trkpt>
      <trkpt lat="44.76577" lon="5.6643">
        <ele>863</ele>
        <time>2021-07-25T09:16:12Z</time>
      </trkpt>
      <trkpt lat="44.76586" lon="5.66436">
        <ele>863</ele>
        <time>2021-07-25T09:16:13Z</time>
      </trkpt>
      <trkpt lat="44.76595" lon="5.66443">
        <ele>863</ele>
        <time>2021-07-25T09:16:14Z</time>
      </trkpt>
      <trkpt lat="44.76604" lon="5.6645">
        <ele>859</ele>
        <time>2021-07-25T09:16:15Z</time>
      </trkpt>
      <trkpt lat="44.76614" lon="5.66457">
        <ele>859</ele>
        <time>2021-07-25T09:16:16Z</time>
      </trkpt>
      <trkpt lat="44.76623" lon="5.66465">
        <ele>859</ele>
        <time>2021-07-25T09:16:17Z</time>
      </trkpt>
      <trkpt lat="44.76632" lon="5.66473">
        <ele>859</ele>
        <time>2021-07-25T09:16:18Z</time>
      </trkpt>
      <trkpt lat="44.76641" lon="5.66481">
        <ele>859</ele>
        <time>2021-07-25T09:16:19Z</time>
      </trkpt>
      <trkpt lat="44.76651" lon="5.66489">
        <ele>857</ele>
        <time>2021-07-25T09:16:20Z</time>
      </trkpt>
      <trkpt lat="44.7666" lon="5.66497">
        <ele>855</ele>
        <time>2021-07-25T09:16:21Z</time>
      </trkpt>
      <trkpt lat="44.76669" lon="5.66505">
        <ele>853</ele>
        <time>2021-07-25T09:16:22Z</time>
      </trkpt>
      <trkpt lat="44.76677" lon="5.66513">
        <ele>852</ele>
        <time>2021-07-25T09:16:23Z</time>
      </trkpt>
      <trkpt lat="44.76685" lon="5.66523">
        <ele>851</ele>
        <time>2021-07-25T09:16:24Z</time>
      </trkpt>
      <trkpt lat="44.76693" lon="5.66534">
        <ele>851</ele>
        <time>2021-07-25T09:16:25Z</time>
      </trkpt>
      <trkpt lat="44.767" lon="5.66545">
        <ele>853</ele>
        <time>2021-07-25T09:16:26Z</time>
      </trkpt>
      <trkpt lat="44.76707" lon="5.66556">
        <ele>853</ele>
        <time>2021-07-25T09:16:27Z</time>
      </trkpt>
      <trkpt lat="44.76715" lon="5.66567">
        <ele>854</ele>
        <time>2021-07-25T09:16:28Z</time>
      </trkpt>
      <trkpt lat="44.76723" lon="5.66578">
        <ele>855</ele>
        <time>2021-07-25T09:16:29Z</time>
      </trkpt>
      <trkpt lat="44.76731" lon="5.66588">
        <ele>853</ele>
        <time>2021-07-25T09:16:30Z</time>
      </trkpt>
      <trkpt lat="44.7674" lon="5.66597">
        <ele>853</ele>
        <time>2021-07-25T09:16:31Z</time>
      </trkpt>
      <trkpt lat="44.76749" lon="5.66606">
        <ele>853</ele>
        <time>2021-07-25T09:16:32Z</time>
      </trkpt>
      <trkpt lat="44.76758" lon="5.66615">
        <ele>853</ele>
        <time>2021-07-25T09:16:33Z</time>
      </trkpt>
      <trkpt lat="44.76768" lon="5.66625">
        <ele>853</ele>
        <time>2021-07-25T09:16:34Z</time>
      </trkpt>
      <trkpt lat="44.76777" lon="5.66634">
        <ele>850</ele>
        <time>2021-07-25T09:16:35Z</time>
      </trkpt>
      <trkpt lat="44.76787" lon="5.66643">
        <ele>850</ele>
        <time>2021-07-25T09:16:36Z</time>
      </trkpt>
      <trkpt lat="44.76797" lon="5.66652">
        <ele>850</ele>
        <time>2021-07-25T09:16:37Z</time>
      </trkpt>
      <trkpt lat="44.76806" lon="5.66661">
        <ele>850</ele>
        <time>2021-07-25T09:16:38Z</time>
      </trkpt>
      <trkpt lat="44.76816" lon="5.66671">
        <ele>850</ele>
        <time>2021-07-25T09:16:39Z</time>
      </trkpt>
      <trkpt lat="44.76825" lon="5.66681">
        <ele>845</ele>
        <time>2021-07-25T09:16:40Z</time>
      </trkpt>
      <trkpt lat="44.76834" lon="5.66691">
        <ele>842</ele>
        <time>2021-07-25T09:16:41Z</time>
      </trkpt>
      <trkpt lat="44.76844" lon="5.66701">
        <ele>841</ele>
        <time>2021-07-25T09:16:42Z</time>
      </trkpt>
      <trkpt lat="44.76853" lon="5.66711">
        <ele>841</ele>
        <time>2021-07-25T09:16:43Z</time>
      </trkpt>
      <trkpt lat="44.76863" lon="5.66721">
        <ele>839</ele>
        <time>2021-07-25T09:16:44Z</time>
      </trkpt>
      <trkpt lat="44.76872" lon="5.66731">
        <ele>839</ele>
        <time>2021-07-25T09:16:45Z</time>
      </trkpt>
      <trkpt lat="44.76882" lon="5.6674">
        <ele>839</ele>
        <time>2021-07-25T09:16:46Z</time>
      </trkpt>
      <trkpt lat="44.76892" lon="5.6675">
        <ele>839</ele>
        <time>2021-07-25T09:16:47Z</time>
      </trkpt>
      <trkpt lat="44.76902" lon="5.6676">
        <ele>838</ele>
        <time>2021-07-25T09:16:48Z</time>
      </trkpt>
      <trkpt lat="44.76911" lon="5.66769">
        <ele>835</ele>
        <time>2021-07-25T09:16:49Z</time>
      </trkpt>
      <trkpt lat="44.76921" lon="5.66779">
        <ele>834</ele>
        <time>2021-07-25T09:16:50Z</time>
      </trkpt>
      <trkpt lat="44.7693" lon="5.66789">
        <ele>834</ele>
        <time>2021-07-25T09:16:51Z</time>
      </trkpt>
      <trkpt lat="44.76939" lon="5.66799">
        <ele>834</ele>
        <time>2021-07-25T09:16:52Z</time>
      </trkpt>
      <trkpt lat="44.76948" lon="5.6681">
        <ele>833</ele>
        <time>2021-07-25T09:16:53Z</time>
      </trkpt>
      <trkpt lat="44.76957" lon="5.6682">
        <ele>833</ele>
        <time>2021-07-25T09:16:54Z</time>
      </trkpt>
      <trkpt lat="44.76966" lon="5.6683">
        <ele>833</ele>
        <time>2021-07-25T09:16:55Z</time>
      </trkpt>
      <trkpt lat="44.76976" lon="5.66838">
        <ele>832</ele>
        <time>2021-07-25T09:16:56Z</time>
      </trkpt>
      <trkpt lat="44.76986" lon="5.66844">
        <ele>831</ele>
        <time>2021-07-25T09:16:57Z</time>
      </trkpt>
      <trkpt lat="44.76997" lon="5.66848">
        <ele>830</ele>
        <time>2021-07-25T09:16:58Z</time>
      </trkpt>
      <trkpt lat="44.77008" lon="5.6685">
        <ele>830</ele>
        <time>2021-07-25T09:16:59Z</time>
      </trkpt>
      <trkpt lat="44.77019" lon="5.66851">
        <ele>829</ele>
        <time>2021-07-25T09:17:00Z</time>
      </trkpt>
      <trkpt lat="44.7703" lon="5.66853">
        <ele>829</ele>
        <time>2021-07-25T09:17:01Z</time>
      </trkpt>
      <trkpt lat="44.77041" lon="5.66855">
        <ele>828</ele>
        <time>2021-07-25T09:17:02Z</time>
      </trkpt>
      <trkpt lat="44.77052" lon="5.66857">
        <ele>827</ele>
        <time>2021-07-25T09:17:03Z</time>
      </trkpt>
      <trkpt lat="44.77063" lon="5.66858">
        <ele>827</ele>
        <time>2021-07-25T09:17:04Z</time>
      </trkpt>
      <trkpt lat="44.77074" lon="5.6686">
        <ele>827</ele>
        <time>2021-07-25T09:17:05Z</time>
      </trkpt>
      <trkpt lat="44.77086" lon="5.66862">
        <ele>827</ele>
        <time>2021-07-25T09:17:06Z</time>
      </trkpt>
      <trkpt lat="44.77097" lon="5.66865">
        <ele>825</ele>
        <time>2021-07-25T09:17:07Z</time>
      </trkpt>
      <trkpt lat="44.77108" lon="5.66867">
        <ele>824</ele>
        <time>2021-07-25T09:17:08Z</time>
      </trkpt>
      <trkpt lat="44.77119" lon="5.6687">
        <ele>824</ele>
        <time>2021-07-25T09:17:09Z</time>
      </trkpt>
      <trkpt lat="44.77129" lon="5.66873">
        <ele>824</ele>
        <time>2021-07-25T09:17:10Z</time>
      </trkpt>
      <trkpt lat="44.7714" lon="5.66876">
        <ele>823</ele>
        <time>2021-07-25T09:17:11Z</time>
      </trkpt>
      <trkpt lat="44.77151" lon="5.66879">
        <ele>822</ele>
        <time>2021-07-25T09:17:12Z</time>
      </trkpt>
      <trkpt lat="44.77162" lon="5.66883">
        <ele>820</ele>
        <time>2021-07-25T09:17:13Z</time>
      </trkpt>
      <trkpt lat="44.77172" lon="5.66886">
        <ele>820</ele>
        <time>2021-07-25T09:17:14Z</time>
      </trkpt>
      <trkpt lat="44.77183" lon="5.6689">
        <ele>820</ele>
        <time>2021-07-25T09:17:15Z</time>
      </trkpt>
      <trkpt lat="44.77194" lon="5.66893">
        <ele>820</ele>
        <time>2021-07-25T09:17:16Z</time>
      </trkpt>
      <trkpt lat="44.77204" lon="5.66897">
        <ele>819</ele>
        <time>2021-07-25T09:17:17Z</time>
      </trkpt>
      <trkpt lat="44.77215" lon="5.669">
        <ele>818</ele>
        <time>2021-07-25T09:17:18Z</time>
      </trkpt>
      <trkpt lat="44.77226" lon="5.66903">
        <ele>818</ele>
        <time>2021-07-25T09:17:19Z</time>
      </trkpt>
      <trkpt lat="44.77236" lon="5.66907">
        <ele>817</ele>
        <time>2021-07-25T09:17:20Z</time>
      </trkpt>
      <trkpt lat="44.77247" lon="5.6691">
        <ele>816</ele>
        <time>2021-07-25T09:17:21Z</time>
      </trkpt>
      <trkpt lat="44.77257" lon="5.66913">
        <ele>816</ele>
        <time>2021-07-25T09:17:22Z</time>
      </trkpt>
      <trkpt lat="44.77268" lon="5.66916">
        <ele>814</ele>
        <time>2021-07-25T09:17:23Z</time>
      </trkpt>
      <trkpt lat="44.77279" lon="5.6692">
        <ele>814</ele>
        <time>2021-07-25T09:17:24Z</time>
      </trkpt>
      <trkpt lat="44.77289" lon="5.66923">
        <ele>814</ele>
        <time>2021-07-25T09:17:25Z</time>
      </trkpt>
      <trkpt lat="44.773" lon="5.66926">
        <ele>814</ele>
        <time>2021-07-25T09:17:26Z</time>
      </trkpt>
      <trkpt lat="44.7731" lon="5.66929">
        <ele>813</ele>
        <time>2021-07-25T09:17:27Z</time>
      </trkpt>
      <trkpt lat="44.7732" lon="5.6693">
        <ele>813</ele>
        <time>2021-07-25T09:17:28Z</time>
      </trkpt>
      <trkpt lat="44.77338" lon="5.66922">
        <ele>810</ele>
        <time>2021-07-25T09:17:30Z</time>
      </trkpt>
      <trkpt lat="44.77345" lon="5.66898">
        <ele>809</ele>
        <time>2021-07-25T09:17:32Z</time>
      </trkpt>
      <trkpt lat="44.77343" lon="5.66884">
        <ele>808</ele>
        <time>2021-07-25T09:17:33Z</time>
      </trkpt>
      <trkpt lat="44.77337" lon="5.6687">
        <ele>808</ele>
        <time>2021-07-25T09:17:34Z</time>
      </trkpt>
      <trkpt lat="44.77331" lon="5.66857">
        <ele>808</ele>
        <time>2021-07-25T09:17:35Z</time>
      </trkpt>
      <trkpt lat="44.77324" lon="5.66846">
        <ele>808</ele>
        <time>2021-07-25T09:17:36Z</time>
      </trkpt>
      <trkpt lat="44.77317" lon="5.66835">
        <ele>808</ele>
        <time>2021-07-25T09:17:37Z</time>
      </trkpt>
      <trkpt lat="44.77311" lon="5.66824">
        <ele>807</ele>
        <time>2021-07-25T09:17:38Z</time>
      </trkpt>
      <trkpt lat="44.77304" lon="5.66813">
        <ele>807</ele>
        <time>2021-07-25T09:17:39Z</time>
      </trkpt>
      <trkpt lat="44.77299" lon="5.66802">
        <ele>807</ele>
        <time>2021-07-25T09:17:40Z</time>
      </trkpt>
      <trkpt lat="44.77297" lon="5.66776">
        <ele>807</ele>
        <time>2021-07-25T09:17:42Z</time>
      </trkpt>
      <trkpt lat="44.77307" lon="5.66755">
        <ele>807</ele>
        <time>2021-07-25T09:17:44Z</time>
      </trkpt>
      <trkpt lat="44.77324" lon="5.66748">
        <ele>806</ele>
        <time>2021-07-25T09:17:46Z</time>
      </trkpt>
      <trkpt lat="44.77333" lon="5.6675">
        <ele>806</ele>
        <time>2021-07-25T09:17:47Z</time>
      </trkpt>
      <trkpt lat="44.77342" lon="5.66754">
        <ele>806</ele>
        <time>2021-07-25T09:17:48Z</time>
      </trkpt>
      <trkpt lat="44.77351" lon="5.66758">
        <ele>806</ele>
        <time>2021-07-25T09:17:49Z</time>
      </trkpt>
      <trkpt lat="44.7736" lon="5.66761">
        <ele>804</ele>
        <time>2021-07-25T09:17:50Z</time>
      </trkpt>
      <trkpt lat="44.77369" lon="5.66763">
        <ele>804</ele>
        <time>2021-07-25T09:17:51Z</time>
      </trkpt>
      <trkpt lat="44.77379" lon="5.66764">
        <ele>804</ele>
        <time>2021-07-25T09:17:52Z</time>
      </trkpt>
      <trkpt lat="44.77388" lon="5.66766">
        <ele>804</ele>
        <time>2021-07-25T09:17:53Z</time>
      </trkpt>
      <trkpt lat="44.77405" lon="5.6677">
        <ele>803</ele>
        <time>2021-07-25T09:17:55Z</time>
      </trkpt>
      <trkpt lat="44.77422" lon="5.66775">
        <ele>803</ele>
        <time>2021-07-25T09:17:57Z</time>
      </trkpt>
      <trkpt lat="44.77431" lon="5.66779">
        <ele>803</ele>
        <time>2021-07-25T09:17:58Z</time>
      </trkpt>
      <trkpt lat="44.77439" lon="5.66782">
        <ele>803</ele>
        <time>2021-07-25T09:17:59Z</time>
      </trkpt>
      <trkpt lat="44.77448" lon="5.66786">
        <ele>800</ele>
        <time>2021-07-25T09:18:00Z</time>
      </trkpt>
      <trkpt lat="44.77456" lon="5.6679">
        <ele>800</ele>
        <time>2021-07-25T09:18:01Z</time>
      </trkpt>
      <trkpt lat="44.77464" lon="5.66793">
        <ele>800</ele>
        <time>2021-07-25T09:18:02Z</time>
      </trkpt>
      <trkpt lat="44.7748" lon="5.66794">
        <ele>800</ele>
        <time>2021-07-25T09:18:04Z</time>
      </trkpt>
      <trkpt lat="44.77494" lon="5.66784">
        <ele>800</ele>
        <time>2021-07-25T09:18:06Z</time>
      </trkpt>
      <trkpt lat="44.77499" lon="5.66777">
        <ele>800</ele>
        <time>2021-07-25T09:18:07Z</time>
      </trkpt>
      <trkpt lat="44.77504" lon="5.66768">
        <ele>800</ele>
        <time>2021-07-25T09:18:08Z</time>
      </trkpt>
      <trkpt lat="44.77509" lon="5.6676">
        <ele>800</ele>
        <time>2021-07-25T09:18:09Z</time>
      </trkpt>
      <trkpt lat="44.77515" lon="5.66753">
        <ele>801</ele>
        <time>2021-07-25T09:18:10Z</time>
      </trkpt>
      <trkpt lat="44.77522" lon="5.66749">
        <ele>801</ele>
        <time>2021-07-25T09:18:11Z</time>
      </trkpt>
      <trkpt lat="44.7753" lon="5.6675">
        <ele>801</ele>
        <time>2021-07-25T09:18:12Z</time>
      </trkpt>
      <trkpt lat="44.77537" lon="5.66756">
        <ele>801</ele>
        <time>2021-07-25T09:18:13Z</time>
      </trkpt>
      <trkpt lat="44.77543" lon="5.66764">
        <ele>801</ele>
        <time>2021-07-25T09:18:14Z</time>
      </trkpt>
      <trkpt lat="44.77547" lon="5.66774">
        <ele>801</ele>
        <time>2021-07-25T09:18:15Z</time>
      </trkpt>
      <trkpt lat="44.77551" lon="5.66784">
        <ele>801</ele>
        <time>2021-07-25T09:18:16Z</time>
      </trkpt>
      <trkpt lat="44.77555" lon="5.66794">
        <ele>801</ele>
        <time>2021-07-25T09:18:17Z</time>
      </trkpt>
      <trkpt lat="44.77559" lon="5.66804">
        <ele>801</ele>
        <time>2021-07-25T09:18:18Z</time>
      </trkpt>
      <trkpt lat="44.77563" lon="5.66814">
        <ele>801</ele>
        <time>2021-07-25T09:18:19Z</time>
      </trkpt>
      <trkpt lat="44.77568" lon="5.66824">
        <ele>801</ele>
        <time>2021-07-25T09:18:20Z</time>
      </trkpt>
      <trkpt lat="44.77574" lon="5.66833">
        <ele>801</ele>
        <time>2021-07-25T09:18:21Z</time>
      </trkpt>
      <trkpt lat="44.77579" lon="5.66842">
        <ele>801</ele>
        <time>2021-07-25T09:18:22Z</time>
      </trkpt>
      <trkpt lat="44.77591" lon="5.66858">
        <ele>801</ele>
        <time>2021-07-25T09:18:24Z</time>
      </trkpt>
      <trkpt lat="44.77603" lon="5.66875">
        <ele>801</ele>
        <time>2021-07-25T09:18:26Z</time>
      </trkpt>
      <trkpt lat="44.77609" lon="5.66883">
        <ele>801</ele>
        <time>2021-07-25T09:18:27Z</time>
      </trkpt>
      <trkpt lat="44.77615" lon="5.6689">
        <ele>801</ele>
        <time>2021-07-25T09:18:28Z</time>
      </trkpt>
      <trkpt lat="44.7763" lon="5.66898">
        <ele>800</ele>
        <time>2021-07-25T09:18:30Z</time>
      </trkpt>
      <trkpt lat="44.77645" lon="5.66901">
        <ele>800</ele>
        <time>2021-07-25T09:18:32Z</time>
      </trkpt>
      <trkpt lat="44.77661" lon="5.66907">
        <ele>800</ele>
        <time>2021-07-25T09:18:34Z</time>
      </trkpt>
      <trkpt lat="44.77672" lon="5.66923">
        <ele>800</ele>
        <time>2021-07-25T09:18:36Z</time>
      </trkpt>
      <trkpt lat="44.77681" lon="5.66943">
        <ele>800</ele>
        <time>2021-07-25T09:18:38Z</time>
      </trkpt>
      <trkpt lat="44.77689" lon="5.66962">
        <ele>800</ele>
        <time>2021-07-25T09:18:40Z</time>
      </trkpt>
      <trkpt lat="44.77694" lon="5.66971">
        <ele>800</ele>
        <time>2021-07-25T09:18:41Z</time>
      </trkpt>
      <trkpt lat="44.77699" lon="5.66979">
        <ele>800</ele>
        <time>2021-07-25T09:18:42Z</time>
      </trkpt>
      <trkpt lat="44.77714" lon="5.66988">
        <ele>800</ele>
        <time>2021-07-25T09:18:44Z</time>
      </trkpt>
      <trkpt lat="44.7773" lon="5.66991">
        <ele>800</ele>
        <time>2021-07-25T09:18:46Z</time>
      </trkpt>
      <trkpt lat="44.77745" lon="5.66991">
        <ele>800</ele>
        <time>2021-07-25T09:18:48Z</time>
      </trkpt>
      <trkpt lat="44.77753" lon="5.66993">
        <ele>800</ele>
        <time>2021-07-25T09:18:49Z</time>
      </trkpt>
      <trkpt lat="44.77761" lon="5.66996">
        <ele>800</ele>
        <time>2021-07-25T09:18:50Z</time>
      </trkpt>
      <trkpt lat="44.77769" lon="5.67">
        <ele>800</ele>
        <time>2021-07-25T09:18:51Z</time>
      </trkpt>
      <trkpt lat="44.77777" lon="5.67006">
        <ele>800</ele>
        <time>2021-07-25T09:18:52Z</time>
      </trkpt>
      <trkpt lat="44.77784" lon="5.67012">
        <ele>800</ele>
        <time>2021-07-25T09:18:53Z</time>
      </trkpt>
      <trkpt lat="44.77791" lon="5.67019">
        <ele>800</ele>
        <time>2021-07-25T09:18:54Z</time>
      </trkpt>
      <trkpt lat="44.77797" lon="5.67027">
        <ele>800</ele>
        <time>2021-07-25T09:18:55Z</time>
      </trkpt>
      <trkpt lat="44.77803" lon="5.67036">
        <ele>800</ele>
        <time>2021-07-25T09:18:56Z</time>
      </trkpt>
      <trkpt lat="44.77809" lon="5.67045">
        <ele>800</ele>
        <time>2021-07-25T09:18:57Z</time>
      </trkpt>
      <trkpt lat="44.77815" lon="5.67053">
        <ele>800</ele>
        <time>2021-07-25T09:18:58Z</time>
      </trkpt>
      <trkpt lat="44.77832" lon="5.67064">
        <ele>796</ele>
        <time>2021-07-25T09:19:00Z</time>
      </trkpt>
      <trkpt lat="44.77851" lon="5.67073">
        <ele>796</ele>
        <time>2021-07-25T09:19:02Z</time>
      </trkpt>
      <trkpt lat="44.77859" lon="5.67081">
        <ele>796</ele>
        <time>2021-07-25T09:19:03Z</time>
      </trkpt>
      <trkpt lat="44.77866" lon="5.67093">
        <ele>796</ele>
        <time>2021-07-25T09:19:04Z</time>
      </trkpt>
      <trkpt lat="44.7787" lon="5.67107">
        <ele>795</ele>
        <time>2021-07-25T09:19:05Z</time>
      </trkpt>
      <trkpt lat="44.77874" lon="5.67121">
        <ele>795</ele>
        <time>2021-07-25T09:19:06Z</time>
      </trkpt>
      <trkpt lat="44.77878" lon="5.67135">
        <ele>795</ele>
        <time>2021-07-25T09:19:07Z</time>
      </trkpt>
      <trkpt lat="44.77883" lon="5.67147">
        <ele>795</ele>
        <time>2021-07-25T09:19:08Z</time>
      </trkpt>
      <trkpt lat="44.77891" lon="5.67157">
        <ele>795</ele>
        <time>2021-07-25T09:19:09Z</time>
      </trkpt>
      <trkpt lat="44.77899" lon="5.67166">
        <ele>792</ele>
        <time>2021-07-25T09:19:10Z</time>
      </trkpt>
      <trkpt lat="44.77907" lon="5.67174">
        <ele>792</ele>
        <time>2021-07-25T09:19:11Z</time>
      </trkpt>
      <trkpt lat="44.77916" lon="5.67183">
        <ele>792</ele>
        <time>2021-07-25T09:19:12Z</time>
      </trkpt>
      <trkpt lat="44.77925" lon="5.67192">
        <ele>792</ele>
        <time>2021-07-25T09:19:13Z</time>
      </trkpt>
      <trkpt lat="44.77933" lon="5.67201">
        <ele>792</ele>
        <time>2021-07-25T09:19:14Z</time>
      </trkpt>
      <trkpt lat="44.77942" lon="5.67212">
        <ele>790</ele>
        <time>2021-07-25T09:19:15Z</time>
      </trkpt>
      <trkpt lat="44.7795" lon="5.67222">
        <ele>790</ele>
        <time>2021-07-25T09:19:16Z</time>
      </trkpt>
      <trkpt lat="44.77958" lon="5.67231">
        <ele>790</ele>
        <time>2021-07-25T09:19:17Z</time>
      </trkpt>
      <trkpt lat="44.77967" lon="5.6724">
        <ele>790</ele>
        <time>2021-07-25T09:19:18Z</time>
      </trkpt>
      <trkpt lat="44.77975" lon="5.67249">
        <ele>790</ele>
        <time>2021-07-25T09:19:19Z</time>
      </trkpt>
      <trkpt lat="44.77983" lon="5.67259">
        <ele>786</ele>
        <time>2021-07-25T09:19:20Z</time>
      </trkpt>
      <trkpt lat="44.77991" lon="5.67268">
        <ele>784</ele>
        <time>2021-07-25T09:19:21Z</time>
      </trkpt>
      <trkpt lat="44.77999" lon="5.67279">
        <ele>784</ele>
        <time>2021-07-25T09:19:22Z</time>
      </trkpt>
      <trkpt lat="44.78005" lon="5.67291">
        <ele>784</ele>
        <time>2021-07-25T09:19:23Z</time>
      </trkpt>
      <trkpt lat="44.78011" lon="5.67304">
        <ele>784</ele>
        <time>2021-07-25T09:19:24Z</time>
      </trkpt>
      <trkpt lat="44.78017" lon="5.67317">
        <ele>783</ele>
        <time>2021-07-25T09:19:25Z</time>
      </trkpt>
      <trkpt lat="44.78021" lon="5.67331">
        <ele>782</ele>
        <time>2021-07-25T09:19:26Z</time>
      </trkpt>
      <trkpt lat="44.78026" lon="5.67345">
        <ele>781</ele>
        <time>2021-07-25T09:19:27Z</time>
      </trkpt>
      <trkpt lat="44.78031" lon="5.67358">
        <ele>780</ele>
        <time>2021-07-25T09:19:28Z</time>
      </trkpt>
      <trkpt lat="44.78036" lon="5.67372">
        <ele>779</ele>
        <time>2021-07-25T09:19:29Z</time>
      </trkpt>
      <trkpt lat="44.7804" lon="5.67386">
        <ele>778</ele>
        <time>2021-07-25T09:19:30Z</time>
      </trkpt>
      <trkpt lat="44.78044" lon="5.674">
        <ele>779</ele>
        <time>2021-07-25T09:19:31Z</time>
      </trkpt>
      <trkpt lat="44.78047" lon="5.67415">
        <ele>779</ele>
        <time>2021-07-25T09:19:32Z</time>
      </trkpt>
      <trkpt lat="44.78049" lon="5.67429">
        <ele>777</ele>
        <time>2021-07-25T09:19:33Z</time>
      </trkpt>
      <trkpt lat="44.78051" lon="5.67444">
        <ele>776</ele>
        <time>2021-07-25T09:19:34Z</time>
      </trkpt>
      <trkpt lat="44.78053" lon="5.67459">
        <ele>776</ele>
        <time>2021-07-25T09:19:35Z</time>
      </trkpt>
      <trkpt lat="44.78055" lon="5.67474">
        <ele>775</ele>
        <time>2021-07-25T09:19:36Z</time>
      </trkpt>
      <trkpt lat="44.78057" lon="5.67489">
        <ele>774</ele>
        <time>2021-07-25T09:19:37Z</time>
      </trkpt>
      <trkpt lat="44.78059" lon="5.67504">
        <ele>774</ele>
        <time>2021-07-25T09:19:38Z</time>
      </trkpt>
      <trkpt lat="44.78061" lon="5.67519">
        <ele>772</ele>
        <time>2021-07-25T09:19:39Z</time>
      </trkpt>
      <trkpt lat="44.78063" lon="5.67535">
        <ele>773</ele>
        <time>2021-07-25T09:19:40Z</time>
      </trkpt>
      <trkpt lat="44.78064" lon="5.6755">
        <ele>773</ele>
        <time>2021-07-25T09:19:41Z</time>
      </trkpt>
      <trkpt lat="44.78066" lon="5.67565">
        <ele>773</ele>
        <time>2021-07-25T09:19:42Z</time>
      </trkpt>
      <trkpt lat="44.78068" lon="5.6758">
        <ele>772</ele>
        <time>2021-07-25T09:19:43Z</time>
      </trkpt>
      <trkpt lat="44.7807" lon="5.67594">
        <ele>772</ele>
        <time>2021-07-25T09:19:44Z</time>
      </trkpt>
      <trkpt lat="44.78073" lon="5.67609">
        <ele>772</ele>
        <time>2021-07-25T09:19:45Z</time>
      </trkpt>
      <trkpt lat="44.78075" lon="5.67623">
        <ele>772</ele>
        <time>2021-07-25T09:19:46Z</time>
      </trkpt>
      <trkpt lat="44.78077" lon="5.67638">
        <ele>771</ele>
        <time>2021-07-25T09:19:47Z</time>
      </trkpt>
      <trkpt lat="44.78079" lon="5.67653">
        <ele>771</ele>
        <time>2021-07-25T09:19:48Z</time>
      </trkpt>
      <trkpt lat="44.78082" lon="5.67668">
        <ele>770</ele>
        <time>2021-07-25T09:19:49Z</time>
      </trkpt>
      <trkpt lat="44.78084" lon="5.67683">
        <ele>769</ele>
        <time>2021-07-25T09:19:50Z</time>
      </trkpt>
      <trkpt lat="44.78086" lon="5.67698">
        <ele>769</ele>
        <time>2021-07-25T09:19:51Z</time>
      </trkpt>
      <trkpt lat="44.78089" lon="5.67714">
        <ele>769</ele>
        <time>2021-07-25T09:19:52Z</time>
      </trkpt>
      <trkpt lat="44.78092" lon="5.67729">
        <ele>769</ele>
        <time>2021-07-25T09:19:53Z</time>
      </trkpt>
      <trkpt lat="44.78095" lon="5.67744">
        <ele>769</ele>
        <time>2021-07-25T09:19:54Z</time>
      </trkpt>
      <trkpt lat="44.781" lon="5.67759">
        <ele>766</ele>
        <time>2021-07-25T09:19:55Z</time>
      </trkpt>
      <trkpt lat="44.78107" lon="5.67772">
        <ele>766</ele>
        <time>2021-07-25T09:19:56Z</time>
      </trkpt>
      <trkpt lat="44.78114" lon="5.67783">
        <ele>766</ele>
        <time>2021-07-25T09:19:57Z</time>
      </trkpt>
      <trkpt lat="44.78123" lon="5.67793">
        <ele>766</ele>
        <time>2021-07-25T09:19:58Z</time>
      </trkpt>
      <trkpt lat="44.78132" lon="5.67802">
        <ele>766</ele>
        <time>2021-07-25T09:19:59Z</time>
      </trkpt>
      <trkpt lat="44.78142" lon="5.6781">
        <ele>762</ele>
        <time>2021-07-25T09:20:00Z</time>
      </trkpt>
      <trkpt lat="44.78151" lon="5.67818">
        <ele>762</ele>
        <time>2021-07-25T09:20:01Z</time>
      </trkpt>
      <trkpt lat="44.7816" lon="5.67827">
        <ele>762</ele>
        <time>2021-07-25T09:20:02Z</time>
      </trkpt>
      <trkpt lat="44.78169" lon="5.67836">
        <ele>762</ele>
        <time>2021-07-25T09:20:03Z</time>
      </trkpt>
      <trkpt lat="44.78178" lon="5.67845">
        <ele>760</ele>
        <time>2021-07-25T09:20:04Z</time>
      </trkpt>
      <trkpt lat="44.78187" lon="5.67854">
        <ele>759</ele>
        <time>2021-07-25T09:20:05Z</time>
      </trkpt>
      <trkpt lat="44.78196" lon="5.67863">
        <ele>760</ele>
        <time>2021-07-25T09:20:06Z</time>
      </trkpt>
      <trkpt lat="44.78204" lon="5.67872">
        <ele>759</ele>
        <time>2021-07-25T09:20:07Z</time>
      </trkpt>
      <trkpt lat="44.78213" lon="5.67881">
        <ele>759</ele>
        <time>2021-07-25T09:20:08Z</time>
      </trkpt>
      <trkpt lat="44.78222" lon="5.67891">
        <ele>759</ele>
        <time>2021-07-25T09:20:09Z</time>
      </trkpt>
      <trkpt lat="44.7823" lon="5.67901">
        <ele>759</ele>
        <time>2021-07-25T09:20:10Z</time>
      </trkpt>
      <trkpt lat="44.78239" lon="5.6791">
        <ele>759</ele>
        <time>2021-07-25T09:20:11Z</time>
      </trkpt>
      <trkpt lat="44.78247" lon="5.67919">
        <ele>759</ele>
        <time>2021-07-25T09:20:12Z</time>
      </trkpt>
      <trkpt lat="44.78256" lon="5.67928">
        <ele>759</ele>
        <time>2021-07-25T09:20:13Z</time>
      </trkpt>
      <trkpt lat="44.78265" lon="5.67937">
        <ele>759</ele>
        <time>2021-07-25T09:20:14Z</time>
      </trkpt>
      <trkpt lat="44.78273" lon="5.67946">
        <ele>758</ele>
        <time>2021-07-25T09:20:15Z</time>
      </trkpt>
      <trkpt lat="44.78282" lon="5.67955">
        <ele>758</ele>
        <time>2021-07-25T09:20:16Z</time>
      </trkpt>
      <trkpt lat="44.78291" lon="5.67963">
        <ele>758</ele>
        <time>2021-07-25T09:20:17Z</time>
      </trkpt>
      <trkpt lat="44.783" lon="5.67972">
        <ele>758</ele>
        <time>2021-07-25T09:20:18Z</time>
      </trkpt>
      <trkpt lat="44.7831" lon="5.6798">
        <ele>758</ele>
        <time>2021-07-25T09:20:19Z</time>
      </trkpt>
      <trkpt lat="44.78319" lon="5.67989">
        <ele>755</ele>
        <time>2021-07-25T09:20:20Z</time>
      </trkpt>
      <trkpt lat="44.78329" lon="5.67997">
        <ele>755</ele>
        <time>2021-07-25T09:20:21Z</time>
      </trkpt>
      <trkpt lat="44.78339" lon="5.68005">
        <ele>755</ele>
        <time>2021-07-25T09:20:22Z</time>
      </trkpt>
      <trkpt lat="44.78349" lon="5.6801">
        <ele>755</ele>
        <time>2021-07-25T09:20:23Z</time>
      </trkpt>
      <trkpt lat="44.7836" lon="5.68014">
        <ele>755</ele>
        <time>2021-07-25T09:20:24Z</time>
      </trkpt>
      <trkpt lat="44.78371" lon="5.68015">
        <ele>753</ele>
        <time>2021-07-25T09:20:25Z</time>
      </trkpt>
      <trkpt lat="44.78383" lon="5.68016">
        <ele>753</ele>
        <time>2021-07-25T09:20:26Z</time>
      </trkpt>
      <trkpt lat="44.78394" lon="5.68016">
        <ele>753</ele>
        <time>2021-07-25T09:20:27Z</time>
      </trkpt>
      <trkpt lat="44.78404" lon="5.68015">
        <ele>753</ele>
        <time>2021-07-25T09:20:28Z</time>
      </trkpt>
      <trkpt lat="44.78414" lon="5.68014">
        <ele>753</ele>
        <time>2021-07-25T09:20:29Z</time>
      </trkpt>
      <trkpt lat="44.78423" lon="5.68011">
        <ele>750</ele>
        <time>2021-07-25T09:20:30Z</time>
      </trkpt>
      <trkpt lat="44.78431" lon="5.68008">
        <ele>748</ele>
        <time>2021-07-25T09:20:31Z</time>
      </trkpt>
      <trkpt lat="44.78438" lon="5.68005">
        <ele>748</ele>
        <time>2021-07-25T09:20:32Z</time>
      </trkpt>
      <trkpt lat="44.7845" lon="5.68002">
        <ele>747</ele>
        <time>2021-07-25T09:20:34Z</time>
      </trkpt>
      <trkpt lat="44.78459" lon="5.68011">
        <ele>747</ele>
        <time>2021-07-25T09:20:36Z</time>
      </trkpt>
      <trkpt lat="44.78458" lon="5.68027">
        <ele>746</ele>
        <time>2021-07-25T09:20:38Z</time>
      </trkpt>
      <trkpt lat="44.78446" lon="5.68039">
        <ele>744</ele>
        <time>2021-07-25T09:20:40Z</time>
      </trkpt>
      <trkpt lat="44.78431" lon="5.68045">
        <ele>743</ele>
        <time>2021-07-25T09:20:42Z</time>
      </trkpt>
      <trkpt lat="44.78416" lon="5.68051">
        <ele>742</ele>
        <time>2021-07-25T09:20:44Z</time>
      </trkpt>
      <trkpt lat="44.78403" lon="5.68064">
        <ele>741</ele>
        <time>2021-07-25T09:20:46Z</time>
      </trkpt>
      <trkpt lat="44.78399" lon="5.68084">
        <ele>741</ele>
        <time>2021-07-25T09:20:48Z</time>
      </trkpt>
      <trkpt lat="44.78409" lon="5.68102">
        <ele>740</ele>
        <time>2021-07-25T09:20:50Z</time>
      </trkpt>
      <trkpt lat="44.78417" lon="5.68107">
        <ele>740</ele>
        <time>2021-07-25T09:20:51Z</time>
      </trkpt>
      <trkpt lat="44.78426" lon="5.6811">
        <ele>740</ele>
        <time>2021-07-25T09:20:52Z</time>
      </trkpt>
      <trkpt lat="44.78436" lon="5.68111">
        <ele>740</ele>
        <time>2021-07-25T09:20:53Z</time>
      </trkpt>
      <trkpt lat="44.78446" lon="5.68111">
        <ele>740</ele>
        <time>2021-07-25T09:20:54Z</time>
      </trkpt>
      <trkpt lat="44.78455" lon="5.68109">
        <ele>738</ele>
        <time>2021-07-25T09:20:55Z</time>
      </trkpt>
      <trkpt lat="44.78465" lon="5.68105">
        <ele>738</ele>
        <time>2021-07-25T09:20:56Z</time>
      </trkpt>
      <trkpt lat="44.78474" lon="5.68099">
        <ele>738</ele>
        <time>2021-07-25T09:20:57Z</time>
      </trkpt>
      <trkpt lat="44.78481" lon="5.68093">
        <ele>738</ele>
        <time>2021-07-25T09:20:58Z</time>
      </trkpt>
      <trkpt lat="44.78489" lon="5.6809">
        <ele>738</ele>
        <time>2021-07-25T09:20:59Z</time>
      </trkpt>
      <trkpt lat="44.785" lon="5.68093">
        <ele>734</ele>
        <time>2021-07-25T09:21:01Z</time>
      </trkpt>
      <trkpt lat="44.78504" lon="5.68108">
        <ele>733</ele>
        <time>2021-07-25T09:21:03Z</time>
      </trkpt>
      <trkpt lat="44.78501" lon="5.68118">
        <ele>733</ele>
        <time>2021-07-25T09:21:04Z</time>
      </trkpt>
      <trkpt lat="44.78495" lon="5.68126">
        <ele>732</ele>
        <time>2021-07-25T09:21:05Z</time>
      </trkpt>
      <trkpt lat="44.78489" lon="5.68131">
        <ele>731</ele>
        <time>2021-07-25T09:21:06Z</time>
      </trkpt>
      <trkpt lat="44.78482" lon="5.68136">
        <ele>731</ele>
        <time>2021-07-25T09:21:07Z</time>
      </trkpt>
      <trkpt lat="44.78474" lon="5.68141">
        <ele>730</ele>
        <time>2021-07-25T09:21:08Z</time>
      </trkpt>
      <trkpt lat="44.78466" lon="5.68146">
        <ele>729</ele>
        <time>2021-07-25T09:21:09Z</time>
      </trkpt>
      <trkpt lat="44.78458" lon="5.6815">
        <ele>729</ele>
        <time>2021-07-25T09:21:10Z</time>
      </trkpt>
      <trkpt lat="44.7845" lon="5.68154">
        <ele>729</ele>
        <time>2021-07-25T09:21:11Z</time>
      </trkpt>
      <trkpt lat="44.78443" lon="5.68157">
        <ele>729</ele>
        <time>2021-07-25T09:21:12Z</time>
      </trkpt>
      <trkpt lat="44.78436" lon="5.68161">
        <ele>729</ele>
        <time>2021-07-25T09:21:13Z</time>
      </trkpt>
      <trkpt lat="44.78431" lon="5.68167">
        <ele>729</ele>
        <time>2021-07-25T09:21:14Z</time>
      </trkpt>
      <trkpt lat="44.78428" lon="5.68175">
        <ele>728</ele>
        <time>2021-07-25T09:21:15Z</time>
      </trkpt>
      <trkpt lat="44.78434" lon="5.68192">
        <ele>728</ele>
        <time>2021-07-25T09:21:17Z</time>
      </trkpt>
      <trkpt lat="44.78443" lon="5.68193">
        <ele>728</ele>
        <time>2021-07-25T09:21:18Z</time>
      </trkpt>
      <trkpt lat="44.78452" lon="5.68191">
        <ele>728</ele>
        <time>2021-07-25T09:21:19Z</time>
      </trkpt>
      <trkpt lat="44.78461" lon="5.68187">
        <ele>725</ele>
        <time>2021-07-25T09:21:20Z</time>
      </trkpt>
      <trkpt lat="44.78469" lon="5.68183">
        <ele>725</ele>
        <time>2021-07-25T09:21:21Z</time>
      </trkpt>
      <trkpt lat="44.78476" lon="5.68179">
        <ele>725</ele>
        <time>2021-07-25T09:21:22Z</time>
      </trkpt>
      <trkpt lat="44.78484" lon="5.68176">
        <ele>725</ele>
        <time>2021-07-25T09:21:23Z</time>
      </trkpt>
      <trkpt lat="44.78492" lon="5.68173">
        <ele>725</ele>
        <time>2021-07-25T09:21:24Z</time>
      </trkpt>
      <trkpt lat="44.785" lon="5.68172">
        <ele>726</ele>
        <time>2021-07-25T09:21:25Z</time>
      </trkpt>
      <trkpt lat="44.78508" lon="5.68172">
        <ele>726</ele>
        <time>2021-07-25T09:21:26Z</time>
      </trkpt>
      <trkpt lat="44.78516" lon="5.68173">
        <ele>726</ele>
        <time>2021-07-25T09:21:27Z</time>
      </trkpt>
      <trkpt lat="44.78524" lon="5.68174">
        <ele>726</ele>
        <time>2021-07-25T09:21:28Z</time>
      </trkpt>
      <trkpt lat="44.78539" lon="5.68177">
        <ele>724</ele>
        <time>2021-07-25T09:21:30Z</time>
      </trkpt>
      <trkpt lat="44.78554" lon="5.6818">
        <ele>724</ele>
        <time>2021-07-25T09:21:32Z</time>
      </trkpt>
      <trkpt lat="44.78569" lon="5.68183">
        <ele>724</ele>
        <time>2021-07-25T09:21:34Z</time>
      </trkpt>
      <trkpt lat="44.78584" lon="5.68187">
        <ele>724</ele>
        <time>2021-07-25T09:21:36Z</time>
      </trkpt>
      <trkpt lat="44.78598" lon="5.68193">
        <ele>724</ele>
        <time>2021-07-25T09:21:38Z</time>
      </trkpt>
      <trkpt lat="44.78603" lon="5.68199">
        <ele>724</ele>
        <time>2021-07-25T09:21:39Z</time>
      </trkpt>
      <trkpt lat="44.78607" lon="5.68206">
        <ele>723</ele>
        <time>2021-07-25T09:21:40Z</time>
      </trkpt>
      <trkpt lat="44.78609" lon="5.68214">
        <ele>723</ele>
        <time>2021-07-25T09:21:41Z</time>
      </trkpt>
      <trkpt lat="44.78607" lon="5.68227">
        <ele>723</ele>
        <time>2021-07-25T09:21:43Z</time>
      </trkpt>
      <trkpt lat="44.78602" lon="5.68237">
        <ele>723</ele>
        <time>2021-07-25T09:21:45Z</time>
      </trkpt>
      <trkpt lat="44.78598" lon="5.68246">
        <ele>723</ele>
        <time>2021-07-25T09:21:47Z</time>
      </trkpt>
      <trkpt lat="44.78595" lon="5.68261">
        <ele>726</ele>
        <time>2021-07-25T09:21:50Z</time>
      </trkpt>
      <trkpt lat="44.78599" lon="5.68275">
        <ele>726</ele>
        <time>2021-07-25T09:21:53Z</time>
      </trkpt>
      <trkpt lat="44.78607" lon="5.6828">
        <ele>729</ele>
        <time>2021-07-25T09:21:56Z</time>
      </trkpt>
      <trkpt lat="44.7862" lon="5.68276">
        <ele>732</ele>
        <time>2021-07-25T09:22:00Z</time>
      </trkpt>
      <trkpt lat="44.7863" lon="5.68273">
        <ele>732</ele>
        <time>2021-07-25T09:22:03Z</time>
      </trkpt>
      <trkpt lat="44.7864" lon="5.68281">
        <ele>733</ele>
        <time>2021-07-25T09:22:07Z</time>
      </trkpt>
      <trkpt lat="44.78649" lon="5.68295">
        <ele>734</ele>
        <time>2021-07-25T09:22:11Z</time>
      </trkpt>
      <trkpt lat="44.78654" lon="5.6831">
        <ele>735</ele>
        <time>2021-07-25T09:22:15Z</time>
      </trkpt>
      <trkpt lat="44.78654" lon="5.68325">
        <ele>735</ele>
        <time>2021-07-25T09:22:19Z</time>
      </trkpt>
      <trkpt lat="44.78652" lon="5.68338">
        <ele>737</ele>
        <time>2021-07-25T09:22:22Z</time>
      </trkpt>
      <trkpt lat="44.7865" lon="5.68347">
        <ele>737</ele>
        <time>2021-07-25T09:22:24Z</time>
      </trkpt>
      <trkpt lat="44.78648" lon="5.68355">
        <ele>739</ele>
        <time>2021-07-25T09:22:26Z</time>
      </trkpt>
      <trkpt lat="44.78647" lon="5.68364">
        <ele>739</ele>
        <time>2021-07-25T09:22:28Z</time>
      </trkpt>
      <trkpt lat="44.78645" lon="5.68373">
        <ele>740</ele>
        <time>2021-07-25T09:22:30Z</time>
      </trkpt>
      <trkpt lat="44.78642" lon="5.68383">
        <ele>740</ele>
        <time>2021-07-25T09:22:32Z</time>
      </trkpt>
      <trkpt lat="44.7864" lon="5.68392">
        <ele>740</ele>
        <time>2021-07-25T09:22:34Z</time>
      </trkpt>
      <trkpt lat="44.78637" lon="5.68402">
        <ele>741</ele>
        <time>2021-07-25T09:22:36Z</time>
      </trkpt>
      <trkpt lat="44.78635" lon="5.68413">
        <ele>741</ele>
        <time>2021-07-25T09:22:38Z</time>
      </trkpt>
      <trkpt lat="44.78632" lon="5.68424">
        <ele>741</ele>
        <time>2021-07-25T09:22:40Z</time>
      </trkpt>
      <trkpt lat="44.78629" lon="5.68434">
        <ele>741</ele>
        <time>2021-07-25T09:22:42Z</time>
      </trkpt>
      <trkpt lat="44.78625" lon="5.68445">
        <ele>741</ele>
        <time>2021-07-25T09:22:44Z</time>
      </trkpt>
      <trkpt lat="44.78622" lon="5.68455">
        <ele>741</ele>
        <time>2021-07-25T09:22:46Z</time>
      </trkpt>
      <trkpt lat="44.78618" lon="5.68465">
        <ele>741</ele>
        <time>2021-07-25T09:22:48Z</time>
      </trkpt>
      <trkpt lat="44.78616" lon="5.68474">
        <ele>743</ele>
        <time>2021-07-25T09:22:50Z</time>
      </trkpt>
      <trkpt lat="44.78613" lon="5.68484">
        <ele>743</ele>
        <time>2021-07-25T09:22:52Z</time>
      </trkpt>
      <trkpt lat="44.7861" lon="5.68498">
        <ele>743</ele>
        <time>2021-07-25T09:22:55Z</time>
      </trkpt>
      <trkpt lat="44.78606" lon="5.68513">
        <ele>743</ele>
        <time>2021-07-25T09:22:58Z</time>
      </trkpt>
      <trkpt lat="44.78602" lon="5.68522">
        <ele>747</ele>
        <time>2021-07-25T09:23:00Z</time>
      </trkpt>
      <trkpt lat="44.78598" lon="5.68532">
        <ele>747</ele>
        <time>2021-07-25T09:23:02Z</time>
      </trkpt>
      <trkpt lat="44.78594" lon="5.68542">
        <ele>747</ele>
        <time>2021-07-25T09:23:04Z</time>
      </trkpt>
      <trkpt lat="44.7859" lon="5.68552">
        <ele>748</ele>
        <time>2021-07-25T09:23:06Z</time>
      </trkpt>
      <trkpt lat="44.78585" lon="5.68561">
        <ele>748</ele>
        <time>2021-07-25T09:23:08Z</time>
      </trkpt>
      <trkpt lat="44.7858" lon="5.68569">
        <ele>748</ele>
        <time>2021-07-25T09:23:10Z</time>
      </trkpt>
      <trkpt lat="44.78576" lon="5.68576">
        <ele>748</ele>
        <time>2021-07-25T09:23:12Z</time>
      </trkpt>
      <trkpt lat="44.78572" lon="5.68584">
        <ele>748</ele>
        <time>2021-07-25T09:23:14Z</time>
      </trkpt>
      <trkpt lat="44.78568" lon="5.68591">
        <ele>748</ele>
        <time>2021-07-25T09:23:16Z</time>
      </trkpt>
      <trkpt lat="44.78563" lon="5.68598">
        <ele>747</ele>
        <time>2021-07-25T09:23:18Z</time>
      </trkpt>
      <trkpt lat="44.78558" lon="5.68604">
        <ele>750</ele>
        <time>2021-07-25T09:23:20Z</time>
      </trkpt>
      <trkpt lat="44.78552" lon="5.68611">
        <ele>749</ele>
        <time>2021-07-25T09:23:22Z</time>
      </trkpt>
      <trkpt lat="44.78547" lon="5.68619">
        <ele>749</ele>
        <time>2021-07-25T09:23:24Z</time>
      </trkpt>
      <trkpt lat="44.78543" lon="5.68627">
        <ele>751</ele>
        <time>2021-07-25T09:23:26Z</time>
      </trkpt>
      <trkpt lat="44.78539" lon="5.68637">
        <ele>750</ele>
        <time>2021-07-25T09:23:28Z</time>
      </trkpt>
      <trkpt lat="44.78537" lon="5.68646">
        <ele>751</ele>
        <time>2021-07-25T09:23:30Z</time>
      </trkpt>
      <trkpt lat="44.78537" lon="5.68656">
        <ele>750</ele>
        <time>2021-07-25T09:23:32Z</time>
      </trkpt>
      <trkpt lat="44.78538" lon="5.68665">
        <ele>750</ele>
        <time>2021-07-25T09:23:34Z</time>
      </trkpt>
      <trkpt lat="44.78542" lon="5.68673">
        <ele>751</ele>
        <time>2021-07-25T09:23:36Z</time>
      </trkpt>
      <trkpt lat="44.78551" lon="5.68678">
        <ele>751</ele>
        <time>2021-07-25T09:23:39Z</time>
      </trkpt>
      <trkpt lat="44.78562" lon="5.6868">
        <ele>752</ele>
        <time>2021-07-25T09:23:42Z</time>
      </trkpt>
      <trkpt lat="44.78574" lon="5.68678">
        <ele>752</ele>
        <time>2021-07-25T09:23:45Z</time>
      </trkpt>
      <trkpt lat="44.78581" lon="5.68675">
        <ele>752</ele>
        <time>2021-07-25T09:23:47Z</time>
      </trkpt>
      <trkpt lat="44.78589" lon="5.68674">
        <ele>752</ele>
        <time>2021-07-25T09:23:49Z</time>
      </trkpt>
      <trkpt lat="44.78596" lon="5.68673">
        <ele>752</ele>
        <time>2021-07-25T09:23:51Z</time>
      </trkpt>
      <trkpt lat="44.78607" lon="5.68671">
        <ele>752</ele>
        <time>2021-07-25T09:23:54Z</time>
      </trkpt>
      <trkpt lat="44.78615" lon="5.6867">
        <ele>752</ele>
        <time>2021-07-25T09:23:56Z</time>
      </trkpt>
      <trkpt lat="44.78626" lon="5.68669">
        <ele>751</ele>
        <time>2021-07-25T09:23:59Z</time>
      </trkpt>
      <trkpt lat="44.78637" lon="5.68669">
        <ele>754</ele>
        <time>2021-07-25T09:24:02Z</time>
      </trkpt>
      <trkpt lat="44.78649" lon="5.68669">
        <ele>756</ele>
        <time>2021-07-25T09:24:05Z</time>
      </trkpt>
      <trkpt lat="44.7866" lon="5.68668">
        <ele>755</ele>
        <time>2021-07-25T09:24:08Z</time>
      </trkpt>
      <trkpt lat="44.78671" lon="5.68663">
        <ele>756</ele>
        <time>2021-07-25T09:24:11Z</time>
      </trkpt>
      <trkpt lat="44.78678" lon="5.68658">
        <ele>755</ele>
        <time>2021-07-25T09:24:13Z</time>
      </trkpt>
      <trkpt lat="44.78689" lon="5.68651">
        <ele>755</ele>
        <time>2021-07-25T09:24:16Z</time>
      </trkpt>
      <trkpt lat="44.78698" lon="5.68643">
        <ele>755</ele>
        <time>2021-07-25T09:24:19Z</time>
      </trkpt>
      <trkpt lat="44.78707" lon="5.68634">
        <ele>757</ele>
        <time>2021-07-25T09:24:22Z</time>
      </trkpt>
      <trkpt lat="44.78717" lon="5.68625">
        <ele>757</ele>
        <time>2021-07-25T09:24:25Z</time>
      </trkpt>
      <trkpt lat="44.78725" lon="5.68615">
        <ele>757</ele>
        <time>2021-07-25T09:24:28Z</time>
      </trkpt>
      <trkpt lat="44.78734" lon="5.68603">
        <ele>758</ele>
        <time>2021-07-25T09:24:31Z</time>
      </trkpt>
      <trkpt lat="44.78742" lon="5.68591">
        <ele>758</ele>
        <time>2021-07-25T09:24:34Z</time>
      </trkpt>
      <trkpt lat="44.7875" lon="5.68577">
        <ele>760</ele>
        <time>2021-07-25T09:24:37Z</time>
      </trkpt>
      <trkpt lat="44.78755" lon="5.68569">
        <ele>760</ele>
        <time>2021-07-25T09:24:39Z</time>
      </trkpt>
      <trkpt lat="44.78762" lon="5.68564">
        <ele>761</ele>
        <time>2021-07-25T09:24:41Z</time>
      </trkpt>
      <trkpt lat="44.78769" lon="5.68561">
        <ele>761</ele>
        <time>2021-07-25T09:24:43Z</time>
      </trkpt>
      <trkpt lat="44.78777" lon="5.68564">
        <ele>761</ele>
        <time>2021-07-25T09:24:45Z</time>
      </trkpt>
      <trkpt lat="44.78783" lon="5.68573">
        <ele>760</ele>
        <time>2021-07-25T09:24:47Z</time>
      </trkpt>
      <trkpt lat="44.78787" lon="5.68583">
        <ele>760</ele>
        <time>2021-07-25T09:24:49Z</time>
      </trkpt>
      <trkpt lat="44.7879" lon="5.68589">
        <ele>762</ele>
        <time>2021-07-25T09:24:50Z</time>
      </trkpt>
      <trkpt lat="44.78792" lon="5.68595">
        <ele>762</ele>
        <time>2021-07-25T09:24:51Z</time>
      </trkpt>
      <trkpt lat="44.78795" lon="5.68609">
        <ele>762</ele>
        <time>2021-07-25T09:24:53Z</time>
      </trkpt>
      <trkpt lat="44.78797" lon="5.68623">
        <ele>762</ele>
        <time>2021-07-25T09:24:55Z</time>
      </trkpt>
      <trkpt lat="44.788" lon="5.68638">
        <ele>761</ele>
        <time>2021-07-25T09:24:57Z</time>
      </trkpt>
      <trkpt lat="44.78804" lon="5.68653">
        <ele>761</ele>
        <time>2021-07-25T09:24:59Z</time>
      </trkpt>
      <trkpt lat="44.78808" lon="5.68668">
        <ele>761</ele>
        <time>2021-07-25T09:25:01Z</time>
      </trkpt>
      <trkpt lat="44.78811" lon="5.68683">
        <ele>761</ele>
        <time>2021-07-25T09:25:03Z</time>
      </trkpt>
      <trkpt lat="44.78814" lon="5.68699">
        <ele>761</ele>
        <time>2021-07-25T09:25:05Z</time>
      </trkpt>
      <trkpt lat="44.78818" lon="5.68715">
        <ele>761</ele>
        <time>2021-07-25T09:25:07Z</time>
      </trkpt>
      <trkpt lat="44.7882" lon="5.68723">
        <ele>761</ele>
        <time>2021-07-25T09:25:08Z</time>
      </trkpt>
      <trkpt lat="44.78822" lon="5.68731">
        <ele>761</ele>
        <time>2021-07-25T09:25:09Z</time>
      </trkpt>
      <trkpt lat="44.78823" lon="5.6874">
        <ele>760</ele>
        <time>2021-07-25T09:25:10Z</time>
      </trkpt>
      <trkpt lat="44.78827" lon="5.68756">
        <ele>759</ele>
        <time>2021-07-25T09:25:12Z</time>
      </trkpt>
      <trkpt lat="44.7883" lon="5.68764">
        <ele>759</ele>
        <time>2021-07-25T09:25:13Z</time>
      </trkpt>
      <trkpt lat="44.78832" lon="5.68772">
        <ele>759</ele>
        <time>2021-07-25T09:25:14Z</time>
      </trkpt>
      <trkpt lat="44.78834" lon="5.68781">
        <ele>759</ele>
        <time>2021-07-25T09:25:15Z</time>
      </trkpt>
      <trkpt lat="44.78836" lon="5.68789">
        <ele>759</ele>
        <time>2021-07-25T09:25:16Z</time>
      </trkpt>
      <trkpt lat="44.78837" lon="5.68798">
        <ele>759</ele>
        <time>2021-07-25T09:25:17Z</time>
      </trkpt>
      <trkpt lat="44.78839" lon="5.68807">
        <ele>759</ele>
        <time>2021-07-25T09:25:18Z</time>
      </trkpt>
      <trkpt lat="44.7884" lon="5.68815">
        <ele>759</ele>
        <time>2021-07-25T09:25:19Z</time>
      </trkpt>
      <trkpt lat="44.78842" lon="5.68824">
        <ele>760</ele>
        <time>2021-07-25T09:25:20Z</time>
      </trkpt>
      <trkpt lat="44.78845" lon="5.68832">
        <ele>760</ele>
        <time>2021-07-25T09:25:21Z</time>
      </trkpt>
      <trkpt lat="44.78847" lon="5.68841">
        <ele>760</ele>
        <time>2021-07-25T09:25:22Z</time>
      </trkpt>
      <trkpt lat="44.78849" lon="5.68849">
        <ele>760</ele>
        <time>2021-07-25T09:25:23Z</time>
      </trkpt>
      <trkpt lat="44.78851" lon="5.68857">
        <ele>760</ele>
        <time>2021-07-25T09:25:24Z</time>
      </trkpt>
      <trkpt lat="44.78853" lon="5.68866">
        <ele>760</ele>
        <time>2021-07-25T09:25:25Z</time>
      </trkpt>
      <trkpt lat="44.78855" lon="5.68875">
        <ele>760</ele>
        <time>2021-07-25T09:25:26Z</time>
      </trkpt>
      <trkpt lat="44.78857" lon="5.68884">
        <ele>760</ele>
        <time>2021-07-25T09:25:27Z</time>
      </trkpt>
      <trkpt lat="44.78858" lon="5.68893">
        <ele>759</ele>
        <time>2021-07-25T09:25:28Z</time>
      </trkpt>
      <trkpt lat="44.7886" lon="5.68902">
        <ele>759</ele>
        <time>2021-07-25T09:25:29Z</time>
      </trkpt>
      <trkpt lat="44.78862" lon="5.68911">
        <ele>759</ele>
        <time>2021-07-25T09:25:30Z</time>
      </trkpt>
      <trkpt lat="44.78864" lon="5.6892">
        <ele>759</ele>
        <time>2021-07-25T09:25:31Z</time>
      </trkpt>
      <trkpt lat="44.78866" lon="5.68928">
        <ele>759</ele>
        <time>2021-07-25T09:25:32Z</time>
      </trkpt>
      <trkpt lat="44.78869" lon="5.68937">
        <ele>759</ele>
        <time>2021-07-25T09:25:33Z</time>
      </trkpt>
      <trkpt lat="44.78871" lon="5.68946">
        <ele>759</ele>
        <time>2021-07-25T09:25:34Z</time>
      </trkpt>
      <trkpt lat="44.78873" lon="5.68954">
        <ele>759</ele>
        <time>2021-07-25T09:25:35Z</time>
      </trkpt>
      <trkpt lat="44.78875" lon="5.68963">
        <ele>759</ele>
        <time>2021-07-25T09:25:36Z</time>
      </trkpt>
      <trkpt lat="44.78877" lon="5.68971">
        <ele>759</ele>
        <time>2021-07-25T09:25:37Z</time>
      </trkpt>
      <trkpt lat="44.78879" lon="5.6898">
        <ele>759</ele>
        <time>2021-07-25T09:25:38Z</time>
      </trkpt>
      <trkpt lat="44.78881" lon="5.68989">
        <ele>759</ele>
        <time>2021-07-25T09:25:39Z</time>
      </trkpt>
      <trkpt lat="44.78883" lon="5.68997">
        <ele>759</ele>
        <time>2021-07-25T09:25:40Z</time>
      </trkpt>
      <trkpt lat="44.78885" lon="5.69006">
        <ele>759</ele>
        <time>2021-07-25T09:25:41Z</time>
      </trkpt>
      <trkpt lat="44.78886" lon="5.69015">
        <ele>759</ele>
        <time>2021-07-25T09:25:42Z</time>
      </trkpt>
      <trkpt lat="44.78888" lon="5.69023">
        <ele>759</ele>
        <time>2021-07-25T09:25:43Z</time>
      </trkpt>
      <trkpt lat="44.78891" lon="5.69032">
        <ele>759</ele>
        <time>2021-07-25T09:25:44Z</time>
      </trkpt>
      <trkpt lat="44.78893" lon="5.69041">
        <ele>758</ele>
        <time>2021-07-25T09:25:45Z</time>
      </trkpt>
      <trkpt lat="44.78894" lon="5.69049">
        <ele>758</ele>
        <time>2021-07-25T09:25:46Z</time>
      </trkpt>
      <trkpt lat="44.78896" lon="5.69058">
        <ele>758</ele>
        <time>2021-07-25T09:25:47Z</time>
      </trkpt>
      <trkpt lat="44.78898" lon="5.69066">
        <ele>758</ele>
        <time>2021-07-25T09:25:48Z</time>
      </trkpt>
      <trkpt lat="44.789" lon="5.69075">
        <ele>758</ele>
        <time>2021-07-25T09:25:49Z</time>
      </trkpt>
      <trkpt lat="44.78902" lon="5.69083">
        <ele>760</ele>
        <time>2021-07-25T09:25:50Z</time>
      </trkpt>
      <trkpt lat="44.78903" lon="5.69092">
        <ele>760</ele>
        <time>2021-07-25T09:25:51Z</time>
      </trkpt>
      <trkpt lat="44.78905" lon="5.69101">
        <ele>760</ele>
        <time>2021-07-25T09:25:52Z</time>
      </trkpt>
      <trkpt lat="44.78907" lon="5.6911">
        <ele>760</ele>
        <time>2021-07-25T09:25:53Z</time>
      </trkpt>
      <trkpt lat="44.78909" lon="5.69119">
        <ele>760</ele>
        <time>2021-07-25T09:25:54Z</time>
      </trkpt>
      <trkpt lat="44.78911" lon="5.69127">
        <ele>760</ele>
        <time>2021-07-25T09:25:55Z</time>
      </trkpt>
      <trkpt lat="44.78913" lon="5.69136">
        <ele>760</ele>
        <time>2021-07-25T09:25:56Z</time>
      </trkpt>
      <trkpt lat="44.78914" lon="5.69145">
        <ele>760</ele>
        <time>2021-07-25T09:25:57Z</time>
      </trkpt>
      <trkpt lat="44.78915" lon="5.69154">
        <ele>760</ele>
        <time>2021-07-25T09:25:58Z</time>
      </trkpt>
      <trkpt lat="44.78916" lon="5.69162">
        <ele>759</ele>
        <time>2021-07-25T09:25:59Z</time>
      </trkpt>
      <trkpt lat="44.78917" lon="5.69171">
        <ele>761</ele>
        <time>2021-07-25T09:26:00Z</time>
      </trkpt>
      <trkpt lat="44.78918" lon="5.6918">
        <ele>761</ele>
        <time>2021-07-25T09:26:01Z</time>
      </trkpt>
      <trkpt lat="44.7892" lon="5.69188">
        <ele>761</ele>
        <time>2021-07-25T09:26:02Z</time>
      </trkpt>
      <trkpt lat="44.78921" lon="5.69196">
        <ele>761</ele>
        <time>2021-07-25T09:26:03Z</time>
      </trkpt>
      <trkpt lat="44.78923" lon="5.69205">
        <ele>761</ele>
        <time>2021-07-25T09:26:04Z</time>
      </trkpt>
      <trkpt lat="44.78924" lon="5.69213">
        <ele>761</ele>
        <time>2021-07-25T09:26:05Z</time>
      </trkpt>
      <trkpt lat="44.78925" lon="5.69222">
        <ele>761</ele>
        <time>2021-07-25T09:26:06Z</time>
      </trkpt>
      <trkpt lat="44.78926" lon="5.69231">
        <ele>761</ele>
        <time>2021-07-25T09:26:07Z</time>
      </trkpt>
      <trkpt lat="44.78927" lon="5.6924">
        <ele>761</ele>
        <time>2021-07-25T09:26:08Z</time>
      </trkpt>
      <trkpt lat="44.78928" lon="5.69248">
        <ele>760</ele>
        <time>2021-07-25T09:26:09Z</time>
      </trkpt>
      <trkpt lat="44.78929" lon="5.69257">
        <ele>761</ele>
        <time>2021-07-25T09:26:10Z</time>
      </trkpt>
      <trkpt lat="44.78931" lon="5.69266">
        <ele>761</ele>
        <time>2021-07-25T09:26:11Z</time>
      </trkpt>
      <trkpt lat="44.78932" lon="5.69274">
        <ele>761</ele>
        <time>2021-07-25T09:26:12Z</time>
      </trkpt>
      <trkpt lat="44.78933" lon="5.69282">
        <ele>761</ele>
        <time>2021-07-25T09:26:13Z</time>
      </trkpt>
      <trkpt lat="44.78935" lon="5.6929">
        <ele>761</ele>
        <time>2021-07-25T09:26:14Z</time>
      </trkpt>
      <trkpt lat="44.78937" lon="5.69298">
        <ele>761</ele>
        <time>2021-07-25T09:26:15Z</time>
      </trkpt>
      <trkpt lat="44.78939" lon="5.69306">
        <ele>761</ele>
        <time>2021-07-25T09:26:16Z</time>
      </trkpt>
      <trkpt lat="44.78941" lon="5.69314">
        <ele>761</ele>
        <time>2021-07-25T09:26:17Z</time>
      </trkpt>
      <trkpt lat="44.78943" lon="5.69322">
        <ele>761</ele>
        <time>2021-07-25T09:26:18Z</time>
      </trkpt>
      <trkpt lat="44.78946" lon="5.6933">
        <ele>761</ele>
        <time>2021-07-25T09:26:19Z</time>
      </trkpt>
      <trkpt lat="44.78949" lon="5.69336">
        <ele>761</ele>
        <time>2021-07-25T09:26:20Z</time>
      </trkpt>
      <trkpt lat="44.78953" lon="5.69342">
        <ele>761</ele>
        <time>2021-07-25T09:26:21Z</time>
      </trkpt>
      <trkpt lat="44.78957" lon="5.69348">
        <ele>761</ele>
        <time>2021-07-25T09:26:22Z</time>
      </trkpt>
      <trkpt lat="44.78962" lon="5.69353">
        <ele>761</ele>
        <time>2021-07-25T09:26:23Z</time>
      </trkpt>
      <trkpt lat="44.7897" lon="5.69363">
        <ele>761</ele>
        <time>2021-07-25T09:26:25Z</time>
      </trkpt>
      <trkpt lat="44.78974" lon="5.69368">
        <ele>761</ele>
        <time>2021-07-25T09:26:26Z</time>
      </trkpt>
      <trkpt lat="44.78983" lon="5.69376">
        <ele>761</ele>
        <time>2021-07-25T09:26:28Z</time>
      </trkpt>
      <trkpt lat="44.78993" lon="5.69381">
        <ele>764</ele>
        <time>2021-07-25T09:26:30Z</time>
      </trkpt>
      <trkpt lat="44.79003" lon="5.69385">
        <ele>763</ele>
        <time>2021-07-25T09:26:32Z</time>
      </trkpt>
      <trkpt lat="44.79013" lon="5.69388">
        <ele>763</ele>
        <time>2021-07-25T09:26:34Z</time>
      </trkpt>
      <trkpt lat="44.79024" lon="5.69392">
        <ele>766</ele>
        <time>2021-07-25T09:26:36Z</time>
      </trkpt>
      <trkpt lat="44.79034" lon="5.69397">
        <ele>766</ele>
        <time>2021-07-25T09:26:38Z</time>
      </trkpt>
      <trkpt lat="44.79043" lon="5.69402">
        <ele>767</ele>
        <time>2021-07-25T09:26:40Z</time>
      </trkpt>
      <trkpt lat="44.79053" lon="5.69408">
        <ele>766</ele>
        <time>2021-07-25T09:26:42Z</time>
      </trkpt>
      <trkpt lat="44.79065" lon="5.69416">
        <ele>768</ele>
        <time>2021-07-25T09:26:45Z</time>
      </trkpt>
      <trkpt lat="44.79071" lon="5.69425">
        <ele>768</ele>
        <time>2021-07-25T09:26:47Z</time>
      </trkpt>
      <trkpt lat="44.79074" lon="5.69434">
        <ele>768</ele>
        <time>2021-07-25T09:26:49Z</time>
      </trkpt>
      <trkpt lat="44.79075" lon="5.69446">
        <ele>769</ele>
        <time>2021-07-25T09:26:52Z</time>
      </trkpt>
      <trkpt lat="44.79081" lon="5.69444">
        <ele>770</ele>
        <time>2021-07-25T09:26:55Z</time>
      </trkpt>
      <trkpt lat="44.79087" lon="5.69439">
        <ele>770</ele>
        <time>2021-07-25T09:26:57Z</time>
      </trkpt>
      <trkpt lat="44.79094" lon="5.69435">
        <ele>770</ele>
        <time>2021-07-25T09:26:59Z</time>
      </trkpt>
      <trkpt lat="44.79102" lon="5.69431">
        <ele>771</ele>
        <time>2021-07-25T09:27:01Z</time>
      </trkpt>
      <trkpt lat="44.79112" lon="5.69426">
        <ele>771</ele>
        <time>2021-07-25T09:27:03Z</time>
      </trkpt>
      <trkpt lat="44.79121" lon="5.69422">
        <ele>771</ele>
        <time>2021-07-25T09:27:05Z</time>
      </trkpt>
      <trkpt lat="44.79131" lon="5.69417">
        <ele>771</ele>
        <time>2021-07-25T09:27:07Z</time>
      </trkpt>
      <trkpt lat="44.79136" lon="5.69415">
        <ele>771</ele>
        <time>2021-07-25T09:27:08Z</time>
      </trkpt>
      <trkpt lat="44.79141" lon="5.69413">
        <ele>771</ele>
        <time>2021-07-25T09:27:09Z</time>
      </trkpt>
      <trkpt lat="44.79146" lon="5.69411">
        <ele>770</ele>
        <time>2021-07-25T09:27:10Z</time>
      </trkpt>
      <trkpt lat="44.79152" lon="5.69409">
        <ele>770</ele>
        <time>2021-07-25T09:27:11Z</time>
      </trkpt>
      <trkpt lat="44.79157" lon="5.69407">
        <ele>770</ele>
        <time>2021-07-25T09:27:12Z</time>
      </trkpt>
      <trkpt lat="44.79162" lon="5.69405">
        <ele>770</ele>
        <time>2021-07-25T09:27:13Z</time>
      </trkpt>
      <trkpt lat="44.79167" lon="5.69402">
        <ele>770</ele>
        <time>2021-07-25T09:27:14Z</time>
      </trkpt>
      <trkpt lat="44.79167" lon="5.69402">
        <ele>770</ele>
        <time>2021-07-25T09:27:15Z</time>
      </trkpt>
      <trkpt lat="44.79205" lon="5.69387">
        <ele>766</ele>
        <time>2021-07-25T09:28:22Z</time>
      </trkpt>
      <trkpt lat="44.7921" lon="5.69386">
        <ele>766</ele>
        <time>2021-07-25T09:28:22Z</time>
      </trkpt>
      <trkpt lat="44.79215" lon="5.69384">
        <ele>766</ele>
        <time>2021-07-25T09:28:23Z</time>
      </trkpt>
      <trkpt lat="44.79221" lon="5.69383">
        <ele>766</ele>
        <time>2021-07-25T09:28:24Z</time>
      </trkpt>
      <trkpt lat="44.79226" lon="5.69382">
        <ele>766</ele>
        <time>2021-07-25T09:28:25Z</time>
      </trkpt>
      <trkpt lat="44.79232" lon="5.6938">
        <ele>766</ele>
        <time>2021-07-25T09:28:26Z</time>
      </trkpt>
      <trkpt lat="44.79238" lon="5.69378">
        <ele>766</ele>
        <time>2021-07-25T09:28:27Z</time>
      </trkpt>
      <trkpt lat="44.79244" lon="5.69376">
        <ele>766</ele>
        <time>2021-07-25T09:28:28Z</time>
      </trkpt>
      <trkpt lat="44.79257" lon="5.69372">
        <ele>765</ele>
        <time>2021-07-25T09:28:30Z</time>
      </trkpt>
      <trkpt lat="44.79264" lon="5.6937">
        <ele>765</ele>
        <time>2021-07-25T09:28:31Z</time>
      </trkpt>
      <trkpt lat="44.79271" lon="5.69368">
        <ele>765</ele>
        <time>2021-07-25T09:28:32Z</time>
      </trkpt>
      <trkpt lat="44.79279" lon="5.69366">
        <ele>765</ele>
        <time>2021-07-25T09:28:33Z</time>
      </trkpt>
      <trkpt lat="44.79286" lon="5.69363">
        <ele>765</ele>
        <time>2021-07-25T09:28:34Z</time>
      </trkpt>
      <trkpt lat="44.79294" lon="5.6936">
        <ele>765</ele>
        <time>2021-07-25T09:28:35Z</time>
      </trkpt>
      <trkpt lat="44.79301" lon="5.69358">
        <ele>765</ele>
        <time>2021-07-25T09:28:36Z</time>
      </trkpt>
      <trkpt lat="44.79309" lon="5.69355">
        <ele>765</ele>
        <time>2021-07-25T09:28:37Z</time>
      </trkpt>
      <trkpt lat="44.79316" lon="5.69353">
        <ele>765</ele>
        <time>2021-07-25T09:28:38Z</time>
      </trkpt>
      <trkpt lat="44.79324" lon="5.69352">
        <ele>762</ele>
        <time>2021-07-25T09:28:39Z</time>
      </trkpt>
      <trkpt lat="44.79332" lon="5.6935">
        <ele>762</ele>
        <time>2021-07-25T09:28:40Z</time>
      </trkpt>
      <trkpt lat="44.7934" lon="5.69349">
        <ele>762</ele>
        <time>2021-07-25T09:28:41Z</time>
      </trkpt>
      <trkpt lat="44.79348" lon="5.6935">
        <ele>762</ele>
        <time>2021-07-25T09:28:42Z</time>
      </trkpt>
      <trkpt lat="44.79356" lon="5.69351">
        <ele>762</ele>
        <time>2021-07-25T09:28:43Z</time>
      </trkpt>
      <trkpt lat="44.79364" lon="5.69353">
        <ele>760</ele>
        <time>2021-07-25T09:28:44Z</time>
      </trkpt>
      <trkpt lat="44.79372" lon="5.69355">
        <ele>760</ele>
        <time>2021-07-25T09:28:45Z</time>
      </trkpt>
      <trkpt lat="44.79381" lon="5.69357">
        <ele>760</ele>
        <time>2021-07-25T09:28:46Z</time>
      </trkpt>
      <trkpt lat="44.79389" lon="5.69359">
        <ele>760</ele>
        <time>2021-07-25T09:28:47Z</time>
      </trkpt>
      <trkpt lat="44.79398" lon="5.69361">
        <ele>760</ele>
        <time>2021-07-25T09:28:48Z</time>
      </trkpt>
      <trkpt lat="44.79408" lon="5.69364">
        <ele>760</ele>
        <time>2021-07-25T09:28:49Z</time>
      </trkpt>
      <trkpt lat="44.79417" lon="5.69366">
        <ele>760</ele>
        <time>2021-07-25T09:28:50Z</time>
      </trkpt>
      <trkpt lat="44.79427" lon="5.69368">
        <ele>760</ele>
        <time>2021-07-25T09:28:51Z</time>
      </trkpt>
      <trkpt lat="44.79436" lon="5.69371">
        <ele>760</ele>
        <time>2021-07-25T09:28:52Z</time>
      </trkpt>
      <trkpt lat="44.79446" lon="5.69373">
        <ele>760</ele>
        <time>2021-07-25T09:28:53Z</time>
      </trkpt>
      <trkpt lat="44.79456" lon="5.69376">
        <ele>760</ele>
        <time>2021-07-25T09:28:54Z</time>
      </trkpt>
      <trkpt lat="44.79466" lon="5.69379">
        <ele>760</ele>
        <time>2021-07-25T09:28:55Z</time>
      </trkpt>
      <trkpt lat="44.79476" lon="5.69383">
        <ele>760</ele>
        <time>2021-07-25T09:28:56Z</time>
      </trkpt>
      <trkpt lat="44.79485" lon="5.69387">
        <ele>760</ele>
        <time>2021-07-25T09:28:57Z</time>
      </trkpt>
      <trkpt lat="44.79495" lon="5.69392">
        <ele>760</ele>
        <time>2021-07-25T09:28:58Z</time>
      </trkpt>
      <trkpt lat="44.79504" lon="5.69398">
        <ele>757</ele>
        <time>2021-07-25T09:28:59Z</time>
      </trkpt>
      <trkpt lat="44.79513" lon="5.69404">
        <ele>757</ele>
        <time>2021-07-25T09:29:00Z</time>
      </trkpt>
      <trkpt lat="44.79522" lon="5.6941">
        <ele>757</ele>
        <time>2021-07-25T09:29:01Z</time>
      </trkpt>
      <trkpt lat="44.79531" lon="5.69417">
        <ele>757</ele>
        <time>2021-07-25T09:29:02Z</time>
      </trkpt>
      <trkpt lat="44.7954" lon="5.69424">
        <ele>757</ele>
        <time>2021-07-25T09:29:03Z</time>
      </trkpt>
      <trkpt lat="44.79549" lon="5.69431">
        <ele>754</ele>
        <time>2021-07-25T09:29:04Z</time>
      </trkpt>
      <trkpt lat="44.79558" lon="5.69438">
        <ele>754</ele>
        <time>2021-07-25T09:29:05Z</time>
      </trkpt>
      <trkpt lat="44.79568" lon="5.69445">
        <ele>754</ele>
        <time>2021-07-25T09:29:06Z</time>
      </trkpt>
      <trkpt lat="44.79577" lon="5.69452">
        <ele>754</ele>
        <time>2021-07-25T09:29:07Z</time>
      </trkpt>
      <trkpt lat="44.79587" lon="5.69459">
        <ele>754</ele>
        <time>2021-07-25T09:29:08Z</time>
      </trkpt>
      <trkpt lat="44.79597" lon="5.69465">
        <ele>750</ele>
        <time>2021-07-25T09:29:09Z</time>
      </trkpt>
      <trkpt lat="44.79607" lon="5.69471">
        <ele>749</ele>
        <time>2021-07-25T09:29:10Z</time>
      </trkpt>
      <trkpt lat="44.79617" lon="5.69476">
        <ele>747</ele>
        <time>2021-07-25T09:29:11Z</time>
      </trkpt>
      <trkpt lat="44.79627" lon="5.69481">
        <ele>746</ele>
        <time>2021-07-25T09:29:12Z</time>
      </trkpt>
      <trkpt lat="44.79638" lon="5.69485">
        <ele>745</ele>
        <time>2021-07-25T09:29:13Z</time>
      </trkpt>
      <trkpt lat="44.79648" lon="5.69488">
        <ele>744</ele>
        <time>2021-07-25T09:29:14Z</time>
      </trkpt>
      <trkpt lat="44.79659" lon="5.69492">
        <ele>743</ele>
        <time>2021-07-25T09:29:15Z</time>
      </trkpt>
      <trkpt lat="44.7967" lon="5.69496">
        <ele>741</ele>
        <time>2021-07-25T09:29:16Z</time>
      </trkpt>
      <trkpt lat="44.79681" lon="5.695">
        <ele>741</ele>
        <time>2021-07-25T09:29:17Z</time>
      </trkpt>
      <trkpt lat="44.79692" lon="5.69504">
        <ele>742</ele>
        <time>2021-07-25T09:29:18Z</time>
      </trkpt>
      <trkpt lat="44.79703" lon="5.69508">
        <ele>742</ele>
        <time>2021-07-25T09:29:19Z</time>
      </trkpt>
      <trkpt lat="44.79725" lon="5.69516">
        <ele>740</ele>
        <time>2021-07-25T09:29:21Z</time>
      </trkpt>
      <trkpt lat="44.79735" lon="5.69519">
        <ele>741</ele>
        <time>2021-07-25T09:29:22Z</time>
      </trkpt>
      <trkpt lat="44.79746" lon="5.69524">
        <ele>740</ele>
        <time>2021-07-25T09:29:23Z</time>
      </trkpt>
      <trkpt lat="44.79755" lon="5.69528">
        <ele>737</ele>
        <time>2021-07-25T09:29:24Z</time>
      </trkpt>
      <trkpt lat="44.79765" lon="5.69534">
        <ele>736</ele>
        <time>2021-07-25T09:29:25Z</time>
      </trkpt>
      <trkpt lat="44.79775" lon="5.6954">
        <ele>737</ele>
        <time>2021-07-25T09:29:26Z</time>
      </trkpt>
      <trkpt lat="44.79784" lon="5.69548">
        <ele>737</ele>
        <time>2021-07-25T09:29:27Z</time>
      </trkpt>
      <trkpt lat="44.79793" lon="5.69556">
        <ele>736</ele>
        <time>2021-07-25T09:29:28Z</time>
      </trkpt>
      <trkpt lat="44.79803" lon="5.69563">
        <ele>735</ele>
        <time>2021-07-25T09:29:29Z</time>
      </trkpt>
      <trkpt lat="44.79813" lon="5.69569">
        <ele>736</ele>
        <time>2021-07-25T09:29:30Z</time>
      </trkpt>
      <trkpt lat="44.79823" lon="5.69574">
        <ele>735</ele>
        <time>2021-07-25T09:29:31Z</time>
      </trkpt>
      <trkpt lat="44.79833" lon="5.69578">
        <ele>734</ele>
        <time>2021-07-25T09:29:32Z</time>
      </trkpt>
      <trkpt lat="44.79844" lon="5.69581">
        <ele>733</ele>
        <time>2021-07-25T09:29:33Z</time>
      </trkpt>
      <trkpt lat="44.79855" lon="5.69582">
        <ele>733</ele>
        <time>2021-07-25T09:29:34Z</time>
      </trkpt>
      <trkpt lat="44.79866" lon="5.69583">
        <ele>732</ele>
        <time>2021-07-25T09:29:35Z</time>
      </trkpt>
      <trkpt lat="44.79877" lon="5.69584">
        <ele>731</ele>
        <time>2021-07-25T09:29:36Z</time>
      </trkpt>
      <trkpt lat="44.79888" lon="5.69584">
        <ele>730</ele>
        <time>2021-07-25T09:29:37Z</time>
      </trkpt>
      <trkpt lat="44.799" lon="5.69583">
        <ele>729</ele>
        <time>2021-07-25T09:29:38Z</time>
      </trkpt>
      <trkpt lat="44.79911" lon="5.69583">
        <ele>727</ele>
        <time>2021-07-25T09:29:39Z</time>
      </trkpt>
      <trkpt lat="44.79923" lon="5.69583">
        <ele>726</ele>
        <time>2021-07-25T09:29:40Z</time>
      </trkpt>
      <trkpt lat="44.79935" lon="5.69581">
        <ele>726</ele>
        <time>2021-07-25T09:29:41Z</time>
      </trkpt>
      <trkpt lat="44.79946" lon="5.6958">
        <ele>725</ele>
        <time>2021-07-25T09:29:42Z</time>
      </trkpt>
      <trkpt lat="44.79958" lon="5.69578">
        <ele>725</ele>
        <time>2021-07-25T09:29:43Z</time>
      </trkpt>
      <trkpt lat="44.7997" lon="5.69576">
        <ele>725</ele>
        <time>2021-07-25T09:29:44Z</time>
      </trkpt>
      <trkpt lat="44.79982" lon="5.69574">
        <ele>724</ele>
        <time>2021-07-25T09:29:45Z</time>
      </trkpt>
      <trkpt lat="44.79994" lon="5.69572">
        <ele>724</ele>
        <time>2021-07-25T09:29:46Z</time>
      </trkpt>
      <trkpt lat="44.80006" lon="5.6957">
        <ele>722</ele>
        <time>2021-07-25T09:29:47Z</time>
      </trkpt>
      <trkpt lat="44.80018" lon="5.69568">
        <ele>721</ele>
        <time>2021-07-25T09:29:48Z</time>
      </trkpt>
      <trkpt lat="44.80031" lon="5.69566">
        <ele>720</ele>
        <time>2021-07-25T09:29:49Z</time>
      </trkpt>
      <trkpt lat="44.80043" lon="5.69564">
        <ele>718</ele>
        <time>2021-07-25T09:29:50Z</time>
      </trkpt>
      <trkpt lat="44.80068" lon="5.6956">
        <ele>717</ele>
        <time>2021-07-25T09:29:52Z</time>
      </trkpt>
      <trkpt lat="44.80081" lon="5.69557">
        <ele>715</ele>
        <time>2021-07-25T09:29:53Z</time>
      </trkpt>
      <trkpt lat="44.80094" lon="5.69555">
        <ele>716</ele>
        <time>2021-07-25T09:29:54Z</time>
      </trkpt>
      <trkpt lat="44.80106" lon="5.69554">
        <ele>714</ele>
        <time>2021-07-25T09:29:55Z</time>
      </trkpt>
      <trkpt lat="44.8012" lon="5.69552">
        <ele>713</ele>
        <time>2021-07-25T09:29:56Z</time>
      </trkpt>
      <trkpt lat="44.80133" lon="5.6955">
        <ele>713</ele>
        <time>2021-07-25T09:29:57Z</time>
      </trkpt>
      <trkpt lat="44.80159" lon="5.69546">
        <ele>710</ele>
        <time>2021-07-25T09:29:59Z</time>
      </trkpt>
      <trkpt lat="44.80172" lon="5.69544">
        <ele>710</ele>
        <time>2021-07-25T09:30:00Z</time>
      </trkpt>
      <trkpt lat="44.80185" lon="5.69542">
        <ele>710</ele>
        <time>2021-07-25T09:30:01Z</time>
      </trkpt>
      <trkpt lat="44.80199" lon="5.69541">
        <ele>708</ele>
        <time>2021-07-25T09:30:02Z</time>
      </trkpt>
      <trkpt lat="44.80226" lon="5.69538">
        <ele>710</ele>
        <time>2021-07-25T09:30:04Z</time>
      </trkpt>
      <trkpt lat="44.80239" lon="5.69536">
        <ele>706</ele>
        <time>2021-07-25T09:30:05Z</time>
      </trkpt>
      <trkpt lat="44.80266" lon="5.69534">
        <ele>705</ele>
        <time>2021-07-25T09:30:07Z</time>
      </trkpt>
      <trkpt lat="44.8028" lon="5.69533">
        <ele>704</ele>
        <time>2021-07-25T09:30:08Z</time>
      </trkpt>
      <trkpt lat="44.80293" lon="5.69535">
        <ele>703</ele>
        <time>2021-07-25T09:30:09Z</time>
      </trkpt>
      <trkpt lat="44.80306" lon="5.69538">
        <ele>703</ele>
        <time>2021-07-25T09:30:10Z</time>
      </trkpt>
      <trkpt lat="44.80319" lon="5.69543">
        <ele>701</ele>
        <time>2021-07-25T09:30:11Z</time>
      </trkpt>
      <trkpt lat="44.80331" lon="5.69548">
        <ele>700</ele>
        <time>2021-07-25T09:30:12Z</time>
      </trkpt>
      <trkpt lat="44.80343" lon="5.69553">
        <ele>699</ele>
        <time>2021-07-25T09:30:13Z</time>
      </trkpt>
      <trkpt lat="44.80355" lon="5.69556">
        <ele>699</ele>
        <time>2021-07-25T09:30:14Z</time>
      </trkpt>
      <trkpt lat="44.80367" lon="5.69556">
        <ele>699</ele>
        <time>2021-07-25T09:30:15Z</time>
      </trkpt>
      <trkpt lat="44.80389" lon="5.69546">
        <ele>698</ele>
        <time>2021-07-25T09:30:17Z</time>
      </trkpt>
      <trkpt lat="44.80398" lon="5.6954">
        <ele>695</ele>
        <time>2021-07-25T09:30:18Z</time>
      </trkpt>
      <trkpt lat="44.80405" lon="5.69535">
        <ele>695</ele>
        <time>2021-07-25T09:30:19Z</time>
      </trkpt>
      <trkpt lat="44.80418" lon="5.69529">
        <ele>695</ele>
        <time>2021-07-25T09:30:21Z</time>
      </trkpt>
      <trkpt lat="44.80424" lon="5.69531">
        <ele>694</ele>
        <time>2021-07-25T09:30:22Z</time>
      </trkpt>
      <trkpt lat="44.80428" lon="5.69547">
        <ele>693</ele>
        <time>2021-07-25T09:30:24Z</time>
      </trkpt>
      <trkpt lat="44.80421" lon="5.69567">
        <ele>691</ele>
        <time>2021-07-25T09:30:26Z</time>
      </trkpt>
      <trkpt lat="44.80409" lon="5.69584">
        <ele>689</ele>
        <time>2021-07-25T09:30:28Z</time>
      </trkpt>
      <trkpt lat="44.80401" lon="5.69604">
        <ele>687</ele>
        <time>2021-07-25T09:30:30Z</time>
      </trkpt>
      <trkpt lat="44.80399" lon="5.69615">
        <ele>686</ele>
        <time>2021-07-25T09:30:31Z</time>
      </trkpt>
      <trkpt lat="44.80402" lon="5.6964">
        <ele>686</ele>
        <time>2021-07-25T09:30:33Z</time>
      </trkpt>
      <trkpt lat="44.80409" lon="5.69664">
        <ele>686</ele>
        <time>2021-07-25T09:30:35Z</time>
      </trkpt>
      <trkpt lat="44.80419" lon="5.69685">
        <ele>685</ele>
        <time>2021-07-25T09:30:37Z</time>
      </trkpt>
      <trkpt lat="44.80433" lon="5.69694">
        <ele>684</ele>
        <time>2021-07-25T09:30:39Z</time>
      </trkpt>
      <trkpt lat="44.8045" lon="5.69686">
        <ele>684</ele>
        <time>2021-07-25T09:30:41Z</time>
      </trkpt>
      <trkpt lat="44.80465" lon="5.69668">
        <ele>684</ele>
        <time>2021-07-25T09:30:43Z</time>
      </trkpt>
      <trkpt lat="44.80478" lon="5.69648">
        <ele>684</ele>
        <time>2021-07-25T09:30:45Z</time>
      </trkpt>
      <trkpt lat="44.80492" lon="5.69628">
        <ele>684</ele>
        <time>2021-07-25T09:30:47Z</time>
      </trkpt>
      <trkpt lat="44.80509" lon="5.69615">
        <ele>684</ele>
        <time>2021-07-25T09:30:49Z</time>
      </trkpt>
      <trkpt lat="44.80528" lon="5.69618">
        <ele>681</ele>
        <time>2021-07-25T09:30:51Z</time>
      </trkpt>
      <trkpt lat="44.80536" lon="5.69626">
        <ele>681</ele>
        <time>2021-07-25T09:30:52Z</time>
      </trkpt>
      <trkpt lat="44.80549" lon="5.69646">
        <ele>681</ele>
        <time>2021-07-25T09:30:54Z</time>
      </trkpt>
      <trkpt lat="44.80565" lon="5.69658">
        <ele>678</ele>
        <time>2021-07-25T09:30:56Z</time>
      </trkpt>
      <trkpt lat="44.80583" lon="5.6966">
        <ele>678</ele>
        <time>2021-07-25T09:30:58Z</time>
      </trkpt>
      <trkpt lat="44.8061" lon="5.6966">
        <ele>677</ele>
        <time>2021-07-25T09:31:01Z</time>
      </trkpt>
      <trkpt lat="44.80627" lon="5.69668">
        <ele>677</ele>
        <time>2021-07-25T09:31:03Z</time>
      </trkpt>
      <trkpt lat="44.80644" lon="5.69678">
        <ele>675</ele>
        <time>2021-07-25T09:31:05Z</time>
      </trkpt>
      <trkpt lat="44.80653" lon="5.69681">
        <ele>675</ele>
        <time>2021-07-25T09:31:06Z</time>
      </trkpt>
      <trkpt lat="44.80661" lon="5.69684">
        <ele>675</ele>
        <time>2021-07-25T09:31:07Z</time>
      </trkpt>
      <trkpt lat="44.80679" lon="5.6969">
        <ele>673</ele>
        <time>2021-07-25T09:31:09Z</time>
      </trkpt>
      <trkpt lat="44.80688" lon="5.69694">
        <ele>673</ele>
        <time>2021-07-25T09:31:10Z</time>
      </trkpt>
      <trkpt lat="44.80706" lon="5.697">
        <ele>673</ele>
        <time>2021-07-25T09:31:12Z</time>
      </trkpt>
      <trkpt lat="44.80714" lon="5.69705">
        <ele>673</ele>
        <time>2021-07-25T09:31:13Z</time>
      </trkpt>
      <trkpt lat="44.80722" lon="5.6971">
        <ele>673</ele>
        <time>2021-07-25T09:31:14Z</time>
      </trkpt>
      <trkpt lat="44.80731" lon="5.69716">
        <ele>673</ele>
        <time>2021-07-25T09:31:15Z</time>
      </trkpt>
      <trkpt lat="44.80748" lon="5.69724">
        <ele>673</ele>
        <time>2021-07-25T09:31:17Z</time>
      </trkpt>
      <trkpt lat="44.80757" lon="5.69729">
        <ele>673</ele>
        <time>2021-07-25T09:31:18Z</time>
      </trkpt>
      <trkpt lat="44.80765" lon="5.69736">
        <ele>672</ele>
        <time>2021-07-25T09:31:19Z</time>
      </trkpt>
      <trkpt lat="44.80772" lon="5.69746">
        <ele>672</ele>
        <time>2021-07-25T09:31:20Z</time>
      </trkpt>
      <trkpt lat="44.80775" lon="5.69759">
        <ele>672</ele>
        <time>2021-07-25T09:31:21Z</time>
      </trkpt>
      <trkpt lat="44.80777" lon="5.69773">
        <ele>672</ele>
        <time>2021-07-25T09:31:22Z</time>
      </trkpt>
      <trkpt lat="44.80777" lon="5.69787">
        <ele>672</ele>
        <time>2021-07-25T09:31:23Z</time>
      </trkpt>
      <trkpt lat="44.80774" lon="5.69801">
        <ele>672</ele>
        <time>2021-07-25T09:31:24Z</time>
      </trkpt>
      <trkpt lat="44.80772" lon="5.69816">
        <ele>672</ele>
        <time>2021-07-25T09:31:25Z</time>
      </trkpt>
      <trkpt lat="44.80769" lon="5.6983">
        <ele>672</ele>
        <time>2021-07-25T09:31:26Z</time>
      </trkpt>
      <trkpt lat="44.80766" lon="5.69843">
        <ele>672</ele>
        <time>2021-07-25T09:31:27Z</time>
      </trkpt>
      <trkpt lat="44.80763" lon="5.69872">
        <ele>666</ele>
        <time>2021-07-25T09:31:29Z</time>
      </trkpt>
      <trkpt lat="44.80762" lon="5.69888">
        <ele>663</ele>
        <time>2021-07-25T09:31:30Z</time>
      </trkpt>
      <trkpt lat="44.80763" lon="5.69903">
        <ele>663</ele>
        <time>2021-07-25T09:31:31Z</time>
      </trkpt>
      <trkpt lat="44.80764" lon="5.6992">
        <ele>662</ele>
        <time>2021-07-25T09:31:32Z</time>
      </trkpt>
      <trkpt lat="44.80766" lon="5.69936">
        <ele>661</ele>
        <time>2021-07-25T09:31:33Z</time>
      </trkpt>
      <trkpt lat="44.80768" lon="5.69953">
        <ele>660</ele>
        <time>2021-07-25T09:31:34Z</time>
      </trkpt>
      <trkpt lat="44.80771" lon="5.69969">
        <ele>659</ele>
        <time>2021-07-25T09:31:35Z</time>
      </trkpt>
      <trkpt lat="44.80774" lon="5.69984">
        <ele>658</ele>
        <time>2021-07-25T09:31:36Z</time>
      </trkpt>
      <trkpt lat="44.80777" lon="5.69998">
        <ele>656</ele>
        <time>2021-07-25T09:31:37Z</time>
      </trkpt>
      <trkpt lat="44.80781" lon="5.70012">
        <ele>655</ele>
        <time>2021-07-25T09:31:38Z</time>
      </trkpt>
      <trkpt lat="44.80786" lon="5.70025">
        <ele>655</ele>
        <time>2021-07-25T09:31:39Z</time>
      </trkpt>
      <trkpt lat="44.80792" lon="5.70037">
        <ele>654</ele>
        <time>2021-07-25T09:31:40Z</time>
      </trkpt>
      <trkpt lat="44.80799" lon="5.70048">
        <ele>653</ele>
        <time>2021-07-25T09:31:41Z</time>
      </trkpt>
      <trkpt lat="44.80806" lon="5.70059">
        <ele>652</ele>
        <time>2021-07-25T09:31:42Z</time>
      </trkpt>
      <trkpt lat="44.80813" lon="5.70069">
        <ele>651</ele>
        <time>2021-07-25T09:31:43Z</time>
      </trkpt>
      <trkpt lat="44.8082" lon="5.70077">
        <ele>650</ele>
        <time>2021-07-25T09:31:44Z</time>
      </trkpt>
      <trkpt lat="44.80828" lon="5.70082">
        <ele>649</ele>
        <time>2021-07-25T09:31:45Z</time>
      </trkpt>
      <trkpt lat="44.80844" lon="5.70085">
        <ele>647</ele>
        <time>2021-07-25T09:31:47Z</time>
      </trkpt>
      <trkpt lat="44.80856" lon="5.70081">
        <ele>647</ele>
        <time>2021-07-25T09:31:49Z</time>
      </trkpt>
      <trkpt lat="44.80864" lon="5.70066">
        <ele>647</ele>
        <time>2021-07-25T09:31:51Z</time>
      </trkpt>
      <trkpt lat="44.80865" lon="5.70057">
        <ele>648</ele>
        <time>2021-07-25T09:31:52Z</time>
      </trkpt>
      <trkpt lat="44.80864" lon="5.70047">
        <ele>648</ele>
        <time>2021-07-25T09:31:53Z</time>
      </trkpt>
      <trkpt lat="44.80862" lon="5.70037">
        <ele>648</ele>
        <time>2021-07-25T09:31:54Z</time>
      </trkpt>
      <trkpt lat="44.8086" lon="5.70027">
        <ele>647</ele>
        <time>2021-07-25T09:31:55Z</time>
      </trkpt>
      <trkpt lat="44.80857" lon="5.70016">
        <ele>647</ele>
        <time>2021-07-25T09:31:56Z</time>
      </trkpt>
      <trkpt lat="44.80855" lon="5.70006">
        <ele>647</ele>
        <time>2021-07-25T09:31:57Z</time>
      </trkpt>
      <trkpt lat="44.80854" lon="5.69995">
        <ele>647</ele>
        <time>2021-07-25T09:31:58Z</time>
      </trkpt>
      <trkpt lat="44.80849" lon="5.69974">
        <ele>646</ele>
        <time>2021-07-25T09:32:00Z</time>
      </trkpt>
      <trkpt lat="44.80846" lon="5.69963">
        <ele>646</ele>
        <time>2021-07-25T09:32:01Z</time>
      </trkpt>
      <trkpt lat="44.80842" lon="5.69942">
        <ele>646</ele>
        <time>2021-07-25T09:32:03Z</time>
      </trkpt>
      <trkpt lat="44.80842" lon="5.69931">
        <ele>646</ele>
        <time>2021-07-25T09:32:04Z</time>
      </trkpt>
      <trkpt lat="44.80842" lon="5.69919">
        <ele>646</ele>
        <time>2021-07-25T09:32:05Z</time>
      </trkpt>
      <trkpt lat="44.80844" lon="5.69908">
        <ele>646</ele>
        <time>2021-07-25T09:32:06Z</time>
      </trkpt>
      <trkpt lat="44.80847" lon="5.69897">
        <ele>646</ele>
        <time>2021-07-25T09:32:07Z</time>
      </trkpt>
      <trkpt lat="44.8085" lon="5.69886">
        <ele>646</ele>
        <time>2021-07-25T09:32:08Z</time>
      </trkpt>
      <trkpt lat="44.80854" lon="5.69875">
        <ele>645</ele>
        <time>2021-07-25T09:32:09Z</time>
      </trkpt>
      <trkpt lat="44.80858" lon="5.69864">
        <ele>645</ele>
        <time>2021-07-25T09:32:10Z</time>
      </trkpt>
      <trkpt lat="44.80861" lon="5.69853">
        <ele>645</ele>
        <time>2021-07-25T09:32:11Z</time>
      </trkpt>
      <trkpt lat="44.80865" lon="5.69842">
        <ele>645</ele>
        <time>2021-07-25T09:32:12Z</time>
      </trkpt>
      <trkpt lat="44.80869" lon="5.69831">
        <ele>645</ele>
        <time>2021-07-25T09:32:13Z</time>
      </trkpt>
      <trkpt lat="44.80872" lon="5.6982">
        <ele>645</ele>
        <time>2021-07-25T09:32:14Z</time>
      </trkpt>
      <trkpt lat="44.80875" lon="5.69808">
        <ele>645</ele>
        <time>2021-07-25T09:32:15Z</time>
      </trkpt>
      <trkpt lat="44.80879" lon="5.69797">
        <ele>645</ele>
        <time>2021-07-25T09:32:16Z</time>
      </trkpt>
      <trkpt lat="44.80882" lon="5.69785">
        <ele>645</ele>
        <time>2021-07-25T09:32:17Z</time>
      </trkpt>
      <trkpt lat="44.80886" lon="5.69774">
        <ele>645</ele>
        <time>2021-07-25T09:32:18Z</time>
      </trkpt>
      <trkpt lat="44.8089" lon="5.69763">
        <ele>643</ele>
        <time>2021-07-25T09:32:19Z</time>
      </trkpt>
      <trkpt lat="44.80895" lon="5.69752">
        <ele>643</ele>
        <time>2021-07-25T09:32:20Z</time>
      </trkpt>
      <trkpt lat="44.80899" lon="5.69741">
        <ele>643</ele>
        <time>2021-07-25T09:32:21Z</time>
      </trkpt>
      <trkpt lat="44.80903" lon="5.69731">
        <ele>643</ele>
        <time>2021-07-25T09:32:22Z</time>
      </trkpt>
      <trkpt lat="44.80908" lon="5.6972">
        <ele>643</ele>
        <time>2021-07-25T09:32:23Z</time>
      </trkpt>
      <trkpt lat="44.80912" lon="5.69709">
        <ele>643</ele>
        <time>2021-07-25T09:32:24Z</time>
      </trkpt>
      <trkpt lat="44.80917" lon="5.69699">
        <ele>643</ele>
        <time>2021-07-25T09:32:25Z</time>
      </trkpt>
      <trkpt lat="44.80921" lon="5.69689">
        <ele>643</ele>
        <time>2021-07-25T09:32:26Z</time>
      </trkpt>
      <trkpt lat="44.80926" lon="5.6968">
        <ele>643</ele>
        <time>2021-07-25T09:32:27Z</time>
      </trkpt>
      <trkpt lat="44.80935" lon="5.69661">
        <ele>643</ele>
        <time>2021-07-25T09:32:29Z</time>
      </trkpt>
      <trkpt lat="44.8094" lon="5.69652">
        <ele>643</ele>
        <time>2021-07-25T09:32:30Z</time>
      </trkpt>
      <trkpt lat="44.80944" lon="5.69642">
        <ele>643</ele>
        <time>2021-07-25T09:32:31Z</time>
      </trkpt>
      <trkpt lat="44.80949" lon="5.69633">
        <ele>643</ele>
        <time>2021-07-25T09:32:32Z</time>
      </trkpt>
      <trkpt lat="44.80954" lon="5.69623">
        <ele>643</ele>
        <time>2021-07-25T09:32:33Z</time>
      </trkpt>
      <trkpt lat="44.80958" lon="5.69613">
        <ele>643</ele>
        <time>2021-07-25T09:32:34Z</time>
      </trkpt>
      <trkpt lat="44.80968" lon="5.69594">
        <ele>643</ele>
        <time>2021-07-25T09:32:36Z</time>
      </trkpt>
      <trkpt lat="44.80972" lon="5.69584">
        <ele>643</ele>
        <time>2021-07-25T09:32:37Z</time>
      </trkpt>
      <trkpt lat="44.80977" lon="5.69574">
        <ele>643</ele>
        <time>2021-07-25T09:32:38Z</time>
      </trkpt>
      <trkpt lat="44.80982" lon="5.69564">
        <ele>642</ele>
        <time>2021-07-25T09:32:39Z</time>
      </trkpt>
      <trkpt lat="44.80987" lon="5.69554">
        <ele>642</ele>
        <time>2021-07-25T09:32:40Z</time>
      </trkpt>
      <trkpt lat="44.80992" lon="5.69544">
        <ele>642</ele>
        <time>2021-07-25T09:32:41Z</time>
      </trkpt>
      <trkpt lat="44.80997" lon="5.69535">
        <ele>642</ele>
        <time>2021-07-25T09:32:42Z</time>
      </trkpt>
      <trkpt lat="44.81003" lon="5.69526">
        <ele>642</ele>
        <time>2021-07-25T09:32:43Z</time>
      </trkpt>
      <trkpt lat="44.81009" lon="5.69516">
        <ele>642</ele>
        <time>2021-07-25T09:32:44Z</time>
      </trkpt>
      <trkpt lat="44.81015" lon="5.69507">
        <ele>642</ele>
        <time>2021-07-25T09:32:45Z</time>
      </trkpt>
      <trkpt lat="44.81021" lon="5.69498">
        <ele>642</ele>
        <time>2021-07-25T09:32:46Z</time>
      </trkpt>
      <trkpt lat="44.81027" lon="5.69489">
        <ele>642</ele>
        <time>2021-07-25T09:32:47Z</time>
      </trkpt>
      <trkpt lat="44.81034" lon="5.6948">
        <ele>642</ele>
        <time>2021-07-25T09:32:48Z</time>
      </trkpt>
      <trkpt lat="44.8104" lon="5.69471">
        <ele>640</ele>
        <time>2021-07-25T09:32:49Z</time>
      </trkpt>
      <trkpt lat="44.81053" lon="5.69453">
        <ele>640</ele>
        <time>2021-07-25T09:32:51Z</time>
      </trkpt>
      <trkpt lat="44.81059" lon="5.69444">
        <ele>640</ele>
        <time>2021-07-25T09:32:52Z</time>
      </trkpt>
      <trkpt lat="44.81065" lon="5.69434">
        <ele>640</ele>
        <time>2021-07-25T09:32:53Z</time>
      </trkpt>
      <trkpt lat="44.81071" lon="5.69425">
        <ele>640</ele>
        <time>2021-07-25T09:32:54Z</time>
      </trkpt>
      <trkpt lat="44.81077" lon="5.69415">
        <ele>640</ele>
        <time>2021-07-25T09:32:55Z</time>
      </trkpt>
      <trkpt lat="44.81083" lon="5.69407">
        <ele>640</ele>
        <time>2021-07-25T09:32:56Z</time>
      </trkpt>
      <trkpt lat="44.8109" lon="5.69398">
        <ele>640</ele>
        <time>2021-07-25T09:32:57Z</time>
      </trkpt>
      <trkpt lat="44.81096" lon="5.69389">
        <ele>640</ele>
        <time>2021-07-25T09:32:58Z</time>
      </trkpt>
      <trkpt lat="44.81102" lon="5.6938">
        <ele>637</ele>
        <time>2021-07-25T09:32:59Z</time>
      </trkpt>
      <trkpt lat="44.81108" lon="5.69371">
        <ele>637</ele>
        <time>2021-07-25T09:33:00Z</time>
      </trkpt>
      <trkpt lat="44.81114" lon="5.69362">
        <ele>637</ele>
        <time>2021-07-25T09:33:01Z</time>
      </trkpt>
      <trkpt lat="44.81121" lon="5.69354">
        <ele>637</ele>
        <time>2021-07-25T09:33:02Z</time>
      </trkpt>
      <trkpt lat="44.81126" lon="5.69345">
        <ele>637</ele>
        <time>2021-07-25T09:33:03Z</time>
      </trkpt>
      <trkpt lat="44.81132" lon="5.69336">
        <ele>637</ele>
        <time>2021-07-25T09:33:04Z</time>
      </trkpt>
      <trkpt lat="44.81137" lon="5.69327">
        <ele>637</ele>
        <time>2021-07-25T09:33:05Z</time>
      </trkpt>
      <trkpt lat="44.81146" lon="5.69308">
        <ele>637</ele>
        <time>2021-07-25T09:33:07Z</time>
      </trkpt>
      <trkpt lat="44.8115" lon="5.69298">
        <ele>637</ele>
        <time>2021-07-25T09:33:08Z</time>
      </trkpt>
      <trkpt lat="44.81153" lon="5.69288">
        <ele>637</ele>
        <time>2021-07-25T09:33:09Z</time>
      </trkpt>
      <trkpt lat="44.81156" lon="5.69277">
        <ele>637</ele>
        <time>2021-07-25T09:33:10Z</time>
      </trkpt>
      <trkpt lat="44.81159" lon="5.69267">
        <ele>637</ele>
        <time>2021-07-25T09:33:11Z</time>
      </trkpt>
      <trkpt lat="44.81163" lon="5.69257">
        <ele>637</ele>
        <time>2021-07-25T09:33:12Z</time>
      </trkpt>
      <trkpt lat="44.81168" lon="5.69248">
        <ele>637</ele>
        <time>2021-07-25T09:33:13Z</time>
      </trkpt>
      <trkpt lat="44.81175" lon="5.69242">
        <ele>637</ele>
        <time>2021-07-25T09:33:14Z</time>
      </trkpt>
      <trkpt lat="44.81183" lon="5.69238">
        <ele>637</ele>
        <time>2021-07-25T09:33:15Z</time>
      </trkpt>
      <trkpt lat="44.81191" lon="5.69236">
        <ele>637</ele>
        <time>2021-07-25T09:33:16Z</time>
      </trkpt>
      <trkpt lat="44.81208" lon="5.69233">
        <ele>637</ele>
        <time>2021-07-25T09:33:18Z</time>
      </trkpt>
      <trkpt lat="44.81224" lon="5.69225">
        <ele>637</ele>
        <time>2021-07-25T09:33:20Z</time>
      </trkpt>
      <trkpt lat="44.81236" lon="5.69209">
        <ele>637</ele>
        <time>2021-07-25T09:33:22Z</time>
      </trkpt>
      <trkpt lat="44.81248" lon="5.69192">
        <ele>637</ele>
        <time>2021-07-25T09:33:24Z</time>
      </trkpt>
      <trkpt lat="44.81253" lon="5.69182">
        <ele>637</ele>
        <time>2021-07-25T09:33:25Z</time>
      </trkpt>
      <trkpt lat="44.81259" lon="5.69173">
        <ele>637</ele>
        <time>2021-07-25T09:33:26Z</time>
      </trkpt>
      <trkpt lat="44.81264" lon="5.69164">
        <ele>637</ele>
        <time>2021-07-25T09:33:27Z</time>
      </trkpt>
      <trkpt lat="44.81269" lon="5.69155">
        <ele>637</ele>
        <time>2021-07-25T09:33:28Z</time>
      </trkpt>
      <trkpt lat="44.81273" lon="5.69145">
        <ele>636</ele>
        <time>2021-07-25T09:33:29Z</time>
      </trkpt>
      <trkpt lat="44.81277" lon="5.69134">
        <ele>636</ele>
        <time>2021-07-25T09:33:30Z</time>
      </trkpt>
      <trkpt lat="44.81281" lon="5.69124">
        <ele>636</ele>
        <time>2021-07-25T09:33:31Z</time>
      </trkpt>
      <trkpt lat="44.81284" lon="5.69113">
        <ele>636</ele>
        <time>2021-07-25T09:33:32Z</time>
      </trkpt>
      <trkpt lat="44.81292" lon="5.69091">
        <ele>636</ele>
        <time>2021-07-25T09:33:34Z</time>
      </trkpt>
      <trkpt lat="44.81301" lon="5.69071">
        <ele>636</ele>
        <time>2021-07-25T09:33:36Z</time>
      </trkpt>
      <trkpt lat="44.81313" lon="5.69054">
        <ele>636</ele>
        <time>2021-07-25T09:33:38Z</time>
      </trkpt>
      <trkpt lat="44.81324" lon="5.69036">
        <ele>635</ele>
        <time>2021-07-25T09:33:40Z</time>
      </trkpt>
      <trkpt lat="44.81334" lon="5.69017">
        <ele>635</ele>
        <time>2021-07-25T09:33:42Z</time>
      </trkpt>
      <trkpt lat="44.81338" lon="5.69006">
        <ele>635</ele>
        <time>2021-07-25T09:33:43Z</time>
      </trkpt>
      <trkpt lat="44.81342" lon="5.68995">
        <ele>635</ele>
        <time>2021-07-25T09:33:44Z</time>
      </trkpt>
      <trkpt lat="44.81344" lon="5.68984">
        <ele>635</ele>
        <time>2021-07-25T09:33:45Z</time>
      </trkpt>
      <trkpt lat="44.81346" lon="5.68972">
        <ele>635</ele>
        <time>2021-07-25T09:33:46Z</time>
      </trkpt>
      <trkpt lat="44.81351" lon="5.68948">
        <ele>635</ele>
        <time>2021-07-25T09:33:48Z</time>
      </trkpt>
      <trkpt lat="44.81356" lon="5.68925">
        <ele>634</ele>
        <time>2021-07-25T09:33:50Z</time>
      </trkpt>
      <trkpt lat="44.81365" lon="5.68905">
        <ele>634</ele>
        <time>2021-07-25T09:33:52Z</time>
      </trkpt>
      <trkpt lat="44.81377" lon="5.68889">
        <ele>634</ele>
        <time>2021-07-25T09:33:54Z</time>
      </trkpt>
      <trkpt lat="44.81391" lon="5.68877">
        <ele>634</ele>
        <time>2021-07-25T09:33:56Z</time>
      </trkpt>
      <trkpt lat="44.81406" lon="5.68865">
        <ele>634</ele>
        <time>2021-07-25T09:33:58Z</time>
      </trkpt>
      <trkpt lat="44.81413" lon="5.6886">
        <ele>634</ele>
        <time>2021-07-25T09:33:59Z</time>
      </trkpt>
      <trkpt lat="44.81427" lon="5.68847">
        <ele>634</ele>
        <time>2021-07-25T09:34:01Z</time>
      </trkpt>
      <trkpt lat="44.81439" lon="5.68831">
        <ele>634</ele>
        <time>2021-07-25T09:34:03Z</time>
      </trkpt>
      <trkpt lat="44.8145" lon="5.68813">
        <ele>634</ele>
        <time>2021-07-25T09:34:05Z</time>
      </trkpt>
      <trkpt lat="44.8146" lon="5.68793">
        <ele>634</ele>
        <time>2021-07-25T09:34:07Z</time>
      </trkpt>
      <trkpt lat="44.8147" lon="5.68773">
        <ele>635</ele>
        <time>2021-07-25T09:34:09Z</time>
      </trkpt>
      <trkpt lat="44.81476" lon="5.68763">
        <ele>635</ele>
        <time>2021-07-25T09:34:10Z</time>
      </trkpt>
      <trkpt lat="44.81481" lon="5.68754">
        <ele>635</ele>
        <time>2021-07-25T09:34:11Z</time>
      </trkpt>
      <trkpt lat="44.81492" lon="5.68734">
        <ele>635</ele>
        <time>2021-07-25T09:34:13Z</time>
      </trkpt>
      <trkpt lat="44.81503" lon="5.68715">
        <ele>635</ele>
        <time>2021-07-25T09:34:15Z</time>
      </trkpt>
      <trkpt lat="44.81514" lon="5.68696">
        <ele>635</ele>
        <time>2021-07-25T09:34:17Z</time>
      </trkpt>
      <trkpt lat="44.81519" lon="5.68686">
        <ele>635</ele>
        <time>2021-07-25T09:34:18Z</time>
      </trkpt>
      <trkpt lat="44.81529" lon="5.68666">
        <ele>633</ele>
        <time>2021-07-25T09:34:20Z</time>
      </trkpt>
      <trkpt lat="44.81533" lon="5.68656">
        <ele>633</ele>
        <time>2021-07-25T09:34:21Z</time>
      </trkpt>
      <trkpt lat="44.81537" lon="5.68644">
        <ele>633</ele>
        <time>2021-07-25T09:34:22Z</time>
      </trkpt>
      <trkpt lat="44.8154" lon="5.68632">
        <ele>633</ele>
        <time>2021-07-25T09:34:23Z</time>
      </trkpt>
      <trkpt lat="44.81542" lon="5.68619">
        <ele>633</ele>
        <time>2021-07-25T09:34:24Z</time>
      </trkpt>
      <trkpt lat="44.81544" lon="5.68607">
        <ele>633</ele>
        <time>2021-07-25T09:34:25Z</time>
      </trkpt>
      <trkpt lat="44.81546" lon="5.68594">
        <ele>633</ele>
        <time>2021-07-25T09:34:26Z</time>
      </trkpt>
      <trkpt lat="44.81548" lon="5.68581">
        <ele>633</ele>
        <time>2021-07-25T09:34:27Z</time>
      </trkpt>
      <trkpt lat="44.81549" lon="5.68568">
        <ele>633</ele>
        <time>2021-07-25T09:34:28Z</time>
      </trkpt>
      <trkpt lat="44.8155" lon="5.68555">
        <ele>631</ele>
        <time>2021-07-25T09:34:29Z</time>
      </trkpt>
      <trkpt lat="44.81552" lon="5.68542">
        <ele>631</ele>
        <time>2021-07-25T09:34:30Z</time>
      </trkpt>
      <trkpt lat="44.81553" lon="5.68528">
        <ele>631</ele>
        <time>2021-07-25T09:34:31Z</time>
      </trkpt>
      <trkpt lat="44.81555" lon="5.68515">
        <ele>631</ele>
        <time>2021-07-25T09:34:32Z</time>
      </trkpt>
      <trkpt lat="44.81557" lon="5.68503">
        <ele>631</ele>
        <time>2021-07-25T09:34:33Z</time>
      </trkpt>
      <trkpt lat="44.81559" lon="5.6849">
        <ele>631</ele>
        <time>2021-07-25T09:34:34Z</time>
      </trkpt>
      <trkpt lat="44.8156" lon="5.68477">
        <ele>631</ele>
        <time>2021-07-25T09:34:35Z</time>
      </trkpt>
      <trkpt lat="44.81562" lon="5.68464">
        <ele>631</ele>
        <time>2021-07-25T09:34:36Z</time>
      </trkpt>
      <trkpt lat="44.81564" lon="5.68451">
        <ele>631</ele>
        <time>2021-07-25T09:34:37Z</time>
      </trkpt>
      <trkpt lat="44.81566" lon="5.68438">
        <ele>631</ele>
        <time>2021-07-25T09:34:38Z</time>
      </trkpt>
      <trkpt lat="44.81568" lon="5.68426">
        <ele>628</ele>
        <time>2021-07-25T09:34:39Z</time>
      </trkpt>
      <trkpt lat="44.81569" lon="5.68413">
        <ele>628</ele>
        <time>2021-07-25T09:34:40Z</time>
      </trkpt>
      <trkpt lat="44.81571" lon="5.684">
        <ele>628</ele>
        <time>2021-07-25T09:34:41Z</time>
      </trkpt>
      <trkpt lat="44.81572" lon="5.68387">
        <ele>628</ele>
        <time>2021-07-25T09:34:42Z</time>
      </trkpt>
      <trkpt lat="44.81576" lon="5.68362">
        <ele>626</ele>
        <time>2021-07-25T09:34:44Z</time>
      </trkpt>
      <trkpt lat="44.81578" lon="5.68349">
        <ele>626</ele>
        <time>2021-07-25T09:34:45Z</time>
      </trkpt>
      <trkpt lat="44.8158" lon="5.68336">
        <ele>626</ele>
        <time>2021-07-25T09:34:46Z</time>
      </trkpt>
      <trkpt lat="44.81581" lon="5.68322">
        <ele>626</ele>
        <time>2021-07-25T09:34:47Z</time>
      </trkpt>
      <trkpt lat="44.81583" lon="5.68309">
        <ele>626</ele>
        <time>2021-07-25T09:34:48Z</time>
      </trkpt>
      <trkpt lat="44.81585" lon="5.68296">
        <ele>625</ele>
        <time>2021-07-25T09:34:49Z</time>
      </trkpt>
      <trkpt lat="44.81587" lon="5.68283">
        <ele>625</ele>
        <time>2021-07-25T09:34:50Z</time>
      </trkpt>
      <trkpt lat="44.81589" lon="5.6827">
        <ele>625</ele>
        <time>2021-07-25T09:34:51Z</time>
      </trkpt>
      <trkpt lat="44.81592" lon="5.68257">
        <ele>625</ele>
        <time>2021-07-25T09:34:52Z</time>
      </trkpt>
      <trkpt lat="44.81599" lon="5.68232">
        <ele>622</ele>
        <time>2021-07-25T09:34:54Z</time>
      </trkpt>
      <trkpt lat="44.81603" lon="5.68221">
        <ele>622</ele>
        <time>2021-07-25T09:34:55Z</time>
      </trkpt>
      <trkpt lat="44.81608" lon="5.68209">
        <ele>622</ele>
        <time>2021-07-25T09:34:56Z</time>
      </trkpt>
      <trkpt lat="44.81613" lon="5.68198">
        <ele>622</ele>
        <time>2021-07-25T09:34:57Z</time>
      </trkpt>
      <trkpt lat="44.81623" lon="5.68177">
        <ele>621</ele>
        <time>2021-07-25T09:34:59Z</time>
      </trkpt>
      <trkpt lat="44.81636" lon="5.68159">
        <ele>621</ele>
        <time>2021-07-25T09:35:01Z</time>
      </trkpt>
      <trkpt lat="44.81643" lon="5.68151">
        <ele>621</ele>
        <time>2021-07-25T09:35:02Z</time>
      </trkpt>
      <trkpt lat="44.81651" lon="5.68143">
        <ele>621</ele>
        <time>2021-07-25T09:35:03Z</time>
      </trkpt>
      <trkpt lat="44.81658" lon="5.68136">
        <ele>621</ele>
        <time>2021-07-25T09:35:04Z</time>
      </trkpt>
      <trkpt lat="44.81666" lon="5.6813">
        <ele>621</ele>
        <time>2021-07-25T09:35:05Z</time>
      </trkpt>
      <trkpt lat="44.81673" lon="5.68123">
        <ele>621</ele>
        <time>2021-07-25T09:35:06Z</time>
      </trkpt>
      <trkpt lat="44.8168" lon="5.68117">
        <ele>621</ele>
        <time>2021-07-25T09:35:07Z</time>
      </trkpt>
      <trkpt lat="44.81688" lon="5.68111">
        <ele>621</ele>
        <time>2021-07-25T09:35:08Z</time>
      </trkpt>
      <trkpt lat="44.81695" lon="5.68105">
        <ele>621</ele>
        <time>2021-07-25T09:35:09Z</time>
      </trkpt>
      <trkpt lat="44.81702" lon="5.68099">
        <ele>621</ele>
        <time>2021-07-25T09:35:10Z</time>
      </trkpt>
      <trkpt lat="44.81709" lon="5.68093">
        <ele>621</ele>
        <time>2021-07-25T09:35:11Z</time>
      </trkpt>
      <trkpt lat="44.81716" lon="5.68087">
        <ele>621</ele>
        <time>2021-07-25T09:35:12Z</time>
      </trkpt>
      <trkpt lat="44.81723" lon="5.68082">
        <ele>621</ele>
        <time>2021-07-25T09:35:13Z</time>
      </trkpt>
      <trkpt lat="44.8173" lon="5.68076">
        <ele>621</ele>
        <time>2021-07-25T09:35:14Z</time>
      </trkpt>
      <trkpt lat="44.81737" lon="5.6807">
        <ele>621</ele>
        <time>2021-07-25T09:35:15Z</time>
      </trkpt>
      <trkpt lat="44.81744" lon="5.68064">
        <ele>621</ele>
        <time>2021-07-25T09:35:16Z</time>
      </trkpt>
      <trkpt lat="44.8175" lon="5.68058">
        <ele>621</ele>
        <time>2021-07-25T09:35:17Z</time>
      </trkpt>
      <trkpt lat="44.81757" lon="5.68052">
        <ele>621</ele>
        <time>2021-07-25T09:35:18Z</time>
      </trkpt>
      <trkpt lat="44.81763" lon="5.68046">
        <ele>621</ele>
        <time>2021-07-25T09:35:19Z</time>
      </trkpt>
      <trkpt lat="44.8177" lon="5.68039">
        <ele>621</ele>
        <time>2021-07-25T09:35:20Z</time>
      </trkpt>
      <trkpt lat="44.81776" lon="5.68033">
        <ele>621</ele>
        <time>2021-07-25T09:35:21Z</time>
      </trkpt>
      <trkpt lat="44.81783" lon="5.68026">
        <ele>621</ele>
        <time>2021-07-25T09:35:22Z</time>
      </trkpt>
      <trkpt lat="44.81789" lon="5.6802">
        <ele>620</ele>
        <time>2021-07-25T09:35:23Z</time>
      </trkpt>
      <trkpt lat="44.81796" lon="5.68013">
        <ele>620</ele>
        <time>2021-07-25T09:35:24Z</time>
      </trkpt>
      <trkpt lat="44.81802" lon="5.68006">
        <ele>620</ele>
        <time>2021-07-25T09:35:25Z</time>
      </trkpt>
      <trkpt lat="44.81808" lon="5.67999">
        <ele>620</ele>
        <time>2021-07-25T09:35:26Z</time>
      </trkpt>
      <trkpt lat="44.81814" lon="5.67991">
        <ele>620</ele>
        <time>2021-07-25T09:35:27Z</time>
      </trkpt>
      <trkpt lat="44.8182" lon="5.67983">
        <ele>620</ele>
        <time>2021-07-25T09:35:28Z</time>
      </trkpt>
      <trkpt lat="44.81825" lon="5.67975">
        <ele>619</ele>
        <time>2021-07-25T09:35:29Z</time>
      </trkpt>
      <trkpt lat="44.8183" lon="5.67965">
        <ele>619</ele>
        <time>2021-07-25T09:35:30Z</time>
      </trkpt>
      <trkpt lat="44.81835" lon="5.67956">
        <ele>619</ele>
        <time>2021-07-25T09:35:31Z</time>
      </trkpt>
      <trkpt lat="44.81839" lon="5.67946">
        <ele>619</ele>
        <time>2021-07-25T09:35:32Z</time>
      </trkpt>
      <trkpt lat="44.81842" lon="5.67935">
        <ele>619</ele>
        <time>2021-07-25T09:35:33Z</time>
      </trkpt>
      <trkpt lat="44.81846" lon="5.67926">
        <ele>619</ele>
        <time>2021-07-25T09:35:34Z</time>
      </trkpt>
      <trkpt lat="44.8185" lon="5.67916">
        <ele>619</ele>
        <time>2021-07-25T09:35:35Z</time>
      </trkpt>
      <trkpt lat="44.81854" lon="5.67907">
        <ele>619</ele>
        <time>2021-07-25T09:35:36Z</time>
      </trkpt>
      <trkpt lat="44.81858" lon="5.67897">
        <ele>619</ele>
        <time>2021-07-25T09:35:37Z</time>
      </trkpt>
      <trkpt lat="44.81862" lon="5.67887">
        <ele>619</ele>
        <time>2021-07-25T09:35:38Z</time>
      </trkpt>
      <trkpt lat="44.81866" lon="5.67877">
        <ele>618</ele>
        <time>2021-07-25T09:35:39Z</time>
      </trkpt>
      <trkpt lat="44.81869" lon="5.67867">
        <ele>618</ele>
        <time>2021-07-25T09:35:40Z</time>
      </trkpt>
      <trkpt lat="44.81873" lon="5.67858">
        <ele>618</ele>
        <time>2021-07-25T09:35:41Z</time>
      </trkpt>
      <trkpt lat="44.81877" lon="5.67848">
        <ele>618</ele>
        <time>2021-07-25T09:35:42Z</time>
      </trkpt>
      <trkpt lat="44.81881" lon="5.67839">
        <ele>618</ele>
        <time>2021-07-25T09:35:43Z</time>
      </trkpt>
      <trkpt lat="44.81886" lon="5.6783">
        <ele>618</ele>
        <time>2021-07-25T09:35:44Z</time>
      </trkpt>
      <trkpt lat="44.8189" lon="5.6782">
        <ele>618</ele>
        <time>2021-07-25T09:35:45Z</time>
      </trkpt>
      <trkpt lat="44.81894" lon="5.6781">
        <ele>618</ele>
        <time>2021-07-25T09:35:46Z</time>
      </trkpt>
      <trkpt lat="44.81898" lon="5.67801">
        <ele>618</ele>
        <time>2021-07-25T09:35:47Z</time>
      </trkpt>
      <trkpt lat="44.81902" lon="5.67791">
        <ele>618</ele>
        <time>2021-07-25T09:35:48Z</time>
      </trkpt>
      <trkpt lat="44.81907" lon="5.67782">
        <ele>617</ele>
        <time>2021-07-25T09:35:49Z</time>
      </trkpt>
      <trkpt lat="44.81911" lon="5.67772">
        <ele>617</ele>
        <time>2021-07-25T09:35:50Z</time>
      </trkpt>
      <trkpt lat="44.81915" lon="5.67763">
        <ele>617</ele>
        <time>2021-07-25T09:35:51Z</time>
      </trkpt>
      <trkpt lat="44.81918" lon="5.67752">
        <ele>617</ele>
        <time>2021-07-25T09:35:52Z</time>
      </trkpt>
      <trkpt lat="44.81921" lon="5.67742">
        <ele>617</ele>
        <time>2021-07-25T09:35:53Z</time>
      </trkpt>
      <trkpt lat="44.81923" lon="5.6773">
        <ele>617</ele>
        <time>2021-07-25T09:35:54Z</time>
      </trkpt>
      <trkpt lat="44.81924" lon="5.67719">
        <ele>617</ele>
        <time>2021-07-25T09:35:55Z</time>
      </trkpt>
      <trkpt lat="44.81925" lon="5.67707">
        <ele>617</ele>
        <time>2021-07-25T09:35:56Z</time>
      </trkpt>
      <trkpt lat="44.81926" lon="5.67696">
        <ele>617</ele>
        <time>2021-07-25T09:35:57Z</time>
      </trkpt>
      <trkpt lat="44.81928" lon="5.67686">
        <ele>617</ele>
        <time>2021-07-25T09:35:58Z</time>
      </trkpt>
      <trkpt lat="44.81929" lon="5.67675">
        <ele>615</ele>
        <time>2021-07-25T09:35:59Z</time>
      </trkpt>
      <trkpt lat="44.81931" lon="5.67663">
        <ele>615</ele>
        <time>2021-07-25T09:36:00Z</time>
      </trkpt>
      <trkpt lat="44.81934" lon="5.67652">
        <ele>615</ele>
        <time>2021-07-25T09:36:01Z</time>
      </trkpt>
      <trkpt lat="44.81937" lon="5.67641">
        <ele>615</ele>
        <time>2021-07-25T09:36:02Z</time>
      </trkpt>
      <trkpt lat="44.8194" lon="5.67631">
        <ele>615</ele>
        <time>2021-07-25T09:36:03Z</time>
      </trkpt>
      <trkpt lat="44.81945" lon="5.67622">
        <ele>615</ele>
        <time>2021-07-25T09:36:04Z</time>
      </trkpt>
      <trkpt lat="44.8195" lon="5.67613">
        <ele>615</ele>
        <time>2021-07-25T09:36:05Z</time>
      </trkpt>
      <trkpt lat="44.81955" lon="5.67604">
        <ele>615</ele>
        <time>2021-07-25T09:36:06Z</time>
      </trkpt>
      <trkpt lat="44.81966" lon="5.67588">
        <ele>615</ele>
        <time>2021-07-25T09:36:08Z</time>
      </trkpt>
      <trkpt lat="44.81972" lon="5.6758">
        <ele>614</ele>
        <time>2021-07-25T09:36:09Z</time>
      </trkpt>
      <trkpt lat="44.81977" lon="5.67572">
        <ele>614</ele>
        <time>2021-07-25T09:36:10Z</time>
      </trkpt>
      <trkpt lat="44.81983" lon="5.67564">
        <ele>614</ele>
        <time>2021-07-25T09:36:11Z</time>
      </trkpt>
      <trkpt lat="44.81988" lon="5.67556">
        <ele>614</ele>
        <time>2021-07-25T09:36:12Z</time>
      </trkpt>
      <trkpt lat="44.81994" lon="5.67548">
        <ele>614</ele>
        <time>2021-07-25T09:36:13Z</time>
      </trkpt>
      <trkpt lat="44.81999" lon="5.6754">
        <ele>614</ele>
        <time>2021-07-25T09:36:14Z</time>
      </trkpt>
      <trkpt lat="44.82005" lon="5.67532">
        <ele>614</ele>
        <time>2021-07-25T09:36:15Z</time>
      </trkpt>
      <trkpt lat="44.8201" lon="5.67524">
        <ele>614</ele>
        <time>2021-07-25T09:36:16Z</time>
      </trkpt>
      <trkpt lat="44.82016" lon="5.67516">
        <ele>614</ele>
        <time>2021-07-25T09:36:17Z</time>
      </trkpt>
      <trkpt lat="44.82021" lon="5.67508">
        <ele>614</ele>
        <time>2021-07-25T09:36:18Z</time>
      </trkpt>
      <trkpt lat="44.82026" lon="5.675">
        <ele>613</ele>
        <time>2021-07-25T09:36:19Z</time>
      </trkpt>
      <trkpt lat="44.82032" lon="5.67492">
        <ele>613</ele>
        <time>2021-07-25T09:36:20Z</time>
      </trkpt>
      <trkpt lat="44.82037" lon="5.67484">
        <ele>613</ele>
        <time>2021-07-25T09:36:21Z</time>
      </trkpt>
      <trkpt lat="44.82043" lon="5.67476">
        <ele>613</ele>
        <time>2021-07-25T09:36:22Z</time>
      </trkpt>
      <trkpt lat="44.82048" lon="5.67468">
        <ele>613</ele>
        <time>2021-07-25T09:36:23Z</time>
      </trkpt>
      <trkpt lat="44.82054" lon="5.6746">
        <ele>613</ele>
        <time>2021-07-25T09:36:24Z</time>
      </trkpt>
      <trkpt lat="44.82059" lon="5.67452">
        <ele>613</ele>
        <time>2021-07-25T09:36:25Z</time>
      </trkpt>
      <trkpt lat="44.82065" lon="5.67444">
        <ele>613</ele>
        <time>2021-07-25T09:36:26Z</time>
      </trkpt>
      <trkpt lat="44.82071" lon="5.67437">
        <ele>613</ele>
        <time>2021-07-25T09:36:27Z</time>
      </trkpt>
      <trkpt lat="44.82077" lon="5.6743">
        <ele>613</ele>
        <time>2021-07-25T09:36:28Z</time>
      </trkpt>
      <trkpt lat="44.82084" lon="5.67423">
        <ele>613</ele>
        <time>2021-07-25T09:36:29Z</time>
      </trkpt>
      <trkpt lat="44.82091" lon="5.67418">
        <ele>613</ele>
        <time>2021-07-25T09:36:30Z</time>
      </trkpt>
      <trkpt lat="44.82099" lon="5.67414">
        <ele>613</ele>
        <time>2021-07-25T09:36:31Z</time>
      </trkpt>
      <trkpt lat="44.82106" lon="5.67412">
        <ele>613</ele>
        <time>2021-07-25T09:36:32Z</time>
      </trkpt>
      <trkpt lat="44.82115" lon="5.6741">
        <ele>613</ele>
        <time>2021-07-25T09:36:33Z</time>
      </trkpt>
      <trkpt lat="44.82123" lon="5.67408">
        <ele>613</ele>
        <time>2021-07-25T09:36:34Z</time>
      </trkpt>
      <trkpt lat="44.82132" lon="5.67407">
        <ele>613</ele>
        <time>2021-07-25T09:36:35Z</time>
      </trkpt>
      <trkpt lat="44.8214" lon="5.67406">
        <ele>613</ele>
        <time>2021-07-25T09:36:36Z</time>
      </trkpt>
      <trkpt lat="44.82148" lon="5.67403">
        <ele>613</ele>
        <time>2021-07-25T09:36:37Z</time>
      </trkpt>
      <trkpt lat="44.82156" lon="5.67401">
        <ele>613</ele>
        <time>2021-07-25T09:36:38Z</time>
      </trkpt>
      <trkpt lat="44.82164" lon="5.67397">
        <ele>612</ele>
        <time>2021-07-25T09:36:39Z</time>
      </trkpt>
      <trkpt lat="44.82171" lon="5.67392">
        <ele>612</ele>
        <time>2021-07-25T09:36:40Z</time>
      </trkpt>
      <trkpt lat="44.82179" lon="5.67387">
        <ele>612</ele>
        <time>2021-07-25T09:36:41Z</time>
      </trkpt>
      <trkpt lat="44.82186" lon="5.67382">
        <ele>612</ele>
        <time>2021-07-25T09:36:42Z</time>
      </trkpt>
      <trkpt lat="44.82193" lon="5.67377">
        <ele>612</ele>
        <time>2021-07-25T09:36:43Z</time>
      </trkpt>
      <trkpt lat="44.822" lon="5.67372">
        <ele>612</ele>
        <time>2021-07-25T09:36:44Z</time>
      </trkpt>
      <trkpt lat="44.82207" lon="5.67367">
        <ele>612</ele>
        <time>2021-07-25T09:36:45Z</time>
      </trkpt>
      <trkpt lat="44.82214" lon="5.67362">
        <ele>612</ele>
        <time>2021-07-25T09:36:46Z</time>
      </trkpt>
      <trkpt lat="44.82221" lon="5.67358">
        <ele>612</ele>
        <time>2021-07-25T09:36:47Z</time>
      </trkpt>
      <trkpt lat="44.82228" lon="5.67353">
        <ele>612</ele>
        <time>2021-07-25T09:36:48Z</time>
      </trkpt>
      <trkpt lat="44.82234" lon="5.67348">
        <ele>611</ele>
        <time>2021-07-25T09:36:49Z</time>
      </trkpt>
      <trkpt lat="44.8224" lon="5.67343">
        <ele>611</ele>
        <time>2021-07-25T09:36:50Z</time>
      </trkpt>
      <trkpt lat="44.82246" lon="5.67337">
        <ele>611</ele>
        <time>2021-07-25T09:36:51Z</time>
      </trkpt>
      <trkpt lat="44.82251" lon="5.6733">
        <ele>611</ele>
        <time>2021-07-25T09:36:52Z</time>
      </trkpt>
      <trkpt lat="44.82254" lon="5.67322">
        <ele>611</ele>
        <time>2021-07-25T09:36:53Z</time>
      </trkpt>
      <trkpt lat="44.82256" lon="5.67313">
        <ele>611</ele>
        <time>2021-07-25T09:36:54Z</time>
      </trkpt>
      <trkpt lat="44.82257" lon="5.67303">
        <ele>611</ele>
        <time>2021-07-25T09:36:55Z</time>
      </trkpt>
      <trkpt lat="44.82256" lon="5.67293">
        <ele>611</ele>
        <time>2021-07-25T09:36:56Z</time>
      </trkpt>
      <trkpt lat="44.82255" lon="5.67283">
        <ele>611</ele>
        <time>2021-07-25T09:36:57Z</time>
      </trkpt>
      <trkpt lat="44.82253" lon="5.67273">
        <ele>611</ele>
        <time>2021-07-25T09:36:58Z</time>
      </trkpt>
      <trkpt lat="44.82252" lon="5.67262">
        <ele>613</ele>
        <time>2021-07-25T09:36:59Z</time>
      </trkpt>
      <trkpt lat="44.82252" lon="5.67252">
        <ele>613</ele>
        <time>2021-07-25T09:37:00Z</time>
      </trkpt>
      <trkpt lat="44.82254" lon="5.67243">
        <ele>613</ele>
        <time>2021-07-25T09:37:01Z</time>
      </trkpt>
      <trkpt lat="44.82257" lon="5.67234">
        <ele>613</ele>
        <time>2021-07-25T09:37:02Z</time>
      </trkpt>
      <trkpt lat="44.8226" lon="5.67226">
        <ele>613</ele>
        <time>2021-07-25T09:37:03Z</time>
      </trkpt>
      <trkpt lat="44.82265" lon="5.67219">
        <ele>613</ele>
        <time>2021-07-25T09:37:04Z</time>
      </trkpt>
      <trkpt lat="44.8227" lon="5.67213">
        <ele>613</ele>
        <time>2021-07-25T09:37:05Z</time>
      </trkpt>
      <trkpt lat="44.82274" lon="5.67207">
        <ele>613</ele>
        <time>2021-07-25T09:37:06Z</time>
      </trkpt>
      <trkpt lat="44.82279" lon="5.67201">
        <ele>613</ele>
        <time>2021-07-25T09:37:07Z</time>
      </trkpt>
      <trkpt lat="44.82284" lon="5.67195">
        <ele>613</ele>
        <time>2021-07-25T09:37:08Z</time>
      </trkpt>
      <trkpt lat="44.82288" lon="5.67189">
        <ele>615</ele>
        <time>2021-07-25T09:37:09Z</time>
      </trkpt>
      <trkpt lat="44.82293" lon="5.67183">
        <ele>615</ele>
        <time>2021-07-25T09:37:10Z</time>
      </trkpt>
      <trkpt lat="44.82297" lon="5.67178">
        <ele>614</ele>
        <time>2021-07-25T09:37:11Z</time>
      </trkpt>
      <trkpt lat="44.82302" lon="5.67172">
        <ele>614</ele>
        <time>2021-07-25T09:37:12Z</time>
      </trkpt>
      <trkpt lat="44.82306" lon="5.67167">
        <ele>614</ele>
        <time>2021-07-25T09:37:13Z</time>
      </trkpt>
      <trkpt lat="44.82311" lon="5.67161">
        <ele>614</ele>
        <time>2021-07-25T09:37:14Z</time>
      </trkpt>
      <trkpt lat="44.82316" lon="5.67155">
        <ele>614</ele>
        <time>2021-07-25T09:37:15Z</time>
      </trkpt>
      <trkpt lat="44.8232" lon="5.6715">
        <ele>614</ele>
        <time>2021-07-25T09:37:16Z</time>
      </trkpt>
      <trkpt lat="44.82324" lon="5.67144">
        <ele>614</ele>
        <time>2021-07-25T09:37:17Z</time>
      </trkpt>
      <trkpt lat="44.82329" lon="5.67138">
        <ele>614</ele>
        <time>2021-07-25T09:37:18Z</time>
      </trkpt>
      <trkpt lat="44.82333" lon="5.67133">
        <ele>614</ele>
        <time>2021-07-25T09:37:19Z</time>
      </trkpt>
      <trkpt lat="44.82338" lon="5.67127">
        <ele>614</ele>
        <time>2021-07-25T09:37:20Z</time>
      </trkpt>
      <trkpt lat="44.82342" lon="5.67121">
        <ele>614</ele>
        <time>2021-07-25T09:37:21Z</time>
      </trkpt>
      <trkpt lat="44.82347" lon="5.67115">
        <ele>614</ele>
        <time>2021-07-25T09:37:22Z</time>
      </trkpt>
      <trkpt lat="44.82351" lon="5.67109">
        <ele>614</ele>
        <time>2021-07-25T09:37:23Z</time>
      </trkpt>
      <trkpt lat="44.82355" lon="5.67103">
        <ele>614</ele>
        <time>2021-07-25T09:37:24Z</time>
      </trkpt>
      <trkpt lat="44.8236" lon="5.67097">
        <ele>614</ele>
        <time>2021-07-25T09:37:25Z</time>
      </trkpt>
      <trkpt lat="44.82364" lon="5.67091">
        <ele>614</ele>
        <time>2021-07-25T09:37:26Z</time>
      </trkpt>
      <trkpt lat="44.82369" lon="5.67085">
        <ele>614</ele>
        <time>2021-07-25T09:37:27Z</time>
      </trkpt>
      <trkpt lat="44.82374" lon="5.67078">
        <ele>614</ele>
        <time>2021-07-25T09:37:28Z</time>
      </trkpt>
      <trkpt lat="44.82378" lon="5.67072">
        <ele>616</ele>
        <time>2021-07-25T09:37:29Z</time>
      </trkpt>
      <trkpt lat="44.82383" lon="5.67065">
        <ele>616</ele>
        <time>2021-07-25T09:37:30Z</time>
      </trkpt>
      <trkpt lat="44.82387" lon="5.67059">
        <ele>616</ele>
        <time>2021-07-25T09:37:31Z</time>
      </trkpt>
      <trkpt lat="44.82391" lon="5.67052">
        <ele>616</ele>
        <time>2021-07-25T09:37:32Z</time>
      </trkpt>
      <trkpt lat="44.82396" lon="5.67046">
        <ele>616</ele>
        <time>2021-07-25T09:37:33Z</time>
      </trkpt>
      <trkpt lat="44.824" lon="5.67039">
        <ele>616</ele>
        <time>2021-07-25T09:37:34Z</time>
      </trkpt>
      <trkpt lat="44.82405" lon="5.67033">
        <ele>615</ele>
        <time>2021-07-25T09:37:35Z</time>
      </trkpt>
      <trkpt lat="44.82409" lon="5.67026">
        <ele>615</ele>
        <time>2021-07-25T09:37:36Z</time>
      </trkpt>
      <trkpt lat="44.82413" lon="5.6702">
        <ele>615</ele>
        <time>2021-07-25T09:37:37Z</time>
      </trkpt>
      <trkpt lat="44.82418" lon="5.67014">
        <ele>615</ele>
        <time>2021-07-25T09:37:38Z</time>
      </trkpt>
      <trkpt lat="44.82422" lon="5.67007">
        <ele>616</ele>
        <time>2021-07-25T09:37:39Z</time>
      </trkpt>
      <trkpt lat="44.82426" lon="5.67001">
        <ele>616</ele>
        <time>2021-07-25T09:37:40Z</time>
      </trkpt>
      <trkpt lat="44.82431" lon="5.66994">
        <ele>616</ele>
        <time>2021-07-25T09:37:41Z</time>
      </trkpt>
      <trkpt lat="44.82435" lon="5.66988">
        <ele>616</ele>
        <time>2021-07-25T09:37:42Z</time>
      </trkpt>
      <trkpt lat="44.8244" lon="5.66982">
        <ele>616</ele>
        <time>2021-07-25T09:37:43Z</time>
      </trkpt>
      <trkpt lat="44.82445" lon="5.66976">
        <ele>616</ele>
        <time>2021-07-25T09:37:44Z</time>
      </trkpt>
      <trkpt lat="44.8245" lon="5.66971">
        <ele>616</ele>
        <time>2021-07-25T09:37:45Z</time>
      </trkpt>
      <trkpt lat="44.82455" lon="5.66965">
        <ele>616</ele>
        <time>2021-07-25T09:37:46Z</time>
      </trkpt>
      <trkpt lat="44.8246" lon="5.66961">
        <ele>616</ele>
        <time>2021-07-25T09:37:47Z</time>
      </trkpt>
      <trkpt lat="44.82466" lon="5.66957">
        <ele>616</ele>
        <time>2021-07-25T09:37:48Z</time>
      </trkpt>
      <trkpt lat="44.82471" lon="5.66953">
        <ele>618</ele>
        <time>2021-07-25T09:37:49Z</time>
      </trkpt>
      <trkpt lat="44.82477" lon="5.6695">
        <ele>618</ele>
        <time>2021-07-25T09:37:50Z</time>
      </trkpt>
      <trkpt lat="44.82483" lon="5.66946">
        <ele>618</ele>
        <time>2021-07-25T09:37:51Z</time>
      </trkpt>
      <trkpt lat="44.82489" lon="5.66943">
        <ele>618</ele>
        <time>2021-07-25T09:37:52Z</time>
      </trkpt>
      <trkpt lat="44.82495" lon="5.66941">
        <ele>618</ele>
        <time>2021-07-25T09:37:53Z</time>
      </trkpt>
      <trkpt lat="44.82507" lon="5.66939">
        <ele>617</ele>
        <time>2021-07-25T09:37:55Z</time>
      </trkpt>
      <trkpt lat="44.82519" lon="5.6694">
        <ele>617</ele>
        <time>2021-07-25T09:37:57Z</time>
      </trkpt>
      <trkpt lat="44.82526" lon="5.66941">
        <ele>617</ele>
        <time>2021-07-25T09:37:58Z</time>
      </trkpt>
      <trkpt lat="44.82532" lon="5.66942">
        <ele>618</ele>
        <time>2021-07-25T09:37:59Z</time>
      </trkpt>
      <trkpt lat="44.82538" lon="5.66942">
        <ele>618</ele>
        <time>2021-07-25T09:38:00Z</time>
      </trkpt>
      <trkpt lat="44.82544" lon="5.66943">
        <ele>618</ele>
        <time>2021-07-25T09:38:01Z</time>
      </trkpt>
      <trkpt lat="44.8255" lon="5.66942">
        <ele>618</ele>
        <time>2021-07-25T09:38:02Z</time>
      </trkpt>
      <trkpt lat="44.82556" lon="5.66939">
        <ele>618</ele>
        <time>2021-07-25T09:38:03Z</time>
      </trkpt>
      <trkpt lat="44.82567" lon="5.6693">
        <ele>618</ele>
        <time>2021-07-25T09:38:05Z</time>
      </trkpt>
      <trkpt lat="44.82578" lon="5.6692">
        <ele>618</ele>
        <time>2021-07-25T09:38:07Z</time>
      </trkpt>
      <trkpt lat="44.82589" lon="5.6691">
        <ele>618</ele>
        <time>2021-07-25T09:38:09Z</time>
      </trkpt>
      <trkpt lat="44.826" lon="5.66899">
        <ele>618</ele>
        <time>2021-07-25T09:38:11Z</time>
      </trkpt>
      <trkpt lat="44.82611" lon="5.66889">
        <ele>618</ele>
        <time>2021-07-25T09:38:13Z</time>
      </trkpt>
      <trkpt lat="44.82617" lon="5.66883">
        <ele>618</ele>
        <time>2021-07-25T09:38:14Z</time>
      </trkpt>
      <trkpt lat="44.82627" lon="5.66871">
        <ele>618</ele>
        <time>2021-07-25T09:38:16Z</time>
      </trkpt>
      <trkpt lat="44.82633" lon="5.66855">
        <ele>618</ele>
        <time>2021-07-25T09:38:18Z</time>
      </trkpt>
      <trkpt lat="44.82635" lon="5.66847">
        <ele>619</ele>
        <time>2021-07-25T09:38:19Z</time>
      </trkpt>
      <trkpt lat="44.82637" lon="5.66831">
        <ele>619</ele>
        <time>2021-07-25T09:38:21Z</time>
      </trkpt>
      <trkpt lat="44.82638" lon="5.66824">
        <ele>619</ele>
        <time>2021-07-25T09:38:22Z</time>
      </trkpt>
      <trkpt lat="44.82638" lon="5.66816">
        <ele>619</ele>
        <time>2021-07-25T09:38:23Z</time>
      </trkpt>
      <trkpt lat="44.82639" lon="5.66809">
        <ele>619</ele>
        <time>2021-07-25T09:38:24Z</time>
      </trkpt>
      <trkpt lat="44.8264" lon="5.66802">
        <ele>619</ele>
        <time>2021-07-25T09:38:25Z</time>
      </trkpt>
      <trkpt lat="44.82641" lon="5.66795">
        <ele>619</ele>
        <time>2021-07-25T09:38:26Z</time>
      </trkpt>
      <trkpt lat="44.82641" lon="5.66788">
        <ele>619</ele>
        <time>2021-07-25T09:38:27Z</time>
      </trkpt>
      <trkpt lat="44.82642" lon="5.66781">
        <ele>619</ele>
        <time>2021-07-25T09:38:28Z</time>
      </trkpt>
      <trkpt lat="44.82642" lon="5.66775">
        <ele>620</ele>
        <time>2021-07-25T09:38:29Z</time>
      </trkpt>
      <trkpt lat="44.82644" lon="5.66761">
        <ele>620</ele>
        <time>2021-07-25T09:38:31Z</time>
      </trkpt>
      <trkpt lat="44.82646" lon="5.66747">
        <ele>620</ele>
        <time>2021-07-25T09:38:33Z</time>
      </trkpt>
      <trkpt lat="44.82647" lon="5.66734">
        <ele>620</ele>
        <time>2021-07-25T09:38:35Z</time>
      </trkpt>
      <trkpt lat="44.82648" lon="5.6672">
        <ele>620</ele>
        <time>2021-07-25T09:38:37Z</time>
      </trkpt>
      <trkpt lat="44.8265" lon="5.66707">
        <ele>622</ele>
        <time>2021-07-25T09:38:39Z</time>
      </trkpt>
      <trkpt lat="44.82651" lon="5.66693">
        <ele>622</ele>
        <time>2021-07-25T09:38:41Z</time>
      </trkpt>
      <trkpt lat="44.82651" lon="5.6668">
        <ele>622</ele>
        <time>2021-07-25T09:38:43Z</time>
      </trkpt>
      <trkpt lat="44.8265" lon="5.66669">
        <ele>623</ele>
        <time>2021-07-25T09:38:45Z</time>
      </trkpt>
      <trkpt lat="44.82647" lon="5.66658">
        <ele>623</ele>
        <time>2021-07-25T09:38:47Z</time>
      </trkpt>
      <trkpt lat="44.82642" lon="5.66646">
        <ele>624</ele>
        <time>2021-07-25T09:38:49Z</time>
      </trkpt>
      <trkpt lat="44.82637" lon="5.66636">
        <ele>624</ele>
        <time>2021-07-25T09:38:51Z</time>
      </trkpt>
      <trkpt lat="44.82632" lon="5.66625">
        <ele>624</ele>
        <time>2021-07-25T09:38:53Z</time>
      </trkpt>
      <trkpt lat="44.82628" lon="5.66613">
        <ele>625</ele>
        <time>2021-07-25T09:38:55Z</time>
      </trkpt>
      <trkpt lat="44.82624" lon="5.66601">
        <ele>625</ele>
        <time>2021-07-25T09:38:57Z</time>
      </trkpt>
      <trkpt lat="44.82623" lon="5.66588">
        <ele>627</ele>
        <time>2021-07-25T09:38:59Z</time>
      </trkpt>
      <trkpt lat="44.82628" lon="5.6657">
        <ele>627</ele>
        <time>2021-07-25T09:39:02Z</time>
      </trkpt>
      <trkpt lat="44.82637" lon="5.66556">
        <ele>627</ele>
        <time>2021-07-25T09:39:05Z</time>
      </trkpt>
      <trkpt lat="44.82647" lon="5.66542">
        <ele>627</ele>
        <time>2021-07-25T09:39:08Z</time>
      </trkpt>
      <trkpt lat="44.82657" lon="5.66528">
        <ele>629</ele>
        <time>2021-07-25T09:39:11Z</time>
      </trkpt>
      <trkpt lat="44.82667" lon="5.66513">
        <ele>630</ele>
        <time>2021-07-25T09:39:14Z</time>
      </trkpt>
      <trkpt lat="44.82677" lon="5.66497">
        <ele>630</ele>
        <time>2021-07-25T09:39:17Z</time>
      </trkpt>
      <trkpt lat="44.82684" lon="5.66486">
        <ele>630</ele>
        <time>2021-07-25T09:39:19Z</time>
      </trkpt>
      <trkpt lat="44.82691" lon="5.66476">
        <ele>630</ele>
        <time>2021-07-25T09:39:21Z</time>
      </trkpt>
      <trkpt lat="44.82698" lon="5.66466">
        <ele>630</ele>
        <time>2021-07-25T09:39:23Z</time>
      </trkpt>
      <trkpt lat="44.82706" lon="5.66456">
        <ele>630</ele>
        <time>2021-07-25T09:39:25Z</time>
      </trkpt>
      <trkpt lat="44.8271" lon="5.66452">
        <ele>630</ele>
        <time>2021-07-25T09:39:26Z</time>
      </trkpt>
      <trkpt lat="44.82719" lon="5.66444">
        <ele>630</ele>
        <time>2021-07-25T09:39:28Z</time>
      </trkpt>
      <trkpt lat="44.82723" lon="5.6644">
        <ele>632</ele>
        <time>2021-07-25T09:39:29Z</time>
      </trkpt>
      <trkpt lat="44.82727" lon="5.66436">
        <ele>632</ele>
        <time>2021-07-25T09:39:30Z</time>
      </trkpt>
      <trkpt lat="44.82731" lon="5.66432">
        <ele>632</ele>
        <time>2021-07-25T09:39:31Z</time>
      </trkpt>
      <trkpt lat="44.82735" lon="5.66428">
        <ele>632</ele>
        <time>2021-07-25T09:39:32Z</time>
      </trkpt>
      <trkpt lat="44.82739" lon="5.66424">
        <ele>632</ele>
        <time>2021-07-25T09:39:33Z</time>
      </trkpt>
      <trkpt lat="44.82744" lon="5.6642">
        <ele>632</ele>
        <time>2021-07-25T09:39:34Z</time>
      </trkpt>
      <trkpt lat="44.82748" lon="5.66417">
        <ele>632</ele>
        <time>2021-07-25T09:39:35Z</time>
      </trkpt>
      <trkpt lat="44.82753" lon="5.66414">
        <ele>632</ele>
        <time>2021-07-25T09:39:36Z</time>
      </trkpt>
      <trkpt lat="44.82757" lon="5.66411">
        <ele>632</ele>
        <time>2021-07-25T09:39:37Z</time>
      </trkpt>
      <trkpt lat="44.82762" lon="5.66408">
        <ele>632</ele>
        <time>2021-07-25T09:39:38Z</time>
      </trkpt>
      <trkpt lat="44.82767" lon="5.66406">
        <ele>634</ele>
        <time>2021-07-25T09:39:39Z</time>
      </trkpt>
      <trkpt lat="44.82772" lon="5.66404">
        <ele>634</ele>
        <time>2021-07-25T09:39:40Z</time>
      </trkpt>
      <trkpt lat="44.82777" lon="5.66403">
        <ele>634</ele>
        <time>2021-07-25T09:39:41Z</time>
      </trkpt>
      <trkpt lat="44.82782" lon="5.66402">
        <ele>634</ele>
        <time>2021-07-25T09:39:42Z</time>
      </trkpt>
      <trkpt lat="44.82787" lon="5.66401">
        <ele>634</ele>
        <time>2021-07-25T09:39:43Z</time>
      </trkpt>
      <trkpt lat="44.82792" lon="5.66399">
        <ele>636</ele>
        <time>2021-07-25T09:39:44Z</time>
      </trkpt>
      <trkpt lat="44.82796" lon="5.66398">
        <ele>636</ele>
        <time>2021-07-25T09:39:45Z</time>
      </trkpt>
      <trkpt lat="44.82801" lon="5.66397">
        <ele>636</ele>
        <time>2021-07-25T09:39:46Z</time>
      </trkpt>
      <trkpt lat="44.82806" lon="5.66396">
        <ele>636</ele>
        <time>2021-07-25T09:39:47Z</time>
      </trkpt>
      <trkpt lat="44.82811" lon="5.66395">
        <ele>636</ele>
        <time>2021-07-25T09:39:48Z</time>
      </trkpt>
      <trkpt lat="44.82816" lon="5.66394">
        <ele>638</ele>
        <time>2021-07-25T09:39:49Z</time>
      </trkpt>
      <trkpt lat="44.82821" lon="5.66393">
        <ele>638</ele>
        <time>2021-07-25T09:39:50Z</time>
      </trkpt>
      <trkpt lat="44.82825" lon="5.66392">
        <ele>638</ele>
        <time>2021-07-25T09:39:51Z</time>
      </trkpt>
      <trkpt lat="44.8283" lon="5.6639">
        <ele>637</ele>
        <time>2021-07-25T09:39:52Z</time>
      </trkpt>
      <trkpt lat="44.82839" lon="5.66387">
        <ele>638</ele>
        <time>2021-07-25T09:39:54Z</time>
      </trkpt>
      <trkpt lat="44.82848" lon="5.66383">
        <ele>638</ele>
        <time>2021-07-25T09:39:56Z</time>
      </trkpt>
      <trkpt lat="44.82856" lon="5.66376">
        <ele>638</ele>
        <time>2021-07-25T09:39:58Z</time>
      </trkpt>
      <trkpt lat="44.82864" lon="5.66367">
        <ele>639</ele>
        <time>2021-07-25T09:40:00Z</time>
      </trkpt>
      <trkpt lat="44.8287" lon="5.66356">
        <ele>639</ele>
        <time>2021-07-25T09:40:02Z</time>
      </trkpt>
      <trkpt lat="44.82877" lon="5.66345">
        <ele>639</ele>
        <time>2021-07-25T09:40:04Z</time>
      </trkpt>
      <trkpt lat="44.82883" lon="5.66334">
        <ele>639</ele>
        <time>2021-07-25T09:40:06Z</time>
      </trkpt>
      <trkpt lat="44.82889" lon="5.66323">
        <ele>639</ele>
        <time>2021-07-25T09:40:08Z</time>
      </trkpt>
      <trkpt lat="44.82892" lon="5.66318">
        <ele>640</ele>
        <time>2021-07-25T09:40:09Z</time>
      </trkpt>
      <trkpt lat="44.82894" lon="5.66312">
        <ele>640</ele>
        <time>2021-07-25T09:40:10Z</time>
      </trkpt>
      <trkpt lat="44.82897" lon="5.66305">
        <ele>640</ele>
        <time>2021-07-25T09:40:11Z</time>
      </trkpt>
      <trkpt lat="44.82899" lon="5.66299">
        <ele>640</ele>
        <time>2021-07-25T09:40:12Z</time>
      </trkpt>
      <trkpt lat="44.82901" lon="5.66292">
        <ele>640</ele>
        <time>2021-07-25T09:40:13Z</time>
      </trkpt>
      <trkpt lat="44.82902" lon="5.66284">
        <ele>640</ele>
        <time>2021-07-25T09:40:14Z</time>
      </trkpt>
      <trkpt lat="44.82903" lon="5.66277">
        <ele>640</ele>
        <time>2021-07-25T09:40:15Z</time>
      </trkpt>
      <trkpt lat="44.82904" lon="5.6627">
        <ele>640</ele>
        <time>2021-07-25T09:40:16Z</time>
      </trkpt>
      <trkpt lat="44.82905" lon="5.66255">
        <ele>640</ele>
        <time>2021-07-25T09:40:18Z</time>
      </trkpt>
      <trkpt lat="44.82905" lon="5.6624">
        <ele>643</ele>
        <time>2021-07-25T09:40:20Z</time>
      </trkpt>
      <trkpt lat="44.82905" lon="5.66233">
        <ele>643</ele>
        <time>2021-07-25T09:40:21Z</time>
      </trkpt>
      <trkpt lat="44.82905" lon="5.66225">
        <ele>643</ele>
        <time>2021-07-25T09:40:22Z</time>
      </trkpt>
      <trkpt lat="44.82905" lon="5.66217">
        <ele>643</ele>
        <time>2021-07-25T09:40:23Z</time>
      </trkpt>
      <trkpt lat="44.82905" lon="5.66209">
        <ele>644</ele>
        <time>2021-07-25T09:40:24Z</time>
      </trkpt>
      <trkpt lat="44.82905" lon="5.66201">
        <ele>644</ele>
        <time>2021-07-25T09:40:25Z</time>
      </trkpt>
      <trkpt lat="44.82908" lon="5.66185">
        <ele>644</ele>
        <time>2021-07-25T09:40:27Z</time>
      </trkpt>
      <trkpt lat="44.82912" lon="5.66172">
        <ele>644</ele>
        <time>2021-07-25T09:40:29Z</time>
      </trkpt>
      <trkpt lat="44.82916" lon="5.66166">
        <ele>644</ele>
        <time>2021-07-25T09:40:30Z</time>
      </trkpt>
      <trkpt lat="44.82919" lon="5.6616">
        <ele>644</ele>
        <time>2021-07-25T09:40:31Z</time>
      </trkpt>
      <trkpt lat="44.82923" lon="5.66155">
        <ele>644</ele>
        <time>2021-07-25T09:40:32Z</time>
      </trkpt>
      <trkpt lat="44.82928" lon="5.66151">
        <ele>644</ele>
        <time>2021-07-25T09:40:33Z</time>
      </trkpt>
      <trkpt lat="44.82931" lon="5.66146">
        <ele>644</ele>
        <time>2021-07-25T09:40:34Z</time>
      </trkpt>
      <trkpt lat="44.82939" lon="5.66138">
        <ele>644</ele>
        <time>2021-07-25T09:40:36Z</time>
      </trkpt>
      <trkpt lat="44.82946" lon="5.6613">
        <ele>644</ele>
        <time>2021-07-25T09:40:38Z</time>
      </trkpt>
      <trkpt lat="44.82953" lon="5.66121">
        <ele>648</ele>
        <time>2021-07-25T09:40:40Z</time>
      </trkpt>
      <trkpt lat="44.82959" lon="5.66112">
        <ele>648</ele>
        <time>2021-07-25T09:40:42Z</time>
      </trkpt>
      <trkpt lat="44.82969" lon="5.66098">
        <ele>648</ele>
        <time>2021-07-25T09:40:45Z</time>
      </trkpt>
      <trkpt lat="44.82976" lon="5.66081">
        <ele>648</ele>
        <time>2021-07-25T09:40:48Z</time>
      </trkpt>
      <trkpt lat="44.82982" lon="5.66063">
        <ele>649</ele>
        <time>2021-07-25T09:40:51Z</time>
      </trkpt>
      <trkpt lat="44.82984" lon="5.66057">
        <ele>649</ele>
        <time>2021-07-25T09:40:52Z</time>
      </trkpt>
      <trkpt lat="44.82987" lon="5.66051">
        <ele>649</ele>
        <time>2021-07-25T09:40:53Z</time>
      </trkpt>
      <trkpt lat="44.8299" lon="5.66046">
        <ele>649</ele>
        <time>2021-07-25T09:40:54Z</time>
      </trkpt>
      <trkpt lat="44.82993" lon="5.66041">
        <ele>649</ele>
        <time>2021-07-25T09:40:55Z</time>
      </trkpt>
      <trkpt lat="44.82997" lon="5.66037">
        <ele>649</ele>
        <time>2021-07-25T09:40:56Z</time>
      </trkpt>
      <trkpt lat="44.83" lon="5.66033">
        <ele>649</ele>
        <time>2021-07-25T09:40:57Z</time>
      </trkpt>
      <trkpt lat="44.83004" lon="5.66029">
        <ele>649</ele>
        <time>2021-07-25T09:40:58Z</time>
      </trkpt>
      <trkpt lat="44.83008" lon="5.66025">
        <ele>649</ele>
        <time>2021-07-25T09:40:59Z</time>
      </trkpt>
      <trkpt lat="44.83012" lon="5.66022">
        <ele>652</ele>
        <time>2021-07-25T09:41:00Z</time>
      </trkpt>
      <trkpt lat="44.83016" lon="5.66018">
        <ele>652</ele>
        <time>2021-07-25T09:41:01Z</time>
      </trkpt>
      <trkpt lat="44.8302" lon="5.66014">
        <ele>652</ele>
        <time>2021-07-25T09:41:02Z</time>
      </trkpt>
      <trkpt lat="44.83024" lon="5.66011">
        <ele>652</ele>
        <time>2021-07-25T09:41:03Z</time>
      </trkpt>
      <trkpt lat="44.83028" lon="5.66007">
        <ele>652</ele>
        <time>2021-07-25T09:41:04Z</time>
      </trkpt>
      <trkpt lat="44.83031" lon="5.66002">
        <ele>653</ele>
        <time>2021-07-25T09:41:05Z</time>
      </trkpt>
      <trkpt lat="44.83035" lon="5.65998">
        <ele>653</ele>
        <time>2021-07-25T09:41:06Z</time>
      </trkpt>
      <trkpt lat="44.83038" lon="5.65993">
        <ele>653</ele>
        <time>2021-07-25T09:41:07Z</time>
      </trkpt>
      <trkpt lat="44.83041" lon="5.65988">
        <ele>653</ele>
        <time>2021-07-25T09:41:08Z</time>
      </trkpt>
      <trkpt lat="44.83044" lon="5.65982">
        <ele>653</ele>
        <time>2021-07-25T09:41:09Z</time>
      </trkpt>
      <trkpt lat="44.83046" lon="5.65976">
        <ele>654</ele>
        <time>2021-07-25T09:41:10Z</time>
      </trkpt>
      <trkpt lat="44.8305" lon="5.65963">
        <ele>654</ele>
        <time>2021-07-25T09:41:12Z</time>
      </trkpt>
      <trkpt lat="44.83053" lon="5.6595">
        <ele>654</ele>
        <time>2021-07-25T09:41:14Z</time>
      </trkpt>
      <trkpt lat="44.83054" lon="5.65943">
        <ele>654</ele>
        <time>2021-07-25T09:41:15Z</time>
      </trkpt>
      <trkpt lat="44.83055" lon="5.65936">
        <ele>654</ele>
        <time>2021-07-25T09:41:16Z</time>
      </trkpt>
      <trkpt lat="44.83055" lon="5.65929">
        <ele>654</ele>
        <time>2021-07-25T09:41:17Z</time>
      </trkpt>
      <trkpt lat="44.83055" lon="5.65922">
        <ele>654</ele>
        <time>2021-07-25T09:41:18Z</time>
      </trkpt>
      <trkpt lat="44.83055" lon="5.65915">
        <ele>654</ele>
        <time>2021-07-25T09:41:19Z</time>
      </trkpt>
      <trkpt lat="44.83055" lon="5.65907">
        <ele>655</ele>
        <time>2021-07-25T09:41:20Z</time>
      </trkpt>
      <trkpt lat="44.83055" lon="5.65893">
        <ele>655</ele>
        <time>2021-07-25T09:41:22Z</time>
      </trkpt>
      <trkpt lat="44.83054" lon="5.65878">
        <ele>655</ele>
        <time>2021-07-25T09:41:24Z</time>
      </trkpt>
      <trkpt lat="44.83053" lon="5.65871">
        <ele>655</ele>
        <time>2021-07-25T09:41:25Z</time>
      </trkpt>
      <trkpt lat="44.83052" lon="5.65864">
        <ele>655</ele>
        <time>2021-07-25T09:41:26Z</time>
      </trkpt>
      <trkpt lat="44.8305" lon="5.65857">
        <ele>655</ele>
        <time>2021-07-25T09:41:27Z</time>
      </trkpt>
      <trkpt lat="44.83048" lon="5.65851">
        <ele>655</ele>
        <time>2021-07-25T09:41:28Z</time>
      </trkpt>
      <trkpt lat="44.83046" lon="5.65845">
        <ele>655</ele>
        <time>2021-07-25T09:41:29Z</time>
      </trkpt>
      <trkpt lat="44.83044" lon="5.65839">
        <ele>657</ele>
        <time>2021-07-25T09:41:30Z</time>
      </trkpt>
      <trkpt lat="44.83041" lon="5.65833">
        <ele>657</ele>
        <time>2021-07-25T09:41:31Z</time>
      </trkpt>
      <trkpt lat="44.83038" lon="5.65827">
        <ele>657</ele>
        <time>2021-07-25T09:41:32Z</time>
      </trkpt>
      <trkpt lat="44.83035" lon="5.65821">
        <ele>657</ele>
        <time>2021-07-25T09:41:33Z</time>
      </trkpt>
      <trkpt lat="44.83031" lon="5.65816">
        <ele>657</ele>
        <time>2021-07-25T09:41:34Z</time>
      </trkpt>
      <trkpt lat="44.83028" lon="5.65811">
        <ele>657</ele>
        <time>2021-07-25T09:41:35Z</time>
      </trkpt>
      <trkpt lat="44.83025" lon="5.65806">
        <ele>657</ele>
        <time>2021-07-25T09:41:36Z</time>
      </trkpt>
      <trkpt lat="44.83021" lon="5.65801">
        <ele>657</ele>
        <time>2021-07-25T09:41:37Z</time>
      </trkpt>
      <trkpt lat="44.83017" lon="5.65797">
        <ele>657</ele>
        <time>2021-07-25T09:41:38Z</time>
      </trkpt>
      <trkpt lat="44.83012" lon="5.65793">
        <ele>657</ele>
        <time>2021-07-25T09:41:39Z</time>
      </trkpt>
      <trkpt lat="44.83003" lon="5.65784">
        <ele>660</ele>
        <time>2021-07-25T09:41:41Z</time>
      </trkpt>
      <trkpt lat="44.82993" lon="5.65777">
        <ele>659</ele>
        <time>2021-07-25T09:41:43Z</time>
      </trkpt>
      <trkpt lat="44.82983" lon="5.6577">
        <ele>660</ele>
        <time>2021-07-25T09:41:45Z</time>
      </trkpt>
      <trkpt lat="44.82972" lon="5.65762">
        <ele>660</ele>
        <time>2021-07-25T09:41:47Z</time>
      </trkpt>
      <trkpt lat="44.82962" lon="5.65755">
        <ele>660</ele>
        <time>2021-07-25T09:41:49Z</time>
      </trkpt>
      <trkpt lat="44.82957" lon="5.65752">
        <ele>662</ele>
        <time>2021-07-25T09:41:50Z</time>
      </trkpt>
      <trkpt lat="44.82948" lon="5.65746">
        <ele>662</ele>
        <time>2021-07-25T09:41:52Z</time>
      </trkpt>
      <trkpt lat="44.82943" lon="5.65743">
        <ele>662</ele>
        <time>2021-07-25T09:41:53Z</time>
      </trkpt>
      <trkpt lat="44.82938" lon="5.6574">
        <ele>662</ele>
        <time>2021-07-25T09:41:54Z</time>
      </trkpt>
      <trkpt lat="44.82933" lon="5.65737">
        <ele>663</ele>
        <time>2021-07-25T09:41:55Z</time>
      </trkpt>
      <trkpt lat="44.82929" lon="5.65734">
        <ele>663</ele>
        <time>2021-07-25T09:41:56Z</time>
      </trkpt>
      <trkpt lat="44.82924" lon="5.65731">
        <ele>663</ele>
        <time>2021-07-25T09:41:57Z</time>
      </trkpt>
      <trkpt lat="44.8292" lon="5.65728">
        <ele>663</ele>
        <time>2021-07-25T09:41:58Z</time>
      </trkpt>
      <trkpt lat="44.82915" lon="5.65724">
        <ele>663</ele>
        <time>2021-07-25T09:41:59Z</time>
      </trkpt>
      <trkpt lat="44.8291" lon="5.6572">
        <ele>664</ele>
        <time>2021-07-25T09:42:00Z</time>
      </trkpt>
      <trkpt lat="44.82906" lon="5.65716">
        <ele>664</ele>
        <time>2021-07-25T09:42:01Z</time>
      </trkpt>
      <trkpt lat="44.82902" lon="5.65712">
        <ele>664</ele>
        <time>2021-07-25T09:42:02Z</time>
      </trkpt>
      <trkpt lat="44.82898" lon="5.65707">
        <ele>664</ele>
        <time>2021-07-25T09:42:03Z</time>
      </trkpt>
      <trkpt lat="44.82894" lon="5.65701">
        <ele>664</ele>
        <time>2021-07-25T09:42:04Z</time>
      </trkpt>
      <trkpt lat="44.8289" lon="5.65696">
        <ele>665</ele>
        <time>2021-07-25T09:42:05Z</time>
      </trkpt>
      <trkpt lat="44.82887" lon="5.65691">
        <ele>665</ele>
        <time>2021-07-25T09:42:06Z</time>
      </trkpt>
      <trkpt lat="44.82883" lon="5.65685">
        <ele>665</ele>
        <time>2021-07-25T09:42:07Z</time>
      </trkpt>
      <trkpt lat="44.82879" lon="5.65679">
        <ele>665</ele>
        <time>2021-07-25T09:42:08Z</time>
      </trkpt>
      <trkpt lat="44.82876" lon="5.65673">
        <ele>665</ele>
        <time>2021-07-25T09:42:09Z</time>
      </trkpt>
      <trkpt lat="44.82872" lon="5.65668">
        <ele>665</ele>
        <time>2021-07-25T09:42:10Z</time>
      </trkpt>
      <trkpt lat="44.82868" lon="5.65662">
        <ele>665</ele>
        <time>2021-07-25T09:42:11Z</time>
      </trkpt>
      <trkpt lat="44.82864" lon="5.65657">
        <ele>665</ele>
        <time>2021-07-25T09:42:12Z</time>
      </trkpt>
      <trkpt lat="44.8286" lon="5.65651">
        <ele>665</ele>
        <time>2021-07-25T09:42:13Z</time>
      </trkpt>
      <trkpt lat="44.82856" lon="5.65646">
        <ele>665</ele>
        <time>2021-07-25T09:42:14Z</time>
      </trkpt>
      <trkpt lat="44.82853" lon="5.6564">
        <ele>665</ele>
        <time>2021-07-25T09:42:15Z</time>
      </trkpt>
      <trkpt lat="44.82848" lon="5.65634">
        <ele>665</ele>
        <time>2021-07-25T09:42:16Z</time>
      </trkpt>
      <trkpt lat="44.82844" lon="5.65629">
        <ele>665</ele>
        <time>2021-07-25T09:42:17Z</time>
      </trkpt>
      <trkpt lat="44.8284" lon="5.65624">
        <ele>665</ele>
        <time>2021-07-25T09:42:18Z</time>
      </trkpt>
      <trkpt lat="44.82835" lon="5.6562">
        <ele>665</ele>
        <time>2021-07-25T09:42:19Z</time>
      </trkpt>
      <trkpt lat="44.8283" lon="5.65616">
        <ele>667</ele>
        <time>2021-07-25T09:42:20Z</time>
      </trkpt>
      <trkpt lat="44.82825" lon="5.65613">
        <ele>667</ele>
        <time>2021-07-25T09:42:21Z</time>
      </trkpt>
      <trkpt lat="44.8282" lon="5.6561">
        <ele>667</ele>
        <time>2021-07-25T09:42:22Z</time>
      </trkpt>
      <trkpt lat="44.82814" lon="5.65606">
        <ele>667</ele>
        <time>2021-07-25T09:42:23Z</time>
      </trkpt>
      <trkpt lat="44.82809" lon="5.65603">
        <ele>667</ele>
        <time>2021-07-25T09:42:24Z</time>
      </trkpt>
      <trkpt lat="44.82804" lon="5.656">
        <ele>667</ele>
        <time>2021-07-25T09:42:25Z</time>
      </trkpt>
      <trkpt lat="44.82799" lon="5.65597">
        <ele>667</ele>
        <time>2021-07-25T09:42:26Z</time>
      </trkpt>
      <trkpt lat="44.82794" lon="5.65594">
        <ele>667</ele>
        <time>2021-07-25T09:42:27Z</time>
      </trkpt>
      <trkpt lat="44.82789" lon="5.65591">
        <ele>667</ele>
        <time>2021-07-25T09:42:28Z</time>
      </trkpt>
      <trkpt lat="44.82784" lon="5.65588">
        <ele>667</ele>
        <time>2021-07-25T09:42:29Z</time>
      </trkpt>
      <trkpt lat="44.82778" lon="5.65585">
        <ele>670</ele>
        <time>2021-07-25T09:42:30Z</time>
      </trkpt>
      <trkpt lat="44.82773" lon="5.65582">
        <ele>670</ele>
        <time>2021-07-25T09:42:31Z</time>
      </trkpt>
      <trkpt lat="44.82768" lon="5.65579">
        <ele>670</ele>
        <time>2021-07-25T09:42:32Z</time>
      </trkpt>
      <trkpt lat="44.82762" lon="5.65575">
        <ele>670</ele>
        <time>2021-07-25T09:42:33Z</time>
      </trkpt>
      <trkpt lat="44.82757" lon="5.65572">
        <ele>670</ele>
        <time>2021-07-25T09:42:34Z</time>
      </trkpt>
      <trkpt lat="44.82746" lon="5.65564">
        <ele>672</ele>
        <time>2021-07-25T09:42:36Z</time>
      </trkpt>
      <trkpt lat="44.82741" lon="5.6556">
        <ele>672</ele>
        <time>2021-07-25T09:42:37Z</time>
      </trkpt>
      <trkpt lat="44.82736" lon="5.65556">
        <ele>672</ele>
        <time>2021-07-25T09:42:38Z</time>
      </trkpt>
      <trkpt lat="44.82732" lon="5.65552">
        <ele>672</ele>
        <time>2021-07-25T09:42:39Z</time>
      </trkpt>
      <trkpt lat="44.82727" lon="5.65548">
        <ele>673</ele>
        <time>2021-07-25T09:42:40Z</time>
      </trkpt>
      <trkpt lat="44.82722" lon="5.65544">
        <ele>673</ele>
        <time>2021-07-25T09:42:41Z</time>
      </trkpt>
      <trkpt lat="44.82718" lon="5.6554">
        <ele>673</ele>
        <time>2021-07-25T09:42:42Z</time>
      </trkpt>
      <trkpt lat="44.82714" lon="5.65535">
        <ele>673</ele>
        <time>2021-07-25T09:42:43Z</time>
      </trkpt>
      <trkpt lat="44.8271" lon="5.6553">
        <ele>673</ele>
        <time>2021-07-25T09:42:44Z</time>
      </trkpt>
      <trkpt lat="44.82706" lon="5.65525">
        <ele>673</ele>
        <time>2021-07-25T09:42:45Z</time>
      </trkpt>
      <trkpt lat="44.82702" lon="5.65519">
        <ele>673</ele>
        <time>2021-07-25T09:42:46Z</time>
      </trkpt>
      <trkpt lat="44.82699" lon="5.65513">
        <ele>673</ele>
        <time>2021-07-25T09:42:47Z</time>
      </trkpt>
      <trkpt lat="44.82696" lon="5.65506">
        <ele>673</ele>
        <time>2021-07-25T09:42:48Z</time>
      </trkpt>
      <trkpt lat="44.82694" lon="5.65499">
        <ele>673</ele>
        <time>2021-07-25T09:42:49Z</time>
      </trkpt>
      <trkpt lat="44.82693" lon="5.65491">
        <ele>675</ele>
        <time>2021-07-25T09:42:50Z</time>
      </trkpt>
      <trkpt lat="44.82692" lon="5.65483">
        <ele>675</ele>
        <time>2021-07-25T09:42:51Z</time>
      </trkpt>
      <trkpt lat="44.82692" lon="5.65475">
        <ele>675</ele>
        <time>2021-07-25T09:42:52Z</time>
      </trkpt>
      <trkpt lat="44.82693" lon="5.65468">
        <ele>675</ele>
        <time>2021-07-25T09:42:53Z</time>
      </trkpt>
      <trkpt lat="44.82694" lon="5.6546">
        <ele>675</ele>
        <time>2021-07-25T09:42:54Z</time>
      </trkpt>
      <trkpt lat="44.82695" lon="5.65453">
        <ele>677</ele>
        <time>2021-07-25T09:42:55Z</time>
      </trkpt>
      <trkpt lat="44.82696" lon="5.65445">
        <ele>677</ele>
        <time>2021-07-25T09:42:56Z</time>
      </trkpt>
      <trkpt lat="44.82697" lon="5.65437">
        <ele>677</ele>
        <time>2021-07-25T09:42:57Z</time>
      </trkpt>
      <trkpt lat="44.82698" lon="5.6543">
        <ele>677</ele>
        <time>2021-07-25T09:42:58Z</time>
      </trkpt>
      <trkpt lat="44.82699" lon="5.65421">
        <ele>677</ele>
        <time>2021-07-25T09:42:59Z</time>
      </trkpt>
      <trkpt lat="44.82702" lon="5.65407">
        <ele>678</ele>
        <time>2021-07-25T09:43:01Z</time>
      </trkpt>
      <trkpt lat="44.82704" lon="5.65391">
        <ele>678</ele>
        <time>2021-07-25T09:43:03Z</time>
      </trkpt>
      <trkpt lat="44.82706" lon="5.65376">
        <ele>679</ele>
        <time>2021-07-25T09:43:05Z</time>
      </trkpt>
      <trkpt lat="44.82706" lon="5.65361">
        <ele>679</ele>
        <time>2021-07-25T09:43:07Z</time>
      </trkpt>
      <trkpt lat="44.82705" lon="5.65345">
        <ele>679</ele>
        <time>2021-07-25T09:43:09Z</time>
      </trkpt>
      <trkpt lat="44.82703" lon="5.6533">
        <ele>679</ele>
        <time>2021-07-25T09:43:11Z</time>
      </trkpt>
      <trkpt lat="44.82701" lon="5.65314">
        <ele>679</ele>
        <time>2021-07-25T09:43:13Z</time>
      </trkpt>
      <trkpt lat="44.827" lon="5.65306">
        <ele>679</ele>
        <time>2021-07-25T09:43:14Z</time>
      </trkpt>
      <trkpt lat="44.82699" lon="5.65298">
        <ele>679</ele>
        <time>2021-07-25T09:43:15Z</time>
      </trkpt>
      <trkpt lat="44.82698" lon="5.65291">
        <ele>679</ele>
        <time>2021-07-25T09:43:16Z</time>
      </trkpt>
      <trkpt lat="44.82696" lon="5.65283">
        <ele>679</ele>
        <time>2021-07-25T09:43:17Z</time>
      </trkpt>
      <trkpt lat="44.82695" lon="5.65275">
        <ele>679</ele>
        <time>2021-07-25T09:43:18Z</time>
      </trkpt>
      <trkpt lat="44.82694" lon="5.65267">
        <ele>679</ele>
        <time>2021-07-25T09:43:19Z</time>
      </trkpt>
      <trkpt lat="44.82693" lon="5.65259">
        <ele>681</ele>
        <time>2021-07-25T09:43:20Z</time>
      </trkpt>
      <trkpt lat="44.82693" lon="5.65251">
        <ele>681</ele>
        <time>2021-07-25T09:43:21Z</time>
      </trkpt>
      <trkpt lat="44.82693" lon="5.65243">
        <ele>681</ele>
        <time>2021-07-25T09:43:22Z</time>
      </trkpt>
      <trkpt lat="44.82693" lon="5.65235">
        <ele>681</ele>
        <time>2021-07-25T09:43:23Z</time>
      </trkpt>
      <trkpt lat="44.82693" lon="5.65226">
        <ele>681</ele>
        <time>2021-07-25T09:43:24Z</time>
      </trkpt>
      <trkpt lat="44.82693" lon="5.65218">
        <ele>681</ele>
        <time>2021-07-25T09:43:25Z</time>
      </trkpt>
      <trkpt lat="44.82693" lon="5.65209">
        <ele>681</ele>
        <time>2021-07-25T09:43:26Z</time>
      </trkpt>
      <trkpt lat="44.82694" lon="5.652">
        <ele>681</ele>
        <time>2021-07-25T09:43:27Z</time>
      </trkpt>
      <trkpt lat="44.82695" lon="5.65184">
        <ele>681</ele>
        <time>2021-07-25T09:43:29Z</time>
      </trkpt>
      <trkpt lat="44.82695" lon="5.65167">
        <ele>683</ele>
        <time>2021-07-25T09:43:31Z</time>
      </trkpt>
      <trkpt lat="44.82695" lon="5.65158">
        <ele>683</ele>
        <time>2021-07-25T09:43:32Z</time>
      </trkpt>
      <trkpt lat="44.82695" lon="5.6515">
        <ele>683</ele>
        <time>2021-07-25T09:43:33Z</time>
      </trkpt>
      <trkpt lat="44.82696" lon="5.65142">
        <ele>683</ele>
        <time>2021-07-25T09:43:34Z</time>
      </trkpt>
      <trkpt lat="44.82696" lon="5.65134">
        <ele>683</ele>
        <time>2021-07-25T09:43:35Z</time>
      </trkpt>
      <trkpt lat="44.82696" lon="5.65125">
        <ele>683</ele>
        <time>2021-07-25T09:43:36Z</time>
      </trkpt>
      <trkpt lat="44.82696" lon="5.65116">
        <ele>683</ele>
        <time>2021-07-25T09:43:37Z</time>
      </trkpt>
      <trkpt lat="44.82696" lon="5.65108">
        <ele>683</ele>
        <time>2021-07-25T09:43:38Z</time>
      </trkpt>
      <trkpt lat="44.82695" lon="5.65099">
        <ele>683</ele>
        <time>2021-07-25T09:43:39Z</time>
      </trkpt>
      <trkpt lat="44.82695" lon="5.6509">
        <ele>684</ele>
        <time>2021-07-25T09:43:40Z</time>
      </trkpt>
      <trkpt lat="44.82694" lon="5.65082">
        <ele>684</ele>
        <time>2021-07-25T09:43:41Z</time>
      </trkpt>
      <trkpt lat="44.82694" lon="5.65073">
        <ele>684</ele>
        <time>2021-07-25T09:43:42Z</time>
      </trkpt>
      <trkpt lat="44.82693" lon="5.65065">
        <ele>684</ele>
        <time>2021-07-25T09:43:43Z</time>
      </trkpt>
      <trkpt lat="44.82691" lon="5.6505">
        <ele>684</ele>
        <time>2021-07-25T09:43:45Z</time>
      </trkpt>
      <trkpt lat="44.82688" lon="5.65034">
        <ele>684</ele>
        <time>2021-07-25T09:43:47Z</time>
      </trkpt>
      <trkpt lat="44.82687" lon="5.65026">
        <ele>684</ele>
        <time>2021-07-25T09:43:48Z</time>
      </trkpt>
      <trkpt lat="44.82683" lon="5.65011">
        <ele>685</ele>
        <time>2021-07-25T09:43:50Z</time>
      </trkpt>
      <trkpt lat="44.82679" lon="5.64995">
        <ele>685</ele>
        <time>2021-07-25T09:43:52Z</time>
      </trkpt>
      <trkpt lat="44.82674" lon="5.6498">
        <ele>685</ele>
        <time>2021-07-25T09:43:54Z</time>
      </trkpt>
      <trkpt lat="44.82669" lon="5.64965">
        <ele>685</ele>
        <time>2021-07-25T09:43:56Z</time>
      </trkpt>
      <trkpt lat="44.82664" lon="5.6495">
        <ele>685</ele>
        <time>2021-07-25T09:43:58Z</time>
      </trkpt>
      <trkpt lat="44.82659" lon="5.64936">
        <ele>688</ele>
        <time>2021-07-25T09:44:00Z</time>
      </trkpt>
      <trkpt lat="44.82653" lon="5.6492">
        <ele>688</ele>
        <time>2021-07-25T09:44:02Z</time>
      </trkpt>
      <trkpt lat="44.82649" lon="5.64905">
        <ele>688</ele>
        <time>2021-07-25T09:44:04Z</time>
      </trkpt>
      <trkpt lat="44.82644" lon="5.64889">
        <ele>689</ele>
        <time>2021-07-25T09:44:06Z</time>
      </trkpt>
      <trkpt lat="44.82639" lon="5.64873">
        <ele>689</ele>
        <time>2021-07-25T09:44:08Z</time>
      </trkpt>
      <trkpt lat="44.82635" lon="5.64856">
        <ele>691</ele>
        <time>2021-07-25T09:44:10Z</time>
      </trkpt>
      <trkpt lat="44.82636" lon="5.64838">
        <ele>691</ele>
        <time>2021-07-25T09:44:12Z</time>
      </trkpt>
      <trkpt lat="44.82639" lon="5.64821">
        <ele>691</ele>
        <time>2021-07-25T09:44:14Z</time>
      </trkpt>
      <trkpt lat="44.82646" lon="5.64806">
        <ele>692</ele>
        <time>2021-07-25T09:44:16Z</time>
      </trkpt>
      <trkpt lat="44.8265" lon="5.648">
        <ele>692</ele>
        <time>2021-07-25T09:44:17Z</time>
      </trkpt>
      <trkpt lat="44.82655" lon="5.64795">
        <ele>692</ele>
        <time>2021-07-25T09:44:18Z</time>
      </trkpt>
      <trkpt lat="44.8266" lon="5.64791">
        <ele>692</ele>
        <time>2021-07-25T09:44:19Z</time>
      </trkpt>
      <trkpt lat="44.82665" lon="5.64788">
        <ele>693</ele>
        <time>2021-07-25T09:44:20Z</time>
      </trkpt>
      <trkpt lat="44.82676" lon="5.64781">
        <ele>693</ele>
        <time>2021-07-25T09:44:22Z</time>
      </trkpt>
      <trkpt lat="44.82685" lon="5.64774">
        <ele>693</ele>
        <time>2021-07-25T09:44:24Z</time>
      </trkpt>
      <trkpt lat="44.82694" lon="5.64763">
        <ele>694</ele>
        <time>2021-07-25T09:44:26Z</time>
      </trkpt>
      <trkpt lat="44.827" lon="5.64749">
        <ele>694</ele>
        <time>2021-07-25T09:44:28Z</time>
      </trkpt>
      <trkpt lat="44.82705" lon="5.64733">
        <ele>694</ele>
        <time>2021-07-25T09:44:30Z</time>
      </trkpt>
      <trkpt lat="44.82709" lon="5.64716">
        <ele>694</ele>
        <time>2021-07-25T09:44:32Z</time>
      </trkpt>
      <trkpt lat="44.82711" lon="5.64708">
        <ele>694</ele>
        <time>2021-07-25T09:44:33Z</time>
      </trkpt>
      <trkpt lat="44.82714" lon="5.6469">
        <ele>694</ele>
        <time>2021-07-25T09:44:35Z</time>
      </trkpt>
      <trkpt lat="44.82717" lon="5.64674">
        <ele>694</ele>
        <time>2021-07-25T09:44:37Z</time>
      </trkpt>
      <trkpt lat="44.8272" lon="5.64657">
        <ele>694</ele>
        <time>2021-07-25T09:44:39Z</time>
      </trkpt>
      <trkpt lat="44.82722" lon="5.64641">
        <ele>696</ele>
        <time>2021-07-25T09:44:41Z</time>
      </trkpt>
      <trkpt lat="44.82722" lon="5.64623">
        <ele>696</ele>
        <time>2021-07-25T09:44:43Z</time>
      </trkpt>
      <trkpt lat="44.82722" lon="5.64605">
        <ele>696</ele>
        <time>2021-07-25T09:44:45Z</time>
      </trkpt>
      <trkpt lat="44.82721" lon="5.64588">
        <ele>696</ele>
        <time>2021-07-25T09:44:47Z</time>
      </trkpt>
      <trkpt lat="44.82717" lon="5.64572">
        <ele>696</ele>
        <time>2021-07-25T09:44:49Z</time>
      </trkpt>
      <trkpt lat="44.82715" lon="5.64564">
        <ele>699</ele>
        <time>2021-07-25T09:44:50Z</time>
      </trkpt>
      <trkpt lat="44.82712" lon="5.64557">
        <ele>699</ele>
        <time>2021-07-25T09:44:51Z</time>
      </trkpt>
      <trkpt lat="44.82709" lon="5.64549">
        <ele>699</ele>
        <time>2021-07-25T09:44:52Z</time>
      </trkpt>
      <trkpt lat="44.82706" lon="5.64541">
        <ele>699</ele>
        <time>2021-07-25T09:44:53Z</time>
      </trkpt>
      <trkpt lat="44.82703" lon="5.64533">
        <ele>699</ele>
        <time>2021-07-25T09:44:54Z</time>
      </trkpt>
      <trkpt lat="44.827" lon="5.64526">
        <ele>701</ele>
        <time>2021-07-25T09:44:55Z</time>
      </trkpt>
      <trkpt lat="44.82696" lon="5.64518">
        <ele>701</ele>
        <time>2021-07-25T09:44:56Z</time>
      </trkpt>
      <trkpt lat="44.82693" lon="5.6451">
        <ele>701</ele>
        <time>2021-07-25T09:44:57Z</time>
      </trkpt>
      <trkpt lat="44.82689" lon="5.64502">
        <ele>701</ele>
        <time>2021-07-25T09:44:58Z</time>
      </trkpt>
      <trkpt lat="44.82686" lon="5.64494">
        <ele>701</ele>
        <time>2021-07-25T09:44:59Z</time>
      </trkpt>
      <trkpt lat="44.82683" lon="5.64486">
        <ele>701</ele>
        <time>2021-07-25T09:45:00Z</time>
      </trkpt>
      <trkpt lat="44.82681" lon="5.64478">
        <ele>701</ele>
        <time>2021-07-25T09:45:01Z</time>
      </trkpt>
      <trkpt lat="44.82679" lon="5.64469">
        <ele>701</ele>
        <time>2021-07-25T09:45:02Z</time>
      </trkpt>
      <trkpt lat="44.82678" lon="5.64461">
        <ele>701</ele>
        <time>2021-07-25T09:45:03Z</time>
      </trkpt>
      <trkpt lat="44.82678" lon="5.64452">
        <ele>701</ele>
        <time>2021-07-25T09:45:04Z</time>
      </trkpt>
      <trkpt lat="44.82678" lon="5.64443">
        <ele>701</ele>
        <time>2021-07-25T09:45:05Z</time>
      </trkpt>
      <trkpt lat="44.8268" lon="5.64435">
        <ele>701</ele>
        <time>2021-07-25T09:45:06Z</time>
      </trkpt>
      <trkpt lat="44.82681" lon="5.64427">
        <ele>701</ele>
        <time>2021-07-25T09:45:07Z</time>
      </trkpt>
      <trkpt lat="44.82683" lon="5.64419">
        <ele>701</ele>
        <time>2021-07-25T09:45:08Z</time>
      </trkpt>
      <trkpt lat="44.82684" lon="5.64411">
        <ele>701</ele>
        <time>2021-07-25T09:45:09Z</time>
      </trkpt>
      <trkpt lat="44.82686" lon="5.64403">
        <ele>702</ele>
        <time>2021-07-25T09:45:10Z</time>
      </trkpt>
      <trkpt lat="44.82687" lon="5.64394">
        <ele>702</ele>
        <time>2021-07-25T09:45:11Z</time>
      </trkpt>
      <trkpt lat="44.82689" lon="5.64386">
        <ele>702</ele>
        <time>2021-07-25T09:45:12Z</time>
      </trkpt>
      <trkpt lat="44.82691" lon="5.64378">
        <ele>702</ele>
        <time>2021-07-25T09:45:13Z</time>
      </trkpt>
      <trkpt lat="44.82692" lon="5.6437">
        <ele>702</ele>
        <time>2021-07-25T09:45:14Z</time>
      </trkpt>
      <trkpt lat="44.82694" lon="5.64362">
        <ele>702</ele>
        <time>2021-07-25T09:45:15Z</time>
      </trkpt>
      <trkpt lat="44.82696" lon="5.64354">
        <ele>702</ele>
        <time>2021-07-25T09:45:16Z</time>
      </trkpt>
      <trkpt lat="44.82699" lon="5.64337">
        <ele>702</ele>
        <time>2021-07-25T09:45:18Z</time>
      </trkpt>
      <trkpt lat="44.82703" lon="5.64323">
        <ele>704</ele>
        <time>2021-07-25T09:45:20Z</time>
      </trkpt>
      <trkpt lat="44.82708" lon="5.6431">
        <ele>704</ele>
        <time>2021-07-25T09:45:22Z</time>
      </trkpt>
      <trkpt lat="44.82719" lon="5.64301">
        <ele>704</ele>
        <time>2021-07-25T09:45:24Z</time>
      </trkpt>
      <trkpt lat="44.82729" lon="5.64294">
        <ele>704</ele>
        <time>2021-07-25T09:45:26Z</time>
      </trkpt>
      <trkpt lat="44.8274" lon="5.64289">
        <ele>704</ele>
        <time>2021-07-25T09:45:28Z</time>
      </trkpt>
      <trkpt lat="44.8275" lon="5.64282">
        <ele>707</ele>
        <time>2021-07-25T09:45:30Z</time>
      </trkpt>
      <trkpt lat="44.8276" lon="5.64274">
        <ele>707</ele>
        <time>2021-07-25T09:45:32Z</time>
      </trkpt>
      <trkpt lat="44.82764" lon="5.6427">
        <ele>707</ele>
        <time>2021-07-25T09:45:33Z</time>
      </trkpt>
      <trkpt lat="44.82771" lon="5.64258">
        <ele>708</ele>
        <time>2021-07-25T09:45:35Z</time>
      </trkpt>
      <trkpt lat="44.82774" lon="5.64243">
        <ele>708</ele>
        <time>2021-07-25T09:45:37Z</time>
      </trkpt>
      <trkpt lat="44.82775" lon="5.64225">
        <ele>708</ele>
        <time>2021-07-25T09:45:39Z</time>
      </trkpt>
      <trkpt lat="44.82776" lon="5.64208">
        <ele>710</ele>
        <time>2021-07-25T09:45:41Z</time>
      </trkpt>
      <trkpt lat="44.82777" lon="5.6419">
        <ele>710</ele>
        <time>2021-07-25T09:45:43Z</time>
      </trkpt>
      <trkpt lat="44.8278" lon="5.64174">
        <ele>711</ele>
        <time>2021-07-25T09:45:45Z</time>
      </trkpt>
      <trkpt lat="44.82787" lon="5.64162">
        <ele>711</ele>
        <time>2021-07-25T09:45:47Z</time>
      </trkpt>
      <trkpt lat="44.82796" lon="5.64151">
        <ele>711</ele>
        <time>2021-07-25T09:45:49Z</time>
      </trkpt>
      <trkpt lat="44.828" lon="5.64147">
        <ele>712</ele>
        <time>2021-07-25T09:45:50Z</time>
      </trkpt>
      <trkpt lat="44.8281" lon="5.64138">
        <ele>712</ele>
        <time>2021-07-25T09:45:52Z</time>
      </trkpt>
      <trkpt lat="44.82819" lon="5.6413">
        <ele>712</ele>
        <time>2021-07-25T09:45:54Z</time>
      </trkpt>
      <trkpt lat="44.82828" lon="5.6412">
        <ele>712</ele>
        <time>2021-07-25T09:45:56Z</time>
      </trkpt>
      <trkpt lat="44.82834" lon="5.64107">
        <ele>712</ele>
        <time>2021-07-25T09:45:58Z</time>
      </trkpt>
      <trkpt lat="44.82838" lon="5.64092">
        <ele>714</ele>
        <time>2021-07-25T09:46:00Z</time>
      </trkpt>
      <trkpt lat="44.82838" lon="5.64075">
        <ele>714</ele>
        <time>2021-07-25T09:46:02Z</time>
      </trkpt>
      <trkpt lat="44.82837" lon="5.64066">
        <ele>714</ele>
        <time>2021-07-25T09:46:03Z</time>
      </trkpt>
      <trkpt lat="44.82835" lon="5.64058">
        <ele>714</ele>
        <time>2021-07-25T09:46:04Z</time>
      </trkpt>
      <trkpt lat="44.82834" lon="5.6405">
        <ele>714</ele>
        <time>2021-07-25T09:46:05Z</time>
      </trkpt>
      <trkpt lat="44.82831" lon="5.64042">
        <ele>714</ele>
        <time>2021-07-25T09:46:06Z</time>
      </trkpt>
      <trkpt lat="44.82829" lon="5.64034">
        <ele>714</ele>
        <time>2021-07-25T09:46:07Z</time>
      </trkpt>
      <trkpt lat="44.82827" lon="5.64026">
        <ele>714</ele>
        <time>2021-07-25T09:46:08Z</time>
      </trkpt>
      <trkpt lat="44.82825" lon="5.64018">
        <ele>714</ele>
        <time>2021-07-25T09:46:09Z</time>
      </trkpt>
      <trkpt lat="44.82825" lon="5.64009">
        <ele>715</ele>
        <time>2021-07-25T09:46:10Z</time>
      </trkpt>
      <trkpt lat="44.82826" lon="5.64">
        <ele>715</ele>
        <time>2021-07-25T09:46:11Z</time>
      </trkpt>
      <trkpt lat="44.82829" lon="5.63991">
        <ele>715</ele>
        <time>2021-07-25T09:46:12Z</time>
      </trkpt>
      <trkpt lat="44.82832" lon="5.63983">
        <ele>715</ele>
        <time>2021-07-25T09:46:13Z</time>
      </trkpt>
      <trkpt lat="44.82835" lon="5.63975">
        <ele>715</ele>
        <time>2021-07-25T09:46:14Z</time>
      </trkpt>
      <trkpt lat="44.82838" lon="5.63967">
        <ele>715</ele>
        <time>2021-07-25T09:46:15Z</time>
      </trkpt>
      <trkpt lat="44.82841" lon="5.63959">
        <ele>715</ele>
        <time>2021-07-25T09:46:16Z</time>
      </trkpt>
      <trkpt lat="44.82843" lon="5.63951">
        <ele>715</ele>
        <time>2021-07-25T09:46:17Z</time>
      </trkpt>
      <trkpt lat="44.82843" lon="5.63942">
        <ele>715</ele>
        <time>2021-07-25T09:46:18Z</time>
      </trkpt>
      <trkpt lat="44.82842" lon="5.63933">
        <ele>715</ele>
        <time>2021-07-25T09:46:19Z</time>
      </trkpt>
      <trkpt lat="44.82841" lon="5.63925">
        <ele>717</ele>
        <time>2021-07-25T09:46:20Z</time>
      </trkpt>
      <trkpt lat="44.82835" lon="5.63912">
        <ele>717</ele>
        <time>2021-07-25T09:46:22Z</time>
      </trkpt>
      <trkpt lat="44.82825" lon="5.63901">
        <ele>717</ele>
        <time>2021-07-25T09:46:24Z</time>
      </trkpt>
      <trkpt lat="44.82818" lon="5.63898">
        <ele>717</ele>
        <time>2021-07-25T09:46:25Z</time>
      </trkpt>
      <trkpt lat="44.82811" lon="5.63895">
        <ele>717</ele>
        <time>2021-07-25T09:46:26Z</time>
      </trkpt>
      <trkpt lat="44.82799" lon="5.63892">
        <ele>717</ele>
        <time>2021-07-25T09:46:28Z</time>
      </trkpt>
      <trkpt lat="44.82786" lon="5.63889">
        <ele>719</ele>
        <time>2021-07-25T09:46:30Z</time>
      </trkpt>
      <trkpt lat="44.82773" lon="5.63886">
        <ele>719</ele>
        <time>2021-07-25T09:46:32Z</time>
      </trkpt>
      <trkpt lat="44.8276" lon="5.63881">
        <ele>719</ele>
        <time>2021-07-25T09:46:34Z</time>
      </trkpt>
      <trkpt lat="44.82747" lon="5.63876">
        <ele>719</ele>
        <time>2021-07-25T09:46:36Z</time>
      </trkpt>
      <trkpt lat="44.82735" lon="5.63874">
        <ele>719</ele>
        <time>2021-07-25T09:46:38Z</time>
      </trkpt>
      <trkpt lat="44.82723" lon="5.6387">
        <ele>721</ele>
        <time>2021-07-25T09:46:40Z</time>
      </trkpt>
      <trkpt lat="44.82711" lon="5.63866">
        <ele>721</ele>
        <time>2021-07-25T09:46:42Z</time>
      </trkpt>
      <trkpt lat="44.82698" lon="5.63863">
        <ele>722</ele>
        <time>2021-07-25T09:46:44Z</time>
      </trkpt>
      <trkpt lat="44.82685" lon="5.63861">
        <ele>722</ele>
        <time>2021-07-25T09:46:46Z</time>
      </trkpt>
      <trkpt lat="44.82673" lon="5.63859">
        <ele>722</ele>
        <time>2021-07-25T09:46:48Z</time>
      </trkpt>
      <trkpt lat="44.8266" lon="5.63857">
        <ele>724</ele>
        <time>2021-07-25T09:46:50Z</time>
      </trkpt>
      <trkpt lat="44.8265" lon="5.63852">
        <ele>724</ele>
        <time>2021-07-25T09:46:52Z</time>
      </trkpt>
      <trkpt lat="44.82637" lon="5.63845">
        <ele>724</ele>
        <time>2021-07-25T09:46:54Z</time>
      </trkpt>
      <trkpt lat="44.82626" lon="5.63838">
        <ele>725</ele>
        <time>2021-07-25T09:46:56Z</time>
      </trkpt>
      <trkpt lat="44.82615" lon="5.63827">
        <ele>725</ele>
        <time>2021-07-25T09:46:58Z</time>
      </trkpt>
      <trkpt lat="44.82605" lon="5.63813">
        <ele>726</ele>
        <time>2021-07-25T09:47:00Z</time>
      </trkpt>
      <trkpt lat="44.82597" lon="5.638">
        <ele>726</ele>
        <time>2021-07-25T09:47:02Z</time>
      </trkpt>
      <trkpt lat="44.8259" lon="5.63786">
        <ele>726</ele>
        <time>2021-07-25T09:47:04Z</time>
      </trkpt>
      <trkpt lat="44.82586" lon="5.6377">
        <ele>726</ele>
        <time>2021-07-25T09:47:06Z</time>
      </trkpt>
      <trkpt lat="44.82584" lon="5.63752">
        <ele>726</ele>
        <time>2021-07-25T09:47:08Z</time>
      </trkpt>
      <trkpt lat="44.82583" lon="5.63742">
        <ele>726</ele>
        <time>2021-07-25T09:47:09Z</time>
      </trkpt>
      <trkpt lat="44.82582" lon="5.63733">
        <ele>727</ele>
        <time>2021-07-25T09:47:10Z</time>
      </trkpt>
      <trkpt lat="44.82582" lon="5.63723">
        <ele>727</ele>
        <time>2021-07-25T09:47:11Z</time>
      </trkpt>
      <trkpt lat="44.82582" lon="5.63713">
        <ele>727</ele>
        <time>2021-07-25T09:47:12Z</time>
      </trkpt>
      <trkpt lat="44.82581" lon="5.63695">
        <ele>727</ele>
        <time>2021-07-25T09:47:14Z</time>
      </trkpt>
      <trkpt lat="44.82579" lon="5.63676">
        <ele>727</ele>
        <time>2021-07-25T09:47:16Z</time>
      </trkpt>
      <trkpt lat="44.82579" lon="5.63667">
        <ele>727</ele>
        <time>2021-07-25T09:47:17Z</time>
      </trkpt>
      <trkpt lat="44.82577" lon="5.63649">
        <ele>727</ele>
        <time>2021-07-25T09:47:19Z</time>
      </trkpt>
      <trkpt lat="44.82575" lon="5.63631">
        <ele>729</ele>
        <time>2021-07-25T09:47:21Z</time>
      </trkpt>
      <trkpt lat="44.82574" lon="5.63614">
        <ele>729</ele>
        <time>2021-07-25T09:47:23Z</time>
      </trkpt>
      <trkpt lat="44.82573" lon="5.63605">
        <ele>729</ele>
        <time>2021-07-25T09:47:24Z</time>
      </trkpt>
      <trkpt lat="44.82572" lon="5.63596">
        <ele>729</ele>
        <time>2021-07-25T09:47:25Z</time>
      </trkpt>
      <trkpt lat="44.82571" lon="5.63588">
        <ele>729</ele>
        <time>2021-07-25T09:47:26Z</time>
      </trkpt>
      <trkpt lat="44.8257" lon="5.63579">
        <ele>729</ele>
        <time>2021-07-25T09:47:27Z</time>
      </trkpt>
      <trkpt lat="44.82569" lon="5.6357">
        <ele>729</ele>
        <time>2021-07-25T09:47:28Z</time>
      </trkpt>
      <trkpt lat="44.82568" lon="5.63561">
        <ele>729</ele>
        <time>2021-07-25T09:47:29Z</time>
      </trkpt>
      <trkpt lat="44.82567" lon="5.63543">
        <ele>731</ele>
        <time>2021-07-25T09:47:31Z</time>
      </trkpt>
      <trkpt lat="44.82567" lon="5.63534">
        <ele>731</ele>
        <time>2021-07-25T09:47:32Z</time>
      </trkpt>
      <trkpt lat="44.82567" lon="5.63525">
        <ele>731</ele>
        <time>2021-07-25T09:47:33Z</time>
      </trkpt>
      <trkpt lat="44.82568" lon="5.63516">
        <ele>731</ele>
        <time>2021-07-25T09:47:34Z</time>
      </trkpt>
      <trkpt lat="44.82568" lon="5.63507">
        <ele>733</ele>
        <time>2021-07-25T09:47:35Z</time>
      </trkpt>
      <trkpt lat="44.82569" lon="5.63498">
        <ele>733</ele>
        <time>2021-07-25T09:47:36Z</time>
      </trkpt>
      <trkpt lat="44.8257" lon="5.6349">
        <ele>733</ele>
        <time>2021-07-25T09:47:37Z</time>
      </trkpt>
      <trkpt lat="44.82571" lon="5.63482">
        <ele>733</ele>
        <time>2021-07-25T09:47:38Z</time>
      </trkpt>
      <trkpt lat="44.82573" lon="5.63474">
        <ele>733</ele>
        <time>2021-07-25T09:47:39Z</time>
      </trkpt>
      <trkpt lat="44.82575" lon="5.63465">
        <ele>735</ele>
        <time>2021-07-25T09:47:40Z</time>
      </trkpt>
      <trkpt lat="44.82577" lon="5.63457">
        <ele>735</ele>
        <time>2021-07-25T09:47:41Z</time>
      </trkpt>
      <trkpt lat="44.8258" lon="5.6345">
        <ele>735</ele>
        <time>2021-07-25T09:47:42Z</time>
      </trkpt>
      <trkpt lat="44.82582" lon="5.63442">
        <ele>735</ele>
        <time>2021-07-25T09:47:43Z</time>
      </trkpt>
      <trkpt lat="44.82585" lon="5.63425">
        <ele>736</ele>
        <time>2021-07-25T09:47:45Z</time>
      </trkpt>
      <trkpt lat="44.82587" lon="5.63407">
        <ele>736</ele>
        <time>2021-07-25T09:47:47Z</time>
      </trkpt>
      <trkpt lat="44.82591" lon="5.6339">
        <ele>736</ele>
        <time>2021-07-25T09:47:49Z</time>
      </trkpt>
      <trkpt lat="44.82595" lon="5.63373">
        <ele>737</ele>
        <time>2021-07-25T09:47:51Z</time>
      </trkpt>
      <trkpt lat="44.82598" lon="5.63357">
        <ele>737</ele>
        <time>2021-07-25T09:47:53Z</time>
      </trkpt>
      <trkpt lat="44.82602" lon="5.63341">
        <ele>738</ele>
        <time>2021-07-25T09:47:55Z</time>
      </trkpt>
      <trkpt lat="44.82605" lon="5.63324">
        <ele>738</ele>
        <time>2021-07-25T09:47:57Z</time>
      </trkpt>
      <trkpt lat="44.82608" lon="5.63308">
        <ele>738</ele>
        <time>2021-07-25T09:47:59Z</time>
      </trkpt>
      <trkpt lat="44.82612" lon="5.63292">
        <ele>739</ele>
        <time>2021-07-25T09:48:01Z</time>
      </trkpt>
      <trkpt lat="44.82614" lon="5.63284">
        <ele>739</ele>
        <time>2021-07-25T09:48:02Z</time>
      </trkpt>
      <trkpt lat="44.82616" lon="5.63275">
        <ele>739</ele>
        <time>2021-07-25T09:48:03Z</time>
      </trkpt>
      <trkpt lat="44.82618" lon="5.63267">
        <ele>739</ele>
        <time>2021-07-25T09:48:04Z</time>
      </trkpt>
      <trkpt lat="44.8262" lon="5.63259">
        <ele>739</ele>
        <time>2021-07-25T09:48:05Z</time>
      </trkpt>
      <trkpt lat="44.82622" lon="5.63251">
        <ele>739</ele>
        <time>2021-07-25T09:48:06Z</time>
      </trkpt>
      <trkpt lat="44.82625" lon="5.63244">
        <ele>739</ele>
        <time>2021-07-25T09:48:07Z</time>
      </trkpt>
      <trkpt lat="44.82628" lon="5.63236">
        <ele>739</ele>
        <time>2021-07-25T09:48:08Z</time>
      </trkpt>
      <trkpt lat="44.8263" lon="5.63228">
        <ele>739</ele>
        <time>2021-07-25T09:48:09Z</time>
      </trkpt>
      <trkpt lat="44.82633" lon="5.6322">
        <ele>741</ele>
        <time>2021-07-25T09:48:10Z</time>
      </trkpt>
      <trkpt lat="44.82636" lon="5.63212">
        <ele>741</ele>
        <time>2021-07-25T09:48:11Z</time>
      </trkpt>
      <trkpt lat="44.82639" lon="5.63204">
        <ele>741</ele>
        <time>2021-07-25T09:48:12Z</time>
      </trkpt>
      <trkpt lat="44.82642" lon="5.63196">
        <ele>741</ele>
        <time>2021-07-25T09:48:13Z</time>
      </trkpt>
      <trkpt lat="44.82645" lon="5.63188">
        <ele>741</ele>
        <time>2021-07-25T09:48:14Z</time>
      </trkpt>
      <trkpt lat="44.82648" lon="5.6318">
        <ele>741</ele>
        <time>2021-07-25T09:48:15Z</time>
      </trkpt>
      <trkpt lat="44.82651" lon="5.63172">
        <ele>741</ele>
        <time>2021-07-25T09:48:16Z</time>
      </trkpt>
      <trkpt lat="44.82653" lon="5.63164">
        <ele>741</ele>
        <time>2021-07-25T09:48:17Z</time>
      </trkpt>
      <trkpt lat="44.82656" lon="5.63156">
        <ele>741</ele>
        <time>2021-07-25T09:48:18Z</time>
      </trkpt>
      <trkpt lat="44.82659" lon="5.63147">
        <ele>741</ele>
        <time>2021-07-25T09:48:19Z</time>
      </trkpt>
      <trkpt lat="44.82661" lon="5.63139">
        <ele>742</ele>
        <time>2021-07-25T09:48:20Z</time>
      </trkpt>
      <trkpt lat="44.82662" lon="5.6313">
        <ele>742</ele>
        <time>2021-07-25T09:48:21Z</time>
      </trkpt>
      <trkpt lat="44.82663" lon="5.63121">
        <ele>742</ele>
        <time>2021-07-25T09:48:22Z</time>
      </trkpt>
      <trkpt lat="44.82664" lon="5.63112">
        <ele>742</ele>
        <time>2021-07-25T09:48:23Z</time>
      </trkpt>
      <trkpt lat="44.82664" lon="5.63103">
        <ele>742</ele>
        <time>2021-07-25T09:48:24Z</time>
      </trkpt>
      <trkpt lat="44.82664" lon="5.63085">
        <ele>742</ele>
        <time>2021-07-25T09:48:26Z</time>
      </trkpt>
      <trkpt lat="44.82665" lon="5.63066">
        <ele>742</ele>
        <time>2021-07-25T09:48:28Z</time>
      </trkpt>
      <trkpt lat="44.82664" lon="5.63047">
        <ele>742</ele>
        <time>2021-07-25T09:48:30Z</time>
      </trkpt>
      <trkpt lat="44.82664" lon="5.63029">
        <ele>742</ele>
        <time>2021-07-25T09:48:32Z</time>
      </trkpt>
      <trkpt lat="44.82663" lon="5.63009">
        <ele>742</ele>
        <time>2021-07-25T09:48:34Z</time>
      </trkpt>
      <trkpt lat="44.82663" lon="5.62998">
        <ele>742</ele>
        <time>2021-07-25T09:48:35Z</time>
      </trkpt>
      <trkpt lat="44.82664" lon="5.62988">
        <ele>742</ele>
        <time>2021-07-25T09:48:36Z</time>
      </trkpt>
      <trkpt lat="44.82665" lon="5.62978">
        <ele>742</ele>
        <time>2021-07-25T09:48:37Z</time>
      </trkpt>
      <trkpt lat="44.82667" lon="5.62969">
        <ele>742</ele>
        <time>2021-07-25T09:48:38Z</time>
      </trkpt>
      <trkpt lat="44.82669" lon="5.62961">
        <ele>742</ele>
        <time>2021-07-25T09:48:39Z</time>
      </trkpt>
      <trkpt lat="44.82672" lon="5.62952">
        <ele>744</ele>
        <time>2021-07-25T09:48:40Z</time>
      </trkpt>
      <trkpt lat="44.82674" lon="5.62944">
        <ele>744</ele>
        <time>2021-07-25T09:48:41Z</time>
      </trkpt>
      <trkpt lat="44.82676" lon="5.62936">
        <ele>744</ele>
        <time>2021-07-25T09:48:42Z</time>
      </trkpt>
      <trkpt lat="44.82678" lon="5.62928">
        <ele>744</ele>
        <time>2021-07-25T09:48:43Z</time>
      </trkpt>
      <trkpt lat="44.82679" lon="5.6292">
        <ele>744</ele>
        <time>2021-07-25T09:48:44Z</time>
      </trkpt>
      <trkpt lat="44.82681" lon="5.62912">
        <ele>744</ele>
        <time>2021-07-25T09:48:45Z</time>
      </trkpt>
      <trkpt lat="44.82686" lon="5.62896">
        <ele>744</ele>
        <time>2021-07-25T09:48:47Z</time>
      </trkpt>
      <trkpt lat="44.8269" lon="5.6288">
        <ele>744</ele>
        <time>2021-07-25T09:48:49Z</time>
      </trkpt>
      <trkpt lat="44.82692" lon="5.62872">
        <ele>746</ele>
        <time>2021-07-25T09:48:50Z</time>
      </trkpt>
      <trkpt lat="44.82694" lon="5.62864">
        <ele>746</ele>
        <time>2021-07-25T09:48:51Z</time>
      </trkpt>
      <trkpt lat="44.82697" lon="5.62856">
        <ele>746</ele>
        <time>2021-07-25T09:48:52Z</time>
      </trkpt>
      <trkpt lat="44.82699" lon="5.62849">
        <ele>746</ele>
        <time>2021-07-25T09:48:53Z</time>
      </trkpt>
      <trkpt lat="44.82702" lon="5.62842">
        <ele>746</ele>
        <time>2021-07-25T09:48:54Z</time>
      </trkpt>
      <trkpt lat="44.82704" lon="5.62835">
        <ele>746</ele>
        <time>2021-07-25T09:48:55Z</time>
      </trkpt>
      <trkpt lat="44.82707" lon="5.62828">
        <ele>746</ele>
        <time>2021-07-25T09:48:56Z</time>
      </trkpt>
      <trkpt lat="44.82709" lon="5.62821">
        <ele>746</ele>
        <time>2021-07-25T09:48:57Z</time>
      </trkpt>
      <trkpt lat="44.82711" lon="5.62813">
        <ele>746</ele>
        <time>2021-07-25T09:48:58Z</time>
      </trkpt>
      <trkpt lat="44.82712" lon="5.62805">
        <ele>746</ele>
        <time>2021-07-25T09:48:59Z</time>
      </trkpt>
      <trkpt lat="44.82714" lon="5.62789">
        <ele>749</ele>
        <time>2021-07-25T09:49:01Z</time>
      </trkpt>
      <trkpt lat="44.82714" lon="5.62773">
        <ele>749</ele>
        <time>2021-07-25T09:49:03Z</time>
      </trkpt>
      <trkpt lat="44.82713" lon="5.62756">
        <ele>750</ele>
        <time>2021-07-25T09:49:05Z</time>
      </trkpt>
      <trkpt lat="44.82712" lon="5.62739">
        <ele>750</ele>
        <time>2021-07-25T09:49:07Z</time>
      </trkpt>
      <trkpt lat="44.82711" lon="5.62722">
        <ele>750</ele>
        <time>2021-07-25T09:49:09Z</time>
      </trkpt>
      <trkpt lat="44.82711" lon="5.62714">
        <ele>751</ele>
        <time>2021-07-25T09:49:10Z</time>
      </trkpt>
      <trkpt lat="44.8271" lon="5.62706">
        <ele>751</ele>
        <time>2021-07-25T09:49:11Z</time>
      </trkpt>
      <trkpt lat="44.8271" lon="5.62697">
        <ele>751</ele>
        <time>2021-07-25T09:49:12Z</time>
      </trkpt>
      <trkpt lat="44.82709" lon="5.62689">
        <ele>751</ele>
        <time>2021-07-25T09:49:13Z</time>
      </trkpt>
      <trkpt lat="44.82708" lon="5.62673">
        <ele>752</ele>
        <time>2021-07-25T09:49:15Z</time>
      </trkpt>
      <trkpt lat="44.82706" lon="5.62658">
        <ele>752</ele>
        <time>2021-07-25T09:49:17Z</time>
      </trkpt>
      <trkpt lat="44.82704" lon="5.62644">
        <ele>752</ele>
        <time>2021-07-25T09:49:19Z</time>
      </trkpt>
      <trkpt lat="44.82703" lon="5.62629">
        <ele>754</ele>
        <time>2021-07-25T09:49:21Z</time>
      </trkpt>
      <trkpt lat="44.82703" lon="5.62614">
        <ele>754</ele>
        <time>2021-07-25T09:49:23Z</time>
      </trkpt>
      <trkpt lat="44.82704" lon="5.62599">
        <ele>755</ele>
        <time>2021-07-25T09:49:25Z</time>
      </trkpt>
      <trkpt lat="44.82705" lon="5.62585">
        <ele>755</ele>
        <time>2021-07-25T09:49:27Z</time>
      </trkpt>
      <trkpt lat="44.82707" lon="5.62571">
        <ele>755</ele>
        <time>2021-07-25T09:49:29Z</time>
      </trkpt>
      <trkpt lat="44.82712" lon="5.62559">
        <ele>756</ele>
        <time>2021-07-25T09:49:31Z</time>
      </trkpt>
      <trkpt lat="44.82719" lon="5.62549">
        <ele>756</ele>
        <time>2021-07-25T09:49:33Z</time>
      </trkpt>
      <trkpt lat="44.82726" lon="5.62539">
        <ele>758</ele>
        <time>2021-07-25T09:49:35Z</time>
      </trkpt>
      <trkpt lat="44.82732" lon="5.62527">
        <ele>758</ele>
        <time>2021-07-25T09:49:37Z</time>
      </trkpt>
      <trkpt lat="44.82739" lon="5.62517">
        <ele>758</ele>
        <time>2021-07-25T09:49:39Z</time>
      </trkpt>
      <trkpt lat="44.82746" lon="5.62506">
        <ele>761</ele>
        <time>2021-07-25T09:49:41Z</time>
      </trkpt>
      <trkpt lat="44.82751" lon="5.62494">
        <ele>761</ele>
        <time>2021-07-25T09:49:43Z</time>
      </trkpt>
      <trkpt lat="44.82757" lon="5.62482">
        <ele>762</ele>
        <time>2021-07-25T09:49:45Z</time>
      </trkpt>
      <trkpt lat="44.8276" lon="5.62471">
        <ele>762</ele>
        <time>2021-07-25T09:49:47Z</time>
      </trkpt>
      <trkpt lat="44.82761" lon="5.62457">
        <ele>762</ele>
        <time>2021-07-25T09:49:49Z</time>
      </trkpt>
      <trkpt lat="44.8276" lon="5.62443">
        <ele>763</ele>
        <time>2021-07-25T09:49:51Z</time>
      </trkpt>
      <trkpt lat="44.82759" lon="5.62429">
        <ele>763</ele>
        <time>2021-07-25T09:49:53Z</time>
      </trkpt>
      <trkpt lat="44.82758" lon="5.62416">
        <ele>764</ele>
        <time>2021-07-25T09:49:55Z</time>
      </trkpt>
      <trkpt lat="44.82756" lon="5.62403">
        <ele>764</ele>
        <time>2021-07-25T09:49:57Z</time>
      </trkpt>
      <trkpt lat="44.82755" lon="5.62389">
        <ele>764</ele>
        <time>2021-07-25T09:49:59Z</time>
      </trkpt>
      <trkpt lat="44.82754" lon="5.62382">
        <ele>766</ele>
        <time>2021-07-25T09:50:00Z</time>
      </trkpt>
      <trkpt lat="44.82754" lon="5.62368">
        <ele>766</ele>
        <time>2021-07-25T09:50:02Z</time>
      </trkpt>
      <trkpt lat="44.82753" lon="5.62354">
        <ele>766</ele>
        <time>2021-07-25T09:50:04Z</time>
      </trkpt>
      <trkpt lat="44.82753" lon="5.62341">
        <ele>767</ele>
        <time>2021-07-25T09:50:06Z</time>
      </trkpt>
      <trkpt lat="44.82754" lon="5.62328">
        <ele>767</ele>
        <time>2021-07-25T09:50:08Z</time>
      </trkpt>
      <trkpt lat="44.82755" lon="5.62321">
        <ele>767</ele>
        <time>2021-07-25T09:50:09Z</time>
      </trkpt>
      <trkpt lat="44.82755" lon="5.62308">
        <ele>768</ele>
        <time>2021-07-25T09:50:11Z</time>
      </trkpt>
      <trkpt lat="44.82754" lon="5.62301">
        <ele>768</ele>
        <time>2021-07-25T09:50:12Z</time>
      </trkpt>
      <trkpt lat="44.82754" lon="5.62295">
        <ele>768</ele>
        <time>2021-07-25T09:50:13Z</time>
      </trkpt>
      <trkpt lat="44.82752" lon="5.62283">
        <ele>768</ele>
        <time>2021-07-25T09:50:15Z</time>
      </trkpt>
      <trkpt lat="44.82749" lon="5.62271">
        <ele>768</ele>
        <time>2021-07-25T09:50:17Z</time>
      </trkpt>
      <trkpt lat="44.82746" lon="5.62258">
        <ele>768</ele>
        <time>2021-07-25T09:50:19Z</time>
      </trkpt>
      <trkpt lat="44.82744" lon="5.62247">
        <ele>769</ele>
        <time>2021-07-25T09:50:21Z</time>
      </trkpt>
      <trkpt lat="44.82745" lon="5.62236">
        <ele>769</ele>
        <time>2021-07-25T09:50:23Z</time>
      </trkpt>
      <trkpt lat="44.82746" lon="5.62225">
        <ele>769</ele>
        <time>2021-07-25T09:50:25Z</time>
      </trkpt>
      <trkpt lat="44.82751" lon="5.62208">
        <ele>769</ele>
        <time>2021-07-25T09:50:28Z</time>
      </trkpt>
      <trkpt lat="44.82755" lon="5.62196">
        <ele>771</ele>
        <time>2021-07-25T09:50:30Z</time>
      </trkpt>
      <trkpt lat="44.82757" lon="5.62183">
        <ele>771</ele>
        <time>2021-07-25T09:50:32Z</time>
      </trkpt>
      <trkpt lat="44.82761" lon="5.6217">
        <ele>771</ele>
        <time>2021-07-25T09:50:34Z</time>
      </trkpt>
      <trkpt lat="44.82764" lon="5.62157">
        <ele>771</ele>
        <time>2021-07-25T09:50:36Z</time>
      </trkpt>
      <trkpt lat="44.82768" lon="5.62144">
        <ele>771</ele>
        <time>2021-07-25T09:50:38Z</time>
      </trkpt>
      <trkpt lat="44.82772" lon="5.62131">
        <ele>772</ele>
        <time>2021-07-25T09:50:40Z</time>
      </trkpt>
      <trkpt lat="44.82773" lon="5.62118">
        <ele>772</ele>
        <time>2021-07-25T09:50:42Z</time>
      </trkpt>
      <trkpt lat="44.82774" lon="5.62103">
        <ele>772</ele>
        <time>2021-07-25T09:50:44Z</time>
      </trkpt>
      <trkpt lat="44.82774" lon="5.62089">
        <ele>772</ele>
        <time>2021-07-25T09:50:46Z</time>
      </trkpt>
      <trkpt lat="44.82774" lon="5.62074">
        <ele>772</ele>
        <time>2021-07-25T09:50:48Z</time>
      </trkpt>
      <trkpt lat="44.82773" lon="5.6206">
        <ele>773</ele>
        <time>2021-07-25T09:50:50Z</time>
      </trkpt>
      <trkpt lat="44.82772" lon="5.62047">
        <ele>773</ele>
        <time>2021-07-25T09:50:52Z</time>
      </trkpt>
      <trkpt lat="44.8277" lon="5.62035">
        <ele>773</ele>
        <time>2021-07-25T09:50:54Z</time>
      </trkpt>
      <trkpt lat="44.82768" lon="5.62022">
        <ele>773</ele>
        <time>2021-07-25T09:50:56Z</time>
      </trkpt>
      <trkpt lat="44.82766" lon="5.6201">
        <ele>773</ele>
        <time>2021-07-25T09:50:58Z</time>
      </trkpt>
      <trkpt lat="44.82763" lon="5.61997">
        <ele>776</ele>
        <time>2021-07-25T09:51:00Z</time>
      </trkpt>
      <trkpt lat="44.8276" lon="5.61984">
        <ele>776</ele>
        <time>2021-07-25T09:51:02Z</time>
      </trkpt>
      <trkpt lat="44.82757" lon="5.61972">
        <ele>776</ele>
        <time>2021-07-25T09:51:04Z</time>
      </trkpt>
      <trkpt lat="44.82756" lon="5.61966">
        <ele>778</ele>
        <time>2021-07-25T09:51:05Z</time>
      </trkpt>
      <trkpt lat="44.82754" lon="5.61953">
        <ele>778</ele>
        <time>2021-07-25T09:51:07Z</time>
      </trkpt>
      <trkpt lat="44.82752" lon="5.61947">
        <ele>778</ele>
        <time>2021-07-25T09:51:08Z</time>
      </trkpt>
      <trkpt lat="44.82751" lon="5.61941">
        <ele>778</ele>
        <time>2021-07-25T09:51:09Z</time>
      </trkpt>
      <trkpt lat="44.82749" lon="5.61936">
        <ele>779</ele>
        <time>2021-07-25T09:51:10Z</time>
      </trkpt>
      <trkpt lat="44.82747" lon="5.6193">
        <ele>779</ele>
        <time>2021-07-25T09:51:11Z</time>
      </trkpt>
      <trkpt lat="44.82746" lon="5.61924">
        <ele>779</ele>
        <time>2021-07-25T09:51:12Z</time>
      </trkpt>
      <trkpt lat="44.82744" lon="5.61918">
        <ele>779</ele>
        <time>2021-07-25T09:51:13Z</time>
      </trkpt>
      <trkpt lat="44.82743" lon="5.61912">
        <ele>779</ele>
        <time>2021-07-25T09:51:14Z</time>
      </trkpt>
      <trkpt lat="44.82741" lon="5.619">
        <ele>780</ele>
        <time>2021-07-25T09:51:16Z</time>
      </trkpt>
      <trkpt lat="44.82739" lon="5.61888">
        <ele>780</ele>
        <time>2021-07-25T09:51:18Z</time>
      </trkpt>
      <trkpt lat="44.82737" lon="5.61876">
        <ele>781</ele>
        <time>2021-07-25T09:51:20Z</time>
      </trkpt>
      <trkpt lat="44.82734" lon="5.61865">
        <ele>781</ele>
        <time>2021-07-25T09:51:22Z</time>
      </trkpt>
      <trkpt lat="44.82732" lon="5.61853">
        <ele>781</ele>
        <time>2021-07-25T09:51:24Z</time>
      </trkpt>
      <trkpt lat="44.82729" lon="5.6184">
        <ele>783</ele>
        <time>2021-07-25T09:51:26Z</time>
      </trkpt>
      <trkpt lat="44.82727" lon="5.61828">
        <ele>783</ele>
        <time>2021-07-25T09:51:28Z</time>
      </trkpt>
      <trkpt lat="44.82725" lon="5.61816">
        <ele>785</ele>
        <time>2021-07-25T09:51:30Z</time>
      </trkpt>
      <trkpt lat="44.82722" lon="5.61803">
        <ele>785</ele>
        <time>2021-07-25T09:51:32Z</time>
      </trkpt>
      <trkpt lat="44.82721" lon="5.61797">
        <ele>785</ele>
        <time>2021-07-25T09:51:33Z</time>
      </trkpt>
      <trkpt lat="44.8272" lon="5.61792">
        <ele>785</ele>
        <time>2021-07-25T09:51:34Z</time>
      </trkpt>
      <trkpt lat="44.82719" lon="5.61786">
        <ele>785</ele>
        <time>2021-07-25T09:51:35Z</time>
      </trkpt>
      <trkpt lat="44.82719" lon="5.6178">
        <ele>785</ele>
        <time>2021-07-25T09:51:36Z</time>
      </trkpt>
      <trkpt lat="44.82719" lon="5.61774">
        <ele>785</ele>
        <time>2021-07-25T09:51:37Z</time>
      </trkpt>
      <trkpt lat="44.82719" lon="5.61767">
        <ele>785</ele>
        <time>2021-07-25T09:51:38Z</time>
      </trkpt>
      <trkpt lat="44.82719" lon="5.61761">
        <ele>785</ele>
        <time>2021-07-25T09:51:39Z</time>
      </trkpt>
      <trkpt lat="44.82719" lon="5.61755">
        <ele>787</ele>
        <time>2021-07-25T09:51:40Z</time>
      </trkpt>
      <trkpt lat="44.8272" lon="5.61743">
        <ele>787</ele>
        <time>2021-07-25T09:51:42Z</time>
      </trkpt>
      <trkpt lat="44.82721" lon="5.61737">
        <ele>787</ele>
        <time>2021-07-25T09:51:43Z</time>
      </trkpt>
      <trkpt lat="44.82722" lon="5.61731">
        <ele>787</ele>
        <time>2021-07-25T09:51:44Z</time>
      </trkpt>
      <trkpt lat="44.82723" lon="5.61724">
        <ele>789</ele>
        <time>2021-07-25T09:51:45Z</time>
      </trkpt>
      <trkpt lat="44.82726" lon="5.61712">
        <ele>789</ele>
        <time>2021-07-25T09:51:47Z</time>
      </trkpt>
      <trkpt lat="44.82729" lon="5.61701">
        <ele>789</ele>
        <time>2021-07-25T09:51:49Z</time>
      </trkpt>
      <trkpt lat="44.8273" lon="5.61696">
        <ele>790</ele>
        <time>2021-07-25T09:51:50Z</time>
      </trkpt>
      <trkpt lat="44.82732" lon="5.6169">
        <ele>790</ele>
        <time>2021-07-25T09:51:51Z</time>
      </trkpt>
      <trkpt lat="44.82734" lon="5.61684">
        <ele>790</ele>
        <time>2021-07-25T09:51:52Z</time>
      </trkpt>
      <trkpt lat="44.82736" lon="5.61679">
        <ele>790</ele>
        <time>2021-07-25T09:51:53Z</time>
      </trkpt>
      <trkpt lat="44.82739" lon="5.61668">
        <ele>792</ele>
        <time>2021-07-25T09:51:55Z</time>
      </trkpt>
      <trkpt lat="44.82741" lon="5.61662">
        <ele>792</ele>
        <time>2021-07-25T09:51:56Z</time>
      </trkpt>
      <trkpt lat="44.82744" lon="5.61657">
        <ele>792</ele>
        <time>2021-07-25T09:51:57Z</time>
      </trkpt>
      <trkpt lat="44.82748" lon="5.61646">
        <ele>792</ele>
        <time>2021-07-25T09:51:59Z</time>
      </trkpt>
      <trkpt lat="44.8275" lon="5.61641">
        <ele>794</ele>
        <time>2021-07-25T09:52:00Z</time>
      </trkpt>
      <trkpt lat="44.82753" lon="5.61636">
        <ele>794</ele>
        <time>2021-07-25T09:52:01Z</time>
      </trkpt>
      <trkpt lat="44.82756" lon="5.61631">
        <ele>794</ele>
        <time>2021-07-25T09:52:02Z</time>
      </trkpt>
      <trkpt lat="44.82762" lon="5.61622">
        <ele>794</ele>
        <time>2021-07-25T09:52:04Z</time>
      </trkpt>
      <trkpt lat="44.82765" lon="5.61617">
        <ele>795</ele>
        <time>2021-07-25T09:52:05Z</time>
      </trkpt>
      <trkpt lat="44.82769" lon="5.61613">
        <ele>795</ele>
        <time>2021-07-25T09:52:06Z</time>
      </trkpt>
      <trkpt lat="44.82772" lon="5.61609">
        <ele>795</ele>
        <time>2021-07-25T09:52:07Z</time>
      </trkpt>
      <trkpt lat="44.82775" lon="5.61605">
        <ele>795</ele>
        <time>2021-07-25T09:52:08Z</time>
      </trkpt>
      <trkpt lat="44.82779" lon="5.61601">
        <ele>795</ele>
        <time>2021-07-25T09:52:09Z</time>
      </trkpt>
      <trkpt lat="44.82785" lon="5.61592">
        <ele>797</ele>
        <time>2021-07-25T09:52:11Z</time>
      </trkpt>
      <trkpt lat="44.82792" lon="5.61584">
        <ele>797</ele>
        <time>2021-07-25T09:52:13Z</time>
      </trkpt>
      <trkpt lat="44.82799" lon="5.61575">
        <ele>798</ele>
        <time>2021-07-25T09:52:15Z</time>
      </trkpt>
      <trkpt lat="44.82806" lon="5.61567">
        <ele>799</ele>
        <time>2021-07-25T09:52:17Z</time>
      </trkpt>
      <trkpt lat="44.82813" lon="5.61558">
        <ele>799</ele>
        <time>2021-07-25T09:52:19Z</time>
      </trkpt>
      <trkpt lat="44.82816" lon="5.61554">
        <ele>799</ele>
        <time>2021-07-25T09:52:20Z</time>
      </trkpt>
      <trkpt lat="44.8282" lon="5.6155">
        <ele>799</ele>
        <time>2021-07-25T09:52:21Z</time>
      </trkpt>
      <trkpt lat="44.82823" lon="5.61546">
        <ele>799</ele>
        <time>2021-07-25T09:52:22Z</time>
      </trkpt>
      <trkpt lat="44.82826" lon="5.61541">
        <ele>799</ele>
        <time>2021-07-25T09:52:23Z</time>
      </trkpt>
      <trkpt lat="44.8283" lon="5.61537">
        <ele>799</ele>
        <time>2021-07-25T09:52:24Z</time>
      </trkpt>
      <trkpt lat="44.82833" lon="5.61532">
        <ele>801</ele>
        <time>2021-07-25T09:52:25Z</time>
      </trkpt>
      <trkpt lat="44.82836" lon="5.61528">
        <ele>801</ele>
        <time>2021-07-25T09:52:26Z</time>
      </trkpt>
      <trkpt lat="44.82839" lon="5.61523">
        <ele>801</ele>
        <time>2021-07-25T09:52:27Z</time>
      </trkpt>
      <trkpt lat="44.82846" lon="5.61515">
        <ele>801</ele>
        <time>2021-07-25T09:52:29Z</time>
      </trkpt>
      <trkpt lat="44.82852" lon="5.61506">
        <ele>803</ele>
        <time>2021-07-25T09:52:31Z</time>
      </trkpt>
      <trkpt lat="44.82858" lon="5.61496">
        <ele>803</ele>
        <time>2021-07-25T09:52:33Z</time>
      </trkpt>
      <trkpt lat="44.82864" lon="5.61486">
        <ele>805</ele>
        <time>2021-07-25T09:52:35Z</time>
      </trkpt>
      <trkpt lat="44.82866" lon="5.61481">
        <ele>805</ele>
        <time>2021-07-25T09:52:36Z</time>
      </trkpt>
      <trkpt lat="44.82869" lon="5.61476">
        <ele>805</ele>
        <time>2021-07-25T09:52:37Z</time>
      </trkpt>
      <trkpt lat="44.82873" lon="5.61465">
        <ele>805</ele>
        <time>2021-07-25T09:52:39Z</time>
      </trkpt>
      <trkpt lat="44.82877" lon="5.61453">
        <ele>806</ele>
        <time>2021-07-25T09:52:41Z</time>
      </trkpt>
      <trkpt lat="44.8288" lon="5.61441">
        <ele>806</ele>
        <time>2021-07-25T09:52:43Z</time>
      </trkpt>
      <trkpt lat="44.82881" lon="5.61429">
        <ele>807</ele>
        <time>2021-07-25T09:52:45Z</time>
      </trkpt>
      <trkpt lat="44.82882" lon="5.61416">
        <ele>807</ele>
        <time>2021-07-25T09:52:47Z</time>
      </trkpt>
      <trkpt lat="44.82884" lon="5.61404">
        <ele>807</ele>
        <time>2021-07-25T09:52:49Z</time>
      </trkpt>
      <trkpt lat="44.82884" lon="5.61391">
        <ele>809</ele>
        <time>2021-07-25T09:52:51Z</time>
      </trkpt>
      <trkpt lat="44.82884" lon="5.61378">
        <ele>809</ele>
        <time>2021-07-25T09:52:53Z</time>
      </trkpt>
      <trkpt lat="44.82882" lon="5.61366">
        <ele>809</ele>
        <time>2021-07-25T09:52:55Z</time>
      </trkpt>
      <trkpt lat="44.82881" lon="5.61359">
        <ele>809</ele>
        <time>2021-07-25T09:52:56Z</time>
      </trkpt>
      <trkpt lat="44.8288" lon="5.61353">
        <ele>809</ele>
        <time>2021-07-25T09:52:57Z</time>
      </trkpt>
      <trkpt lat="44.82879" lon="5.61346">
        <ele>809</ele>
        <time>2021-07-25T09:52:58Z</time>
      </trkpt>
      <trkpt lat="44.82877" lon="5.6134">
        <ele>809</ele>
        <time>2021-07-25T09:52:59Z</time>
      </trkpt>
      <trkpt lat="44.82876" lon="5.61334">
        <ele>811</ele>
        <time>2021-07-25T09:53:00Z</time>
      </trkpt>
      <trkpt lat="44.82874" lon="5.61328">
        <ele>811</ele>
        <time>2021-07-25T09:53:01Z</time>
      </trkpt>
      <trkpt lat="44.82872" lon="5.61321">
        <ele>811</ele>
        <time>2021-07-25T09:53:02Z</time>
      </trkpt>
      <trkpt lat="44.82871" lon="5.61315">
        <ele>811</ele>
        <time>2021-07-25T09:53:03Z</time>
      </trkpt>
      <trkpt lat="44.82869" lon="5.61309">
        <ele>811</ele>
        <time>2021-07-25T09:53:04Z</time>
      </trkpt>
      <trkpt lat="44.82867" lon="5.61303">
        <ele>811</ele>
        <time>2021-07-25T09:53:05Z</time>
      </trkpt>
      <trkpt lat="44.82865" lon="5.61297">
        <ele>811</ele>
        <time>2021-07-25T09:53:06Z</time>
      </trkpt>
      <trkpt lat="44.82863" lon="5.61291">
        <ele>811</ele>
        <time>2021-07-25T09:53:07Z</time>
      </trkpt>
      <trkpt lat="44.82862" lon="5.61284">
        <ele>811</ele>
        <time>2021-07-25T09:53:08Z</time>
      </trkpt>
      <trkpt lat="44.8286" lon="5.61278">
        <ele>811</ele>
        <time>2021-07-25T09:53:09Z</time>
      </trkpt>
      <trkpt lat="44.82858" lon="5.61271">
        <ele>812</ele>
        <time>2021-07-25T09:53:10Z</time>
      </trkpt>
      <trkpt lat="44.82857" lon="5.61265">
        <ele>812</ele>
        <time>2021-07-25T09:53:11Z</time>
      </trkpt>
      <trkpt lat="44.82855" lon="5.61259">
        <ele>812</ele>
        <time>2021-07-25T09:53:12Z</time>
      </trkpt>
      <trkpt lat="44.82853" lon="5.61252">
        <ele>812</ele>
        <time>2021-07-25T09:53:13Z</time>
      </trkpt>
      <trkpt lat="44.82851" lon="5.61246">
        <ele>812</ele>
        <time>2021-07-25T09:53:14Z</time>
      </trkpt>
      <trkpt lat="44.8285" lon="5.6124">
        <ele>812</ele>
        <time>2021-07-25T09:53:15Z</time>
      </trkpt>
      <trkpt lat="44.82848" lon="5.61233">
        <ele>812</ele>
        <time>2021-07-25T09:53:16Z</time>
      </trkpt>
      <trkpt lat="44.82846" lon="5.61227">
        <ele>812</ele>
        <time>2021-07-25T09:53:17Z</time>
      </trkpt>
      <trkpt lat="44.82844" lon="5.61221">
        <ele>812</ele>
        <time>2021-07-25T09:53:18Z</time>
      </trkpt>
      <trkpt lat="44.82843" lon="5.61215">
        <ele>812</ele>
        <time>2021-07-25T09:53:19Z</time>
      </trkpt>
      <trkpt lat="44.82841" lon="5.61208">
        <ele>815</ele>
        <time>2021-07-25T09:53:20Z</time>
      </trkpt>
      <trkpt lat="44.82839" lon="5.61202">
        <ele>815</ele>
        <time>2021-07-25T09:53:21Z</time>
      </trkpt>
      <trkpt lat="44.82837" lon="5.61196">
        <ele>815</ele>
        <time>2021-07-25T09:53:22Z</time>
      </trkpt>
      <trkpt lat="44.82835" lon="5.6119">
        <ele>815</ele>
        <time>2021-07-25T09:53:23Z</time>
      </trkpt>
      <trkpt lat="44.82833" lon="5.61183">
        <ele>815</ele>
        <time>2021-07-25T09:53:24Z</time>
      </trkpt>
      <trkpt lat="44.82832" lon="5.61177">
        <ele>817</ele>
        <time>2021-07-25T09:53:25Z</time>
      </trkpt>
      <trkpt lat="44.8283" lon="5.61171">
        <ele>817</ele>
        <time>2021-07-25T09:53:26Z</time>
      </trkpt>
      <trkpt lat="44.82829" lon="5.61164">
        <ele>817</ele>
        <time>2021-07-25T09:53:27Z</time>
      </trkpt>
      <trkpt lat="44.82827" lon="5.61158">
        <ele>817</ele>
        <time>2021-07-25T09:53:28Z</time>
      </trkpt>
      <trkpt lat="44.82825" lon="5.61152">
        <ele>817</ele>
        <time>2021-07-25T09:53:29Z</time>
      </trkpt>
      <trkpt lat="44.82823" lon="5.61146">
        <ele>818</ele>
        <time>2021-07-25T09:53:30Z</time>
      </trkpt>
      <trkpt lat="44.82822" lon="5.6114">
        <ele>818</ele>
        <time>2021-07-25T09:53:31Z</time>
      </trkpt>
      <trkpt lat="44.8282" lon="5.61134">
        <ele>818</ele>
        <time>2021-07-25T09:53:32Z</time>
      </trkpt>
      <trkpt lat="44.82816" lon="5.61121">
        <ele>818</ele>
        <time>2021-07-25T09:53:34Z</time>
      </trkpt>
      <trkpt lat="44.82814" lon="5.61115">
        <ele>819</ele>
        <time>2021-07-25T09:53:35Z</time>
      </trkpt>
      <trkpt lat="44.82812" lon="5.61108">
        <ele>819</ele>
        <time>2021-07-25T09:53:36Z</time>
      </trkpt>
      <trkpt lat="44.8281" lon="5.61102">
        <ele>819</ele>
        <time>2021-07-25T09:53:37Z</time>
      </trkpt>
      <trkpt lat="44.82807" lon="5.61095">
        <ele>819</ele>
        <time>2021-07-25T09:53:38Z</time>
      </trkpt>
      <trkpt lat="44.82804" lon="5.61089">
        <ele>819</ele>
        <time>2021-07-25T09:53:39Z</time>
      </trkpt>
      <trkpt lat="44.82801" lon="5.61083">
        <ele>820</ele>
        <time>2021-07-25T09:53:40Z</time>
      </trkpt>
      <trkpt lat="44.82798" lon="5.61077">
        <ele>820</ele>
        <time>2021-07-25T09:53:41Z</time>
      </trkpt>
      <trkpt lat="44.82794" lon="5.61072">
        <ele>820</ele>
        <time>2021-07-25T09:53:42Z</time>
      </trkpt>
      <trkpt lat="44.8279" lon="5.61067">
        <ele>820</ele>
        <time>2021-07-25T09:53:43Z</time>
      </trkpt>
      <trkpt lat="44.82786" lon="5.61062">
        <ele>820</ele>
        <time>2021-07-25T09:53:44Z</time>
      </trkpt>
      <trkpt lat="44.82781" lon="5.61059">
        <ele>822</ele>
        <time>2021-07-25T09:53:45Z</time>
      </trkpt>
      <trkpt lat="44.82771" lon="5.61052">
        <ele>822</ele>
        <time>2021-07-25T09:53:47Z</time>
      </trkpt>
      <trkpt lat="44.82762" lon="5.61046">
        <ele>822</ele>
        <time>2021-07-25T09:53:49Z</time>
      </trkpt>
      <trkpt lat="44.82757" lon="5.61044">
        <ele>824</ele>
        <time>2021-07-25T09:53:50Z</time>
      </trkpt>
      <trkpt lat="44.82752" lon="5.61043">
        <ele>824</ele>
        <time>2021-07-25T09:53:51Z</time>
      </trkpt>
      <trkpt lat="44.82747" lon="5.61041">
        <ele>824</ele>
        <time>2021-07-25T09:53:52Z</time>
      </trkpt>
      <trkpt lat="44.82742" lon="5.61038">
        <ele>824</ele>
        <time>2021-07-25T09:53:53Z</time>
      </trkpt>
      <trkpt lat="44.82738" lon="5.61033">
        <ele>824</ele>
        <time>2021-07-25T09:53:54Z</time>
      </trkpt>
      <trkpt lat="44.82737" lon="5.61026">
        <ele>824</ele>
        <time>2021-07-25T09:53:55Z</time>
      </trkpt>
      <trkpt lat="44.82737" lon="5.61018">
        <ele>824</ele>
        <time>2021-07-25T09:53:56Z</time>
      </trkpt>
      <trkpt lat="44.82743" lon="5.61003">
        <ele>824</ele>
        <time>2021-07-25T09:53:58Z</time>
      </trkpt>
      <trkpt lat="44.82749" lon="5.60987">
        <ele>824</ele>
        <time>2021-07-25T09:54:00Z</time>
      </trkpt>
      <trkpt lat="44.82755" lon="5.6097">
        <ele>824</ele>
        <time>2021-07-25T09:54:02Z</time>
      </trkpt>
      <trkpt lat="44.82759" lon="5.60961">
        <ele>824</ele>
        <time>2021-07-25T09:54:03Z</time>
      </trkpt>
      <trkpt lat="44.82762" lon="5.60952">
        <ele>824</ele>
        <time>2021-07-25T09:54:04Z</time>
      </trkpt>
      <trkpt lat="44.82766" lon="5.60944">
        <ele>824</ele>
        <time>2021-07-25T09:54:05Z</time>
      </trkpt>
      <trkpt lat="44.8277" lon="5.60935">
        <ele>824</ele>
        <time>2021-07-25T09:54:06Z</time>
      </trkpt>
      <trkpt lat="44.82774" lon="5.60926">
        <ele>824</ele>
        <time>2021-07-25T09:54:07Z</time>
      </trkpt>
      <trkpt lat="44.82778" lon="5.60916">
        <ele>824</ele>
        <time>2021-07-25T09:54:08Z</time>
      </trkpt>
      <trkpt lat="44.82782" lon="5.60907">
        <ele>824</ele>
        <time>2021-07-25T09:54:09Z</time>
      </trkpt>
      <trkpt lat="44.82786" lon="5.60899">
        <ele>822</ele>
        <time>2021-07-25T09:54:10Z</time>
      </trkpt>
      <trkpt lat="44.82791" lon="5.6089">
        <ele>822</ele>
        <time>2021-07-25T09:54:11Z</time>
      </trkpt>
      <trkpt lat="44.82795" lon="5.60882">
        <ele>822</ele>
        <time>2021-07-25T09:54:12Z</time>
      </trkpt>
      <trkpt lat="44.828" lon="5.60874">
        <ele>822</ele>
        <time>2021-07-25T09:54:13Z</time>
      </trkpt>
      <trkpt lat="44.82804" lon="5.60866">
        <ele>822</ele>
        <time>2021-07-25T09:54:14Z</time>
      </trkpt>
      <trkpt lat="44.82809" lon="5.60859">
        <ele>822</ele>
        <time>2021-07-25T09:54:15Z</time>
      </trkpt>
      <trkpt lat="44.82815" lon="5.60852">
        <ele>822</ele>
        <time>2021-07-25T09:54:16Z</time>
      </trkpt>
      <trkpt lat="44.8282" lon="5.60845">
        <ele>822</ele>
        <time>2021-07-25T09:54:17Z</time>
      </trkpt>
      <trkpt lat="44.82825" lon="5.60839">
        <ele>822</ele>
        <time>2021-07-25T09:54:18Z</time>
      </trkpt>
      <trkpt lat="44.8283" lon="5.60832">
        <ele>822</ele>
        <time>2021-07-25T09:54:19Z</time>
      </trkpt>
      <trkpt lat="44.82835" lon="5.60827">
        <ele>823</ele>
        <time>2021-07-25T09:54:20Z</time>
      </trkpt>
      <trkpt lat="44.8284" lon="5.60821">
        <ele>823</ele>
        <time>2021-07-25T09:54:21Z</time>
      </trkpt>
      <trkpt lat="44.82846" lon="5.60815">
        <ele>823</ele>
        <time>2021-07-25T09:54:22Z</time>
      </trkpt>
      <trkpt lat="44.82851" lon="5.6081">
        <ele>823</ele>
        <time>2021-07-25T09:54:23Z</time>
      </trkpt>
      <trkpt lat="44.82856" lon="5.60805">
        <ele>823</ele>
        <time>2021-07-25T09:54:24Z</time>
      </trkpt>
      <trkpt lat="44.82861" lon="5.608">
        <ele>823</ele>
        <time>2021-07-25T09:54:25Z</time>
      </trkpt>
      <trkpt lat="44.82867" lon="5.60796">
        <ele>823</ele>
        <time>2021-07-25T09:54:26Z</time>
      </trkpt>
      <trkpt lat="44.82872" lon="5.60791">
        <ele>823</ele>
        <time>2021-07-25T09:54:27Z</time>
      </trkpt>
      <trkpt lat="44.82877" lon="5.60787">
        <ele>823</ele>
        <time>2021-07-25T09:54:28Z</time>
      </trkpt>
      <trkpt lat="44.82883" lon="5.60783">
        <ele>823</ele>
        <time>2021-07-25T09:54:29Z</time>
      </trkpt>
      <trkpt lat="44.82893" lon="5.60775">
        <ele>824</ele>
        <time>2021-07-25T09:54:31Z</time>
      </trkpt>
      <trkpt lat="44.82905" lon="5.60767">
        <ele>824</ele>
        <time>2021-07-25T09:54:33Z</time>
      </trkpt>
      <trkpt lat="44.82916" lon="5.60759">
        <ele>824</ele>
        <time>2021-07-25T09:54:35Z</time>
      </trkpt>
      <trkpt lat="44.82922" lon="5.60756">
        <ele>824</ele>
        <time>2021-07-25T09:54:36Z</time>
      </trkpt>
      <trkpt lat="44.82934" lon="5.60749">
        <ele>824</ele>
        <time>2021-07-25T09:54:38Z</time>
      </trkpt>
      <trkpt lat="44.8294" lon="5.60747">
        <ele>824</ele>
        <time>2021-07-25T09:54:39Z</time>
      </trkpt>
      <trkpt lat="44.82946" lon="5.60744">
        <ele>827</ele>
        <time>2021-07-25T09:54:40Z</time>
      </trkpt>
      <trkpt lat="44.82952" lon="5.60741">
        <ele>827</ele>
        <time>2021-07-25T09:54:41Z</time>
      </trkpt>
      <trkpt lat="44.82958" lon="5.60739">
        <ele>827</ele>
        <time>2021-07-25T09:54:42Z</time>
      </trkpt>
      <trkpt lat="44.82964" lon="5.60737">
        <ele>827</ele>
        <time>2021-07-25T09:54:43Z</time>
      </trkpt>
      <trkpt lat="44.8297" lon="5.60735">
        <ele>827</ele>
        <time>2021-07-25T09:54:44Z</time>
      </trkpt>
      <trkpt lat="44.82981" lon="5.60732">
        <ele>829</ele>
        <time>2021-07-25T09:54:46Z</time>
      </trkpt>
      <trkpt lat="44.82993" lon="5.60729">
        <ele>829</ele>
        <time>2021-07-25T09:54:48Z</time>
      </trkpt>
      <trkpt lat="44.83005" lon="5.60726">
        <ele>829</ele>
        <time>2021-07-25T09:54:50Z</time>
      </trkpt>
      <trkpt lat="44.83017" lon="5.60724">
        <ele>829</ele>
        <time>2021-07-25T09:54:52Z</time>
      </trkpt>
      <trkpt lat="44.83029" lon="5.60723">
        <ele>829</ele>
        <time>2021-07-25T09:54:54Z</time>
      </trkpt>
      <trkpt lat="44.83042" lon="5.60722">
        <ele>829</ele>
        <time>2021-07-25T09:54:56Z</time>
      </trkpt>
      <trkpt lat="44.83048" lon="5.60722">
        <ele>829</ele>
        <time>2021-07-25T09:54:57Z</time>
      </trkpt>
      <trkpt lat="44.83055" lon="5.60722">
        <ele>829</ele>
        <time>2021-07-25T09:54:58Z</time>
      </trkpt>
      <trkpt lat="44.83061" lon="5.60722">
        <ele>829</ele>
        <time>2021-07-25T09:54:59Z</time>
      </trkpt>
      <trkpt lat="44.83067" lon="5.60723">
        <ele>830</ele>
        <time>2021-07-25T09:55:00Z</time>
      </trkpt>
      <trkpt lat="44.83074" lon="5.60723">
        <ele>830</ele>
        <time>2021-07-25T09:55:01Z</time>
      </trkpt>
      <trkpt lat="44.8308" lon="5.60724">
        <ele>830</ele>
        <time>2021-07-25T09:55:02Z</time>
      </trkpt>
      <trkpt lat="44.83087" lon="5.60724">
        <ele>830</ele>
        <time>2021-07-25T09:55:03Z</time>
      </trkpt>
      <trkpt lat="44.83093" lon="5.60725">
        <ele>830</ele>
        <time>2021-07-25T09:55:04Z</time>
      </trkpt>
      <trkpt lat="44.831" lon="5.60725">
        <ele>830</ele>
        <time>2021-07-25T09:55:05Z</time>
      </trkpt>
      <trkpt lat="44.8311" lon="5.60726">
        <ele>830</ele>
        <time>2021-07-25T09:55:07Z</time>
      </trkpt>
      <trkpt lat="44.83099" lon="5.6072">
        <ele>830</ele>
        <time>2021-07-25T09:55:12Z</time>
      </trkpt>
      <trkpt lat="44.83087" lon="5.60719">
        <ele>830</ele>
        <time>2021-07-25T09:55:14Z</time>
      </trkpt>
      <trkpt lat="44.83081" lon="5.60718">
        <ele>830</ele>
        <time>2021-07-25T09:55:15Z</time>
      </trkpt>
      <trkpt lat="44.83075" lon="5.60717">
        <ele>830</ele>
        <time>2021-07-25T09:55:16Z</time>
      </trkpt>
      <trkpt lat="44.83069" lon="5.60717">
        <ele>830</ele>
        <time>2021-07-25T09:55:17Z</time>
      </trkpt>
      <trkpt lat="44.83063" lon="5.60716">
        <ele>830</ele>
        <time>2021-07-25T09:55:18Z</time>
      </trkpt>
      <trkpt lat="44.83057" lon="5.60715">
        <ele>830</ele>
        <time>2021-07-25T09:55:19Z</time>
      </trkpt>
      <trkpt lat="44.8305" lon="5.60714">
        <ele>829</ele>
        <time>2021-07-25T09:55:20Z</time>
      </trkpt>
      <trkpt lat="44.83044" lon="5.60713">
        <ele>829</ele>
        <time>2021-07-25T09:55:21Z</time>
      </trkpt>
      <trkpt lat="44.83031" lon="5.60712">
        <ele>829</ele>
        <time>2021-07-25T09:55:23Z</time>
      </trkpt>
      <trkpt lat="44.83025" lon="5.60711">
        <ele>829</ele>
        <time>2021-07-25T09:55:24Z</time>
      </trkpt>
      <trkpt lat="44.83018" lon="5.60709">
        <ele>829</ele>
        <time>2021-07-25T09:55:25Z</time>
      </trkpt>
      <trkpt lat="44.83012" lon="5.60706">
        <ele>829</ele>
        <time>2021-07-25T09:55:26Z</time>
      </trkpt>
      <trkpt lat="44.83003" lon="5.60694">
        <ele>829</ele>
        <time>2021-07-25T09:55:28Z</time>
      </trkpt>
      <trkpt lat="44.82996" lon="5.6068">
        <ele>830</ele>
        <time>2021-07-25T09:55:30Z</time>
      </trkpt>
      <trkpt lat="44.82994" lon="5.60672">
        <ele>830</ele>
        <time>2021-07-25T09:55:31Z</time>
      </trkpt>
      <trkpt lat="44.82993" lon="5.60664">
        <ele>830</ele>
        <time>2021-07-25T09:55:32Z</time>
      </trkpt>
      <trkpt lat="44.82991" lon="5.60656">
        <ele>830</ele>
        <time>2021-07-25T09:55:33Z</time>
      </trkpt>
      <trkpt lat="44.82987" lon="5.60641">
        <ele>830</ele>
        <time>2021-07-25T09:55:35Z</time>
      </trkpt>
      <trkpt lat="44.82982" lon="5.60627">
        <ele>830</ele>
        <time>2021-07-25T09:55:37Z</time>
      </trkpt>
      <trkpt lat="44.8298" lon="5.6062">
        <ele>830</ele>
        <time>2021-07-25T09:55:38Z</time>
      </trkpt>
      <trkpt lat="44.82978" lon="5.60612">
        <ele>830</ele>
        <time>2021-07-25T09:55:39Z</time>
      </trkpt>
      <trkpt lat="44.82975" lon="5.60604">
        <ele>831</ele>
        <time>2021-07-25T09:55:40Z</time>
      </trkpt>
      <trkpt lat="44.82973" lon="5.60596">
        <ele>831</ele>
        <time>2021-07-25T09:55:41Z</time>
      </trkpt>
      <trkpt lat="44.8297" lon="5.60588">
        <ele>831</ele>
        <time>2021-07-25T09:55:42Z</time>
      </trkpt>
      <trkpt lat="44.82968" lon="5.6058">
        <ele>831</ele>
        <time>2021-07-25T09:55:43Z</time>
      </trkpt>
      <trkpt lat="44.82965" lon="5.60571">
        <ele>831</ele>
        <time>2021-07-25T09:55:44Z</time>
      </trkpt>
      <trkpt lat="44.82962" lon="5.60563">
        <ele>831</ele>
        <time>2021-07-25T09:55:45Z</time>
      </trkpt>
      <trkpt lat="44.8296" lon="5.60555">
        <ele>831</ele>
        <time>2021-07-25T09:55:46Z</time>
      </trkpt>
      <trkpt lat="44.82957" lon="5.60546">
        <ele>831</ele>
        <time>2021-07-25T09:55:47Z</time>
      </trkpt>
      <trkpt lat="44.82955" lon="5.60538">
        <ele>831</ele>
        <time>2021-07-25T09:55:48Z</time>
      </trkpt>
      <trkpt lat="44.8295" lon="5.60522">
        <ele>833</ele>
        <time>2021-07-25T09:55:50Z</time>
      </trkpt>
      <trkpt lat="44.82948" lon="5.60514">
        <ele>833</ele>
        <time>2021-07-25T09:55:51Z</time>
      </trkpt>
      <trkpt lat="44.82945" lon="5.60507">
        <ele>833</ele>
        <time>2021-07-25T09:55:52Z</time>
      </trkpt>
      <trkpt lat="44.82943" lon="5.60499">
        <ele>833</ele>
        <time>2021-07-25T09:55:53Z</time>
      </trkpt>
      <trkpt lat="44.82941" lon="5.60492">
        <ele>833</ele>
        <time>2021-07-25T09:55:54Z</time>
      </trkpt>
      <trkpt lat="44.82938" lon="5.60484">
        <ele>833</ele>
        <time>2021-07-25T09:55:55Z</time>
      </trkpt>
      <trkpt lat="44.82936" lon="5.60477">
        <ele>833</ele>
        <time>2021-07-25T09:55:56Z</time>
      </trkpt>
      <trkpt lat="44.82934" lon="5.60469">
        <ele>833</ele>
        <time>2021-07-25T09:55:57Z</time>
      </trkpt>
      <trkpt lat="44.82932" lon="5.60462">
        <ele>833</ele>
        <time>2021-07-25T09:55:58Z</time>
      </trkpt>
      <trkpt lat="44.82929" lon="5.60455">
        <ele>833</ele>
        <time>2021-07-25T09:55:59Z</time>
      </trkpt>
      <trkpt lat="44.82927" lon="5.60448">
        <ele>836</ele>
        <time>2021-07-25T09:56:00Z</time>
      </trkpt>
      <trkpt lat="44.82924" lon="5.60441">
        <ele>836</ele>
        <time>2021-07-25T09:56:01Z</time>
      </trkpt>
      <trkpt lat="44.82921" lon="5.60433">
        <ele>836</ele>
        <time>2021-07-25T09:56:02Z</time>
      </trkpt>
      <trkpt lat="44.82919" lon="5.60426">
        <ele>836</ele>
        <time>2021-07-25T09:56:03Z</time>
      </trkpt>
      <trkpt lat="44.82916" lon="5.60419">
        <ele>836</ele>
        <time>2021-07-25T09:56:04Z</time>
      </trkpt>
      <trkpt lat="44.82914" lon="5.60412">
        <ele>837</ele>
        <time>2021-07-25T09:56:05Z</time>
      </trkpt>
      <trkpt lat="44.82912" lon="5.60405">
        <ele>837</ele>
        <time>2021-07-25T09:56:06Z</time>
      </trkpt>
      <trkpt lat="44.82909" lon="5.60398">
        <ele>837</ele>
        <time>2021-07-25T09:56:07Z</time>
      </trkpt>
      <trkpt lat="44.82907" lon="5.60391">
        <ele>837</ele>
        <time>2021-07-25T09:56:08Z</time>
      </trkpt>
      <trkpt lat="44.82904" lon="5.60378">
        <ele>838</ele>
        <time>2021-07-25T09:56:10Z</time>
      </trkpt>
      <trkpt lat="44.82901" lon="5.60364">
        <ele>838</ele>
        <time>2021-07-25T09:56:12Z</time>
      </trkpt>
      <trkpt lat="44.82898" lon="5.60358">
        <ele>838</ele>
        <time>2021-07-25T09:56:13Z</time>
      </trkpt>
      <trkpt lat="44.82896" lon="5.60352">
        <ele>838</ele>
        <time>2021-07-25T09:56:14Z</time>
      </trkpt>
      <trkpt lat="44.82894" lon="5.60345">
        <ele>840</ele>
        <time>2021-07-25T09:56:15Z</time>
      </trkpt>
      <trkpt lat="44.82892" lon="5.60339">
        <ele>840</ele>
        <time>2021-07-25T09:56:16Z</time>
      </trkpt>
      <trkpt lat="44.8289" lon="5.60333">
        <ele>840</ele>
        <time>2021-07-25T09:56:17Z</time>
      </trkpt>
      <trkpt lat="44.82888" lon="5.60326">
        <ele>840</ele>
        <time>2021-07-25T09:56:18Z</time>
      </trkpt>
      <trkpt lat="44.82886" lon="5.6032">
        <ele>840</ele>
        <time>2021-07-25T09:56:19Z</time>
      </trkpt>
      <trkpt lat="44.82884" lon="5.60313">
        <ele>842</ele>
        <time>2021-07-25T09:56:20Z</time>
      </trkpt>
      <trkpt lat="44.82882" lon="5.60307">
        <ele>842</ele>
        <time>2021-07-25T09:56:21Z</time>
      </trkpt>
      <trkpt lat="44.8288" lon="5.603">
        <ele>842</ele>
        <time>2021-07-25T09:56:22Z</time>
      </trkpt>
      <trkpt lat="44.82878" lon="5.60293">
        <ele>842</ele>
        <time>2021-07-25T09:56:23Z</time>
      </trkpt>
      <trkpt lat="44.82876" lon="5.60287">
        <ele>842</ele>
        <time>2021-07-25T09:56:24Z</time>
      </trkpt>
      <trkpt lat="44.82874" lon="5.6028">
        <ele>844</ele>
        <time>2021-07-25T09:56:25Z</time>
      </trkpt>
      <trkpt lat="44.82872" lon="5.60273">
        <ele>844</ele>
        <time>2021-07-25T09:56:26Z</time>
      </trkpt>
      <trkpt lat="44.8287" lon="5.60266">
        <ele>844</ele>
        <time>2021-07-25T09:56:27Z</time>
      </trkpt>
      <trkpt lat="44.82867" lon="5.60259">
        <ele>844</ele>
        <time>2021-07-25T09:56:28Z</time>
      </trkpt>
      <trkpt lat="44.82865" lon="5.60252">
        <ele>844</ele>
        <time>2021-07-25T09:56:29Z</time>
      </trkpt>
      <trkpt lat="44.82863" lon="5.60245">
        <ele>845</ele>
        <time>2021-07-25T09:56:30Z</time>
      </trkpt>
      <trkpt lat="44.82861" lon="5.60238">
        <ele>845</ele>
        <time>2021-07-25T09:56:31Z</time>
      </trkpt>
      <trkpt lat="44.82859" lon="5.60231">
        <ele>845</ele>
        <time>2021-07-25T09:56:32Z</time>
      </trkpt>
      <trkpt lat="44.82858" lon="5.60223">
        <ele>845</ele>
        <time>2021-07-25T09:56:33Z</time>
      </trkpt>
      <trkpt lat="44.82856" lon="5.60216">
        <ele>845</ele>
        <time>2021-07-25T09:56:34Z</time>
      </trkpt>
      <trkpt lat="44.82855" lon="5.60209">
        <ele>846</ele>
        <time>2021-07-25T09:56:35Z</time>
      </trkpt>
      <trkpt lat="44.82854" lon="5.60195">
        <ele>846</ele>
        <time>2021-07-25T09:56:37Z</time>
      </trkpt>
      <trkpt lat="44.82854" lon="5.60181">
        <ele>846</ele>
        <time>2021-07-25T09:56:39Z</time>
      </trkpt>
      <trkpt lat="44.82854" lon="5.60174">
        <ele>848</ele>
        <time>2021-07-25T09:56:40Z</time>
      </trkpt>
      <trkpt lat="44.82854" lon="5.60168">
        <ele>848</ele>
        <time>2021-07-25T09:56:41Z</time>
      </trkpt>
      <trkpt lat="44.82855" lon="5.60161">
        <ele>848</ele>
        <time>2021-07-25T09:56:42Z</time>
      </trkpt>
      <trkpt lat="44.82856" lon="5.60154">
        <ele>848</ele>
        <time>2021-07-25T09:56:43Z</time>
      </trkpt>
      <trkpt lat="44.82857" lon="5.60148">
        <ele>848</ele>
        <time>2021-07-25T09:56:44Z</time>
      </trkpt>
      <trkpt lat="44.82858" lon="5.60142">
        <ele>850</ele>
        <time>2021-07-25T09:56:45Z</time>
      </trkpt>
      <trkpt lat="44.82861" lon="5.60129">
        <ele>850</ele>
        <time>2021-07-25T09:56:47Z</time>
      </trkpt>
      <trkpt lat="44.82864" lon="5.60116">
        <ele>850</ele>
        <time>2021-07-25T09:56:49Z</time>
      </trkpt>
      <trkpt lat="44.82867" lon="5.60104">
        <ele>851</ele>
        <time>2021-07-25T09:56:51Z</time>
      </trkpt>
      <trkpt lat="44.8287" lon="5.60092">
        <ele>851</ele>
        <time>2021-07-25T09:56:53Z</time>
      </trkpt>
      <trkpt lat="44.82872" lon="5.6008">
        <ele>853</ele>
        <time>2021-07-25T09:56:55Z</time>
      </trkpt>
      <trkpt lat="44.82873" lon="5.60074">
        <ele>853</ele>
        <time>2021-07-25T09:56:56Z</time>
      </trkpt>
      <trkpt lat="44.82874" lon="5.60068">
        <ele>853</ele>
        <time>2021-07-25T09:56:57Z</time>
      </trkpt>
      <trkpt lat="44.82876" lon="5.60055">
        <ele>853</ele>
        <time>2021-07-25T09:56:59Z</time>
      </trkpt>
      <trkpt lat="44.82877" lon="5.60043">
        <ele>855</ele>
        <time>2021-07-25T09:57:01Z</time>
      </trkpt>
      <trkpt lat="44.82878" lon="5.60031">
        <ele>855</ele>
        <time>2021-07-25T09:57:03Z</time>
      </trkpt>
      <trkpt lat="44.82878" lon="5.60018">
        <ele>856</ele>
        <time>2021-07-25T09:57:05Z</time>
      </trkpt>
      <trkpt lat="44.82878" lon="5.60006">
        <ele>856</ele>
        <time>2021-07-25T09:57:07Z</time>
      </trkpt>
      <trkpt lat="44.82878" lon="5.59993">
        <ele>856</ele>
        <time>2021-07-25T09:57:09Z</time>
      </trkpt>
      <trkpt lat="44.82877" lon="5.59981">
        <ele>857</ele>
        <time>2021-07-25T09:57:11Z</time>
      </trkpt>
      <trkpt lat="44.82877" lon="5.59975">
        <ele>857</ele>
        <time>2021-07-25T09:57:12Z</time>
      </trkpt>
      <trkpt lat="44.82877" lon="5.59969">
        <ele>857</ele>
        <time>2021-07-25T09:57:13Z</time>
      </trkpt>
      <trkpt lat="44.82876" lon="5.59962">
        <ele>857</ele>
        <time>2021-07-25T09:57:14Z</time>
      </trkpt>
      <trkpt lat="44.82876" lon="5.59956">
        <ele>857</ele>
        <time>2021-07-25T09:57:15Z</time>
      </trkpt>
      <trkpt lat="44.82875" lon="5.5995">
        <ele>857</ele>
        <time>2021-07-25T09:57:16Z</time>
      </trkpt>
      <trkpt lat="44.82874" lon="5.59944">
        <ele>857</ele>
        <time>2021-07-25T09:57:17Z</time>
      </trkpt>
      <trkpt lat="44.82873" lon="5.59938">
        <ele>857</ele>
        <time>2021-07-25T09:57:18Z</time>
      </trkpt>
      <trkpt lat="44.82872" lon="5.59932">
        <ele>857</ele>
        <time>2021-07-25T09:57:19Z</time>
      </trkpt>
      <trkpt lat="44.82871" lon="5.59925">
        <ele>858</ele>
        <time>2021-07-25T09:57:20Z</time>
      </trkpt>
      <trkpt lat="44.8287" lon="5.59919">
        <ele>858</ele>
        <time>2021-07-25T09:57:21Z</time>
      </trkpt>
      <trkpt lat="44.82868" lon="5.59913">
        <ele>858</ele>
        <time>2021-07-25T09:57:22Z</time>
      </trkpt>
      <trkpt lat="44.82867" lon="5.59907">
        <ele>858</ele>
        <time>2021-07-25T09:57:23Z</time>
      </trkpt>
      <trkpt lat="44.82865" lon="5.59901">
        <ele>858</ele>
        <time>2021-07-25T09:57:24Z</time>
      </trkpt>
      <trkpt lat="44.82863" lon="5.59895">
        <ele>859</ele>
        <time>2021-07-25T09:57:25Z</time>
      </trkpt>
      <trkpt lat="44.82861" lon="5.59889">
        <ele>859</ele>
        <time>2021-07-25T09:57:26Z</time>
      </trkpt>
      <trkpt lat="44.82859" lon="5.59883">
        <ele>859</ele>
        <time>2021-07-25T09:57:27Z</time>
      </trkpt>
      <trkpt lat="44.82857" lon="5.59878">
        <ele>859</ele>
        <time>2021-07-25T09:57:28Z</time>
      </trkpt>
      <trkpt lat="44.82854" lon="5.59872">
        <ele>859</ele>
        <time>2021-07-25T09:57:29Z</time>
      </trkpt>
      <trkpt lat="44.82852" lon="5.59867">
        <ele>861</ele>
        <time>2021-07-25T09:57:30Z</time>
      </trkpt>
      <trkpt lat="44.82849" lon="5.59861">
        <ele>861</ele>
        <time>2021-07-25T09:57:31Z</time>
      </trkpt>
      <trkpt lat="44.82847" lon="5.59856">
        <ele>861</ele>
        <time>2021-07-25T09:57:32Z</time>
      </trkpt>
      <trkpt lat="44.82845" lon="5.5985">
        <ele>861</ele>
        <time>2021-07-25T09:57:33Z</time>
      </trkpt>
      <trkpt lat="44.82843" lon="5.59845">
        <ele>861</ele>
        <time>2021-07-25T09:57:34Z</time>
      </trkpt>
      <trkpt lat="44.8284" lon="5.59839">
        <ele>864</ele>
        <time>2021-07-25T09:57:35Z</time>
      </trkpt>
      <trkpt lat="44.82838" lon="5.59834">
        <ele>864</ele>
        <time>2021-07-25T09:57:36Z</time>
      </trkpt>
      <trkpt lat="44.82835" lon="5.59829">
        <ele>864</ele>
        <time>2021-07-25T09:57:37Z</time>
      </trkpt>
      <trkpt lat="44.82833" lon="5.59823">
        <ele>864</ele>
        <time>2021-07-25T09:57:38Z</time>
      </trkpt>
      <trkpt lat="44.8283" lon="5.59818">
        <ele>864</ele>
        <time>2021-07-25T09:57:39Z</time>
      </trkpt>
      <trkpt lat="44.82827" lon="5.59813">
        <ele>866</ele>
        <time>2021-07-25T09:57:40Z</time>
      </trkpt>
      <trkpt lat="44.82825" lon="5.59807">
        <ele>866</ele>
        <time>2021-07-25T09:57:41Z</time>
      </trkpt>
      <trkpt lat="44.82822" lon="5.59802">
        <ele>866</ele>
        <time>2021-07-25T09:57:42Z</time>
      </trkpt>
      <trkpt lat="44.8282" lon="5.59797">
        <ele>866</ele>
        <time>2021-07-25T09:57:43Z</time>
      </trkpt>
      <trkpt lat="44.82817" lon="5.59792">
        <ele>866</ele>
        <time>2021-07-25T09:57:44Z</time>
      </trkpt>
      <trkpt lat="44.82814" lon="5.59787">
        <ele>867</ele>
        <time>2021-07-25T09:57:45Z</time>
      </trkpt>
      <trkpt lat="44.82812" lon="5.59781">
        <ele>867</ele>
        <time>2021-07-25T09:57:46Z</time>
      </trkpt>
      <trkpt lat="44.82809" lon="5.59776">
        <ele>867</ele>
        <time>2021-07-25T09:57:47Z</time>
      </trkpt>
      <trkpt lat="44.82806" lon="5.5977">
        <ele>867</ele>
        <time>2021-07-25T09:57:48Z</time>
      </trkpt>
      <trkpt lat="44.82804" lon="5.59764">
        <ele>867</ele>
        <time>2021-07-25T09:57:49Z</time>
      </trkpt>
      <trkpt lat="44.82801" lon="5.59759">
        <ele>867</ele>
        <time>2021-07-25T09:57:50Z</time>
      </trkpt>
      <trkpt lat="44.82798" lon="5.59753">
        <ele>867</ele>
        <time>2021-07-25T09:57:51Z</time>
      </trkpt>
      <trkpt lat="44.82795" lon="5.59748">
        <ele>868</ele>
        <time>2021-07-25T09:57:52Z</time>
      </trkpt>
      <trkpt lat="44.82793" lon="5.59742">
        <ele>868</ele>
        <time>2021-07-25T09:57:53Z</time>
      </trkpt>
      <trkpt lat="44.8279" lon="5.59737">
        <ele>868</ele>
        <time>2021-07-25T09:57:54Z</time>
      </trkpt>
      <trkpt lat="44.82787" lon="5.59731">
        <ele>868</ele>
        <time>2021-07-25T09:57:55Z</time>
      </trkpt>
      <trkpt lat="44.82785" lon="5.59726">
        <ele>868</ele>
        <time>2021-07-25T09:57:56Z</time>
      </trkpt>
      <trkpt lat="44.82782" lon="5.5972">
        <ele>868</ele>
        <time>2021-07-25T09:57:57Z</time>
      </trkpt>
      <trkpt lat="44.82779" lon="5.59715">
        <ele>868</ele>
        <time>2021-07-25T09:57:58Z</time>
      </trkpt>
      <trkpt lat="44.82776" lon="5.5971">
        <ele>868</ele>
        <time>2021-07-25T09:57:59Z</time>
      </trkpt>
      <trkpt lat="44.82774" lon="5.59704">
        <ele>871</ele>
        <time>2021-07-25T09:58:00Z</time>
      </trkpt>
      <trkpt lat="44.82771" lon="5.59699">
        <ele>871</ele>
        <time>2021-07-25T09:58:01Z</time>
      </trkpt>
      <trkpt lat="44.82768" lon="5.59693">
        <ele>871</ele>
        <time>2021-07-25T09:58:02Z</time>
      </trkpt>
      <trkpt lat="44.82766" lon="5.59687">
        <ele>871</ele>
        <time>2021-07-25T09:58:03Z</time>
      </trkpt>
      <trkpt lat="44.82763" lon="5.59682">
        <ele>871</ele>
        <time>2021-07-25T09:58:04Z</time>
      </trkpt>
      <trkpt lat="44.8276" lon="5.59676">
        <ele>872</ele>
        <time>2021-07-25T09:58:05Z</time>
      </trkpt>
      <trkpt lat="44.82758" lon="5.59671">
        <ele>872</ele>
        <time>2021-07-25T09:58:06Z</time>
      </trkpt>
      <trkpt lat="44.82755" lon="5.59666">
        <ele>872</ele>
        <time>2021-07-25T09:58:07Z</time>
      </trkpt>
      <trkpt lat="44.82749" lon="5.59655">
        <ele>872</ele>
        <time>2021-07-25T09:58:09Z</time>
      </trkpt>
      <trkpt lat="44.82744" lon="5.59644">
        <ele>872</ele>
        <time>2021-07-25T09:58:11Z</time>
      </trkpt>
      <trkpt lat="44.82739" lon="5.59633">
        <ele>873</ele>
        <time>2021-07-25T09:58:13Z</time>
      </trkpt>
      <trkpt lat="44.82734" lon="5.59622">
        <ele>873</ele>
        <time>2021-07-25T09:58:15Z</time>
      </trkpt>
      <trkpt lat="44.82728" lon="5.59612">
        <ele>873</ele>
        <time>2021-07-25T09:58:17Z</time>
      </trkpt>
      <trkpt lat="44.82723" lon="5.59601">
        <ele>873</ele>
        <time>2021-07-25T09:58:19Z</time>
      </trkpt>
      <trkpt lat="44.82718" lon="5.59589">
        <ele>876</ele>
        <time>2021-07-25T09:58:21Z</time>
      </trkpt>
      <trkpt lat="44.82714" lon="5.59578">
        <ele>876</ele>
        <time>2021-07-25T09:58:23Z</time>
      </trkpt>
      <trkpt lat="44.82712" lon="5.59572">
        <ele>876</ele>
        <time>2021-07-25T09:58:24Z</time>
      </trkpt>
      <trkpt lat="44.8271" lon="5.59566">
        <ele>878</ele>
        <time>2021-07-25T09:58:25Z</time>
      </trkpt>
      <trkpt lat="44.82708" lon="5.5956">
        <ele>878</ele>
        <time>2021-07-25T09:58:26Z</time>
      </trkpt>
      <trkpt lat="44.82706" lon="5.59553">
        <ele>878</ele>
        <time>2021-07-25T09:58:27Z</time>
      </trkpt>
      <trkpt lat="44.82705" lon="5.59547">
        <ele>878</ele>
        <time>2021-07-25T09:58:28Z</time>
      </trkpt>
      <trkpt lat="44.82704" lon="5.5954">
        <ele>878</ele>
        <time>2021-07-25T09:58:29Z</time>
      </trkpt>
      <trkpt lat="44.82703" lon="5.59533">
        <ele>879</ele>
        <time>2021-07-25T09:58:30Z</time>
      </trkpt>
      <trkpt lat="44.82702" lon="5.59526">
        <ele>879</ele>
        <time>2021-07-25T09:58:31Z</time>
      </trkpt>
      <trkpt lat="44.82701" lon="5.5952">
        <ele>879</ele>
        <time>2021-07-25T09:58:32Z</time>
      </trkpt>
      <trkpt lat="44.827" lon="5.59513">
        <ele>879</ele>
        <time>2021-07-25T09:58:33Z</time>
      </trkpt>
      <trkpt lat="44.82699" lon="5.59506">
        <ele>879</ele>
        <time>2021-07-25T09:58:34Z</time>
      </trkpt>
      <trkpt lat="44.82699" lon="5.59499">
        <ele>881</ele>
        <time>2021-07-25T09:58:35Z</time>
      </trkpt>
      <trkpt lat="44.82698" lon="5.59492">
        <ele>881</ele>
        <time>2021-07-25T09:58:36Z</time>
      </trkpt>
      <trkpt lat="44.82696" lon="5.59478">
        <ele>881</ele>
        <time>2021-07-25T09:58:38Z</time>
      </trkpt>
      <trkpt lat="44.82692" lon="5.59462">
        <ele>883</ele>
        <time>2021-07-25T09:58:40Z</time>
      </trkpt>
      <trkpt lat="44.8269" lon="5.59445">
        <ele>883</ele>
        <time>2021-07-25T09:58:42Z</time>
      </trkpt>
      <trkpt lat="44.82689" lon="5.5943">
        <ele>883</ele>
        <time>2021-07-25T09:58:44Z</time>
      </trkpt>
      <trkpt lat="44.82688" lon="5.59417">
        <ele>883</ele>
        <time>2021-07-25T09:58:46Z</time>
      </trkpt>
      <trkpt lat="44.82687" lon="5.59403">
        <ele>883</ele>
        <time>2021-07-25T09:58:48Z</time>
      </trkpt>
      <trkpt lat="44.82686" lon="5.59387">
        <ele>885</ele>
        <time>2021-07-25T09:58:50Z</time>
      </trkpt>
      <trkpt lat="44.82684" lon="5.59371">
        <ele>885</ele>
        <time>2021-07-25T09:58:52Z</time>
      </trkpt>
      <trkpt lat="44.82681" lon="5.59356">
        <ele>885</ele>
        <time>2021-07-25T09:58:54Z</time>
      </trkpt>
      <trkpt lat="44.82681" lon="5.59341">
        <ele>885</ele>
        <time>2021-07-25T09:58:56Z</time>
      </trkpt>
      <trkpt lat="44.82678" lon="5.59326">
        <ele>885</ele>
        <time>2021-07-25T09:58:58Z</time>
      </trkpt>
      <trkpt lat="44.82676" lon="5.59312">
        <ele>886</ele>
        <time>2021-07-25T09:59:00Z</time>
      </trkpt>
      <trkpt lat="44.82674" lon="5.59296">
        <ele>886</ele>
        <time>2021-07-25T09:59:02Z</time>
      </trkpt>
      <trkpt lat="44.82672" lon="5.5928">
        <ele>886</ele>
        <time>2021-07-25T09:59:04Z</time>
      </trkpt>
      <trkpt lat="44.82669" lon="5.59261">
        <ele>886</ele>
        <time>2021-07-25T09:59:06Z</time>
      </trkpt>
      <trkpt lat="44.82666" lon="5.59244">
        <ele>886</ele>
        <time>2021-07-25T09:59:08Z</time>
      </trkpt>
      <trkpt lat="44.82664" lon="5.59226">
        <ele>887</ele>
        <time>2021-07-25T09:59:10Z</time>
      </trkpt>
      <trkpt lat="44.82661" lon="5.59208">
        <ele>887</ele>
        <time>2021-07-25T09:59:12Z</time>
      </trkpt>
      <trkpt lat="44.82659" lon="5.59192">
        <ele>887</ele>
        <time>2021-07-25T09:59:14Z</time>
      </trkpt>
      <trkpt lat="44.82658" lon="5.59175">
        <ele>887</ele>
        <time>2021-07-25T09:59:16Z</time>
      </trkpt>
      <trkpt lat="44.82654" lon="5.59159">
        <ele>887</ele>
        <time>2021-07-25T09:59:18Z</time>
      </trkpt>
      <trkpt lat="44.82649" lon="5.59142">
        <ele>887</ele>
        <time>2021-07-25T09:59:20Z</time>
      </trkpt>
      <trkpt lat="44.82645" lon="5.59125">
        <ele>887</ele>
        <time>2021-07-25T09:59:22Z</time>
      </trkpt>
      <trkpt lat="44.82641" lon="5.59108">
        <ele>887</ele>
        <time>2021-07-25T09:59:24Z</time>
      </trkpt>
      <trkpt lat="44.82637" lon="5.59092">
        <ele>887</ele>
        <time>2021-07-25T09:59:26Z</time>
      </trkpt>
      <trkpt lat="44.82633" lon="5.59077">
        <ele>887</ele>
        <time>2021-07-25T09:59:28Z</time>
      </trkpt>
      <trkpt lat="44.8263" lon="5.59061">
        <ele>887</ele>
        <time>2021-07-25T09:59:30Z</time>
      </trkpt>
      <trkpt lat="44.82626" lon="5.59049">
        <ele>887</ele>
        <time>2021-07-25T09:59:32Z</time>
      </trkpt>
      <trkpt lat="44.82628" lon="5.59065">
        <ele>887</ele>
        <time>2021-07-25T09:59:36Z</time>
      </trkpt>
      <trkpt lat="44.82633" lon="5.59081">
        <ele>887</ele>
        <time>2021-07-25T09:59:38Z</time>
      </trkpt>
      <trkpt lat="44.82639" lon="5.591">
        <ele>888</ele>
        <time>2021-07-25T09:59:40Z</time>
      </trkpt>
      <trkpt lat="44.82644" lon="5.5912">
        <ele>888</ele>
        <time>2021-07-25T09:59:42Z</time>
      </trkpt>
      <trkpt lat="44.82651" lon="5.5914">
        <ele>888</ele>
        <time>2021-07-25T09:59:44Z</time>
      </trkpt>
      <trkpt lat="44.82657" lon="5.5916">
        <ele>888</ele>
        <time>2021-07-25T09:59:46Z</time>
      </trkpt>
      <trkpt lat="44.82662" lon="5.5918">
        <ele>888</ele>
        <time>2021-07-25T09:59:48Z</time>
      </trkpt>
      <trkpt lat="44.82666" lon="5.59201">
        <ele>888</ele>
        <time>2021-07-25T09:59:50Z</time>
      </trkpt>
      <trkpt lat="44.82668" lon="5.59222">
        <ele>888</ele>
        <time>2021-07-25T09:59:52Z</time>
      </trkpt>
      <trkpt lat="44.82671" lon="5.59242">
        <ele>888</ele>
        <time>2021-07-25T09:59:54Z</time>
      </trkpt>
      <trkpt lat="44.82671" lon="5.59262">
        <ele>888</ele>
        <time>2021-07-25T09:59:56Z</time>
      </trkpt>
      <trkpt lat="44.82673" lon="5.59283">
        <ele>888</ele>
        <time>2021-07-25T09:59:58Z</time>
      </trkpt>
      <trkpt lat="44.82676" lon="5.59305">
        <ele>886</ele>
        <time>2021-07-25T10:00:00Z</time>
      </trkpt>
      <trkpt lat="44.8268" lon="5.59327">
        <ele>886</ele>
        <time>2021-07-25T10:00:02Z</time>
      </trkpt>
      <trkpt lat="44.82687" lon="5.59348">
        <ele>886</ele>
        <time>2021-07-25T10:00:04Z</time>
      </trkpt>
      <trkpt lat="44.8269" lon="5.59368">
        <ele>886</ele>
        <time>2021-07-25T10:00:06Z</time>
      </trkpt>
      <trkpt lat="44.82693" lon="5.59389">
        <ele>886</ele>
        <time>2021-07-25T10:00:08Z</time>
      </trkpt>
      <trkpt lat="44.82695" lon="5.59409">
        <ele>886</ele>
        <time>2021-07-25T10:00:10Z</time>
      </trkpt>
      <trkpt lat="44.82698" lon="5.5943">
        <ele>886</ele>
        <time>2021-07-25T10:00:12Z</time>
      </trkpt>
      <trkpt lat="44.82702" lon="5.59453">
        <ele>886</ele>
        <time>2021-07-25T10:00:14Z</time>
      </trkpt>
      <trkpt lat="44.82705" lon="5.59476">
        <ele>886</ele>
        <time>2021-07-25T10:00:16Z</time>
      </trkpt>
      <trkpt lat="44.82708" lon="5.595">
        <ele>886</ele>
        <time>2021-07-25T10:00:18Z</time>
      </trkpt>
      <trkpt lat="44.82706" lon="5.59524">
        <ele>883</ele>
        <time>2021-07-25T10:00:20Z</time>
      </trkpt>
      <trkpt lat="44.82707" lon="5.59548">
        <ele>883</ele>
        <time>2021-07-25T10:00:22Z</time>
      </trkpt>
      <trkpt lat="44.82709" lon="5.59559">
        <ele>883</ele>
        <time>2021-07-25T10:00:23Z</time>
      </trkpt>
      <trkpt lat="44.82711" lon="5.5957">
        <ele>883</ele>
        <time>2021-07-25T10:00:24Z</time>
      </trkpt>
      <trkpt lat="44.82718" lon="5.59591">
        <ele>880</ele>
        <time>2021-07-25T10:00:26Z</time>
      </trkpt>
      <trkpt lat="44.82728" lon="5.59612">
        <ele>880</ele>
        <time>2021-07-25T10:00:28Z</time>
      </trkpt>
      <trkpt lat="44.82738" lon="5.59634">
        <ele>875</ele>
        <time>2021-07-25T10:00:30Z</time>
      </trkpt>
      <trkpt lat="44.82743" lon="5.59645">
        <ele>878</ele>
        <time>2021-07-25T10:00:31Z</time>
      </trkpt>
      <trkpt lat="44.82748" lon="5.59656">
        <ele>881</ele>
        <time>2021-07-25T10:00:32Z</time>
      </trkpt>
      <trkpt lat="44.82759" lon="5.59678">
        <ele>880</ele>
        <time>2021-07-25T10:00:34Z</time>
      </trkpt>
      <trkpt lat="44.82764" lon="5.59689">
        <ele>879</ele>
        <time>2021-07-25T10:00:35Z</time>
      </trkpt>
      <trkpt lat="44.82769" lon="5.597">
        <ele>879</ele>
        <time>2021-07-25T10:00:36Z</time>
      </trkpt>
      <trkpt lat="44.82775" lon="5.59712">
        <ele>877</ele>
        <time>2021-07-25T10:00:37Z</time>
      </trkpt>
      <trkpt lat="44.82781" lon="5.59723">
        <ele>876</ele>
        <time>2021-07-25T10:00:38Z</time>
      </trkpt>
      <trkpt lat="44.82787" lon="5.59735">
        <ele>876</ele>
        <time>2021-07-25T10:00:39Z</time>
      </trkpt>
      <trkpt lat="44.82792" lon="5.59747">
        <ele>875</ele>
        <time>2021-07-25T10:00:40Z</time>
      </trkpt>
      <trkpt lat="44.82798" lon="5.59758">
        <ele>875</ele>
        <time>2021-07-25T10:00:41Z</time>
      </trkpt>
      <trkpt lat="44.82804" lon="5.5977">
        <ele>875</ele>
        <time>2021-07-25T10:00:42Z</time>
      </trkpt>
      <trkpt lat="44.82815" lon="5.59794">
        <ele>875</ele>
        <time>2021-07-25T10:00:44Z</time>
      </trkpt>
      <trkpt lat="44.8282" lon="5.59807">
        <ele>875</ele>
        <time>2021-07-25T10:00:45Z</time>
      </trkpt>
      <trkpt lat="44.82826" lon="5.59819">
        <ele>875</ele>
        <time>2021-07-25T10:00:46Z</time>
      </trkpt>
      <trkpt lat="44.82832" lon="5.59831">
        <ele>875</ele>
        <time>2021-07-25T10:00:47Z</time>
      </trkpt>
      <trkpt lat="44.82838" lon="5.59843">
        <ele>875</ele>
        <time>2021-07-25T10:00:48Z</time>
      </trkpt>
      <trkpt lat="44.82844" lon="5.59856">
        <ele>875</ele>
        <time>2021-07-25T10:00:49Z</time>
      </trkpt>
      <trkpt lat="44.8285" lon="5.59869">
        <ele>872</ele>
        <time>2021-07-25T10:00:50Z</time>
      </trkpt>
      <trkpt lat="44.82856" lon="5.59882">
        <ele>872</ele>
        <time>2021-07-25T10:00:51Z</time>
      </trkpt>
      <trkpt lat="44.82861" lon="5.59896">
        <ele>872</ele>
        <time>2021-07-25T10:00:52Z</time>
      </trkpt>
      <trkpt lat="44.82866" lon="5.5991">
        <ele>872</ele>
        <time>2021-07-25T10:00:53Z</time>
      </trkpt>
      <trkpt lat="44.8287" lon="5.59925">
        <ele>872</ele>
        <time>2021-07-25T10:00:54Z</time>
      </trkpt>
      <trkpt lat="44.82873" lon="5.59939">
        <ele>869</ele>
        <time>2021-07-25T10:00:55Z</time>
      </trkpt>
      <trkpt lat="44.82876" lon="5.59955">
        <ele>869</ele>
        <time>2021-07-25T10:00:56Z</time>
      </trkpt>
      <trkpt lat="44.82877" lon="5.5997">
        <ele>869</ele>
        <time>2021-07-25T10:00:57Z</time>
      </trkpt>
      <trkpt lat="44.82879" lon="5.59986">
        <ele>869</ele>
        <time>2021-07-25T10:00:58Z</time>
      </trkpt>
      <trkpt lat="44.82879" lon="5.60001">
        <ele>869</ele>
        <time>2021-07-25T10:00:59Z</time>
      </trkpt>
      <trkpt lat="44.82879" lon="5.60017">
        <ele>867</ele>
        <time>2021-07-25T10:01:00Z</time>
      </trkpt>
      <trkpt lat="44.82879" lon="5.60033">
        <ele>866</ele>
        <time>2021-07-25T10:01:01Z</time>
      </trkpt>
      <trkpt lat="44.82878" lon="5.60049">
        <ele>864</ele>
        <time>2021-07-25T10:01:02Z</time>
      </trkpt>
      <trkpt lat="44.82877" lon="5.60064">
        <ele>864</ele>
        <time>2021-07-25T10:01:03Z</time>
      </trkpt>
      <trkpt lat="44.82875" lon="5.60079">
        <ele>864</ele>
        <time>2021-07-25T10:01:04Z</time>
      </trkpt>
      <trkpt lat="44.82873" lon="5.60094">
        <ele>863</ele>
        <time>2021-07-25T10:01:05Z</time>
      </trkpt>
      <trkpt lat="44.82869" lon="5.60109">
        <ele>863</ele>
        <time>2021-07-25T10:01:06Z</time>
      </trkpt>
      <trkpt lat="44.82865" lon="5.60123">
        <ele>862</ele>
        <time>2021-07-25T10:01:07Z</time>
      </trkpt>
      <trkpt lat="44.82862" lon="5.60137">
        <ele>862</ele>
        <time>2021-07-25T10:01:08Z</time>
      </trkpt>
      <trkpt lat="44.82858" lon="5.60152">
        <ele>861</ele>
        <time>2021-07-25T10:01:09Z</time>
      </trkpt>
      <trkpt lat="44.82855" lon="5.60166">
        <ele>859</ele>
        <time>2021-07-25T10:01:10Z</time>
      </trkpt>
      <trkpt lat="44.82853" lon="5.60181">
        <ele>856</ele>
        <time>2021-07-25T10:01:11Z</time>
      </trkpt>
      <trkpt lat="44.82853" lon="5.60196">
        <ele>854</ele>
        <time>2021-07-25T10:01:12Z</time>
      </trkpt>
      <trkpt lat="44.82854" lon="5.60211">
        <ele>853</ele>
        <time>2021-07-25T10:01:13Z</time>
      </trkpt>
      <trkpt lat="44.82855" lon="5.60226">
        <ele>853</ele>
        <time>2021-07-25T10:01:14Z</time>
      </trkpt>
      <trkpt lat="44.82858" lon="5.6024">
        <ele>852</ele>
        <time>2021-07-25T10:01:15Z</time>
      </trkpt>
      <trkpt lat="44.82862" lon="5.60255">
        <ele>851</ele>
        <time>2021-07-25T10:01:16Z</time>
      </trkpt>
      <trkpt lat="44.82867" lon="5.60268">
        <ele>851</ele>
        <time>2021-07-25T10:01:17Z</time>
      </trkpt>
      <trkpt lat="44.82871" lon="5.60282">
        <ele>850</ele>
        <time>2021-07-25T10:01:18Z</time>
      </trkpt>
      <trkpt lat="44.82876" lon="5.60296">
        <ele>849</ele>
        <time>2021-07-25T10:01:19Z</time>
      </trkpt>
      <trkpt lat="44.8288" lon="5.60309">
        <ele>848</ele>
        <time>2021-07-25T10:01:20Z</time>
      </trkpt>
      <trkpt lat="44.82885" lon="5.60323">
        <ele>848</ele>
        <time>2021-07-25T10:01:21Z</time>
      </trkpt>
      <trkpt lat="44.82889" lon="5.60337">
        <ele>849</ele>
        <time>2021-07-25T10:01:22Z</time>
      </trkpt>
      <trkpt lat="44.82894" lon="5.6035">
        <ele>851</ele>
        <time>2021-07-25T10:01:23Z</time>
      </trkpt>
      <trkpt lat="44.82898" lon="5.60364">
        <ele>850</ele>
        <time>2021-07-25T10:01:24Z</time>
      </trkpt>
      <trkpt lat="44.82903" lon="5.60378">
        <ele>848</ele>
        <time>2021-07-25T10:01:25Z</time>
      </trkpt>
      <trkpt lat="44.82908" lon="5.60392">
        <ele>847</ele>
        <time>2021-07-25T10:01:26Z</time>
      </trkpt>
      <trkpt lat="44.82912" lon="5.60406">
        <ele>845</ele>
        <time>2021-07-25T10:01:27Z</time>
      </trkpt>
      <trkpt lat="44.82916" lon="5.6042">
        <ele>843</ele>
        <time>2021-07-25T10:01:28Z</time>
      </trkpt>
      <trkpt lat="44.82921" lon="5.60434">
        <ele>841</ele>
        <time>2021-07-25T10:01:29Z</time>
      </trkpt>
      <trkpt lat="44.82925" lon="5.60448">
        <ele>841</ele>
        <time>2021-07-25T10:01:30Z</time>
      </trkpt>
      <trkpt lat="44.8293" lon="5.60462">
        <ele>842</ele>
        <time>2021-07-25T10:01:31Z</time>
      </trkpt>
      <trkpt lat="44.82934" lon="5.60476">
        <ele>840</ele>
        <time>2021-07-25T10:01:32Z</time>
      </trkpt>
      <trkpt lat="44.82938" lon="5.6049">
        <ele>840</ele>
        <time>2021-07-25T10:01:33Z</time>
      </trkpt>
      <trkpt lat="44.82942" lon="5.60503">
        <ele>839</ele>
        <time>2021-07-25T10:01:34Z</time>
      </trkpt>
      <trkpt lat="44.82946" lon="5.60516">
        <ele>839</ele>
        <time>2021-07-25T10:01:35Z</time>
      </trkpt>
      <trkpt lat="44.82949" lon="5.60526">
        <ele>837</ele>
        <time>2021-07-25T10:01:36Z</time>
      </trkpt>
      <trkpt lat="44.82952" lon="5.60535">
        <ele>837</ele>
        <time>2021-07-25T10:01:37Z</time>
      </trkpt>
      <trkpt lat="44.82954" lon="5.60542">
        <ele>838</ele>
        <time>2021-07-25T10:01:39Z</time>
      </trkpt>
    </trkseg>
  </trk>
</gpx>